<?xml version="1.0" encoding="UTF-8" standalone="no" ?>
<gpx xmlns="http://www.topografix.com/GPX/1/1" xmlns:xsi="http://www.w3.org/2001/XMLSchema-instance" xsi:schemaLocation="http://www.topografix.com/GPX/1/1 http://www.topografix.com/GPX/1/1/gpx.xsd" version="1.1" creator="VisuGPX - https://www.visugpx.com">
  <metadata>
    <name>83 - V - Lorgues </name>
    <desc><![CDATA[83 - V - Lorgues : les terres blanches 
2023-09-15]]></desc>
  </metadata>
  <trk>
    <name><![CDATA[Lorgues - les terres blanches 2023-09-15-01]]></name>
    <trkseg>
      <trkpt lat="43.51712" lon="6.32666">
        <ele>335.4</ele>
        <time>2023-09-15T11:47:23Z</time>
      </trkpt>
      <trkpt lat="43.51713" lon="6.32666">
        <ele>335.4</ele>
        <time>2023-09-15T11:47:24Z</time>
      </trkpt>
      <trkpt lat="43.51713" lon="6.32666">
        <ele>335.3</ele>
        <time>2023-09-15T11:47:25Z</time>
      </trkpt>
      <trkpt lat="43.51713" lon="6.32666">
        <ele>335.3</ele>
        <time>2023-09-15T11:47:26Z</time>
      </trkpt>
      <trkpt lat="43.51713" lon="6.32666">
        <ele>335.3</ele>
        <time>2023-09-15T11:47:27Z</time>
      </trkpt>
      <trkpt lat="43.51713" lon="6.32666">
        <ele>335.2</ele>
        <time>2023-09-15T11:47:28Z</time>
      </trkpt>
      <trkpt lat="43.51713" lon="6.32666">
        <ele>335.3</ele>
        <time>2023-09-15T11:47:29Z</time>
      </trkpt>
      <trkpt lat="43.51712" lon="6.32666">
        <ele>335.3</ele>
        <time>2023-09-15T11:47:30Z</time>
      </trkpt>
      <trkpt lat="43.51712" lon="6.32665">
        <ele>335.4</ele>
        <time>2023-09-15T11:47:31Z</time>
      </trkpt>
      <trkpt lat="43.51713" lon="6.32665">
        <ele>335.3</ele>
        <time>2023-09-15T11:47:32Z</time>
      </trkpt>
      <trkpt lat="43.51713" lon="6.32665">
        <ele>335.3</ele>
        <time>2023-09-15T11:47:33Z</time>
      </trkpt>
      <trkpt lat="43.51713" lon="6.32665">
        <ele>335.4</ele>
        <time>2023-09-15T11:47:34Z</time>
      </trkpt>
      <trkpt lat="43.51713" lon="6.32665">
        <ele>335.4</ele>
        <time>2023-09-15T11:47:35Z</time>
      </trkpt>
      <trkpt lat="43.51713" lon="6.32664">
        <ele>335.4</ele>
        <time>2023-09-15T11:47:36Z</time>
      </trkpt>
      <trkpt lat="43.51713" lon="6.32664">
        <ele>335.3</ele>
        <time>2023-09-15T11:47:37Z</time>
      </trkpt>
      <trkpt lat="43.51713" lon="6.32665">
        <ele>335.3</ele>
        <time>2023-09-15T11:47:38Z</time>
      </trkpt>
      <trkpt lat="43.51714" lon="6.32665">
        <ele>335.3</ele>
        <time>2023-09-15T11:47:39Z</time>
      </trkpt>
      <trkpt lat="43.51714" lon="6.32665">
        <ele>335.3</ele>
        <time>2023-09-15T11:47:40Z</time>
      </trkpt>
      <trkpt lat="43.51714" lon="6.32665">
        <ele>335.3</ele>
        <time>2023-09-15T11:47:41Z</time>
      </trkpt>
      <trkpt lat="43.51714" lon="6.32664">
        <ele>335.3</ele>
        <time>2023-09-15T11:47:42Z</time>
      </trkpt>
      <trkpt lat="43.51715" lon="6.32663">
        <ele>335.3</ele>
        <time>2023-09-15T11:47:43Z</time>
      </trkpt>
      <trkpt lat="43.51715" lon="6.32662">
        <ele>335.2</ele>
        <time>2023-09-15T11:47:44Z</time>
      </trkpt>
      <trkpt lat="43.51716" lon="6.32661">
        <ele>335.2</ele>
        <time>2023-09-15T11:47:45Z</time>
      </trkpt>
      <trkpt lat="43.51717" lon="6.32659">
        <ele>335.3</ele>
        <time>2023-09-15T11:47:46Z</time>
      </trkpt>
      <trkpt lat="43.51718" lon="6.32658">
        <ele>335.2</ele>
        <time>2023-09-15T11:47:47Z</time>
      </trkpt>
      <trkpt lat="43.51719" lon="6.32657">
        <ele>335.2</ele>
        <time>2023-09-15T11:47:48Z</time>
      </trkpt>
      <trkpt lat="43.5172" lon="6.32657">
        <ele>335.2</ele>
        <time>2023-09-15T11:47:49Z</time>
      </trkpt>
      <trkpt lat="43.51721" lon="6.32655">
        <ele>335.2</ele>
        <time>2023-09-15T11:47:50Z</time>
      </trkpt>
      <trkpt lat="43.51722" lon="6.32653">
        <ele>335.1</ele>
        <time>2023-09-15T11:47:51Z</time>
      </trkpt>
      <trkpt lat="43.51722" lon="6.32652">
        <ele>335.1</ele>
        <time>2023-09-15T11:47:52Z</time>
      </trkpt>
      <trkpt lat="43.51723" lon="6.32651">
        <ele>335.1</ele>
        <time>2023-09-15T11:47:53Z</time>
      </trkpt>
      <trkpt lat="43.51723" lon="6.3265">
        <ele>335</ele>
        <time>2023-09-15T11:47:54Z</time>
      </trkpt>
      <trkpt lat="43.51724" lon="6.32649">
        <ele>335</ele>
        <time>2023-09-15T11:47:55Z</time>
      </trkpt>
      <trkpt lat="43.51725" lon="6.32648">
        <ele>335.1</ele>
        <time>2023-09-15T11:47:56Z</time>
      </trkpt>
      <trkpt lat="43.51725" lon="6.32648">
        <ele>335.1</ele>
        <time>2023-09-15T11:47:57Z</time>
      </trkpt>
      <trkpt lat="43.51726" lon="6.32648">
        <ele>335.2</ele>
        <time>2023-09-15T11:47:58Z</time>
      </trkpt>
      <trkpt lat="43.51726" lon="6.32648">
        <ele>335.3</ele>
        <time>2023-09-15T11:47:59Z</time>
      </trkpt>
      <trkpt lat="43.51726" lon="6.32647">
        <ele>335.3</ele>
        <time>2023-09-15T11:48:00Z</time>
      </trkpt>
      <trkpt lat="43.51727" lon="6.32646">
        <ele>335.2</ele>
        <time>2023-09-15T11:48:01Z</time>
      </trkpt>
      <trkpt lat="43.51727" lon="6.32645">
        <ele>335.2</ele>
        <time>2023-09-15T11:48:02Z</time>
      </trkpt>
      <trkpt lat="43.51728" lon="6.32644">
        <ele>335.2</ele>
        <time>2023-09-15T11:48:03Z</time>
      </trkpt>
      <trkpt lat="43.51729" lon="6.32643">
        <ele>335.2</ele>
        <time>2023-09-15T11:48:04Z</time>
      </trkpt>
      <trkpt lat="43.5173" lon="6.32642">
        <ele>335.2</ele>
        <time>2023-09-15T11:48:05Z</time>
      </trkpt>
      <trkpt lat="43.51731" lon="6.32642">
        <ele>335.1</ele>
        <time>2023-09-15T11:48:06Z</time>
      </trkpt>
      <trkpt lat="43.51731" lon="6.32641">
        <ele>335.1</ele>
        <time>2023-09-15T11:48:07Z</time>
      </trkpt>
      <trkpt lat="43.51732" lon="6.3264">
        <ele>335.3</ele>
        <time>2023-09-15T11:48:08Z</time>
      </trkpt>
      <trkpt lat="43.51733" lon="6.3264">
        <ele>335.3</ele>
        <time>2023-09-15T11:48:09Z</time>
      </trkpt>
      <trkpt lat="43.51733" lon="6.3264">
        <ele>335.4</ele>
        <time>2023-09-15T11:48:10Z</time>
      </trkpt>
      <trkpt lat="43.51734" lon="6.3264">
        <ele>335.5</ele>
        <time>2023-09-15T11:48:11Z</time>
      </trkpt>
      <trkpt lat="43.51735" lon="6.32639">
        <ele>335.5</ele>
        <time>2023-09-15T11:48:12Z</time>
      </trkpt>
      <trkpt lat="43.51736" lon="6.32638">
        <ele>335.5</ele>
        <time>2023-09-15T11:48:13Z</time>
      </trkpt>
      <trkpt lat="43.51736" lon="6.32637">
        <ele>335.5</ele>
        <time>2023-09-15T11:48:14Z</time>
      </trkpt>
      <trkpt lat="43.51737" lon="6.32637">
        <ele>335.5</ele>
        <time>2023-09-15T11:48:15Z</time>
      </trkpt>
      <trkpt lat="43.51738" lon="6.32636">
        <ele>335.5</ele>
        <time>2023-09-15T11:48:16Z</time>
      </trkpt>
      <trkpt lat="43.51739" lon="6.32636">
        <ele>335.4</ele>
        <time>2023-09-15T11:48:17Z</time>
      </trkpt>
      <trkpt lat="43.51739" lon="6.32635">
        <ele>335.4</ele>
        <time>2023-09-15T11:48:18Z</time>
      </trkpt>
      <trkpt lat="43.5174" lon="6.32634">
        <ele>335.4</ele>
        <time>2023-09-15T11:48:19Z</time>
      </trkpt>
      <trkpt lat="43.51741" lon="6.32633">
        <ele>335.5</ele>
        <time>2023-09-15T11:48:20Z</time>
      </trkpt>
      <trkpt lat="43.51742" lon="6.32633">
        <ele>335.5</ele>
        <time>2023-09-15T11:48:21Z</time>
      </trkpt>
      <trkpt lat="43.51743" lon="6.32632">
        <ele>335.6</ele>
        <time>2023-09-15T11:48:22Z</time>
      </trkpt>
      <trkpt lat="43.51744" lon="6.32631">
        <ele>335.6</ele>
        <time>2023-09-15T11:48:23Z</time>
      </trkpt>
      <trkpt lat="43.51745" lon="6.3263">
        <ele>335.7</ele>
        <time>2023-09-15T11:48:24Z</time>
      </trkpt>
      <trkpt lat="43.51746" lon="6.32629">
        <ele>335.8</ele>
        <time>2023-09-15T11:48:25Z</time>
      </trkpt>
      <trkpt lat="43.51747" lon="6.32628">
        <ele>335.8</ele>
        <time>2023-09-15T11:48:26Z</time>
      </trkpt>
      <trkpt lat="43.51748" lon="6.32627">
        <ele>335.9</ele>
        <time>2023-09-15T11:48:27Z</time>
      </trkpt>
      <trkpt lat="43.51749" lon="6.32626">
        <ele>335.9</ele>
        <time>2023-09-15T11:48:28Z</time>
      </trkpt>
      <trkpt lat="43.5175" lon="6.32625">
        <ele>335.8</ele>
        <time>2023-09-15T11:48:29Z</time>
      </trkpt>
      <trkpt lat="43.51751" lon="6.32624">
        <ele>335.8</ele>
        <time>2023-09-15T11:48:30Z</time>
      </trkpt>
      <trkpt lat="43.51752" lon="6.32623">
        <ele>335.9</ele>
        <time>2023-09-15T11:48:31Z</time>
      </trkpt>
      <trkpt lat="43.51753" lon="6.32622">
        <ele>335.9</ele>
        <time>2023-09-15T11:48:32Z</time>
      </trkpt>
      <trkpt lat="43.51754" lon="6.32621">
        <ele>336</ele>
        <time>2023-09-15T11:48:33Z</time>
      </trkpt>
      <trkpt lat="43.51755" lon="6.3262">
        <ele>336</ele>
        <time>2023-09-15T11:48:34Z</time>
      </trkpt>
      <trkpt lat="43.51755" lon="6.3262">
        <ele>336</ele>
        <time>2023-09-15T11:48:35Z</time>
      </trkpt>
      <trkpt lat="43.51756" lon="6.3262">
        <ele>336.1</ele>
        <time>2023-09-15T11:48:36Z</time>
      </trkpt>
      <trkpt lat="43.51757" lon="6.32619">
        <ele>336.1</ele>
        <time>2023-09-15T11:48:37Z</time>
      </trkpt>
      <trkpt lat="43.51758" lon="6.32618">
        <ele>336.1</ele>
        <time>2023-09-15T11:48:38Z</time>
      </trkpt>
      <trkpt lat="43.51758" lon="6.32617">
        <ele>336.1</ele>
        <time>2023-09-15T11:48:39Z</time>
      </trkpt>
      <trkpt lat="43.51758" lon="6.32617">
        <ele>336.3</ele>
        <time>2023-09-15T11:48:40Z</time>
      </trkpt>
      <trkpt lat="43.51759" lon="6.32617">
        <ele>336.4</ele>
        <time>2023-09-15T11:48:41Z</time>
      </trkpt>
      <trkpt lat="43.51759" lon="6.32616">
        <ele>336.5</ele>
        <time>2023-09-15T11:48:42Z</time>
      </trkpt>
      <trkpt lat="43.5176" lon="6.32615">
        <ele>336.5</ele>
        <time>2023-09-15T11:48:43Z</time>
      </trkpt>
      <trkpt lat="43.51761" lon="6.32615">
        <ele>336.6</ele>
        <time>2023-09-15T11:48:44Z</time>
      </trkpt>
      <trkpt lat="43.51762" lon="6.32614">
        <ele>336.6</ele>
        <time>2023-09-15T11:48:45Z</time>
      </trkpt>
      <trkpt lat="43.51763" lon="6.32613">
        <ele>336.7</ele>
        <time>2023-09-15T11:48:46Z</time>
      </trkpt>
      <trkpt lat="43.51764" lon="6.32612">
        <ele>336.8</ele>
        <time>2023-09-15T11:48:47Z</time>
      </trkpt>
      <trkpt lat="43.51765" lon="6.32611">
        <ele>336.9</ele>
        <time>2023-09-15T11:48:48Z</time>
      </trkpt>
      <trkpt lat="43.51766" lon="6.32609">
        <ele>337</ele>
        <time>2023-09-15T11:48:49Z</time>
      </trkpt>
      <trkpt lat="43.51767" lon="6.32608">
        <ele>337.1</ele>
        <time>2023-09-15T11:48:50Z</time>
      </trkpt>
      <trkpt lat="43.51767" lon="6.32608">
        <ele>337.3</ele>
        <time>2023-09-15T11:48:51Z</time>
      </trkpt>
      <trkpt lat="43.51769" lon="6.32607">
        <ele>337.5</ele>
        <time>2023-09-15T11:48:52Z</time>
      </trkpt>
      <trkpt lat="43.5177" lon="6.32606">
        <ele>337.6</ele>
        <time>2023-09-15T11:48:53Z</time>
      </trkpt>
      <trkpt lat="43.5177" lon="6.32606">
        <ele>337.8</ele>
        <time>2023-09-15T11:48:54Z</time>
      </trkpt>
      <trkpt lat="43.5177" lon="6.32606">
        <ele>338</ele>
        <time>2023-09-15T11:48:55Z</time>
      </trkpt>
      <trkpt lat="43.5177" lon="6.32607">
        <ele>338.1</ele>
        <time>2023-09-15T11:48:56Z</time>
      </trkpt>
      <trkpt lat="43.5177" lon="6.32607">
        <ele>338.2</ele>
        <time>2023-09-15T11:48:57Z</time>
      </trkpt>
      <trkpt lat="43.51771" lon="6.32607">
        <ele>338.2</ele>
        <time>2023-09-15T11:48:58Z</time>
      </trkpt>
      <trkpt lat="43.51771" lon="6.32608">
        <ele>338.2</ele>
        <time>2023-09-15T11:48:59Z</time>
      </trkpt>
      <trkpt lat="43.51771" lon="6.32607">
        <ele>338.2</ele>
        <time>2023-09-15T11:49:00Z</time>
      </trkpt>
      <trkpt lat="43.51772" lon="6.32607">
        <ele>338.2</ele>
        <time>2023-09-15T11:49:01Z</time>
      </trkpt>
      <trkpt lat="43.51773" lon="6.32606">
        <ele>338.2</ele>
        <time>2023-09-15T11:49:02Z</time>
      </trkpt>
      <trkpt lat="43.51773" lon="6.32605">
        <ele>338.3</ele>
        <time>2023-09-15T11:49:03Z</time>
      </trkpt>
      <trkpt lat="43.51774" lon="6.32604">
        <ele>338.3</ele>
        <time>2023-09-15T11:49:04Z</time>
      </trkpt>
      <trkpt lat="43.51775" lon="6.32603">
        <ele>338.4</ele>
        <time>2023-09-15T11:49:05Z</time>
      </trkpt>
      <trkpt lat="43.51776" lon="6.32602">
        <ele>338.4</ele>
        <time>2023-09-15T11:49:06Z</time>
      </trkpt>
      <trkpt lat="43.51777" lon="6.32601">
        <ele>338.6</ele>
        <time>2023-09-15T11:49:07Z</time>
      </trkpt>
      <trkpt lat="43.51778" lon="6.32599">
        <ele>338.7</ele>
        <time>2023-09-15T11:49:08Z</time>
      </trkpt>
      <trkpt lat="43.51778" lon="6.32599">
        <ele>338.8</ele>
        <time>2023-09-15T11:49:09Z</time>
      </trkpt>
      <trkpt lat="43.51779" lon="6.32598">
        <ele>338.9</ele>
        <time>2023-09-15T11:49:10Z</time>
      </trkpt>
      <trkpt lat="43.5178" lon="6.32597">
        <ele>339.1</ele>
        <time>2023-09-15T11:49:11Z</time>
      </trkpt>
      <trkpt lat="43.51781" lon="6.32595">
        <ele>339.2</ele>
        <time>2023-09-15T11:49:12Z</time>
      </trkpt>
      <trkpt lat="43.51781" lon="6.32593">
        <ele>339.4</ele>
        <time>2023-09-15T11:49:13Z</time>
      </trkpt>
      <trkpt lat="43.51783" lon="6.32591">
        <ele>339.5</ele>
        <time>2023-09-15T11:49:14Z</time>
      </trkpt>
      <trkpt lat="43.51784" lon="6.32588">
        <ele>339.8</ele>
        <time>2023-09-15T11:49:15Z</time>
      </trkpt>
      <trkpt lat="43.51785" lon="6.32587">
        <ele>340</ele>
        <time>2023-09-15T11:49:16Z</time>
      </trkpt>
      <trkpt lat="43.51786" lon="6.32585">
        <ele>339.6</ele>
        <time>2023-09-15T11:49:17Z</time>
      </trkpt>
      <trkpt lat="43.51788" lon="6.32583">
        <ele>339.2</ele>
        <time>2023-09-15T11:49:18Z</time>
      </trkpt>
      <trkpt lat="43.51789" lon="6.32581">
        <ele>339.5</ele>
        <time>2023-09-15T11:49:19Z</time>
      </trkpt>
      <trkpt lat="43.5179" lon="6.3258">
        <ele>339.8</ele>
        <time>2023-09-15T11:49:20Z</time>
      </trkpt>
      <trkpt lat="43.51791" lon="6.32578">
        <ele>340.2</ele>
        <time>2023-09-15T11:49:21Z</time>
      </trkpt>
      <trkpt lat="43.51791" lon="6.32576">
        <ele>340.5</ele>
        <time>2023-09-15T11:49:22Z</time>
      </trkpt>
      <trkpt lat="43.51792" lon="6.32574">
        <ele>340.7</ele>
        <time>2023-09-15T11:49:23Z</time>
      </trkpt>
      <trkpt lat="43.51793" lon="6.32572">
        <ele>340.9</ele>
        <time>2023-09-15T11:49:24Z</time>
      </trkpt>
      <trkpt lat="43.51793" lon="6.32571">
        <ele>341.1</ele>
        <time>2023-09-15T11:49:25Z</time>
      </trkpt>
      <trkpt lat="43.51793" lon="6.3257">
        <ele>341.2</ele>
        <time>2023-09-15T11:49:26Z</time>
      </trkpt>
      <trkpt lat="43.51794" lon="6.32569">
        <ele>341.4</ele>
        <time>2023-09-15T11:49:27Z</time>
      </trkpt>
      <trkpt lat="43.51794" lon="6.32568">
        <ele>341.6</ele>
        <time>2023-09-15T11:49:28Z</time>
      </trkpt>
      <trkpt lat="43.51794" lon="6.32566">
        <ele>341.7</ele>
        <time>2023-09-15T11:49:29Z</time>
      </trkpt>
      <trkpt lat="43.51795" lon="6.32566">
        <ele>341.8</ele>
        <time>2023-09-15T11:49:30Z</time>
      </trkpt>
      <trkpt lat="43.51796" lon="6.32564">
        <ele>341.9</ele>
        <time>2023-09-15T11:49:31Z</time>
      </trkpt>
      <trkpt lat="43.51796" lon="6.32563">
        <ele>342.1</ele>
        <time>2023-09-15T11:49:32Z</time>
      </trkpt>
      <trkpt lat="43.51797" lon="6.32562">
        <ele>342.2</ele>
        <time>2023-09-15T11:49:33Z</time>
      </trkpt>
      <trkpt lat="43.51796" lon="6.32561">
        <ele>342.4</ele>
        <time>2023-09-15T11:49:34Z</time>
      </trkpt>
      <trkpt lat="43.51796" lon="6.32561">
        <ele>342.5</ele>
        <time>2023-09-15T11:49:35Z</time>
      </trkpt>
      <trkpt lat="43.51797" lon="6.32559">
        <ele>342.7</ele>
        <time>2023-09-15T11:49:36Z</time>
      </trkpt>
      <trkpt lat="43.51797" lon="6.32557">
        <ele>342.8</ele>
        <time>2023-09-15T11:49:37Z</time>
      </trkpt>
      <trkpt lat="43.51797" lon="6.32556">
        <ele>343</ele>
        <time>2023-09-15T11:49:38Z</time>
      </trkpt>
      <trkpt lat="43.51797" lon="6.32555">
        <ele>343.1</ele>
        <time>2023-09-15T11:49:39Z</time>
      </trkpt>
      <trkpt lat="43.51798" lon="6.32555">
        <ele>343.3</ele>
        <time>2023-09-15T11:49:40Z</time>
      </trkpt>
      <trkpt lat="43.51799" lon="6.32553">
        <ele>343.4</ele>
        <time>2023-09-15T11:49:41Z</time>
      </trkpt>
      <trkpt lat="43.51799" lon="6.32552">
        <ele>343.4</ele>
        <time>2023-09-15T11:49:42Z</time>
      </trkpt>
      <trkpt lat="43.518" lon="6.32552">
        <ele>343.5</ele>
        <time>2023-09-15T11:49:43Z</time>
      </trkpt>
      <trkpt lat="43.518" lon="6.32551">
        <ele>343.7</ele>
        <time>2023-09-15T11:49:44Z</time>
      </trkpt>
      <trkpt lat="43.518" lon="6.32552">
        <ele>343.8</ele>
        <time>2023-09-15T11:49:45Z</time>
      </trkpt>
      <trkpt lat="43.518" lon="6.32551">
        <ele>343.8</ele>
        <time>2023-09-15T11:49:46Z</time>
      </trkpt>
      <trkpt lat="43.518" lon="6.32549">
        <ele>344</ele>
        <time>2023-09-15T11:49:47Z</time>
      </trkpt>
      <trkpt lat="43.518" lon="6.32548">
        <ele>344.1</ele>
        <time>2023-09-15T11:49:48Z</time>
      </trkpt>
      <trkpt lat="43.518" lon="6.32547">
        <ele>344.2</ele>
        <time>2023-09-15T11:49:49Z</time>
      </trkpt>
      <trkpt lat="43.51799" lon="6.32545">
        <ele>344.3</ele>
        <time>2023-09-15T11:49:50Z</time>
      </trkpt>
      <trkpt lat="43.51798" lon="6.32543">
        <ele>344.3</ele>
        <time>2023-09-15T11:49:51Z</time>
      </trkpt>
      <trkpt lat="43.51798" lon="6.32541">
        <ele>344.4</ele>
        <time>2023-09-15T11:49:52Z</time>
      </trkpt>
      <trkpt lat="43.51798" lon="6.32539">
        <ele>344.5</ele>
        <time>2023-09-15T11:49:53Z</time>
      </trkpt>
      <trkpt lat="43.51797" lon="6.32538">
        <ele>344.5</ele>
        <time>2023-09-15T11:49:54Z</time>
      </trkpt>
      <trkpt lat="43.51798" lon="6.32536">
        <ele>344.7</ele>
        <time>2023-09-15T11:49:55Z</time>
      </trkpt>
      <trkpt lat="43.51799" lon="6.32534">
        <ele>344.8</ele>
        <time>2023-09-15T11:49:56Z</time>
      </trkpt>
      <trkpt lat="43.51799" lon="6.32532">
        <ele>344.9</ele>
        <time>2023-09-15T11:49:57Z</time>
      </trkpt>
      <trkpt lat="43.51799" lon="6.3253">
        <ele>345</ele>
        <time>2023-09-15T11:49:58Z</time>
      </trkpt>
      <trkpt lat="43.51799" lon="6.32529">
        <ele>345.1</ele>
        <time>2023-09-15T11:49:59Z</time>
      </trkpt>
      <trkpt lat="43.518" lon="6.32527">
        <ele>345.2</ele>
        <time>2023-09-15T11:50:00Z</time>
      </trkpt>
      <trkpt lat="43.51799" lon="6.32526">
        <ele>345.3</ele>
        <time>2023-09-15T11:50:01Z</time>
      </trkpt>
      <trkpt lat="43.51799" lon="6.32524">
        <ele>345.4</ele>
        <time>2023-09-15T11:50:02Z</time>
      </trkpt>
      <trkpt lat="43.51799" lon="6.32523">
        <ele>345.5</ele>
        <time>2023-09-15T11:50:03Z</time>
      </trkpt>
      <trkpt lat="43.51799" lon="6.32522">
        <ele>345.6</ele>
        <time>2023-09-15T11:50:04Z</time>
      </trkpt>
      <trkpt lat="43.51798" lon="6.32521">
        <ele>345.6</ele>
        <time>2023-09-15T11:50:05Z</time>
      </trkpt>
      <trkpt lat="43.51798" lon="6.32519">
        <ele>345.7</ele>
        <time>2023-09-15T11:50:06Z</time>
      </trkpt>
      <trkpt lat="43.51798" lon="6.32517">
        <ele>345.7</ele>
        <time>2023-09-15T11:50:07Z</time>
      </trkpt>
      <trkpt lat="43.51799" lon="6.32515">
        <ele>345.8</ele>
        <time>2023-09-15T11:50:08Z</time>
      </trkpt>
      <trkpt lat="43.51799" lon="6.32514">
        <ele>345.8</ele>
        <time>2023-09-15T11:50:09Z</time>
      </trkpt>
      <trkpt lat="43.51799" lon="6.32512">
        <ele>345.8</ele>
        <time>2023-09-15T11:50:10Z</time>
      </trkpt>
      <trkpt lat="43.518" lon="6.32511">
        <ele>346</ele>
        <time>2023-09-15T11:50:11Z</time>
      </trkpt>
      <trkpt lat="43.518" lon="6.3251">
        <ele>346.1</ele>
        <time>2023-09-15T11:50:12Z</time>
      </trkpt>
      <trkpt lat="43.51801" lon="6.32509">
        <ele>346.1</ele>
        <time>2023-09-15T11:50:13Z</time>
      </trkpt>
      <trkpt lat="43.51801" lon="6.32508">
        <ele>346.2</ele>
        <time>2023-09-15T11:50:14Z</time>
      </trkpt>
      <trkpt lat="43.51802" lon="6.32507">
        <ele>346.2</ele>
        <time>2023-09-15T11:50:15Z</time>
      </trkpt>
      <trkpt lat="43.51803" lon="6.32505">
        <ele>346.3</ele>
        <time>2023-09-15T11:50:16Z</time>
      </trkpt>
      <trkpt lat="43.51803" lon="6.32503">
        <ele>346.4</ele>
        <time>2023-09-15T11:50:17Z</time>
      </trkpt>
      <trkpt lat="43.51804" lon="6.32502">
        <ele>346.5</ele>
        <time>2023-09-15T11:50:18Z</time>
      </trkpt>
      <trkpt lat="43.51804" lon="6.325">
        <ele>346.7</ele>
        <time>2023-09-15T11:50:19Z</time>
      </trkpt>
      <trkpt lat="43.51805" lon="6.32499">
        <ele>346.7</ele>
        <time>2023-09-15T11:50:20Z</time>
      </trkpt>
      <trkpt lat="43.51806" lon="6.32497">
        <ele>346.8</ele>
        <time>2023-09-15T11:50:21Z</time>
      </trkpt>
      <trkpt lat="43.51806" lon="6.32495">
        <ele>346.8</ele>
        <time>2023-09-15T11:50:22Z</time>
      </trkpt>
      <trkpt lat="43.51807" lon="6.32494">
        <ele>346.8</ele>
        <time>2023-09-15T11:50:23Z</time>
      </trkpt>
      <trkpt lat="43.51808" lon="6.32492">
        <ele>346.8</ele>
        <time>2023-09-15T11:50:24Z</time>
      </trkpt>
      <trkpt lat="43.51808" lon="6.32491">
        <ele>346.9</ele>
        <time>2023-09-15T11:50:25Z</time>
      </trkpt>
      <trkpt lat="43.51809" lon="6.32489">
        <ele>347</ele>
        <time>2023-09-15T11:50:26Z</time>
      </trkpt>
      <trkpt lat="43.51809" lon="6.32488">
        <ele>347.1</ele>
        <time>2023-09-15T11:50:27Z</time>
      </trkpt>
      <trkpt lat="43.51809" lon="6.32486">
        <ele>347.2</ele>
        <time>2023-09-15T11:50:28Z</time>
      </trkpt>
      <trkpt lat="43.5181" lon="6.32485">
        <ele>347.5</ele>
        <time>2023-09-15T11:50:29Z</time>
      </trkpt>
      <trkpt lat="43.51811" lon="6.32483">
        <ele>347.5</ele>
        <time>2023-09-15T11:50:30Z</time>
      </trkpt>
      <trkpt lat="43.51812" lon="6.32482">
        <ele>347.5</ele>
        <time>2023-09-15T11:50:31Z</time>
      </trkpt>
      <trkpt lat="43.51813" lon="6.32481">
        <ele>347.5</ele>
        <time>2023-09-15T11:50:32Z</time>
      </trkpt>
      <trkpt lat="43.51813" lon="6.3248">
        <ele>347.5</ele>
        <time>2023-09-15T11:50:33Z</time>
      </trkpt>
      <trkpt lat="43.51814" lon="6.32479">
        <ele>347.5</ele>
        <time>2023-09-15T11:50:34Z</time>
      </trkpt>
      <trkpt lat="43.51815" lon="6.32477">
        <ele>347.5</ele>
        <time>2023-09-15T11:50:35Z</time>
      </trkpt>
      <trkpt lat="43.51816" lon="6.32476">
        <ele>347.6</ele>
        <time>2023-09-15T11:50:36Z</time>
      </trkpt>
      <trkpt lat="43.51816" lon="6.32475">
        <ele>347.6</ele>
        <time>2023-09-15T11:50:37Z</time>
      </trkpt>
      <trkpt lat="43.51817" lon="6.32474">
        <ele>347.7</ele>
        <time>2023-09-15T11:50:38Z</time>
      </trkpt>
      <trkpt lat="43.51818" lon="6.32473">
        <ele>347.7</ele>
        <time>2023-09-15T11:50:39Z</time>
      </trkpt>
      <trkpt lat="43.51819" lon="6.32472">
        <ele>347.9</ele>
        <time>2023-09-15T11:50:40Z</time>
      </trkpt>
      <trkpt lat="43.5182" lon="6.32471">
        <ele>348</ele>
        <time>2023-09-15T11:50:41Z</time>
      </trkpt>
      <trkpt lat="43.51821" lon="6.3247">
        <ele>348</ele>
        <time>2023-09-15T11:50:42Z</time>
      </trkpt>
      <trkpt lat="43.51822" lon="6.32469">
        <ele>348</ele>
        <time>2023-09-15T11:50:43Z</time>
      </trkpt>
      <trkpt lat="43.51823" lon="6.32469">
        <ele>348</ele>
        <time>2023-09-15T11:50:44Z</time>
      </trkpt>
      <trkpt lat="43.51824" lon="6.32469">
        <ele>348.1</ele>
        <time>2023-09-15T11:50:45Z</time>
      </trkpt>
      <trkpt lat="43.51825" lon="6.32468">
        <ele>348.1</ele>
        <time>2023-09-15T11:50:46Z</time>
      </trkpt>
      <trkpt lat="43.51826" lon="6.32468">
        <ele>348.1</ele>
        <time>2023-09-15T11:50:47Z</time>
      </trkpt>
      <trkpt lat="43.51827" lon="6.32468">
        <ele>348.2</ele>
        <time>2023-09-15T11:50:48Z</time>
      </trkpt>
      <trkpt lat="43.51827" lon="6.32468">
        <ele>348.2</ele>
        <time>2023-09-15T11:50:49Z</time>
      </trkpt>
      <trkpt lat="43.51828" lon="6.32468">
        <ele>348.2</ele>
        <time>2023-09-15T11:50:50Z</time>
      </trkpt>
      <trkpt lat="43.51829" lon="6.32468">
        <ele>348.2</ele>
        <time>2023-09-15T11:50:51Z</time>
      </trkpt>
      <trkpt lat="43.5183" lon="6.32468">
        <ele>348.2</ele>
        <time>2023-09-15T11:50:52Z</time>
      </trkpt>
      <trkpt lat="43.51832" lon="6.32468">
        <ele>348.2</ele>
        <time>2023-09-15T11:50:53Z</time>
      </trkpt>
      <trkpt lat="43.51833" lon="6.32468">
        <ele>348.2</ele>
        <time>2023-09-15T11:50:54Z</time>
      </trkpt>
      <trkpt lat="43.51833" lon="6.32468">
        <ele>348.3</ele>
        <time>2023-09-15T11:50:55Z</time>
      </trkpt>
      <trkpt lat="43.51834" lon="6.32469">
        <ele>348.3</ele>
        <time>2023-09-15T11:50:56Z</time>
      </trkpt>
      <trkpt lat="43.51835" lon="6.32469">
        <ele>348.3</ele>
        <time>2023-09-15T11:50:57Z</time>
      </trkpt>
      <trkpt lat="43.51836" lon="6.3247">
        <ele>348.3</ele>
        <time>2023-09-15T11:50:58Z</time>
      </trkpt>
      <trkpt lat="43.51837" lon="6.3247">
        <ele>348.3</ele>
        <time>2023-09-15T11:50:59Z</time>
      </trkpt>
      <trkpt lat="43.51838" lon="6.3247">
        <ele>348.3</ele>
        <time>2023-09-15T11:51:00Z</time>
      </trkpt>
      <trkpt lat="43.51838" lon="6.3247">
        <ele>348.4</ele>
        <time>2023-09-15T11:51:01Z</time>
      </trkpt>
      <trkpt lat="43.51838" lon="6.32471">
        <ele>348.4</ele>
        <time>2023-09-15T11:51:02Z</time>
      </trkpt>
      <trkpt lat="43.51839" lon="6.32471">
        <ele>348.4</ele>
        <time>2023-09-15T11:51:03Z</time>
      </trkpt>
      <trkpt lat="43.5184" lon="6.32472">
        <ele>348.5</ele>
        <time>2023-09-15T11:51:04Z</time>
      </trkpt>
      <trkpt lat="43.51841" lon="6.32472">
        <ele>348.5</ele>
        <time>2023-09-15T11:51:05Z</time>
      </trkpt>
      <trkpt lat="43.51842" lon="6.32471">
        <ele>348.6</ele>
        <time>2023-09-15T11:51:06Z</time>
      </trkpt>
      <trkpt lat="43.51844" lon="6.32471">
        <ele>348.6</ele>
        <time>2023-09-15T11:51:07Z</time>
      </trkpt>
      <trkpt lat="43.51844" lon="6.32471">
        <ele>348.6</ele>
        <time>2023-09-15T11:51:08Z</time>
      </trkpt>
      <trkpt lat="43.51845" lon="6.32472">
        <ele>348.6</ele>
        <time>2023-09-15T11:51:09Z</time>
      </trkpt>
      <trkpt lat="43.51846" lon="6.32471">
        <ele>348.7</ele>
        <time>2023-09-15T11:51:10Z</time>
      </trkpt>
      <trkpt lat="43.51847" lon="6.32471">
        <ele>348.8</ele>
        <time>2023-09-15T11:51:11Z</time>
      </trkpt>
      <trkpt lat="43.51848" lon="6.32471">
        <ele>349</ele>
        <time>2023-09-15T11:51:12Z</time>
      </trkpt>
      <trkpt lat="43.51848" lon="6.32472">
        <ele>349.1</ele>
        <time>2023-09-15T11:51:13Z</time>
      </trkpt>
      <trkpt lat="43.51849" lon="6.32472">
        <ele>349.3</ele>
        <time>2023-09-15T11:51:14Z</time>
      </trkpt>
      <trkpt lat="43.5185" lon="6.32473">
        <ele>349.4</ele>
        <time>2023-09-15T11:51:15Z</time>
      </trkpt>
      <trkpt lat="43.51851" lon="6.32473">
        <ele>349.4</ele>
        <time>2023-09-15T11:51:16Z</time>
      </trkpt>
      <trkpt lat="43.51852" lon="6.32473">
        <ele>349.4</ele>
        <time>2023-09-15T11:51:17Z</time>
      </trkpt>
      <trkpt lat="43.51853" lon="6.32473">
        <ele>349.5</ele>
        <time>2023-09-15T11:51:18Z</time>
      </trkpt>
      <trkpt lat="43.51853" lon="6.32474">
        <ele>349.7</ele>
        <time>2023-09-15T11:51:19Z</time>
      </trkpt>
      <trkpt lat="43.51854" lon="6.32474">
        <ele>349.9</ele>
        <time>2023-09-15T11:51:20Z</time>
      </trkpt>
      <trkpt lat="43.51855" lon="6.32475">
        <ele>350</ele>
        <time>2023-09-15T11:51:21Z</time>
      </trkpt>
      <trkpt lat="43.51856" lon="6.32475">
        <ele>350.1</ele>
        <time>2023-09-15T11:51:22Z</time>
      </trkpt>
      <trkpt lat="43.51857" lon="6.32474">
        <ele>350.1</ele>
        <time>2023-09-15T11:51:23Z</time>
      </trkpt>
      <trkpt lat="43.51858" lon="6.32475">
        <ele>350.1</ele>
        <time>2023-09-15T11:51:24Z</time>
      </trkpt>
      <trkpt lat="43.51859" lon="6.32475">
        <ele>350.1</ele>
        <time>2023-09-15T11:51:25Z</time>
      </trkpt>
      <trkpt lat="43.51859" lon="6.32474">
        <ele>350.1</ele>
        <time>2023-09-15T11:51:26Z</time>
      </trkpt>
      <trkpt lat="43.51861" lon="6.32475">
        <ele>350.2</ele>
        <time>2023-09-15T11:51:27Z</time>
      </trkpt>
      <trkpt lat="43.51861" lon="6.32475">
        <ele>350.3</ele>
        <time>2023-09-15T11:51:28Z</time>
      </trkpt>
      <trkpt lat="43.51862" lon="6.32476">
        <ele>350.3</ele>
        <time>2023-09-15T11:51:29Z</time>
      </trkpt>
      <trkpt lat="43.51862" lon="6.32476">
        <ele>350.4</ele>
        <time>2023-09-15T11:51:30Z</time>
      </trkpt>
      <trkpt lat="43.51862" lon="6.32477">
        <ele>350.5</ele>
        <time>2023-09-15T11:51:31Z</time>
      </trkpt>
      <trkpt lat="43.51863" lon="6.32477">
        <ele>350.5</ele>
        <time>2023-09-15T11:51:32Z</time>
      </trkpt>
      <trkpt lat="43.51864" lon="6.32477">
        <ele>350.6</ele>
        <time>2023-09-15T11:51:33Z</time>
      </trkpt>
      <trkpt lat="43.51865" lon="6.32478">
        <ele>350.6</ele>
        <time>2023-09-15T11:51:34Z</time>
      </trkpt>
      <trkpt lat="43.51865" lon="6.32477">
        <ele>350.6</ele>
        <time>2023-09-15T11:51:35Z</time>
      </trkpt>
      <trkpt lat="43.51866" lon="6.32478">
        <ele>350.7</ele>
        <time>2023-09-15T11:51:36Z</time>
      </trkpt>
      <trkpt lat="43.51866" lon="6.32478">
        <ele>350.7</ele>
        <time>2023-09-15T11:51:37Z</time>
      </trkpt>
      <trkpt lat="43.51867" lon="6.32478">
        <ele>350.8</ele>
        <time>2023-09-15T11:51:38Z</time>
      </trkpt>
      <trkpt lat="43.51868" lon="6.32479">
        <ele>351</ele>
        <time>2023-09-15T11:51:39Z</time>
      </trkpt>
      <trkpt lat="43.51869" lon="6.32479">
        <ele>351.1</ele>
        <time>2023-09-15T11:51:40Z</time>
      </trkpt>
      <trkpt lat="43.5187" lon="6.32479">
        <ele>351.2</ele>
        <time>2023-09-15T11:51:41Z</time>
      </trkpt>
      <trkpt lat="43.5187" lon="6.3248">
        <ele>351.2</ele>
        <time>2023-09-15T11:51:42Z</time>
      </trkpt>
      <trkpt lat="43.51871" lon="6.3248">
        <ele>351.3</ele>
        <time>2023-09-15T11:51:43Z</time>
      </trkpt>
      <trkpt lat="43.51872" lon="6.3248">
        <ele>351.5</ele>
        <time>2023-09-15T11:51:44Z</time>
      </trkpt>
      <trkpt lat="43.51873" lon="6.3248">
        <ele>351.6</ele>
        <time>2023-09-15T11:51:45Z</time>
      </trkpt>
      <trkpt lat="43.51874" lon="6.3248">
        <ele>351.7</ele>
        <time>2023-09-15T11:51:46Z</time>
      </trkpt>
      <trkpt lat="43.51875" lon="6.3248">
        <ele>351.8</ele>
        <time>2023-09-15T11:51:47Z</time>
      </trkpt>
      <trkpt lat="43.51877" lon="6.3248">
        <ele>351.9</ele>
        <time>2023-09-15T11:51:48Z</time>
      </trkpt>
      <trkpt lat="43.51878" lon="6.3248">
        <ele>351.9</ele>
        <time>2023-09-15T11:51:49Z</time>
      </trkpt>
      <trkpt lat="43.51879" lon="6.3248">
        <ele>352</ele>
        <time>2023-09-15T11:51:50Z</time>
      </trkpt>
      <trkpt lat="43.5188" lon="6.3248">
        <ele>352</ele>
        <time>2023-09-15T11:51:51Z</time>
      </trkpt>
      <trkpt lat="43.51882" lon="6.32479">
        <ele>352.1</ele>
        <time>2023-09-15T11:51:52Z</time>
      </trkpt>
      <trkpt lat="43.51883" lon="6.32479">
        <ele>352.1</ele>
        <time>2023-09-15T11:51:53Z</time>
      </trkpt>
      <trkpt lat="43.51884" lon="6.32479">
        <ele>352.1</ele>
        <time>2023-09-15T11:51:54Z</time>
      </trkpt>
      <trkpt lat="43.51885" lon="6.3248">
        <ele>352.2</ele>
        <time>2023-09-15T11:51:55Z</time>
      </trkpt>
      <trkpt lat="43.51886" lon="6.3248">
        <ele>352.3</ele>
        <time>2023-09-15T11:51:56Z</time>
      </trkpt>
      <trkpt lat="43.51887" lon="6.3248">
        <ele>352.4</ele>
        <time>2023-09-15T11:51:57Z</time>
      </trkpt>
      <trkpt lat="43.51888" lon="6.32481">
        <ele>352.6</ele>
        <time>2023-09-15T11:51:58Z</time>
      </trkpt>
      <trkpt lat="43.5189" lon="6.32481">
        <ele>352.7</ele>
        <time>2023-09-15T11:51:59Z</time>
      </trkpt>
      <trkpt lat="43.51891" lon="6.32481">
        <ele>352.8</ele>
        <time>2023-09-15T11:52:00Z</time>
      </trkpt>
      <trkpt lat="43.51892" lon="6.3248">
        <ele>352.9</ele>
        <time>2023-09-15T11:52:01Z</time>
      </trkpt>
      <trkpt lat="43.51893" lon="6.3248">
        <ele>352.9</ele>
        <time>2023-09-15T11:52:02Z</time>
      </trkpt>
      <trkpt lat="43.51894" lon="6.3248">
        <ele>353</ele>
        <time>2023-09-15T11:52:03Z</time>
      </trkpt>
      <trkpt lat="43.51895" lon="6.32481">
        <ele>353.1</ele>
        <time>2023-09-15T11:52:04Z</time>
      </trkpt>
      <trkpt lat="43.51895" lon="6.3248">
        <ele>353.3</ele>
        <time>2023-09-15T11:52:05Z</time>
      </trkpt>
      <trkpt lat="43.51896" lon="6.3248">
        <ele>353.5</ele>
        <time>2023-09-15T11:52:06Z</time>
      </trkpt>
      <trkpt lat="43.51898" lon="6.3248">
        <ele>353.5</ele>
        <time>2023-09-15T11:52:07Z</time>
      </trkpt>
      <trkpt lat="43.51899" lon="6.3248">
        <ele>353.7</ele>
        <time>2023-09-15T11:52:08Z</time>
      </trkpt>
      <trkpt lat="43.519" lon="6.3248">
        <ele>353.8</ele>
        <time>2023-09-15T11:52:09Z</time>
      </trkpt>
      <trkpt lat="43.51901" lon="6.3248">
        <ele>353.8</ele>
        <time>2023-09-15T11:52:10Z</time>
      </trkpt>
      <trkpt lat="43.51902" lon="6.32481">
        <ele>354</ele>
        <time>2023-09-15T11:52:11Z</time>
      </trkpt>
      <trkpt lat="43.51903" lon="6.32481">
        <ele>354.1</ele>
        <time>2023-09-15T11:52:12Z</time>
      </trkpt>
      <trkpt lat="43.51904" lon="6.32481">
        <ele>354.1</ele>
        <time>2023-09-15T11:52:13Z</time>
      </trkpt>
      <trkpt lat="43.51905" lon="6.32481">
        <ele>354.1</ele>
        <time>2023-09-15T11:52:14Z</time>
      </trkpt>
      <trkpt lat="43.51907" lon="6.32481">
        <ele>354.1</ele>
        <time>2023-09-15T11:52:15Z</time>
      </trkpt>
      <trkpt lat="43.51908" lon="6.32481">
        <ele>354.1</ele>
        <time>2023-09-15T11:52:16Z</time>
      </trkpt>
      <trkpt lat="43.51909" lon="6.32482">
        <ele>354</ele>
        <time>2023-09-15T11:52:17Z</time>
      </trkpt>
      <trkpt lat="43.51911" lon="6.32483">
        <ele>354</ele>
        <time>2023-09-15T11:52:18Z</time>
      </trkpt>
      <trkpt lat="43.51912" lon="6.32483">
        <ele>354</ele>
        <time>2023-09-15T11:52:19Z</time>
      </trkpt>
      <trkpt lat="43.51913" lon="6.32483">
        <ele>354</ele>
        <time>2023-09-15T11:52:20Z</time>
      </trkpt>
      <trkpt lat="43.51914" lon="6.32483">
        <ele>354</ele>
        <time>2023-09-15T11:52:21Z</time>
      </trkpt>
      <trkpt lat="43.51915" lon="6.32483">
        <ele>353.9</ele>
        <time>2023-09-15T11:52:22Z</time>
      </trkpt>
      <trkpt lat="43.51916" lon="6.32483">
        <ele>353.9</ele>
        <time>2023-09-15T11:52:23Z</time>
      </trkpt>
      <trkpt lat="43.51917" lon="6.32483">
        <ele>353.9</ele>
        <time>2023-09-15T11:52:24Z</time>
      </trkpt>
      <trkpt lat="43.51918" lon="6.32483">
        <ele>353.9</ele>
        <time>2023-09-15T11:52:25Z</time>
      </trkpt>
      <trkpt lat="43.51919" lon="6.32483">
        <ele>354</ele>
        <time>2023-09-15T11:52:26Z</time>
      </trkpt>
      <trkpt lat="43.51921" lon="6.32483">
        <ele>354</ele>
        <time>2023-09-15T11:52:27Z</time>
      </trkpt>
      <trkpt lat="43.51921" lon="6.32484">
        <ele>354</ele>
        <time>2023-09-15T11:52:28Z</time>
      </trkpt>
      <trkpt lat="43.51923" lon="6.32484">
        <ele>354</ele>
        <time>2023-09-15T11:52:29Z</time>
      </trkpt>
      <trkpt lat="43.51924" lon="6.32484">
        <ele>354.1</ele>
        <time>2023-09-15T11:52:30Z</time>
      </trkpt>
      <trkpt lat="43.51925" lon="6.32484">
        <ele>354.1</ele>
        <time>2023-09-15T11:52:31Z</time>
      </trkpt>
      <trkpt lat="43.51927" lon="6.32484">
        <ele>354.2</ele>
        <time>2023-09-15T11:52:32Z</time>
      </trkpt>
      <trkpt lat="43.51927" lon="6.32485">
        <ele>354.3</ele>
        <time>2023-09-15T11:52:33Z</time>
      </trkpt>
      <trkpt lat="43.51928" lon="6.32485">
        <ele>354.3</ele>
        <time>2023-09-15T11:52:34Z</time>
      </trkpt>
      <trkpt lat="43.51929" lon="6.32485">
        <ele>354.3</ele>
        <time>2023-09-15T11:52:35Z</time>
      </trkpt>
      <trkpt lat="43.5193" lon="6.32485">
        <ele>354.4</ele>
        <time>2023-09-15T11:52:36Z</time>
      </trkpt>
      <trkpt lat="43.51931" lon="6.32484">
        <ele>354.6</ele>
        <time>2023-09-15T11:52:37Z</time>
      </trkpt>
      <trkpt lat="43.51933" lon="6.32485">
        <ele>354.7</ele>
        <time>2023-09-15T11:52:38Z</time>
      </trkpt>
      <trkpt lat="43.51934" lon="6.32485">
        <ele>354.8</ele>
        <time>2023-09-15T11:52:39Z</time>
      </trkpt>
      <trkpt lat="43.51935" lon="6.32485">
        <ele>354.9</ele>
        <time>2023-09-15T11:52:40Z</time>
      </trkpt>
      <trkpt lat="43.51936" lon="6.32484">
        <ele>354.9</ele>
        <time>2023-09-15T11:52:41Z</time>
      </trkpt>
      <trkpt lat="43.51937" lon="6.32484">
        <ele>354.9</ele>
        <time>2023-09-15T11:52:42Z</time>
      </trkpt>
      <trkpt lat="43.51938" lon="6.32485">
        <ele>355</ele>
        <time>2023-09-15T11:52:43Z</time>
      </trkpt>
      <trkpt lat="43.51939" lon="6.32485">
        <ele>355</ele>
        <time>2023-09-15T11:52:44Z</time>
      </trkpt>
      <trkpt lat="43.5194" lon="6.32485">
        <ele>355</ele>
        <time>2023-09-15T11:52:45Z</time>
      </trkpt>
      <trkpt lat="43.51941" lon="6.32486">
        <ele>355.1</ele>
        <time>2023-09-15T11:52:46Z</time>
      </trkpt>
      <trkpt lat="43.51942" lon="6.32486">
        <ele>355.1</ele>
        <time>2023-09-15T11:52:47Z</time>
      </trkpt>
      <trkpt lat="43.51943" lon="6.32486">
        <ele>355.1</ele>
        <time>2023-09-15T11:52:48Z</time>
      </trkpt>
      <trkpt lat="43.51945" lon="6.32486">
        <ele>355.2</ele>
        <time>2023-09-15T11:52:49Z</time>
      </trkpt>
      <trkpt lat="43.51946" lon="6.32486">
        <ele>355.2</ele>
        <time>2023-09-15T11:52:50Z</time>
      </trkpt>
      <trkpt lat="43.51948" lon="6.32485">
        <ele>355.1</ele>
        <time>2023-09-15T11:52:51Z</time>
      </trkpt>
      <trkpt lat="43.51949" lon="6.32486">
        <ele>355.1</ele>
        <time>2023-09-15T11:52:52Z</time>
      </trkpt>
      <trkpt lat="43.5195" lon="6.32486">
        <ele>355.1</ele>
        <time>2023-09-15T11:52:53Z</time>
      </trkpt>
      <trkpt lat="43.51952" lon="6.32486">
        <ele>355.1</ele>
        <time>2023-09-15T11:52:54Z</time>
      </trkpt>
      <trkpt lat="43.51952" lon="6.32487">
        <ele>355.1</ele>
        <time>2023-09-15T11:52:55Z</time>
      </trkpt>
      <trkpt lat="43.51954" lon="6.32487">
        <ele>355.2</ele>
        <time>2023-09-15T11:52:56Z</time>
      </trkpt>
      <trkpt lat="43.51954" lon="6.32488">
        <ele>355.3</ele>
        <time>2023-09-15T11:52:57Z</time>
      </trkpt>
      <trkpt lat="43.51955" lon="6.32488">
        <ele>355.3</ele>
        <time>2023-09-15T11:52:58Z</time>
      </trkpt>
      <trkpt lat="43.51956" lon="6.32488">
        <ele>355.3</ele>
        <time>2023-09-15T11:52:59Z</time>
      </trkpt>
      <trkpt lat="43.51957" lon="6.32488">
        <ele>355.3</ele>
        <time>2023-09-15T11:53:00Z</time>
      </trkpt>
      <trkpt lat="43.51957" lon="6.32489">
        <ele>355.4</ele>
        <time>2023-09-15T11:53:01Z</time>
      </trkpt>
      <trkpt lat="43.51958" lon="6.32488">
        <ele>355.5</ele>
        <time>2023-09-15T11:53:02Z</time>
      </trkpt>
      <trkpt lat="43.51959" lon="6.32489">
        <ele>355.6</ele>
        <time>2023-09-15T11:53:03Z</time>
      </trkpt>
      <trkpt lat="43.51959" lon="6.32489">
        <ele>355.6</ele>
        <time>2023-09-15T11:53:04Z</time>
      </trkpt>
      <trkpt lat="43.5196" lon="6.32489">
        <ele>355.8</ele>
        <time>2023-09-15T11:53:05Z</time>
      </trkpt>
      <trkpt lat="43.51961" lon="6.32489">
        <ele>355.9</ele>
        <time>2023-09-15T11:53:06Z</time>
      </trkpt>
      <trkpt lat="43.51961" lon="6.32489">
        <ele>356.1</ele>
        <time>2023-09-15T11:53:07Z</time>
      </trkpt>
      <trkpt lat="43.51962" lon="6.3249">
        <ele>356.3</ele>
        <time>2023-09-15T11:53:08Z</time>
      </trkpt>
      <trkpt lat="43.51963" lon="6.3249">
        <ele>356.4</ele>
        <time>2023-09-15T11:53:09Z</time>
      </trkpt>
      <trkpt lat="43.51964" lon="6.32489">
        <ele>356.5</ele>
        <time>2023-09-15T11:53:10Z</time>
      </trkpt>
      <trkpt lat="43.51965" lon="6.32489">
        <ele>356.5</ele>
        <time>2023-09-15T11:53:11Z</time>
      </trkpt>
      <trkpt lat="43.51967" lon="6.32489">
        <ele>356.5</ele>
        <time>2023-09-15T11:53:12Z</time>
      </trkpt>
      <trkpt lat="43.51968" lon="6.32489">
        <ele>356.4</ele>
        <time>2023-09-15T11:53:13Z</time>
      </trkpt>
      <trkpt lat="43.5197" lon="6.32489">
        <ele>356.5</ele>
        <time>2023-09-15T11:53:14Z</time>
      </trkpt>
      <trkpt lat="43.5197" lon="6.32488">
        <ele>356.5</ele>
        <time>2023-09-15T11:53:15Z</time>
      </trkpt>
      <trkpt lat="43.51971" lon="6.32488">
        <ele>356.5</ele>
        <time>2023-09-15T11:53:16Z</time>
      </trkpt>
      <trkpt lat="43.51973" lon="6.32488">
        <ele>356.5</ele>
        <time>2023-09-15T11:53:17Z</time>
      </trkpt>
      <trkpt lat="43.51974" lon="6.32488">
        <ele>356.6</ele>
        <time>2023-09-15T11:53:18Z</time>
      </trkpt>
      <trkpt lat="43.51976" lon="6.32489">
        <ele>356.6</ele>
        <time>2023-09-15T11:53:19Z</time>
      </trkpt>
      <trkpt lat="43.51977" lon="6.3249">
        <ele>356.7</ele>
        <time>2023-09-15T11:53:20Z</time>
      </trkpt>
      <trkpt lat="43.51978" lon="6.3249">
        <ele>356.7</ele>
        <time>2023-09-15T11:53:21Z</time>
      </trkpt>
      <trkpt lat="43.5198" lon="6.32491">
        <ele>356.7</ele>
        <time>2023-09-15T11:53:22Z</time>
      </trkpt>
      <trkpt lat="43.5198" lon="6.32491">
        <ele>356.8</ele>
        <time>2023-09-15T11:53:23Z</time>
      </trkpt>
      <trkpt lat="43.5198" lon="6.32491">
        <ele>356.9</ele>
        <time>2023-09-15T11:53:24Z</time>
      </trkpt>
      <trkpt lat="43.51981" lon="6.32491">
        <ele>356.9</ele>
        <time>2023-09-15T11:53:25Z</time>
      </trkpt>
      <trkpt lat="43.51982" lon="6.32492">
        <ele>356.9</ele>
        <time>2023-09-15T11:53:26Z</time>
      </trkpt>
      <trkpt lat="43.51983" lon="6.32492">
        <ele>356.9</ele>
        <time>2023-09-15T11:53:27Z</time>
      </trkpt>
      <trkpt lat="43.51983" lon="6.32493">
        <ele>356.9</ele>
        <time>2023-09-15T11:53:28Z</time>
      </trkpt>
      <trkpt lat="43.51984" lon="6.32493">
        <ele>356.8</ele>
        <time>2023-09-15T11:53:29Z</time>
      </trkpt>
      <trkpt lat="43.51984" lon="6.32493">
        <ele>356.9</ele>
        <time>2023-09-15T11:53:30Z</time>
      </trkpt>
      <trkpt lat="43.51984" lon="6.32493">
        <ele>357</ele>
        <time>2023-09-15T11:53:31Z</time>
      </trkpt>
      <trkpt lat="43.51985" lon="6.32493">
        <ele>357.1</ele>
        <time>2023-09-15T11:53:32Z</time>
      </trkpt>
      <trkpt lat="43.51985" lon="6.32493">
        <ele>357.2</ele>
        <time>2023-09-15T11:53:33Z</time>
      </trkpt>
      <trkpt lat="43.51986" lon="6.32492">
        <ele>357.3</ele>
        <time>2023-09-15T11:53:34Z</time>
      </trkpt>
      <trkpt lat="43.51987" lon="6.32492">
        <ele>357.3</ele>
        <time>2023-09-15T11:53:35Z</time>
      </trkpt>
      <trkpt lat="43.51987" lon="6.32492">
        <ele>357.4</ele>
        <time>2023-09-15T11:53:36Z</time>
      </trkpt>
      <trkpt lat="43.51987" lon="6.32492">
        <ele>357.3</ele>
        <time>2023-09-15T11:53:37Z</time>
      </trkpt>
      <trkpt lat="43.51988" lon="6.32492">
        <ele>357.3</ele>
        <time>2023-09-15T11:53:38Z</time>
      </trkpt>
      <trkpt lat="43.51989" lon="6.32492">
        <ele>357.3</ele>
        <time>2023-09-15T11:53:39Z</time>
      </trkpt>
      <trkpt lat="43.5199" lon="6.32492">
        <ele>357.3</ele>
        <time>2023-09-15T11:53:40Z</time>
      </trkpt>
      <trkpt lat="43.51991" lon="6.32492">
        <ele>357.4</ele>
        <time>2023-09-15T11:53:41Z</time>
      </trkpt>
      <trkpt lat="43.51992" lon="6.32491">
        <ele>357.5</ele>
        <time>2023-09-15T11:53:42Z</time>
      </trkpt>
      <trkpt lat="43.51992" lon="6.32491">
        <ele>357.6</ele>
        <time>2023-09-15T11:53:43Z</time>
      </trkpt>
      <trkpt lat="43.51993" lon="6.32491">
        <ele>357.6</ele>
        <time>2023-09-15T11:53:44Z</time>
      </trkpt>
      <trkpt lat="43.51994" lon="6.32492">
        <ele>357.7</ele>
        <time>2023-09-15T11:53:45Z</time>
      </trkpt>
      <trkpt lat="43.51994" lon="6.32492">
        <ele>357.8</ele>
        <time>2023-09-15T11:53:46Z</time>
      </trkpt>
      <trkpt lat="43.51994" lon="6.32492">
        <ele>357.8</ele>
        <time>2023-09-15T11:53:47Z</time>
      </trkpt>
      <trkpt lat="43.51995" lon="6.32493">
        <ele>357.8</ele>
        <time>2023-09-15T11:53:48Z</time>
      </trkpt>
      <trkpt lat="43.51996" lon="6.32493">
        <ele>357.8</ele>
        <time>2023-09-15T11:53:49Z</time>
      </trkpt>
      <trkpt lat="43.51996" lon="6.32493">
        <ele>357.7</ele>
        <time>2023-09-15T11:53:50Z</time>
      </trkpt>
      <trkpt lat="43.51997" lon="6.32494">
        <ele>357.7</ele>
        <time>2023-09-15T11:53:51Z</time>
      </trkpt>
      <trkpt lat="43.51998" lon="6.32495">
        <ele>357.8</ele>
        <time>2023-09-15T11:53:52Z</time>
      </trkpt>
      <trkpt lat="43.51999" lon="6.32495">
        <ele>357.9</ele>
        <time>2023-09-15T11:53:53Z</time>
      </trkpt>
      <trkpt lat="43.52001" lon="6.32495">
        <ele>358</ele>
        <time>2023-09-15T11:53:54Z</time>
      </trkpt>
      <trkpt lat="43.52002" lon="6.32495">
        <ele>358.1</ele>
        <time>2023-09-15T11:53:55Z</time>
      </trkpt>
      <trkpt lat="43.52003" lon="6.32495">
        <ele>358.2</ele>
        <time>2023-09-15T11:53:56Z</time>
      </trkpt>
      <trkpt lat="43.52005" lon="6.32494">
        <ele>358.2</ele>
        <time>2023-09-15T11:53:57Z</time>
      </trkpt>
      <trkpt lat="43.52006" lon="6.32495">
        <ele>358.3</ele>
        <time>2023-09-15T11:53:58Z</time>
      </trkpt>
      <trkpt lat="43.52009" lon="6.32493">
        <ele>358.3</ele>
        <time>2023-09-15T11:53:59Z</time>
      </trkpt>
      <trkpt lat="43.52011" lon="6.32494">
        <ele>358.4</ele>
        <time>2023-09-15T11:54:00Z</time>
      </trkpt>
      <trkpt lat="43.52011" lon="6.32494">
        <ele>358.5</ele>
        <time>2023-09-15T11:54:01Z</time>
      </trkpt>
      <trkpt lat="43.52013" lon="6.32494">
        <ele>358.6</ele>
        <time>2023-09-15T11:54:02Z</time>
      </trkpt>
      <trkpt lat="43.52014" lon="6.32495">
        <ele>358.7</ele>
        <time>2023-09-15T11:54:03Z</time>
      </trkpt>
      <trkpt lat="43.52014" lon="6.32495">
        <ele>358.8</ele>
        <time>2023-09-15T11:54:04Z</time>
      </trkpt>
      <trkpt lat="43.52014" lon="6.32496">
        <ele>358.8</ele>
        <time>2023-09-15T11:54:05Z</time>
      </trkpt>
      <trkpt lat="43.52014" lon="6.32496">
        <ele>359</ele>
        <time>2023-09-15T11:54:06Z</time>
      </trkpt>
      <trkpt lat="43.52015" lon="6.32497">
        <ele>358.8</ele>
        <time>2023-09-15T11:54:07Z</time>
      </trkpt>
      <trkpt lat="43.52016" lon="6.32498">
        <ele>358.9</ele>
        <time>2023-09-15T11:54:08Z</time>
      </trkpt>
      <trkpt lat="43.52017" lon="6.32498">
        <ele>358.9</ele>
        <time>2023-09-15T11:54:09Z</time>
      </trkpt>
      <trkpt lat="43.52018" lon="6.32498">
        <ele>358.9</ele>
        <time>2023-09-15T11:54:10Z</time>
      </trkpt>
      <trkpt lat="43.52019" lon="6.32498">
        <ele>359</ele>
        <time>2023-09-15T11:54:11Z</time>
      </trkpt>
      <trkpt lat="43.5202" lon="6.32497">
        <ele>359.1</ele>
        <time>2023-09-15T11:54:12Z</time>
      </trkpt>
      <trkpt lat="43.52022" lon="6.32496">
        <ele>359.1</ele>
        <time>2023-09-15T11:54:13Z</time>
      </trkpt>
      <trkpt lat="43.52022" lon="6.32496">
        <ele>359.1</ele>
        <time>2023-09-15T11:54:14Z</time>
      </trkpt>
      <trkpt lat="43.52023" lon="6.32495">
        <ele>359.1</ele>
        <time>2023-09-15T11:54:15Z</time>
      </trkpt>
      <trkpt lat="43.52024" lon="6.32496">
        <ele>359.1</ele>
        <time>2023-09-15T11:54:16Z</time>
      </trkpt>
      <trkpt lat="43.52025" lon="6.32495">
        <ele>359</ele>
        <time>2023-09-15T11:54:17Z</time>
      </trkpt>
      <trkpt lat="43.52026" lon="6.32495">
        <ele>359</ele>
        <time>2023-09-15T11:54:18Z</time>
      </trkpt>
      <trkpt lat="43.52027" lon="6.32495">
        <ele>359</ele>
        <time>2023-09-15T11:54:19Z</time>
      </trkpt>
      <trkpt lat="43.52028" lon="6.32496">
        <ele>359</ele>
        <time>2023-09-15T11:54:20Z</time>
      </trkpt>
      <trkpt lat="43.52028" lon="6.32496">
        <ele>358.9</ele>
        <time>2023-09-15T11:54:21Z</time>
      </trkpt>
      <trkpt lat="43.5203" lon="6.32495">
        <ele>359</ele>
        <time>2023-09-15T11:54:22Z</time>
      </trkpt>
      <trkpt lat="43.52031" lon="6.32494">
        <ele>359</ele>
        <time>2023-09-15T11:54:23Z</time>
      </trkpt>
      <trkpt lat="43.52032" lon="6.32494">
        <ele>359</ele>
        <time>2023-09-15T11:54:24Z</time>
      </trkpt>
      <trkpt lat="43.52034" lon="6.32493">
        <ele>359.2</ele>
        <time>2023-09-15T11:54:25Z</time>
      </trkpt>
      <trkpt lat="43.52035" lon="6.32492">
        <ele>359.3</ele>
        <time>2023-09-15T11:54:26Z</time>
      </trkpt>
      <trkpt lat="43.52037" lon="6.32491">
        <ele>359.3</ele>
        <time>2023-09-15T11:54:27Z</time>
      </trkpt>
      <trkpt lat="43.52038" lon="6.32489">
        <ele>359.3</ele>
        <time>2023-09-15T11:54:28Z</time>
      </trkpt>
      <trkpt lat="43.5204" lon="6.32488">
        <ele>359.2</ele>
        <time>2023-09-15T11:54:29Z</time>
      </trkpt>
      <trkpt lat="43.52041" lon="6.32488">
        <ele>359.2</ele>
        <time>2023-09-15T11:54:30Z</time>
      </trkpt>
      <trkpt lat="43.52042" lon="6.32487">
        <ele>359.2</ele>
        <time>2023-09-15T11:54:31Z</time>
      </trkpt>
      <trkpt lat="43.52043" lon="6.32487">
        <ele>359.2</ele>
        <time>2023-09-15T11:54:32Z</time>
      </trkpt>
      <trkpt lat="43.52044" lon="6.32486">
        <ele>359.2</ele>
        <time>2023-09-15T11:54:33Z</time>
      </trkpt>
      <trkpt lat="43.52045" lon="6.32486">
        <ele>359.2</ele>
        <time>2023-09-15T11:54:34Z</time>
      </trkpt>
      <trkpt lat="43.52046" lon="6.32485">
        <ele>359.2</ele>
        <time>2023-09-15T11:54:35Z</time>
      </trkpt>
      <trkpt lat="43.52047" lon="6.32483">
        <ele>358.9</ele>
        <time>2023-09-15T11:54:36Z</time>
      </trkpt>
      <trkpt lat="43.52048" lon="6.32481">
        <ele>358.9</ele>
        <time>2023-09-15T11:54:37Z</time>
      </trkpt>
      <trkpt lat="43.52048" lon="6.32479">
        <ele>359.1</ele>
        <time>2023-09-15T11:54:38Z</time>
      </trkpt>
      <trkpt lat="43.5205" lon="6.32477">
        <ele>359.2</ele>
        <time>2023-09-15T11:54:39Z</time>
      </trkpt>
      <trkpt lat="43.5205" lon="6.32475">
        <ele>359.3</ele>
        <time>2023-09-15T11:54:40Z</time>
      </trkpt>
      <trkpt lat="43.52051" lon="6.32475">
        <ele>359.4</ele>
        <time>2023-09-15T11:54:41Z</time>
      </trkpt>
      <trkpt lat="43.52051" lon="6.32473">
        <ele>359.4</ele>
        <time>2023-09-15T11:54:42Z</time>
      </trkpt>
      <trkpt lat="43.52051" lon="6.32471">
        <ele>359.3</ele>
        <time>2023-09-15T11:54:43Z</time>
      </trkpt>
      <trkpt lat="43.52052" lon="6.3247">
        <ele>359.4</ele>
        <time>2023-09-15T11:54:44Z</time>
      </trkpt>
      <trkpt lat="43.52052" lon="6.32469">
        <ele>359.4</ele>
        <time>2023-09-15T11:54:45Z</time>
      </trkpt>
      <trkpt lat="43.52054" lon="6.32469">
        <ele>359.4</ele>
        <time>2023-09-15T11:54:46Z</time>
      </trkpt>
      <trkpt lat="43.52055" lon="6.32468">
        <ele>359.4</ele>
        <time>2023-09-15T11:54:47Z</time>
      </trkpt>
      <trkpt lat="43.52058" lon="6.32469">
        <ele>359.4</ele>
        <time>2023-09-15T11:54:48Z</time>
      </trkpt>
      <trkpt lat="43.52059" lon="6.32468">
        <ele>359.4</ele>
        <time>2023-09-15T11:54:49Z</time>
      </trkpt>
      <trkpt lat="43.5206" lon="6.32468">
        <ele>359.4</ele>
        <time>2023-09-15T11:54:50Z</time>
      </trkpt>
      <trkpt lat="43.5206" lon="6.32467">
        <ele>359.5</ele>
        <time>2023-09-15T11:54:51Z</time>
      </trkpt>
      <trkpt lat="43.52061" lon="6.32468">
        <ele>359.6</ele>
        <time>2023-09-15T11:54:52Z</time>
      </trkpt>
      <trkpt lat="43.52061" lon="6.32466">
        <ele>359.6</ele>
        <time>2023-09-15T11:54:53Z</time>
      </trkpt>
      <trkpt lat="43.52062" lon="6.32465">
        <ele>359.7</ele>
        <time>2023-09-15T11:54:54Z</time>
      </trkpt>
      <trkpt lat="43.52063" lon="6.32464">
        <ele>359.7</ele>
        <time>2023-09-15T11:54:55Z</time>
      </trkpt>
      <trkpt lat="43.52062" lon="6.32464">
        <ele>359.7</ele>
        <time>2023-09-15T11:54:56Z</time>
      </trkpt>
      <trkpt lat="43.52062" lon="6.32463">
        <ele>359.7</ele>
        <time>2023-09-15T11:54:57Z</time>
      </trkpt>
      <trkpt lat="43.52063" lon="6.32462">
        <ele>359.7</ele>
        <time>2023-09-15T11:54:58Z</time>
      </trkpt>
      <trkpt lat="43.52064" lon="6.32462">
        <ele>359.7</ele>
        <time>2023-09-15T11:54:59Z</time>
      </trkpt>
      <trkpt lat="43.52065" lon="6.32461">
        <ele>359.6</ele>
        <time>2023-09-15T11:55:00Z</time>
      </trkpt>
      <trkpt lat="43.52066" lon="6.3246">
        <ele>359.7</ele>
        <time>2023-09-15T11:55:01Z</time>
      </trkpt>
      <trkpt lat="43.52067" lon="6.32459">
        <ele>359.7</ele>
        <time>2023-09-15T11:55:02Z</time>
      </trkpt>
      <trkpt lat="43.52067" lon="6.32459">
        <ele>359.7</ele>
        <time>2023-09-15T11:55:03Z</time>
      </trkpt>
      <trkpt lat="43.52068" lon="6.32459">
        <ele>359.7</ele>
        <time>2023-09-15T11:55:04Z</time>
      </trkpt>
      <trkpt lat="43.52068" lon="6.32458">
        <ele>359.7</ele>
        <time>2023-09-15T11:55:05Z</time>
      </trkpt>
      <trkpt lat="43.52068" lon="6.32458">
        <ele>359.7</ele>
        <time>2023-09-15T11:55:06Z</time>
      </trkpt>
      <trkpt lat="43.52069" lon="6.32457">
        <ele>359.9</ele>
        <time>2023-09-15T11:55:07Z</time>
      </trkpt>
      <trkpt lat="43.52069" lon="6.32456">
        <ele>360</ele>
        <time>2023-09-15T11:55:08Z</time>
      </trkpt>
      <trkpt lat="43.52069" lon="6.32456">
        <ele>360</ele>
        <time>2023-09-15T11:55:09Z</time>
      </trkpt>
      <trkpt lat="43.52069" lon="6.32456">
        <ele>360.1</ele>
        <time>2023-09-15T11:55:10Z</time>
      </trkpt>
      <trkpt lat="43.5207" lon="6.32456">
        <ele>360.3</ele>
        <time>2023-09-15T11:55:11Z</time>
      </trkpt>
      <trkpt lat="43.52071" lon="6.32456">
        <ele>360.3</ele>
        <time>2023-09-15T11:55:12Z</time>
      </trkpt>
      <trkpt lat="43.52071" lon="6.32455">
        <ele>360.3</ele>
        <time>2023-09-15T11:55:13Z</time>
      </trkpt>
      <trkpt lat="43.52071" lon="6.32454">
        <ele>360.4</ele>
        <time>2023-09-15T11:55:14Z</time>
      </trkpt>
      <trkpt lat="43.52073" lon="6.32454">
        <ele>360.4</ele>
        <time>2023-09-15T11:55:15Z</time>
      </trkpt>
      <trkpt lat="43.52074" lon="6.32453">
        <ele>360.3</ele>
        <time>2023-09-15T11:55:16Z</time>
      </trkpt>
      <trkpt lat="43.52075" lon="6.32452">
        <ele>360.4</ele>
        <time>2023-09-15T11:55:17Z</time>
      </trkpt>
      <trkpt lat="43.52077" lon="6.32452">
        <ele>360.4</ele>
        <time>2023-09-15T11:55:18Z</time>
      </trkpt>
      <trkpt lat="43.52078" lon="6.32451">
        <ele>360.3</ele>
        <time>2023-09-15T11:55:19Z</time>
      </trkpt>
      <trkpt lat="43.52078" lon="6.32451">
        <ele>360.3</ele>
        <time>2023-09-15T11:55:20Z</time>
      </trkpt>
      <trkpt lat="43.52079" lon="6.32451">
        <ele>360.3</ele>
        <time>2023-09-15T11:55:21Z</time>
      </trkpt>
      <trkpt lat="43.5208" lon="6.32451">
        <ele>360.3</ele>
        <time>2023-09-15T11:55:22Z</time>
      </trkpt>
      <trkpt lat="43.52081" lon="6.3245">
        <ele>360.3</ele>
        <time>2023-09-15T11:55:23Z</time>
      </trkpt>
      <trkpt lat="43.52082" lon="6.3245">
        <ele>360.3</ele>
        <time>2023-09-15T11:55:24Z</time>
      </trkpt>
      <trkpt lat="43.52083" lon="6.32448">
        <ele>360.2</ele>
        <time>2023-09-15T11:55:25Z</time>
      </trkpt>
      <trkpt lat="43.52085" lon="6.32448">
        <ele>360.2</ele>
        <time>2023-09-15T11:55:26Z</time>
      </trkpt>
      <trkpt lat="43.52087" lon="6.32447">
        <ele>360.2</ele>
        <time>2023-09-15T11:55:27Z</time>
      </trkpt>
      <trkpt lat="43.52089" lon="6.32448">
        <ele>360.2</ele>
        <time>2023-09-15T11:55:28Z</time>
      </trkpt>
      <trkpt lat="43.52091" lon="6.32449">
        <ele>360.3</ele>
        <time>2023-09-15T11:55:29Z</time>
      </trkpt>
      <trkpt lat="43.52092" lon="6.32449">
        <ele>360.4</ele>
        <time>2023-09-15T11:55:30Z</time>
      </trkpt>
      <trkpt lat="43.52093" lon="6.32448">
        <ele>360.5</ele>
        <time>2023-09-15T11:55:31Z</time>
      </trkpt>
      <trkpt lat="43.52095" lon="6.32449">
        <ele>360.6</ele>
        <time>2023-09-15T11:55:32Z</time>
      </trkpt>
      <trkpt lat="43.52096" lon="6.32448">
        <ele>360.7</ele>
        <time>2023-09-15T11:55:33Z</time>
      </trkpt>
      <trkpt lat="43.52096" lon="6.32448">
        <ele>360.7</ele>
        <time>2023-09-15T11:55:34Z</time>
      </trkpt>
      <trkpt lat="43.52097" lon="6.32447">
        <ele>360.8</ele>
        <time>2023-09-15T11:55:35Z</time>
      </trkpt>
      <trkpt lat="43.52098" lon="6.32446">
        <ele>360.8</ele>
        <time>2023-09-15T11:55:36Z</time>
      </trkpt>
      <trkpt lat="43.52098" lon="6.32445">
        <ele>360.9</ele>
        <time>2023-09-15T11:55:37Z</time>
      </trkpt>
      <trkpt lat="43.52099" lon="6.32445">
        <ele>360.9</ele>
        <time>2023-09-15T11:55:38Z</time>
      </trkpt>
      <trkpt lat="43.521" lon="6.32444">
        <ele>360.9</ele>
        <time>2023-09-15T11:55:39Z</time>
      </trkpt>
      <trkpt lat="43.52101" lon="6.32443">
        <ele>361</ele>
        <time>2023-09-15T11:55:40Z</time>
      </trkpt>
      <trkpt lat="43.52101" lon="6.32443">
        <ele>360.8</ele>
        <time>2023-09-15T11:55:41Z</time>
      </trkpt>
      <trkpt lat="43.52102" lon="6.32442">
        <ele>360.8</ele>
        <time>2023-09-15T11:55:42Z</time>
      </trkpt>
      <trkpt lat="43.52103" lon="6.32442">
        <ele>360.9</ele>
        <time>2023-09-15T11:55:43Z</time>
      </trkpt>
      <trkpt lat="43.52103" lon="6.32441">
        <ele>360.9</ele>
        <time>2023-09-15T11:55:44Z</time>
      </trkpt>
      <trkpt lat="43.52104" lon="6.32441">
        <ele>361</ele>
        <time>2023-09-15T11:55:45Z</time>
      </trkpt>
      <trkpt lat="43.52106" lon="6.32441">
        <ele>361.1</ele>
        <time>2023-09-15T11:55:46Z</time>
      </trkpt>
      <trkpt lat="43.52107" lon="6.3244">
        <ele>361.1</ele>
        <time>2023-09-15T11:55:47Z</time>
      </trkpt>
      <trkpt lat="43.52108" lon="6.32438">
        <ele>361.2</ele>
        <time>2023-09-15T11:55:48Z</time>
      </trkpt>
      <trkpt lat="43.52108" lon="6.32438">
        <ele>361.3</ele>
        <time>2023-09-15T11:55:49Z</time>
      </trkpt>
      <trkpt lat="43.52109" lon="6.32438">
        <ele>361.4</ele>
        <time>2023-09-15T11:55:50Z</time>
      </trkpt>
      <trkpt lat="43.5211" lon="6.32438">
        <ele>361.6</ele>
        <time>2023-09-15T11:55:51Z</time>
      </trkpt>
      <trkpt lat="43.52111" lon="6.32437">
        <ele>361.7</ele>
        <time>2023-09-15T11:55:52Z</time>
      </trkpt>
      <trkpt lat="43.52112" lon="6.32436">
        <ele>361.8</ele>
        <time>2023-09-15T11:55:53Z</time>
      </trkpt>
      <trkpt lat="43.52113" lon="6.32435">
        <ele>361.9</ele>
        <time>2023-09-15T11:55:54Z</time>
      </trkpt>
      <trkpt lat="43.52113" lon="6.32433">
        <ele>361.9</ele>
        <time>2023-09-15T11:55:55Z</time>
      </trkpt>
      <trkpt lat="43.52114" lon="6.32431">
        <ele>362</ele>
        <time>2023-09-15T11:55:56Z</time>
      </trkpt>
      <trkpt lat="43.52114" lon="6.3243">
        <ele>362</ele>
        <time>2023-09-15T11:55:57Z</time>
      </trkpt>
      <trkpt lat="43.52114" lon="6.32428">
        <ele>362</ele>
        <time>2023-09-15T11:55:58Z</time>
      </trkpt>
      <trkpt lat="43.52115" lon="6.32427">
        <ele>362</ele>
        <time>2023-09-15T11:55:59Z</time>
      </trkpt>
      <trkpt lat="43.52115" lon="6.32426">
        <ele>362.1</ele>
        <time>2023-09-15T11:56:00Z</time>
      </trkpt>
      <trkpt lat="43.52116" lon="6.32425">
        <ele>362.1</ele>
        <time>2023-09-15T11:56:01Z</time>
      </trkpt>
      <trkpt lat="43.52117" lon="6.32425">
        <ele>362.2</ele>
        <time>2023-09-15T11:56:02Z</time>
      </trkpt>
      <trkpt lat="43.52118" lon="6.32424">
        <ele>362.2</ele>
        <time>2023-09-15T11:56:03Z</time>
      </trkpt>
      <trkpt lat="43.52118" lon="6.32423">
        <ele>362.2</ele>
        <time>2023-09-15T11:56:04Z</time>
      </trkpt>
      <trkpt lat="43.52119" lon="6.32421">
        <ele>362.2</ele>
        <time>2023-09-15T11:56:05Z</time>
      </trkpt>
      <trkpt lat="43.5212" lon="6.32421">
        <ele>362.2</ele>
        <time>2023-09-15T11:56:06Z</time>
      </trkpt>
      <trkpt lat="43.52122" lon="6.32421">
        <ele>362.2</ele>
        <time>2023-09-15T11:56:07Z</time>
      </trkpt>
      <trkpt lat="43.52123" lon="6.32421">
        <ele>362.1</ele>
        <time>2023-09-15T11:56:08Z</time>
      </trkpt>
      <trkpt lat="43.52123" lon="6.3242">
        <ele>362.2</ele>
        <time>2023-09-15T11:56:09Z</time>
      </trkpt>
      <trkpt lat="43.52124" lon="6.3242">
        <ele>362.4</ele>
        <time>2023-09-15T11:56:10Z</time>
      </trkpt>
      <trkpt lat="43.52125" lon="6.32419">
        <ele>362.5</ele>
        <time>2023-09-15T11:56:11Z</time>
      </trkpt>
      <trkpt lat="43.52125" lon="6.32417">
        <ele>362.5</ele>
        <time>2023-09-15T11:56:12Z</time>
      </trkpt>
      <trkpt lat="43.52125" lon="6.32416">
        <ele>362.6</ele>
        <time>2023-09-15T11:56:13Z</time>
      </trkpt>
      <trkpt lat="43.52127" lon="6.32413">
        <ele>362.6</ele>
        <time>2023-09-15T11:56:14Z</time>
      </trkpt>
      <trkpt lat="43.52128" lon="6.32412">
        <ele>362.6</ele>
        <time>2023-09-15T11:56:15Z</time>
      </trkpt>
      <trkpt lat="43.52129" lon="6.3241">
        <ele>362.7</ele>
        <time>2023-09-15T11:56:16Z</time>
      </trkpt>
      <trkpt lat="43.52131" lon="6.3241">
        <ele>362.7</ele>
        <time>2023-09-15T11:56:17Z</time>
      </trkpt>
      <trkpt lat="43.52132" lon="6.32409">
        <ele>362.8</ele>
        <time>2023-09-15T11:56:18Z</time>
      </trkpt>
      <trkpt lat="43.52133" lon="6.32409">
        <ele>362.9</ele>
        <time>2023-09-15T11:56:19Z</time>
      </trkpt>
      <trkpt lat="43.52134" lon="6.32408">
        <ele>362.8</ele>
        <time>2023-09-15T11:56:20Z</time>
      </trkpt>
      <trkpt lat="43.52134" lon="6.32407">
        <ele>362.8</ele>
        <time>2023-09-15T11:56:21Z</time>
      </trkpt>
      <trkpt lat="43.52135" lon="6.32406">
        <ele>362.8</ele>
        <time>2023-09-15T11:56:22Z</time>
      </trkpt>
      <trkpt lat="43.52137" lon="6.32405">
        <ele>362.8</ele>
        <time>2023-09-15T11:56:23Z</time>
      </trkpt>
      <trkpt lat="43.52138" lon="6.32404">
        <ele>362.8</ele>
        <time>2023-09-15T11:56:24Z</time>
      </trkpt>
      <trkpt lat="43.52139" lon="6.32401">
        <ele>362.8</ele>
        <time>2023-09-15T11:56:25Z</time>
      </trkpt>
      <trkpt lat="43.5214" lon="6.32401">
        <ele>362.8</ele>
        <time>2023-09-15T11:56:26Z</time>
      </trkpt>
      <trkpt lat="43.52141" lon="6.324">
        <ele>362.8</ele>
        <time>2023-09-15T11:56:27Z</time>
      </trkpt>
      <trkpt lat="43.52142" lon="6.324">
        <ele>362.8</ele>
        <time>2023-09-15T11:56:28Z</time>
      </trkpt>
      <trkpt lat="43.52143" lon="6.32399">
        <ele>362.8</ele>
        <time>2023-09-15T11:56:29Z</time>
      </trkpt>
      <trkpt lat="43.52144" lon="6.32398">
        <ele>362.8</ele>
        <time>2023-09-15T11:56:30Z</time>
      </trkpt>
      <trkpt lat="43.52145" lon="6.32397">
        <ele>362.8</ele>
        <time>2023-09-15T11:56:31Z</time>
      </trkpt>
      <trkpt lat="43.52145" lon="6.32396">
        <ele>362.8</ele>
        <time>2023-09-15T11:56:32Z</time>
      </trkpt>
      <trkpt lat="43.52146" lon="6.32394">
        <ele>362.9</ele>
        <time>2023-09-15T11:56:33Z</time>
      </trkpt>
      <trkpt lat="43.52147" lon="6.32394">
        <ele>362.9</ele>
        <time>2023-09-15T11:56:34Z</time>
      </trkpt>
      <trkpt lat="43.52148" lon="6.32393">
        <ele>363</ele>
        <time>2023-09-15T11:56:35Z</time>
      </trkpt>
      <trkpt lat="43.52149" lon="6.32392">
        <ele>363</ele>
        <time>2023-09-15T11:56:36Z</time>
      </trkpt>
      <trkpt lat="43.52149" lon="6.32392">
        <ele>363.1</ele>
        <time>2023-09-15T11:56:37Z</time>
      </trkpt>
      <trkpt lat="43.5215" lon="6.32391">
        <ele>363.1</ele>
        <time>2023-09-15T11:56:38Z</time>
      </trkpt>
      <trkpt lat="43.5215" lon="6.3239">
        <ele>363.2</ele>
        <time>2023-09-15T11:56:39Z</time>
      </trkpt>
      <trkpt lat="43.5215" lon="6.3239">
        <ele>363.2</ele>
        <time>2023-09-15T11:56:40Z</time>
      </trkpt>
      <trkpt lat="43.52151" lon="6.32389">
        <ele>363.2</ele>
        <time>2023-09-15T11:56:41Z</time>
      </trkpt>
      <trkpt lat="43.52152" lon="6.32387">
        <ele>363.3</ele>
        <time>2023-09-15T11:56:42Z</time>
      </trkpt>
      <trkpt lat="43.52153" lon="6.32386">
        <ele>363.3</ele>
        <time>2023-09-15T11:56:43Z</time>
      </trkpt>
      <trkpt lat="43.52153" lon="6.32385">
        <ele>363.2</ele>
        <time>2023-09-15T11:56:44Z</time>
      </trkpt>
      <trkpt lat="43.52154" lon="6.32384">
        <ele>363.1</ele>
        <time>2023-09-15T11:56:45Z</time>
      </trkpt>
      <trkpt lat="43.52155" lon="6.32384">
        <ele>363.1</ele>
        <time>2023-09-15T11:56:46Z</time>
      </trkpt>
      <trkpt lat="43.52156" lon="6.32383">
        <ele>363.1</ele>
        <time>2023-09-15T11:56:47Z</time>
      </trkpt>
      <trkpt lat="43.52156" lon="6.32383">
        <ele>363.1</ele>
        <time>2023-09-15T11:56:48Z</time>
      </trkpt>
      <trkpt lat="43.52156" lon="6.32383">
        <ele>363.1</ele>
        <time>2023-09-15T11:56:49Z</time>
      </trkpt>
      <trkpt lat="43.52157" lon="6.32381">
        <ele>363.1</ele>
        <time>2023-09-15T11:56:50Z</time>
      </trkpt>
      <trkpt lat="43.52158" lon="6.3238">
        <ele>363.1</ele>
        <time>2023-09-15T11:56:51Z</time>
      </trkpt>
      <trkpt lat="43.52158" lon="6.32379">
        <ele>363.1</ele>
        <time>2023-09-15T11:56:52Z</time>
      </trkpt>
      <trkpt lat="43.52158" lon="6.32378">
        <ele>363.1</ele>
        <time>2023-09-15T11:56:53Z</time>
      </trkpt>
      <trkpt lat="43.52159" lon="6.32377">
        <ele>363.1</ele>
        <time>2023-09-15T11:56:54Z</time>
      </trkpt>
      <trkpt lat="43.5216" lon="6.32376">
        <ele>363.2</ele>
        <time>2023-09-15T11:56:55Z</time>
      </trkpt>
      <trkpt lat="43.52161" lon="6.32374">
        <ele>363.2</ele>
        <time>2023-09-15T11:56:56Z</time>
      </trkpt>
      <trkpt lat="43.52161" lon="6.32373">
        <ele>363.2</ele>
        <time>2023-09-15T11:56:57Z</time>
      </trkpt>
      <trkpt lat="43.52163" lon="6.32372">
        <ele>363.1</ele>
        <time>2023-09-15T11:56:58Z</time>
      </trkpt>
      <trkpt lat="43.52163" lon="6.32371">
        <ele>363</ele>
        <time>2023-09-15T11:56:59Z</time>
      </trkpt>
      <trkpt lat="43.52163" lon="6.32371">
        <ele>363</ele>
        <time>2023-09-15T11:57:00Z</time>
      </trkpt>
      <trkpt lat="43.52164" lon="6.3237">
        <ele>362.9</ele>
        <time>2023-09-15T11:57:01Z</time>
      </trkpt>
      <trkpt lat="43.52164" lon="6.32369">
        <ele>362.9</ele>
        <time>2023-09-15T11:57:02Z</time>
      </trkpt>
      <trkpt lat="43.52165" lon="6.32368">
        <ele>362.9</ele>
        <time>2023-09-15T11:57:03Z</time>
      </trkpt>
      <trkpt lat="43.52166" lon="6.32368">
        <ele>362.8</ele>
        <time>2023-09-15T11:57:04Z</time>
      </trkpt>
      <trkpt lat="43.52167" lon="6.32367">
        <ele>362.8</ele>
        <time>2023-09-15T11:57:05Z</time>
      </trkpt>
      <trkpt lat="43.52168" lon="6.32366">
        <ele>362.9</ele>
        <time>2023-09-15T11:57:06Z</time>
      </trkpt>
      <trkpt lat="43.52169" lon="6.32365">
        <ele>362.8</ele>
        <time>2023-09-15T11:57:07Z</time>
      </trkpt>
      <trkpt lat="43.5217" lon="6.32365">
        <ele>362.8</ele>
        <time>2023-09-15T11:57:08Z</time>
      </trkpt>
      <trkpt lat="43.52171" lon="6.32365">
        <ele>362.9</ele>
        <time>2023-09-15T11:57:09Z</time>
      </trkpt>
      <trkpt lat="43.52172" lon="6.32365">
        <ele>362.9</ele>
        <time>2023-09-15T11:57:10Z</time>
      </trkpt>
      <trkpt lat="43.52173" lon="6.32364">
        <ele>363</ele>
        <time>2023-09-15T11:57:11Z</time>
      </trkpt>
      <trkpt lat="43.52174" lon="6.32363">
        <ele>363</ele>
        <time>2023-09-15T11:57:12Z</time>
      </trkpt>
      <trkpt lat="43.52174" lon="6.32362">
        <ele>363</ele>
        <time>2023-09-15T11:57:13Z</time>
      </trkpt>
      <trkpt lat="43.52174" lon="6.32362">
        <ele>363</ele>
        <time>2023-09-15T11:57:14Z</time>
      </trkpt>
      <trkpt lat="43.52175" lon="6.32361">
        <ele>363.1</ele>
        <time>2023-09-15T11:57:15Z</time>
      </trkpt>
      <trkpt lat="43.52175" lon="6.32361">
        <ele>363.2</ele>
        <time>2023-09-15T11:57:16Z</time>
      </trkpt>
      <trkpt lat="43.52176" lon="6.32361">
        <ele>363.3</ele>
        <time>2023-09-15T11:57:17Z</time>
      </trkpt>
      <trkpt lat="43.52176" lon="6.3236">
        <ele>363.4</ele>
        <time>2023-09-15T11:57:18Z</time>
      </trkpt>
      <trkpt lat="43.52178" lon="6.32358">
        <ele>363.4</ele>
        <time>2023-09-15T11:57:19Z</time>
      </trkpt>
      <trkpt lat="43.52178" lon="6.32358">
        <ele>363.4</ele>
        <time>2023-09-15T11:57:20Z</time>
      </trkpt>
      <trkpt lat="43.52179" lon="6.32357">
        <ele>363.5</ele>
        <time>2023-09-15T11:57:21Z</time>
      </trkpt>
      <trkpt lat="43.5218" lon="6.32357">
        <ele>363.5</ele>
        <time>2023-09-15T11:57:22Z</time>
      </trkpt>
      <trkpt lat="43.5218" lon="6.32356">
        <ele>363.5</ele>
        <time>2023-09-15T11:57:23Z</time>
      </trkpt>
      <trkpt lat="43.52181" lon="6.32355">
        <ele>363.6</ele>
        <time>2023-09-15T11:57:24Z</time>
      </trkpt>
      <trkpt lat="43.52182" lon="6.32355">
        <ele>363.6</ele>
        <time>2023-09-15T11:57:25Z</time>
      </trkpt>
      <trkpt lat="43.52183" lon="6.32354">
        <ele>363.7</ele>
        <time>2023-09-15T11:57:26Z</time>
      </trkpt>
      <trkpt lat="43.52184" lon="6.32353">
        <ele>363.8</ele>
        <time>2023-09-15T11:57:27Z</time>
      </trkpt>
      <trkpt lat="43.52185" lon="6.32352">
        <ele>363.8</ele>
        <time>2023-09-15T11:57:28Z</time>
      </trkpt>
      <trkpt lat="43.52185" lon="6.32352">
        <ele>363.8</ele>
        <time>2023-09-15T11:57:29Z</time>
      </trkpt>
      <trkpt lat="43.52187" lon="6.32351">
        <ele>363.9</ele>
        <time>2023-09-15T11:57:30Z</time>
      </trkpt>
      <trkpt lat="43.52188" lon="6.3235">
        <ele>363.9</ele>
        <time>2023-09-15T11:57:31Z</time>
      </trkpt>
      <trkpt lat="43.52189" lon="6.32349">
        <ele>363.9</ele>
        <time>2023-09-15T11:57:32Z</time>
      </trkpt>
      <trkpt lat="43.5219" lon="6.32348">
        <ele>363.9</ele>
        <time>2023-09-15T11:57:33Z</time>
      </trkpt>
      <trkpt lat="43.52191" lon="6.32347">
        <ele>363.9</ele>
        <time>2023-09-15T11:57:34Z</time>
      </trkpt>
      <trkpt lat="43.52192" lon="6.32345">
        <ele>363.9</ele>
        <time>2023-09-15T11:57:35Z</time>
      </trkpt>
      <trkpt lat="43.52192" lon="6.32344">
        <ele>363.9</ele>
        <time>2023-09-15T11:57:36Z</time>
      </trkpt>
      <trkpt lat="43.52192" lon="6.32343">
        <ele>363.9</ele>
        <time>2023-09-15T11:57:37Z</time>
      </trkpt>
      <trkpt lat="43.52193" lon="6.32342">
        <ele>364</ele>
        <time>2023-09-15T11:57:38Z</time>
      </trkpt>
      <trkpt lat="43.52194" lon="6.32341">
        <ele>364.1</ele>
        <time>2023-09-15T11:57:39Z</time>
      </trkpt>
      <trkpt lat="43.52195" lon="6.3234">
        <ele>364.1</ele>
        <time>2023-09-15T11:57:40Z</time>
      </trkpt>
      <trkpt lat="43.52196" lon="6.3234">
        <ele>364.2</ele>
        <time>2023-09-15T11:57:41Z</time>
      </trkpt>
      <trkpt lat="43.52198" lon="6.32338">
        <ele>364.2</ele>
        <time>2023-09-15T11:57:42Z</time>
      </trkpt>
      <trkpt lat="43.52199" lon="6.32338">
        <ele>364.2</ele>
        <time>2023-09-15T11:57:43Z</time>
      </trkpt>
      <trkpt lat="43.52199" lon="6.32337">
        <ele>364.2</ele>
        <time>2023-09-15T11:57:44Z</time>
      </trkpt>
      <trkpt lat="43.522" lon="6.32336">
        <ele>364.2</ele>
        <time>2023-09-15T11:57:45Z</time>
      </trkpt>
      <trkpt lat="43.52201" lon="6.32335">
        <ele>364.2</ele>
        <time>2023-09-15T11:57:46Z</time>
      </trkpt>
      <trkpt lat="43.52202" lon="6.32335">
        <ele>364.2</ele>
        <time>2023-09-15T11:57:47Z</time>
      </trkpt>
      <trkpt lat="43.52202" lon="6.32335">
        <ele>364.2</ele>
        <time>2023-09-15T11:57:48Z</time>
      </trkpt>
      <trkpt lat="43.52202" lon="6.32334">
        <ele>364.2</ele>
        <time>2023-09-15T11:57:49Z</time>
      </trkpt>
      <trkpt lat="43.52204" lon="6.32334">
        <ele>364.2</ele>
        <time>2023-09-15T11:57:50Z</time>
      </trkpt>
      <trkpt lat="43.52205" lon="6.32333">
        <ele>364.1</ele>
        <time>2023-09-15T11:57:51Z</time>
      </trkpt>
      <trkpt lat="43.52207" lon="6.32332">
        <ele>364.2</ele>
        <time>2023-09-15T11:57:52Z</time>
      </trkpt>
      <trkpt lat="43.52208" lon="6.32331">
        <ele>364.2</ele>
        <time>2023-09-15T11:57:53Z</time>
      </trkpt>
      <trkpt lat="43.5221" lon="6.3233">
        <ele>364.3</ele>
        <time>2023-09-15T11:57:54Z</time>
      </trkpt>
      <trkpt lat="43.52211" lon="6.3233">
        <ele>364.3</ele>
        <time>2023-09-15T11:57:55Z</time>
      </trkpt>
      <trkpt lat="43.52212" lon="6.32329">
        <ele>364.4</ele>
        <time>2023-09-15T11:57:56Z</time>
      </trkpt>
      <trkpt lat="43.52213" lon="6.32328">
        <ele>364.5</ele>
        <time>2023-09-15T11:57:57Z</time>
      </trkpt>
      <trkpt lat="43.52214" lon="6.32327">
        <ele>364.7</ele>
        <time>2023-09-15T11:57:58Z</time>
      </trkpt>
      <trkpt lat="43.52215" lon="6.32327">
        <ele>364.7</ele>
        <time>2023-09-15T11:57:59Z</time>
      </trkpt>
      <trkpt lat="43.52215" lon="6.32327">
        <ele>364.8</ele>
        <time>2023-09-15T11:58:00Z</time>
      </trkpt>
      <trkpt lat="43.52216" lon="6.32326">
        <ele>364.8</ele>
        <time>2023-09-15T11:58:01Z</time>
      </trkpt>
      <trkpt lat="43.52217" lon="6.32326">
        <ele>364.9</ele>
        <time>2023-09-15T11:58:02Z</time>
      </trkpt>
      <trkpt lat="43.52217" lon="6.32325">
        <ele>364.8</ele>
        <time>2023-09-15T11:58:03Z</time>
      </trkpt>
      <trkpt lat="43.52218" lon="6.32324">
        <ele>364.9</ele>
        <time>2023-09-15T11:58:04Z</time>
      </trkpt>
      <trkpt lat="43.5222" lon="6.32322">
        <ele>364.9</ele>
        <time>2023-09-15T11:58:05Z</time>
      </trkpt>
      <trkpt lat="43.52221" lon="6.32322">
        <ele>365</ele>
        <time>2023-09-15T11:58:06Z</time>
      </trkpt>
      <trkpt lat="43.52222" lon="6.32321">
        <ele>365</ele>
        <time>2023-09-15T11:58:07Z</time>
      </trkpt>
      <trkpt lat="43.52224" lon="6.3232">
        <ele>365</ele>
        <time>2023-09-15T11:58:08Z</time>
      </trkpt>
      <trkpt lat="43.52225" lon="6.32319">
        <ele>365.1</ele>
        <time>2023-09-15T11:58:09Z</time>
      </trkpt>
      <trkpt lat="43.52225" lon="6.32318">
        <ele>365.1</ele>
        <time>2023-09-15T11:58:10Z</time>
      </trkpt>
      <trkpt lat="43.52226" lon="6.32317">
        <ele>365.1</ele>
        <time>2023-09-15T11:58:11Z</time>
      </trkpt>
      <trkpt lat="43.52226" lon="6.32316">
        <ele>365.1</ele>
        <time>2023-09-15T11:58:12Z</time>
      </trkpt>
      <trkpt lat="43.52227" lon="6.32316">
        <ele>365.1</ele>
        <time>2023-09-15T11:58:13Z</time>
      </trkpt>
      <trkpt lat="43.52228" lon="6.32315">
        <ele>365.1</ele>
        <time>2023-09-15T11:58:14Z</time>
      </trkpt>
      <trkpt lat="43.52228" lon="6.32314">
        <ele>365.1</ele>
        <time>2023-09-15T11:58:15Z</time>
      </trkpt>
      <trkpt lat="43.52229" lon="6.32313">
        <ele>365.1</ele>
        <time>2023-09-15T11:58:16Z</time>
      </trkpt>
      <trkpt lat="43.5223" lon="6.32313">
        <ele>365.2</ele>
        <time>2023-09-15T11:58:17Z</time>
      </trkpt>
      <trkpt lat="43.52231" lon="6.32312">
        <ele>365.2</ele>
        <time>2023-09-15T11:58:18Z</time>
      </trkpt>
      <trkpt lat="43.52231" lon="6.32312">
        <ele>365.2</ele>
        <time>2023-09-15T11:58:19Z</time>
      </trkpt>
      <trkpt lat="43.52232" lon="6.32311">
        <ele>365.2</ele>
        <time>2023-09-15T11:58:20Z</time>
      </trkpt>
      <trkpt lat="43.52232" lon="6.32311">
        <ele>365.2</ele>
        <time>2023-09-15T11:58:21Z</time>
      </trkpt>
      <trkpt lat="43.52233" lon="6.3231">
        <ele>365.1</ele>
        <time>2023-09-15T11:58:22Z</time>
      </trkpt>
      <trkpt lat="43.52234" lon="6.32309">
        <ele>365.1</ele>
        <time>2023-09-15T11:58:23Z</time>
      </trkpt>
      <trkpt lat="43.52235" lon="6.32309">
        <ele>365.1</ele>
        <time>2023-09-15T11:58:24Z</time>
      </trkpt>
      <trkpt lat="43.52236" lon="6.32309">
        <ele>365</ele>
        <time>2023-09-15T11:58:25Z</time>
      </trkpt>
      <trkpt lat="43.52238" lon="6.32308">
        <ele>365</ele>
        <time>2023-09-15T11:58:26Z</time>
      </trkpt>
      <trkpt lat="43.52239" lon="6.32308">
        <ele>365</ele>
        <time>2023-09-15T11:58:27Z</time>
      </trkpt>
      <trkpt lat="43.52239" lon="6.32307">
        <ele>365</ele>
        <time>2023-09-15T11:58:28Z</time>
      </trkpt>
      <trkpt lat="43.52241" lon="6.32306">
        <ele>364.9</ele>
        <time>2023-09-15T11:58:29Z</time>
      </trkpt>
      <trkpt lat="43.52241" lon="6.32306">
        <ele>364.9</ele>
        <time>2023-09-15T11:58:30Z</time>
      </trkpt>
      <trkpt lat="43.52242" lon="6.32306">
        <ele>365</ele>
        <time>2023-09-15T11:58:31Z</time>
      </trkpt>
      <trkpt lat="43.52243" lon="6.32306">
        <ele>364.9</ele>
        <time>2023-09-15T11:58:32Z</time>
      </trkpt>
      <trkpt lat="43.52243" lon="6.32304">
        <ele>364.9</ele>
        <time>2023-09-15T11:58:33Z</time>
      </trkpt>
      <trkpt lat="43.52245" lon="6.32303">
        <ele>364.9</ele>
        <time>2023-09-15T11:58:34Z</time>
      </trkpt>
      <trkpt lat="43.52247" lon="6.32303">
        <ele>365</ele>
        <time>2023-09-15T11:58:35Z</time>
      </trkpt>
      <trkpt lat="43.52248" lon="6.32302">
        <ele>365</ele>
        <time>2023-09-15T11:58:36Z</time>
      </trkpt>
      <trkpt lat="43.52249" lon="6.32302">
        <ele>364.9</ele>
        <time>2023-09-15T11:58:37Z</time>
      </trkpt>
      <trkpt lat="43.5225" lon="6.32301">
        <ele>364.9</ele>
        <time>2023-09-15T11:58:38Z</time>
      </trkpt>
      <trkpt lat="43.52251" lon="6.32301">
        <ele>364.8</ele>
        <time>2023-09-15T11:58:39Z</time>
      </trkpt>
      <trkpt lat="43.52252" lon="6.32301">
        <ele>364.7</ele>
        <time>2023-09-15T11:58:40Z</time>
      </trkpt>
      <trkpt lat="43.52253" lon="6.32301">
        <ele>364.6</ele>
        <time>2023-09-15T11:58:41Z</time>
      </trkpt>
      <trkpt lat="43.52254" lon="6.32301">
        <ele>364.6</ele>
        <time>2023-09-15T11:58:42Z</time>
      </trkpt>
      <trkpt lat="43.52255" lon="6.32301">
        <ele>364.5</ele>
        <time>2023-09-15T11:58:43Z</time>
      </trkpt>
      <trkpt lat="43.52256" lon="6.32301">
        <ele>364.5</ele>
        <time>2023-09-15T11:58:44Z</time>
      </trkpt>
      <trkpt lat="43.52257" lon="6.323">
        <ele>364.5</ele>
        <time>2023-09-15T11:58:45Z</time>
      </trkpt>
      <trkpt lat="43.52257" lon="6.323">
        <ele>364.5</ele>
        <time>2023-09-15T11:58:46Z</time>
      </trkpt>
      <trkpt lat="43.52258" lon="6.32299">
        <ele>364.5</ele>
        <time>2023-09-15T11:58:47Z</time>
      </trkpt>
      <trkpt lat="43.52259" lon="6.32298">
        <ele>364.5</ele>
        <time>2023-09-15T11:58:48Z</time>
      </trkpt>
      <trkpt lat="43.5226" lon="6.32298">
        <ele>364.4</ele>
        <time>2023-09-15T11:58:49Z</time>
      </trkpt>
      <trkpt lat="43.5226" lon="6.32298">
        <ele>364.4</ele>
        <time>2023-09-15T11:58:50Z</time>
      </trkpt>
      <trkpt lat="43.5226" lon="6.32298">
        <ele>364.4</ele>
        <time>2023-09-15T11:58:51Z</time>
      </trkpt>
      <trkpt lat="43.52261" lon="6.32297">
        <ele>364.3</ele>
        <time>2023-09-15T11:58:52Z</time>
      </trkpt>
      <trkpt lat="43.52262" lon="6.32297">
        <ele>364.3</ele>
        <time>2023-09-15T11:58:53Z</time>
      </trkpt>
      <trkpt lat="43.52263" lon="6.32297">
        <ele>364.3</ele>
        <time>2023-09-15T11:58:54Z</time>
      </trkpt>
      <trkpt lat="43.52264" lon="6.32297">
        <ele>364.3</ele>
        <time>2023-09-15T11:58:55Z</time>
      </trkpt>
      <trkpt lat="43.52265" lon="6.32296">
        <ele>364.3</ele>
        <time>2023-09-15T11:58:56Z</time>
      </trkpt>
      <trkpt lat="43.52266" lon="6.32296">
        <ele>364.3</ele>
        <time>2023-09-15T11:58:57Z</time>
      </trkpt>
      <trkpt lat="43.52268" lon="6.32295">
        <ele>364.3</ele>
        <time>2023-09-15T11:58:58Z</time>
      </trkpt>
      <trkpt lat="43.52269" lon="6.32295">
        <ele>364.3</ele>
        <time>2023-09-15T11:58:59Z</time>
      </trkpt>
      <trkpt lat="43.5227" lon="6.32295">
        <ele>364.3</ele>
        <time>2023-09-15T11:59:00Z</time>
      </trkpt>
      <trkpt lat="43.52272" lon="6.32295">
        <ele>364.3</ele>
        <time>2023-09-15T11:59:01Z</time>
      </trkpt>
      <trkpt lat="43.52272" lon="6.32295">
        <ele>364.3</ele>
        <time>2023-09-15T11:59:02Z</time>
      </trkpt>
      <trkpt lat="43.52273" lon="6.32294">
        <ele>364.3</ele>
        <time>2023-09-15T11:59:03Z</time>
      </trkpt>
      <trkpt lat="43.52275" lon="6.32293">
        <ele>364.4</ele>
        <time>2023-09-15T11:59:04Z</time>
      </trkpt>
      <trkpt lat="43.52275" lon="6.32293">
        <ele>364.4</ele>
        <time>2023-09-15T11:59:05Z</time>
      </trkpt>
      <trkpt lat="43.52276" lon="6.32292">
        <ele>364.4</ele>
        <time>2023-09-15T11:59:06Z</time>
      </trkpt>
      <trkpt lat="43.52277" lon="6.32292">
        <ele>364.4</ele>
        <time>2023-09-15T11:59:07Z</time>
      </trkpt>
      <trkpt lat="43.52278" lon="6.32291">
        <ele>364.4</ele>
        <time>2023-09-15T11:59:08Z</time>
      </trkpt>
      <trkpt lat="43.52279" lon="6.32289">
        <ele>364.4</ele>
        <time>2023-09-15T11:59:09Z</time>
      </trkpt>
      <trkpt lat="43.52281" lon="6.32288">
        <ele>364.3</ele>
        <time>2023-09-15T11:59:10Z</time>
      </trkpt>
      <trkpt lat="43.52282" lon="6.32287">
        <ele>364.3</ele>
        <time>2023-09-15T11:59:11Z</time>
      </trkpt>
      <trkpt lat="43.52283" lon="6.32287">
        <ele>364.2</ele>
        <time>2023-09-15T11:59:12Z</time>
      </trkpt>
      <trkpt lat="43.52284" lon="6.32286">
        <ele>364.2</ele>
        <time>2023-09-15T11:59:13Z</time>
      </trkpt>
      <trkpt lat="43.52285" lon="6.32285">
        <ele>364.2</ele>
        <time>2023-09-15T11:59:14Z</time>
      </trkpt>
      <trkpt lat="43.52286" lon="6.32284">
        <ele>364.2</ele>
        <time>2023-09-15T11:59:15Z</time>
      </trkpt>
      <trkpt lat="43.52287" lon="6.32283">
        <ele>364.2</ele>
        <time>2023-09-15T11:59:16Z</time>
      </trkpt>
      <trkpt lat="43.52287" lon="6.32282">
        <ele>364.2</ele>
        <time>2023-09-15T11:59:17Z</time>
      </trkpt>
      <trkpt lat="43.52288" lon="6.32281">
        <ele>364.2</ele>
        <time>2023-09-15T11:59:18Z</time>
      </trkpt>
      <trkpt lat="43.52289" lon="6.32281">
        <ele>364.3</ele>
        <time>2023-09-15T11:59:19Z</time>
      </trkpt>
      <trkpt lat="43.52289" lon="6.32281">
        <ele>364.3</ele>
        <time>2023-09-15T11:59:20Z</time>
      </trkpt>
      <trkpt lat="43.52289" lon="6.3228">
        <ele>364.4</ele>
        <time>2023-09-15T11:59:21Z</time>
      </trkpt>
      <trkpt lat="43.5229" lon="6.32279">
        <ele>364.4</ele>
        <time>2023-09-15T11:59:22Z</time>
      </trkpt>
      <trkpt lat="43.52291" lon="6.32278">
        <ele>364.4</ele>
        <time>2023-09-15T11:59:23Z</time>
      </trkpt>
      <trkpt lat="43.52291" lon="6.32277">
        <ele>364.4</ele>
        <time>2023-09-15T11:59:24Z</time>
      </trkpt>
      <trkpt lat="43.52293" lon="6.32277">
        <ele>364.3</ele>
        <time>2023-09-15T11:59:25Z</time>
      </trkpt>
      <trkpt lat="43.52294" lon="6.32277">
        <ele>364.3</ele>
        <time>2023-09-15T11:59:26Z</time>
      </trkpt>
      <trkpt lat="43.52295" lon="6.32275">
        <ele>364.3</ele>
        <time>2023-09-15T11:59:27Z</time>
      </trkpt>
      <trkpt lat="43.52296" lon="6.32273">
        <ele>364.4</ele>
        <time>2023-09-15T11:59:28Z</time>
      </trkpt>
      <trkpt lat="43.52298" lon="6.32272">
        <ele>364.4</ele>
        <time>2023-09-15T11:59:29Z</time>
      </trkpt>
      <trkpt lat="43.52299" lon="6.32271">
        <ele>364.6</ele>
        <time>2023-09-15T11:59:30Z</time>
      </trkpt>
      <trkpt lat="43.523" lon="6.32269">
        <ele>364.8</ele>
        <time>2023-09-15T11:59:31Z</time>
      </trkpt>
      <trkpt lat="43.52301" lon="6.32267">
        <ele>364.8</ele>
        <time>2023-09-15T11:59:32Z</time>
      </trkpt>
      <trkpt lat="43.52301" lon="6.32266">
        <ele>364.8</ele>
        <time>2023-09-15T11:59:33Z</time>
      </trkpt>
      <trkpt lat="43.52303" lon="6.32265">
        <ele>364.9</ele>
        <time>2023-09-15T11:59:34Z</time>
      </trkpt>
      <trkpt lat="43.52303" lon="6.32263">
        <ele>364.9</ele>
        <time>2023-09-15T11:59:35Z</time>
      </trkpt>
      <trkpt lat="43.52303" lon="6.32262">
        <ele>364.9</ele>
        <time>2023-09-15T11:59:36Z</time>
      </trkpt>
      <trkpt lat="43.52304" lon="6.32261">
        <ele>364.9</ele>
        <time>2023-09-15T11:59:37Z</time>
      </trkpt>
      <trkpt lat="43.52305" lon="6.32261">
        <ele>365</ele>
        <time>2023-09-15T11:59:38Z</time>
      </trkpt>
      <trkpt lat="43.52305" lon="6.3226">
        <ele>365</ele>
        <time>2023-09-15T11:59:39Z</time>
      </trkpt>
      <trkpt lat="43.52306" lon="6.32259">
        <ele>365</ele>
        <time>2023-09-15T11:59:40Z</time>
      </trkpt>
      <trkpt lat="43.52307" lon="6.32259">
        <ele>365</ele>
        <time>2023-09-15T11:59:41Z</time>
      </trkpt>
      <trkpt lat="43.52308" lon="6.32258">
        <ele>365</ele>
        <time>2023-09-15T11:59:42Z</time>
      </trkpt>
      <trkpt lat="43.52309" lon="6.32258">
        <ele>365</ele>
        <time>2023-09-15T11:59:43Z</time>
      </trkpt>
      <trkpt lat="43.5231" lon="6.32258">
        <ele>365</ele>
        <time>2023-09-15T11:59:44Z</time>
      </trkpt>
      <trkpt lat="43.5231" lon="6.32258">
        <ele>365</ele>
        <time>2023-09-15T11:59:45Z</time>
      </trkpt>
      <trkpt lat="43.5231" lon="6.32258">
        <ele>365</ele>
        <time>2023-09-15T11:59:46Z</time>
      </trkpt>
      <trkpt lat="43.52311" lon="6.32257">
        <ele>365.1</ele>
        <time>2023-09-15T11:59:47Z</time>
      </trkpt>
      <trkpt lat="43.52312" lon="6.32256">
        <ele>365.2</ele>
        <time>2023-09-15T11:59:48Z</time>
      </trkpt>
      <trkpt lat="43.52314" lon="6.32255">
        <ele>365.3</ele>
        <time>2023-09-15T11:59:49Z</time>
      </trkpt>
      <trkpt lat="43.52315" lon="6.32254">
        <ele>365.3</ele>
        <time>2023-09-15T11:59:50Z</time>
      </trkpt>
      <trkpt lat="43.52316" lon="6.32253">
        <ele>365.3</ele>
        <time>2023-09-15T11:59:51Z</time>
      </trkpt>
      <trkpt lat="43.52317" lon="6.32252">
        <ele>365.3</ele>
        <time>2023-09-15T11:59:52Z</time>
      </trkpt>
      <trkpt lat="43.52318" lon="6.32251">
        <ele>365.3</ele>
        <time>2023-09-15T11:59:53Z</time>
      </trkpt>
      <trkpt lat="43.52319" lon="6.3225">
        <ele>365.3</ele>
        <time>2023-09-15T11:59:54Z</time>
      </trkpt>
      <trkpt lat="43.5232" lon="6.3225">
        <ele>365.3</ele>
        <time>2023-09-15T11:59:55Z</time>
      </trkpt>
      <trkpt lat="43.52321" lon="6.32249">
        <ele>365.3</ele>
        <time>2023-09-15T11:59:56Z</time>
      </trkpt>
      <trkpt lat="43.52322" lon="6.32248">
        <ele>365.2</ele>
        <time>2023-09-15T11:59:57Z</time>
      </trkpt>
      <trkpt lat="43.52322" lon="6.32248">
        <ele>365.2</ele>
        <time>2023-09-15T11:59:58Z</time>
      </trkpt>
      <trkpt lat="43.52323" lon="6.32247">
        <ele>365.1</ele>
        <time>2023-09-15T11:59:59Z</time>
      </trkpt>
      <trkpt lat="43.52323" lon="6.32247">
        <ele>365.1</ele>
        <time>2023-09-15T12:00:00Z</time>
      </trkpt>
      <trkpt lat="43.52324" lon="6.32245">
        <ele>365</ele>
        <time>2023-09-15T12:00:01Z</time>
      </trkpt>
      <trkpt lat="43.52324" lon="6.32244">
        <ele>365</ele>
        <time>2023-09-15T12:00:02Z</time>
      </trkpt>
      <trkpt lat="43.52325" lon="6.32243">
        <ele>365.3</ele>
        <time>2023-09-15T12:00:03Z</time>
      </trkpt>
      <trkpt lat="43.52325" lon="6.32243">
        <ele>365.2</ele>
        <time>2023-09-15T12:00:04Z</time>
      </trkpt>
      <trkpt lat="43.52326" lon="6.32242">
        <ele>365.1</ele>
        <time>2023-09-15T12:00:05Z</time>
      </trkpt>
      <trkpt lat="43.52326" lon="6.32241">
        <ele>365.1</ele>
        <time>2023-09-15T12:00:06Z</time>
      </trkpt>
      <trkpt lat="43.52327" lon="6.3224">
        <ele>365.1</ele>
        <time>2023-09-15T12:00:07Z</time>
      </trkpt>
      <trkpt lat="43.52328" lon="6.32239">
        <ele>365.1</ele>
        <time>2023-09-15T12:00:08Z</time>
      </trkpt>
      <trkpt lat="43.52328" lon="6.32238">
        <ele>365</ele>
        <time>2023-09-15T12:00:09Z</time>
      </trkpt>
      <trkpt lat="43.52329" lon="6.32236">
        <ele>365.1</ele>
        <time>2023-09-15T12:00:10Z</time>
      </trkpt>
      <trkpt lat="43.5233" lon="6.32234">
        <ele>365.2</ele>
        <time>2023-09-15T12:00:11Z</time>
      </trkpt>
      <trkpt lat="43.52332" lon="6.32233">
        <ele>365.3</ele>
        <time>2023-09-15T12:00:12Z</time>
      </trkpt>
      <trkpt lat="43.52333" lon="6.32232">
        <ele>365.3</ele>
        <time>2023-09-15T12:00:13Z</time>
      </trkpt>
      <trkpt lat="43.52334" lon="6.32231">
        <ele>365.5</ele>
        <time>2023-09-15T12:00:14Z</time>
      </trkpt>
      <trkpt lat="43.52335" lon="6.3223">
        <ele>365.6</ele>
        <time>2023-09-15T12:00:15Z</time>
      </trkpt>
      <trkpt lat="43.52335" lon="6.32229">
        <ele>365.7</ele>
        <time>2023-09-15T12:00:16Z</time>
      </trkpt>
      <trkpt lat="43.52335" lon="6.32229">
        <ele>365.7</ele>
        <time>2023-09-15T12:00:17Z</time>
      </trkpt>
      <trkpt lat="43.52336" lon="6.32228">
        <ele>365.8</ele>
        <time>2023-09-15T12:00:18Z</time>
      </trkpt>
      <trkpt lat="43.52336" lon="6.32227">
        <ele>365.8</ele>
        <time>2023-09-15T12:00:19Z</time>
      </trkpt>
      <trkpt lat="43.52336" lon="6.32225">
        <ele>365.9</ele>
        <time>2023-09-15T12:00:20Z</time>
      </trkpt>
      <trkpt lat="43.52337" lon="6.32223">
        <ele>365.9</ele>
        <time>2023-09-15T12:00:21Z</time>
      </trkpt>
      <trkpt lat="43.52337" lon="6.32222">
        <ele>365.9</ele>
        <time>2023-09-15T12:00:22Z</time>
      </trkpt>
      <trkpt lat="43.52338" lon="6.32221">
        <ele>365.9</ele>
        <time>2023-09-15T12:00:23Z</time>
      </trkpt>
      <trkpt lat="43.52339" lon="6.3222">
        <ele>365.9</ele>
        <time>2023-09-15T12:00:24Z</time>
      </trkpt>
      <trkpt lat="43.52339" lon="6.32219">
        <ele>365.9</ele>
        <time>2023-09-15T12:00:25Z</time>
      </trkpt>
      <trkpt lat="43.5234" lon="6.32218">
        <ele>365.9</ele>
        <time>2023-09-15T12:00:26Z</time>
      </trkpt>
      <trkpt lat="43.5234" lon="6.32217">
        <ele>366</ele>
        <time>2023-09-15T12:00:27Z</time>
      </trkpt>
      <trkpt lat="43.5234" lon="6.32216">
        <ele>366</ele>
        <time>2023-09-15T12:00:28Z</time>
      </trkpt>
      <trkpt lat="43.5234" lon="6.32215">
        <ele>366.1</ele>
        <time>2023-09-15T12:00:29Z</time>
      </trkpt>
      <trkpt lat="43.52341" lon="6.32214">
        <ele>366</ele>
        <time>2023-09-15T12:00:30Z</time>
      </trkpt>
      <trkpt lat="43.52341" lon="6.32213">
        <ele>366</ele>
        <time>2023-09-15T12:00:31Z</time>
      </trkpt>
      <trkpt lat="43.52342" lon="6.32213">
        <ele>366</ele>
        <time>2023-09-15T12:00:32Z</time>
      </trkpt>
      <trkpt lat="43.52343" lon="6.32212">
        <ele>366.1</ele>
        <time>2023-09-15T12:00:33Z</time>
      </trkpt>
      <trkpt lat="43.52343" lon="6.32211">
        <ele>366.1</ele>
        <time>2023-09-15T12:00:34Z</time>
      </trkpt>
      <trkpt lat="43.52343" lon="6.32209">
        <ele>366</ele>
        <time>2023-09-15T12:00:35Z</time>
      </trkpt>
      <trkpt lat="43.52343" lon="6.32208">
        <ele>366</ele>
        <time>2023-09-15T12:00:36Z</time>
      </trkpt>
      <trkpt lat="43.52345" lon="6.32207">
        <ele>366</ele>
        <time>2023-09-15T12:00:37Z</time>
      </trkpt>
      <trkpt lat="43.52345" lon="6.32206">
        <ele>366</ele>
        <time>2023-09-15T12:00:38Z</time>
      </trkpt>
      <trkpt lat="43.52346" lon="6.32206">
        <ele>365.9</ele>
        <time>2023-09-15T12:00:39Z</time>
      </trkpt>
      <trkpt lat="43.52347" lon="6.32205">
        <ele>365.9</ele>
        <time>2023-09-15T12:00:40Z</time>
      </trkpt>
      <trkpt lat="43.52348" lon="6.32203">
        <ele>365.8</ele>
        <time>2023-09-15T12:00:41Z</time>
      </trkpt>
      <trkpt lat="43.52349" lon="6.32202">
        <ele>365.8</ele>
        <time>2023-09-15T12:00:42Z</time>
      </trkpt>
      <trkpt lat="43.52349" lon="6.32201">
        <ele>365.7</ele>
        <time>2023-09-15T12:00:43Z</time>
      </trkpt>
      <trkpt lat="43.5235" lon="6.322">
        <ele>365.7</ele>
        <time>2023-09-15T12:00:44Z</time>
      </trkpt>
      <trkpt lat="43.5235" lon="6.32199">
        <ele>365.7</ele>
        <time>2023-09-15T12:00:45Z</time>
      </trkpt>
      <trkpt lat="43.5235" lon="6.32198">
        <ele>365.7</ele>
        <time>2023-09-15T12:00:46Z</time>
      </trkpt>
      <trkpt lat="43.52351" lon="6.32196">
        <ele>365.7</ele>
        <time>2023-09-15T12:00:47Z</time>
      </trkpt>
      <trkpt lat="43.52351" lon="6.32195">
        <ele>365.7</ele>
        <time>2023-09-15T12:00:48Z</time>
      </trkpt>
      <trkpt lat="43.52351" lon="6.32194">
        <ele>365.7</ele>
        <time>2023-09-15T12:00:49Z</time>
      </trkpt>
      <trkpt lat="43.52352" lon="6.32192">
        <ele>365.8</ele>
        <time>2023-09-15T12:00:50Z</time>
      </trkpt>
      <trkpt lat="43.52353" lon="6.32191">
        <ele>365.8</ele>
        <time>2023-09-15T12:00:51Z</time>
      </trkpt>
      <trkpt lat="43.52353" lon="6.3219">
        <ele>365.9</ele>
        <time>2023-09-15T12:00:52Z</time>
      </trkpt>
      <trkpt lat="43.52354" lon="6.32189">
        <ele>366</ele>
        <time>2023-09-15T12:00:53Z</time>
      </trkpt>
      <trkpt lat="43.52354" lon="6.32188">
        <ele>366</ele>
        <time>2023-09-15T12:00:54Z</time>
      </trkpt>
      <trkpt lat="43.52355" lon="6.32187">
        <ele>366.1</ele>
        <time>2023-09-15T12:00:55Z</time>
      </trkpt>
      <trkpt lat="43.52355" lon="6.32186">
        <ele>366.1</ele>
        <time>2023-09-15T12:00:56Z</time>
      </trkpt>
      <trkpt lat="43.52356" lon="6.32185">
        <ele>366.2</ele>
        <time>2023-09-15T12:00:57Z</time>
      </trkpt>
      <trkpt lat="43.52356" lon="6.32184">
        <ele>366.3</ele>
        <time>2023-09-15T12:00:58Z</time>
      </trkpt>
      <trkpt lat="43.52358" lon="6.32183">
        <ele>366.4</ele>
        <time>2023-09-15T12:00:59Z</time>
      </trkpt>
      <trkpt lat="43.52358" lon="6.32181">
        <ele>366.5</ele>
        <time>2023-09-15T12:01:00Z</time>
      </trkpt>
      <trkpt lat="43.52359" lon="6.3218">
        <ele>366.6</ele>
        <time>2023-09-15T12:01:01Z</time>
      </trkpt>
      <trkpt lat="43.5236" lon="6.32178">
        <ele>366.6</ele>
        <time>2023-09-15T12:01:02Z</time>
      </trkpt>
      <trkpt lat="43.52361" lon="6.32177">
        <ele>366.7</ele>
        <time>2023-09-15T12:01:03Z</time>
      </trkpt>
      <trkpt lat="43.52361" lon="6.32175">
        <ele>366.8</ele>
        <time>2023-09-15T12:01:04Z</time>
      </trkpt>
      <trkpt lat="43.52362" lon="6.32174">
        <ele>366.8</ele>
        <time>2023-09-15T12:01:05Z</time>
      </trkpt>
      <trkpt lat="43.52362" lon="6.32173">
        <ele>366.8</ele>
        <time>2023-09-15T12:01:06Z</time>
      </trkpt>
      <trkpt lat="43.52362" lon="6.32173">
        <ele>366.8</ele>
        <time>2023-09-15T12:01:07Z</time>
      </trkpt>
      <trkpt lat="43.52362" lon="6.32172">
        <ele>366.8</ele>
        <time>2023-09-15T12:01:08Z</time>
      </trkpt>
      <trkpt lat="43.52363" lon="6.32171">
        <ele>366.7</ele>
        <time>2023-09-15T12:01:09Z</time>
      </trkpt>
      <trkpt lat="43.52363" lon="6.3217">
        <ele>366.7</ele>
        <time>2023-09-15T12:01:10Z</time>
      </trkpt>
      <trkpt lat="43.52364" lon="6.32168">
        <ele>366.7</ele>
        <time>2023-09-15T12:01:11Z</time>
      </trkpt>
      <trkpt lat="43.52365" lon="6.32166">
        <ele>366.6</ele>
        <time>2023-09-15T12:01:12Z</time>
      </trkpt>
      <trkpt lat="43.52365" lon="6.32165">
        <ele>366.6</ele>
        <time>2023-09-15T12:01:13Z</time>
      </trkpt>
      <trkpt lat="43.52366" lon="6.32165">
        <ele>366.7</ele>
        <time>2023-09-15T12:01:14Z</time>
      </trkpt>
      <trkpt lat="43.52366" lon="6.32164">
        <ele>366.7</ele>
        <time>2023-09-15T12:01:15Z</time>
      </trkpt>
      <trkpt lat="43.52366" lon="6.32163">
        <ele>366.7</ele>
        <time>2023-09-15T12:01:16Z</time>
      </trkpt>
      <trkpt lat="43.52366" lon="6.32162">
        <ele>366.8</ele>
        <time>2023-09-15T12:01:17Z</time>
      </trkpt>
      <trkpt lat="43.52366" lon="6.32161">
        <ele>366.7</ele>
        <time>2023-09-15T12:01:18Z</time>
      </trkpt>
      <trkpt lat="43.52368" lon="6.32159">
        <ele>366.7</ele>
        <time>2023-09-15T12:01:19Z</time>
      </trkpt>
      <trkpt lat="43.52369" lon="6.32158">
        <ele>366.6</ele>
        <time>2023-09-15T12:01:20Z</time>
      </trkpt>
      <trkpt lat="43.52369" lon="6.32156">
        <ele>366.6</ele>
        <time>2023-09-15T12:01:21Z</time>
      </trkpt>
      <trkpt lat="43.52369" lon="6.32155">
        <ele>366.6</ele>
        <time>2023-09-15T12:01:22Z</time>
      </trkpt>
      <trkpt lat="43.5237" lon="6.32154">
        <ele>366.6</ele>
        <time>2023-09-15T12:01:23Z</time>
      </trkpt>
      <trkpt lat="43.52371" lon="6.32152">
        <ele>366.7</ele>
        <time>2023-09-15T12:01:24Z</time>
      </trkpt>
      <trkpt lat="43.52372" lon="6.32151">
        <ele>366.8</ele>
        <time>2023-09-15T12:01:25Z</time>
      </trkpt>
      <trkpt lat="43.52373" lon="6.3215">
        <ele>366.9</ele>
        <time>2023-09-15T12:01:26Z</time>
      </trkpt>
      <trkpt lat="43.52373" lon="6.32149">
        <ele>366.9</ele>
        <time>2023-09-15T12:01:27Z</time>
      </trkpt>
      <trkpt lat="43.52374" lon="6.32148">
        <ele>367</ele>
        <time>2023-09-15T12:01:28Z</time>
      </trkpt>
      <trkpt lat="43.52374" lon="6.32147">
        <ele>367</ele>
        <time>2023-09-15T12:01:29Z</time>
      </trkpt>
      <trkpt lat="43.52375" lon="6.32146">
        <ele>367.1</ele>
        <time>2023-09-15T12:01:30Z</time>
      </trkpt>
      <trkpt lat="43.52375" lon="6.32145">
        <ele>367.1</ele>
        <time>2023-09-15T12:01:31Z</time>
      </trkpt>
      <trkpt lat="43.52377" lon="6.32143">
        <ele>367.2</ele>
        <time>2023-09-15T12:01:32Z</time>
      </trkpt>
      <trkpt lat="43.52378" lon="6.32141">
        <ele>367.2</ele>
        <time>2023-09-15T12:01:33Z</time>
      </trkpt>
      <trkpt lat="43.52379" lon="6.3214">
        <ele>367.2</ele>
        <time>2023-09-15T12:01:34Z</time>
      </trkpt>
      <trkpt lat="43.5238" lon="6.32139">
        <ele>367.2</ele>
        <time>2023-09-15T12:01:35Z</time>
      </trkpt>
      <trkpt lat="43.5238" lon="6.32137">
        <ele>367.1</ele>
        <time>2023-09-15T12:01:36Z</time>
      </trkpt>
      <trkpt lat="43.52381" lon="6.32135">
        <ele>367.1</ele>
        <time>2023-09-15T12:01:37Z</time>
      </trkpt>
      <trkpt lat="43.52382" lon="6.32133">
        <ele>367.1</ele>
        <time>2023-09-15T12:01:38Z</time>
      </trkpt>
      <trkpt lat="43.52382" lon="6.32132">
        <ele>367.1</ele>
        <time>2023-09-15T12:01:39Z</time>
      </trkpt>
      <trkpt lat="43.52383" lon="6.32131">
        <ele>367.1</ele>
        <time>2023-09-15T12:01:40Z</time>
      </trkpt>
      <trkpt lat="43.52383" lon="6.32129">
        <ele>367.1</ele>
        <time>2023-09-15T12:01:41Z</time>
      </trkpt>
      <trkpt lat="43.52384" lon="6.32128">
        <ele>367.1</ele>
        <time>2023-09-15T12:01:42Z</time>
      </trkpt>
      <trkpt lat="43.52385" lon="6.32127">
        <ele>367.1</ele>
        <time>2023-09-15T12:01:43Z</time>
      </trkpt>
      <trkpt lat="43.52385" lon="6.32125">
        <ele>367</ele>
        <time>2023-09-15T12:01:44Z</time>
      </trkpt>
      <trkpt lat="43.52386" lon="6.32124">
        <ele>367</ele>
        <time>2023-09-15T12:01:45Z</time>
      </trkpt>
      <trkpt lat="43.52386" lon="6.32123">
        <ele>367</ele>
        <time>2023-09-15T12:01:46Z</time>
      </trkpt>
      <trkpt lat="43.52386" lon="6.32122">
        <ele>367.1</ele>
        <time>2023-09-15T12:01:47Z</time>
      </trkpt>
      <trkpt lat="43.52386" lon="6.32121">
        <ele>367</ele>
        <time>2023-09-15T12:01:48Z</time>
      </trkpt>
      <trkpt lat="43.52387" lon="6.3212">
        <ele>367.1</ele>
        <time>2023-09-15T12:01:49Z</time>
      </trkpt>
      <trkpt lat="43.52387" lon="6.32119">
        <ele>367.1</ele>
        <time>2023-09-15T12:01:50Z</time>
      </trkpt>
      <trkpt lat="43.52387" lon="6.32118">
        <ele>367.2</ele>
        <time>2023-09-15T12:01:51Z</time>
      </trkpt>
      <trkpt lat="43.52388" lon="6.32117">
        <ele>367.2</ele>
        <time>2023-09-15T12:01:52Z</time>
      </trkpt>
      <trkpt lat="43.52388" lon="6.32116">
        <ele>367.3</ele>
        <time>2023-09-15T12:01:53Z</time>
      </trkpt>
      <trkpt lat="43.52389" lon="6.32116">
        <ele>367.4</ele>
        <time>2023-09-15T12:01:54Z</time>
      </trkpt>
      <trkpt lat="43.5239" lon="6.32115">
        <ele>367.4</ele>
        <time>2023-09-15T12:01:55Z</time>
      </trkpt>
      <trkpt lat="43.5239" lon="6.32114">
        <ele>367.5</ele>
        <time>2023-09-15T12:01:56Z</time>
      </trkpt>
      <trkpt lat="43.5239" lon="6.32113">
        <ele>367.4</ele>
        <time>2023-09-15T12:01:57Z</time>
      </trkpt>
      <trkpt lat="43.52391" lon="6.32112">
        <ele>367.4</ele>
        <time>2023-09-15T12:01:58Z</time>
      </trkpt>
      <trkpt lat="43.52391" lon="6.32111">
        <ele>367.5</ele>
        <time>2023-09-15T12:01:59Z</time>
      </trkpt>
      <trkpt lat="43.52392" lon="6.32109">
        <ele>367.5</ele>
        <time>2023-09-15T12:02:00Z</time>
      </trkpt>
      <trkpt lat="43.52392" lon="6.32108">
        <ele>367.5</ele>
        <time>2023-09-15T12:02:01Z</time>
      </trkpt>
      <trkpt lat="43.52392" lon="6.32106">
        <ele>367.6</ele>
        <time>2023-09-15T12:02:02Z</time>
      </trkpt>
      <trkpt lat="43.52392" lon="6.32105">
        <ele>367.7</ele>
        <time>2023-09-15T12:02:03Z</time>
      </trkpt>
      <trkpt lat="43.52393" lon="6.32104">
        <ele>367.8</ele>
        <time>2023-09-15T12:02:04Z</time>
      </trkpt>
      <trkpt lat="43.52393" lon="6.32102">
        <ele>367.8</ele>
        <time>2023-09-15T12:02:05Z</time>
      </trkpt>
      <trkpt lat="43.52394" lon="6.32101">
        <ele>367.9</ele>
        <time>2023-09-15T12:02:06Z</time>
      </trkpt>
      <trkpt lat="43.52394" lon="6.321">
        <ele>368.2</ele>
        <time>2023-09-15T12:02:07Z</time>
      </trkpt>
      <trkpt lat="43.52394" lon="6.32099">
        <ele>368.2</ele>
        <time>2023-09-15T12:02:08Z</time>
      </trkpt>
      <trkpt lat="43.52394" lon="6.32099">
        <ele>368.2</ele>
        <time>2023-09-15T12:02:09Z</time>
      </trkpt>
      <trkpt lat="43.52394" lon="6.32098">
        <ele>368.3</ele>
        <time>2023-09-15T12:02:10Z</time>
      </trkpt>
      <trkpt lat="43.52395" lon="6.32096">
        <ele>368.3</ele>
        <time>2023-09-15T12:02:11Z</time>
      </trkpt>
      <trkpt lat="43.52396" lon="6.32096">
        <ele>368.2</ele>
        <time>2023-09-15T12:02:12Z</time>
      </trkpt>
      <trkpt lat="43.52397" lon="6.32094">
        <ele>368.3</ele>
        <time>2023-09-15T12:02:13Z</time>
      </trkpt>
      <trkpt lat="43.52398" lon="6.32094">
        <ele>368.3</ele>
        <time>2023-09-15T12:02:14Z</time>
      </trkpt>
      <trkpt lat="43.52398" lon="6.32093">
        <ele>368.4</ele>
        <time>2023-09-15T12:02:15Z</time>
      </trkpt>
      <trkpt lat="43.52398" lon="6.32091">
        <ele>368.4</ele>
        <time>2023-09-15T12:02:16Z</time>
      </trkpt>
      <trkpt lat="43.52399" lon="6.3209">
        <ele>368.5</ele>
        <time>2023-09-15T12:02:17Z</time>
      </trkpt>
      <trkpt lat="43.52399" lon="6.32089">
        <ele>368.5</ele>
        <time>2023-09-15T12:02:18Z</time>
      </trkpt>
      <trkpt lat="43.524" lon="6.32088">
        <ele>368.6</ele>
        <time>2023-09-15T12:02:19Z</time>
      </trkpt>
      <trkpt lat="43.524" lon="6.32087">
        <ele>368.6</ele>
        <time>2023-09-15T12:02:20Z</time>
      </trkpt>
      <trkpt lat="43.524" lon="6.32086">
        <ele>368.7</ele>
        <time>2023-09-15T12:02:21Z</time>
      </trkpt>
      <trkpt lat="43.52401" lon="6.32085">
        <ele>368.7</ele>
        <time>2023-09-15T12:02:22Z</time>
      </trkpt>
      <trkpt lat="43.52402" lon="6.32085">
        <ele>368.7</ele>
        <time>2023-09-15T12:02:23Z</time>
      </trkpt>
      <trkpt lat="43.52403" lon="6.32084">
        <ele>368.8</ele>
        <time>2023-09-15T12:02:24Z</time>
      </trkpt>
      <trkpt lat="43.52404" lon="6.32083">
        <ele>368.9</ele>
        <time>2023-09-15T12:02:25Z</time>
      </trkpt>
      <trkpt lat="43.52405" lon="6.32082">
        <ele>369</ele>
        <time>2023-09-15T12:02:26Z</time>
      </trkpt>
      <trkpt lat="43.52405" lon="6.32081">
        <ele>369</ele>
        <time>2023-09-15T12:02:27Z</time>
      </trkpt>
      <trkpt lat="43.52406" lon="6.3208">
        <ele>369</ele>
        <time>2023-09-15T12:02:28Z</time>
      </trkpt>
      <trkpt lat="43.52406" lon="6.32079">
        <ele>369</ele>
        <time>2023-09-15T12:02:29Z</time>
      </trkpt>
      <trkpt lat="43.52406" lon="6.32079">
        <ele>369.1</ele>
        <time>2023-09-15T12:02:30Z</time>
      </trkpt>
      <trkpt lat="43.52408" lon="6.32077">
        <ele>369.1</ele>
        <time>2023-09-15T12:02:31Z</time>
      </trkpt>
      <trkpt lat="43.52409" lon="6.32076">
        <ele>369.1</ele>
        <time>2023-09-15T12:02:32Z</time>
      </trkpt>
      <trkpt lat="43.52409" lon="6.32075">
        <ele>369.1</ele>
        <time>2023-09-15T12:02:33Z</time>
      </trkpt>
      <trkpt lat="43.5241" lon="6.32075">
        <ele>369.2</ele>
        <time>2023-09-15T12:02:34Z</time>
      </trkpt>
      <trkpt lat="43.52411" lon="6.32074">
        <ele>369.1</ele>
        <time>2023-09-15T12:02:35Z</time>
      </trkpt>
      <trkpt lat="43.52411" lon="6.32073">
        <ele>369.1</ele>
        <time>2023-09-15T12:02:36Z</time>
      </trkpt>
      <trkpt lat="43.52411" lon="6.32072">
        <ele>369.1</ele>
        <time>2023-09-15T12:02:37Z</time>
      </trkpt>
      <trkpt lat="43.52413" lon="6.3207">
        <ele>369.1</ele>
        <time>2023-09-15T12:02:38Z</time>
      </trkpt>
      <trkpt lat="43.52414" lon="6.32069">
        <ele>369.1</ele>
        <time>2023-09-15T12:02:39Z</time>
      </trkpt>
      <trkpt lat="43.52415" lon="6.32067">
        <ele>369.2</ele>
        <time>2023-09-15T12:02:40Z</time>
      </trkpt>
      <trkpt lat="43.52416" lon="6.32066">
        <ele>369.2</ele>
        <time>2023-09-15T12:02:41Z</time>
      </trkpt>
      <trkpt lat="43.52416" lon="6.32064">
        <ele>369.3</ele>
        <time>2023-09-15T12:02:42Z</time>
      </trkpt>
      <trkpt lat="43.52417" lon="6.32064">
        <ele>369.4</ele>
        <time>2023-09-15T12:02:43Z</time>
      </trkpt>
      <trkpt lat="43.52417" lon="6.32062">
        <ele>369.4</ele>
        <time>2023-09-15T12:02:44Z</time>
      </trkpt>
      <trkpt lat="43.52418" lon="6.32061">
        <ele>369.4</ele>
        <time>2023-09-15T12:02:45Z</time>
      </trkpt>
      <trkpt lat="43.52419" lon="6.3206">
        <ele>369.3</ele>
        <time>2023-09-15T12:02:46Z</time>
      </trkpt>
      <trkpt lat="43.5242" lon="6.32058">
        <ele>369.2</ele>
        <time>2023-09-15T12:02:47Z</time>
      </trkpt>
      <trkpt lat="43.52421" lon="6.32057">
        <ele>369.2</ele>
        <time>2023-09-15T12:02:48Z</time>
      </trkpt>
      <trkpt lat="43.52422" lon="6.32056">
        <ele>369.2</ele>
        <time>2023-09-15T12:02:49Z</time>
      </trkpt>
      <trkpt lat="43.52423" lon="6.32054">
        <ele>369.2</ele>
        <time>2023-09-15T12:02:50Z</time>
      </trkpt>
      <trkpt lat="43.52424" lon="6.32053">
        <ele>369.2</ele>
        <time>2023-09-15T12:02:51Z</time>
      </trkpt>
      <trkpt lat="43.52424" lon="6.32052">
        <ele>369.2</ele>
        <time>2023-09-15T12:02:52Z</time>
      </trkpt>
      <trkpt lat="43.52425" lon="6.32051">
        <ele>369.2</ele>
        <time>2023-09-15T12:02:53Z</time>
      </trkpt>
      <trkpt lat="43.52426" lon="6.3205">
        <ele>369.2</ele>
        <time>2023-09-15T12:02:54Z</time>
      </trkpt>
      <trkpt lat="43.52427" lon="6.32049">
        <ele>369.3</ele>
        <time>2023-09-15T12:02:55Z</time>
      </trkpt>
      <trkpt lat="43.52428" lon="6.32048">
        <ele>369.3</ele>
        <time>2023-09-15T12:02:56Z</time>
      </trkpt>
      <trkpt lat="43.52428" lon="6.32046">
        <ele>369.3</ele>
        <time>2023-09-15T12:02:57Z</time>
      </trkpt>
      <trkpt lat="43.52429" lon="6.32046">
        <ele>369.3</ele>
        <time>2023-09-15T12:02:58Z</time>
      </trkpt>
      <trkpt lat="43.5243" lon="6.32044">
        <ele>369.3</ele>
        <time>2023-09-15T12:02:59Z</time>
      </trkpt>
      <trkpt lat="43.5243" lon="6.32043">
        <ele>369.4</ele>
        <time>2023-09-15T12:03:00Z</time>
      </trkpt>
      <trkpt lat="43.52431" lon="6.32042">
        <ele>369.4</ele>
        <time>2023-09-15T12:03:01Z</time>
      </trkpt>
      <trkpt lat="43.52431" lon="6.32041">
        <ele>369.4</ele>
        <time>2023-09-15T12:03:02Z</time>
      </trkpt>
      <trkpt lat="43.52432" lon="6.3204">
        <ele>369.4</ele>
        <time>2023-09-15T12:03:03Z</time>
      </trkpt>
      <trkpt lat="43.52433" lon="6.3204">
        <ele>369.3</ele>
        <time>2023-09-15T12:03:04Z</time>
      </trkpt>
      <trkpt lat="43.52433" lon="6.32039">
        <ele>369.3</ele>
        <time>2023-09-15T12:03:05Z</time>
      </trkpt>
      <trkpt lat="43.52434" lon="6.32038">
        <ele>369.3</ele>
        <time>2023-09-15T12:03:06Z</time>
      </trkpt>
      <trkpt lat="43.52435" lon="6.32037">
        <ele>369.2</ele>
        <time>2023-09-15T12:03:07Z</time>
      </trkpt>
      <trkpt lat="43.52436" lon="6.32036">
        <ele>369.2</ele>
        <time>2023-09-15T12:03:08Z</time>
      </trkpt>
      <trkpt lat="43.52436" lon="6.32035">
        <ele>369.1</ele>
        <time>2023-09-15T12:03:09Z</time>
      </trkpt>
      <trkpt lat="43.52437" lon="6.32034">
        <ele>369.2</ele>
        <time>2023-09-15T12:03:10Z</time>
      </trkpt>
      <trkpt lat="43.52437" lon="6.32033">
        <ele>369.2</ele>
        <time>2023-09-15T12:03:11Z</time>
      </trkpt>
      <trkpt lat="43.52438" lon="6.32032">
        <ele>369.1</ele>
        <time>2023-09-15T12:03:12Z</time>
      </trkpt>
      <trkpt lat="43.52439" lon="6.3203">
        <ele>369</ele>
        <time>2023-09-15T12:03:13Z</time>
      </trkpt>
      <trkpt lat="43.52439" lon="6.32029">
        <ele>369</ele>
        <time>2023-09-15T12:03:14Z</time>
      </trkpt>
      <trkpt lat="43.52441" lon="6.32028">
        <ele>369</ele>
        <time>2023-09-15T12:03:15Z</time>
      </trkpt>
      <trkpt lat="43.52442" lon="6.32027">
        <ele>369</ele>
        <time>2023-09-15T12:03:16Z</time>
      </trkpt>
      <trkpt lat="43.52443" lon="6.32025">
        <ele>369</ele>
        <time>2023-09-15T12:03:17Z</time>
      </trkpt>
      <trkpt lat="43.52443" lon="6.32024">
        <ele>369</ele>
        <time>2023-09-15T12:03:18Z</time>
      </trkpt>
      <trkpt lat="43.52444" lon="6.32023">
        <ele>369</ele>
        <time>2023-09-15T12:03:19Z</time>
      </trkpt>
      <trkpt lat="43.52445" lon="6.32022">
        <ele>368.9</ele>
        <time>2023-09-15T12:03:20Z</time>
      </trkpt>
      <trkpt lat="43.52446" lon="6.32021">
        <ele>368.9</ele>
        <time>2023-09-15T12:03:21Z</time>
      </trkpt>
      <trkpt lat="43.52446" lon="6.3202">
        <ele>368.8</ele>
        <time>2023-09-15T12:03:22Z</time>
      </trkpt>
      <trkpt lat="43.52446" lon="6.32019">
        <ele>368.7</ele>
        <time>2023-09-15T12:03:23Z</time>
      </trkpt>
      <trkpt lat="43.52447" lon="6.32018">
        <ele>368.7</ele>
        <time>2023-09-15T12:03:24Z</time>
      </trkpt>
      <trkpt lat="43.52448" lon="6.32017">
        <ele>368.7</ele>
        <time>2023-09-15T12:03:25Z</time>
      </trkpt>
      <trkpt lat="43.5245" lon="6.32017">
        <ele>368.7</ele>
        <time>2023-09-15T12:03:26Z</time>
      </trkpt>
      <trkpt lat="43.5245" lon="6.32016">
        <ele>368.7</ele>
        <time>2023-09-15T12:03:27Z</time>
      </trkpt>
      <trkpt lat="43.5245" lon="6.32016">
        <ele>368.7</ele>
        <time>2023-09-15T12:03:28Z</time>
      </trkpt>
      <trkpt lat="43.52452" lon="6.32015">
        <ele>368.7</ele>
        <time>2023-09-15T12:03:29Z</time>
      </trkpt>
      <trkpt lat="43.52453" lon="6.32014">
        <ele>368.7</ele>
        <time>2023-09-15T12:03:30Z</time>
      </trkpt>
      <trkpt lat="43.52453" lon="6.32012">
        <ele>368.7</ele>
        <time>2023-09-15T12:03:31Z</time>
      </trkpt>
      <trkpt lat="43.52454" lon="6.32011">
        <ele>368.7</ele>
        <time>2023-09-15T12:03:32Z</time>
      </trkpt>
      <trkpt lat="43.52454" lon="6.3201">
        <ele>368.8</ele>
        <time>2023-09-15T12:03:33Z</time>
      </trkpt>
      <trkpt lat="43.52455" lon="6.32009">
        <ele>368.8</ele>
        <time>2023-09-15T12:03:34Z</time>
      </trkpt>
      <trkpt lat="43.52456" lon="6.32007">
        <ele>368.7</ele>
        <time>2023-09-15T12:03:35Z</time>
      </trkpt>
      <trkpt lat="43.52456" lon="6.32006">
        <ele>368.7</ele>
        <time>2023-09-15T12:03:36Z</time>
      </trkpt>
      <trkpt lat="43.52457" lon="6.32005">
        <ele>368.7</ele>
        <time>2023-09-15T12:03:37Z</time>
      </trkpt>
      <trkpt lat="43.52457" lon="6.32004">
        <ele>368.7</ele>
        <time>2023-09-15T12:03:38Z</time>
      </trkpt>
      <trkpt lat="43.52458" lon="6.32003">
        <ele>368.8</ele>
        <time>2023-09-15T12:03:39Z</time>
      </trkpt>
      <trkpt lat="43.52458" lon="6.32003">
        <ele>368.8</ele>
        <time>2023-09-15T12:03:40Z</time>
      </trkpt>
      <trkpt lat="43.52459" lon="6.32002">
        <ele>368.9</ele>
        <time>2023-09-15T12:03:41Z</time>
      </trkpt>
      <trkpt lat="43.5246" lon="6.32001">
        <ele>369</ele>
        <time>2023-09-15T12:03:42Z</time>
      </trkpt>
      <trkpt lat="43.5246" lon="6.32">
        <ele>369.1</ele>
        <time>2023-09-15T12:03:43Z</time>
      </trkpt>
      <trkpt lat="43.52461" lon="6.31999">
        <ele>369.2</ele>
        <time>2023-09-15T12:03:44Z</time>
      </trkpt>
      <trkpt lat="43.52462" lon="6.31998">
        <ele>369.2</ele>
        <time>2023-09-15T12:03:45Z</time>
      </trkpt>
      <trkpt lat="43.52463" lon="6.31997">
        <ele>369.2</ele>
        <time>2023-09-15T12:03:46Z</time>
      </trkpt>
      <trkpt lat="43.52463" lon="6.31996">
        <ele>369.3</ele>
        <time>2023-09-15T12:03:47Z</time>
      </trkpt>
      <trkpt lat="43.52464" lon="6.31996">
        <ele>369.3</ele>
        <time>2023-09-15T12:03:48Z</time>
      </trkpt>
      <trkpt lat="43.52465" lon="6.31994">
        <ele>369.3</ele>
        <time>2023-09-15T12:03:49Z</time>
      </trkpt>
      <trkpt lat="43.52465" lon="6.31993">
        <ele>369.3</ele>
        <time>2023-09-15T12:03:50Z</time>
      </trkpt>
      <trkpt lat="43.52466" lon="6.31992">
        <ele>369.3</ele>
        <time>2023-09-15T12:03:51Z</time>
      </trkpt>
      <trkpt lat="43.52467" lon="6.3199">
        <ele>369.2</ele>
        <time>2023-09-15T12:03:52Z</time>
      </trkpt>
      <trkpt lat="43.52467" lon="6.31989">
        <ele>369.2</ele>
        <time>2023-09-15T12:03:53Z</time>
      </trkpt>
      <trkpt lat="43.52468" lon="6.31987">
        <ele>369.1</ele>
        <time>2023-09-15T12:03:54Z</time>
      </trkpt>
      <trkpt lat="43.52468" lon="6.31985">
        <ele>369.1</ele>
        <time>2023-09-15T12:03:55Z</time>
      </trkpt>
      <trkpt lat="43.52469" lon="6.31984">
        <ele>369.1</ele>
        <time>2023-09-15T12:03:56Z</time>
      </trkpt>
      <trkpt lat="43.52469" lon="6.31982">
        <ele>369</ele>
        <time>2023-09-15T12:03:57Z</time>
      </trkpt>
      <trkpt lat="43.5247" lon="6.31981">
        <ele>369</ele>
        <time>2023-09-15T12:03:58Z</time>
      </trkpt>
      <trkpt lat="43.5247" lon="6.31979">
        <ele>368.9</ele>
        <time>2023-09-15T12:03:59Z</time>
      </trkpt>
      <trkpt lat="43.5247" lon="6.31977">
        <ele>368.8</ele>
        <time>2023-09-15T12:04:00Z</time>
      </trkpt>
      <trkpt lat="43.5247" lon="6.31976">
        <ele>368.8</ele>
        <time>2023-09-15T12:04:01Z</time>
      </trkpt>
      <trkpt lat="43.5247" lon="6.31975">
        <ele>368.9</ele>
        <time>2023-09-15T12:04:02Z</time>
      </trkpt>
      <trkpt lat="43.52471" lon="6.31973">
        <ele>368.9</ele>
        <time>2023-09-15T12:04:03Z</time>
      </trkpt>
      <trkpt lat="43.52471" lon="6.31972">
        <ele>368.9</ele>
        <time>2023-09-15T12:04:04Z</time>
      </trkpt>
      <trkpt lat="43.52472" lon="6.3197">
        <ele>368.9</ele>
        <time>2023-09-15T12:04:05Z</time>
      </trkpt>
      <trkpt lat="43.52472" lon="6.31969">
        <ele>368.9</ele>
        <time>2023-09-15T12:04:06Z</time>
      </trkpt>
      <trkpt lat="43.52473" lon="6.31967">
        <ele>368.9</ele>
        <time>2023-09-15T12:04:07Z</time>
      </trkpt>
      <trkpt lat="43.52473" lon="6.31965">
        <ele>368.8</ele>
        <time>2023-09-15T12:04:08Z</time>
      </trkpt>
      <trkpt lat="43.52474" lon="6.31964">
        <ele>368.8</ele>
        <time>2023-09-15T12:04:09Z</time>
      </trkpt>
      <trkpt lat="43.52476" lon="6.31964">
        <ele>368.7</ele>
        <time>2023-09-15T12:04:10Z</time>
      </trkpt>
      <trkpt lat="43.52477" lon="6.31962">
        <ele>368.9</ele>
        <time>2023-09-15T12:04:11Z</time>
      </trkpt>
      <trkpt lat="43.52477" lon="6.31961">
        <ele>368.9</ele>
        <time>2023-09-15T12:04:12Z</time>
      </trkpt>
      <trkpt lat="43.52478" lon="6.3196">
        <ele>369</ele>
        <time>2023-09-15T12:04:13Z</time>
      </trkpt>
      <trkpt lat="43.52479" lon="6.31959">
        <ele>369.1</ele>
        <time>2023-09-15T12:04:14Z</time>
      </trkpt>
      <trkpt lat="43.52479" lon="6.31958">
        <ele>369.1</ele>
        <time>2023-09-15T12:04:15Z</time>
      </trkpt>
      <trkpt lat="43.5248" lon="6.31957">
        <ele>369.1</ele>
        <time>2023-09-15T12:04:16Z</time>
      </trkpt>
      <trkpt lat="43.52481" lon="6.31956">
        <ele>369.1</ele>
        <time>2023-09-15T12:04:17Z</time>
      </trkpt>
      <trkpt lat="43.52482" lon="6.31956">
        <ele>369.1</ele>
        <time>2023-09-15T12:04:18Z</time>
      </trkpt>
      <trkpt lat="43.52482" lon="6.31954">
        <ele>369.1</ele>
        <time>2023-09-15T12:04:19Z</time>
      </trkpt>
      <trkpt lat="43.52482" lon="6.31953">
        <ele>369.1</ele>
        <time>2023-09-15T12:04:20Z</time>
      </trkpt>
      <trkpt lat="43.52483" lon="6.31951">
        <ele>369.1</ele>
        <time>2023-09-15T12:04:21Z</time>
      </trkpt>
      <trkpt lat="43.52484" lon="6.3195">
        <ele>369.2</ele>
        <time>2023-09-15T12:04:22Z</time>
      </trkpt>
      <trkpt lat="43.52485" lon="6.31949">
        <ele>369.3</ele>
        <time>2023-09-15T12:04:23Z</time>
      </trkpt>
      <trkpt lat="43.52485" lon="6.31948">
        <ele>369.3</ele>
        <time>2023-09-15T12:04:24Z</time>
      </trkpt>
      <trkpt lat="43.52485" lon="6.31947">
        <ele>369.4</ele>
        <time>2023-09-15T12:04:25Z</time>
      </trkpt>
      <trkpt lat="43.52486" lon="6.31945">
        <ele>369.4</ele>
        <time>2023-09-15T12:04:26Z</time>
      </trkpt>
      <trkpt lat="43.52487" lon="6.31944">
        <ele>369.4</ele>
        <time>2023-09-15T12:04:27Z</time>
      </trkpt>
      <trkpt lat="43.52488" lon="6.31943">
        <ele>369.4</ele>
        <time>2023-09-15T12:04:28Z</time>
      </trkpt>
      <trkpt lat="43.52488" lon="6.31942">
        <ele>369</ele>
        <time>2023-09-15T12:04:29Z</time>
      </trkpt>
      <trkpt lat="43.52488" lon="6.3194">
        <ele>369</ele>
        <time>2023-09-15T12:04:30Z</time>
      </trkpt>
      <trkpt lat="43.52489" lon="6.31939">
        <ele>369.1</ele>
        <time>2023-09-15T12:04:31Z</time>
      </trkpt>
      <trkpt lat="43.5249" lon="6.31938">
        <ele>369.2</ele>
        <time>2023-09-15T12:04:32Z</time>
      </trkpt>
      <trkpt lat="43.5249" lon="6.31937">
        <ele>369.3</ele>
        <time>2023-09-15T12:04:33Z</time>
      </trkpt>
      <trkpt lat="43.5249" lon="6.31936">
        <ele>369.3</ele>
        <time>2023-09-15T12:04:34Z</time>
      </trkpt>
      <trkpt lat="43.5249" lon="6.31934">
        <ele>369.4</ele>
        <time>2023-09-15T12:04:35Z</time>
      </trkpt>
      <trkpt lat="43.52491" lon="6.31933">
        <ele>369.4</ele>
        <time>2023-09-15T12:04:36Z</time>
      </trkpt>
      <trkpt lat="43.52492" lon="6.31932">
        <ele>369.3</ele>
        <time>2023-09-15T12:04:37Z</time>
      </trkpt>
      <trkpt lat="43.52492" lon="6.31931">
        <ele>369.3</ele>
        <time>2023-09-15T12:04:38Z</time>
      </trkpt>
      <trkpt lat="43.52493" lon="6.3193">
        <ele>369.4</ele>
        <time>2023-09-15T12:04:39Z</time>
      </trkpt>
      <trkpt lat="43.52493" lon="6.31928">
        <ele>369.4</ele>
        <time>2023-09-15T12:04:40Z</time>
      </trkpt>
      <trkpt lat="43.52494" lon="6.31927">
        <ele>369.5</ele>
        <time>2023-09-15T12:04:41Z</time>
      </trkpt>
      <trkpt lat="43.52494" lon="6.31925">
        <ele>369.6</ele>
        <time>2023-09-15T12:04:42Z</time>
      </trkpt>
      <trkpt lat="43.52494" lon="6.31923">
        <ele>369.6</ele>
        <time>2023-09-15T12:04:43Z</time>
      </trkpt>
      <trkpt lat="43.52495" lon="6.31922">
        <ele>369.5</ele>
        <time>2023-09-15T12:04:44Z</time>
      </trkpt>
      <trkpt lat="43.52496" lon="6.31921">
        <ele>369.6</ele>
        <time>2023-09-15T12:04:45Z</time>
      </trkpt>
      <trkpt lat="43.52496" lon="6.3192">
        <ele>369.6</ele>
        <time>2023-09-15T12:04:46Z</time>
      </trkpt>
      <trkpt lat="43.52496" lon="6.31919">
        <ele>369.6</ele>
        <time>2023-09-15T12:04:47Z</time>
      </trkpt>
      <trkpt lat="43.52496" lon="6.31917">
        <ele>369.6</ele>
        <time>2023-09-15T12:04:48Z</time>
      </trkpt>
      <trkpt lat="43.52497" lon="6.31916">
        <ele>369.7</ele>
        <time>2023-09-15T12:04:49Z</time>
      </trkpt>
      <trkpt lat="43.52498" lon="6.31914">
        <ele>369.6</ele>
        <time>2023-09-15T12:04:50Z</time>
      </trkpt>
      <trkpt lat="43.52498" lon="6.31913">
        <ele>369.6</ele>
        <time>2023-09-15T12:04:51Z</time>
      </trkpt>
      <trkpt lat="43.52499" lon="6.31911">
        <ele>369.6</ele>
        <time>2023-09-15T12:04:52Z</time>
      </trkpt>
      <trkpt lat="43.52499" lon="6.3191">
        <ele>369.5</ele>
        <time>2023-09-15T12:04:53Z</time>
      </trkpt>
      <trkpt lat="43.52499" lon="6.31909">
        <ele>369.6</ele>
        <time>2023-09-15T12:04:54Z</time>
      </trkpt>
      <trkpt lat="43.525" lon="6.31908">
        <ele>369.6</ele>
        <time>2023-09-15T12:04:55Z</time>
      </trkpt>
      <trkpt lat="43.525" lon="6.31907">
        <ele>369.5</ele>
        <time>2023-09-15T12:04:56Z</time>
      </trkpt>
      <trkpt lat="43.52501" lon="6.31906">
        <ele>369.5</ele>
        <time>2023-09-15T12:04:57Z</time>
      </trkpt>
      <trkpt lat="43.52502" lon="6.31905">
        <ele>369.6</ele>
        <time>2023-09-15T12:04:58Z</time>
      </trkpt>
      <trkpt lat="43.52502" lon="6.31904">
        <ele>369.6</ele>
        <time>2023-09-15T12:04:59Z</time>
      </trkpt>
      <trkpt lat="43.52503" lon="6.31902">
        <ele>369.6</ele>
        <time>2023-09-15T12:05:00Z</time>
      </trkpt>
      <trkpt lat="43.52504" lon="6.31901">
        <ele>369.6</ele>
        <time>2023-09-15T12:05:01Z</time>
      </trkpt>
      <trkpt lat="43.52504" lon="6.319">
        <ele>369.6</ele>
        <time>2023-09-15T12:05:02Z</time>
      </trkpt>
      <trkpt lat="43.52505" lon="6.31899">
        <ele>369.7</ele>
        <time>2023-09-15T12:05:03Z</time>
      </trkpt>
      <trkpt lat="43.52506" lon="6.31898">
        <ele>369.6</ele>
        <time>2023-09-15T12:05:04Z</time>
      </trkpt>
      <trkpt lat="43.52506" lon="6.31897">
        <ele>369.5</ele>
        <time>2023-09-15T12:05:05Z</time>
      </trkpt>
      <trkpt lat="43.52507" lon="6.31896">
        <ele>369.4</ele>
        <time>2023-09-15T12:05:06Z</time>
      </trkpt>
      <trkpt lat="43.52507" lon="6.31895">
        <ele>369.4</ele>
        <time>2023-09-15T12:05:07Z</time>
      </trkpt>
      <trkpt lat="43.52508" lon="6.31894">
        <ele>369.3</ele>
        <time>2023-09-15T12:05:08Z</time>
      </trkpt>
      <trkpt lat="43.52508" lon="6.31894">
        <ele>369.2</ele>
        <time>2023-09-15T12:05:09Z</time>
      </trkpt>
      <trkpt lat="43.52508" lon="6.31894">
        <ele>369.2</ele>
        <time>2023-09-15T12:05:10Z</time>
      </trkpt>
      <trkpt lat="43.52508" lon="6.31894">
        <ele>369.1</ele>
        <time>2023-09-15T12:05:11Z</time>
      </trkpt>
      <trkpt lat="43.52508" lon="6.31894">
        <ele>369.2</ele>
        <time>2023-09-15T12:05:12Z</time>
      </trkpt>
      <trkpt lat="43.52508" lon="6.31894">
        <ele>369.2</ele>
        <time>2023-09-15T12:05:13Z</time>
      </trkpt>
      <trkpt lat="43.52508" lon="6.31894">
        <ele>369.2</ele>
        <time>2023-09-15T12:05:14Z</time>
      </trkpt>
      <trkpt lat="43.52508" lon="6.31894">
        <ele>369.2</ele>
        <time>2023-09-15T12:05:15Z</time>
      </trkpt>
      <trkpt lat="43.52508" lon="6.31894">
        <ele>369.2</ele>
        <time>2023-09-15T12:05:16Z</time>
      </trkpt>
      <trkpt lat="43.52508" lon="6.31894">
        <ele>369.2</ele>
        <time>2023-09-15T12:05:17Z</time>
      </trkpt>
      <trkpt lat="43.52507" lon="6.31894">
        <ele>369.2</ele>
        <time>2023-09-15T12:05:18Z</time>
      </trkpt>
      <trkpt lat="43.52507" lon="6.31894">
        <ele>369.3</ele>
        <time>2023-09-15T12:05:19Z</time>
      </trkpt>
      <trkpt lat="43.52507" lon="6.31895">
        <ele>369.3</ele>
        <time>2023-09-15T12:05:20Z</time>
      </trkpt>
      <trkpt lat="43.52507" lon="6.31895">
        <ele>369.3</ele>
        <time>2023-09-15T12:05:21Z</time>
      </trkpt>
      <trkpt lat="43.52507" lon="6.31895">
        <ele>369.3</ele>
        <time>2023-09-15T12:05:22Z</time>
      </trkpt>
      <trkpt lat="43.52507" lon="6.31895">
        <ele>369.3</ele>
        <time>2023-09-15T12:05:23Z</time>
      </trkpt>
      <trkpt lat="43.52507" lon="6.31895">
        <ele>369.3</ele>
        <time>2023-09-15T12:05:24Z</time>
      </trkpt>
      <trkpt lat="43.52506" lon="6.31895">
        <ele>369.4</ele>
        <time>2023-09-15T12:05:25Z</time>
      </trkpt>
      <trkpt lat="43.52506" lon="6.31895">
        <ele>369.4</ele>
        <time>2023-09-15T12:05:26Z</time>
      </trkpt>
      <trkpt lat="43.52506" lon="6.31895">
        <ele>369.3</ele>
        <time>2023-09-15T12:05:27Z</time>
      </trkpt>
      <trkpt lat="43.52505" lon="6.31895">
        <ele>369.3</ele>
        <time>2023-09-15T12:05:28Z</time>
      </trkpt>
      <trkpt lat="43.52505" lon="6.31895">
        <ele>369.4</ele>
        <time>2023-09-15T12:05:29Z</time>
      </trkpt>
      <trkpt lat="43.52505" lon="6.31896">
        <ele>369.3</ele>
        <time>2023-09-15T12:05:30Z</time>
      </trkpt>
      <trkpt lat="43.52505" lon="6.31896">
        <ele>369.3</ele>
        <time>2023-09-15T12:05:31Z</time>
      </trkpt>
      <trkpt lat="43.52504" lon="6.31896">
        <ele>369.3</ele>
        <time>2023-09-15T12:05:32Z</time>
      </trkpt>
      <trkpt lat="43.52504" lon="6.31896">
        <ele>369.3</ele>
        <time>2023-09-15T12:05:33Z</time>
      </trkpt>
      <trkpt lat="43.52504" lon="6.31896">
        <ele>369.3</ele>
        <time>2023-09-15T12:05:34Z</time>
      </trkpt>
      <trkpt lat="43.52504" lon="6.31896">
        <ele>369.3</ele>
        <time>2023-09-15T12:05:35Z</time>
      </trkpt>
      <trkpt lat="43.52504" lon="6.31896">
        <ele>369.2</ele>
        <time>2023-09-15T12:05:36Z</time>
      </trkpt>
      <trkpt lat="43.52504" lon="6.31897">
        <ele>369.2</ele>
        <time>2023-09-15T12:05:37Z</time>
      </trkpt>
      <trkpt lat="43.52504" lon="6.31897">
        <ele>369.2</ele>
        <time>2023-09-15T12:05:38Z</time>
      </trkpt>
      <trkpt lat="43.52504" lon="6.31897">
        <ele>369.1</ele>
        <time>2023-09-15T12:05:39Z</time>
      </trkpt>
      <trkpt lat="43.52504" lon="6.31897">
        <ele>369.1</ele>
        <time>2023-09-15T12:05:40Z</time>
      </trkpt>
      <trkpt lat="43.52504" lon="6.31897">
        <ele>369</ele>
        <time>2023-09-15T12:05:41Z</time>
      </trkpt>
      <trkpt lat="43.52504" lon="6.31897">
        <ele>368.9</ele>
        <time>2023-09-15T12:05:42Z</time>
      </trkpt>
      <trkpt lat="43.52503" lon="6.31897">
        <ele>369</ele>
        <time>2023-09-15T12:05:43Z</time>
      </trkpt>
      <trkpt lat="43.52503" lon="6.31897">
        <ele>369</ele>
        <time>2023-09-15T12:05:44Z</time>
      </trkpt>
      <trkpt lat="43.52503" lon="6.31897">
        <ele>368.9</ele>
        <time>2023-09-15T12:05:45Z</time>
      </trkpt>
      <trkpt lat="43.52503" lon="6.31898">
        <ele>368.9</ele>
        <time>2023-09-15T12:05:46Z</time>
      </trkpt>
      <trkpt lat="43.52503" lon="6.31898">
        <ele>369</ele>
        <time>2023-09-15T12:05:47Z</time>
      </trkpt>
      <trkpt lat="43.52503" lon="6.31898">
        <ele>369</ele>
        <time>2023-09-15T12:05:48Z</time>
      </trkpt>
      <trkpt lat="43.52503" lon="6.31898">
        <ele>369.1</ele>
        <time>2023-09-15T12:05:49Z</time>
      </trkpt>
      <trkpt lat="43.52503" lon="6.31898">
        <ele>369.1</ele>
        <time>2023-09-15T12:05:50Z</time>
      </trkpt>
      <trkpt lat="43.52503" lon="6.31898">
        <ele>369.2</ele>
        <time>2023-09-15T12:05:51Z</time>
      </trkpt>
      <trkpt lat="43.52503" lon="6.31898">
        <ele>369.2</ele>
        <time>2023-09-15T12:05:52Z</time>
      </trkpt>
      <trkpt lat="43.52503" lon="6.31898">
        <ele>369.3</ele>
        <time>2023-09-15T12:05:53Z</time>
      </trkpt>
      <trkpt lat="43.52503" lon="6.31898">
        <ele>369.3</ele>
        <time>2023-09-15T12:05:54Z</time>
      </trkpt>
      <trkpt lat="43.52503" lon="6.31898">
        <ele>369.4</ele>
        <time>2023-09-15T12:05:55Z</time>
      </trkpt>
      <trkpt lat="43.52502" lon="6.31898">
        <ele>369.4</ele>
        <time>2023-09-15T12:05:56Z</time>
      </trkpt>
      <trkpt lat="43.52502" lon="6.31899">
        <ele>369.3</ele>
        <time>2023-09-15T12:05:57Z</time>
      </trkpt>
      <trkpt lat="43.52502" lon="6.31899">
        <ele>369.1</ele>
        <time>2023-09-15T12:05:58Z</time>
      </trkpt>
      <trkpt lat="43.52502" lon="6.31899">
        <ele>369.1</ele>
        <time>2023-09-15T12:05:59Z</time>
      </trkpt>
      <trkpt lat="43.52502" lon="6.31899">
        <ele>369</ele>
        <time>2023-09-15T12:06:00Z</time>
      </trkpt>
      <trkpt lat="43.52502" lon="6.31899">
        <ele>369</ele>
        <time>2023-09-15T12:06:01Z</time>
      </trkpt>
      <trkpt lat="43.52503" lon="6.31899">
        <ele>369</ele>
        <time>2023-09-15T12:06:02Z</time>
      </trkpt>
      <trkpt lat="43.52503" lon="6.31899">
        <ele>369</ele>
        <time>2023-09-15T12:06:03Z</time>
      </trkpt>
      <trkpt lat="43.52503" lon="6.31899">
        <ele>369</ele>
        <time>2023-09-15T12:06:04Z</time>
      </trkpt>
      <trkpt lat="43.52503" lon="6.31899">
        <ele>369</ele>
        <time>2023-09-15T12:06:05Z</time>
      </trkpt>
      <trkpt lat="43.52503" lon="6.31899">
        <ele>369.1</ele>
        <time>2023-09-15T12:06:06Z</time>
      </trkpt>
      <trkpt lat="43.52502" lon="6.319">
        <ele>369.1</ele>
        <time>2023-09-15T12:06:07Z</time>
      </trkpt>
      <trkpt lat="43.52502" lon="6.319">
        <ele>369.2</ele>
        <time>2023-09-15T12:06:08Z</time>
      </trkpt>
      <trkpt lat="43.52502" lon="6.319">
        <ele>369.3</ele>
        <time>2023-09-15T12:06:09Z</time>
      </trkpt>
      <trkpt lat="43.52502" lon="6.319">
        <ele>369.4</ele>
        <time>2023-09-15T12:06:10Z</time>
      </trkpt>
      <trkpt lat="43.52501" lon="6.319">
        <ele>369.4</ele>
        <time>2023-09-15T12:06:11Z</time>
      </trkpt>
      <trkpt lat="43.52501" lon="6.319">
        <ele>369.5</ele>
        <time>2023-09-15T12:06:12Z</time>
      </trkpt>
      <trkpt lat="43.52501" lon="6.319">
        <ele>369.6</ele>
        <time>2023-09-15T12:06:13Z</time>
      </trkpt>
      <trkpt lat="43.52501" lon="6.319">
        <ele>369.7</ele>
        <time>2023-09-15T12:06:14Z</time>
      </trkpt>
      <trkpt lat="43.52501" lon="6.319">
        <ele>369.7</ele>
        <time>2023-09-15T12:06:15Z</time>
      </trkpt>
      <trkpt lat="43.52501" lon="6.319">
        <ele>369.7</ele>
        <time>2023-09-15T12:06:16Z</time>
      </trkpt>
      <trkpt lat="43.52501" lon="6.31899">
        <ele>369.6</ele>
        <time>2023-09-15T12:06:17Z</time>
      </trkpt>
      <trkpt lat="43.52501" lon="6.31899">
        <ele>369.5</ele>
        <time>2023-09-15T12:06:18Z</time>
      </trkpt>
      <trkpt lat="43.52501" lon="6.31899">
        <ele>369.4</ele>
        <time>2023-09-15T12:06:19Z</time>
      </trkpt>
      <trkpt lat="43.52502" lon="6.31898">
        <ele>369.3</ele>
        <time>2023-09-15T12:06:20Z</time>
      </trkpt>
      <trkpt lat="43.52502" lon="6.31897">
        <ele>369.4</ele>
        <time>2023-09-15T12:06:21Z</time>
      </trkpt>
      <trkpt lat="43.52503" lon="6.31896">
        <ele>369.4</ele>
        <time>2023-09-15T12:06:22Z</time>
      </trkpt>
      <trkpt lat="43.52504" lon="6.31895">
        <ele>369.4</ele>
        <time>2023-09-15T12:06:23Z</time>
      </trkpt>
      <trkpt lat="43.52504" lon="6.31894">
        <ele>369.4</ele>
        <time>2023-09-15T12:06:24Z</time>
      </trkpt>
      <trkpt lat="43.52504" lon="6.31893">
        <ele>369.4</ele>
        <time>2023-09-15T12:06:25Z</time>
      </trkpt>
      <trkpt lat="43.52505" lon="6.31891">
        <ele>369.5</ele>
        <time>2023-09-15T12:06:26Z</time>
      </trkpt>
      <trkpt lat="43.52507" lon="6.3189">
        <ele>369.5</ele>
        <time>2023-09-15T12:06:27Z</time>
      </trkpt>
      <trkpt lat="43.52508" lon="6.31888">
        <ele>369.5</ele>
        <time>2023-09-15T12:06:28Z</time>
      </trkpt>
      <trkpt lat="43.52509" lon="6.31887">
        <ele>369.5</ele>
        <time>2023-09-15T12:06:29Z</time>
      </trkpt>
      <trkpt lat="43.52509" lon="6.31886">
        <ele>369.4</ele>
        <time>2023-09-15T12:06:30Z</time>
      </trkpt>
      <trkpt lat="43.52509" lon="6.31884">
        <ele>369.4</ele>
        <time>2023-09-15T12:06:31Z</time>
      </trkpt>
      <trkpt lat="43.5251" lon="6.31884">
        <ele>369.4</ele>
        <time>2023-09-15T12:06:32Z</time>
      </trkpt>
      <trkpt lat="43.52511" lon="6.31883">
        <ele>369.4</ele>
        <time>2023-09-15T12:06:33Z</time>
      </trkpt>
      <trkpt lat="43.52512" lon="6.31882">
        <ele>369.4</ele>
        <time>2023-09-15T12:06:34Z</time>
      </trkpt>
      <trkpt lat="43.52513" lon="6.3188">
        <ele>369.4</ele>
        <time>2023-09-15T12:06:35Z</time>
      </trkpt>
      <trkpt lat="43.52515" lon="6.31879">
        <ele>369.4</ele>
        <time>2023-09-15T12:06:36Z</time>
      </trkpt>
      <trkpt lat="43.52515" lon="6.31878">
        <ele>369.4</ele>
        <time>2023-09-15T12:06:37Z</time>
      </trkpt>
      <trkpt lat="43.52516" lon="6.31877">
        <ele>369.5</ele>
        <time>2023-09-15T12:06:38Z</time>
      </trkpt>
      <trkpt lat="43.52517" lon="6.31876">
        <ele>369.5</ele>
        <time>2023-09-15T12:06:39Z</time>
      </trkpt>
      <trkpt lat="43.52517" lon="6.31876">
        <ele>369.5</ele>
        <time>2023-09-15T12:06:40Z</time>
      </trkpt>
      <trkpt lat="43.52518" lon="6.31875">
        <ele>369.5</ele>
        <time>2023-09-15T12:06:41Z</time>
      </trkpt>
      <trkpt lat="43.52519" lon="6.31874">
        <ele>369.5</ele>
        <time>2023-09-15T12:06:42Z</time>
      </trkpt>
      <trkpt lat="43.5252" lon="6.31874">
        <ele>369.5</ele>
        <time>2023-09-15T12:06:43Z</time>
      </trkpt>
      <trkpt lat="43.5252" lon="6.31873">
        <ele>369.5</ele>
        <time>2023-09-15T12:06:44Z</time>
      </trkpt>
      <trkpt lat="43.5252" lon="6.31872">
        <ele>369.5</ele>
        <time>2023-09-15T12:06:45Z</time>
      </trkpt>
      <trkpt lat="43.52521" lon="6.3187">
        <ele>369.6</ele>
        <time>2023-09-15T12:06:46Z</time>
      </trkpt>
      <trkpt lat="43.52521" lon="6.31869">
        <ele>369.6</ele>
        <time>2023-09-15T12:06:47Z</time>
      </trkpt>
      <trkpt lat="43.52522" lon="6.31868">
        <ele>369.5</ele>
        <time>2023-09-15T12:06:48Z</time>
      </trkpt>
      <trkpt lat="43.52523" lon="6.31868">
        <ele>369.5</ele>
        <time>2023-09-15T12:06:49Z</time>
      </trkpt>
      <trkpt lat="43.52524" lon="6.31867">
        <ele>369.5</ele>
        <time>2023-09-15T12:06:50Z</time>
      </trkpt>
      <trkpt lat="43.52525" lon="6.31865">
        <ele>369.4</ele>
        <time>2023-09-15T12:06:51Z</time>
      </trkpt>
      <trkpt lat="43.52525" lon="6.31864">
        <ele>369.4</ele>
        <time>2023-09-15T12:06:52Z</time>
      </trkpt>
      <trkpt lat="43.52526" lon="6.31863">
        <ele>369.3</ele>
        <time>2023-09-15T12:06:53Z</time>
      </trkpt>
      <trkpt lat="43.52526" lon="6.31862">
        <ele>369.2</ele>
        <time>2023-09-15T12:06:54Z</time>
      </trkpt>
      <trkpt lat="43.52527" lon="6.31861">
        <ele>369.1</ele>
        <time>2023-09-15T12:06:55Z</time>
      </trkpt>
      <trkpt lat="43.52527" lon="6.31859">
        <ele>369.1</ele>
        <time>2023-09-15T12:06:56Z</time>
      </trkpt>
      <trkpt lat="43.52527" lon="6.31858">
        <ele>369</ele>
        <time>2023-09-15T12:06:57Z</time>
      </trkpt>
      <trkpt lat="43.52528" lon="6.31857">
        <ele>369</ele>
        <time>2023-09-15T12:06:58Z</time>
      </trkpt>
      <trkpt lat="43.52529" lon="6.31855">
        <ele>369</ele>
        <time>2023-09-15T12:06:59Z</time>
      </trkpt>
      <trkpt lat="43.5253" lon="6.31854">
        <ele>369</ele>
        <time>2023-09-15T12:07:00Z</time>
      </trkpt>
      <trkpt lat="43.52532" lon="6.31853">
        <ele>369</ele>
        <time>2023-09-15T12:07:01Z</time>
      </trkpt>
      <trkpt lat="43.52532" lon="6.31852">
        <ele>369</ele>
        <time>2023-09-15T12:07:02Z</time>
      </trkpt>
      <trkpt lat="43.52533" lon="6.3185">
        <ele>369.1</ele>
        <time>2023-09-15T12:07:03Z</time>
      </trkpt>
      <trkpt lat="43.52534" lon="6.31848">
        <ele>369.1</ele>
        <time>2023-09-15T12:07:04Z</time>
      </trkpt>
      <trkpt lat="43.52535" lon="6.31848">
        <ele>369.1</ele>
        <time>2023-09-15T12:07:05Z</time>
      </trkpt>
      <trkpt lat="43.52536" lon="6.31847">
        <ele>369.1</ele>
        <time>2023-09-15T12:07:06Z</time>
      </trkpt>
      <trkpt lat="43.52536" lon="6.31846">
        <ele>369.1</ele>
        <time>2023-09-15T12:07:07Z</time>
      </trkpt>
      <trkpt lat="43.52537" lon="6.31844">
        <ele>369</ele>
        <time>2023-09-15T12:07:08Z</time>
      </trkpt>
      <trkpt lat="43.52537" lon="6.31843">
        <ele>368.9</ele>
        <time>2023-09-15T12:07:09Z</time>
      </trkpt>
      <trkpt lat="43.52537" lon="6.31841">
        <ele>368.9</ele>
        <time>2023-09-15T12:07:10Z</time>
      </trkpt>
      <trkpt lat="43.52538" lon="6.3184">
        <ele>368.9</ele>
        <time>2023-09-15T12:07:11Z</time>
      </trkpt>
      <trkpt lat="43.52538" lon="6.31839">
        <ele>368.9</ele>
        <time>2023-09-15T12:07:12Z</time>
      </trkpt>
      <trkpt lat="43.52538" lon="6.31838">
        <ele>369</ele>
        <time>2023-09-15T12:07:13Z</time>
      </trkpt>
      <trkpt lat="43.52538" lon="6.31837">
        <ele>369</ele>
        <time>2023-09-15T12:07:14Z</time>
      </trkpt>
      <trkpt lat="43.52539" lon="6.31836">
        <ele>368.9</ele>
        <time>2023-09-15T12:07:15Z</time>
      </trkpt>
      <trkpt lat="43.5254" lon="6.31835">
        <ele>368.9</ele>
        <time>2023-09-15T12:07:16Z</time>
      </trkpt>
      <trkpt lat="43.5254" lon="6.31834">
        <ele>368.9</ele>
        <time>2023-09-15T12:07:17Z</time>
      </trkpt>
      <trkpt lat="43.5254" lon="6.31833">
        <ele>368.9</ele>
        <time>2023-09-15T12:07:18Z</time>
      </trkpt>
      <trkpt lat="43.52541" lon="6.31832">
        <ele>368.9</ele>
        <time>2023-09-15T12:07:19Z</time>
      </trkpt>
      <trkpt lat="43.52541" lon="6.3183">
        <ele>368.9</ele>
        <time>2023-09-15T12:07:20Z</time>
      </trkpt>
      <trkpt lat="43.52542" lon="6.31829">
        <ele>368.8</ele>
        <time>2023-09-15T12:07:21Z</time>
      </trkpt>
      <trkpt lat="43.52542" lon="6.31829">
        <ele>368.8</ele>
        <time>2023-09-15T12:07:22Z</time>
      </trkpt>
      <trkpt lat="43.52542" lon="6.31828">
        <ele>368.8</ele>
        <time>2023-09-15T12:07:23Z</time>
      </trkpt>
      <trkpt lat="43.52542" lon="6.31827">
        <ele>368.7</ele>
        <time>2023-09-15T12:07:24Z</time>
      </trkpt>
      <trkpt lat="43.52542" lon="6.31826">
        <ele>368.7</ele>
        <time>2023-09-15T12:07:25Z</time>
      </trkpt>
      <trkpt lat="43.52542" lon="6.31825">
        <ele>368.7</ele>
        <time>2023-09-15T12:07:26Z</time>
      </trkpt>
      <trkpt lat="43.52543" lon="6.31824">
        <ele>368.7</ele>
        <time>2023-09-15T12:07:27Z</time>
      </trkpt>
      <trkpt lat="43.52544" lon="6.31823">
        <ele>368.6</ele>
        <time>2023-09-15T12:07:28Z</time>
      </trkpt>
      <trkpt lat="43.52545" lon="6.31822">
        <ele>368.6</ele>
        <time>2023-09-15T12:07:29Z</time>
      </trkpt>
      <trkpt lat="43.52546" lon="6.3182">
        <ele>368.6</ele>
        <time>2023-09-15T12:07:30Z</time>
      </trkpt>
      <trkpt lat="43.52547" lon="6.31818">
        <ele>368.6</ele>
        <time>2023-09-15T12:07:31Z</time>
      </trkpt>
      <trkpt lat="43.52548" lon="6.31817">
        <ele>368.5</ele>
        <time>2023-09-15T12:07:32Z</time>
      </trkpt>
      <trkpt lat="43.52548" lon="6.31816">
        <ele>368.5</ele>
        <time>2023-09-15T12:07:33Z</time>
      </trkpt>
      <trkpt lat="43.52548" lon="6.31814">
        <ele>368.4</ele>
        <time>2023-09-15T12:07:34Z</time>
      </trkpt>
      <trkpt lat="43.52549" lon="6.31813">
        <ele>368.4</ele>
        <time>2023-09-15T12:07:35Z</time>
      </trkpt>
      <trkpt lat="43.5255" lon="6.31812">
        <ele>368.4</ele>
        <time>2023-09-15T12:07:36Z</time>
      </trkpt>
      <trkpt lat="43.5255" lon="6.3181">
        <ele>368.4</ele>
        <time>2023-09-15T12:07:37Z</time>
      </trkpt>
      <trkpt lat="43.52551" lon="6.3181">
        <ele>368.3</ele>
        <time>2023-09-15T12:07:38Z</time>
      </trkpt>
      <trkpt lat="43.52551" lon="6.31809">
        <ele>368.4</ele>
        <time>2023-09-15T12:07:39Z</time>
      </trkpt>
      <trkpt lat="43.5255" lon="6.31807">
        <ele>368.5</ele>
        <time>2023-09-15T12:07:40Z</time>
      </trkpt>
      <trkpt lat="43.52551" lon="6.31806">
        <ele>368.5</ele>
        <time>2023-09-15T12:07:41Z</time>
      </trkpt>
      <trkpt lat="43.52552" lon="6.31805">
        <ele>368.4</ele>
        <time>2023-09-15T12:07:42Z</time>
      </trkpt>
      <trkpt lat="43.52554" lon="6.31803">
        <ele>368.4</ele>
        <time>2023-09-15T12:07:43Z</time>
      </trkpt>
      <trkpt lat="43.52554" lon="6.31802">
        <ele>368.3</ele>
        <time>2023-09-15T12:07:44Z</time>
      </trkpt>
      <trkpt lat="43.52555" lon="6.31801">
        <ele>368.2</ele>
        <time>2023-09-15T12:07:45Z</time>
      </trkpt>
      <trkpt lat="43.52555" lon="6.31799">
        <ele>368.1</ele>
        <time>2023-09-15T12:07:46Z</time>
      </trkpt>
      <trkpt lat="43.52556" lon="6.31798">
        <ele>368</ele>
        <time>2023-09-15T12:07:47Z</time>
      </trkpt>
      <trkpt lat="43.52557" lon="6.31797">
        <ele>367.8</ele>
        <time>2023-09-15T12:07:48Z</time>
      </trkpt>
      <trkpt lat="43.52557" lon="6.31795">
        <ele>367.8</ele>
        <time>2023-09-15T12:07:49Z</time>
      </trkpt>
      <trkpt lat="43.52557" lon="6.31794">
        <ele>367.8</ele>
        <time>2023-09-15T12:07:50Z</time>
      </trkpt>
      <trkpt lat="43.52557" lon="6.31793">
        <ele>367.7</ele>
        <time>2023-09-15T12:07:51Z</time>
      </trkpt>
      <trkpt lat="43.52558" lon="6.31793">
        <ele>367.7</ele>
        <time>2023-09-15T12:07:52Z</time>
      </trkpt>
      <trkpt lat="43.52559" lon="6.31792">
        <ele>367.7</ele>
        <time>2023-09-15T12:07:53Z</time>
      </trkpt>
      <trkpt lat="43.52559" lon="6.31791">
        <ele>367.7</ele>
        <time>2023-09-15T12:07:54Z</time>
      </trkpt>
      <trkpt lat="43.52559" lon="6.3179">
        <ele>367.7</ele>
        <time>2023-09-15T12:07:55Z</time>
      </trkpt>
      <trkpt lat="43.5256" lon="6.31788">
        <ele>367.7</ele>
        <time>2023-09-15T12:07:56Z</time>
      </trkpt>
      <trkpt lat="43.5256" lon="6.31787">
        <ele>367.7</ele>
        <time>2023-09-15T12:07:57Z</time>
      </trkpt>
      <trkpt lat="43.5256" lon="6.31785">
        <ele>367.7</ele>
        <time>2023-09-15T12:07:58Z</time>
      </trkpt>
      <trkpt lat="43.52561" lon="6.31785">
        <ele>367.6</ele>
        <time>2023-09-15T12:07:59Z</time>
      </trkpt>
      <trkpt lat="43.52562" lon="6.31784">
        <ele>367.6</ele>
        <time>2023-09-15T12:08:00Z</time>
      </trkpt>
      <trkpt lat="43.52562" lon="6.31783">
        <ele>367.6</ele>
        <time>2023-09-15T12:08:01Z</time>
      </trkpt>
      <trkpt lat="43.52563" lon="6.31782">
        <ele>367.6</ele>
        <time>2023-09-15T12:08:02Z</time>
      </trkpt>
      <trkpt lat="43.52563" lon="6.31781">
        <ele>367.6</ele>
        <time>2023-09-15T12:08:03Z</time>
      </trkpt>
      <trkpt lat="43.52563" lon="6.3178">
        <ele>367.6</ele>
        <time>2023-09-15T12:08:04Z</time>
      </trkpt>
      <trkpt lat="43.52564" lon="6.31779">
        <ele>367.6</ele>
        <time>2023-09-15T12:08:05Z</time>
      </trkpt>
      <trkpt lat="43.52564" lon="6.31778">
        <ele>367.6</ele>
        <time>2023-09-15T12:08:06Z</time>
      </trkpt>
      <trkpt lat="43.52564" lon="6.31777">
        <ele>367.7</ele>
        <time>2023-09-15T12:08:07Z</time>
      </trkpt>
      <trkpt lat="43.52565" lon="6.31776">
        <ele>367.6</ele>
        <time>2023-09-15T12:08:08Z</time>
      </trkpt>
      <trkpt lat="43.52566" lon="6.31775">
        <ele>367.7</ele>
        <time>2023-09-15T12:08:09Z</time>
      </trkpt>
      <trkpt lat="43.52566" lon="6.31775">
        <ele>367.7</ele>
        <time>2023-09-15T12:08:10Z</time>
      </trkpt>
      <trkpt lat="43.52567" lon="6.31773">
        <ele>367.7</ele>
        <time>2023-09-15T12:08:11Z</time>
      </trkpt>
      <trkpt lat="43.52568" lon="6.31773">
        <ele>367.7</ele>
        <time>2023-09-15T12:08:12Z</time>
      </trkpt>
      <trkpt lat="43.52568" lon="6.31772">
        <ele>367.7</ele>
        <time>2023-09-15T12:08:13Z</time>
      </trkpt>
      <trkpt lat="43.52569" lon="6.3177">
        <ele>367.6</ele>
        <time>2023-09-15T12:08:14Z</time>
      </trkpt>
      <trkpt lat="43.5257" lon="6.31769">
        <ele>367.6</ele>
        <time>2023-09-15T12:08:15Z</time>
      </trkpt>
      <trkpt lat="43.5257" lon="6.31769">
        <ele>367.5</ele>
        <time>2023-09-15T12:08:16Z</time>
      </trkpt>
      <trkpt lat="43.52571" lon="6.31768">
        <ele>367.5</ele>
        <time>2023-09-15T12:08:17Z</time>
      </trkpt>
      <trkpt lat="43.52572" lon="6.31767">
        <ele>367.5</ele>
        <time>2023-09-15T12:08:18Z</time>
      </trkpt>
      <trkpt lat="43.52573" lon="6.31766">
        <ele>367.6</ele>
        <time>2023-09-15T12:08:19Z</time>
      </trkpt>
      <trkpt lat="43.52574" lon="6.31765">
        <ele>367.6</ele>
        <time>2023-09-15T12:08:20Z</time>
      </trkpt>
      <trkpt lat="43.52575" lon="6.31764">
        <ele>367.5</ele>
        <time>2023-09-15T12:08:21Z</time>
      </trkpt>
      <trkpt lat="43.52575" lon="6.31763">
        <ele>367.4</ele>
        <time>2023-09-15T12:08:22Z</time>
      </trkpt>
      <trkpt lat="43.52576" lon="6.31762">
        <ele>367.4</ele>
        <time>2023-09-15T12:08:23Z</time>
      </trkpt>
      <trkpt lat="43.52577" lon="6.3176">
        <ele>367.3</ele>
        <time>2023-09-15T12:08:24Z</time>
      </trkpt>
      <trkpt lat="43.52577" lon="6.31759">
        <ele>367.3</ele>
        <time>2023-09-15T12:08:25Z</time>
      </trkpt>
      <trkpt lat="43.52578" lon="6.31759">
        <ele>367.2</ele>
        <time>2023-09-15T12:08:26Z</time>
      </trkpt>
      <trkpt lat="43.52579" lon="6.31758">
        <ele>367.1</ele>
        <time>2023-09-15T12:08:27Z</time>
      </trkpt>
      <trkpt lat="43.5258" lon="6.31757">
        <ele>367.1</ele>
        <time>2023-09-15T12:08:28Z</time>
      </trkpt>
      <trkpt lat="43.5258" lon="6.31755">
        <ele>367</ele>
        <time>2023-09-15T12:08:29Z</time>
      </trkpt>
      <trkpt lat="43.52581" lon="6.31754">
        <ele>366.9</ele>
        <time>2023-09-15T12:08:30Z</time>
      </trkpt>
      <trkpt lat="43.52581" lon="6.31753">
        <ele>366.8</ele>
        <time>2023-09-15T12:08:31Z</time>
      </trkpt>
      <trkpt lat="43.52581" lon="6.31751">
        <ele>366.8</ele>
        <time>2023-09-15T12:08:32Z</time>
      </trkpt>
      <trkpt lat="43.52581" lon="6.3175">
        <ele>366.7</ele>
        <time>2023-09-15T12:08:33Z</time>
      </trkpt>
      <trkpt lat="43.52581" lon="6.31749">
        <ele>366.7</ele>
        <time>2023-09-15T12:08:34Z</time>
      </trkpt>
      <trkpt lat="43.52582" lon="6.31749">
        <ele>366.6</ele>
        <time>2023-09-15T12:08:35Z</time>
      </trkpt>
      <trkpt lat="43.52582" lon="6.31748">
        <ele>366.6</ele>
        <time>2023-09-15T12:08:36Z</time>
      </trkpt>
      <trkpt lat="43.52582" lon="6.31747">
        <ele>366.6</ele>
        <time>2023-09-15T12:08:37Z</time>
      </trkpt>
      <trkpt lat="43.52583" lon="6.31747">
        <ele>366.5</ele>
        <time>2023-09-15T12:08:38Z</time>
      </trkpt>
      <trkpt lat="43.52583" lon="6.31746">
        <ele>366.5</ele>
        <time>2023-09-15T12:08:39Z</time>
      </trkpt>
      <trkpt lat="43.52584" lon="6.31745">
        <ele>366.5</ele>
        <time>2023-09-15T12:08:40Z</time>
      </trkpt>
      <trkpt lat="43.52584" lon="6.31744">
        <ele>366.4</ele>
        <time>2023-09-15T12:08:41Z</time>
      </trkpt>
      <trkpt lat="43.52584" lon="6.31743">
        <ele>366.4</ele>
        <time>2023-09-15T12:08:42Z</time>
      </trkpt>
      <trkpt lat="43.52585" lon="6.31742">
        <ele>366.4</ele>
        <time>2023-09-15T12:08:43Z</time>
      </trkpt>
      <trkpt lat="43.52586" lon="6.31741">
        <ele>366.3</ele>
        <time>2023-09-15T12:08:44Z</time>
      </trkpt>
      <trkpt lat="43.52587" lon="6.3174">
        <ele>366.3</ele>
        <time>2023-09-15T12:08:45Z</time>
      </trkpt>
      <trkpt lat="43.52587" lon="6.31739">
        <ele>366.3</ele>
        <time>2023-09-15T12:08:46Z</time>
      </trkpt>
      <trkpt lat="43.52588" lon="6.31737">
        <ele>366.3</ele>
        <time>2023-09-15T12:08:47Z</time>
      </trkpt>
      <trkpt lat="43.52589" lon="6.31736">
        <ele>366.4</ele>
        <time>2023-09-15T12:08:48Z</time>
      </trkpt>
      <trkpt lat="43.52589" lon="6.31735">
        <ele>366.4</ele>
        <time>2023-09-15T12:08:49Z</time>
      </trkpt>
      <trkpt lat="43.5259" lon="6.31734">
        <ele>366.4</ele>
        <time>2023-09-15T12:08:50Z</time>
      </trkpt>
      <trkpt lat="43.5259" lon="6.31733">
        <ele>366.4</ele>
        <time>2023-09-15T12:08:51Z</time>
      </trkpt>
      <trkpt lat="43.52591" lon="6.31732">
        <ele>366.3</ele>
        <time>2023-09-15T12:08:52Z</time>
      </trkpt>
      <trkpt lat="43.52591" lon="6.31732">
        <ele>366.3</ele>
        <time>2023-09-15T12:08:53Z</time>
      </trkpt>
      <trkpt lat="43.52592" lon="6.31731">
        <ele>366.3</ele>
        <time>2023-09-15T12:08:54Z</time>
      </trkpt>
      <trkpt lat="43.52593" lon="6.3173">
        <ele>366.3</ele>
        <time>2023-09-15T12:08:55Z</time>
      </trkpt>
      <trkpt lat="43.52593" lon="6.31728">
        <ele>366.2</ele>
        <time>2023-09-15T12:08:56Z</time>
      </trkpt>
      <trkpt lat="43.52594" lon="6.31727">
        <ele>366.1</ele>
        <time>2023-09-15T12:08:57Z</time>
      </trkpt>
      <trkpt lat="43.52595" lon="6.31725">
        <ele>366</ele>
        <time>2023-09-15T12:08:58Z</time>
      </trkpt>
      <trkpt lat="43.52596" lon="6.31724">
        <ele>365.9</ele>
        <time>2023-09-15T12:08:59Z</time>
      </trkpt>
      <trkpt lat="43.52596" lon="6.31723">
        <ele>365.9</ele>
        <time>2023-09-15T12:09:00Z</time>
      </trkpt>
      <trkpt lat="43.52596" lon="6.31722">
        <ele>365.9</ele>
        <time>2023-09-15T12:09:01Z</time>
      </trkpt>
      <trkpt lat="43.52597" lon="6.3172">
        <ele>365.9</ele>
        <time>2023-09-15T12:09:02Z</time>
      </trkpt>
      <trkpt lat="43.52597" lon="6.31718">
        <ele>365.9</ele>
        <time>2023-09-15T12:09:03Z</time>
      </trkpt>
      <trkpt lat="43.52597" lon="6.31716">
        <ele>365.9</ele>
        <time>2023-09-15T12:09:04Z</time>
      </trkpt>
      <trkpt lat="43.52598" lon="6.31716">
        <ele>365.9</ele>
        <time>2023-09-15T12:09:05Z</time>
      </trkpt>
      <trkpt lat="43.52598" lon="6.31715">
        <ele>365.9</ele>
        <time>2023-09-15T12:09:06Z</time>
      </trkpt>
      <trkpt lat="43.52599" lon="6.31714">
        <ele>365.9</ele>
        <time>2023-09-15T12:09:07Z</time>
      </trkpt>
      <trkpt lat="43.52599" lon="6.31713">
        <ele>365.8</ele>
        <time>2023-09-15T12:09:08Z</time>
      </trkpt>
      <trkpt lat="43.526" lon="6.31713">
        <ele>365.8</ele>
        <time>2023-09-15T12:09:09Z</time>
      </trkpt>
      <trkpt lat="43.526" lon="6.31713">
        <ele>365.8</ele>
        <time>2023-09-15T12:09:10Z</time>
      </trkpt>
      <trkpt lat="43.52601" lon="6.31712">
        <ele>365.8</ele>
        <time>2023-09-15T12:09:11Z</time>
      </trkpt>
      <trkpt lat="43.52602" lon="6.3171">
        <ele>365.7</ele>
        <time>2023-09-15T12:09:12Z</time>
      </trkpt>
      <trkpt lat="43.52603" lon="6.31709">
        <ele>365.7</ele>
        <time>2023-09-15T12:09:13Z</time>
      </trkpt>
      <trkpt lat="43.52604" lon="6.31707">
        <ele>365.6</ele>
        <time>2023-09-15T12:09:14Z</time>
      </trkpt>
      <trkpt lat="43.52605" lon="6.31706">
        <ele>365.7</ele>
        <time>2023-09-15T12:09:15Z</time>
      </trkpt>
      <trkpt lat="43.52605" lon="6.31705">
        <ele>365.7</ele>
        <time>2023-09-15T12:09:16Z</time>
      </trkpt>
      <trkpt lat="43.52606" lon="6.31704">
        <ele>365.7</ele>
        <time>2023-09-15T12:09:17Z</time>
      </trkpt>
      <trkpt lat="43.52607" lon="6.31703">
        <ele>365.7</ele>
        <time>2023-09-15T12:09:18Z</time>
      </trkpt>
      <trkpt lat="43.52608" lon="6.31702">
        <ele>365.7</ele>
        <time>2023-09-15T12:09:19Z</time>
      </trkpt>
      <trkpt lat="43.52608" lon="6.31701">
        <ele>365.7</ele>
        <time>2023-09-15T12:09:20Z</time>
      </trkpt>
      <trkpt lat="43.52609" lon="6.317">
        <ele>365.7</ele>
        <time>2023-09-15T12:09:21Z</time>
      </trkpt>
      <trkpt lat="43.52609" lon="6.31699">
        <ele>365.7</ele>
        <time>2023-09-15T12:09:22Z</time>
      </trkpt>
      <trkpt lat="43.52608" lon="6.31697">
        <ele>365.6</ele>
        <time>2023-09-15T12:09:23Z</time>
      </trkpt>
      <trkpt lat="43.52609" lon="6.31696">
        <ele>365.6</ele>
        <time>2023-09-15T12:09:24Z</time>
      </trkpt>
      <trkpt lat="43.52609" lon="6.31695">
        <ele>365.6</ele>
        <time>2023-09-15T12:09:25Z</time>
      </trkpt>
      <trkpt lat="43.5261" lon="6.31694">
        <ele>365.6</ele>
        <time>2023-09-15T12:09:26Z</time>
      </trkpt>
      <trkpt lat="43.52611" lon="6.31693">
        <ele>365.5</ele>
        <time>2023-09-15T12:09:27Z</time>
      </trkpt>
      <trkpt lat="43.52612" lon="6.31692">
        <ele>365.5</ele>
        <time>2023-09-15T12:09:28Z</time>
      </trkpt>
      <trkpt lat="43.52614" lon="6.31691">
        <ele>365.5</ele>
        <time>2023-09-15T12:09:29Z</time>
      </trkpt>
      <trkpt lat="43.52616" lon="6.3169">
        <ele>365.5</ele>
        <time>2023-09-15T12:09:30Z</time>
      </trkpt>
      <trkpt lat="43.52617" lon="6.31689">
        <ele>365.4</ele>
        <time>2023-09-15T12:09:31Z</time>
      </trkpt>
      <trkpt lat="43.52617" lon="6.31687">
        <ele>365.5</ele>
        <time>2023-09-15T12:09:32Z</time>
      </trkpt>
      <trkpt lat="43.52618" lon="6.31685">
        <ele>365.5</ele>
        <time>2023-09-15T12:09:33Z</time>
      </trkpt>
      <trkpt lat="43.52617" lon="6.31683">
        <ele>365.5</ele>
        <time>2023-09-15T12:09:34Z</time>
      </trkpt>
      <trkpt lat="43.52618" lon="6.31682">
        <ele>365.5</ele>
        <time>2023-09-15T12:09:35Z</time>
      </trkpt>
      <trkpt lat="43.52618" lon="6.3168">
        <ele>365.5</ele>
        <time>2023-09-15T12:09:36Z</time>
      </trkpt>
      <trkpt lat="43.52618" lon="6.31679">
        <ele>365.4</ele>
        <time>2023-09-15T12:09:37Z</time>
      </trkpt>
      <trkpt lat="43.52618" lon="6.31678">
        <ele>365.4</ele>
        <time>2023-09-15T12:09:38Z</time>
      </trkpt>
      <trkpt lat="43.52619" lon="6.31677">
        <ele>365.4</ele>
        <time>2023-09-15T12:09:39Z</time>
      </trkpt>
      <trkpt lat="43.5262" lon="6.31675">
        <ele>365.4</ele>
        <time>2023-09-15T12:09:40Z</time>
      </trkpt>
      <trkpt lat="43.52621" lon="6.31674">
        <ele>365.5</ele>
        <time>2023-09-15T12:09:41Z</time>
      </trkpt>
      <trkpt lat="43.52621" lon="6.31673">
        <ele>365.4</ele>
        <time>2023-09-15T12:09:42Z</time>
      </trkpt>
      <trkpt lat="43.52621" lon="6.31672">
        <ele>365.4</ele>
        <time>2023-09-15T12:09:43Z</time>
      </trkpt>
      <trkpt lat="43.52622" lon="6.31671">
        <ele>365.3</ele>
        <time>2023-09-15T12:09:44Z</time>
      </trkpt>
      <trkpt lat="43.52622" lon="6.3167">
        <ele>365.2</ele>
        <time>2023-09-15T12:09:45Z</time>
      </trkpt>
      <trkpt lat="43.52623" lon="6.31668">
        <ele>365.2</ele>
        <time>2023-09-15T12:09:46Z</time>
      </trkpt>
      <trkpt lat="43.52624" lon="6.31667">
        <ele>365.2</ele>
        <time>2023-09-15T12:09:47Z</time>
      </trkpt>
      <trkpt lat="43.52625" lon="6.31666">
        <ele>365.2</ele>
        <time>2023-09-15T12:09:48Z</time>
      </trkpt>
      <trkpt lat="43.52625" lon="6.31664">
        <ele>365.2</ele>
        <time>2023-09-15T12:09:49Z</time>
      </trkpt>
      <trkpt lat="43.52624" lon="6.31662">
        <ele>365.1</ele>
        <time>2023-09-15T12:09:50Z</time>
      </trkpt>
      <trkpt lat="43.52625" lon="6.31661">
        <ele>365.1</ele>
        <time>2023-09-15T12:09:51Z</time>
      </trkpt>
      <trkpt lat="43.52625" lon="6.3166">
        <ele>365.1</ele>
        <time>2023-09-15T12:09:52Z</time>
      </trkpt>
      <trkpt lat="43.52626" lon="6.31659">
        <ele>365</ele>
        <time>2023-09-15T12:09:53Z</time>
      </trkpt>
      <trkpt lat="43.52627" lon="6.31657">
        <ele>365</ele>
        <time>2023-09-15T12:09:54Z</time>
      </trkpt>
      <trkpt lat="43.52628" lon="6.31656">
        <ele>365.1</ele>
        <time>2023-09-15T12:09:55Z</time>
      </trkpt>
      <trkpt lat="43.52628" lon="6.31655">
        <ele>365.1</ele>
        <time>2023-09-15T12:09:56Z</time>
      </trkpt>
      <trkpt lat="43.52629" lon="6.31654">
        <ele>365.1</ele>
        <time>2023-09-15T12:09:57Z</time>
      </trkpt>
      <trkpt lat="43.52629" lon="6.31653">
        <ele>365</ele>
        <time>2023-09-15T12:09:58Z</time>
      </trkpt>
      <trkpt lat="43.52628" lon="6.31653">
        <ele>365</ele>
        <time>2023-09-15T12:09:59Z</time>
      </trkpt>
      <trkpt lat="43.52629" lon="6.31652">
        <ele>364.9</ele>
        <time>2023-09-15T12:10:00Z</time>
      </trkpt>
      <trkpt lat="43.52629" lon="6.31651">
        <ele>364.9</ele>
        <time>2023-09-15T12:10:01Z</time>
      </trkpt>
      <trkpt lat="43.52629" lon="6.31649">
        <ele>364.9</ele>
        <time>2023-09-15T12:10:02Z</time>
      </trkpt>
      <trkpt lat="43.52629" lon="6.31648">
        <ele>364.9</ele>
        <time>2023-09-15T12:10:03Z</time>
      </trkpt>
      <trkpt lat="43.52629" lon="6.31646">
        <ele>364.9</ele>
        <time>2023-09-15T12:10:04Z</time>
      </trkpt>
      <trkpt lat="43.5263" lon="6.31645">
        <ele>364.8</ele>
        <time>2023-09-15T12:10:05Z</time>
      </trkpt>
      <trkpt lat="43.52631" lon="6.31642">
        <ele>364.7</ele>
        <time>2023-09-15T12:10:06Z</time>
      </trkpt>
      <trkpt lat="43.52632" lon="6.31641">
        <ele>364.7</ele>
        <time>2023-09-15T12:10:07Z</time>
      </trkpt>
      <trkpt lat="43.52632" lon="6.3164">
        <ele>364.7</ele>
        <time>2023-09-15T12:10:08Z</time>
      </trkpt>
      <trkpt lat="43.52632" lon="6.31639">
        <ele>364.6</ele>
        <time>2023-09-15T12:10:09Z</time>
      </trkpt>
      <trkpt lat="43.52632" lon="6.31638">
        <ele>364.6</ele>
        <time>2023-09-15T12:10:10Z</time>
      </trkpt>
      <trkpt lat="43.52633" lon="6.31636">
        <ele>364.6</ele>
        <time>2023-09-15T12:10:11Z</time>
      </trkpt>
      <trkpt lat="43.52634" lon="6.31636">
        <ele>364.6</ele>
        <time>2023-09-15T12:10:12Z</time>
      </trkpt>
      <trkpt lat="43.52635" lon="6.31635">
        <ele>364.6</ele>
        <time>2023-09-15T12:10:13Z</time>
      </trkpt>
      <trkpt lat="43.52635" lon="6.31634">
        <ele>364.5</ele>
        <time>2023-09-15T12:10:14Z</time>
      </trkpt>
      <trkpt lat="43.52635" lon="6.31633">
        <ele>364.5</ele>
        <time>2023-09-15T12:10:15Z</time>
      </trkpt>
      <trkpt lat="43.52636" lon="6.31631">
        <ele>364.5</ele>
        <time>2023-09-15T12:10:16Z</time>
      </trkpt>
      <trkpt lat="43.52636" lon="6.3163">
        <ele>364.4</ele>
        <time>2023-09-15T12:10:17Z</time>
      </trkpt>
      <trkpt lat="43.52637" lon="6.31629">
        <ele>364.4</ele>
        <time>2023-09-15T12:10:18Z</time>
      </trkpt>
      <trkpt lat="43.52637" lon="6.31628">
        <ele>364.4</ele>
        <time>2023-09-15T12:10:19Z</time>
      </trkpt>
      <trkpt lat="43.52636" lon="6.31627">
        <ele>364.3</ele>
        <time>2023-09-15T12:10:20Z</time>
      </trkpt>
      <trkpt lat="43.52636" lon="6.31626">
        <ele>364.4</ele>
        <time>2023-09-15T12:10:21Z</time>
      </trkpt>
      <trkpt lat="43.52637" lon="6.31624">
        <ele>364.3</ele>
        <time>2023-09-15T12:10:22Z</time>
      </trkpt>
      <trkpt lat="43.52637" lon="6.31623">
        <ele>364.3</ele>
        <time>2023-09-15T12:10:23Z</time>
      </trkpt>
      <trkpt lat="43.52638" lon="6.31621">
        <ele>364.3</ele>
        <time>2023-09-15T12:10:24Z</time>
      </trkpt>
      <trkpt lat="43.52637" lon="6.31619">
        <ele>364.4</ele>
        <time>2023-09-15T12:10:25Z</time>
      </trkpt>
      <trkpt lat="43.52638" lon="6.31617">
        <ele>364.3</ele>
        <time>2023-09-15T12:10:26Z</time>
      </trkpt>
      <trkpt lat="43.52638" lon="6.31616">
        <ele>364.4</ele>
        <time>2023-09-15T12:10:27Z</time>
      </trkpt>
      <trkpt lat="43.52639" lon="6.31614">
        <ele>364.5</ele>
        <time>2023-09-15T12:10:28Z</time>
      </trkpt>
      <trkpt lat="43.52639" lon="6.31612">
        <ele>364.5</ele>
        <time>2023-09-15T12:10:29Z</time>
      </trkpt>
      <trkpt lat="43.5264" lon="6.31611">
        <ele>364.5</ele>
        <time>2023-09-15T12:10:30Z</time>
      </trkpt>
      <trkpt lat="43.5264" lon="6.31609">
        <ele>364.5</ele>
        <time>2023-09-15T12:10:31Z</time>
      </trkpt>
      <trkpt lat="43.52641" lon="6.31608">
        <ele>364.5</ele>
        <time>2023-09-15T12:10:32Z</time>
      </trkpt>
      <trkpt lat="43.52642" lon="6.31607">
        <ele>364.5</ele>
        <time>2023-09-15T12:10:33Z</time>
      </trkpt>
      <trkpt lat="43.52643" lon="6.31607">
        <ele>364.5</ele>
        <time>2023-09-15T12:10:34Z</time>
      </trkpt>
      <trkpt lat="43.52643" lon="6.31605">
        <ele>364.5</ele>
        <time>2023-09-15T12:10:35Z</time>
      </trkpt>
      <trkpt lat="43.52643" lon="6.31604">
        <ele>364.5</ele>
        <time>2023-09-15T12:10:36Z</time>
      </trkpt>
      <trkpt lat="43.52643" lon="6.31603">
        <ele>364.4</ele>
        <time>2023-09-15T12:10:37Z</time>
      </trkpt>
      <trkpt lat="43.52643" lon="6.316">
        <ele>364.4</ele>
        <time>2023-09-15T12:10:38Z</time>
      </trkpt>
      <trkpt lat="43.52642" lon="6.31598">
        <ele>364.4</ele>
        <time>2023-09-15T12:10:39Z</time>
      </trkpt>
      <trkpt lat="43.52643" lon="6.31597">
        <ele>364.3</ele>
        <time>2023-09-15T12:10:40Z</time>
      </trkpt>
      <trkpt lat="43.52644" lon="6.31597">
        <ele>364.3</ele>
        <time>2023-09-15T12:10:41Z</time>
      </trkpt>
      <trkpt lat="43.52644" lon="6.31595">
        <ele>364.4</ele>
        <time>2023-09-15T12:10:42Z</time>
      </trkpt>
      <trkpt lat="43.52645" lon="6.31594">
        <ele>364.3</ele>
        <time>2023-09-15T12:10:43Z</time>
      </trkpt>
      <trkpt lat="43.52645" lon="6.31592">
        <ele>364.2</ele>
        <time>2023-09-15T12:10:44Z</time>
      </trkpt>
      <trkpt lat="43.52645" lon="6.31591">
        <ele>364.2</ele>
        <time>2023-09-15T12:10:45Z</time>
      </trkpt>
      <trkpt lat="43.52645" lon="6.31589">
        <ele>364.1</ele>
        <time>2023-09-15T12:10:46Z</time>
      </trkpt>
      <trkpt lat="43.52646" lon="6.31588">
        <ele>364.1</ele>
        <time>2023-09-15T12:10:47Z</time>
      </trkpt>
      <trkpt lat="43.52646" lon="6.31586">
        <ele>364.1</ele>
        <time>2023-09-15T12:10:48Z</time>
      </trkpt>
      <trkpt lat="43.52647" lon="6.31586">
        <ele>364.1</ele>
        <time>2023-09-15T12:10:49Z</time>
      </trkpt>
      <trkpt lat="43.52646" lon="6.31584">
        <ele>364.1</ele>
        <time>2023-09-15T12:10:50Z</time>
      </trkpt>
      <trkpt lat="43.52647" lon="6.31583">
        <ele>364.1</ele>
        <time>2023-09-15T12:10:51Z</time>
      </trkpt>
      <trkpt lat="43.52647" lon="6.31581">
        <ele>364.1</ele>
        <time>2023-09-15T12:10:52Z</time>
      </trkpt>
      <trkpt lat="43.52648" lon="6.3158">
        <ele>364.1</ele>
        <time>2023-09-15T12:10:53Z</time>
      </trkpt>
      <trkpt lat="43.52648" lon="6.31579">
        <ele>364</ele>
        <time>2023-09-15T12:10:54Z</time>
      </trkpt>
      <trkpt lat="43.52649" lon="6.31577">
        <ele>364</ele>
        <time>2023-09-15T12:10:55Z</time>
      </trkpt>
      <trkpt lat="43.52649" lon="6.31576">
        <ele>364</ele>
        <time>2023-09-15T12:10:56Z</time>
      </trkpt>
      <trkpt lat="43.5265" lon="6.31575">
        <ele>364</ele>
        <time>2023-09-15T12:10:57Z</time>
      </trkpt>
      <trkpt lat="43.5265" lon="6.31573">
        <ele>364</ele>
        <time>2023-09-15T12:10:58Z</time>
      </trkpt>
      <trkpt lat="43.52651" lon="6.31572">
        <ele>363.9</ele>
        <time>2023-09-15T12:10:59Z</time>
      </trkpt>
      <trkpt lat="43.52651" lon="6.31571">
        <ele>363.9</ele>
        <time>2023-09-15T12:11:00Z</time>
      </trkpt>
      <trkpt lat="43.52652" lon="6.3157">
        <ele>363.9</ele>
        <time>2023-09-15T12:11:01Z</time>
      </trkpt>
      <trkpt lat="43.52653" lon="6.31569">
        <ele>364</ele>
        <time>2023-09-15T12:11:02Z</time>
      </trkpt>
      <trkpt lat="43.52654" lon="6.31567">
        <ele>364</ele>
        <time>2023-09-15T12:11:03Z</time>
      </trkpt>
      <trkpt lat="43.52655" lon="6.31567">
        <ele>364</ele>
        <time>2023-09-15T12:11:04Z</time>
      </trkpt>
      <trkpt lat="43.52656" lon="6.31566">
        <ele>364</ele>
        <time>2023-09-15T12:11:05Z</time>
      </trkpt>
      <trkpt lat="43.52656" lon="6.31564">
        <ele>364</ele>
        <time>2023-09-15T12:11:06Z</time>
      </trkpt>
      <trkpt lat="43.52656" lon="6.31562">
        <ele>363.9</ele>
        <time>2023-09-15T12:11:07Z</time>
      </trkpt>
      <trkpt lat="43.52657" lon="6.31561">
        <ele>363.9</ele>
        <time>2023-09-15T12:11:08Z</time>
      </trkpt>
      <trkpt lat="43.52657" lon="6.3156">
        <ele>364</ele>
        <time>2023-09-15T12:11:09Z</time>
      </trkpt>
      <trkpt lat="43.52658" lon="6.31559">
        <ele>364</ele>
        <time>2023-09-15T12:11:10Z</time>
      </trkpt>
      <trkpt lat="43.52658" lon="6.31558">
        <ele>364.1</ele>
        <time>2023-09-15T12:11:11Z</time>
      </trkpt>
      <trkpt lat="43.52659" lon="6.31557">
        <ele>364.1</ele>
        <time>2023-09-15T12:11:12Z</time>
      </trkpt>
      <trkpt lat="43.52659" lon="6.31556">
        <ele>364.1</ele>
        <time>2023-09-15T12:11:13Z</time>
      </trkpt>
      <trkpt lat="43.52659" lon="6.31555">
        <ele>362.8</ele>
        <time>2023-09-15T12:11:14Z</time>
      </trkpt>
      <trkpt lat="43.52659" lon="6.31553">
        <ele>363.1</ele>
        <time>2023-09-15T12:11:15Z</time>
      </trkpt>
      <trkpt lat="43.5266" lon="6.31552">
        <ele>363.2</ele>
        <time>2023-09-15T12:11:16Z</time>
      </trkpt>
      <trkpt lat="43.52661" lon="6.31551">
        <ele>363.4</ele>
        <time>2023-09-15T12:11:17Z</time>
      </trkpt>
      <trkpt lat="43.52661" lon="6.31549">
        <ele>363.6</ele>
        <time>2023-09-15T12:11:18Z</time>
      </trkpt>
      <trkpt lat="43.52662" lon="6.31548">
        <ele>363.7</ele>
        <time>2023-09-15T12:11:19Z</time>
      </trkpt>
      <trkpt lat="43.52662" lon="6.31547">
        <ele>363.9</ele>
        <time>2023-09-15T12:11:20Z</time>
      </trkpt>
      <trkpt lat="43.52663" lon="6.31546">
        <ele>363.9</ele>
        <time>2023-09-15T12:11:21Z</time>
      </trkpt>
      <trkpt lat="43.52663" lon="6.31545">
        <ele>364</ele>
        <time>2023-09-15T12:11:22Z</time>
      </trkpt>
      <trkpt lat="43.52664" lon="6.31544">
        <ele>364</ele>
        <time>2023-09-15T12:11:23Z</time>
      </trkpt>
      <trkpt lat="43.52665" lon="6.31543">
        <ele>364.1</ele>
        <time>2023-09-15T12:11:24Z</time>
      </trkpt>
      <trkpt lat="43.52666" lon="6.31542">
        <ele>364.2</ele>
        <time>2023-09-15T12:11:25Z</time>
      </trkpt>
      <trkpt lat="43.52666" lon="6.31541">
        <ele>364.3</ele>
        <time>2023-09-15T12:11:26Z</time>
      </trkpt>
      <trkpt lat="43.52666" lon="6.31539">
        <ele>364.3</ele>
        <time>2023-09-15T12:11:27Z</time>
      </trkpt>
      <trkpt lat="43.52665" lon="6.31538">
        <ele>363.7</ele>
        <time>2023-09-15T12:11:28Z</time>
      </trkpt>
      <trkpt lat="43.52665" lon="6.31537">
        <ele>363.9</ele>
        <time>2023-09-15T12:11:29Z</time>
      </trkpt>
      <trkpt lat="43.52666" lon="6.31536">
        <ele>364</ele>
        <time>2023-09-15T12:11:30Z</time>
      </trkpt>
      <trkpt lat="43.52666" lon="6.31534">
        <ele>364</ele>
        <time>2023-09-15T12:11:31Z</time>
      </trkpt>
      <trkpt lat="43.52666" lon="6.31532">
        <ele>364.2</ele>
        <time>2023-09-15T12:11:32Z</time>
      </trkpt>
      <trkpt lat="43.52665" lon="6.31529">
        <ele>364.3</ele>
        <time>2023-09-15T12:11:33Z</time>
      </trkpt>
      <trkpt lat="43.52665" lon="6.31528">
        <ele>364.3</ele>
        <time>2023-09-15T12:11:34Z</time>
      </trkpt>
      <trkpt lat="43.52666" lon="6.31526">
        <ele>364.4</ele>
        <time>2023-09-15T12:11:35Z</time>
      </trkpt>
      <trkpt lat="43.52667" lon="6.31525">
        <ele>364.5</ele>
        <time>2023-09-15T12:11:36Z</time>
      </trkpt>
      <trkpt lat="43.52667" lon="6.31524">
        <ele>364.5</ele>
        <time>2023-09-15T12:11:37Z</time>
      </trkpt>
      <trkpt lat="43.52667" lon="6.31522">
        <ele>364.5</ele>
        <time>2023-09-15T12:11:38Z</time>
      </trkpt>
      <trkpt lat="43.52667" lon="6.31521">
        <ele>364.5</ele>
        <time>2023-09-15T12:11:39Z</time>
      </trkpt>
      <trkpt lat="43.52667" lon="6.3152">
        <ele>364.4</ele>
        <time>2023-09-15T12:11:40Z</time>
      </trkpt>
      <trkpt lat="43.52668" lon="6.31519">
        <ele>364.3</ele>
        <time>2023-09-15T12:11:41Z</time>
      </trkpt>
      <trkpt lat="43.52668" lon="6.31517">
        <ele>364.3</ele>
        <time>2023-09-15T12:11:42Z</time>
      </trkpt>
      <trkpt lat="43.52669" lon="6.31516">
        <ele>364.4</ele>
        <time>2023-09-15T12:11:43Z</time>
      </trkpt>
      <trkpt lat="43.52669" lon="6.31515">
        <ele>364.5</ele>
        <time>2023-09-15T12:11:44Z</time>
      </trkpt>
      <trkpt lat="43.52669" lon="6.31514">
        <ele>364.6</ele>
        <time>2023-09-15T12:11:45Z</time>
      </trkpt>
      <trkpt lat="43.5267" lon="6.31513">
        <ele>364.7</ele>
        <time>2023-09-15T12:11:46Z</time>
      </trkpt>
      <trkpt lat="43.5267" lon="6.31511">
        <ele>364.7</ele>
        <time>2023-09-15T12:11:47Z</time>
      </trkpt>
      <trkpt lat="43.5267" lon="6.31509">
        <ele>364.6</ele>
        <time>2023-09-15T12:11:48Z</time>
      </trkpt>
      <trkpt lat="43.5267" lon="6.31507">
        <ele>364.5</ele>
        <time>2023-09-15T12:11:49Z</time>
      </trkpt>
      <trkpt lat="43.5267" lon="6.31506">
        <ele>364.5</ele>
        <time>2023-09-15T12:11:50Z</time>
      </trkpt>
      <trkpt lat="43.5267" lon="6.31505">
        <ele>364.5</ele>
        <time>2023-09-15T12:11:51Z</time>
      </trkpt>
      <trkpt lat="43.52671" lon="6.31504">
        <ele>364.4</ele>
        <time>2023-09-15T12:11:52Z</time>
      </trkpt>
      <trkpt lat="43.52671" lon="6.31503">
        <ele>364.4</ele>
        <time>2023-09-15T12:11:53Z</time>
      </trkpt>
      <trkpt lat="43.52672" lon="6.31501">
        <ele>364.4</ele>
        <time>2023-09-15T12:11:54Z</time>
      </trkpt>
      <trkpt lat="43.52673" lon="6.31501">
        <ele>364.3</ele>
        <time>2023-09-15T12:11:55Z</time>
      </trkpt>
      <trkpt lat="43.52672" lon="6.315">
        <ele>364.4</ele>
        <time>2023-09-15T12:11:56Z</time>
      </trkpt>
      <trkpt lat="43.52672" lon="6.31499">
        <ele>364.5</ele>
        <time>2023-09-15T12:11:57Z</time>
      </trkpt>
      <trkpt lat="43.52673" lon="6.31497">
        <ele>364.6</ele>
        <time>2023-09-15T12:11:58Z</time>
      </trkpt>
      <trkpt lat="43.52674" lon="6.31496">
        <ele>364.6</ele>
        <time>2023-09-15T12:11:59Z</time>
      </trkpt>
      <trkpt lat="43.52674" lon="6.31495">
        <ele>364.7</ele>
        <time>2023-09-15T12:12:00Z</time>
      </trkpt>
      <trkpt lat="43.52674" lon="6.31494">
        <ele>364.7</ele>
        <time>2023-09-15T12:12:01Z</time>
      </trkpt>
      <trkpt lat="43.52675" lon="6.31493">
        <ele>364.7</ele>
        <time>2023-09-15T12:12:02Z</time>
      </trkpt>
      <trkpt lat="43.52675" lon="6.31492">
        <ele>364.8</ele>
        <time>2023-09-15T12:12:03Z</time>
      </trkpt>
      <trkpt lat="43.52676" lon="6.3149">
        <ele>364.8</ele>
        <time>2023-09-15T12:12:04Z</time>
      </trkpt>
      <trkpt lat="43.52676" lon="6.31489">
        <ele>364.9</ele>
        <time>2023-09-15T12:12:05Z</time>
      </trkpt>
      <trkpt lat="43.52676" lon="6.31488">
        <ele>364.9</ele>
        <time>2023-09-15T12:12:06Z</time>
      </trkpt>
      <trkpt lat="43.52677" lon="6.31486">
        <ele>365</ele>
        <time>2023-09-15T12:12:07Z</time>
      </trkpt>
      <trkpt lat="43.52677" lon="6.31485">
        <ele>365</ele>
        <time>2023-09-15T12:12:08Z</time>
      </trkpt>
      <trkpt lat="43.52678" lon="6.31483">
        <ele>365.1</ele>
        <time>2023-09-15T12:12:09Z</time>
      </trkpt>
      <trkpt lat="43.52678" lon="6.31482">
        <ele>365.1</ele>
        <time>2023-09-15T12:12:10Z</time>
      </trkpt>
      <trkpt lat="43.52679" lon="6.31481">
        <ele>365.1</ele>
        <time>2023-09-15T12:12:11Z</time>
      </trkpt>
      <trkpt lat="43.5268" lon="6.31479">
        <ele>365.1</ele>
        <time>2023-09-15T12:12:12Z</time>
      </trkpt>
      <trkpt lat="43.5268" lon="6.31478">
        <ele>365.1</ele>
        <time>2023-09-15T12:12:13Z</time>
      </trkpt>
      <trkpt lat="43.5268" lon="6.31476">
        <ele>365.1</ele>
        <time>2023-09-15T12:12:14Z</time>
      </trkpt>
      <trkpt lat="43.52681" lon="6.31475">
        <ele>365</ele>
        <time>2023-09-15T12:12:15Z</time>
      </trkpt>
      <trkpt lat="43.52681" lon="6.31473">
        <ele>365</ele>
        <time>2023-09-15T12:12:16Z</time>
      </trkpt>
      <trkpt lat="43.52682" lon="6.31472">
        <ele>364.9</ele>
        <time>2023-09-15T12:12:17Z</time>
      </trkpt>
      <trkpt lat="43.52682" lon="6.31471">
        <ele>365</ele>
        <time>2023-09-15T12:12:18Z</time>
      </trkpt>
      <trkpt lat="43.52683" lon="6.3147">
        <ele>365</ele>
        <time>2023-09-15T12:12:19Z</time>
      </trkpt>
      <trkpt lat="43.52684" lon="6.3147">
        <ele>365</ele>
        <time>2023-09-15T12:12:20Z</time>
      </trkpt>
      <trkpt lat="43.52683" lon="6.31468">
        <ele>365.1</ele>
        <time>2023-09-15T12:12:21Z</time>
      </trkpt>
      <trkpt lat="43.52684" lon="6.31467">
        <ele>365.1</ele>
        <time>2023-09-15T12:12:22Z</time>
      </trkpt>
      <trkpt lat="43.52684" lon="6.31467">
        <ele>365.1</ele>
        <time>2023-09-15T12:12:23Z</time>
      </trkpt>
      <trkpt lat="43.52685" lon="6.31466">
        <ele>365.2</ele>
        <time>2023-09-15T12:12:24Z</time>
      </trkpt>
      <trkpt lat="43.52685" lon="6.31465">
        <ele>365.2</ele>
        <time>2023-09-15T12:12:25Z</time>
      </trkpt>
      <trkpt lat="43.52686" lon="6.31463">
        <ele>365.2</ele>
        <time>2023-09-15T12:12:26Z</time>
      </trkpt>
      <trkpt lat="43.52686" lon="6.31462">
        <ele>365.2</ele>
        <time>2023-09-15T12:12:27Z</time>
      </trkpt>
      <trkpt lat="43.52687" lon="6.31461">
        <ele>365.2</ele>
        <time>2023-09-15T12:12:28Z</time>
      </trkpt>
      <trkpt lat="43.52687" lon="6.3146">
        <ele>365.2</ele>
        <time>2023-09-15T12:12:29Z</time>
      </trkpt>
      <trkpt lat="43.52687" lon="6.31459">
        <ele>365.2</ele>
        <time>2023-09-15T12:12:30Z</time>
      </trkpt>
      <trkpt lat="43.52688" lon="6.31458">
        <ele>365.2</ele>
        <time>2023-09-15T12:12:31Z</time>
      </trkpt>
      <trkpt lat="43.52688" lon="6.31456">
        <ele>365.2</ele>
        <time>2023-09-15T12:12:32Z</time>
      </trkpt>
      <trkpt lat="43.52689" lon="6.31455">
        <ele>365.3</ele>
        <time>2023-09-15T12:12:33Z</time>
      </trkpt>
      <trkpt lat="43.52689" lon="6.31454">
        <ele>365.3</ele>
        <time>2023-09-15T12:12:34Z</time>
      </trkpt>
      <trkpt lat="43.5269" lon="6.31453">
        <ele>365.3</ele>
        <time>2023-09-15T12:12:35Z</time>
      </trkpt>
      <trkpt lat="43.5269" lon="6.31452">
        <ele>365.3</ele>
        <time>2023-09-15T12:12:36Z</time>
      </trkpt>
      <trkpt lat="43.52691" lon="6.3145">
        <ele>365.3</ele>
        <time>2023-09-15T12:12:37Z</time>
      </trkpt>
      <trkpt lat="43.52691" lon="6.31449">
        <ele>365.3</ele>
        <time>2023-09-15T12:12:38Z</time>
      </trkpt>
      <trkpt lat="43.52692" lon="6.31447">
        <ele>365.4</ele>
        <time>2023-09-15T12:12:39Z</time>
      </trkpt>
      <trkpt lat="43.52692" lon="6.31446">
        <ele>365.2</ele>
        <time>2023-09-15T12:12:40Z</time>
      </trkpt>
      <trkpt lat="43.52692" lon="6.31445">
        <ele>365.3</ele>
        <time>2023-09-15T12:12:41Z</time>
      </trkpt>
      <trkpt lat="43.52693" lon="6.31443">
        <ele>365.3</ele>
        <time>2023-09-15T12:12:42Z</time>
      </trkpt>
      <trkpt lat="43.52693" lon="6.31441">
        <ele>365.3</ele>
        <time>2023-09-15T12:12:43Z</time>
      </trkpt>
      <trkpt lat="43.52694" lon="6.3144">
        <ele>365.4</ele>
        <time>2023-09-15T12:12:44Z</time>
      </trkpt>
      <trkpt lat="43.52694" lon="6.31439">
        <ele>365.4</ele>
        <time>2023-09-15T12:12:45Z</time>
      </trkpt>
      <trkpt lat="43.52695" lon="6.31437">
        <ele>365.4</ele>
        <time>2023-09-15T12:12:46Z</time>
      </trkpt>
      <trkpt lat="43.52695" lon="6.31436">
        <ele>365.5</ele>
        <time>2023-09-15T12:12:47Z</time>
      </trkpt>
      <trkpt lat="43.52696" lon="6.31434">
        <ele>365.5</ele>
        <time>2023-09-15T12:12:48Z</time>
      </trkpt>
      <trkpt lat="43.52696" lon="6.31433">
        <ele>365.5</ele>
        <time>2023-09-15T12:12:49Z</time>
      </trkpt>
      <trkpt lat="43.52696" lon="6.31432">
        <ele>365.5</ele>
        <time>2023-09-15T12:12:50Z</time>
      </trkpt>
      <trkpt lat="43.52696" lon="6.3143">
        <ele>365.5</ele>
        <time>2023-09-15T12:12:51Z</time>
      </trkpt>
      <trkpt lat="43.52697" lon="6.31429">
        <ele>365.5</ele>
        <time>2023-09-15T12:12:52Z</time>
      </trkpt>
      <trkpt lat="43.52697" lon="6.31427">
        <ele>365.5</ele>
        <time>2023-09-15T12:12:53Z</time>
      </trkpt>
      <trkpt lat="43.52697" lon="6.31426">
        <ele>365.6</ele>
        <time>2023-09-15T12:12:54Z</time>
      </trkpt>
      <trkpt lat="43.52698" lon="6.31425">
        <ele>365.7</ele>
        <time>2023-09-15T12:12:55Z</time>
      </trkpt>
      <trkpt lat="43.52698" lon="6.31424">
        <ele>365.7</ele>
        <time>2023-09-15T12:12:56Z</time>
      </trkpt>
      <trkpt lat="43.52699" lon="6.31422">
        <ele>365.8</ele>
        <time>2023-09-15T12:12:57Z</time>
      </trkpt>
      <trkpt lat="43.527" lon="6.31421">
        <ele>365.8</ele>
        <time>2023-09-15T12:12:58Z</time>
      </trkpt>
      <trkpt lat="43.527" lon="6.3142">
        <ele>365.8</ele>
        <time>2023-09-15T12:12:59Z</time>
      </trkpt>
      <trkpt lat="43.527" lon="6.31418">
        <ele>365.9</ele>
        <time>2023-09-15T12:13:00Z</time>
      </trkpt>
      <trkpt lat="43.527" lon="6.31417">
        <ele>365.9</ele>
        <time>2023-09-15T12:13:01Z</time>
      </trkpt>
      <trkpt lat="43.52701" lon="6.31416">
        <ele>365.7</ele>
        <time>2023-09-15T12:13:02Z</time>
      </trkpt>
      <trkpt lat="43.52701" lon="6.31415">
        <ele>365.7</ele>
        <time>2023-09-15T12:13:03Z</time>
      </trkpt>
      <trkpt lat="43.52702" lon="6.31414">
        <ele>365.8</ele>
        <time>2023-09-15T12:13:04Z</time>
      </trkpt>
      <trkpt lat="43.52702" lon="6.31413">
        <ele>365.9</ele>
        <time>2023-09-15T12:13:05Z</time>
      </trkpt>
      <trkpt lat="43.52703" lon="6.31412">
        <ele>365.9</ele>
        <time>2023-09-15T12:13:06Z</time>
      </trkpt>
      <trkpt lat="43.52703" lon="6.3141">
        <ele>365.9</ele>
        <time>2023-09-15T12:13:07Z</time>
      </trkpt>
      <trkpt lat="43.52703" lon="6.31409">
        <ele>366</ele>
        <time>2023-09-15T12:13:08Z</time>
      </trkpt>
      <trkpt lat="43.52704" lon="6.31408">
        <ele>366</ele>
        <time>2023-09-15T12:13:09Z</time>
      </trkpt>
      <trkpt lat="43.52705" lon="6.31407">
        <ele>366</ele>
        <time>2023-09-15T12:13:10Z</time>
      </trkpt>
      <trkpt lat="43.52705" lon="6.31406">
        <ele>366.1</ele>
        <time>2023-09-15T12:13:11Z</time>
      </trkpt>
      <trkpt lat="43.52705" lon="6.31405">
        <ele>366.1</ele>
        <time>2023-09-15T12:13:12Z</time>
      </trkpt>
      <trkpt lat="43.52706" lon="6.31404">
        <ele>366.1</ele>
        <time>2023-09-15T12:13:13Z</time>
      </trkpt>
      <trkpt lat="43.52706" lon="6.31402">
        <ele>366.3</ele>
        <time>2023-09-15T12:13:14Z</time>
      </trkpt>
      <trkpt lat="43.52706" lon="6.31401">
        <ele>366.4</ele>
        <time>2023-09-15T12:13:15Z</time>
      </trkpt>
      <trkpt lat="43.52706" lon="6.314">
        <ele>366.4</ele>
        <time>2023-09-15T12:13:16Z</time>
      </trkpt>
      <trkpt lat="43.52707" lon="6.31399">
        <ele>366.4</ele>
        <time>2023-09-15T12:13:17Z</time>
      </trkpt>
      <trkpt lat="43.52707" lon="6.31398">
        <ele>366.5</ele>
        <time>2023-09-15T12:13:18Z</time>
      </trkpt>
      <trkpt lat="43.52708" lon="6.31397">
        <ele>366.6</ele>
        <time>2023-09-15T12:13:19Z</time>
      </trkpt>
      <trkpt lat="43.52708" lon="6.31395">
        <ele>366.6</ele>
        <time>2023-09-15T12:13:20Z</time>
      </trkpt>
      <trkpt lat="43.52709" lon="6.31394">
        <ele>366.6</ele>
        <time>2023-09-15T12:13:21Z</time>
      </trkpt>
      <trkpt lat="43.52709" lon="6.31393">
        <ele>366.6</ele>
        <time>2023-09-15T12:13:22Z</time>
      </trkpt>
      <trkpt lat="43.52709" lon="6.31392">
        <ele>366.6</ele>
        <time>2023-09-15T12:13:23Z</time>
      </trkpt>
      <trkpt lat="43.52709" lon="6.31391">
        <ele>366.7</ele>
        <time>2023-09-15T12:13:24Z</time>
      </trkpt>
      <trkpt lat="43.52709" lon="6.31389">
        <ele>366.7</ele>
        <time>2023-09-15T12:13:25Z</time>
      </trkpt>
      <trkpt lat="43.52709" lon="6.31387">
        <ele>366.8</ele>
        <time>2023-09-15T12:13:26Z</time>
      </trkpt>
      <trkpt lat="43.5271" lon="6.31386">
        <ele>366.8</ele>
        <time>2023-09-15T12:13:27Z</time>
      </trkpt>
      <trkpt lat="43.5271" lon="6.31385">
        <ele>366.8</ele>
        <time>2023-09-15T12:13:28Z</time>
      </trkpt>
      <trkpt lat="43.52711" lon="6.31384">
        <ele>366.8</ele>
        <time>2023-09-15T12:13:29Z</time>
      </trkpt>
      <trkpt lat="43.52711" lon="6.31383">
        <ele>366.8</ele>
        <time>2023-09-15T12:13:30Z</time>
      </trkpt>
      <trkpt lat="43.52711" lon="6.31383">
        <ele>366.8</ele>
        <time>2023-09-15T12:13:31Z</time>
      </trkpt>
      <trkpt lat="43.52712" lon="6.31382">
        <ele>366.7</ele>
        <time>2023-09-15T12:13:32Z</time>
      </trkpt>
      <trkpt lat="43.52712" lon="6.3138">
        <ele>366.7</ele>
        <time>2023-09-15T12:13:33Z</time>
      </trkpt>
      <trkpt lat="43.52713" lon="6.31379">
        <ele>366.7</ele>
        <time>2023-09-15T12:13:34Z</time>
      </trkpt>
      <trkpt lat="43.52713" lon="6.31377">
        <ele>366.7</ele>
        <time>2023-09-15T12:13:35Z</time>
      </trkpt>
      <trkpt lat="43.52713" lon="6.31376">
        <ele>366.8</ele>
        <time>2023-09-15T12:13:36Z</time>
      </trkpt>
      <trkpt lat="43.52713" lon="6.31375">
        <ele>366.8</ele>
        <time>2023-09-15T12:13:37Z</time>
      </trkpt>
      <trkpt lat="43.52714" lon="6.31374">
        <ele>366.8</ele>
        <time>2023-09-15T12:13:38Z</time>
      </trkpt>
      <trkpt lat="43.52714" lon="6.31373">
        <ele>366.8</ele>
        <time>2023-09-15T12:13:39Z</time>
      </trkpt>
      <trkpt lat="43.52715" lon="6.31372">
        <ele>366.7</ele>
        <time>2023-09-15T12:13:40Z</time>
      </trkpt>
      <trkpt lat="43.52715" lon="6.31371">
        <ele>366.7</ele>
        <time>2023-09-15T12:13:41Z</time>
      </trkpt>
      <trkpt lat="43.52715" lon="6.31369">
        <ele>366.7</ele>
        <time>2023-09-15T12:13:42Z</time>
      </trkpt>
      <trkpt lat="43.52716" lon="6.31368">
        <ele>366.7</ele>
        <time>2023-09-15T12:13:43Z</time>
      </trkpt>
      <trkpt lat="43.52716" lon="6.31366">
        <ele>366.8</ele>
        <time>2023-09-15T12:13:44Z</time>
      </trkpt>
      <trkpt lat="43.52716" lon="6.31365">
        <ele>366.9</ele>
        <time>2023-09-15T12:13:45Z</time>
      </trkpt>
      <trkpt lat="43.52716" lon="6.31364">
        <ele>366.9</ele>
        <time>2023-09-15T12:13:46Z</time>
      </trkpt>
      <trkpt lat="43.52717" lon="6.31363">
        <ele>367</ele>
        <time>2023-09-15T12:13:47Z</time>
      </trkpt>
      <trkpt lat="43.52717" lon="6.31362">
        <ele>367</ele>
        <time>2023-09-15T12:13:48Z</time>
      </trkpt>
      <trkpt lat="43.52717" lon="6.31361">
        <ele>367</ele>
        <time>2023-09-15T12:13:49Z</time>
      </trkpt>
      <trkpt lat="43.52717" lon="6.3136">
        <ele>367</ele>
        <time>2023-09-15T12:13:50Z</time>
      </trkpt>
      <trkpt lat="43.52717" lon="6.31359">
        <ele>367</ele>
        <time>2023-09-15T12:13:51Z</time>
      </trkpt>
      <trkpt lat="43.52718" lon="6.31357">
        <ele>367.1</ele>
        <time>2023-09-15T12:13:52Z</time>
      </trkpt>
      <trkpt lat="43.52719" lon="6.31356">
        <ele>367.1</ele>
        <time>2023-09-15T12:13:53Z</time>
      </trkpt>
      <trkpt lat="43.52719" lon="6.31355">
        <ele>367.1</ele>
        <time>2023-09-15T12:13:54Z</time>
      </trkpt>
      <trkpt lat="43.5272" lon="6.31354">
        <ele>367.2</ele>
        <time>2023-09-15T12:13:55Z</time>
      </trkpt>
      <trkpt lat="43.5272" lon="6.31352">
        <ele>367.2</ele>
        <time>2023-09-15T12:13:56Z</time>
      </trkpt>
      <trkpt lat="43.5272" lon="6.31351">
        <ele>367.2</ele>
        <time>2023-09-15T12:13:57Z</time>
      </trkpt>
      <trkpt lat="43.52721" lon="6.31351">
        <ele>367.2</ele>
        <time>2023-09-15T12:13:58Z</time>
      </trkpt>
      <trkpt lat="43.52722" lon="6.3135">
        <ele>367.2</ele>
        <time>2023-09-15T12:13:59Z</time>
      </trkpt>
      <trkpt lat="43.52722" lon="6.31348">
        <ele>367.3</ele>
        <time>2023-09-15T12:14:00Z</time>
      </trkpt>
      <trkpt lat="43.52722" lon="6.31347">
        <ele>367.3</ele>
        <time>2023-09-15T12:14:01Z</time>
      </trkpt>
      <trkpt lat="43.52723" lon="6.31345">
        <ele>367.3</ele>
        <time>2023-09-15T12:14:02Z</time>
      </trkpt>
      <trkpt lat="43.52723" lon="6.31344">
        <ele>367.4</ele>
        <time>2023-09-15T12:14:03Z</time>
      </trkpt>
      <trkpt lat="43.52724" lon="6.31343">
        <ele>367.4</ele>
        <time>2023-09-15T12:14:04Z</time>
      </trkpt>
      <trkpt lat="43.52724" lon="6.31341">
        <ele>367.4</ele>
        <time>2023-09-15T12:14:05Z</time>
      </trkpt>
      <trkpt lat="43.52724" lon="6.31339">
        <ele>367.4</ele>
        <time>2023-09-15T12:14:06Z</time>
      </trkpt>
      <trkpt lat="43.52725" lon="6.31339">
        <ele>367.4</ele>
        <time>2023-09-15T12:14:07Z</time>
      </trkpt>
      <trkpt lat="43.52725" lon="6.31337">
        <ele>367.5</ele>
        <time>2023-09-15T12:14:08Z</time>
      </trkpt>
      <trkpt lat="43.52725" lon="6.31336">
        <ele>367.6</ele>
        <time>2023-09-15T12:14:09Z</time>
      </trkpt>
      <trkpt lat="43.52726" lon="6.31334">
        <ele>367.6</ele>
        <time>2023-09-15T12:14:10Z</time>
      </trkpt>
      <trkpt lat="43.52726" lon="6.31333">
        <ele>367.6</ele>
        <time>2023-09-15T12:14:11Z</time>
      </trkpt>
      <trkpt lat="43.52727" lon="6.31332">
        <ele>367.6</ele>
        <time>2023-09-15T12:14:12Z</time>
      </trkpt>
      <trkpt lat="43.52728" lon="6.31331">
        <ele>367.6</ele>
        <time>2023-09-15T12:14:13Z</time>
      </trkpt>
      <trkpt lat="43.52729" lon="6.3133">
        <ele>367.7</ele>
        <time>2023-09-15T12:14:14Z</time>
      </trkpt>
      <trkpt lat="43.52729" lon="6.31328">
        <ele>367.7</ele>
        <time>2023-09-15T12:14:15Z</time>
      </trkpt>
      <trkpt lat="43.5273" lon="6.31327">
        <ele>367.7</ele>
        <time>2023-09-15T12:14:16Z</time>
      </trkpt>
      <trkpt lat="43.5273" lon="6.31326">
        <ele>367.8</ele>
        <time>2023-09-15T12:14:17Z</time>
      </trkpt>
      <trkpt lat="43.5273" lon="6.31325">
        <ele>367.8</ele>
        <time>2023-09-15T12:14:18Z</time>
      </trkpt>
      <trkpt lat="43.52731" lon="6.31324">
        <ele>367.9</ele>
        <time>2023-09-15T12:14:19Z</time>
      </trkpt>
      <trkpt lat="43.52731" lon="6.31323">
        <ele>367.8</ele>
        <time>2023-09-15T12:14:20Z</time>
      </trkpt>
      <trkpt lat="43.52731" lon="6.31322">
        <ele>367.8</ele>
        <time>2023-09-15T12:14:21Z</time>
      </trkpt>
      <trkpt lat="43.52731" lon="6.31321">
        <ele>367.8</ele>
        <time>2023-09-15T12:14:22Z</time>
      </trkpt>
      <trkpt lat="43.52732" lon="6.3132">
        <ele>367.9</ele>
        <time>2023-09-15T12:14:23Z</time>
      </trkpt>
      <trkpt lat="43.52732" lon="6.31319">
        <ele>367.9</ele>
        <time>2023-09-15T12:14:24Z</time>
      </trkpt>
      <trkpt lat="43.52732" lon="6.31318">
        <ele>367.8</ele>
        <time>2023-09-15T12:14:25Z</time>
      </trkpt>
      <trkpt lat="43.52732" lon="6.31316">
        <ele>367.8</ele>
        <time>2023-09-15T12:14:26Z</time>
      </trkpt>
      <trkpt lat="43.52733" lon="6.31316">
        <ele>367.9</ele>
        <time>2023-09-15T12:14:27Z</time>
      </trkpt>
      <trkpt lat="43.52733" lon="6.31314">
        <ele>367.9</ele>
        <time>2023-09-15T12:14:28Z</time>
      </trkpt>
      <trkpt lat="43.52733" lon="6.31313">
        <ele>367.9</ele>
        <time>2023-09-15T12:14:29Z</time>
      </trkpt>
      <trkpt lat="43.52734" lon="6.31312">
        <ele>367.8</ele>
        <time>2023-09-15T12:14:30Z</time>
      </trkpt>
      <trkpt lat="43.52735" lon="6.3131">
        <ele>367.9</ele>
        <time>2023-09-15T12:14:31Z</time>
      </trkpt>
      <trkpt lat="43.52735" lon="6.31307">
        <ele>367.9</ele>
        <time>2023-09-15T12:14:32Z</time>
      </trkpt>
      <trkpt lat="43.52735" lon="6.31306">
        <ele>368</ele>
        <time>2023-09-15T12:14:33Z</time>
      </trkpt>
      <trkpt lat="43.52735" lon="6.31304">
        <ele>368.1</ele>
        <time>2023-09-15T12:14:34Z</time>
      </trkpt>
      <trkpt lat="43.52736" lon="6.31303">
        <ele>368.1</ele>
        <time>2023-09-15T12:14:35Z</time>
      </trkpt>
      <trkpt lat="43.52736" lon="6.31302">
        <ele>368.1</ele>
        <time>2023-09-15T12:14:36Z</time>
      </trkpt>
      <trkpt lat="43.52736" lon="6.313">
        <ele>368.1</ele>
        <time>2023-09-15T12:14:37Z</time>
      </trkpt>
      <trkpt lat="43.52737" lon="6.31299">
        <ele>368.2</ele>
        <time>2023-09-15T12:14:38Z</time>
      </trkpt>
      <trkpt lat="43.52737" lon="6.31297">
        <ele>368.2</ele>
        <time>2023-09-15T12:14:39Z</time>
      </trkpt>
      <trkpt lat="43.52737" lon="6.31296">
        <ele>368.3</ele>
        <time>2023-09-15T12:14:40Z</time>
      </trkpt>
      <trkpt lat="43.52738" lon="6.31294">
        <ele>368.2</ele>
        <time>2023-09-15T12:14:41Z</time>
      </trkpt>
      <trkpt lat="43.52739" lon="6.31293">
        <ele>368.2</ele>
        <time>2023-09-15T12:14:42Z</time>
      </trkpt>
      <trkpt lat="43.52739" lon="6.31293">
        <ele>368.2</ele>
        <time>2023-09-15T12:14:43Z</time>
      </trkpt>
      <trkpt lat="43.5274" lon="6.31292">
        <ele>368.2</ele>
        <time>2023-09-15T12:14:44Z</time>
      </trkpt>
      <trkpt lat="43.5274" lon="6.3129">
        <ele>368.2</ele>
        <time>2023-09-15T12:14:45Z</time>
      </trkpt>
      <trkpt lat="43.52741" lon="6.31289">
        <ele>368.2</ele>
        <time>2023-09-15T12:14:46Z</time>
      </trkpt>
      <trkpt lat="43.52741" lon="6.31288">
        <ele>368.2</ele>
        <time>2023-09-15T12:14:47Z</time>
      </trkpt>
      <trkpt lat="43.52741" lon="6.31287">
        <ele>368.3</ele>
        <time>2023-09-15T12:14:48Z</time>
      </trkpt>
      <trkpt lat="43.52741" lon="6.31285">
        <ele>368.3</ele>
        <time>2023-09-15T12:14:49Z</time>
      </trkpt>
      <trkpt lat="43.52742" lon="6.31283">
        <ele>368.4</ele>
        <time>2023-09-15T12:14:50Z</time>
      </trkpt>
      <trkpt lat="43.52743" lon="6.31282">
        <ele>368.4</ele>
        <time>2023-09-15T12:14:51Z</time>
      </trkpt>
      <trkpt lat="43.52743" lon="6.31281">
        <ele>368.4</ele>
        <time>2023-09-15T12:14:52Z</time>
      </trkpt>
      <trkpt lat="43.52744" lon="6.3128">
        <ele>368.5</ele>
        <time>2023-09-15T12:14:53Z</time>
      </trkpt>
      <trkpt lat="43.52745" lon="6.31278">
        <ele>368.5</ele>
        <time>2023-09-15T12:14:54Z</time>
      </trkpt>
      <trkpt lat="43.52745" lon="6.31277">
        <ele>368.5</ele>
        <time>2023-09-15T12:14:55Z</time>
      </trkpt>
      <trkpt lat="43.52746" lon="6.31275">
        <ele>368.5</ele>
        <time>2023-09-15T12:14:56Z</time>
      </trkpt>
      <trkpt lat="43.52746" lon="6.31274">
        <ele>368.5</ele>
        <time>2023-09-15T12:14:57Z</time>
      </trkpt>
      <trkpt lat="43.52746" lon="6.31273">
        <ele>368.6</ele>
        <time>2023-09-15T12:14:58Z</time>
      </trkpt>
      <trkpt lat="43.52746" lon="6.31271">
        <ele>368.7</ele>
        <time>2023-09-15T12:14:59Z</time>
      </trkpt>
      <trkpt lat="43.52747" lon="6.3127">
        <ele>368.8</ele>
        <time>2023-09-15T12:15:00Z</time>
      </trkpt>
      <trkpt lat="43.52747" lon="6.31269">
        <ele>368.8</ele>
        <time>2023-09-15T12:15:01Z</time>
      </trkpt>
      <trkpt lat="43.52748" lon="6.31268">
        <ele>369</ele>
        <time>2023-09-15T12:15:02Z</time>
      </trkpt>
      <trkpt lat="43.52748" lon="6.31266">
        <ele>369.1</ele>
        <time>2023-09-15T12:15:03Z</time>
      </trkpt>
      <trkpt lat="43.52749" lon="6.31265">
        <ele>369.1</ele>
        <time>2023-09-15T12:15:04Z</time>
      </trkpt>
      <trkpt lat="43.52749" lon="6.31264">
        <ele>369.2</ele>
        <time>2023-09-15T12:15:05Z</time>
      </trkpt>
      <trkpt lat="43.5275" lon="6.31263">
        <ele>369.4</ele>
        <time>2023-09-15T12:15:06Z</time>
      </trkpt>
      <trkpt lat="43.5275" lon="6.31262">
        <ele>369.5</ele>
        <time>2023-09-15T12:15:07Z</time>
      </trkpt>
      <trkpt lat="43.52751" lon="6.3126">
        <ele>369.5</ele>
        <time>2023-09-15T12:15:08Z</time>
      </trkpt>
      <trkpt lat="43.52751" lon="6.31259">
        <ele>369.6</ele>
        <time>2023-09-15T12:15:09Z</time>
      </trkpt>
      <trkpt lat="43.52751" lon="6.31258">
        <ele>369.6</ele>
        <time>2023-09-15T12:15:10Z</time>
      </trkpt>
      <trkpt lat="43.52751" lon="6.31257">
        <ele>369.6</ele>
        <time>2023-09-15T12:15:11Z</time>
      </trkpt>
      <trkpt lat="43.52752" lon="6.31255">
        <ele>369.6</ele>
        <time>2023-09-15T12:15:12Z</time>
      </trkpt>
      <trkpt lat="43.52752" lon="6.31254">
        <ele>369.6</ele>
        <time>2023-09-15T12:15:13Z</time>
      </trkpt>
      <trkpt lat="43.52752" lon="6.31252">
        <ele>369.7</ele>
        <time>2023-09-15T12:15:14Z</time>
      </trkpt>
      <trkpt lat="43.52752" lon="6.31251">
        <ele>369.8</ele>
        <time>2023-09-15T12:15:15Z</time>
      </trkpt>
      <trkpt lat="43.52752" lon="6.3125">
        <ele>369.9</ele>
        <time>2023-09-15T12:15:16Z</time>
      </trkpt>
      <trkpt lat="43.52753" lon="6.31248">
        <ele>369.9</ele>
        <time>2023-09-15T12:15:17Z</time>
      </trkpt>
      <trkpt lat="43.52754" lon="6.31247">
        <ele>369.9</ele>
        <time>2023-09-15T12:15:18Z</time>
      </trkpt>
      <trkpt lat="43.52754" lon="6.31246">
        <ele>369.9</ele>
        <time>2023-09-15T12:15:19Z</time>
      </trkpt>
      <trkpt lat="43.52755" lon="6.31245">
        <ele>369.8</ele>
        <time>2023-09-15T12:15:20Z</time>
      </trkpt>
      <trkpt lat="43.52755" lon="6.31244">
        <ele>369.8</ele>
        <time>2023-09-15T12:15:21Z</time>
      </trkpt>
      <trkpt lat="43.52755" lon="6.31244">
        <ele>369.8</ele>
        <time>2023-09-15T12:15:22Z</time>
      </trkpt>
      <trkpt lat="43.52755" lon="6.31242">
        <ele>369.8</ele>
        <time>2023-09-15T12:15:23Z</time>
      </trkpt>
      <trkpt lat="43.52756" lon="6.31241">
        <ele>369.9</ele>
        <time>2023-09-15T12:15:24Z</time>
      </trkpt>
      <trkpt lat="43.52756" lon="6.3124">
        <ele>369.9</ele>
        <time>2023-09-15T12:15:25Z</time>
      </trkpt>
      <trkpt lat="43.52756" lon="6.31239">
        <ele>370</ele>
        <time>2023-09-15T12:15:26Z</time>
      </trkpt>
      <trkpt lat="43.52757" lon="6.31237">
        <ele>370</ele>
        <time>2023-09-15T12:15:27Z</time>
      </trkpt>
      <trkpt lat="43.52758" lon="6.31236">
        <ele>370</ele>
        <time>2023-09-15T12:15:28Z</time>
      </trkpt>
      <trkpt lat="43.52758" lon="6.31235">
        <ele>370.1</ele>
        <time>2023-09-15T12:15:29Z</time>
      </trkpt>
      <trkpt lat="43.52759" lon="6.31234">
        <ele>370.1</ele>
        <time>2023-09-15T12:15:30Z</time>
      </trkpt>
      <trkpt lat="43.52759" lon="6.31234">
        <ele>370.1</ele>
        <time>2023-09-15T12:15:31Z</time>
      </trkpt>
      <trkpt lat="43.52759" lon="6.31233">
        <ele>370.1</ele>
        <time>2023-09-15T12:15:32Z</time>
      </trkpt>
      <trkpt lat="43.52759" lon="6.31232">
        <ele>370.1</ele>
        <time>2023-09-15T12:15:33Z</time>
      </trkpt>
      <trkpt lat="43.5276" lon="6.31231">
        <ele>370.2</ele>
        <time>2023-09-15T12:15:34Z</time>
      </trkpt>
      <trkpt lat="43.52761" lon="6.31231">
        <ele>370.2</ele>
        <time>2023-09-15T12:15:35Z</time>
      </trkpt>
      <trkpt lat="43.5276" lon="6.3123">
        <ele>370.2</ele>
        <time>2023-09-15T12:15:36Z</time>
      </trkpt>
      <trkpt lat="43.5276" lon="6.31229">
        <ele>370.2</ele>
        <time>2023-09-15T12:15:37Z</time>
      </trkpt>
      <trkpt lat="43.52759" lon="6.31228">
        <ele>370.2</ele>
        <time>2023-09-15T12:15:38Z</time>
      </trkpt>
      <trkpt lat="43.52759" lon="6.31228">
        <ele>370.2</ele>
        <time>2023-09-15T12:15:39Z</time>
      </trkpt>
      <trkpt lat="43.52759" lon="6.31228">
        <ele>370.2</ele>
        <time>2023-09-15T12:15:40Z</time>
      </trkpt>
      <trkpt lat="43.52759" lon="6.31227">
        <ele>370.3</ele>
        <time>2023-09-15T12:15:41Z</time>
      </trkpt>
      <trkpt lat="43.52759" lon="6.31227">
        <ele>370.3</ele>
        <time>2023-09-15T12:15:42Z</time>
      </trkpt>
      <trkpt lat="43.52758" lon="6.31227">
        <ele>370.3</ele>
        <time>2023-09-15T12:15:43Z</time>
      </trkpt>
      <trkpt lat="43.52758" lon="6.31227">
        <ele>370.3</ele>
        <time>2023-09-15T12:15:44Z</time>
      </trkpt>
      <trkpt lat="43.52758" lon="6.31227">
        <ele>370.4</ele>
        <time>2023-09-15T12:15:45Z</time>
      </trkpt>
      <trkpt lat="43.52758" lon="6.31227">
        <ele>370.3</ele>
        <time>2023-09-15T12:15:46Z</time>
      </trkpt>
      <trkpt lat="43.52758" lon="6.31226">
        <ele>370.2</ele>
        <time>2023-09-15T12:15:47Z</time>
      </trkpt>
      <trkpt lat="43.52759" lon="6.31226">
        <ele>370.2</ele>
        <time>2023-09-15T12:15:48Z</time>
      </trkpt>
      <trkpt lat="43.52759" lon="6.31226">
        <ele>370.2</ele>
        <time>2023-09-15T12:15:49Z</time>
      </trkpt>
      <trkpt lat="43.52759" lon="6.31226">
        <ele>370.1</ele>
        <time>2023-09-15T12:15:50Z</time>
      </trkpt>
      <trkpt lat="43.52759" lon="6.31226">
        <ele>370.1</ele>
        <time>2023-09-15T12:15:51Z</time>
      </trkpt>
      <trkpt lat="43.5276" lon="6.31226">
        <ele>370.1</ele>
        <time>2023-09-15T12:15:52Z</time>
      </trkpt>
      <trkpt lat="43.5276" lon="6.31226">
        <ele>370.2</ele>
        <time>2023-09-15T12:15:53Z</time>
      </trkpt>
      <trkpt lat="43.5276" lon="6.31226">
        <ele>370.3</ele>
        <time>2023-09-15T12:15:54Z</time>
      </trkpt>
      <trkpt lat="43.5276" lon="6.31226">
        <ele>370.4</ele>
        <time>2023-09-15T12:15:55Z</time>
      </trkpt>
      <trkpt lat="43.5276" lon="6.31225">
        <ele>370.4</ele>
        <time>2023-09-15T12:15:56Z</time>
      </trkpt>
      <trkpt lat="43.5276" lon="6.31225">
        <ele>370.4</ele>
        <time>2023-09-15T12:15:57Z</time>
      </trkpt>
      <trkpt lat="43.52761" lon="6.31226">
        <ele>370.5</ele>
        <time>2023-09-15T12:15:58Z</time>
      </trkpt>
      <trkpt lat="43.52761" lon="6.31226">
        <ele>370.4</ele>
        <time>2023-09-15T12:15:59Z</time>
      </trkpt>
      <trkpt lat="43.52761" lon="6.31226">
        <ele>370.4</ele>
        <time>2023-09-15T12:16:00Z</time>
      </trkpt>
      <trkpt lat="43.52761" lon="6.31225">
        <ele>370.5</ele>
        <time>2023-09-15T12:16:01Z</time>
      </trkpt>
      <trkpt lat="43.52761" lon="6.31225">
        <ele>370.6</ele>
        <time>2023-09-15T12:16:02Z</time>
      </trkpt>
      <trkpt lat="43.5276" lon="6.31225">
        <ele>370.6</ele>
        <time>2023-09-15T12:16:03Z</time>
      </trkpt>
      <trkpt lat="43.5276" lon="6.31225">
        <ele>370.6</ele>
        <time>2023-09-15T12:16:04Z</time>
      </trkpt>
      <trkpt lat="43.5276" lon="6.31225">
        <ele>370.6</ele>
        <time>2023-09-15T12:16:05Z</time>
      </trkpt>
      <trkpt lat="43.5276" lon="6.31224">
        <ele>370.6</ele>
        <time>2023-09-15T12:16:06Z</time>
      </trkpt>
      <trkpt lat="43.5276" lon="6.31224">
        <ele>370.6</ele>
        <time>2023-09-15T12:16:07Z</time>
      </trkpt>
      <trkpt lat="43.52759" lon="6.31224">
        <ele>370.6</ele>
        <time>2023-09-15T12:16:08Z</time>
      </trkpt>
      <trkpt lat="43.52759" lon="6.31224">
        <ele>370.6</ele>
        <time>2023-09-15T12:16:09Z</time>
      </trkpt>
      <trkpt lat="43.52759" lon="6.31224">
        <ele>370.5</ele>
        <time>2023-09-15T12:16:10Z</time>
      </trkpt>
      <trkpt lat="43.52758" lon="6.31223">
        <ele>370.5</ele>
        <time>2023-09-15T12:16:11Z</time>
      </trkpt>
      <trkpt lat="43.52758" lon="6.31224">
        <ele>370.4</ele>
        <time>2023-09-15T12:16:12Z</time>
      </trkpt>
      <trkpt lat="43.52758" lon="6.31224">
        <ele>370.3</ele>
        <time>2023-09-15T12:16:13Z</time>
      </trkpt>
      <trkpt lat="43.52758" lon="6.31224">
        <ele>370.3</ele>
        <time>2023-09-15T12:16:14Z</time>
      </trkpt>
      <trkpt lat="43.52758" lon="6.31223">
        <ele>370.3</ele>
        <time>2023-09-15T12:16:15Z</time>
      </trkpt>
      <trkpt lat="43.52758" lon="6.31223">
        <ele>370.3</ele>
        <time>2023-09-15T12:16:16Z</time>
      </trkpt>
      <trkpt lat="43.5276" lon="6.31223">
        <ele>370.4</ele>
        <time>2023-09-15T12:16:17Z</time>
      </trkpt>
      <trkpt lat="43.5276" lon="6.31222">
        <ele>370.4</ele>
        <time>2023-09-15T12:16:18Z</time>
      </trkpt>
      <trkpt lat="43.52761" lon="6.31221">
        <ele>370.4</ele>
        <time>2023-09-15T12:16:19Z</time>
      </trkpt>
      <trkpt lat="43.52761" lon="6.3122">
        <ele>370.4</ele>
        <time>2023-09-15T12:16:20Z</time>
      </trkpt>
      <trkpt lat="43.52762" lon="6.31219">
        <ele>370.5</ele>
        <time>2023-09-15T12:16:21Z</time>
      </trkpt>
      <trkpt lat="43.52763" lon="6.31217">
        <ele>370.5</ele>
        <time>2023-09-15T12:16:22Z</time>
      </trkpt>
      <trkpt lat="43.52763" lon="6.31216">
        <ele>370.6</ele>
        <time>2023-09-15T12:16:23Z</time>
      </trkpt>
      <trkpt lat="43.52764" lon="6.31215">
        <ele>370.6</ele>
        <time>2023-09-15T12:16:24Z</time>
      </trkpt>
      <trkpt lat="43.52764" lon="6.31215">
        <ele>370.6</ele>
        <time>2023-09-15T12:16:25Z</time>
      </trkpt>
      <trkpt lat="43.52763" lon="6.31214">
        <ele>370.7</ele>
        <time>2023-09-15T12:16:26Z</time>
      </trkpt>
      <trkpt lat="43.52763" lon="6.31214">
        <ele>370.7</ele>
        <time>2023-09-15T12:16:27Z</time>
      </trkpt>
      <trkpt lat="43.52763" lon="6.31213">
        <ele>370.7</ele>
        <time>2023-09-15T12:16:28Z</time>
      </trkpt>
      <trkpt lat="43.52763" lon="6.31213">
        <ele>370.7</ele>
        <time>2023-09-15T12:16:29Z</time>
      </trkpt>
      <trkpt lat="43.52763" lon="6.31213">
        <ele>370.6</ele>
        <time>2023-09-15T12:16:30Z</time>
      </trkpt>
      <trkpt lat="43.52763" lon="6.31213">
        <ele>370.6</ele>
        <time>2023-09-15T12:16:31Z</time>
      </trkpt>
      <trkpt lat="43.52763" lon="6.31213">
        <ele>370.6</ele>
        <time>2023-09-15T12:16:32Z</time>
      </trkpt>
      <trkpt lat="43.52763" lon="6.31213">
        <ele>370.6</ele>
        <time>2023-09-15T12:16:33Z</time>
      </trkpt>
      <trkpt lat="43.52763" lon="6.31212">
        <ele>370.8</ele>
        <time>2023-09-15T12:16:34Z</time>
      </trkpt>
      <trkpt lat="43.52763" lon="6.31212">
        <ele>370.8</ele>
        <time>2023-09-15T12:16:35Z</time>
      </trkpt>
      <trkpt lat="43.52763" lon="6.31212">
        <ele>370.9</ele>
        <time>2023-09-15T12:16:36Z</time>
      </trkpt>
      <trkpt lat="43.52763" lon="6.31212">
        <ele>370.9</ele>
        <time>2023-09-15T12:16:37Z</time>
      </trkpt>
      <trkpt lat="43.52763" lon="6.31212">
        <ele>371</ele>
        <time>2023-09-15T12:16:38Z</time>
      </trkpt>
      <trkpt lat="43.52763" lon="6.31211">
        <ele>371</ele>
        <time>2023-09-15T12:16:39Z</time>
      </trkpt>
      <trkpt lat="43.52763" lon="6.31211">
        <ele>371</ele>
        <time>2023-09-15T12:16:40Z</time>
      </trkpt>
      <trkpt lat="43.52763" lon="6.31211">
        <ele>371</ele>
        <time>2023-09-15T12:16:41Z</time>
      </trkpt>
      <trkpt lat="43.52763" lon="6.31211">
        <ele>371</ele>
        <time>2023-09-15T12:16:42Z</time>
      </trkpt>
      <trkpt lat="43.52763" lon="6.31211">
        <ele>371</ele>
        <time>2023-09-15T12:16:43Z</time>
      </trkpt>
      <trkpt lat="43.52764" lon="6.31211">
        <ele>371</ele>
        <time>2023-09-15T12:16:44Z</time>
      </trkpt>
      <trkpt lat="43.52764" lon="6.31211">
        <ele>371</ele>
        <time>2023-09-15T12:16:45Z</time>
      </trkpt>
      <trkpt lat="43.52764" lon="6.31211">
        <ele>371</ele>
        <time>2023-09-15T12:16:46Z</time>
      </trkpt>
      <trkpt lat="43.52764" lon="6.3121">
        <ele>371</ele>
        <time>2023-09-15T12:16:47Z</time>
      </trkpt>
      <trkpt lat="43.52764" lon="6.3121">
        <ele>371</ele>
        <time>2023-09-15T12:16:48Z</time>
      </trkpt>
      <trkpt lat="43.52764" lon="6.3121">
        <ele>371</ele>
        <time>2023-09-15T12:16:49Z</time>
      </trkpt>
      <trkpt lat="43.52764" lon="6.3121">
        <ele>371</ele>
        <time>2023-09-15T12:16:50Z</time>
      </trkpt>
      <trkpt lat="43.52764" lon="6.3121">
        <ele>371.1</ele>
        <time>2023-09-15T12:16:51Z</time>
      </trkpt>
      <trkpt lat="43.52764" lon="6.3121">
        <ele>371.1</ele>
        <time>2023-09-15T12:16:52Z</time>
      </trkpt>
      <trkpt lat="43.52765" lon="6.3121">
        <ele>371.2</ele>
        <time>2023-09-15T12:16:53Z</time>
      </trkpt>
      <trkpt lat="43.52765" lon="6.31209">
        <ele>371.2</ele>
        <time>2023-09-15T12:16:54Z</time>
      </trkpt>
      <trkpt lat="43.52765" lon="6.31209">
        <ele>371.3</ele>
        <time>2023-09-15T12:16:55Z</time>
      </trkpt>
      <trkpt lat="43.52765" lon="6.31209">
        <ele>371.3</ele>
        <time>2023-09-15T12:16:56Z</time>
      </trkpt>
      <trkpt lat="43.52765" lon="6.31209">
        <ele>371.4</ele>
        <time>2023-09-15T12:16:57Z</time>
      </trkpt>
      <trkpt lat="43.52765" lon="6.31209">
        <ele>371.4</ele>
        <time>2023-09-15T12:16:58Z</time>
      </trkpt>
      <trkpt lat="43.52765" lon="6.31209">
        <ele>371.5</ele>
        <time>2023-09-15T12:16:59Z</time>
      </trkpt>
      <trkpt lat="43.52764" lon="6.31209">
        <ele>371.5</ele>
        <time>2023-09-15T12:17:00Z</time>
      </trkpt>
      <trkpt lat="43.52764" lon="6.31209">
        <ele>371.4</ele>
        <time>2023-09-15T12:17:01Z</time>
      </trkpt>
      <trkpt lat="43.52764" lon="6.31209">
        <ele>371.4</ele>
        <time>2023-09-15T12:17:02Z</time>
      </trkpt>
      <trkpt lat="43.52764" lon="6.31209">
        <ele>371.3</ele>
        <time>2023-09-15T12:17:03Z</time>
      </trkpt>
      <trkpt lat="43.52764" lon="6.31209">
        <ele>371.2</ele>
        <time>2023-09-15T12:17:04Z</time>
      </trkpt>
      <trkpt lat="43.52764" lon="6.31209">
        <ele>371.2</ele>
        <time>2023-09-15T12:17:05Z</time>
      </trkpt>
      <trkpt lat="43.52764" lon="6.31209">
        <ele>371.1</ele>
        <time>2023-09-15T12:17:06Z</time>
      </trkpt>
      <trkpt lat="43.52764" lon="6.31209">
        <ele>371</ele>
        <time>2023-09-15T12:17:07Z</time>
      </trkpt>
      <trkpt lat="43.52765" lon="6.31209">
        <ele>371</ele>
        <time>2023-09-15T12:17:08Z</time>
      </trkpt>
      <trkpt lat="43.52765" lon="6.31209">
        <ele>371</ele>
        <time>2023-09-15T12:17:09Z</time>
      </trkpt>
      <trkpt lat="43.52765" lon="6.31209">
        <ele>371</ele>
        <time>2023-09-15T12:17:10Z</time>
      </trkpt>
      <trkpt lat="43.52766" lon="6.31208">
        <ele>371</ele>
        <time>2023-09-15T12:17:11Z</time>
      </trkpt>
      <trkpt lat="43.52766" lon="6.31207">
        <ele>371</ele>
        <time>2023-09-15T12:17:12Z</time>
      </trkpt>
      <trkpt lat="43.52766" lon="6.31206">
        <ele>371</ele>
        <time>2023-09-15T12:17:13Z</time>
      </trkpt>
      <trkpt lat="43.52766" lon="6.31205">
        <ele>371</ele>
        <time>2023-09-15T12:17:14Z</time>
      </trkpt>
      <trkpt lat="43.52767" lon="6.31203">
        <ele>371</ele>
        <time>2023-09-15T12:17:15Z</time>
      </trkpt>
      <trkpt lat="43.52767" lon="6.31202">
        <ele>371</ele>
        <time>2023-09-15T12:17:16Z</time>
      </trkpt>
      <trkpt lat="43.52766" lon="6.312">
        <ele>371</ele>
        <time>2023-09-15T12:17:17Z</time>
      </trkpt>
      <trkpt lat="43.52766" lon="6.31199">
        <ele>371.1</ele>
        <time>2023-09-15T12:17:18Z</time>
      </trkpt>
      <trkpt lat="43.52765" lon="6.31199">
        <ele>371.2</ele>
        <time>2023-09-15T12:17:19Z</time>
      </trkpt>
      <trkpt lat="43.52766" lon="6.31199">
        <ele>371.3</ele>
        <time>2023-09-15T12:17:20Z</time>
      </trkpt>
      <trkpt lat="43.52766" lon="6.31199">
        <ele>371.3</ele>
        <time>2023-09-15T12:17:21Z</time>
      </trkpt>
      <trkpt lat="43.52765" lon="6.31199">
        <ele>371.4</ele>
        <time>2023-09-15T12:17:22Z</time>
      </trkpt>
      <trkpt lat="43.52765" lon="6.31198">
        <ele>371.5</ele>
        <time>2023-09-15T12:17:23Z</time>
      </trkpt>
      <trkpt lat="43.52765" lon="6.31198">
        <ele>371.6</ele>
        <time>2023-09-15T12:17:24Z</time>
      </trkpt>
      <trkpt lat="43.52765" lon="6.31198">
        <ele>371.6</ele>
        <time>2023-09-15T12:17:25Z</time>
      </trkpt>
      <trkpt lat="43.52765" lon="6.31198">
        <ele>371.7</ele>
        <time>2023-09-15T12:17:26Z</time>
      </trkpt>
      <trkpt lat="43.52765" lon="6.31198">
        <ele>371.7</ele>
        <time>2023-09-15T12:17:27Z</time>
      </trkpt>
      <trkpt lat="43.52765" lon="6.31198">
        <ele>371.6</ele>
        <time>2023-09-15T12:17:28Z</time>
      </trkpt>
      <trkpt lat="43.52765" lon="6.31198">
        <ele>371.6</ele>
        <time>2023-09-15T12:17:29Z</time>
      </trkpt>
      <trkpt lat="43.52765" lon="6.31198">
        <ele>371.5</ele>
        <time>2023-09-15T12:17:30Z</time>
      </trkpt>
      <trkpt lat="43.52765" lon="6.31198">
        <ele>371.5</ele>
        <time>2023-09-15T12:17:31Z</time>
      </trkpt>
      <trkpt lat="43.52765" lon="6.31198">
        <ele>371.5</ele>
        <time>2023-09-15T12:17:32Z</time>
      </trkpt>
      <trkpt lat="43.52764" lon="6.31198">
        <ele>371.5</ele>
        <time>2023-09-15T12:17:33Z</time>
      </trkpt>
      <trkpt lat="43.52764" lon="6.31198">
        <ele>371.4</ele>
        <time>2023-09-15T12:17:34Z</time>
      </trkpt>
      <trkpt lat="43.52764" lon="6.31198">
        <ele>371.4</ele>
        <time>2023-09-15T12:17:35Z</time>
      </trkpt>
      <trkpt lat="43.52764" lon="6.31199">
        <ele>371.4</ele>
        <time>2023-09-15T12:17:36Z</time>
      </trkpt>
      <trkpt lat="43.52763" lon="6.31199">
        <ele>371.4</ele>
        <time>2023-09-15T12:17:37Z</time>
      </trkpt>
      <trkpt lat="43.52763" lon="6.312">
        <ele>371.4</ele>
        <time>2023-09-15T12:17:38Z</time>
      </trkpt>
      <trkpt lat="43.52763" lon="6.31201">
        <ele>371.4</ele>
        <time>2023-09-15T12:17:39Z</time>
      </trkpt>
      <trkpt lat="43.52762" lon="6.31201">
        <ele>371.4</ele>
        <time>2023-09-15T12:17:40Z</time>
      </trkpt>
      <trkpt lat="43.52762" lon="6.31202">
        <ele>371.4</ele>
        <time>2023-09-15T12:17:41Z</time>
      </trkpt>
      <trkpt lat="43.52762" lon="6.31202">
        <ele>371.4</ele>
        <time>2023-09-15T12:17:42Z</time>
      </trkpt>
      <trkpt lat="43.52763" lon="6.31202">
        <ele>371.5</ele>
        <time>2023-09-15T12:17:43Z</time>
      </trkpt>
      <trkpt lat="43.52763" lon="6.31202">
        <ele>371.4</ele>
        <time>2023-09-15T12:17:44Z</time>
      </trkpt>
      <trkpt lat="43.52763" lon="6.31202">
        <ele>371.4</ele>
        <time>2023-09-15T12:17:45Z</time>
      </trkpt>
      <trkpt lat="43.52763" lon="6.31203">
        <ele>371.4</ele>
        <time>2023-09-15T12:17:46Z</time>
      </trkpt>
      <trkpt lat="43.52763" lon="6.31203">
        <ele>371.4</ele>
        <time>2023-09-15T12:17:47Z</time>
      </trkpt>
      <trkpt lat="43.52763" lon="6.31203">
        <ele>371.4</ele>
        <time>2023-09-15T12:17:48Z</time>
      </trkpt>
      <trkpt lat="43.52763" lon="6.31203">
        <ele>371.3</ele>
        <time>2023-09-15T12:17:49Z</time>
      </trkpt>
      <trkpt lat="43.52763" lon="6.31203">
        <ele>371.3</ele>
        <time>2023-09-15T12:17:50Z</time>
      </trkpt>
      <trkpt lat="43.52763" lon="6.31203">
        <ele>371.3</ele>
        <time>2023-09-15T12:17:51Z</time>
      </trkpt>
      <trkpt lat="43.52763" lon="6.31203">
        <ele>371.2</ele>
        <time>2023-09-15T12:17:52Z</time>
      </trkpt>
      <trkpt lat="43.52764" lon="6.31204">
        <ele>371.2</ele>
        <time>2023-09-15T12:17:53Z</time>
      </trkpt>
      <trkpt lat="43.52764" lon="6.31204">
        <ele>371.2</ele>
        <time>2023-09-15T12:17:54Z</time>
      </trkpt>
      <trkpt lat="43.52764" lon="6.31204">
        <ele>371.1</ele>
        <time>2023-09-15T12:17:55Z</time>
      </trkpt>
      <trkpt lat="43.52764" lon="6.31204">
        <ele>371.1</ele>
        <time>2023-09-15T12:17:56Z</time>
      </trkpt>
      <trkpt lat="43.52764" lon="6.31204">
        <ele>371.2</ele>
        <time>2023-09-15T12:17:57Z</time>
      </trkpt>
      <trkpt lat="43.52764" lon="6.31204">
        <ele>371.2</ele>
        <time>2023-09-15T12:17:58Z</time>
      </trkpt>
      <trkpt lat="43.52764" lon="6.31204">
        <ele>371.2</ele>
        <time>2023-09-15T12:17:59Z</time>
      </trkpt>
      <trkpt lat="43.52765" lon="6.31204">
        <ele>371.2</ele>
        <time>2023-09-15T12:18:00Z</time>
      </trkpt>
      <trkpt lat="43.52765" lon="6.31204">
        <ele>371.1</ele>
        <time>2023-09-15T12:18:01Z</time>
      </trkpt>
      <trkpt lat="43.52765" lon="6.31204">
        <ele>371.1</ele>
        <time>2023-09-15T12:18:02Z</time>
      </trkpt>
      <trkpt lat="43.52765" lon="6.31204">
        <ele>371.1</ele>
        <time>2023-09-15T12:18:03Z</time>
      </trkpt>
      <trkpt lat="43.52765" lon="6.31204">
        <ele>371.1</ele>
        <time>2023-09-15T12:18:04Z</time>
      </trkpt>
      <trkpt lat="43.52765" lon="6.31204">
        <ele>371.1</ele>
        <time>2023-09-15T12:18:05Z</time>
      </trkpt>
      <trkpt lat="43.52764" lon="6.31205">
        <ele>371.1</ele>
        <time>2023-09-15T12:18:06Z</time>
      </trkpt>
      <trkpt lat="43.52764" lon="6.31205">
        <ele>371.2</ele>
        <time>2023-09-15T12:18:07Z</time>
      </trkpt>
      <trkpt lat="43.52764" lon="6.31206">
        <ele>371.3</ele>
        <time>2023-09-15T12:18:08Z</time>
      </trkpt>
      <trkpt lat="43.52764" lon="6.31206">
        <ele>371.3</ele>
        <time>2023-09-15T12:18:09Z</time>
      </trkpt>
      <trkpt lat="43.52764" lon="6.31207">
        <ele>371.3</ele>
        <time>2023-09-15T12:18:10Z</time>
      </trkpt>
      <trkpt lat="43.52763" lon="6.31207">
        <ele>371.3</ele>
        <time>2023-09-15T12:18:11Z</time>
      </trkpt>
      <trkpt lat="43.52763" lon="6.31207">
        <ele>371.2</ele>
        <time>2023-09-15T12:18:12Z</time>
      </trkpt>
      <trkpt lat="43.52763" lon="6.31207">
        <ele>370.7</ele>
        <time>2023-09-15T12:18:13Z</time>
      </trkpt>
      <trkpt lat="43.52763" lon="6.31208">
        <ele>370.8</ele>
        <time>2023-09-15T12:18:14Z</time>
      </trkpt>
      <trkpt lat="43.52763" lon="6.31209">
        <ele>370.9</ele>
        <time>2023-09-15T12:18:15Z</time>
      </trkpt>
      <trkpt lat="43.52763" lon="6.31209">
        <ele>370.9</ele>
        <time>2023-09-15T12:18:16Z</time>
      </trkpt>
      <trkpt lat="43.52763" lon="6.31209">
        <ele>370.9</ele>
        <time>2023-09-15T12:18:17Z</time>
      </trkpt>
      <trkpt lat="43.52763" lon="6.31208">
        <ele>371</ele>
        <time>2023-09-15T12:18:18Z</time>
      </trkpt>
      <trkpt lat="43.52764" lon="6.31207">
        <ele>371.1</ele>
        <time>2023-09-15T12:18:19Z</time>
      </trkpt>
      <trkpt lat="43.52764" lon="6.31206">
        <ele>371.1</ele>
        <time>2023-09-15T12:18:20Z</time>
      </trkpt>
      <trkpt lat="43.52764" lon="6.31206">
        <ele>371.2</ele>
        <time>2023-09-15T12:18:21Z</time>
      </trkpt>
      <trkpt lat="43.52765" lon="6.31205">
        <ele>371.3</ele>
        <time>2023-09-15T12:18:22Z</time>
      </trkpt>
      <trkpt lat="43.52766" lon="6.31205">
        <ele>371.3</ele>
        <time>2023-09-15T12:18:23Z</time>
      </trkpt>
      <trkpt lat="43.52766" lon="6.31204">
        <ele>371.2</ele>
        <time>2023-09-15T12:18:24Z</time>
      </trkpt>
      <trkpt lat="43.52766" lon="6.31203">
        <ele>371.4</ele>
        <time>2023-09-15T12:18:25Z</time>
      </trkpt>
      <trkpt lat="43.52766" lon="6.31202">
        <ele>371.5</ele>
        <time>2023-09-15T12:18:26Z</time>
      </trkpt>
      <trkpt lat="43.52766" lon="6.31201">
        <ele>371.6</ele>
        <time>2023-09-15T12:18:27Z</time>
      </trkpt>
      <trkpt lat="43.52766" lon="6.31201">
        <ele>371.6</ele>
        <time>2023-09-15T12:18:28Z</time>
      </trkpt>
      <trkpt lat="43.52766" lon="6.31201">
        <ele>371.6</ele>
        <time>2023-09-15T12:18:29Z</time>
      </trkpt>
      <trkpt lat="43.52766" lon="6.31201">
        <ele>371.7</ele>
        <time>2023-09-15T12:18:30Z</time>
      </trkpt>
      <trkpt lat="43.52767" lon="6.31201">
        <ele>371.8</ele>
        <time>2023-09-15T12:18:31Z</time>
      </trkpt>
      <trkpt lat="43.52767" lon="6.31201">
        <ele>371.8</ele>
        <time>2023-09-15T12:18:32Z</time>
      </trkpt>
      <trkpt lat="43.52766" lon="6.31201">
        <ele>371.8</ele>
        <time>2023-09-15T12:18:33Z</time>
      </trkpt>
      <trkpt lat="43.52766" lon="6.31201">
        <ele>371.8</ele>
        <time>2023-09-15T12:18:34Z</time>
      </trkpt>
      <trkpt lat="43.52766" lon="6.31201">
        <ele>371.7</ele>
        <time>2023-09-15T12:18:35Z</time>
      </trkpt>
      <trkpt lat="43.52766" lon="6.31201">
        <ele>371.7</ele>
        <time>2023-09-15T12:18:36Z</time>
      </trkpt>
      <trkpt lat="43.52767" lon="6.31201">
        <ele>371.7</ele>
        <time>2023-09-15T12:18:37Z</time>
      </trkpt>
      <trkpt lat="43.52767" lon="6.31201">
        <ele>371.6</ele>
        <time>2023-09-15T12:18:38Z</time>
      </trkpt>
      <trkpt lat="43.52767" lon="6.31201">
        <ele>371.6</ele>
        <time>2023-09-15T12:18:39Z</time>
      </trkpt>
      <trkpt lat="43.52767" lon="6.31202">
        <ele>371.6</ele>
        <time>2023-09-15T12:18:40Z</time>
      </trkpt>
      <trkpt lat="43.52768" lon="6.31201">
        <ele>371.5</ele>
        <time>2023-09-15T12:18:41Z</time>
      </trkpt>
      <trkpt lat="43.52768" lon="6.312">
        <ele>371.6</ele>
        <time>2023-09-15T12:18:42Z</time>
      </trkpt>
      <trkpt lat="43.52769" lon="6.31199">
        <ele>371.6</ele>
        <time>2023-09-15T12:18:43Z</time>
      </trkpt>
      <trkpt lat="43.52769" lon="6.31198">
        <ele>371.6</ele>
        <time>2023-09-15T12:18:44Z</time>
      </trkpt>
      <trkpt lat="43.52769" lon="6.31197">
        <ele>371.7</ele>
        <time>2023-09-15T12:18:45Z</time>
      </trkpt>
      <trkpt lat="43.52769" lon="6.31196">
        <ele>371.7</ele>
        <time>2023-09-15T12:18:46Z</time>
      </trkpt>
      <trkpt lat="43.5277" lon="6.31195">
        <ele>371.7</ele>
        <time>2023-09-15T12:18:47Z</time>
      </trkpt>
      <trkpt lat="43.5277" lon="6.31194">
        <ele>371.8</ele>
        <time>2023-09-15T12:18:48Z</time>
      </trkpt>
      <trkpt lat="43.52771" lon="6.31193">
        <ele>371.8</ele>
        <time>2023-09-15T12:18:49Z</time>
      </trkpt>
      <trkpt lat="43.52771" lon="6.31192">
        <ele>371.8</ele>
        <time>2023-09-15T12:18:50Z</time>
      </trkpt>
      <trkpt lat="43.52772" lon="6.31191">
        <ele>371.9</ele>
        <time>2023-09-15T12:18:51Z</time>
      </trkpt>
      <trkpt lat="43.52772" lon="6.3119">
        <ele>371.9</ele>
        <time>2023-09-15T12:18:52Z</time>
      </trkpt>
      <trkpt lat="43.52773" lon="6.31189">
        <ele>372</ele>
        <time>2023-09-15T12:18:53Z</time>
      </trkpt>
      <trkpt lat="43.52773" lon="6.31188">
        <ele>372.1</ele>
        <time>2023-09-15T12:18:54Z</time>
      </trkpt>
      <trkpt lat="43.52773" lon="6.31187">
        <ele>372.1</ele>
        <time>2023-09-15T12:18:55Z</time>
      </trkpt>
      <trkpt lat="43.52773" lon="6.31186">
        <ele>372.2</ele>
        <time>2023-09-15T12:18:56Z</time>
      </trkpt>
      <trkpt lat="43.52774" lon="6.31186">
        <ele>372.2</ele>
        <time>2023-09-15T12:18:57Z</time>
      </trkpt>
      <trkpt lat="43.52774" lon="6.31185">
        <ele>372.3</ele>
        <time>2023-09-15T12:18:58Z</time>
      </trkpt>
      <trkpt lat="43.52774" lon="6.31183">
        <ele>372.4</ele>
        <time>2023-09-15T12:18:59Z</time>
      </trkpt>
      <trkpt lat="43.52775" lon="6.31182">
        <ele>372.4</ele>
        <time>2023-09-15T12:19:00Z</time>
      </trkpt>
      <trkpt lat="43.52775" lon="6.31181">
        <ele>372.5</ele>
        <time>2023-09-15T12:19:01Z</time>
      </trkpt>
      <trkpt lat="43.52775" lon="6.3118">
        <ele>372.5</ele>
        <time>2023-09-15T12:19:02Z</time>
      </trkpt>
      <trkpt lat="43.52775" lon="6.31179">
        <ele>372.5</ele>
        <time>2023-09-15T12:19:03Z</time>
      </trkpt>
      <trkpt lat="43.52776" lon="6.31178">
        <ele>372.6</ele>
        <time>2023-09-15T12:19:04Z</time>
      </trkpt>
      <trkpt lat="43.52776" lon="6.31177">
        <ele>372.6</ele>
        <time>2023-09-15T12:19:05Z</time>
      </trkpt>
      <trkpt lat="43.52776" lon="6.31176">
        <ele>372.8</ele>
        <time>2023-09-15T12:19:06Z</time>
      </trkpt>
      <trkpt lat="43.52776" lon="6.31175">
        <ele>372.9</ele>
        <time>2023-09-15T12:19:07Z</time>
      </trkpt>
      <trkpt lat="43.52777" lon="6.31174">
        <ele>373</ele>
        <time>2023-09-15T12:19:08Z</time>
      </trkpt>
      <trkpt lat="43.52778" lon="6.31173">
        <ele>373.1</ele>
        <time>2023-09-15T12:19:09Z</time>
      </trkpt>
      <trkpt lat="43.52778" lon="6.31171">
        <ele>373.2</ele>
        <time>2023-09-15T12:19:10Z</time>
      </trkpt>
      <trkpt lat="43.52778" lon="6.31171">
        <ele>373.2</ele>
        <time>2023-09-15T12:19:11Z</time>
      </trkpt>
      <trkpt lat="43.52778" lon="6.31169">
        <ele>373.1</ele>
        <time>2023-09-15T12:19:12Z</time>
      </trkpt>
      <trkpt lat="43.52778" lon="6.31167">
        <ele>373.2</ele>
        <time>2023-09-15T12:19:13Z</time>
      </trkpt>
      <trkpt lat="43.52779" lon="6.31166">
        <ele>373.4</ele>
        <time>2023-09-15T12:19:14Z</time>
      </trkpt>
      <trkpt lat="43.5278" lon="6.31165">
        <ele>373.6</ele>
        <time>2023-09-15T12:19:15Z</time>
      </trkpt>
      <trkpt lat="43.5278" lon="6.31164">
        <ele>373.6</ele>
        <time>2023-09-15T12:19:16Z</time>
      </trkpt>
      <trkpt lat="43.5278" lon="6.31162">
        <ele>373.7</ele>
        <time>2023-09-15T12:19:17Z</time>
      </trkpt>
      <trkpt lat="43.5278" lon="6.3116">
        <ele>373.8</ele>
        <time>2023-09-15T12:19:18Z</time>
      </trkpt>
      <trkpt lat="43.52781" lon="6.31159">
        <ele>373.8</ele>
        <time>2023-09-15T12:19:19Z</time>
      </trkpt>
      <trkpt lat="43.52782" lon="6.31158">
        <ele>373.8</ele>
        <time>2023-09-15T12:19:20Z</time>
      </trkpt>
      <trkpt lat="43.52782" lon="6.31157">
        <ele>373.9</ele>
        <time>2023-09-15T12:19:21Z</time>
      </trkpt>
      <trkpt lat="43.52782" lon="6.31155">
        <ele>373.9</ele>
        <time>2023-09-15T12:19:22Z</time>
      </trkpt>
      <trkpt lat="43.52782" lon="6.31154">
        <ele>374.1</ele>
        <time>2023-09-15T12:19:23Z</time>
      </trkpt>
      <trkpt lat="43.52783" lon="6.31153">
        <ele>374.1</ele>
        <time>2023-09-15T12:19:24Z</time>
      </trkpt>
      <trkpt lat="43.52783" lon="6.31152">
        <ele>374.1</ele>
        <time>2023-09-15T12:19:25Z</time>
      </trkpt>
      <trkpt lat="43.52784" lon="6.31151">
        <ele>374.1</ele>
        <time>2023-09-15T12:19:26Z</time>
      </trkpt>
      <trkpt lat="43.52784" lon="6.3115">
        <ele>374.1</ele>
        <time>2023-09-15T12:19:27Z</time>
      </trkpt>
      <trkpt lat="43.52784" lon="6.31149">
        <ele>374.2</ele>
        <time>2023-09-15T12:19:28Z</time>
      </trkpt>
      <trkpt lat="43.52785" lon="6.31148">
        <ele>374.2</ele>
        <time>2023-09-15T12:19:29Z</time>
      </trkpt>
      <trkpt lat="43.52786" lon="6.31147">
        <ele>374.4</ele>
        <time>2023-09-15T12:19:30Z</time>
      </trkpt>
      <trkpt lat="43.52786" lon="6.31146">
        <ele>374.3</ele>
        <time>2023-09-15T12:19:31Z</time>
      </trkpt>
      <trkpt lat="43.52787" lon="6.31145">
        <ele>374.4</ele>
        <time>2023-09-15T12:19:32Z</time>
      </trkpt>
      <trkpt lat="43.52788" lon="6.31144">
        <ele>374.4</ele>
        <time>2023-09-15T12:19:33Z</time>
      </trkpt>
      <trkpt lat="43.52788" lon="6.31143">
        <ele>374.5</ele>
        <time>2023-09-15T12:19:34Z</time>
      </trkpt>
      <trkpt lat="43.52789" lon="6.31142">
        <ele>374.5</ele>
        <time>2023-09-15T12:19:35Z</time>
      </trkpt>
      <trkpt lat="43.5279" lon="6.31141">
        <ele>374.6</ele>
        <time>2023-09-15T12:19:36Z</time>
      </trkpt>
      <trkpt lat="43.5279" lon="6.3114">
        <ele>374.6</ele>
        <time>2023-09-15T12:19:37Z</time>
      </trkpt>
      <trkpt lat="43.52791" lon="6.31139">
        <ele>374.7</ele>
        <time>2023-09-15T12:19:38Z</time>
      </trkpt>
      <trkpt lat="43.52791" lon="6.31137">
        <ele>374.6</ele>
        <time>2023-09-15T12:19:39Z</time>
      </trkpt>
      <trkpt lat="43.52792" lon="6.31136">
        <ele>375.4</ele>
        <time>2023-09-15T12:19:40Z</time>
      </trkpt>
      <trkpt lat="43.52792" lon="6.31135">
        <ele>375.3</ele>
        <time>2023-09-15T12:19:41Z</time>
      </trkpt>
      <trkpt lat="43.52793" lon="6.31134">
        <ele>375.3</ele>
        <time>2023-09-15T12:19:42Z</time>
      </trkpt>
      <trkpt lat="43.52792" lon="6.31133">
        <ele>375.3</ele>
        <time>2023-09-15T12:19:43Z</time>
      </trkpt>
      <trkpt lat="43.52793" lon="6.31133">
        <ele>375.3</ele>
        <time>2023-09-15T12:19:44Z</time>
      </trkpt>
      <trkpt lat="43.52793" lon="6.31133">
        <ele>375.3</ele>
        <time>2023-09-15T12:19:45Z</time>
      </trkpt>
      <trkpt lat="43.52793" lon="6.31131">
        <ele>375.3</ele>
        <time>2023-09-15T12:19:46Z</time>
      </trkpt>
      <trkpt lat="43.52794" lon="6.3113">
        <ele>375.2</ele>
        <time>2023-09-15T12:19:47Z</time>
      </trkpt>
      <trkpt lat="43.52795" lon="6.31129">
        <ele>375.2</ele>
        <time>2023-09-15T12:19:48Z</time>
      </trkpt>
      <trkpt lat="43.52795" lon="6.31127">
        <ele>375.2</ele>
        <time>2023-09-15T12:19:49Z</time>
      </trkpt>
      <trkpt lat="43.52796" lon="6.31126">
        <ele>375.5</ele>
        <time>2023-09-15T12:19:50Z</time>
      </trkpt>
      <trkpt lat="43.52797" lon="6.31125">
        <ele>375.2</ele>
        <time>2023-09-15T12:19:51Z</time>
      </trkpt>
      <trkpt lat="43.52796" lon="6.31124">
        <ele>375.2</ele>
        <time>2023-09-15T12:19:52Z</time>
      </trkpt>
      <trkpt lat="43.52796" lon="6.31122">
        <ele>375.2</ele>
        <time>2023-09-15T12:19:53Z</time>
      </trkpt>
      <trkpt lat="43.52797" lon="6.31122">
        <ele>375.1</ele>
        <time>2023-09-15T12:19:54Z</time>
      </trkpt>
      <trkpt lat="43.52796" lon="6.31121">
        <ele>375.1</ele>
        <time>2023-09-15T12:19:55Z</time>
      </trkpt>
      <trkpt lat="43.52796" lon="6.31121">
        <ele>375.1</ele>
        <time>2023-09-15T12:19:56Z</time>
      </trkpt>
      <trkpt lat="43.52797" lon="6.3112">
        <ele>375.1</ele>
        <time>2023-09-15T12:19:57Z</time>
      </trkpt>
      <trkpt lat="43.52797" lon="6.31119">
        <ele>375.2</ele>
        <time>2023-09-15T12:19:58Z</time>
      </trkpt>
      <trkpt lat="43.52797" lon="6.31118">
        <ele>375.2</ele>
        <time>2023-09-15T12:19:59Z</time>
      </trkpt>
      <trkpt lat="43.52797" lon="6.31117">
        <ele>375.2</ele>
        <time>2023-09-15T12:20:00Z</time>
      </trkpt>
      <trkpt lat="43.52797" lon="6.31116">
        <ele>375.2</ele>
        <time>2023-09-15T12:20:01Z</time>
      </trkpt>
      <trkpt lat="43.52797" lon="6.31116">
        <ele>375.2</ele>
        <time>2023-09-15T12:20:02Z</time>
      </trkpt>
      <trkpt lat="43.52797" lon="6.31115">
        <ele>375.2</ele>
        <time>2023-09-15T12:20:03Z</time>
      </trkpt>
      <trkpt lat="43.52797" lon="6.31113">
        <ele>375.2</ele>
        <time>2023-09-15T12:20:04Z</time>
      </trkpt>
      <trkpt lat="43.52798" lon="6.31111">
        <ele>375.3</ele>
        <time>2023-09-15T12:20:05Z</time>
      </trkpt>
      <trkpt lat="43.52798" lon="6.3111">
        <ele>375.3</ele>
        <time>2023-09-15T12:20:06Z</time>
      </trkpt>
      <trkpt lat="43.52799" lon="6.31108">
        <ele>375.3</ele>
        <time>2023-09-15T12:20:07Z</time>
      </trkpt>
      <trkpt lat="43.52799" lon="6.31107">
        <ele>375.3</ele>
        <time>2023-09-15T12:20:08Z</time>
      </trkpt>
      <trkpt lat="43.528" lon="6.31106">
        <ele>375.4</ele>
        <time>2023-09-15T12:20:09Z</time>
      </trkpt>
      <trkpt lat="43.52801" lon="6.31104">
        <ele>375.4</ele>
        <time>2023-09-15T12:20:10Z</time>
      </trkpt>
      <trkpt lat="43.52802" lon="6.31103">
        <ele>375.5</ele>
        <time>2023-09-15T12:20:11Z</time>
      </trkpt>
      <trkpt lat="43.52803" lon="6.31101">
        <ele>375.5</ele>
        <time>2023-09-15T12:20:12Z</time>
      </trkpt>
      <trkpt lat="43.52803" lon="6.311">
        <ele>375.7</ele>
        <time>2023-09-15T12:20:13Z</time>
      </trkpt>
      <trkpt lat="43.52804" lon="6.31098">
        <ele>375.8</ele>
        <time>2023-09-15T12:20:14Z</time>
      </trkpt>
      <trkpt lat="43.52804" lon="6.31096">
        <ele>375.9</ele>
        <time>2023-09-15T12:20:15Z</time>
      </trkpt>
      <trkpt lat="43.52805" lon="6.31095">
        <ele>376</ele>
        <time>2023-09-15T12:20:16Z</time>
      </trkpt>
      <trkpt lat="43.52805" lon="6.31093">
        <ele>376.1</ele>
        <time>2023-09-15T12:20:17Z</time>
      </trkpt>
      <trkpt lat="43.52805" lon="6.31092">
        <ele>376.1</ele>
        <time>2023-09-15T12:20:18Z</time>
      </trkpt>
      <trkpt lat="43.52805" lon="6.31091">
        <ele>376.2</ele>
        <time>2023-09-15T12:20:19Z</time>
      </trkpt>
      <trkpt lat="43.52806" lon="6.3109">
        <ele>376.1</ele>
        <time>2023-09-15T12:20:20Z</time>
      </trkpt>
      <trkpt lat="43.52806" lon="6.31089">
        <ele>376.2</ele>
        <time>2023-09-15T12:20:21Z</time>
      </trkpt>
      <trkpt lat="43.52806" lon="6.31088">
        <ele>376.2</ele>
        <time>2023-09-15T12:20:22Z</time>
      </trkpt>
      <trkpt lat="43.52806" lon="6.31087">
        <ele>376.3</ele>
        <time>2023-09-15T12:20:23Z</time>
      </trkpt>
      <trkpt lat="43.52806" lon="6.31087">
        <ele>376.3</ele>
        <time>2023-09-15T12:20:24Z</time>
      </trkpt>
      <trkpt lat="43.52807" lon="6.31086">
        <ele>376.4</ele>
        <time>2023-09-15T12:20:25Z</time>
      </trkpt>
      <trkpt lat="43.52807" lon="6.31086">
        <ele>376.4</ele>
        <time>2023-09-15T12:20:26Z</time>
      </trkpt>
      <trkpt lat="43.52807" lon="6.31085">
        <ele>376.5</ele>
        <time>2023-09-15T12:20:27Z</time>
      </trkpt>
      <trkpt lat="43.52808" lon="6.31085">
        <ele>376.6</ele>
        <time>2023-09-15T12:20:28Z</time>
      </trkpt>
      <trkpt lat="43.52808" lon="6.31084">
        <ele>376.6</ele>
        <time>2023-09-15T12:20:29Z</time>
      </trkpt>
      <trkpt lat="43.52808" lon="6.31083">
        <ele>376.6</ele>
        <time>2023-09-15T12:20:30Z</time>
      </trkpt>
      <trkpt lat="43.52808" lon="6.31082">
        <ele>376.6</ele>
        <time>2023-09-15T12:20:31Z</time>
      </trkpt>
      <trkpt lat="43.52808" lon="6.31082">
        <ele>376.6</ele>
        <time>2023-09-15T12:20:32Z</time>
      </trkpt>
      <trkpt lat="43.52808" lon="6.31081">
        <ele>376.5</ele>
        <time>2023-09-15T12:20:33Z</time>
      </trkpt>
      <trkpt lat="43.52808" lon="6.31081">
        <ele>376.6</ele>
        <time>2023-09-15T12:20:34Z</time>
      </trkpt>
      <trkpt lat="43.52808" lon="6.31082">
        <ele>376.6</ele>
        <time>2023-09-15T12:20:35Z</time>
      </trkpt>
      <trkpt lat="43.52808" lon="6.31082">
        <ele>376.6</ele>
        <time>2023-09-15T12:20:36Z</time>
      </trkpt>
      <trkpt lat="43.52809" lon="6.31082">
        <ele>376.6</ele>
        <time>2023-09-15T12:20:37Z</time>
      </trkpt>
      <trkpt lat="43.52809" lon="6.31082">
        <ele>376.6</ele>
        <time>2023-09-15T12:20:38Z</time>
      </trkpt>
      <trkpt lat="43.52809" lon="6.31082">
        <ele>376.6</ele>
        <time>2023-09-15T12:20:39Z</time>
      </trkpt>
      <trkpt lat="43.52809" lon="6.31082">
        <ele>376.6</ele>
        <time>2023-09-15T12:20:40Z</time>
      </trkpt>
      <trkpt lat="43.52809" lon="6.31081">
        <ele>376.6</ele>
        <time>2023-09-15T12:20:41Z</time>
      </trkpt>
      <trkpt lat="43.52809" lon="6.31081">
        <ele>376.6</ele>
        <time>2023-09-15T12:20:42Z</time>
      </trkpt>
      <trkpt lat="43.52809" lon="6.31081">
        <ele>376.6</ele>
        <time>2023-09-15T12:20:43Z</time>
      </trkpt>
      <trkpt lat="43.52809" lon="6.3108">
        <ele>376.6</ele>
        <time>2023-09-15T12:20:44Z</time>
      </trkpt>
      <trkpt lat="43.52809" lon="6.31079">
        <ele>376.6</ele>
        <time>2023-09-15T12:20:45Z</time>
      </trkpt>
      <trkpt lat="43.5281" lon="6.31079">
        <ele>376.6</ele>
        <time>2023-09-15T12:20:46Z</time>
      </trkpt>
      <trkpt lat="43.5281" lon="6.31078">
        <ele>376.6</ele>
        <time>2023-09-15T12:20:47Z</time>
      </trkpt>
      <trkpt lat="43.52809" lon="6.31078">
        <ele>376.6</ele>
        <time>2023-09-15T12:20:48Z</time>
      </trkpt>
      <trkpt lat="43.52809" lon="6.31078">
        <ele>376.6</ele>
        <time>2023-09-15T12:20:49Z</time>
      </trkpt>
      <trkpt lat="43.5281" lon="6.31077">
        <ele>376.7</ele>
        <time>2023-09-15T12:20:50Z</time>
      </trkpt>
      <trkpt lat="43.5281" lon="6.31077">
        <ele>376.8</ele>
        <time>2023-09-15T12:20:51Z</time>
      </trkpt>
      <trkpt lat="43.5281" lon="6.31076">
        <ele>376.8</ele>
        <time>2023-09-15T12:20:52Z</time>
      </trkpt>
      <trkpt lat="43.5281" lon="6.31076">
        <ele>376.9</ele>
        <time>2023-09-15T12:20:53Z</time>
      </trkpt>
      <trkpt lat="43.52811" lon="6.31076">
        <ele>376.9</ele>
        <time>2023-09-15T12:20:54Z</time>
      </trkpt>
      <trkpt lat="43.52811" lon="6.31076">
        <ele>376.8</ele>
        <time>2023-09-15T12:20:55Z</time>
      </trkpt>
      <trkpt lat="43.52811" lon="6.31075">
        <ele>376.8</ele>
        <time>2023-09-15T12:20:56Z</time>
      </trkpt>
      <trkpt lat="43.52812" lon="6.31075">
        <ele>376.8</ele>
        <time>2023-09-15T12:20:57Z</time>
      </trkpt>
      <trkpt lat="43.52812" lon="6.31075">
        <ele>376.8</ele>
        <time>2023-09-15T12:20:58Z</time>
      </trkpt>
      <trkpt lat="43.52812" lon="6.31075">
        <ele>376.8</ele>
        <time>2023-09-15T12:20:59Z</time>
      </trkpt>
      <trkpt lat="43.52812" lon="6.31075">
        <ele>376.8</ele>
        <time>2023-09-15T12:21:00Z</time>
      </trkpt>
      <trkpt lat="43.52812" lon="6.31074">
        <ele>376.8</ele>
        <time>2023-09-15T12:21:01Z</time>
      </trkpt>
      <trkpt lat="43.52812" lon="6.31074">
        <ele>376.7</ele>
        <time>2023-09-15T12:21:02Z</time>
      </trkpt>
      <trkpt lat="43.52813" lon="6.31074">
        <ele>376.7</ele>
        <time>2023-09-15T12:21:03Z</time>
      </trkpt>
      <trkpt lat="43.52813" lon="6.31073">
        <ele>376.7</ele>
        <time>2023-09-15T12:21:04Z</time>
      </trkpt>
      <trkpt lat="43.52813" lon="6.31073">
        <ele>376.7</ele>
        <time>2023-09-15T12:21:05Z</time>
      </trkpt>
      <trkpt lat="43.52813" lon="6.31073">
        <ele>376.7</ele>
        <time>2023-09-15T12:21:06Z</time>
      </trkpt>
      <trkpt lat="43.52813" lon="6.31073">
        <ele>376.6</ele>
        <time>2023-09-15T12:21:07Z</time>
      </trkpt>
      <trkpt lat="43.52813" lon="6.31073">
        <ele>376.6</ele>
        <time>2023-09-15T12:21:08Z</time>
      </trkpt>
      <trkpt lat="43.52813" lon="6.31073">
        <ele>376.6</ele>
        <time>2023-09-15T12:21:09Z</time>
      </trkpt>
      <trkpt lat="43.52813" lon="6.31072">
        <ele>376.6</ele>
        <time>2023-09-15T12:21:10Z</time>
      </trkpt>
      <trkpt lat="43.52813" lon="6.31072">
        <ele>376.6</ele>
        <time>2023-09-15T12:21:11Z</time>
      </trkpt>
      <trkpt lat="43.52813" lon="6.31073">
        <ele>376.5</ele>
        <time>2023-09-15T12:21:12Z</time>
      </trkpt>
      <trkpt lat="43.52813" lon="6.31072">
        <ele>376.5</ele>
        <time>2023-09-15T12:21:13Z</time>
      </trkpt>
      <trkpt lat="43.52813" lon="6.31073">
        <ele>376.5</ele>
        <time>2023-09-15T12:21:14Z</time>
      </trkpt>
      <trkpt lat="43.52813" lon="6.31073">
        <ele>376.4</ele>
        <time>2023-09-15T12:21:15Z</time>
      </trkpt>
      <trkpt lat="43.52813" lon="6.31073">
        <ele>376.3</ele>
        <time>2023-09-15T12:21:16Z</time>
      </trkpt>
      <trkpt lat="43.52813" lon="6.31073">
        <ele>376.3</ele>
        <time>2023-09-15T12:21:17Z</time>
      </trkpt>
      <trkpt lat="43.52813" lon="6.31073">
        <ele>376.2</ele>
        <time>2023-09-15T12:21:18Z</time>
      </trkpt>
      <trkpt lat="43.52813" lon="6.31073">
        <ele>376.2</ele>
        <time>2023-09-15T12:21:19Z</time>
      </trkpt>
      <trkpt lat="43.52813" lon="6.31073">
        <ele>376.2</ele>
        <time>2023-09-15T12:21:20Z</time>
      </trkpt>
      <trkpt lat="43.52813" lon="6.31073">
        <ele>376.1</ele>
        <time>2023-09-15T12:21:21Z</time>
      </trkpt>
      <trkpt lat="43.52813" lon="6.31073">
        <ele>376.1</ele>
        <time>2023-09-15T12:21:22Z</time>
      </trkpt>
      <trkpt lat="43.52813" lon="6.31073">
        <ele>376.1</ele>
        <time>2023-09-15T12:21:23Z</time>
      </trkpt>
      <trkpt lat="43.52813" lon="6.31073">
        <ele>376.2</ele>
        <time>2023-09-15T12:21:24Z</time>
      </trkpt>
      <trkpt lat="43.52813" lon="6.31073">
        <ele>376.4</ele>
        <time>2023-09-15T12:21:25Z</time>
      </trkpt>
      <trkpt lat="43.52813" lon="6.31074">
        <ele>376.4</ele>
        <time>2023-09-15T12:21:26Z</time>
      </trkpt>
      <trkpt lat="43.52813" lon="6.31074">
        <ele>376.5</ele>
        <time>2023-09-15T12:21:27Z</time>
      </trkpt>
      <trkpt lat="43.52813" lon="6.31074">
        <ele>376.4</ele>
        <time>2023-09-15T12:21:28Z</time>
      </trkpt>
      <trkpt lat="43.52813" lon="6.31073">
        <ele>376.4</ele>
        <time>2023-09-15T12:21:29Z</time>
      </trkpt>
      <trkpt lat="43.52813" lon="6.31073">
        <ele>376.4</ele>
        <time>2023-09-15T12:21:30Z</time>
      </trkpt>
      <trkpt lat="43.52813" lon="6.31073">
        <ele>376.4</ele>
        <time>2023-09-15T12:21:31Z</time>
      </trkpt>
      <trkpt lat="43.52813" lon="6.31074">
        <ele>376.4</ele>
        <time>2023-09-15T12:21:32Z</time>
      </trkpt>
      <trkpt lat="43.52813" lon="6.31073">
        <ele>376.4</ele>
        <time>2023-09-15T12:21:33Z</time>
      </trkpt>
      <trkpt lat="43.52812" lon="6.31073">
        <ele>376.4</ele>
        <time>2023-09-15T12:21:34Z</time>
      </trkpt>
      <trkpt lat="43.52812" lon="6.31073">
        <ele>376.5</ele>
        <time>2023-09-15T12:21:35Z</time>
      </trkpt>
      <trkpt lat="43.52813" lon="6.31073">
        <ele>376.5</ele>
        <time>2023-09-15T12:21:36Z</time>
      </trkpt>
      <trkpt lat="43.52813" lon="6.31073">
        <ele>376.5</ele>
        <time>2023-09-15T12:21:37Z</time>
      </trkpt>
      <trkpt lat="43.52813" lon="6.31072">
        <ele>376.5</ele>
        <time>2023-09-15T12:21:38Z</time>
      </trkpt>
      <trkpt lat="43.52812" lon="6.31072">
        <ele>376.5</ele>
        <time>2023-09-15T12:21:39Z</time>
      </trkpt>
      <trkpt lat="43.52812" lon="6.31072">
        <ele>376.5</ele>
        <time>2023-09-15T12:21:40Z</time>
      </trkpt>
      <trkpt lat="43.52812" lon="6.31073">
        <ele>376.5</ele>
        <time>2023-09-15T12:21:41Z</time>
      </trkpt>
      <trkpt lat="43.52812" lon="6.31073">
        <ele>376.6</ele>
        <time>2023-09-15T12:21:42Z</time>
      </trkpt>
      <trkpt lat="43.52812" lon="6.31074">
        <ele>376.6</ele>
        <time>2023-09-15T12:21:43Z</time>
      </trkpt>
      <trkpt lat="43.52812" lon="6.31074">
        <ele>376.6</ele>
        <time>2023-09-15T12:21:44Z</time>
      </trkpt>
      <trkpt lat="43.52812" lon="6.31073">
        <ele>376.7</ele>
        <time>2023-09-15T12:21:45Z</time>
      </trkpt>
      <trkpt lat="43.52812" lon="6.31073">
        <ele>376.7</ele>
        <time>2023-09-15T12:21:46Z</time>
      </trkpt>
      <trkpt lat="43.52812" lon="6.31073">
        <ele>376.8</ele>
        <time>2023-09-15T12:21:47Z</time>
      </trkpt>
      <trkpt lat="43.52812" lon="6.31073">
        <ele>376.8</ele>
        <time>2023-09-15T12:21:48Z</time>
      </trkpt>
      <trkpt lat="43.52812" lon="6.31073">
        <ele>376.8</ele>
        <time>2023-09-15T12:21:49Z</time>
      </trkpt>
      <trkpt lat="43.52812" lon="6.31073">
        <ele>376.9</ele>
        <time>2023-09-15T12:21:50Z</time>
      </trkpt>
      <trkpt lat="43.52812" lon="6.31073">
        <ele>376.9</ele>
        <time>2023-09-15T12:21:51Z</time>
      </trkpt>
      <trkpt lat="43.52812" lon="6.31073">
        <ele>377</ele>
        <time>2023-09-15T12:21:52Z</time>
      </trkpt>
      <trkpt lat="43.52812" lon="6.31073">
        <ele>377</ele>
        <time>2023-09-15T12:21:53Z</time>
      </trkpt>
      <trkpt lat="43.52812" lon="6.31073">
        <ele>377</ele>
        <time>2023-09-15T12:21:54Z</time>
      </trkpt>
      <trkpt lat="43.52813" lon="6.31073">
        <ele>377</ele>
        <time>2023-09-15T12:21:55Z</time>
      </trkpt>
      <trkpt lat="43.52813" lon="6.31073">
        <ele>377</ele>
        <time>2023-09-15T12:21:56Z</time>
      </trkpt>
      <trkpt lat="43.52813" lon="6.31073">
        <ele>377</ele>
        <time>2023-09-15T12:21:57Z</time>
      </trkpt>
      <trkpt lat="43.52813" lon="6.31073">
        <ele>377</ele>
        <time>2023-09-15T12:21:58Z</time>
      </trkpt>
      <trkpt lat="43.52813" lon="6.31073">
        <ele>376.9</ele>
        <time>2023-09-15T12:21:59Z</time>
      </trkpt>
      <trkpt lat="43.52813" lon="6.31073">
        <ele>376.9</ele>
        <time>2023-09-15T12:22:00Z</time>
      </trkpt>
      <trkpt lat="43.52813" lon="6.31073">
        <ele>376.9</ele>
        <time>2023-09-15T12:22:01Z</time>
      </trkpt>
      <trkpt lat="43.52813" lon="6.31073">
        <ele>376.9</ele>
        <time>2023-09-15T12:22:02Z</time>
      </trkpt>
      <trkpt lat="43.52813" lon="6.31073">
        <ele>376.9</ele>
        <time>2023-09-15T12:22:03Z</time>
      </trkpt>
      <trkpt lat="43.52813" lon="6.31073">
        <ele>376.8</ele>
        <time>2023-09-15T12:22:04Z</time>
      </trkpt>
      <trkpt lat="43.52813" lon="6.31073">
        <ele>376.8</ele>
        <time>2023-09-15T12:22:05Z</time>
      </trkpt>
      <trkpt lat="43.52813" lon="6.31073">
        <ele>376.8</ele>
        <time>2023-09-15T12:22:06Z</time>
      </trkpt>
      <trkpt lat="43.52813" lon="6.31073">
        <ele>376.8</ele>
        <time>2023-09-15T12:22:07Z</time>
      </trkpt>
      <trkpt lat="43.52813" lon="6.31073">
        <ele>376.7</ele>
        <time>2023-09-15T12:22:08Z</time>
      </trkpt>
      <trkpt lat="43.52813" lon="6.31073">
        <ele>376.7</ele>
        <time>2023-09-15T12:22:09Z</time>
      </trkpt>
      <trkpt lat="43.52813" lon="6.31072">
        <ele>376.7</ele>
        <time>2023-09-15T12:22:10Z</time>
      </trkpt>
      <trkpt lat="43.52813" lon="6.31072">
        <ele>376.7</ele>
        <time>2023-09-15T12:22:11Z</time>
      </trkpt>
      <trkpt lat="43.52812" lon="6.31072">
        <ele>376.7</ele>
        <time>2023-09-15T12:22:12Z</time>
      </trkpt>
      <trkpt lat="43.52812" lon="6.31072">
        <ele>376.7</ele>
        <time>2023-09-15T12:22:13Z</time>
      </trkpt>
      <trkpt lat="43.52813" lon="6.31072">
        <ele>376.8</ele>
        <time>2023-09-15T12:22:14Z</time>
      </trkpt>
      <trkpt lat="43.52813" lon="6.31072">
        <ele>376.8</ele>
        <time>2023-09-15T12:22:15Z</time>
      </trkpt>
      <trkpt lat="43.52813" lon="6.31072">
        <ele>376.8</ele>
        <time>2023-09-15T12:22:16Z</time>
      </trkpt>
      <trkpt lat="43.52813" lon="6.31072">
        <ele>376.7</ele>
        <time>2023-09-15T12:22:17Z</time>
      </trkpt>
      <trkpt lat="43.52813" lon="6.31072">
        <ele>376.8</ele>
        <time>2023-09-15T12:22:18Z</time>
      </trkpt>
      <trkpt lat="43.52813" lon="6.31072">
        <ele>376.8</ele>
        <time>2023-09-15T12:22:19Z</time>
      </trkpt>
      <trkpt lat="43.52813" lon="6.31072">
        <ele>376.8</ele>
        <time>2023-09-15T12:22:20Z</time>
      </trkpt>
      <trkpt lat="43.52812" lon="6.31072">
        <ele>376.8</ele>
        <time>2023-09-15T12:22:21Z</time>
      </trkpt>
      <trkpt lat="43.52812" lon="6.31071">
        <ele>376.8</ele>
        <time>2023-09-15T12:22:22Z</time>
      </trkpt>
      <trkpt lat="43.52812" lon="6.31072">
        <ele>376.8</ele>
        <time>2023-09-15T12:22:23Z</time>
      </trkpt>
      <trkpt lat="43.52812" lon="6.31072">
        <ele>376.7</ele>
        <time>2023-09-15T12:22:24Z</time>
      </trkpt>
      <trkpt lat="43.52812" lon="6.31072">
        <ele>376.7</ele>
        <time>2023-09-15T12:22:25Z</time>
      </trkpt>
      <trkpt lat="43.52812" lon="6.31072">
        <ele>376.8</ele>
        <time>2023-09-15T12:22:26Z</time>
      </trkpt>
      <trkpt lat="43.52813" lon="6.31072">
        <ele>376.8</ele>
        <time>2023-09-15T12:22:27Z</time>
      </trkpt>
      <trkpt lat="43.52813" lon="6.31072">
        <ele>376.8</ele>
        <time>2023-09-15T12:22:28Z</time>
      </trkpt>
      <trkpt lat="43.52813" lon="6.31072">
        <ele>376.8</ele>
        <time>2023-09-15T12:22:29Z</time>
      </trkpt>
      <trkpt lat="43.52813" lon="6.31072">
        <ele>376.8</ele>
        <time>2023-09-15T12:22:30Z</time>
      </trkpt>
      <trkpt lat="43.52813" lon="6.31072">
        <ele>376.8</ele>
        <time>2023-09-15T12:22:31Z</time>
      </trkpt>
      <trkpt lat="43.52813" lon="6.31072">
        <ele>376.8</ele>
        <time>2023-09-15T12:22:32Z</time>
      </trkpt>
      <trkpt lat="43.52813" lon="6.31072">
        <ele>376.8</ele>
        <time>2023-09-15T12:22:33Z</time>
      </trkpt>
      <trkpt lat="43.52813" lon="6.31072">
        <ele>376.8</ele>
        <time>2023-09-15T12:22:34Z</time>
      </trkpt>
      <trkpt lat="43.52813" lon="6.31072">
        <ele>376.8</ele>
        <time>2023-09-15T12:22:35Z</time>
      </trkpt>
      <trkpt lat="43.52813" lon="6.31072">
        <ele>376.8</ele>
        <time>2023-09-15T12:22:36Z</time>
      </trkpt>
      <trkpt lat="43.52813" lon="6.31072">
        <ele>376.8</ele>
        <time>2023-09-15T12:22:37Z</time>
      </trkpt>
      <trkpt lat="43.52813" lon="6.31072">
        <ele>376.8</ele>
        <time>2023-09-15T12:22:38Z</time>
      </trkpt>
      <trkpt lat="43.52813" lon="6.31072">
        <ele>376.8</ele>
        <time>2023-09-15T12:22:39Z</time>
      </trkpt>
      <trkpt lat="43.52813" lon="6.31071">
        <ele>376.9</ele>
        <time>2023-09-15T12:22:40Z</time>
      </trkpt>
      <trkpt lat="43.52813" lon="6.31071">
        <ele>376.9</ele>
        <time>2023-09-15T12:22:41Z</time>
      </trkpt>
      <trkpt lat="43.52813" lon="6.31071">
        <ele>377</ele>
        <time>2023-09-15T12:22:42Z</time>
      </trkpt>
      <trkpt lat="43.52813" lon="6.31071">
        <ele>377</ele>
        <time>2023-09-15T12:22:43Z</time>
      </trkpt>
      <trkpt lat="43.52813" lon="6.31071">
        <ele>377</ele>
        <time>2023-09-15T12:22:44Z</time>
      </trkpt>
      <trkpt lat="43.52813" lon="6.31071">
        <ele>377</ele>
        <time>2023-09-15T12:22:45Z</time>
      </trkpt>
      <trkpt lat="43.52813" lon="6.31071">
        <ele>377</ele>
        <time>2023-09-15T12:22:46Z</time>
      </trkpt>
      <trkpt lat="43.52813" lon="6.31071">
        <ele>377</ele>
        <time>2023-09-15T12:22:47Z</time>
      </trkpt>
      <trkpt lat="43.52813" lon="6.3107">
        <ele>376.9</ele>
        <time>2023-09-15T12:22:48Z</time>
      </trkpt>
      <trkpt lat="43.52813" lon="6.3107">
        <ele>376.9</ele>
        <time>2023-09-15T12:22:49Z</time>
      </trkpt>
      <trkpt lat="43.52813" lon="6.3107">
        <ele>376.8</ele>
        <time>2023-09-15T12:22:50Z</time>
      </trkpt>
      <trkpt lat="43.52813" lon="6.3107">
        <ele>376.8</ele>
        <time>2023-09-15T12:22:51Z</time>
      </trkpt>
      <trkpt lat="43.52813" lon="6.3107">
        <ele>376.8</ele>
        <time>2023-09-15T12:22:52Z</time>
      </trkpt>
      <trkpt lat="43.52813" lon="6.3107">
        <ele>376.7</ele>
        <time>2023-09-15T12:22:53Z</time>
      </trkpt>
      <trkpt lat="43.52813" lon="6.3107">
        <ele>376.7</ele>
        <time>2023-09-15T12:22:54Z</time>
      </trkpt>
      <trkpt lat="43.52813" lon="6.31069">
        <ele>376.7</ele>
        <time>2023-09-15T12:22:55Z</time>
      </trkpt>
      <trkpt lat="43.52813" lon="6.31069">
        <ele>376.7</ele>
        <time>2023-09-15T12:22:56Z</time>
      </trkpt>
      <trkpt lat="43.52812" lon="6.31069">
        <ele>376.8</ele>
        <time>2023-09-15T12:22:57Z</time>
      </trkpt>
      <trkpt lat="43.52812" lon="6.31069">
        <ele>376.8</ele>
        <time>2023-09-15T12:22:58Z</time>
      </trkpt>
      <trkpt lat="43.52812" lon="6.31069">
        <ele>376.8</ele>
        <time>2023-09-15T12:22:59Z</time>
      </trkpt>
      <trkpt lat="43.52812" lon="6.31069">
        <ele>376.8</ele>
        <time>2023-09-15T12:23:00Z</time>
      </trkpt>
      <trkpt lat="43.52812" lon="6.31069">
        <ele>376.8</ele>
        <time>2023-09-15T12:23:01Z</time>
      </trkpt>
      <trkpt lat="43.52812" lon="6.31069">
        <ele>376.9</ele>
        <time>2023-09-15T12:23:02Z</time>
      </trkpt>
      <trkpt lat="43.52813" lon="6.3107">
        <ele>376.9</ele>
        <time>2023-09-15T12:23:03Z</time>
      </trkpt>
      <trkpt lat="43.52813" lon="6.3107">
        <ele>377</ele>
        <time>2023-09-15T12:23:04Z</time>
      </trkpt>
      <trkpt lat="43.52813" lon="6.3107">
        <ele>377.1</ele>
        <time>2023-09-15T12:23:05Z</time>
      </trkpt>
      <trkpt lat="43.52813" lon="6.3107">
        <ele>377</ele>
        <time>2023-09-15T12:23:06Z</time>
      </trkpt>
      <trkpt lat="43.52813" lon="6.3107">
        <ele>376.8</ele>
        <time>2023-09-15T12:23:07Z</time>
      </trkpt>
      <trkpt lat="43.52813" lon="6.3107">
        <ele>376.7</ele>
        <time>2023-09-15T12:23:08Z</time>
      </trkpt>
      <trkpt lat="43.52813" lon="6.3107">
        <ele>376.6</ele>
        <time>2023-09-15T12:23:09Z</time>
      </trkpt>
      <trkpt lat="43.52813" lon="6.3107">
        <ele>376.6</ele>
        <time>2023-09-15T12:23:10Z</time>
      </trkpt>
      <trkpt lat="43.52813" lon="6.3107">
        <ele>376.6</ele>
        <time>2023-09-15T12:23:11Z</time>
      </trkpt>
      <trkpt lat="43.52813" lon="6.3107">
        <ele>376.6</ele>
        <time>2023-09-15T12:23:12Z</time>
      </trkpt>
      <trkpt lat="43.52813" lon="6.3107">
        <ele>376.7</ele>
        <time>2023-09-15T12:23:13Z</time>
      </trkpt>
      <trkpt lat="43.52813" lon="6.3107">
        <ele>376.7</ele>
        <time>2023-09-15T12:23:14Z</time>
      </trkpt>
      <trkpt lat="43.52813" lon="6.3107">
        <ele>376.8</ele>
        <time>2023-09-15T12:23:15Z</time>
      </trkpt>
      <trkpt lat="43.52813" lon="6.3107">
        <ele>376.8</ele>
        <time>2023-09-15T12:23:16Z</time>
      </trkpt>
      <trkpt lat="43.52813" lon="6.3107">
        <ele>376.8</ele>
        <time>2023-09-15T12:23:17Z</time>
      </trkpt>
      <trkpt lat="43.52813" lon="6.3107">
        <ele>376.8</ele>
        <time>2023-09-15T12:23:18Z</time>
      </trkpt>
      <trkpt lat="43.52813" lon="6.31071">
        <ele>376.9</ele>
        <time>2023-09-15T12:23:19Z</time>
      </trkpt>
      <trkpt lat="43.52814" lon="6.31071">
        <ele>376.9</ele>
        <time>2023-09-15T12:23:20Z</time>
      </trkpt>
      <trkpt lat="43.52814" lon="6.31071">
        <ele>376.9</ele>
        <time>2023-09-15T12:23:21Z</time>
      </trkpt>
      <trkpt lat="43.52814" lon="6.31071">
        <ele>376.9</ele>
        <time>2023-09-15T12:23:22Z</time>
      </trkpt>
      <trkpt lat="43.52814" lon="6.31071">
        <ele>376.9</ele>
        <time>2023-09-15T12:23:23Z</time>
      </trkpt>
      <trkpt lat="43.52814" lon="6.31071">
        <ele>376.9</ele>
        <time>2023-09-15T12:23:24Z</time>
      </trkpt>
      <trkpt lat="43.52814" lon="6.31071">
        <ele>376.9</ele>
        <time>2023-09-15T12:23:25Z</time>
      </trkpt>
      <trkpt lat="43.52814" lon="6.31071">
        <ele>376.9</ele>
        <time>2023-09-15T12:23:26Z</time>
      </trkpt>
      <trkpt lat="43.52814" lon="6.31071">
        <ele>376.9</ele>
        <time>2023-09-15T12:23:27Z</time>
      </trkpt>
      <trkpt lat="43.52814" lon="6.31071">
        <ele>376.8</ele>
        <time>2023-09-15T12:23:28Z</time>
      </trkpt>
      <trkpt lat="43.52814" lon="6.3107">
        <ele>376.8</ele>
        <time>2023-09-15T12:23:29Z</time>
      </trkpt>
      <trkpt lat="43.52815" lon="6.3107">
        <ele>376.7</ele>
        <time>2023-09-15T12:23:30Z</time>
      </trkpt>
      <trkpt lat="43.52815" lon="6.3107">
        <ele>376.6</ele>
        <time>2023-09-15T12:23:31Z</time>
      </trkpt>
      <trkpt lat="43.52815" lon="6.31071">
        <ele>376.5</ele>
        <time>2023-09-15T12:23:32Z</time>
      </trkpt>
      <trkpt lat="43.52815" lon="6.31072">
        <ele>376.5</ele>
        <time>2023-09-15T12:23:33Z</time>
      </trkpt>
      <trkpt lat="43.52816" lon="6.31072">
        <ele>376.4</ele>
        <time>2023-09-15T12:23:34Z</time>
      </trkpt>
      <trkpt lat="43.52816" lon="6.31072">
        <ele>376.5</ele>
        <time>2023-09-15T12:23:35Z</time>
      </trkpt>
      <trkpt lat="43.52815" lon="6.31072">
        <ele>376.5</ele>
        <time>2023-09-15T12:23:36Z</time>
      </trkpt>
      <trkpt lat="43.52815" lon="6.31072">
        <ele>376.6</ele>
        <time>2023-09-15T12:23:37Z</time>
      </trkpt>
      <trkpt lat="43.52815" lon="6.31072">
        <ele>376.6</ele>
        <time>2023-09-15T12:23:38Z</time>
      </trkpt>
      <trkpt lat="43.52815" lon="6.31072">
        <ele>376.6</ele>
        <time>2023-09-15T12:23:39Z</time>
      </trkpt>
      <trkpt lat="43.52815" lon="6.31072">
        <ele>376.7</ele>
        <time>2023-09-15T12:23:40Z</time>
      </trkpt>
      <trkpt lat="43.52815" lon="6.31072">
        <ele>376.7</ele>
        <time>2023-09-15T12:23:41Z</time>
      </trkpt>
      <trkpt lat="43.52815" lon="6.31072">
        <ele>376.7</ele>
        <time>2023-09-15T12:23:42Z</time>
      </trkpt>
      <trkpt lat="43.52815" lon="6.31072">
        <ele>376.7</ele>
        <time>2023-09-15T12:23:43Z</time>
      </trkpt>
      <trkpt lat="43.52814" lon="6.31072">
        <ele>376.6</ele>
        <time>2023-09-15T12:23:44Z</time>
      </trkpt>
      <trkpt lat="43.52814" lon="6.31072">
        <ele>376.6</ele>
        <time>2023-09-15T12:23:45Z</time>
      </trkpt>
      <trkpt lat="43.52814" lon="6.31072">
        <ele>376.6</ele>
        <time>2023-09-15T12:23:46Z</time>
      </trkpt>
      <trkpt lat="43.52815" lon="6.31071">
        <ele>376.6</ele>
        <time>2023-09-15T12:23:47Z</time>
      </trkpt>
      <trkpt lat="43.52815" lon="6.31071">
        <ele>376.5</ele>
        <time>2023-09-15T12:23:48Z</time>
      </trkpt>
      <trkpt lat="43.52815" lon="6.31071">
        <ele>376.5</ele>
        <time>2023-09-15T12:23:49Z</time>
      </trkpt>
      <trkpt lat="43.52815" lon="6.31071">
        <ele>376.5</ele>
        <time>2023-09-15T12:23:50Z</time>
      </trkpt>
      <trkpt lat="43.52815" lon="6.31071">
        <ele>376.6</ele>
        <time>2023-09-15T12:23:51Z</time>
      </trkpt>
      <trkpt lat="43.52815" lon="6.31071">
        <ele>376.6</ele>
        <time>2023-09-15T12:23:52Z</time>
      </trkpt>
      <trkpt lat="43.52815" lon="6.31071">
        <ele>376.6</ele>
        <time>2023-09-15T12:23:53Z</time>
      </trkpt>
      <trkpt lat="43.52815" lon="6.31071">
        <ele>376.6</ele>
        <time>2023-09-15T12:23:54Z</time>
      </trkpt>
      <trkpt lat="43.52815" lon="6.31071">
        <ele>376.6</ele>
        <time>2023-09-15T12:23:55Z</time>
      </trkpt>
      <trkpt lat="43.52815" lon="6.31071">
        <ele>376.6</ele>
        <time>2023-09-15T12:23:56Z</time>
      </trkpt>
      <trkpt lat="43.52815" lon="6.31071">
        <ele>376.6</ele>
        <time>2023-09-15T12:23:57Z</time>
      </trkpt>
      <trkpt lat="43.52815" lon="6.31071">
        <ele>376.6</ele>
        <time>2023-09-15T12:23:58Z</time>
      </trkpt>
      <trkpt lat="43.52815" lon="6.31071">
        <ele>376.7</ele>
        <time>2023-09-15T12:23:59Z</time>
      </trkpt>
      <trkpt lat="43.52815" lon="6.31071">
        <ele>376.7</ele>
        <time>2023-09-15T12:24:00Z</time>
      </trkpt>
      <trkpt lat="43.52815" lon="6.31071">
        <ele>376.8</ele>
        <time>2023-09-15T12:24:01Z</time>
      </trkpt>
      <trkpt lat="43.52815" lon="6.31071">
        <ele>376.8</ele>
        <time>2023-09-15T12:24:02Z</time>
      </trkpt>
      <trkpt lat="43.52816" lon="6.31071">
        <ele>376.8</ele>
        <time>2023-09-15T12:24:03Z</time>
      </trkpt>
      <trkpt lat="43.52816" lon="6.31071">
        <ele>376.8</ele>
        <time>2023-09-15T12:24:04Z</time>
      </trkpt>
      <trkpt lat="43.52816" lon="6.31071">
        <ele>376.8</ele>
        <time>2023-09-15T12:24:05Z</time>
      </trkpt>
      <trkpt lat="43.52816" lon="6.31071">
        <ele>376.7</ele>
        <time>2023-09-15T12:24:06Z</time>
      </trkpt>
      <trkpt lat="43.52817" lon="6.3107">
        <ele>376.6</ele>
        <time>2023-09-15T12:24:07Z</time>
      </trkpt>
      <trkpt lat="43.52817" lon="6.31069">
        <ele>376.6</ele>
        <time>2023-09-15T12:24:08Z</time>
      </trkpt>
      <trkpt lat="43.52817" lon="6.31069">
        <ele>376.6</ele>
        <time>2023-09-15T12:24:09Z</time>
      </trkpt>
      <trkpt lat="43.52817" lon="6.31068">
        <ele>376.6</ele>
        <time>2023-09-15T12:24:10Z</time>
      </trkpt>
      <trkpt lat="43.52818" lon="6.31067">
        <ele>376.6</ele>
        <time>2023-09-15T12:24:11Z</time>
      </trkpt>
      <trkpt lat="43.52819" lon="6.31066">
        <ele>376.6</ele>
        <time>2023-09-15T12:24:12Z</time>
      </trkpt>
      <trkpt lat="43.52819" lon="6.31065">
        <ele>376.6</ele>
        <time>2023-09-15T12:24:13Z</time>
      </trkpt>
      <trkpt lat="43.5282" lon="6.31065">
        <ele>376.6</ele>
        <time>2023-09-15T12:24:14Z</time>
      </trkpt>
      <trkpt lat="43.52821" lon="6.31064">
        <ele>376.6</ele>
        <time>2023-09-15T12:24:15Z</time>
      </trkpt>
      <trkpt lat="43.52822" lon="6.31064">
        <ele>376.6</ele>
        <time>2023-09-15T12:24:16Z</time>
      </trkpt>
      <trkpt lat="43.52823" lon="6.31063">
        <ele>376.5</ele>
        <time>2023-09-15T12:24:17Z</time>
      </trkpt>
      <trkpt lat="43.52824" lon="6.31063">
        <ele>376.4</ele>
        <time>2023-09-15T12:24:18Z</time>
      </trkpt>
      <trkpt lat="43.52824" lon="6.31062">
        <ele>376.3</ele>
        <time>2023-09-15T12:24:19Z</time>
      </trkpt>
      <trkpt lat="43.52825" lon="6.31061">
        <ele>376.3</ele>
        <time>2023-09-15T12:24:20Z</time>
      </trkpt>
      <trkpt lat="43.52826" lon="6.3106">
        <ele>376.3</ele>
        <time>2023-09-15T12:24:21Z</time>
      </trkpt>
      <trkpt lat="43.52826" lon="6.3106">
        <ele>376.2</ele>
        <time>2023-09-15T12:24:22Z</time>
      </trkpt>
      <trkpt lat="43.52827" lon="6.31059">
        <ele>376.2</ele>
        <time>2023-09-15T12:24:23Z</time>
      </trkpt>
      <trkpt lat="43.52828" lon="6.31058">
        <ele>376.1</ele>
        <time>2023-09-15T12:24:24Z</time>
      </trkpt>
      <trkpt lat="43.52828" lon="6.31058">
        <ele>376.1</ele>
        <time>2023-09-15T12:24:25Z</time>
      </trkpt>
      <trkpt lat="43.52829" lon="6.31057">
        <ele>376</ele>
        <time>2023-09-15T12:24:26Z</time>
      </trkpt>
      <trkpt lat="43.52831" lon="6.31056">
        <ele>376</ele>
        <time>2023-09-15T12:24:27Z</time>
      </trkpt>
      <trkpt lat="43.52831" lon="6.31055">
        <ele>375.9</ele>
        <time>2023-09-15T12:24:28Z</time>
      </trkpt>
      <trkpt lat="43.52832" lon="6.31054">
        <ele>375.9</ele>
        <time>2023-09-15T12:24:29Z</time>
      </trkpt>
      <trkpt lat="43.52833" lon="6.31052">
        <ele>375.9</ele>
        <time>2023-09-15T12:24:30Z</time>
      </trkpt>
      <trkpt lat="43.52833" lon="6.3105">
        <ele>375.8</ele>
        <time>2023-09-15T12:24:31Z</time>
      </trkpt>
      <trkpt lat="43.52834" lon="6.31049">
        <ele>375.7</ele>
        <time>2023-09-15T12:24:32Z</time>
      </trkpt>
      <trkpt lat="43.52835" lon="6.31048">
        <ele>375.6</ele>
        <time>2023-09-15T12:24:33Z</time>
      </trkpt>
      <trkpt lat="43.52836" lon="6.31047">
        <ele>375.6</ele>
        <time>2023-09-15T12:24:34Z</time>
      </trkpt>
      <trkpt lat="43.52836" lon="6.31046">
        <ele>375.5</ele>
        <time>2023-09-15T12:24:35Z</time>
      </trkpt>
      <trkpt lat="43.52836" lon="6.31045">
        <ele>375.4</ele>
        <time>2023-09-15T12:24:36Z</time>
      </trkpt>
      <trkpt lat="43.52837" lon="6.31043">
        <ele>375.3</ele>
        <time>2023-09-15T12:24:37Z</time>
      </trkpt>
      <trkpt lat="43.52837" lon="6.31042">
        <ele>375.2</ele>
        <time>2023-09-15T12:24:38Z</time>
      </trkpt>
      <trkpt lat="43.52838" lon="6.31041">
        <ele>375.1</ele>
        <time>2023-09-15T12:24:39Z</time>
      </trkpt>
      <trkpt lat="43.52838" lon="6.3104">
        <ele>375.2</ele>
        <time>2023-09-15T12:24:40Z</time>
      </trkpt>
      <trkpt lat="43.52839" lon="6.31039">
        <ele>375.2</ele>
        <time>2023-09-15T12:24:41Z</time>
      </trkpt>
      <trkpt lat="43.52839" lon="6.31037">
        <ele>375.2</ele>
        <time>2023-09-15T12:24:42Z</time>
      </trkpt>
      <trkpt lat="43.5284" lon="6.31036">
        <ele>375.1</ele>
        <time>2023-09-15T12:24:43Z</time>
      </trkpt>
      <trkpt lat="43.5284" lon="6.31036">
        <ele>375.1</ele>
        <time>2023-09-15T12:24:44Z</time>
      </trkpt>
      <trkpt lat="43.52841" lon="6.31036">
        <ele>375</ele>
        <time>2023-09-15T12:24:45Z</time>
      </trkpt>
      <trkpt lat="43.52842" lon="6.31034">
        <ele>374.9</ele>
        <time>2023-09-15T12:24:46Z</time>
      </trkpt>
      <trkpt lat="43.52842" lon="6.31033">
        <ele>374.8</ele>
        <time>2023-09-15T12:24:47Z</time>
      </trkpt>
      <trkpt lat="43.52843" lon="6.31032">
        <ele>374.7</ele>
        <time>2023-09-15T12:24:48Z</time>
      </trkpt>
      <trkpt lat="43.52843" lon="6.3103">
        <ele>374.7</ele>
        <time>2023-09-15T12:24:49Z</time>
      </trkpt>
      <trkpt lat="43.52844" lon="6.31028">
        <ele>374.6</ele>
        <time>2023-09-15T12:24:50Z</time>
      </trkpt>
      <trkpt lat="43.52845" lon="6.31026">
        <ele>374.5</ele>
        <time>2023-09-15T12:24:51Z</time>
      </trkpt>
      <trkpt lat="43.52846" lon="6.31024">
        <ele>374.4</ele>
        <time>2023-09-15T12:24:52Z</time>
      </trkpt>
      <trkpt lat="43.52846" lon="6.31021">
        <ele>374.4</ele>
        <time>2023-09-15T12:24:53Z</time>
      </trkpt>
      <trkpt lat="43.52847" lon="6.3102">
        <ele>374.3</ele>
        <time>2023-09-15T12:24:54Z</time>
      </trkpt>
      <trkpt lat="43.52848" lon="6.31018">
        <ele>374.3</ele>
        <time>2023-09-15T12:24:55Z</time>
      </trkpt>
      <trkpt lat="43.52848" lon="6.31016">
        <ele>374.3</ele>
        <time>2023-09-15T12:24:56Z</time>
      </trkpt>
      <trkpt lat="43.52848" lon="6.31014">
        <ele>374.3</ele>
        <time>2023-09-15T12:24:57Z</time>
      </trkpt>
      <trkpt lat="43.52848" lon="6.31012">
        <ele>374.3</ele>
        <time>2023-09-15T12:24:58Z</time>
      </trkpt>
      <trkpt lat="43.52848" lon="6.31009">
        <ele>374.3</ele>
        <time>2023-09-15T12:24:59Z</time>
      </trkpt>
      <trkpt lat="43.52849" lon="6.31007">
        <ele>374.3</ele>
        <time>2023-09-15T12:25:00Z</time>
      </trkpt>
      <trkpt lat="43.5285" lon="6.31006">
        <ele>374.3</ele>
        <time>2023-09-15T12:25:01Z</time>
      </trkpt>
      <trkpt lat="43.5285" lon="6.31004">
        <ele>374.3</ele>
        <time>2023-09-15T12:25:02Z</time>
      </trkpt>
      <trkpt lat="43.5285" lon="6.31004">
        <ele>374.2</ele>
        <time>2023-09-15T12:25:03Z</time>
      </trkpt>
      <trkpt lat="43.52851" lon="6.31003">
        <ele>374.2</ele>
        <time>2023-09-15T12:25:04Z</time>
      </trkpt>
      <trkpt lat="43.52851" lon="6.31002">
        <ele>374.3</ele>
        <time>2023-09-15T12:25:05Z</time>
      </trkpt>
      <trkpt lat="43.52852" lon="6.31">
        <ele>374.3</ele>
        <time>2023-09-15T12:25:06Z</time>
      </trkpt>
      <trkpt lat="43.52852" lon="6.30999">
        <ele>374.2</ele>
        <time>2023-09-15T12:25:07Z</time>
      </trkpt>
      <trkpt lat="43.52853" lon="6.30998">
        <ele>374.2</ele>
        <time>2023-09-15T12:25:08Z</time>
      </trkpt>
      <trkpt lat="43.52853" lon="6.30997">
        <ele>374.3</ele>
        <time>2023-09-15T12:25:09Z</time>
      </trkpt>
      <trkpt lat="43.52854" lon="6.30996">
        <ele>374.3</ele>
        <time>2023-09-15T12:25:10Z</time>
      </trkpt>
      <trkpt lat="43.52854" lon="6.30995">
        <ele>374.3</ele>
        <time>2023-09-15T12:25:11Z</time>
      </trkpt>
      <trkpt lat="43.52854" lon="6.30995">
        <ele>374.3</ele>
        <time>2023-09-15T12:25:12Z</time>
      </trkpt>
      <trkpt lat="43.52855" lon="6.30994">
        <ele>374.1</ele>
        <time>2023-09-15T12:25:13Z</time>
      </trkpt>
      <trkpt lat="43.52855" lon="6.30994">
        <ele>374</ele>
        <time>2023-09-15T12:25:14Z</time>
      </trkpt>
      <trkpt lat="43.52855" lon="6.30993">
        <ele>373.9</ele>
        <time>2023-09-15T12:25:15Z</time>
      </trkpt>
      <trkpt lat="43.52855" lon="6.30992">
        <ele>373.8</ele>
        <time>2023-09-15T12:25:16Z</time>
      </trkpt>
      <trkpt lat="43.52855" lon="6.30992">
        <ele>373.7</ele>
        <time>2023-09-15T12:25:17Z</time>
      </trkpt>
      <trkpt lat="43.52854" lon="6.30991">
        <ele>373.7</ele>
        <time>2023-09-15T12:25:18Z</time>
      </trkpt>
      <trkpt lat="43.52854" lon="6.30991">
        <ele>373.8</ele>
        <time>2023-09-15T12:25:19Z</time>
      </trkpt>
      <trkpt lat="43.52854" lon="6.30991">
        <ele>373.8</ele>
        <time>2023-09-15T12:25:20Z</time>
      </trkpt>
      <trkpt lat="43.52854" lon="6.3099">
        <ele>373.8</ele>
        <time>2023-09-15T12:25:21Z</time>
      </trkpt>
      <trkpt lat="43.52855" lon="6.3099">
        <ele>373.8</ele>
        <time>2023-09-15T12:25:22Z</time>
      </trkpt>
      <trkpt lat="43.52855" lon="6.3099">
        <ele>373.7</ele>
        <time>2023-09-15T12:25:23Z</time>
      </trkpt>
      <trkpt lat="43.52855" lon="6.30989">
        <ele>373.6</ele>
        <time>2023-09-15T12:25:24Z</time>
      </trkpt>
      <trkpt lat="43.52856" lon="6.30989">
        <ele>373.6</ele>
        <time>2023-09-15T12:25:25Z</time>
      </trkpt>
      <trkpt lat="43.52856" lon="6.30989">
        <ele>373.9</ele>
        <time>2023-09-15T12:25:26Z</time>
      </trkpt>
      <trkpt lat="43.52856" lon="6.30989">
        <ele>373.9</ele>
        <time>2023-09-15T12:25:27Z</time>
      </trkpt>
      <trkpt lat="43.52855" lon="6.30988">
        <ele>373.8</ele>
        <time>2023-09-15T12:25:28Z</time>
      </trkpt>
      <trkpt lat="43.52855" lon="6.30987">
        <ele>373.8</ele>
        <time>2023-09-15T12:25:29Z</time>
      </trkpt>
      <trkpt lat="43.52855" lon="6.30988">
        <ele>373.7</ele>
        <time>2023-09-15T12:25:30Z</time>
      </trkpt>
      <trkpt lat="43.52855" lon="6.30987">
        <ele>373.7</ele>
        <time>2023-09-15T12:25:31Z</time>
      </trkpt>
      <trkpt lat="43.52855" lon="6.30986">
        <ele>373.6</ele>
        <time>2023-09-15T12:25:32Z</time>
      </trkpt>
      <trkpt lat="43.52855" lon="6.30986">
        <ele>373.7</ele>
        <time>2023-09-15T12:25:33Z</time>
      </trkpt>
      <trkpt lat="43.52855" lon="6.30985">
        <ele>373.8</ele>
        <time>2023-09-15T12:25:34Z</time>
      </trkpt>
      <trkpt lat="43.52854" lon="6.30984">
        <ele>373.8</ele>
        <time>2023-09-15T12:25:35Z</time>
      </trkpt>
      <trkpt lat="43.52854" lon="6.30983">
        <ele>373.8</ele>
        <time>2023-09-15T12:25:36Z</time>
      </trkpt>
      <trkpt lat="43.52855" lon="6.30982">
        <ele>373.7</ele>
        <time>2023-09-15T12:25:37Z</time>
      </trkpt>
      <trkpt lat="43.52854" lon="6.3098">
        <ele>373.7</ele>
        <time>2023-09-15T12:25:38Z</time>
      </trkpt>
      <trkpt lat="43.52854" lon="6.30979">
        <ele>373.7</ele>
        <time>2023-09-15T12:25:39Z</time>
      </trkpt>
      <trkpt lat="43.52853" lon="6.30978">
        <ele>373.8</ele>
        <time>2023-09-15T12:25:40Z</time>
      </trkpt>
      <trkpt lat="43.52854" lon="6.30977">
        <ele>373.9</ele>
        <time>2023-09-15T12:25:41Z</time>
      </trkpt>
      <trkpt lat="43.52854" lon="6.30977">
        <ele>374</ele>
        <time>2023-09-15T12:25:42Z</time>
      </trkpt>
      <trkpt lat="43.52854" lon="6.30975">
        <ele>374.1</ele>
        <time>2023-09-15T12:25:43Z</time>
      </trkpt>
      <trkpt lat="43.52854" lon="6.30973">
        <ele>374.2</ele>
        <time>2023-09-15T12:25:44Z</time>
      </trkpt>
      <trkpt lat="43.52854" lon="6.30972">
        <ele>374.3</ele>
        <time>2023-09-15T12:25:45Z</time>
      </trkpt>
      <trkpt lat="43.52855" lon="6.3097">
        <ele>374.4</ele>
        <time>2023-09-15T12:25:46Z</time>
      </trkpt>
      <trkpt lat="43.52855" lon="6.30969">
        <ele>374.5</ele>
        <time>2023-09-15T12:25:47Z</time>
      </trkpt>
      <trkpt lat="43.52855" lon="6.30968">
        <ele>374.5</ele>
        <time>2023-09-15T12:25:48Z</time>
      </trkpt>
      <trkpt lat="43.52855" lon="6.30967">
        <ele>374.5</ele>
        <time>2023-09-15T12:25:49Z</time>
      </trkpt>
      <trkpt lat="43.52855" lon="6.30965">
        <ele>374.6</ele>
        <time>2023-09-15T12:25:50Z</time>
      </trkpt>
      <trkpt lat="43.52855" lon="6.30964">
        <ele>374.6</ele>
        <time>2023-09-15T12:25:51Z</time>
      </trkpt>
      <trkpt lat="43.52856" lon="6.30964">
        <ele>374.6</ele>
        <time>2023-09-15T12:25:52Z</time>
      </trkpt>
      <trkpt lat="43.52856" lon="6.30963">
        <ele>374.7</ele>
        <time>2023-09-15T12:25:53Z</time>
      </trkpt>
      <trkpt lat="43.52857" lon="6.30962">
        <ele>374.7</ele>
        <time>2023-09-15T12:25:54Z</time>
      </trkpt>
      <trkpt lat="43.52856" lon="6.3096">
        <ele>374.7</ele>
        <time>2023-09-15T12:25:55Z</time>
      </trkpt>
      <trkpt lat="43.52857" lon="6.30959">
        <ele>374.7</ele>
        <time>2023-09-15T12:25:56Z</time>
      </trkpt>
      <trkpt lat="43.52858" lon="6.30959">
        <ele>374.7</ele>
        <time>2023-09-15T12:25:57Z</time>
      </trkpt>
      <trkpt lat="43.52858" lon="6.30958">
        <ele>374.7</ele>
        <time>2023-09-15T12:25:58Z</time>
      </trkpt>
      <trkpt lat="43.52858" lon="6.30958">
        <ele>374.7</ele>
        <time>2023-09-15T12:25:59Z</time>
      </trkpt>
      <trkpt lat="43.52859" lon="6.30957">
        <ele>374.7</ele>
        <time>2023-09-15T12:26:00Z</time>
      </trkpt>
      <trkpt lat="43.52859" lon="6.30957">
        <ele>374.8</ele>
        <time>2023-09-15T12:26:01Z</time>
      </trkpt>
      <trkpt lat="43.5286" lon="6.30957">
        <ele>374.9</ele>
        <time>2023-09-15T12:26:02Z</time>
      </trkpt>
      <trkpt lat="43.52861" lon="6.30956">
        <ele>374.9</ele>
        <time>2023-09-15T12:26:03Z</time>
      </trkpt>
      <trkpt lat="43.52861" lon="6.30955">
        <ele>375</ele>
        <time>2023-09-15T12:26:04Z</time>
      </trkpt>
      <trkpt lat="43.52862" lon="6.30954">
        <ele>375</ele>
        <time>2023-09-15T12:26:05Z</time>
      </trkpt>
      <trkpt lat="43.52862" lon="6.30953">
        <ele>375.1</ele>
        <time>2023-09-15T12:26:06Z</time>
      </trkpt>
      <trkpt lat="43.52863" lon="6.30953">
        <ele>375.2</ele>
        <time>2023-09-15T12:26:07Z</time>
      </trkpt>
      <trkpt lat="43.52863" lon="6.30952">
        <ele>375.2</ele>
        <time>2023-09-15T12:26:08Z</time>
      </trkpt>
      <trkpt lat="43.52864" lon="6.30952">
        <ele>375.3</ele>
        <time>2023-09-15T12:26:09Z</time>
      </trkpt>
      <trkpt lat="43.52865" lon="6.30951">
        <ele>375.3</ele>
        <time>2023-09-15T12:26:10Z</time>
      </trkpt>
      <trkpt lat="43.52865" lon="6.3095">
        <ele>375.4</ele>
        <time>2023-09-15T12:26:11Z</time>
      </trkpt>
      <trkpt lat="43.52866" lon="6.30949">
        <ele>375.4</ele>
        <time>2023-09-15T12:26:12Z</time>
      </trkpt>
      <trkpt lat="43.52867" lon="6.30948">
        <ele>375.4</ele>
        <time>2023-09-15T12:26:13Z</time>
      </trkpt>
      <trkpt lat="43.52867" lon="6.30947">
        <ele>375.5</ele>
        <time>2023-09-15T12:26:14Z</time>
      </trkpt>
      <trkpt lat="43.52868" lon="6.30947">
        <ele>375.5</ele>
        <time>2023-09-15T12:26:15Z</time>
      </trkpt>
      <trkpt lat="43.52868" lon="6.30946">
        <ele>375.4</ele>
        <time>2023-09-15T12:26:16Z</time>
      </trkpt>
      <trkpt lat="43.52869" lon="6.30944">
        <ele>375.4</ele>
        <time>2023-09-15T12:26:17Z</time>
      </trkpt>
      <trkpt lat="43.5287" lon="6.30943">
        <ele>375.4</ele>
        <time>2023-09-15T12:26:18Z</time>
      </trkpt>
      <trkpt lat="43.52871" lon="6.30942">
        <ele>375.4</ele>
        <time>2023-09-15T12:26:19Z</time>
      </trkpt>
      <trkpt lat="43.52871" lon="6.30941">
        <ele>375.4</ele>
        <time>2023-09-15T12:26:20Z</time>
      </trkpt>
      <trkpt lat="43.52872" lon="6.3094">
        <ele>375.4</ele>
        <time>2023-09-15T12:26:21Z</time>
      </trkpt>
      <trkpt lat="43.52873" lon="6.30939">
        <ele>375.4</ele>
        <time>2023-09-15T12:26:22Z</time>
      </trkpt>
      <trkpt lat="43.52873" lon="6.30938">
        <ele>375.4</ele>
        <time>2023-09-15T12:26:23Z</time>
      </trkpt>
      <trkpt lat="43.52873" lon="6.30937">
        <ele>375.4</ele>
        <time>2023-09-15T12:26:24Z</time>
      </trkpt>
      <trkpt lat="43.52874" lon="6.30936">
        <ele>375.5</ele>
        <time>2023-09-15T12:26:25Z</time>
      </trkpt>
      <trkpt lat="43.52875" lon="6.30934">
        <ele>375.5</ele>
        <time>2023-09-15T12:26:26Z</time>
      </trkpt>
      <trkpt lat="43.52876" lon="6.30933">
        <ele>375.4</ele>
        <time>2023-09-15T12:26:27Z</time>
      </trkpt>
      <trkpt lat="43.52878" lon="6.30931">
        <ele>375.4</ele>
        <time>2023-09-15T12:26:28Z</time>
      </trkpt>
      <trkpt lat="43.52879" lon="6.30931">
        <ele>375.4</ele>
        <time>2023-09-15T12:26:29Z</time>
      </trkpt>
      <trkpt lat="43.52879" lon="6.30929">
        <ele>375.5</ele>
        <time>2023-09-15T12:26:30Z</time>
      </trkpt>
      <trkpt lat="43.5288" lon="6.30928">
        <ele>375.5</ele>
        <time>2023-09-15T12:26:31Z</time>
      </trkpt>
      <trkpt lat="43.5288" lon="6.30926">
        <ele>375.5</ele>
        <time>2023-09-15T12:26:32Z</time>
      </trkpt>
      <trkpt lat="43.52881" lon="6.30925">
        <ele>375.5</ele>
        <time>2023-09-15T12:26:33Z</time>
      </trkpt>
      <trkpt lat="43.52881" lon="6.30923">
        <ele>375.5</ele>
        <time>2023-09-15T12:26:34Z</time>
      </trkpt>
      <trkpt lat="43.52882" lon="6.30922">
        <ele>375.4</ele>
        <time>2023-09-15T12:26:35Z</time>
      </trkpt>
      <trkpt lat="43.52883" lon="6.30921">
        <ele>375.3</ele>
        <time>2023-09-15T12:26:36Z</time>
      </trkpt>
      <trkpt lat="43.52884" lon="6.3092">
        <ele>375.2</ele>
        <time>2023-09-15T12:26:37Z</time>
      </trkpt>
      <trkpt lat="43.52884" lon="6.30918">
        <ele>375.1</ele>
        <time>2023-09-15T12:26:38Z</time>
      </trkpt>
      <trkpt lat="43.52885" lon="6.30918">
        <ele>375.1</ele>
        <time>2023-09-15T12:26:39Z</time>
      </trkpt>
      <trkpt lat="43.52886" lon="6.30918">
        <ele>375</ele>
        <time>2023-09-15T12:26:40Z</time>
      </trkpt>
      <trkpt lat="43.52886" lon="6.30916">
        <ele>375</ele>
        <time>2023-09-15T12:26:41Z</time>
      </trkpt>
      <trkpt lat="43.52887" lon="6.30913">
        <ele>375</ele>
        <time>2023-09-15T12:26:42Z</time>
      </trkpt>
      <trkpt lat="43.52887" lon="6.30911">
        <ele>374.9</ele>
        <time>2023-09-15T12:26:43Z</time>
      </trkpt>
      <trkpt lat="43.52887" lon="6.30909">
        <ele>375.6</ele>
        <time>2023-09-15T12:26:50Z</time>
      </trkpt>
      <trkpt lat="43.52887" lon="6.30909">
        <ele>375.4</ele>
        <time>2023-09-15T12:27:02Z</time>
      </trkpt>
      <trkpt lat="43.52887" lon="6.30909">
        <ele>375.5</ele>
        <time>2023-09-15T12:27:03Z</time>
      </trkpt>
      <trkpt lat="43.52887" lon="6.30909">
        <ele>375.4</ele>
        <time>2023-09-15T12:27:04Z</time>
      </trkpt>
      <trkpt lat="43.52887" lon="6.30909">
        <ele>375.3</ele>
        <time>2023-09-15T12:27:06Z</time>
      </trkpt>
      <trkpt lat="43.52887" lon="6.3091">
        <ele>375.2</ele>
        <time>2023-09-15T12:27:07Z</time>
      </trkpt>
      <trkpt lat="43.52887" lon="6.30911">
        <ele>375.2</ele>
        <time>2023-09-15T12:27:08Z</time>
      </trkpt>
      <trkpt lat="43.52887" lon="6.30911">
        <ele>375.3</ele>
        <time>2023-09-15T12:27:09Z</time>
      </trkpt>
      <trkpt lat="43.52887" lon="6.30912">
        <ele>375.4</ele>
        <time>2023-09-15T12:27:10Z</time>
      </trkpt>
      <trkpt lat="43.52887" lon="6.30913">
        <ele>375.5</ele>
        <time>2023-09-15T12:27:11Z</time>
      </trkpt>
      <trkpt lat="43.52887" lon="6.30914">
        <ele>375.5</ele>
        <time>2023-09-15T12:27:12Z</time>
      </trkpt>
      <trkpt lat="43.52886" lon="6.30914">
        <ele>375.5</ele>
        <time>2023-09-15T12:27:13Z</time>
      </trkpt>
      <trkpt lat="43.52886" lon="6.30915">
        <ele>375.5</ele>
        <time>2023-09-15T12:27:15Z</time>
      </trkpt>
      <trkpt lat="43.52886" lon="6.30915">
        <ele>375.5</ele>
        <time>2023-09-15T12:27:16Z</time>
      </trkpt>
      <trkpt lat="43.52886" lon="6.30916">
        <ele>375.4</ele>
        <time>2023-09-15T12:27:17Z</time>
      </trkpt>
      <trkpt lat="43.52885" lon="6.30917">
        <ele>375.6</ele>
        <time>2023-09-15T12:27:18Z</time>
      </trkpt>
      <trkpt lat="43.52885" lon="6.30917">
        <ele>375.6</ele>
        <time>2023-09-15T12:27:19Z</time>
      </trkpt>
      <trkpt lat="43.52884" lon="6.30918">
        <ele>375.6</ele>
        <time>2023-09-15T12:27:20Z</time>
      </trkpt>
      <trkpt lat="43.52883" lon="6.30919">
        <ele>375.6</ele>
        <time>2023-09-15T12:27:21Z</time>
      </trkpt>
      <trkpt lat="43.52883" lon="6.3092">
        <ele>375.6</ele>
        <time>2023-09-15T12:27:22Z</time>
      </trkpt>
      <trkpt lat="43.52882" lon="6.30921">
        <ele>375.6</ele>
        <time>2023-09-15T12:27:23Z</time>
      </trkpt>
      <trkpt lat="43.52882" lon="6.30921">
        <ele>375.6</ele>
        <time>2023-09-15T12:27:24Z</time>
      </trkpt>
      <trkpt lat="43.52882" lon="6.30922">
        <ele>375.6</ele>
        <time>2023-09-15T12:27:25Z</time>
      </trkpt>
      <trkpt lat="43.52881" lon="6.30923">
        <ele>375.6</ele>
        <time>2023-09-15T12:27:26Z</time>
      </trkpt>
      <trkpt lat="43.5288" lon="6.30924">
        <ele>375.6</ele>
        <time>2023-09-15T12:27:27Z</time>
      </trkpt>
      <trkpt lat="43.52879" lon="6.30925">
        <ele>375.5</ele>
        <time>2023-09-15T12:27:28Z</time>
      </trkpt>
      <trkpt lat="43.52879" lon="6.30925">
        <ele>375.5</ele>
        <time>2023-09-15T12:27:29Z</time>
      </trkpt>
      <trkpt lat="43.52878" lon="6.30927">
        <ele>375.5</ele>
        <time>2023-09-15T12:27:30Z</time>
      </trkpt>
      <trkpt lat="43.52878" lon="6.30927">
        <ele>375.5</ele>
        <time>2023-09-15T12:27:31Z</time>
      </trkpt>
      <trkpt lat="43.52877" lon="6.30928">
        <ele>375.5</ele>
        <time>2023-09-15T12:27:32Z</time>
      </trkpt>
      <trkpt lat="43.52876" lon="6.30929">
        <ele>375.4</ele>
        <time>2023-09-15T12:27:33Z</time>
      </trkpt>
      <trkpt lat="43.52876" lon="6.3093">
        <ele>375.4</ele>
        <time>2023-09-15T12:27:34Z</time>
      </trkpt>
      <trkpt lat="43.52875" lon="6.30931">
        <ele>375.4</ele>
        <time>2023-09-15T12:27:35Z</time>
      </trkpt>
      <trkpt lat="43.52875" lon="6.30932">
        <ele>375.4</ele>
        <time>2023-09-15T12:27:36Z</time>
      </trkpt>
      <trkpt lat="43.52874" lon="6.30933">
        <ele>375.4</ele>
        <time>2023-09-15T12:27:37Z</time>
      </trkpt>
      <trkpt lat="43.52874" lon="6.30934">
        <ele>375.4</ele>
        <time>2023-09-15T12:27:38Z</time>
      </trkpt>
      <trkpt lat="43.52873" lon="6.30935">
        <ele>375.5</ele>
        <time>2023-09-15T12:27:39Z</time>
      </trkpt>
      <trkpt lat="43.52873" lon="6.30936">
        <ele>375.5</ele>
        <time>2023-09-15T12:27:40Z</time>
      </trkpt>
      <trkpt lat="43.52871" lon="6.30936">
        <ele>375.5</ele>
        <time>2023-09-15T12:27:41Z</time>
      </trkpt>
      <trkpt lat="43.52871" lon="6.30937">
        <ele>375.4</ele>
        <time>2023-09-15T12:27:42Z</time>
      </trkpt>
      <trkpt lat="43.52871" lon="6.30938">
        <ele>375.4</ele>
        <time>2023-09-15T12:27:43Z</time>
      </trkpt>
      <trkpt lat="43.5287" lon="6.30939">
        <ele>375.4</ele>
        <time>2023-09-15T12:27:44Z</time>
      </trkpt>
      <trkpt lat="43.52869" lon="6.3094">
        <ele>375.4</ele>
        <time>2023-09-15T12:27:45Z</time>
      </trkpt>
      <trkpt lat="43.52868" lon="6.30941">
        <ele>375.5</ele>
        <time>2023-09-15T12:27:46Z</time>
      </trkpt>
      <trkpt lat="43.52867" lon="6.30942">
        <ele>375.4</ele>
        <time>2023-09-15T12:27:47Z</time>
      </trkpt>
      <trkpt lat="43.52866" lon="6.30943">
        <ele>375.4</ele>
        <time>2023-09-15T12:27:48Z</time>
      </trkpt>
      <trkpt lat="43.52866" lon="6.30944">
        <ele>375.4</ele>
        <time>2023-09-15T12:27:49Z</time>
      </trkpt>
      <trkpt lat="43.52865" lon="6.30945">
        <ele>375.4</ele>
        <time>2023-09-15T12:27:50Z</time>
      </trkpt>
      <trkpt lat="43.52865" lon="6.30945">
        <ele>375.5</ele>
        <time>2023-09-15T12:27:51Z</time>
      </trkpt>
      <trkpt lat="43.52864" lon="6.30946">
        <ele>375.5</ele>
        <time>2023-09-15T12:27:52Z</time>
      </trkpt>
      <trkpt lat="43.52864" lon="6.30946">
        <ele>375.5</ele>
        <time>2023-09-15T12:27:53Z</time>
      </trkpt>
      <trkpt lat="43.52864" lon="6.30947">
        <ele>375.5</ele>
        <time>2023-09-15T12:27:54Z</time>
      </trkpt>
      <trkpt lat="43.52863" lon="6.30947">
        <ele>375.5</ele>
        <time>2023-09-15T12:27:55Z</time>
      </trkpt>
      <trkpt lat="43.52863" lon="6.30948">
        <ele>375.5</ele>
        <time>2023-09-15T12:27:56Z</time>
      </trkpt>
      <trkpt lat="43.52863" lon="6.30949">
        <ele>375.5</ele>
        <time>2023-09-15T12:27:57Z</time>
      </trkpt>
      <trkpt lat="43.52863" lon="6.3095">
        <ele>375.5</ele>
        <time>2023-09-15T12:27:58Z</time>
      </trkpt>
      <trkpt lat="43.52862" lon="6.30951">
        <ele>375.5</ele>
        <time>2023-09-15T12:27:59Z</time>
      </trkpt>
      <trkpt lat="43.52862" lon="6.30952">
        <ele>375.5</ele>
        <time>2023-09-15T12:28:00Z</time>
      </trkpt>
      <trkpt lat="43.52862" lon="6.30953">
        <ele>375.4</ele>
        <time>2023-09-15T12:28:01Z</time>
      </trkpt>
      <trkpt lat="43.52861" lon="6.30954">
        <ele>375.3</ele>
        <time>2023-09-15T12:28:02Z</time>
      </trkpt>
      <trkpt lat="43.52861" lon="6.30956">
        <ele>375.2</ele>
        <time>2023-09-15T12:28:03Z</time>
      </trkpt>
      <trkpt lat="43.5286" lon="6.30956">
        <ele>375.1</ele>
        <time>2023-09-15T12:28:04Z</time>
      </trkpt>
      <trkpt lat="43.52859" lon="6.30957">
        <ele>375.1</ele>
        <time>2023-09-15T12:28:05Z</time>
      </trkpt>
      <trkpt lat="43.52859" lon="6.30957">
        <ele>375</ele>
        <time>2023-09-15T12:28:06Z</time>
      </trkpt>
      <trkpt lat="43.52858" lon="6.30958">
        <ele>375</ele>
        <time>2023-09-15T12:28:07Z</time>
      </trkpt>
      <trkpt lat="43.52858" lon="6.30958">
        <ele>375.1</ele>
        <time>2023-09-15T12:28:08Z</time>
      </trkpt>
      <trkpt lat="43.52858" lon="6.30958">
        <ele>375.1</ele>
        <time>2023-09-15T12:28:09Z</time>
      </trkpt>
      <trkpt lat="43.52857" lon="6.30958">
        <ele>375.1</ele>
        <time>2023-09-15T12:28:10Z</time>
      </trkpt>
      <trkpt lat="43.52856" lon="6.30958">
        <ele>375.1</ele>
        <time>2023-09-15T12:28:11Z</time>
      </trkpt>
      <trkpt lat="43.52856" lon="6.30957">
        <ele>375.1</ele>
        <time>2023-09-15T12:28:12Z</time>
      </trkpt>
      <trkpt lat="43.52856" lon="6.30957">
        <ele>375.1</ele>
        <time>2023-09-15T12:28:13Z</time>
      </trkpt>
      <trkpt lat="43.52856" lon="6.30957">
        <ele>375</ele>
        <time>2023-09-15T12:28:14Z</time>
      </trkpt>
      <trkpt lat="43.52855" lon="6.30956">
        <ele>375</ele>
        <time>2023-09-15T12:28:15Z</time>
      </trkpt>
      <trkpt lat="43.52855" lon="6.30955">
        <ele>375</ele>
        <time>2023-09-15T12:28:16Z</time>
      </trkpt>
      <trkpt lat="43.52854" lon="6.30955">
        <ele>375</ele>
        <time>2023-09-15T12:28:17Z</time>
      </trkpt>
      <trkpt lat="43.52854" lon="6.30955">
        <ele>375</ele>
        <time>2023-09-15T12:28:18Z</time>
      </trkpt>
      <trkpt lat="43.52853" lon="6.30954">
        <ele>375.1</ele>
        <time>2023-09-15T12:28:19Z</time>
      </trkpt>
      <trkpt lat="43.52853" lon="6.30954">
        <ele>375.1</ele>
        <time>2023-09-15T12:28:20Z</time>
      </trkpt>
      <trkpt lat="43.52852" lon="6.30953">
        <ele>375.2</ele>
        <time>2023-09-15T12:28:21Z</time>
      </trkpt>
      <trkpt lat="43.52851" lon="6.30952">
        <ele>375.2</ele>
        <time>2023-09-15T12:28:22Z</time>
      </trkpt>
      <trkpt lat="43.52851" lon="6.30951">
        <ele>375.2</ele>
        <time>2023-09-15T12:28:23Z</time>
      </trkpt>
      <trkpt lat="43.5285" lon="6.30951">
        <ele>375.3</ele>
        <time>2023-09-15T12:28:24Z</time>
      </trkpt>
      <trkpt lat="43.5285" lon="6.3095">
        <ele>375.3</ele>
        <time>2023-09-15T12:28:25Z</time>
      </trkpt>
      <trkpt lat="43.52849" lon="6.3095">
        <ele>375.4</ele>
        <time>2023-09-15T12:28:26Z</time>
      </trkpt>
      <trkpt lat="43.52849" lon="6.3095">
        <ele>375.5</ele>
        <time>2023-09-15T12:28:27Z</time>
      </trkpt>
      <trkpt lat="43.52848" lon="6.30949">
        <ele>375.6</ele>
        <time>2023-09-15T12:28:28Z</time>
      </trkpt>
      <trkpt lat="43.52847" lon="6.30948">
        <ele>375.7</ele>
        <time>2023-09-15T12:28:29Z</time>
      </trkpt>
      <trkpt lat="43.52847" lon="6.30947">
        <ele>375.8</ele>
        <time>2023-09-15T12:28:30Z</time>
      </trkpt>
      <trkpt lat="43.52846" lon="6.30946">
        <ele>375.8</ele>
        <time>2023-09-15T12:28:31Z</time>
      </trkpt>
      <trkpt lat="43.52846" lon="6.30945">
        <ele>375.9</ele>
        <time>2023-09-15T12:28:32Z</time>
      </trkpt>
      <trkpt lat="43.52845" lon="6.30944">
        <ele>376</ele>
        <time>2023-09-15T12:28:33Z</time>
      </trkpt>
      <trkpt lat="43.52845" lon="6.30943">
        <ele>376</ele>
        <time>2023-09-15T12:28:34Z</time>
      </trkpt>
      <trkpt lat="43.52844" lon="6.30943">
        <ele>376.1</ele>
        <time>2023-09-15T12:28:35Z</time>
      </trkpt>
      <trkpt lat="43.52844" lon="6.30942">
        <ele>376.1</ele>
        <time>2023-09-15T12:28:36Z</time>
      </trkpt>
      <trkpt lat="43.52843" lon="6.30941">
        <ele>376.1</ele>
        <time>2023-09-15T12:28:37Z</time>
      </trkpt>
      <trkpt lat="43.52843" lon="6.30941">
        <ele>376.2</ele>
        <time>2023-09-15T12:28:38Z</time>
      </trkpt>
      <trkpt lat="43.52842" lon="6.3094">
        <ele>376.3</ele>
        <time>2023-09-15T12:28:39Z</time>
      </trkpt>
      <trkpt lat="43.52841" lon="6.3094">
        <ele>376.3</ele>
        <time>2023-09-15T12:28:40Z</time>
      </trkpt>
      <trkpt lat="43.52841" lon="6.30939">
        <ele>376.4</ele>
        <time>2023-09-15T12:28:41Z</time>
      </trkpt>
      <trkpt lat="43.52841" lon="6.30939">
        <ele>376.4</ele>
        <time>2023-09-15T12:28:42Z</time>
      </trkpt>
      <trkpt lat="43.5284" lon="6.30939">
        <ele>376.4</ele>
        <time>2023-09-15T12:28:43Z</time>
      </trkpt>
      <trkpt lat="43.5284" lon="6.30938">
        <ele>376.6</ele>
        <time>2023-09-15T12:28:44Z</time>
      </trkpt>
      <trkpt lat="43.5284" lon="6.30938">
        <ele>376.7</ele>
        <time>2023-09-15T12:28:45Z</time>
      </trkpt>
      <trkpt lat="43.52839" lon="6.30937">
        <ele>376.8</ele>
        <time>2023-09-15T12:28:46Z</time>
      </trkpt>
      <trkpt lat="43.52838" lon="6.30937">
        <ele>376.9</ele>
        <time>2023-09-15T12:28:47Z</time>
      </trkpt>
      <trkpt lat="43.52837" lon="6.30937">
        <ele>377</ele>
        <time>2023-09-15T12:28:48Z</time>
      </trkpt>
      <trkpt lat="43.52837" lon="6.30936">
        <ele>377</ele>
        <time>2023-09-15T12:28:49Z</time>
      </trkpt>
      <trkpt lat="43.52837" lon="6.30935">
        <ele>377.1</ele>
        <time>2023-09-15T12:28:50Z</time>
      </trkpt>
      <trkpt lat="43.52836" lon="6.30935">
        <ele>377.2</ele>
        <time>2023-09-15T12:28:51Z</time>
      </trkpt>
      <trkpt lat="43.52835" lon="6.30935">
        <ele>377.2</ele>
        <time>2023-09-15T12:28:52Z</time>
      </trkpt>
      <trkpt lat="43.52835" lon="6.30933">
        <ele>377.3</ele>
        <time>2023-09-15T12:28:53Z</time>
      </trkpt>
      <trkpt lat="43.52835" lon="6.30933">
        <ele>377.4</ele>
        <time>2023-09-15T12:28:54Z</time>
      </trkpt>
      <trkpt lat="43.52834" lon="6.30932">
        <ele>377.5</ele>
        <time>2023-09-15T12:28:55Z</time>
      </trkpt>
      <trkpt lat="43.52834" lon="6.3093">
        <ele>377.6</ele>
        <time>2023-09-15T12:28:56Z</time>
      </trkpt>
      <trkpt lat="43.52834" lon="6.30929">
        <ele>377.7</ele>
        <time>2023-09-15T12:28:57Z</time>
      </trkpt>
      <trkpt lat="43.52833" lon="6.30929">
        <ele>377.7</ele>
        <time>2023-09-15T12:28:58Z</time>
      </trkpt>
      <trkpt lat="43.52833" lon="6.30927">
        <ele>377.7</ele>
        <time>2023-09-15T12:28:59Z</time>
      </trkpt>
      <trkpt lat="43.52833" lon="6.30927">
        <ele>377.7</ele>
        <time>2023-09-15T12:29:00Z</time>
      </trkpt>
      <trkpt lat="43.52833" lon="6.30927">
        <ele>377.7</ele>
        <time>2023-09-15T12:29:01Z</time>
      </trkpt>
      <trkpt lat="43.52833" lon="6.30926">
        <ele>377.8</ele>
        <time>2023-09-15T12:29:02Z</time>
      </trkpt>
      <trkpt lat="43.52832" lon="6.30926">
        <ele>377.9</ele>
        <time>2023-09-15T12:29:03Z</time>
      </trkpt>
      <trkpt lat="43.52832" lon="6.30925">
        <ele>378</ele>
        <time>2023-09-15T12:29:04Z</time>
      </trkpt>
      <trkpt lat="43.52832" lon="6.30924">
        <ele>377.9</ele>
        <time>2023-09-15T12:29:05Z</time>
      </trkpt>
      <trkpt lat="43.52832" lon="6.30924">
        <ele>377.9</ele>
        <time>2023-09-15T12:29:06Z</time>
      </trkpt>
      <trkpt lat="43.52832" lon="6.30923">
        <ele>377.8</ele>
        <time>2023-09-15T12:29:07Z</time>
      </trkpt>
      <trkpt lat="43.52831" lon="6.30923">
        <ele>377.8</ele>
        <time>2023-09-15T12:29:08Z</time>
      </trkpt>
      <trkpt lat="43.52831" lon="6.30922">
        <ele>377.9</ele>
        <time>2023-09-15T12:29:09Z</time>
      </trkpt>
      <trkpt lat="43.52831" lon="6.30921">
        <ele>377.9</ele>
        <time>2023-09-15T12:29:10Z</time>
      </trkpt>
      <trkpt lat="43.5283" lon="6.30921">
        <ele>378</ele>
        <time>2023-09-15T12:29:11Z</time>
      </trkpt>
      <trkpt lat="43.5283" lon="6.3092">
        <ele>378</ele>
        <time>2023-09-15T12:29:12Z</time>
      </trkpt>
      <trkpt lat="43.5283" lon="6.30919">
        <ele>378.1</ele>
        <time>2023-09-15T12:29:13Z</time>
      </trkpt>
      <trkpt lat="43.5283" lon="6.30919">
        <ele>378.2</ele>
        <time>2023-09-15T12:29:14Z</time>
      </trkpt>
      <trkpt lat="43.52829" lon="6.30917">
        <ele>378.3</ele>
        <time>2023-09-15T12:29:15Z</time>
      </trkpt>
      <trkpt lat="43.52829" lon="6.30916">
        <ele>378.4</ele>
        <time>2023-09-15T12:29:16Z</time>
      </trkpt>
      <trkpt lat="43.52828" lon="6.30915">
        <ele>378.4</ele>
        <time>2023-09-15T12:29:17Z</time>
      </trkpt>
      <trkpt lat="43.52827" lon="6.30914">
        <ele>378.4</ele>
        <time>2023-09-15T12:29:18Z</time>
      </trkpt>
      <trkpt lat="43.52827" lon="6.30913">
        <ele>378.4</ele>
        <time>2023-09-15T12:29:19Z</time>
      </trkpt>
      <trkpt lat="43.52826" lon="6.30912">
        <ele>378.3</ele>
        <time>2023-09-15T12:29:20Z</time>
      </trkpt>
      <trkpt lat="43.52826" lon="6.30912">
        <ele>378.3</ele>
        <time>2023-09-15T12:29:21Z</time>
      </trkpt>
      <trkpt lat="43.52826" lon="6.30911">
        <ele>378.3</ele>
        <time>2023-09-15T12:29:22Z</time>
      </trkpt>
      <trkpt lat="43.52826" lon="6.3091">
        <ele>378.4</ele>
        <time>2023-09-15T12:29:23Z</time>
      </trkpt>
      <trkpt lat="43.52827" lon="6.30909">
        <ele>378.5</ele>
        <time>2023-09-15T12:29:24Z</time>
      </trkpt>
      <trkpt lat="43.52826" lon="6.30908">
        <ele>378.5</ele>
        <time>2023-09-15T12:29:25Z</time>
      </trkpt>
      <trkpt lat="43.52826" lon="6.30906">
        <ele>378.6</ele>
        <time>2023-09-15T12:29:26Z</time>
      </trkpt>
      <trkpt lat="43.52826" lon="6.30905">
        <ele>378.7</ele>
        <time>2023-09-15T12:29:27Z</time>
      </trkpt>
      <trkpt lat="43.52826" lon="6.30903">
        <ele>378.7</ele>
        <time>2023-09-15T12:29:28Z</time>
      </trkpt>
      <trkpt lat="43.52826" lon="6.30902">
        <ele>378.7</ele>
        <time>2023-09-15T12:29:29Z</time>
      </trkpt>
      <trkpt lat="43.52826" lon="6.30902">
        <ele>378.5</ele>
        <time>2023-09-15T12:29:30Z</time>
      </trkpt>
      <trkpt lat="43.52826" lon="6.309">
        <ele>378.6</ele>
        <time>2023-09-15T12:29:31Z</time>
      </trkpt>
      <trkpt lat="43.52827" lon="6.30898">
        <ele>378.6</ele>
        <time>2023-09-15T12:29:32Z</time>
      </trkpt>
      <trkpt lat="43.52828" lon="6.30897">
        <ele>378.7</ele>
        <time>2023-09-15T12:29:33Z</time>
      </trkpt>
      <trkpt lat="43.52828" lon="6.30895">
        <ele>378.7</ele>
        <time>2023-09-15T12:29:34Z</time>
      </trkpt>
      <trkpt lat="43.52829" lon="6.30893">
        <ele>378.8</ele>
        <time>2023-09-15T12:29:35Z</time>
      </trkpt>
      <trkpt lat="43.52829" lon="6.30892">
        <ele>378.8</ele>
        <time>2023-09-15T12:29:36Z</time>
      </trkpt>
      <trkpt lat="43.52829" lon="6.3089">
        <ele>378.8</ele>
        <time>2023-09-15T12:29:37Z</time>
      </trkpt>
      <trkpt lat="43.52829" lon="6.30888">
        <ele>378.8</ele>
        <time>2023-09-15T12:29:38Z</time>
      </trkpt>
      <trkpt lat="43.52829" lon="6.30886">
        <ele>378.8</ele>
        <time>2023-09-15T12:29:39Z</time>
      </trkpt>
      <trkpt lat="43.52829" lon="6.30885">
        <ele>378.8</ele>
        <time>2023-09-15T12:29:40Z</time>
      </trkpt>
      <trkpt lat="43.52829" lon="6.30884">
        <ele>378.8</ele>
        <time>2023-09-15T12:29:41Z</time>
      </trkpt>
      <trkpt lat="43.52829" lon="6.30883">
        <ele>378.8</ele>
        <time>2023-09-15T12:29:42Z</time>
      </trkpt>
      <trkpt lat="43.52829" lon="6.30882">
        <ele>378.8</ele>
        <time>2023-09-15T12:29:43Z</time>
      </trkpt>
      <trkpt lat="43.52828" lon="6.3088">
        <ele>378.8</ele>
        <time>2023-09-15T12:29:44Z</time>
      </trkpt>
      <trkpt lat="43.52828" lon="6.30879">
        <ele>378.8</ele>
        <time>2023-09-15T12:29:45Z</time>
      </trkpt>
      <trkpt lat="43.52829" lon="6.30878">
        <ele>378.7</ele>
        <time>2023-09-15T12:29:46Z</time>
      </trkpt>
      <trkpt lat="43.52829" lon="6.30876">
        <ele>378.7</ele>
        <time>2023-09-15T12:29:47Z</time>
      </trkpt>
      <trkpt lat="43.52829" lon="6.30875">
        <ele>378.7</ele>
        <time>2023-09-15T12:29:48Z</time>
      </trkpt>
      <trkpt lat="43.52829" lon="6.30873">
        <ele>378.7</ele>
        <time>2023-09-15T12:29:49Z</time>
      </trkpt>
      <trkpt lat="43.5283" lon="6.30872">
        <ele>378.9</ele>
        <time>2023-09-15T12:29:50Z</time>
      </trkpt>
      <trkpt lat="43.5283" lon="6.3087">
        <ele>378.9</ele>
        <time>2023-09-15T12:29:51Z</time>
      </trkpt>
      <trkpt lat="43.5283" lon="6.3087">
        <ele>378.9</ele>
        <time>2023-09-15T12:29:52Z</time>
      </trkpt>
      <trkpt lat="43.5283" lon="6.30868">
        <ele>378.9</ele>
        <time>2023-09-15T12:29:53Z</time>
      </trkpt>
      <trkpt lat="43.5283" lon="6.30867">
        <ele>378.9</ele>
        <time>2023-09-15T12:29:54Z</time>
      </trkpt>
      <trkpt lat="43.5283" lon="6.30865">
        <ele>378.9</ele>
        <time>2023-09-15T12:29:55Z</time>
      </trkpt>
      <trkpt lat="43.5283" lon="6.30864">
        <ele>378.8</ele>
        <time>2023-09-15T12:29:56Z</time>
      </trkpt>
      <trkpt lat="43.5283" lon="6.30863">
        <ele>378.8</ele>
        <time>2023-09-15T12:29:57Z</time>
      </trkpt>
      <trkpt lat="43.5283" lon="6.30861">
        <ele>378.7</ele>
        <time>2023-09-15T12:29:58Z</time>
      </trkpt>
      <trkpt lat="43.5283" lon="6.3086">
        <ele>378.6</ele>
        <time>2023-09-15T12:29:59Z</time>
      </trkpt>
      <trkpt lat="43.5283" lon="6.30858">
        <ele>378.6</ele>
        <time>2023-09-15T12:30:00Z</time>
      </trkpt>
      <trkpt lat="43.52831" lon="6.30857">
        <ele>378.5</ele>
        <time>2023-09-15T12:30:01Z</time>
      </trkpt>
      <trkpt lat="43.52831" lon="6.30856">
        <ele>378.5</ele>
        <time>2023-09-15T12:30:02Z</time>
      </trkpt>
      <trkpt lat="43.52831" lon="6.30855">
        <ele>378.4</ele>
        <time>2023-09-15T12:30:03Z</time>
      </trkpt>
      <trkpt lat="43.52831" lon="6.30854">
        <ele>378.4</ele>
        <time>2023-09-15T12:30:04Z</time>
      </trkpt>
      <trkpt lat="43.52831" lon="6.30852">
        <ele>378.3</ele>
        <time>2023-09-15T12:30:05Z</time>
      </trkpt>
      <trkpt lat="43.5283" lon="6.30851">
        <ele>378.2</ele>
        <time>2023-09-15T12:30:06Z</time>
      </trkpt>
      <trkpt lat="43.5283" lon="6.3085">
        <ele>378.2</ele>
        <time>2023-09-15T12:30:07Z</time>
      </trkpt>
      <trkpt lat="43.5283" lon="6.30848">
        <ele>378.2</ele>
        <time>2023-09-15T12:30:08Z</time>
      </trkpt>
      <trkpt lat="43.5283" lon="6.30847">
        <ele>378.1</ele>
        <time>2023-09-15T12:30:09Z</time>
      </trkpt>
      <trkpt lat="43.52831" lon="6.30846">
        <ele>378</ele>
        <time>2023-09-15T12:30:10Z</time>
      </trkpt>
      <trkpt lat="43.52831" lon="6.30844">
        <ele>377.9</ele>
        <time>2023-09-15T12:30:11Z</time>
      </trkpt>
      <trkpt lat="43.52831" lon="6.30842">
        <ele>377.9</ele>
        <time>2023-09-15T12:30:12Z</time>
      </trkpt>
      <trkpt lat="43.52831" lon="6.30841">
        <ele>377.9</ele>
        <time>2023-09-15T12:30:13Z</time>
      </trkpt>
      <trkpt lat="43.52831" lon="6.3084">
        <ele>377.9</ele>
        <time>2023-09-15T12:30:14Z</time>
      </trkpt>
      <trkpt lat="43.52831" lon="6.30839">
        <ele>378</ele>
        <time>2023-09-15T12:30:15Z</time>
      </trkpt>
      <trkpt lat="43.52832" lon="6.30838">
        <ele>378</ele>
        <time>2023-09-15T12:30:16Z</time>
      </trkpt>
      <trkpt lat="43.52832" lon="6.30837">
        <ele>377.9</ele>
        <time>2023-09-15T12:30:17Z</time>
      </trkpt>
      <trkpt lat="43.52832" lon="6.30837">
        <ele>378</ele>
        <time>2023-09-15T12:30:18Z</time>
      </trkpt>
      <trkpt lat="43.52832" lon="6.30836">
        <ele>377.9</ele>
        <time>2023-09-15T12:30:19Z</time>
      </trkpt>
      <trkpt lat="43.52833" lon="6.30835">
        <ele>378</ele>
        <time>2023-09-15T12:30:20Z</time>
      </trkpt>
      <trkpt lat="43.52833" lon="6.30834">
        <ele>378</ele>
        <time>2023-09-15T12:30:21Z</time>
      </trkpt>
      <trkpt lat="43.52833" lon="6.30833">
        <ele>378.1</ele>
        <time>2023-09-15T12:30:22Z</time>
      </trkpt>
      <trkpt lat="43.52834" lon="6.30833">
        <ele>378.2</ele>
        <time>2023-09-15T12:30:23Z</time>
      </trkpt>
      <trkpt lat="43.52835" lon="6.30831">
        <ele>378.3</ele>
        <time>2023-09-15T12:30:24Z</time>
      </trkpt>
      <trkpt lat="43.52836" lon="6.3083">
        <ele>378.4</ele>
        <time>2023-09-15T12:30:25Z</time>
      </trkpt>
      <trkpt lat="43.52836" lon="6.30829">
        <ele>378.4</ele>
        <time>2023-09-15T12:30:26Z</time>
      </trkpt>
      <trkpt lat="43.52837" lon="6.30828">
        <ele>378.4</ele>
        <time>2023-09-15T12:30:27Z</time>
      </trkpt>
      <trkpt lat="43.52837" lon="6.30826">
        <ele>378.4</ele>
        <time>2023-09-15T12:30:28Z</time>
      </trkpt>
      <trkpt lat="43.52837" lon="6.30825">
        <ele>378.4</ele>
        <time>2023-09-15T12:30:29Z</time>
      </trkpt>
      <trkpt lat="43.52837" lon="6.30823">
        <ele>378.4</ele>
        <time>2023-09-15T12:30:30Z</time>
      </trkpt>
      <trkpt lat="43.52838" lon="6.30822">
        <ele>378.3</ele>
        <time>2023-09-15T12:30:31Z</time>
      </trkpt>
      <trkpt lat="43.52837" lon="6.30821">
        <ele>378.3</ele>
        <time>2023-09-15T12:30:32Z</time>
      </trkpt>
      <trkpt lat="43.52837" lon="6.3082">
        <ele>378.3</ele>
        <time>2023-09-15T12:30:33Z</time>
      </trkpt>
      <trkpt lat="43.52837" lon="6.30818">
        <ele>378.2</ele>
        <time>2023-09-15T12:30:34Z</time>
      </trkpt>
      <trkpt lat="43.52838" lon="6.30817">
        <ele>378.2</ele>
        <time>2023-09-15T12:30:35Z</time>
      </trkpt>
      <trkpt lat="43.52838" lon="6.30816">
        <ele>378.1</ele>
        <time>2023-09-15T12:30:36Z</time>
      </trkpt>
      <trkpt lat="43.52839" lon="6.30814">
        <ele>378.1</ele>
        <time>2023-09-15T12:30:37Z</time>
      </trkpt>
      <trkpt lat="43.52839" lon="6.30812">
        <ele>378.1</ele>
        <time>2023-09-15T12:30:38Z</time>
      </trkpt>
      <trkpt lat="43.5284" lon="6.30811">
        <ele>378.1</ele>
        <time>2023-09-15T12:30:39Z</time>
      </trkpt>
      <trkpt lat="43.5284" lon="6.3081">
        <ele>378.1</ele>
        <time>2023-09-15T12:30:40Z</time>
      </trkpt>
      <trkpt lat="43.5284" lon="6.30808">
        <ele>378.2</ele>
        <time>2023-09-15T12:30:41Z</time>
      </trkpt>
      <trkpt lat="43.5284" lon="6.30807">
        <ele>378.2</ele>
        <time>2023-09-15T12:30:42Z</time>
      </trkpt>
      <trkpt lat="43.52841" lon="6.30805">
        <ele>378.2</ele>
        <time>2023-09-15T12:30:43Z</time>
      </trkpt>
      <trkpt lat="43.52841" lon="6.30803">
        <ele>378.2</ele>
        <time>2023-09-15T12:30:44Z</time>
      </trkpt>
      <trkpt lat="43.52841" lon="6.30801">
        <ele>378.2</ele>
        <time>2023-09-15T12:30:45Z</time>
      </trkpt>
      <trkpt lat="43.52841" lon="6.308">
        <ele>378.2</ele>
        <time>2023-09-15T12:30:46Z</time>
      </trkpt>
      <trkpt lat="43.52841" lon="6.30799">
        <ele>378.2</ele>
        <time>2023-09-15T12:30:47Z</time>
      </trkpt>
      <trkpt lat="43.52841" lon="6.30798">
        <ele>378.3</ele>
        <time>2023-09-15T12:30:48Z</time>
      </trkpt>
      <trkpt lat="43.52841" lon="6.30797">
        <ele>378.3</ele>
        <time>2023-09-15T12:30:49Z</time>
      </trkpt>
      <trkpt lat="43.52841" lon="6.30796">
        <ele>378.2</ele>
        <time>2023-09-15T12:30:50Z</time>
      </trkpt>
      <trkpt lat="43.52841" lon="6.30794">
        <ele>378.2</ele>
        <time>2023-09-15T12:30:51Z</time>
      </trkpt>
      <trkpt lat="43.52841" lon="6.30793">
        <ele>378</ele>
        <time>2023-09-15T12:30:52Z</time>
      </trkpt>
      <trkpt lat="43.52841" lon="6.30792">
        <ele>377.9</ele>
        <time>2023-09-15T12:30:53Z</time>
      </trkpt>
      <trkpt lat="43.52841" lon="6.3079">
        <ele>377.9</ele>
        <time>2023-09-15T12:30:54Z</time>
      </trkpt>
      <trkpt lat="43.52841" lon="6.3079">
        <ele>377.7</ele>
        <time>2023-09-15T12:30:55Z</time>
      </trkpt>
      <trkpt lat="43.52841" lon="6.30788">
        <ele>377.7</ele>
        <time>2023-09-15T12:30:56Z</time>
      </trkpt>
      <trkpt lat="43.5284" lon="6.30787">
        <ele>377.6</ele>
        <time>2023-09-15T12:30:57Z</time>
      </trkpt>
      <trkpt lat="43.5284" lon="6.30786">
        <ele>377.6</ele>
        <time>2023-09-15T12:30:58Z</time>
      </trkpt>
      <trkpt lat="43.5284" lon="6.30785">
        <ele>377.5</ele>
        <time>2023-09-15T12:30:59Z</time>
      </trkpt>
      <trkpt lat="43.5284" lon="6.30784">
        <ele>377.4</ele>
        <time>2023-09-15T12:31:00Z</time>
      </trkpt>
      <trkpt lat="43.5284" lon="6.30783">
        <ele>377.4</ele>
        <time>2023-09-15T12:31:01Z</time>
      </trkpt>
      <trkpt lat="43.52839" lon="6.30782">
        <ele>377.3</ele>
        <time>2023-09-15T12:31:02Z</time>
      </trkpt>
      <trkpt lat="43.52839" lon="6.30781">
        <ele>377.3</ele>
        <time>2023-09-15T12:31:03Z</time>
      </trkpt>
      <trkpt lat="43.52838" lon="6.3078">
        <ele>377.4</ele>
        <time>2023-09-15T12:31:04Z</time>
      </trkpt>
      <trkpt lat="43.52838" lon="6.30779">
        <ele>377.4</ele>
        <time>2023-09-15T12:31:05Z</time>
      </trkpt>
      <trkpt lat="43.52838" lon="6.30779">
        <ele>377.4</ele>
        <time>2023-09-15T12:31:06Z</time>
      </trkpt>
      <trkpt lat="43.52837" lon="6.30779">
        <ele>377.4</ele>
        <time>2023-09-15T12:31:07Z</time>
      </trkpt>
      <trkpt lat="43.52837" lon="6.30778">
        <ele>377.5</ele>
        <time>2023-09-15T12:31:08Z</time>
      </trkpt>
      <trkpt lat="43.52836" lon="6.30778">
        <ele>377.5</ele>
        <time>2023-09-15T12:31:09Z</time>
      </trkpt>
      <trkpt lat="43.52836" lon="6.30777">
        <ele>377.5</ele>
        <time>2023-09-15T12:31:10Z</time>
      </trkpt>
      <trkpt lat="43.52835" lon="6.30777">
        <ele>377.4</ele>
        <time>2023-09-15T12:31:11Z</time>
      </trkpt>
      <trkpt lat="43.52835" lon="6.30777">
        <ele>377.5</ele>
        <time>2023-09-15T12:31:12Z</time>
      </trkpt>
      <trkpt lat="43.52835" lon="6.30776">
        <ele>377.4</ele>
        <time>2023-09-15T12:31:13Z</time>
      </trkpt>
      <trkpt lat="43.52835" lon="6.30776">
        <ele>377.4</ele>
        <time>2023-09-15T12:31:14Z</time>
      </trkpt>
      <trkpt lat="43.52835" lon="6.30776">
        <ele>377.3</ele>
        <time>2023-09-15T12:31:15Z</time>
      </trkpt>
      <trkpt lat="43.52835" lon="6.30776">
        <ele>377.3</ele>
        <time>2023-09-15T12:31:16Z</time>
      </trkpt>
      <trkpt lat="43.52835" lon="6.30776">
        <ele>377.3</ele>
        <time>2023-09-15T12:31:17Z</time>
      </trkpt>
      <trkpt lat="43.52835" lon="6.30776">
        <ele>377.3</ele>
        <time>2023-09-15T12:31:18Z</time>
      </trkpt>
      <trkpt lat="43.52835" lon="6.30776">
        <ele>377.3</ele>
        <time>2023-09-15T12:31:19Z</time>
      </trkpt>
      <trkpt lat="43.52834" lon="6.30776">
        <ele>377.3</ele>
        <time>2023-09-15T12:31:20Z</time>
      </trkpt>
      <trkpt lat="43.52834" lon="6.30776">
        <ele>377.3</ele>
        <time>2023-09-15T12:31:21Z</time>
      </trkpt>
      <trkpt lat="43.52834" lon="6.30776">
        <ele>377.2</ele>
        <time>2023-09-15T12:31:22Z</time>
      </trkpt>
      <trkpt lat="43.52834" lon="6.30776">
        <ele>377.2</ele>
        <time>2023-09-15T12:31:23Z</time>
      </trkpt>
      <trkpt lat="43.52834" lon="6.30776">
        <ele>377.4</ele>
        <time>2023-09-15T12:31:24Z</time>
      </trkpt>
      <trkpt lat="43.52834" lon="6.30776">
        <ele>377.5</ele>
        <time>2023-09-15T12:31:25Z</time>
      </trkpt>
      <trkpt lat="43.52834" lon="6.30776">
        <ele>377.6</ele>
        <time>2023-09-15T12:31:26Z</time>
      </trkpt>
      <trkpt lat="43.52834" lon="6.30775">
        <ele>377.6</ele>
        <time>2023-09-15T12:31:27Z</time>
      </trkpt>
      <trkpt lat="43.52834" lon="6.30775">
        <ele>377.7</ele>
        <time>2023-09-15T12:31:28Z</time>
      </trkpt>
      <trkpt lat="43.52834" lon="6.30775">
        <ele>377.7</ele>
        <time>2023-09-15T12:31:29Z</time>
      </trkpt>
      <trkpt lat="43.52834" lon="6.30775">
        <ele>377.7</ele>
        <time>2023-09-15T12:31:30Z</time>
      </trkpt>
      <trkpt lat="43.52834" lon="6.30775">
        <ele>377.7</ele>
        <time>2023-09-15T12:31:31Z</time>
      </trkpt>
      <trkpt lat="43.52834" lon="6.30775">
        <ele>377.7</ele>
        <time>2023-09-15T12:31:32Z</time>
      </trkpt>
      <trkpt lat="43.52834" lon="6.30775">
        <ele>377.6</ele>
        <time>2023-09-15T12:31:33Z</time>
      </trkpt>
      <trkpt lat="43.52834" lon="6.30775">
        <ele>377.7</ele>
        <time>2023-09-15T12:31:34Z</time>
      </trkpt>
      <trkpt lat="43.52834" lon="6.30774">
        <ele>377.8</ele>
        <time>2023-09-15T12:31:35Z</time>
      </trkpt>
      <trkpt lat="43.52834" lon="6.30774">
        <ele>377.8</ele>
        <time>2023-09-15T12:31:36Z</time>
      </trkpt>
      <trkpt lat="43.52834" lon="6.30774">
        <ele>377.8</ele>
        <time>2023-09-15T12:31:37Z</time>
      </trkpt>
      <trkpt lat="43.52834" lon="6.30774">
        <ele>377.8</ele>
        <time>2023-09-15T12:31:38Z</time>
      </trkpt>
      <trkpt lat="43.52834" lon="6.30774">
        <ele>377.8</ele>
        <time>2023-09-15T12:31:39Z</time>
      </trkpt>
      <trkpt lat="43.52834" lon="6.30774">
        <ele>377.9</ele>
        <time>2023-09-15T12:31:40Z</time>
      </trkpt>
      <trkpt lat="43.52834" lon="6.30774">
        <ele>377.9</ele>
        <time>2023-09-15T12:31:41Z</time>
      </trkpt>
      <trkpt lat="43.52834" lon="6.30774">
        <ele>377.9</ele>
        <time>2023-09-15T12:31:42Z</time>
      </trkpt>
      <trkpt lat="43.52833" lon="6.30774">
        <ele>377.9</ele>
        <time>2023-09-15T12:31:43Z</time>
      </trkpt>
      <trkpt lat="43.52833" lon="6.30774">
        <ele>378</ele>
        <time>2023-09-15T12:31:44Z</time>
      </trkpt>
      <trkpt lat="43.52833" lon="6.30774">
        <ele>377.9</ele>
        <time>2023-09-15T12:31:45Z</time>
      </trkpt>
      <trkpt lat="43.52833" lon="6.30775">
        <ele>377.9</ele>
        <time>2023-09-15T12:31:46Z</time>
      </trkpt>
      <trkpt lat="43.52833" lon="6.30775">
        <ele>377.8</ele>
        <time>2023-09-15T12:31:47Z</time>
      </trkpt>
      <trkpt lat="43.52833" lon="6.30775">
        <ele>377.8</ele>
        <time>2023-09-15T12:31:48Z</time>
      </trkpt>
      <trkpt lat="43.52833" lon="6.30775">
        <ele>377.8</ele>
        <time>2023-09-15T12:31:49Z</time>
      </trkpt>
      <trkpt lat="43.52833" lon="6.30775">
        <ele>377.8</ele>
        <time>2023-09-15T12:31:50Z</time>
      </trkpt>
      <trkpt lat="43.52833" lon="6.30775">
        <ele>377.8</ele>
        <time>2023-09-15T12:31:51Z</time>
      </trkpt>
      <trkpt lat="43.52833" lon="6.30775">
        <ele>377.7</ele>
        <time>2023-09-15T12:31:52Z</time>
      </trkpt>
      <trkpt lat="43.52833" lon="6.30775">
        <ele>377.8</ele>
        <time>2023-09-15T12:31:53Z</time>
      </trkpt>
      <trkpt lat="43.52833" lon="6.30775">
        <ele>377.8</ele>
        <time>2023-09-15T12:31:54Z</time>
      </trkpt>
      <trkpt lat="43.52833" lon="6.30775">
        <ele>377.8</ele>
        <time>2023-09-15T12:31:55Z</time>
      </trkpt>
      <trkpt lat="43.52833" lon="6.30775">
        <ele>377.9</ele>
        <time>2023-09-15T12:31:56Z</time>
      </trkpt>
      <trkpt lat="43.52833" lon="6.30775">
        <ele>377.9</ele>
        <time>2023-09-15T12:31:57Z</time>
      </trkpt>
      <trkpt lat="43.52833" lon="6.30775">
        <ele>377.9</ele>
        <time>2023-09-15T12:31:58Z</time>
      </trkpt>
      <trkpt lat="43.52833" lon="6.30775">
        <ele>377.9</ele>
        <time>2023-09-15T12:31:59Z</time>
      </trkpt>
      <trkpt lat="43.52833" lon="6.30774">
        <ele>377.8</ele>
        <time>2023-09-15T12:32:00Z</time>
      </trkpt>
      <trkpt lat="43.52833" lon="6.30774">
        <ele>377.8</ele>
        <time>2023-09-15T12:32:01Z</time>
      </trkpt>
      <trkpt lat="43.52833" lon="6.30774">
        <ele>377.7</ele>
        <time>2023-09-15T12:32:02Z</time>
      </trkpt>
      <trkpt lat="43.52833" lon="6.30774">
        <ele>377.7</ele>
        <time>2023-09-15T12:32:03Z</time>
      </trkpt>
      <trkpt lat="43.52833" lon="6.30775">
        <ele>377.7</ele>
        <time>2023-09-15T12:32:04Z</time>
      </trkpt>
      <trkpt lat="43.52833" lon="6.30775">
        <ele>377.6</ele>
        <time>2023-09-15T12:32:05Z</time>
      </trkpt>
      <trkpt lat="43.52833" lon="6.30775">
        <ele>377.6</ele>
        <time>2023-09-15T12:32:06Z</time>
      </trkpt>
      <trkpt lat="43.52833" lon="6.30775">
        <ele>377.6</ele>
        <time>2023-09-15T12:32:07Z</time>
      </trkpt>
      <trkpt lat="43.52833" lon="6.30775">
        <ele>377.6</ele>
        <time>2023-09-15T12:32:08Z</time>
      </trkpt>
      <trkpt lat="43.52834" lon="6.30775">
        <ele>377.6</ele>
        <time>2023-09-15T12:32:09Z</time>
      </trkpt>
      <trkpt lat="43.52834" lon="6.30775">
        <ele>377.7</ele>
        <time>2023-09-15T12:32:10Z</time>
      </trkpt>
      <trkpt lat="43.52834" lon="6.30775">
        <ele>377.7</ele>
        <time>2023-09-15T12:32:11Z</time>
      </trkpt>
      <trkpt lat="43.52834" lon="6.30775">
        <ele>377.7</ele>
        <time>2023-09-15T12:32:12Z</time>
      </trkpt>
      <trkpt lat="43.52834" lon="6.30775">
        <ele>377.7</ele>
        <time>2023-09-15T12:32:13Z</time>
      </trkpt>
      <trkpt lat="43.52834" lon="6.30775">
        <ele>377.7</ele>
        <time>2023-09-15T12:32:14Z</time>
      </trkpt>
      <trkpt lat="43.52834" lon="6.30775">
        <ele>377.7</ele>
        <time>2023-09-15T12:32:15Z</time>
      </trkpt>
      <trkpt lat="43.52834" lon="6.30775">
        <ele>377.7</ele>
        <time>2023-09-15T12:32:16Z</time>
      </trkpt>
      <trkpt lat="43.52834" lon="6.30775">
        <ele>377.7</ele>
        <time>2023-09-15T12:32:17Z</time>
      </trkpt>
      <trkpt lat="43.52834" lon="6.30775">
        <ele>377.7</ele>
        <time>2023-09-15T12:32:18Z</time>
      </trkpt>
      <trkpt lat="43.52834" lon="6.30775">
        <ele>377.8</ele>
        <time>2023-09-15T12:32:19Z</time>
      </trkpt>
      <trkpt lat="43.52834" lon="6.30775">
        <ele>377.8</ele>
        <time>2023-09-15T12:32:20Z</time>
      </trkpt>
      <trkpt lat="43.52835" lon="6.30775">
        <ele>377.8</ele>
        <time>2023-09-15T12:32:21Z</time>
      </trkpt>
      <trkpt lat="43.52835" lon="6.30775">
        <ele>377.8</ele>
        <time>2023-09-15T12:32:22Z</time>
      </trkpt>
      <trkpt lat="43.52835" lon="6.30775">
        <ele>377.8</ele>
        <time>2023-09-15T12:32:23Z</time>
      </trkpt>
      <trkpt lat="43.52835" lon="6.30775">
        <ele>377.7</ele>
        <time>2023-09-15T12:32:24Z</time>
      </trkpt>
      <trkpt lat="43.52835" lon="6.30775">
        <ele>377.7</ele>
        <time>2023-09-15T12:32:25Z</time>
      </trkpt>
      <trkpt lat="43.52835" lon="6.30774">
        <ele>377.7</ele>
        <time>2023-09-15T12:32:26Z</time>
      </trkpt>
      <trkpt lat="43.52835" lon="6.30774">
        <ele>377.6</ele>
        <time>2023-09-15T12:32:27Z</time>
      </trkpt>
      <trkpt lat="43.52835" lon="6.30774">
        <ele>377.6</ele>
        <time>2023-09-15T12:32:28Z</time>
      </trkpt>
      <trkpt lat="43.52835" lon="6.30774">
        <ele>377.6</ele>
        <time>2023-09-15T12:32:29Z</time>
      </trkpt>
      <trkpt lat="43.52835" lon="6.30774">
        <ele>377.6</ele>
        <time>2023-09-15T12:32:30Z</time>
      </trkpt>
      <trkpt lat="43.52835" lon="6.30773">
        <ele>377.6</ele>
        <time>2023-09-15T12:32:31Z</time>
      </trkpt>
      <trkpt lat="43.52835" lon="6.30773">
        <ele>377.6</ele>
        <time>2023-09-15T12:32:32Z</time>
      </trkpt>
      <trkpt lat="43.52835" lon="6.30773">
        <ele>377.6</ele>
        <time>2023-09-15T12:32:33Z</time>
      </trkpt>
      <trkpt lat="43.52835" lon="6.30773">
        <ele>377.6</ele>
        <time>2023-09-15T12:32:34Z</time>
      </trkpt>
      <trkpt lat="43.52835" lon="6.30773">
        <ele>377.7</ele>
        <time>2023-09-15T12:32:35Z</time>
      </trkpt>
      <trkpt lat="43.52835" lon="6.30773">
        <ele>377.7</ele>
        <time>2023-09-15T12:32:36Z</time>
      </trkpt>
      <trkpt lat="43.52835" lon="6.30773">
        <ele>377.8</ele>
        <time>2023-09-15T12:32:37Z</time>
      </trkpt>
      <trkpt lat="43.52835" lon="6.30773">
        <ele>377.9</ele>
        <time>2023-09-15T12:32:38Z</time>
      </trkpt>
      <trkpt lat="43.52835" lon="6.30773">
        <ele>377.9</ele>
        <time>2023-09-15T12:32:39Z</time>
      </trkpt>
      <trkpt lat="43.52835" lon="6.30772">
        <ele>377.9</ele>
        <time>2023-09-15T12:32:40Z</time>
      </trkpt>
      <trkpt lat="43.52835" lon="6.30772">
        <ele>377.9</ele>
        <time>2023-09-15T12:32:41Z</time>
      </trkpt>
      <trkpt lat="43.52835" lon="6.30772">
        <ele>377.8</ele>
        <time>2023-09-15T12:32:42Z</time>
      </trkpt>
      <trkpt lat="43.52834" lon="6.30772">
        <ele>377.6</ele>
        <time>2023-09-15T12:32:43Z</time>
      </trkpt>
      <trkpt lat="43.52835" lon="6.30772">
        <ele>377.5</ele>
        <time>2023-09-15T12:32:44Z</time>
      </trkpt>
      <trkpt lat="43.52835" lon="6.30773">
        <ele>377.5</ele>
        <time>2023-09-15T12:32:45Z</time>
      </trkpt>
      <trkpt lat="43.52835" lon="6.30773">
        <ele>377.6</ele>
        <time>2023-09-15T12:32:46Z</time>
      </trkpt>
      <trkpt lat="43.52835" lon="6.30773">
        <ele>377.6</ele>
        <time>2023-09-15T12:32:47Z</time>
      </trkpt>
      <trkpt lat="43.52835" lon="6.30773">
        <ele>377.6</ele>
        <time>2023-09-15T12:32:48Z</time>
      </trkpt>
      <trkpt lat="43.52834" lon="6.30773">
        <ele>377.7</ele>
        <time>2023-09-15T12:32:49Z</time>
      </trkpt>
      <trkpt lat="43.52834" lon="6.30773">
        <ele>377.7</ele>
        <time>2023-09-15T12:32:50Z</time>
      </trkpt>
      <trkpt lat="43.52834" lon="6.30773">
        <ele>377.6</ele>
        <time>2023-09-15T12:32:51Z</time>
      </trkpt>
      <trkpt lat="43.52834" lon="6.30773">
        <ele>377.6</ele>
        <time>2023-09-15T12:32:52Z</time>
      </trkpt>
      <trkpt lat="43.52834" lon="6.30773">
        <ele>377.6</ele>
        <time>2023-09-15T12:32:53Z</time>
      </trkpt>
      <trkpt lat="43.52834" lon="6.30773">
        <ele>377.6</ele>
        <time>2023-09-15T12:32:54Z</time>
      </trkpt>
      <trkpt lat="43.52834" lon="6.30774">
        <ele>377.6</ele>
        <time>2023-09-15T12:32:55Z</time>
      </trkpt>
      <trkpt lat="43.52834" lon="6.30774">
        <ele>377.7</ele>
        <time>2023-09-15T12:32:56Z</time>
      </trkpt>
      <trkpt lat="43.52834" lon="6.30774">
        <ele>377.6</ele>
        <time>2023-09-15T12:32:57Z</time>
      </trkpt>
      <trkpt lat="43.52834" lon="6.30774">
        <ele>377.6</ele>
        <time>2023-09-15T12:32:58Z</time>
      </trkpt>
      <trkpt lat="43.52834" lon="6.30774">
        <ele>377.6</ele>
        <time>2023-09-15T12:32:59Z</time>
      </trkpt>
      <trkpt lat="43.52834" lon="6.30774">
        <ele>377.6</ele>
        <time>2023-09-15T12:33:00Z</time>
      </trkpt>
      <trkpt lat="43.52834" lon="6.30774">
        <ele>377.6</ele>
        <time>2023-09-15T12:33:01Z</time>
      </trkpt>
      <trkpt lat="43.52834" lon="6.30774">
        <ele>377.6</ele>
        <time>2023-09-15T12:33:02Z</time>
      </trkpt>
      <trkpt lat="43.52834" lon="6.30774">
        <ele>377.6</ele>
        <time>2023-09-15T12:33:03Z</time>
      </trkpt>
      <trkpt lat="43.52834" lon="6.30774">
        <ele>377.6</ele>
        <time>2023-09-15T12:33:04Z</time>
      </trkpt>
      <trkpt lat="43.52834" lon="6.30774">
        <ele>377.5</ele>
        <time>2023-09-15T12:33:05Z</time>
      </trkpt>
      <trkpt lat="43.52833" lon="6.30774">
        <ele>377.5</ele>
        <time>2023-09-15T12:33:06Z</time>
      </trkpt>
      <trkpt lat="43.52833" lon="6.30775">
        <ele>377.6</ele>
        <time>2023-09-15T12:33:07Z</time>
      </trkpt>
      <trkpt lat="43.52833" lon="6.30775">
        <ele>377.6</ele>
        <time>2023-09-15T12:33:08Z</time>
      </trkpt>
      <trkpt lat="43.52833" lon="6.30775">
        <ele>377.7</ele>
        <time>2023-09-15T12:33:09Z</time>
      </trkpt>
      <trkpt lat="43.52833" lon="6.30775">
        <ele>377.6</ele>
        <time>2023-09-15T12:33:10Z</time>
      </trkpt>
      <trkpt lat="43.52833" lon="6.30775">
        <ele>377.7</ele>
        <time>2023-09-15T12:33:11Z</time>
      </trkpt>
      <trkpt lat="43.52833" lon="6.30774">
        <ele>377.7</ele>
        <time>2023-09-15T12:33:12Z</time>
      </trkpt>
      <trkpt lat="43.52833" lon="6.30774">
        <ele>377.8</ele>
        <time>2023-09-15T12:33:13Z</time>
      </trkpt>
      <trkpt lat="43.52833" lon="6.30774">
        <ele>377.9</ele>
        <time>2023-09-15T12:33:14Z</time>
      </trkpt>
      <trkpt lat="43.52833" lon="6.30774">
        <ele>377.9</ele>
        <time>2023-09-15T12:33:15Z</time>
      </trkpt>
      <trkpt lat="43.52833" lon="6.30775">
        <ele>377.9</ele>
        <time>2023-09-15T12:33:16Z</time>
      </trkpt>
      <trkpt lat="43.52833" lon="6.30774">
        <ele>377.8</ele>
        <time>2023-09-15T12:33:17Z</time>
      </trkpt>
      <trkpt lat="43.52833" lon="6.30774">
        <ele>377.7</ele>
        <time>2023-09-15T12:33:18Z</time>
      </trkpt>
      <trkpt lat="43.52834" lon="6.30773">
        <ele>377.6</ele>
        <time>2023-09-15T12:33:19Z</time>
      </trkpt>
      <trkpt lat="43.52834" lon="6.30772">
        <ele>377.6</ele>
        <time>2023-09-15T12:33:20Z</time>
      </trkpt>
      <trkpt lat="43.52834" lon="6.30772">
        <ele>377.6</ele>
        <time>2023-09-15T12:33:21Z</time>
      </trkpt>
      <trkpt lat="43.52834" lon="6.30772">
        <ele>377.6</ele>
        <time>2023-09-15T12:33:22Z</time>
      </trkpt>
      <trkpt lat="43.52834" lon="6.30771">
        <ele>377.6</ele>
        <time>2023-09-15T12:33:23Z</time>
      </trkpt>
      <trkpt lat="43.52834" lon="6.30771">
        <ele>377.6</ele>
        <time>2023-09-15T12:33:24Z</time>
      </trkpt>
      <trkpt lat="43.52834" lon="6.3077">
        <ele>377.5</ele>
        <time>2023-09-15T12:33:25Z</time>
      </trkpt>
      <trkpt lat="43.52834" lon="6.3077">
        <ele>377.5</ele>
        <time>2023-09-15T12:33:26Z</time>
      </trkpt>
      <trkpt lat="43.52834" lon="6.30769">
        <ele>377.4</ele>
        <time>2023-09-15T12:33:27Z</time>
      </trkpt>
      <trkpt lat="43.52834" lon="6.30768">
        <ele>377.4</ele>
        <time>2023-09-15T12:33:28Z</time>
      </trkpt>
      <trkpt lat="43.52835" lon="6.30766">
        <ele>377.4</ele>
        <time>2023-09-15T12:33:29Z</time>
      </trkpt>
      <trkpt lat="43.52835" lon="6.30765">
        <ele>377.4</ele>
        <time>2023-09-15T12:33:30Z</time>
      </trkpt>
      <trkpt lat="43.52835" lon="6.30765">
        <ele>377.3</ele>
        <time>2023-09-15T12:33:31Z</time>
      </trkpt>
      <trkpt lat="43.52835" lon="6.30763">
        <ele>377.3</ele>
        <time>2023-09-15T12:33:32Z</time>
      </trkpt>
      <trkpt lat="43.52835" lon="6.30763">
        <ele>377.3</ele>
        <time>2023-09-15T12:33:33Z</time>
      </trkpt>
      <trkpt lat="43.52835" lon="6.30762">
        <ele>377.3</ele>
        <time>2023-09-15T12:33:34Z</time>
      </trkpt>
      <trkpt lat="43.52835" lon="6.30761">
        <ele>377.3</ele>
        <time>2023-09-15T12:33:35Z</time>
      </trkpt>
      <trkpt lat="43.52834" lon="6.3076">
        <ele>377.3</ele>
        <time>2023-09-15T12:33:36Z</time>
      </trkpt>
      <trkpt lat="43.52834" lon="6.3076">
        <ele>377.3</ele>
        <time>2023-09-15T12:33:37Z</time>
      </trkpt>
      <trkpt lat="43.52833" lon="6.3076">
        <ele>377.3</ele>
        <time>2023-09-15T12:33:38Z</time>
      </trkpt>
      <trkpt lat="43.52833" lon="6.3076">
        <ele>377.4</ele>
        <time>2023-09-15T12:33:39Z</time>
      </trkpt>
      <trkpt lat="43.52833" lon="6.30759">
        <ele>377.4</ele>
        <time>2023-09-15T12:33:40Z</time>
      </trkpt>
      <trkpt lat="43.52833" lon="6.30759">
        <ele>377.4</ele>
        <time>2023-09-15T12:33:41Z</time>
      </trkpt>
      <trkpt lat="43.52833" lon="6.30759">
        <ele>377.5</ele>
        <time>2023-09-15T12:33:42Z</time>
      </trkpt>
      <trkpt lat="43.52833" lon="6.30758">
        <ele>377.4</ele>
        <time>2023-09-15T12:33:43Z</time>
      </trkpt>
      <trkpt lat="43.52833" lon="6.30757">
        <ele>377.4</ele>
        <time>2023-09-15T12:33:44Z</time>
      </trkpt>
      <trkpt lat="43.52834" lon="6.30756">
        <ele>377.3</ele>
        <time>2023-09-15T12:33:45Z</time>
      </trkpt>
      <trkpt lat="43.52834" lon="6.30755">
        <ele>377.3</ele>
        <time>2023-09-15T12:33:46Z</time>
      </trkpt>
      <trkpt lat="43.52834" lon="6.30754">
        <ele>377.3</ele>
        <time>2023-09-15T12:33:47Z</time>
      </trkpt>
      <trkpt lat="43.52835" lon="6.30754">
        <ele>377.3</ele>
        <time>2023-09-15T12:33:48Z</time>
      </trkpt>
      <trkpt lat="43.52834" lon="6.30753">
        <ele>377.3</ele>
        <time>2023-09-15T12:33:49Z</time>
      </trkpt>
      <trkpt lat="43.52834" lon="6.30753">
        <ele>377.2</ele>
        <time>2023-09-15T12:33:50Z</time>
      </trkpt>
      <trkpt lat="43.52833" lon="6.30753">
        <ele>377.3</ele>
        <time>2023-09-15T12:33:51Z</time>
      </trkpt>
      <trkpt lat="43.52833" lon="6.30753">
        <ele>377.3</ele>
        <time>2023-09-15T12:33:52Z</time>
      </trkpt>
      <trkpt lat="43.52833" lon="6.30753">
        <ele>377.4</ele>
        <time>2023-09-15T12:33:53Z</time>
      </trkpt>
      <trkpt lat="43.52833" lon="6.30753">
        <ele>377.5</ele>
        <time>2023-09-15T12:33:54Z</time>
      </trkpt>
      <trkpt lat="43.52833" lon="6.30752">
        <ele>377.6</ele>
        <time>2023-09-15T12:33:55Z</time>
      </trkpt>
      <trkpt lat="43.52832" lon="6.30752">
        <ele>377.6</ele>
        <time>2023-09-15T12:33:56Z</time>
      </trkpt>
      <trkpt lat="43.52832" lon="6.30752">
        <ele>377.6</ele>
        <time>2023-09-15T12:33:57Z</time>
      </trkpt>
      <trkpt lat="43.52832" lon="6.30752">
        <ele>377.6</ele>
        <time>2023-09-15T12:33:58Z</time>
      </trkpt>
      <trkpt lat="43.52832" lon="6.30752">
        <ele>377.5</ele>
        <time>2023-09-15T12:33:59Z</time>
      </trkpt>
      <trkpt lat="43.52832" lon="6.30752">
        <ele>377.5</ele>
        <time>2023-09-15T12:34:00Z</time>
      </trkpt>
      <trkpt lat="43.52832" lon="6.30752">
        <ele>377.5</ele>
        <time>2023-09-15T12:34:01Z</time>
      </trkpt>
      <trkpt lat="43.52832" lon="6.30752">
        <ele>377.5</ele>
        <time>2023-09-15T12:34:02Z</time>
      </trkpt>
      <trkpt lat="43.52831" lon="6.30752">
        <ele>377.5</ele>
        <time>2023-09-15T12:34:03Z</time>
      </trkpt>
      <trkpt lat="43.52831" lon="6.30751">
        <ele>377.4</ele>
        <time>2023-09-15T12:34:04Z</time>
      </trkpt>
      <trkpt lat="43.52831" lon="6.30751">
        <ele>377.5</ele>
        <time>2023-09-15T12:34:05Z</time>
      </trkpt>
      <trkpt lat="43.52831" lon="6.30751">
        <ele>377.5</ele>
        <time>2023-09-15T12:34:06Z</time>
      </trkpt>
      <trkpt lat="43.52831" lon="6.30751">
        <ele>377.5</ele>
        <time>2023-09-15T12:34:07Z</time>
      </trkpt>
      <trkpt lat="43.52831" lon="6.30751">
        <ele>377.4</ele>
        <time>2023-09-15T12:34:08Z</time>
      </trkpt>
      <trkpt lat="43.52831" lon="6.30751">
        <ele>377.4</ele>
        <time>2023-09-15T12:34:09Z</time>
      </trkpt>
      <trkpt lat="43.52831" lon="6.3075">
        <ele>377.5</ele>
        <time>2023-09-15T12:34:10Z</time>
      </trkpt>
      <trkpt lat="43.52831" lon="6.3075">
        <ele>377.5</ele>
        <time>2023-09-15T12:34:11Z</time>
      </trkpt>
      <trkpt lat="43.52831" lon="6.3075">
        <ele>377.5</ele>
        <time>2023-09-15T12:34:12Z</time>
      </trkpt>
      <trkpt lat="43.52831" lon="6.3075">
        <ele>377.6</ele>
        <time>2023-09-15T12:34:13Z</time>
      </trkpt>
      <trkpt lat="43.52831" lon="6.3075">
        <ele>377.6</ele>
        <time>2023-09-15T12:34:14Z</time>
      </trkpt>
      <trkpt lat="43.52831" lon="6.3075">
        <ele>377.7</ele>
        <time>2023-09-15T12:34:15Z</time>
      </trkpt>
      <trkpt lat="43.52831" lon="6.3075">
        <ele>377.7</ele>
        <time>2023-09-15T12:34:16Z</time>
      </trkpt>
      <trkpt lat="43.52831" lon="6.30749">
        <ele>377.7</ele>
        <time>2023-09-15T12:34:17Z</time>
      </trkpt>
      <trkpt lat="43.52831" lon="6.30749">
        <ele>377.6</ele>
        <time>2023-09-15T12:34:18Z</time>
      </trkpt>
      <trkpt lat="43.52831" lon="6.30749">
        <ele>377.6</ele>
        <time>2023-09-15T12:34:19Z</time>
      </trkpt>
      <trkpt lat="43.52831" lon="6.30749">
        <ele>377.7</ele>
        <time>2023-09-15T12:34:20Z</time>
      </trkpt>
      <trkpt lat="43.5283" lon="6.30749">
        <ele>377.7</ele>
        <time>2023-09-15T12:34:21Z</time>
      </trkpt>
      <trkpt lat="43.5283" lon="6.30749">
        <ele>377.7</ele>
        <time>2023-09-15T12:34:22Z</time>
      </trkpt>
      <trkpt lat="43.5283" lon="6.30749">
        <ele>377.8</ele>
        <time>2023-09-15T12:34:23Z</time>
      </trkpt>
      <trkpt lat="43.5283" lon="6.30749">
        <ele>377.7</ele>
        <time>2023-09-15T12:34:24Z</time>
      </trkpt>
      <trkpt lat="43.5283" lon="6.30749">
        <ele>377.7</ele>
        <time>2023-09-15T12:34:25Z</time>
      </trkpt>
      <trkpt lat="43.52831" lon="6.30749">
        <ele>377.7</ele>
        <time>2023-09-15T12:34:26Z</time>
      </trkpt>
      <trkpt lat="43.52831" lon="6.30749">
        <ele>377.7</ele>
        <time>2023-09-15T12:34:27Z</time>
      </trkpt>
      <trkpt lat="43.52831" lon="6.30749">
        <ele>377.6</ele>
        <time>2023-09-15T12:34:28Z</time>
      </trkpt>
      <trkpt lat="43.52831" lon="6.30749">
        <ele>377.5</ele>
        <time>2023-09-15T12:34:29Z</time>
      </trkpt>
      <trkpt lat="43.52831" lon="6.30748">
        <ele>377.5</ele>
        <time>2023-09-15T12:34:30Z</time>
      </trkpt>
      <trkpt lat="43.52831" lon="6.30748">
        <ele>377.4</ele>
        <time>2023-09-15T12:34:31Z</time>
      </trkpt>
      <trkpt lat="43.52831" lon="6.30748">
        <ele>377.4</ele>
        <time>2023-09-15T12:34:32Z</time>
      </trkpt>
      <trkpt lat="43.52831" lon="6.30749">
        <ele>377.5</ele>
        <time>2023-09-15T12:34:33Z</time>
      </trkpt>
      <trkpt lat="43.52831" lon="6.30748">
        <ele>377.5</ele>
        <time>2023-09-15T12:34:34Z</time>
      </trkpt>
      <trkpt lat="43.52831" lon="6.30748">
        <ele>377.5</ele>
        <time>2023-09-15T12:34:35Z</time>
      </trkpt>
      <trkpt lat="43.52831" lon="6.30748">
        <ele>377.6</ele>
        <time>2023-09-15T12:34:36Z</time>
      </trkpt>
      <trkpt lat="43.52832" lon="6.30747">
        <ele>377.5</ele>
        <time>2023-09-15T12:34:37Z</time>
      </trkpt>
      <trkpt lat="43.52832" lon="6.30747">
        <ele>377.5</ele>
        <time>2023-09-15T12:34:38Z</time>
      </trkpt>
      <trkpt lat="43.52833" lon="6.30746">
        <ele>377.5</ele>
        <time>2023-09-15T12:34:39Z</time>
      </trkpt>
      <trkpt lat="43.52833" lon="6.30745">
        <ele>377.5</ele>
        <time>2023-09-15T12:34:40Z</time>
      </trkpt>
      <trkpt lat="43.52833" lon="6.30745">
        <ele>377.5</ele>
        <time>2023-09-15T12:34:41Z</time>
      </trkpt>
      <trkpt lat="43.52833" lon="6.30745">
        <ele>377.5</ele>
        <time>2023-09-15T12:34:42Z</time>
      </trkpt>
      <trkpt lat="43.52834" lon="6.30745">
        <ele>377.6</ele>
        <time>2023-09-15T12:34:43Z</time>
      </trkpt>
      <trkpt lat="43.52834" lon="6.30744">
        <ele>377.5</ele>
        <time>2023-09-15T12:34:44Z</time>
      </trkpt>
      <trkpt lat="43.52834" lon="6.30743">
        <ele>377.6</ele>
        <time>2023-09-15T12:34:45Z</time>
      </trkpt>
      <trkpt lat="43.52834" lon="6.30742">
        <ele>377.6</ele>
        <time>2023-09-15T12:34:46Z</time>
      </trkpt>
      <trkpt lat="43.52834" lon="6.30741">
        <ele>377.6</ele>
        <time>2023-09-15T12:34:47Z</time>
      </trkpt>
      <trkpt lat="43.52834" lon="6.3074">
        <ele>377.6</ele>
        <time>2023-09-15T12:34:48Z</time>
      </trkpt>
      <trkpt lat="43.52834" lon="6.3074">
        <ele>377.7</ele>
        <time>2023-09-15T12:34:49Z</time>
      </trkpt>
      <trkpt lat="43.52834" lon="6.30739">
        <ele>377.7</ele>
        <time>2023-09-15T12:34:50Z</time>
      </trkpt>
      <trkpt lat="43.52834" lon="6.30739">
        <ele>377.7</ele>
        <time>2023-09-15T12:34:51Z</time>
      </trkpt>
      <trkpt lat="43.52834" lon="6.30738">
        <ele>377.7</ele>
        <time>2023-09-15T12:34:52Z</time>
      </trkpt>
      <trkpt lat="43.52835" lon="6.30738">
        <ele>377.7</ele>
        <time>2023-09-15T12:34:53Z</time>
      </trkpt>
      <trkpt lat="43.52834" lon="6.30737">
        <ele>377.8</ele>
        <time>2023-09-15T12:34:54Z</time>
      </trkpt>
      <trkpt lat="43.52835" lon="6.30736">
        <ele>377.8</ele>
        <time>2023-09-15T12:34:55Z</time>
      </trkpt>
      <trkpt lat="43.52835" lon="6.30735">
        <ele>377.8</ele>
        <time>2023-09-15T12:34:56Z</time>
      </trkpt>
      <trkpt lat="43.52835" lon="6.30735">
        <ele>377.7</ele>
        <time>2023-09-15T12:34:57Z</time>
      </trkpt>
      <trkpt lat="43.52835" lon="6.30734">
        <ele>377.7</ele>
        <time>2023-09-15T12:34:58Z</time>
      </trkpt>
      <trkpt lat="43.52835" lon="6.30734">
        <ele>377.8</ele>
        <time>2023-09-15T12:34:59Z</time>
      </trkpt>
      <trkpt lat="43.52835" lon="6.30734">
        <ele>377.8</ele>
        <time>2023-09-15T12:35:00Z</time>
      </trkpt>
      <trkpt lat="43.52836" lon="6.30735">
        <ele>377.8</ele>
        <time>2023-09-15T12:35:01Z</time>
      </trkpt>
      <trkpt lat="43.52836" lon="6.30734">
        <ele>377.7</ele>
        <time>2023-09-15T12:35:02Z</time>
      </trkpt>
      <trkpt lat="43.52836" lon="6.30733">
        <ele>377.8</ele>
        <time>2023-09-15T12:35:03Z</time>
      </trkpt>
      <trkpt lat="43.52837" lon="6.30732">
        <ele>377.8</ele>
        <time>2023-09-15T12:35:04Z</time>
      </trkpt>
      <trkpt lat="43.52838" lon="6.30732">
        <ele>377.8</ele>
        <time>2023-09-15T12:35:05Z</time>
      </trkpt>
      <trkpt lat="43.52838" lon="6.30732">
        <ele>377.7</ele>
        <time>2023-09-15T12:35:06Z</time>
      </trkpt>
      <trkpt lat="43.52838" lon="6.30731">
        <ele>377.8</ele>
        <time>2023-09-15T12:35:07Z</time>
      </trkpt>
      <trkpt lat="43.52839" lon="6.3073">
        <ele>377.7</ele>
        <time>2023-09-15T12:35:08Z</time>
      </trkpt>
      <trkpt lat="43.52839" lon="6.3073">
        <ele>377.7</ele>
        <time>2023-09-15T12:35:09Z</time>
      </trkpt>
      <trkpt lat="43.52839" lon="6.30728">
        <ele>377.8</ele>
        <time>2023-09-15T12:35:10Z</time>
      </trkpt>
      <trkpt lat="43.5284" lon="6.30727">
        <ele>377.8</ele>
        <time>2023-09-15T12:35:11Z</time>
      </trkpt>
      <trkpt lat="43.5284" lon="6.30726">
        <ele>377.9</ele>
        <time>2023-09-15T12:35:12Z</time>
      </trkpt>
      <trkpt lat="43.5284" lon="6.30725">
        <ele>378</ele>
        <time>2023-09-15T12:35:13Z</time>
      </trkpt>
      <trkpt lat="43.52841" lon="6.30724">
        <ele>378</ele>
        <time>2023-09-15T12:35:14Z</time>
      </trkpt>
      <trkpt lat="43.52841" lon="6.30723">
        <ele>378.2</ele>
        <time>2023-09-15T12:35:15Z</time>
      </trkpt>
      <trkpt lat="43.52842" lon="6.30722">
        <ele>378.3</ele>
        <time>2023-09-15T12:35:16Z</time>
      </trkpt>
      <trkpt lat="43.52842" lon="6.30721">
        <ele>378.3</ele>
        <time>2023-09-15T12:35:17Z</time>
      </trkpt>
      <trkpt lat="43.52842" lon="6.3072">
        <ele>378.4</ele>
        <time>2023-09-15T12:35:18Z</time>
      </trkpt>
      <trkpt lat="43.52843" lon="6.30719">
        <ele>378.4</ele>
        <time>2023-09-15T12:35:19Z</time>
      </trkpt>
      <trkpt lat="43.52843" lon="6.30718">
        <ele>378.5</ele>
        <time>2023-09-15T12:35:20Z</time>
      </trkpt>
      <trkpt lat="43.52844" lon="6.30717">
        <ele>378.4</ele>
        <time>2023-09-15T12:35:21Z</time>
      </trkpt>
      <trkpt lat="43.52845" lon="6.30716">
        <ele>378.4</ele>
        <time>2023-09-15T12:35:22Z</time>
      </trkpt>
      <trkpt lat="43.52845" lon="6.30715">
        <ele>378.4</ele>
        <time>2023-09-15T12:35:23Z</time>
      </trkpt>
      <trkpt lat="43.52846" lon="6.30714">
        <ele>378.4</ele>
        <time>2023-09-15T12:35:24Z</time>
      </trkpt>
      <trkpt lat="43.52846" lon="6.30713">
        <ele>378.3</ele>
        <time>2023-09-15T12:35:25Z</time>
      </trkpt>
      <trkpt lat="43.52846" lon="6.30712">
        <ele>378.3</ele>
        <time>2023-09-15T12:35:26Z</time>
      </trkpt>
      <trkpt lat="43.52846" lon="6.30711">
        <ele>378.2</ele>
        <time>2023-09-15T12:35:27Z</time>
      </trkpt>
      <trkpt lat="43.52847" lon="6.3071">
        <ele>378.2</ele>
        <time>2023-09-15T12:35:28Z</time>
      </trkpt>
      <trkpt lat="43.52847" lon="6.30708">
        <ele>378.2</ele>
        <time>2023-09-15T12:35:29Z</time>
      </trkpt>
      <trkpt lat="43.52847" lon="6.30708">
        <ele>378.2</ele>
        <time>2023-09-15T12:35:30Z</time>
      </trkpt>
      <trkpt lat="43.52848" lon="6.30706">
        <ele>378.3</ele>
        <time>2023-09-15T12:35:31Z</time>
      </trkpt>
      <trkpt lat="43.52848" lon="6.30705">
        <ele>378.2</ele>
        <time>2023-09-15T12:35:32Z</time>
      </trkpt>
      <trkpt lat="43.52848" lon="6.30704">
        <ele>378.2</ele>
        <time>2023-09-15T12:35:33Z</time>
      </trkpt>
      <trkpt lat="43.52849" lon="6.30702">
        <ele>378.3</ele>
        <time>2023-09-15T12:35:34Z</time>
      </trkpt>
      <trkpt lat="43.52849" lon="6.30702">
        <ele>378.3</ele>
        <time>2023-09-15T12:35:35Z</time>
      </trkpt>
      <trkpt lat="43.5285" lon="6.30701">
        <ele>378.3</ele>
        <time>2023-09-15T12:35:36Z</time>
      </trkpt>
      <trkpt lat="43.5285" lon="6.307">
        <ele>378.4</ele>
        <time>2023-09-15T12:35:37Z</time>
      </trkpt>
      <trkpt lat="43.5285" lon="6.30699">
        <ele>378.4</ele>
        <time>2023-09-15T12:35:38Z</time>
      </trkpt>
      <trkpt lat="43.52851" lon="6.30697">
        <ele>378.4</ele>
        <time>2023-09-15T12:35:39Z</time>
      </trkpt>
      <trkpt lat="43.52851" lon="6.30696">
        <ele>378.4</ele>
        <time>2023-09-15T12:35:40Z</time>
      </trkpt>
      <trkpt lat="43.52852" lon="6.30695">
        <ele>378.4</ele>
        <time>2023-09-15T12:35:41Z</time>
      </trkpt>
      <trkpt lat="43.52852" lon="6.30694">
        <ele>378.4</ele>
        <time>2023-09-15T12:35:42Z</time>
      </trkpt>
      <trkpt lat="43.52852" lon="6.30693">
        <ele>378.4</ele>
        <time>2023-09-15T12:35:43Z</time>
      </trkpt>
      <trkpt lat="43.52853" lon="6.30692">
        <ele>378.3</ele>
        <time>2023-09-15T12:35:44Z</time>
      </trkpt>
      <trkpt lat="43.52853" lon="6.30691">
        <ele>378.3</ele>
        <time>2023-09-15T12:35:45Z</time>
      </trkpt>
      <trkpt lat="43.52854" lon="6.3069">
        <ele>378.2</ele>
        <time>2023-09-15T12:35:46Z</time>
      </trkpt>
      <trkpt lat="43.52854" lon="6.30689">
        <ele>378.2</ele>
        <time>2023-09-15T12:35:47Z</time>
      </trkpt>
      <trkpt lat="43.52854" lon="6.30687">
        <ele>378.2</ele>
        <time>2023-09-15T12:35:48Z</time>
      </trkpt>
      <trkpt lat="43.52854" lon="6.30686">
        <ele>378.2</ele>
        <time>2023-09-15T12:35:49Z</time>
      </trkpt>
      <trkpt lat="43.52855" lon="6.30685">
        <ele>378.2</ele>
        <time>2023-09-15T12:35:50Z</time>
      </trkpt>
      <trkpt lat="43.52855" lon="6.30684">
        <ele>378.2</ele>
        <time>2023-09-15T12:35:51Z</time>
      </trkpt>
      <trkpt lat="43.52855" lon="6.30682">
        <ele>378.2</ele>
        <time>2023-09-15T12:35:52Z</time>
      </trkpt>
      <trkpt lat="43.52856" lon="6.30681">
        <ele>378.2</ele>
        <time>2023-09-15T12:35:53Z</time>
      </trkpt>
      <trkpt lat="43.52856" lon="6.3068">
        <ele>378.1</ele>
        <time>2023-09-15T12:35:54Z</time>
      </trkpt>
      <trkpt lat="43.52856" lon="6.30678">
        <ele>378</ele>
        <time>2023-09-15T12:35:55Z</time>
      </trkpt>
      <trkpt lat="43.52856" lon="6.30677">
        <ele>378</ele>
        <time>2023-09-15T12:35:56Z</time>
      </trkpt>
      <trkpt lat="43.52856" lon="6.30675">
        <ele>377.8</ele>
        <time>2023-09-15T12:35:57Z</time>
      </trkpt>
      <trkpt lat="43.52856" lon="6.30674">
        <ele>377.7</ele>
        <time>2023-09-15T12:35:58Z</time>
      </trkpt>
      <trkpt lat="43.52857" lon="6.30673">
        <ele>377.7</ele>
        <time>2023-09-15T12:35:59Z</time>
      </trkpt>
      <trkpt lat="43.52857" lon="6.30672">
        <ele>377.7</ele>
        <time>2023-09-15T12:36:00Z</time>
      </trkpt>
      <trkpt lat="43.52857" lon="6.30671">
        <ele>377.7</ele>
        <time>2023-09-15T12:36:01Z</time>
      </trkpt>
      <trkpt lat="43.52858" lon="6.30669">
        <ele>377.7</ele>
        <time>2023-09-15T12:36:02Z</time>
      </trkpt>
      <trkpt lat="43.52858" lon="6.30668">
        <ele>377.5</ele>
        <time>2023-09-15T12:36:03Z</time>
      </trkpt>
      <trkpt lat="43.52858" lon="6.30667">
        <ele>377.4</ele>
        <time>2023-09-15T12:36:04Z</time>
      </trkpt>
      <trkpt lat="43.52859" lon="6.30665">
        <ele>377.4</ele>
        <time>2023-09-15T12:36:05Z</time>
      </trkpt>
      <trkpt lat="43.52859" lon="6.30665">
        <ele>377.3</ele>
        <time>2023-09-15T12:36:06Z</time>
      </trkpt>
      <trkpt lat="43.5286" lon="6.30663">
        <ele>377.1</ele>
        <time>2023-09-15T12:36:07Z</time>
      </trkpt>
      <trkpt lat="43.5286" lon="6.30662">
        <ele>377</ele>
        <time>2023-09-15T12:36:08Z</time>
      </trkpt>
      <trkpt lat="43.52861" lon="6.30661">
        <ele>377</ele>
        <time>2023-09-15T12:36:09Z</time>
      </trkpt>
      <trkpt lat="43.52861" lon="6.3066">
        <ele>376.9</ele>
        <time>2023-09-15T12:36:10Z</time>
      </trkpt>
      <trkpt lat="43.52861" lon="6.30659">
        <ele>376.9</ele>
        <time>2023-09-15T12:36:11Z</time>
      </trkpt>
      <trkpt lat="43.52862" lon="6.30658">
        <ele>376.9</ele>
        <time>2023-09-15T12:36:12Z</time>
      </trkpt>
      <trkpt lat="43.52862" lon="6.30657">
        <ele>376.9</ele>
        <time>2023-09-15T12:36:13Z</time>
      </trkpt>
      <trkpt lat="43.52862" lon="6.30656">
        <ele>377</ele>
        <time>2023-09-15T12:36:14Z</time>
      </trkpt>
      <trkpt lat="43.52863" lon="6.30655">
        <ele>377</ele>
        <time>2023-09-15T12:36:15Z</time>
      </trkpt>
      <trkpt lat="43.52863" lon="6.30653">
        <ele>376.9</ele>
        <time>2023-09-15T12:36:16Z</time>
      </trkpt>
      <trkpt lat="43.52864" lon="6.30652">
        <ele>376.8</ele>
        <time>2023-09-15T12:36:17Z</time>
      </trkpt>
      <trkpt lat="43.52864" lon="6.30651">
        <ele>376.7</ele>
        <time>2023-09-15T12:36:18Z</time>
      </trkpt>
      <trkpt lat="43.52864" lon="6.3065">
        <ele>376.6</ele>
        <time>2023-09-15T12:36:19Z</time>
      </trkpt>
      <trkpt lat="43.52864" lon="6.30648">
        <ele>376.6</ele>
        <time>2023-09-15T12:36:20Z</time>
      </trkpt>
      <trkpt lat="43.52865" lon="6.30647">
        <ele>376.5</ele>
        <time>2023-09-15T12:36:21Z</time>
      </trkpt>
      <trkpt lat="43.52865" lon="6.30646">
        <ele>376.5</ele>
        <time>2023-09-15T12:36:22Z</time>
      </trkpt>
      <trkpt lat="43.52866" lon="6.30645">
        <ele>376.4</ele>
        <time>2023-09-15T12:36:23Z</time>
      </trkpt>
      <trkpt lat="43.52866" lon="6.30644">
        <ele>376.4</ele>
        <time>2023-09-15T12:36:24Z</time>
      </trkpt>
      <trkpt lat="43.52866" lon="6.30642">
        <ele>376.4</ele>
        <time>2023-09-15T12:36:25Z</time>
      </trkpt>
      <trkpt lat="43.52866" lon="6.30641">
        <ele>376.4</ele>
        <time>2023-09-15T12:36:26Z</time>
      </trkpt>
      <trkpt lat="43.52867" lon="6.30639">
        <ele>376.4</ele>
        <time>2023-09-15T12:36:27Z</time>
      </trkpt>
      <trkpt lat="43.52867" lon="6.30638">
        <ele>376.3</ele>
        <time>2023-09-15T12:36:28Z</time>
      </trkpt>
      <trkpt lat="43.52867" lon="6.30637">
        <ele>376.2</ele>
        <time>2023-09-15T12:36:29Z</time>
      </trkpt>
      <trkpt lat="43.52867" lon="6.30636">
        <ele>376.1</ele>
        <time>2023-09-15T12:36:30Z</time>
      </trkpt>
      <trkpt lat="43.52868" lon="6.30634">
        <ele>376.1</ele>
        <time>2023-09-15T12:36:31Z</time>
      </trkpt>
      <trkpt lat="43.52868" lon="6.30633">
        <ele>376.1</ele>
        <time>2023-09-15T12:36:32Z</time>
      </trkpt>
      <trkpt lat="43.52868" lon="6.30632">
        <ele>376.1</ele>
        <time>2023-09-15T12:36:33Z</time>
      </trkpt>
      <trkpt lat="43.52868" lon="6.3063">
        <ele>376</ele>
        <time>2023-09-15T12:36:34Z</time>
      </trkpt>
      <trkpt lat="43.52868" lon="6.30629">
        <ele>376</ele>
        <time>2023-09-15T12:36:35Z</time>
      </trkpt>
      <trkpt lat="43.52869" lon="6.30628">
        <ele>376</ele>
        <time>2023-09-15T12:36:36Z</time>
      </trkpt>
      <trkpt lat="43.5287" lon="6.30627">
        <ele>376</ele>
        <time>2023-09-15T12:36:37Z</time>
      </trkpt>
      <trkpt lat="43.5287" lon="6.30625">
        <ele>375.9</ele>
        <time>2023-09-15T12:36:38Z</time>
      </trkpt>
      <trkpt lat="43.52869" lon="6.30623">
        <ele>375.9</ele>
        <time>2023-09-15T12:36:39Z</time>
      </trkpt>
      <trkpt lat="43.52869" lon="6.30622">
        <ele>375.9</ele>
        <time>2023-09-15T12:36:40Z</time>
      </trkpt>
      <trkpt lat="43.5287" lon="6.30621">
        <ele>375.8</ele>
        <time>2023-09-15T12:36:41Z</time>
      </trkpt>
      <trkpt lat="43.52871" lon="6.3062">
        <ele>375.8</ele>
        <time>2023-09-15T12:36:42Z</time>
      </trkpt>
      <trkpt lat="43.52871" lon="6.30619">
        <ele>375.8</ele>
        <time>2023-09-15T12:36:43Z</time>
      </trkpt>
      <trkpt lat="43.52872" lon="6.30618">
        <ele>375.8</ele>
        <time>2023-09-15T12:36:44Z</time>
      </trkpt>
      <trkpt lat="43.52873" lon="6.30618">
        <ele>375.8</ele>
        <time>2023-09-15T12:36:45Z</time>
      </trkpt>
      <trkpt lat="43.52873" lon="6.30617">
        <ele>375.7</ele>
        <time>2023-09-15T12:36:46Z</time>
      </trkpt>
      <trkpt lat="43.52874" lon="6.30617">
        <ele>375.7</ele>
        <time>2023-09-15T12:36:47Z</time>
      </trkpt>
      <trkpt lat="43.52874" lon="6.30617">
        <ele>375.7</ele>
        <time>2023-09-15T12:36:48Z</time>
      </trkpt>
      <trkpt lat="43.52875" lon="6.30616">
        <ele>375.6</ele>
        <time>2023-09-15T12:36:49Z</time>
      </trkpt>
      <trkpt lat="43.52875" lon="6.30616">
        <ele>375.5</ele>
        <time>2023-09-15T12:36:50Z</time>
      </trkpt>
      <trkpt lat="43.52876" lon="6.30616">
        <ele>375.4</ele>
        <time>2023-09-15T12:36:51Z</time>
      </trkpt>
      <trkpt lat="43.52877" lon="6.30616">
        <ele>375.4</ele>
        <time>2023-09-15T12:36:52Z</time>
      </trkpt>
      <trkpt lat="43.52877" lon="6.30616">
        <ele>375.3</ele>
        <time>2023-09-15T12:36:53Z</time>
      </trkpt>
      <trkpt lat="43.52878" lon="6.30615">
        <ele>375.3</ele>
        <time>2023-09-15T12:36:54Z</time>
      </trkpt>
      <trkpt lat="43.52878" lon="6.30614">
        <ele>375.2</ele>
        <time>2023-09-15T12:36:55Z</time>
      </trkpt>
      <trkpt lat="43.52879" lon="6.30614">
        <ele>375.2</ele>
        <time>2023-09-15T12:36:56Z</time>
      </trkpt>
      <trkpt lat="43.52879" lon="6.30613">
        <ele>375.2</ele>
        <time>2023-09-15T12:36:57Z</time>
      </trkpt>
      <trkpt lat="43.5288" lon="6.30612">
        <ele>375.2</ele>
        <time>2023-09-15T12:36:58Z</time>
      </trkpt>
      <trkpt lat="43.52881" lon="6.30611">
        <ele>375.1</ele>
        <time>2023-09-15T12:36:59Z</time>
      </trkpt>
      <trkpt lat="43.52881" lon="6.3061">
        <ele>375</ele>
        <time>2023-09-15T12:37:00Z</time>
      </trkpt>
      <trkpt lat="43.52882" lon="6.30609">
        <ele>374.9</ele>
        <time>2023-09-15T12:37:01Z</time>
      </trkpt>
      <trkpt lat="43.52883" lon="6.30608">
        <ele>374.8</ele>
        <time>2023-09-15T12:37:02Z</time>
      </trkpt>
      <trkpt lat="43.52883" lon="6.30607">
        <ele>374.8</ele>
        <time>2023-09-15T12:37:03Z</time>
      </trkpt>
      <trkpt lat="43.52884" lon="6.30607">
        <ele>374.7</ele>
        <time>2023-09-15T12:37:04Z</time>
      </trkpt>
      <trkpt lat="43.52885" lon="6.30605">
        <ele>374.6</ele>
        <time>2023-09-15T12:37:05Z</time>
      </trkpt>
      <trkpt lat="43.52886" lon="6.30605">
        <ele>374.4</ele>
        <time>2023-09-15T12:37:06Z</time>
      </trkpt>
      <trkpt lat="43.52887" lon="6.30604">
        <ele>374.4</ele>
        <time>2023-09-15T12:37:07Z</time>
      </trkpt>
      <trkpt lat="43.52888" lon="6.30602">
        <ele>374.3</ele>
        <time>2023-09-15T12:37:08Z</time>
      </trkpt>
      <trkpt lat="43.52889" lon="6.30602">
        <ele>374.3</ele>
        <time>2023-09-15T12:37:09Z</time>
      </trkpt>
      <trkpt lat="43.5289" lon="6.30601">
        <ele>374.3</ele>
        <time>2023-09-15T12:37:10Z</time>
      </trkpt>
      <trkpt lat="43.5289" lon="6.30601">
        <ele>374.3</ele>
        <time>2023-09-15T12:37:11Z</time>
      </trkpt>
      <trkpt lat="43.52891" lon="6.306">
        <ele>374.1</ele>
        <time>2023-09-15T12:37:12Z</time>
      </trkpt>
      <trkpt lat="43.52891" lon="6.30599">
        <ele>374</ele>
        <time>2023-09-15T12:37:13Z</time>
      </trkpt>
      <trkpt lat="43.52892" lon="6.30598">
        <ele>374</ele>
        <time>2023-09-15T12:37:14Z</time>
      </trkpt>
      <trkpt lat="43.52893" lon="6.30598">
        <ele>373.9</ele>
        <time>2023-09-15T12:37:15Z</time>
      </trkpt>
      <trkpt lat="43.52894" lon="6.30597">
        <ele>373.9</ele>
        <time>2023-09-15T12:37:16Z</time>
      </trkpt>
      <trkpt lat="43.52895" lon="6.30597">
        <ele>373.9</ele>
        <time>2023-09-15T12:37:17Z</time>
      </trkpt>
      <trkpt lat="43.52895" lon="6.30597">
        <ele>373.9</ele>
        <time>2023-09-15T12:37:18Z</time>
      </trkpt>
      <trkpt lat="43.52896" lon="6.30596">
        <ele>374</ele>
        <time>2023-09-15T12:37:19Z</time>
      </trkpt>
      <trkpt lat="43.52897" lon="6.30595">
        <ele>374</ele>
        <time>2023-09-15T12:37:20Z</time>
      </trkpt>
      <trkpt lat="43.52898" lon="6.30595">
        <ele>374</ele>
        <time>2023-09-15T12:37:21Z</time>
      </trkpt>
      <trkpt lat="43.52898" lon="6.30594">
        <ele>374</ele>
        <time>2023-09-15T12:37:22Z</time>
      </trkpt>
      <trkpt lat="43.52899" lon="6.30593">
        <ele>374.1</ele>
        <time>2023-09-15T12:37:23Z</time>
      </trkpt>
      <trkpt lat="43.529" lon="6.30591">
        <ele>374</ele>
        <time>2023-09-15T12:37:24Z</time>
      </trkpt>
      <trkpt lat="43.52901" lon="6.3059">
        <ele>373.9</ele>
        <time>2023-09-15T12:37:25Z</time>
      </trkpt>
      <trkpt lat="43.52902" lon="6.30589">
        <ele>373.9</ele>
        <time>2023-09-15T12:37:26Z</time>
      </trkpt>
      <trkpt lat="43.52903" lon="6.30588">
        <ele>373.7</ele>
        <time>2023-09-15T12:37:27Z</time>
      </trkpt>
      <trkpt lat="43.52904" lon="6.30587">
        <ele>373.9</ele>
        <time>2023-09-15T12:37:28Z</time>
      </trkpt>
      <trkpt lat="43.52904" lon="6.30586">
        <ele>373.8</ele>
        <time>2023-09-15T12:37:29Z</time>
      </trkpt>
      <trkpt lat="43.52904" lon="6.30584">
        <ele>373.7</ele>
        <time>2023-09-15T12:37:30Z</time>
      </trkpt>
      <trkpt lat="43.52905" lon="6.30582">
        <ele>373.8</ele>
        <time>2023-09-15T12:37:31Z</time>
      </trkpt>
      <trkpt lat="43.52906" lon="6.30581">
        <ele>373.8</ele>
        <time>2023-09-15T12:37:32Z</time>
      </trkpt>
      <trkpt lat="43.52907" lon="6.3058">
        <ele>373.9</ele>
        <time>2023-09-15T12:37:33Z</time>
      </trkpt>
      <trkpt lat="43.52908" lon="6.30579">
        <ele>373.7</ele>
        <time>2023-09-15T12:37:34Z</time>
      </trkpt>
      <trkpt lat="43.52908" lon="6.30578">
        <ele>373.6</ele>
        <time>2023-09-15T12:37:35Z</time>
      </trkpt>
      <trkpt lat="43.52909" lon="6.30578">
        <ele>373.5</ele>
        <time>2023-09-15T12:37:36Z</time>
      </trkpt>
      <trkpt lat="43.5291" lon="6.30577">
        <ele>373.4</ele>
        <time>2023-09-15T12:37:37Z</time>
      </trkpt>
      <trkpt lat="43.52911" lon="6.30576">
        <ele>373.3</ele>
        <time>2023-09-15T12:37:38Z</time>
      </trkpt>
      <trkpt lat="43.52911" lon="6.30575">
        <ele>373.2</ele>
        <time>2023-09-15T12:37:39Z</time>
      </trkpt>
      <trkpt lat="43.52911" lon="6.30573">
        <ele>373.1</ele>
        <time>2023-09-15T12:37:40Z</time>
      </trkpt>
      <trkpt lat="43.52912" lon="6.30572">
        <ele>373</ele>
        <time>2023-09-15T12:37:41Z</time>
      </trkpt>
      <trkpt lat="43.52913" lon="6.30571">
        <ele>372.9</ele>
        <time>2023-09-15T12:37:42Z</time>
      </trkpt>
      <trkpt lat="43.52913" lon="6.3057">
        <ele>372.8</ele>
        <time>2023-09-15T12:37:43Z</time>
      </trkpt>
      <trkpt lat="43.52914" lon="6.30569">
        <ele>372.8</ele>
        <time>2023-09-15T12:37:44Z</time>
      </trkpt>
      <trkpt lat="43.52915" lon="6.30568">
        <ele>372.7</ele>
        <time>2023-09-15T12:37:45Z</time>
      </trkpt>
      <trkpt lat="43.52916" lon="6.30567">
        <ele>372.7</ele>
        <time>2023-09-15T12:37:46Z</time>
      </trkpt>
      <trkpt lat="43.52916" lon="6.30566">
        <ele>372.7</ele>
        <time>2023-09-15T12:37:47Z</time>
      </trkpt>
      <trkpt lat="43.52917" lon="6.30565">
        <ele>372.6</ele>
        <time>2023-09-15T12:37:48Z</time>
      </trkpt>
      <trkpt lat="43.52917" lon="6.30564">
        <ele>372.6</ele>
        <time>2023-09-15T12:37:49Z</time>
      </trkpt>
      <trkpt lat="43.52918" lon="6.30563">
        <ele>372.5</ele>
        <time>2023-09-15T12:37:50Z</time>
      </trkpt>
      <trkpt lat="43.52919" lon="6.30563">
        <ele>372.5</ele>
        <time>2023-09-15T12:37:51Z</time>
      </trkpt>
      <trkpt lat="43.52919" lon="6.30562">
        <ele>372.5</ele>
        <time>2023-09-15T12:37:52Z</time>
      </trkpt>
      <trkpt lat="43.5292" lon="6.30561">
        <ele>372.5</ele>
        <time>2023-09-15T12:37:53Z</time>
      </trkpt>
      <trkpt lat="43.52921" lon="6.3056">
        <ele>372.5</ele>
        <time>2023-09-15T12:37:54Z</time>
      </trkpt>
      <trkpt lat="43.52921" lon="6.30559">
        <ele>372.4</ele>
        <time>2023-09-15T12:37:55Z</time>
      </trkpt>
      <trkpt lat="43.52922" lon="6.30559">
        <ele>372.5</ele>
        <time>2023-09-15T12:37:56Z</time>
      </trkpt>
      <trkpt lat="43.52922" lon="6.30558">
        <ele>372.5</ele>
        <time>2023-09-15T12:37:57Z</time>
      </trkpt>
      <trkpt lat="43.52923" lon="6.30557">
        <ele>372.5</ele>
        <time>2023-09-15T12:37:58Z</time>
      </trkpt>
      <trkpt lat="43.52924" lon="6.30556">
        <ele>372.5</ele>
        <time>2023-09-15T12:37:59Z</time>
      </trkpt>
      <trkpt lat="43.52924" lon="6.30555">
        <ele>372.5</ele>
        <time>2023-09-15T12:38:00Z</time>
      </trkpt>
      <trkpt lat="43.52925" lon="6.30554">
        <ele>372.4</ele>
        <time>2023-09-15T12:38:01Z</time>
      </trkpt>
      <trkpt lat="43.52925" lon="6.30553">
        <ele>372.4</ele>
        <time>2023-09-15T12:38:02Z</time>
      </trkpt>
      <trkpt lat="43.52925" lon="6.30552">
        <ele>372.3</ele>
        <time>2023-09-15T12:38:03Z</time>
      </trkpt>
      <trkpt lat="43.52926" lon="6.30551">
        <ele>372.3</ele>
        <time>2023-09-15T12:38:04Z</time>
      </trkpt>
      <trkpt lat="43.52927" lon="6.3055">
        <ele>372.3</ele>
        <time>2023-09-15T12:38:05Z</time>
      </trkpt>
      <trkpt lat="43.52928" lon="6.30549">
        <ele>372.1</ele>
        <time>2023-09-15T12:38:06Z</time>
      </trkpt>
      <trkpt lat="43.52928" lon="6.30548">
        <ele>372</ele>
        <time>2023-09-15T12:38:07Z</time>
      </trkpt>
      <trkpt lat="43.52929" lon="6.30547">
        <ele>371.9</ele>
        <time>2023-09-15T12:38:08Z</time>
      </trkpt>
      <trkpt lat="43.5293" lon="6.30545">
        <ele>371.8</ele>
        <time>2023-09-15T12:38:09Z</time>
      </trkpt>
      <trkpt lat="43.5293" lon="6.30544">
        <ele>371.7</ele>
        <time>2023-09-15T12:38:10Z</time>
      </trkpt>
      <trkpt lat="43.52931" lon="6.30543">
        <ele>371.6</ele>
        <time>2023-09-15T12:38:11Z</time>
      </trkpt>
      <trkpt lat="43.52931" lon="6.30541">
        <ele>371.6</ele>
        <time>2023-09-15T12:38:12Z</time>
      </trkpt>
      <trkpt lat="43.52932" lon="6.3054">
        <ele>371.4</ele>
        <time>2023-09-15T12:38:13Z</time>
      </trkpt>
      <trkpt lat="43.52932" lon="6.30539">
        <ele>371.4</ele>
        <time>2023-09-15T12:38:14Z</time>
      </trkpt>
      <trkpt lat="43.52933" lon="6.30538">
        <ele>371.3</ele>
        <time>2023-09-15T12:38:15Z</time>
      </trkpt>
      <trkpt lat="43.52934" lon="6.30536">
        <ele>371.3</ele>
        <time>2023-09-15T12:38:16Z</time>
      </trkpt>
      <trkpt lat="43.52935" lon="6.30535">
        <ele>371.3</ele>
        <time>2023-09-15T12:38:17Z</time>
      </trkpt>
      <trkpt lat="43.52935" lon="6.30534">
        <ele>371.2</ele>
        <time>2023-09-15T12:38:18Z</time>
      </trkpt>
      <trkpt lat="43.52935" lon="6.30533">
        <ele>371.1</ele>
        <time>2023-09-15T12:38:19Z</time>
      </trkpt>
      <trkpt lat="43.52936" lon="6.30532">
        <ele>371.1</ele>
        <time>2023-09-15T12:38:20Z</time>
      </trkpt>
      <trkpt lat="43.52937" lon="6.30531">
        <ele>371</ele>
        <time>2023-09-15T12:38:21Z</time>
      </trkpt>
      <trkpt lat="43.52937" lon="6.3053">
        <ele>370.9</ele>
        <time>2023-09-15T12:38:22Z</time>
      </trkpt>
      <trkpt lat="43.52938" lon="6.30528">
        <ele>370.9</ele>
        <time>2023-09-15T12:38:23Z</time>
      </trkpt>
      <trkpt lat="43.52938" lon="6.30527">
        <ele>370.9</ele>
        <time>2023-09-15T12:38:24Z</time>
      </trkpt>
      <trkpt lat="43.52939" lon="6.30526">
        <ele>370.9</ele>
        <time>2023-09-15T12:38:25Z</time>
      </trkpt>
      <trkpt lat="43.5294" lon="6.30525">
        <ele>370.8</ele>
        <time>2023-09-15T12:38:26Z</time>
      </trkpt>
      <trkpt lat="43.5294" lon="6.30523">
        <ele>370.7</ele>
        <time>2023-09-15T12:38:27Z</time>
      </trkpt>
      <trkpt lat="43.5294" lon="6.30522">
        <ele>370.7</ele>
        <time>2023-09-15T12:38:28Z</time>
      </trkpt>
      <trkpt lat="43.52941" lon="6.3052">
        <ele>370.7</ele>
        <time>2023-09-15T12:38:29Z</time>
      </trkpt>
      <trkpt lat="43.52941" lon="6.30519">
        <ele>370.5</ele>
        <time>2023-09-15T12:38:30Z</time>
      </trkpt>
      <trkpt lat="43.52942" lon="6.30518">
        <ele>370.4</ele>
        <time>2023-09-15T12:38:31Z</time>
      </trkpt>
      <trkpt lat="43.52943" lon="6.30517">
        <ele>370.4</ele>
        <time>2023-09-15T12:38:32Z</time>
      </trkpt>
      <trkpt lat="43.52943" lon="6.30516">
        <ele>370.4</ele>
        <time>2023-09-15T12:38:33Z</time>
      </trkpt>
      <trkpt lat="43.52944" lon="6.30514">
        <ele>370.4</ele>
        <time>2023-09-15T12:38:34Z</time>
      </trkpt>
      <trkpt lat="43.52944" lon="6.30513">
        <ele>370.3</ele>
        <time>2023-09-15T12:38:35Z</time>
      </trkpt>
      <trkpt lat="43.52944" lon="6.30511">
        <ele>370.3</ele>
        <time>2023-09-15T12:38:36Z</time>
      </trkpt>
      <trkpt lat="43.52944" lon="6.3051">
        <ele>370.2</ele>
        <time>2023-09-15T12:38:37Z</time>
      </trkpt>
      <trkpt lat="43.52945" lon="6.30508">
        <ele>370.1</ele>
        <time>2023-09-15T12:38:38Z</time>
      </trkpt>
      <trkpt lat="43.52945" lon="6.30507">
        <ele>370</ele>
        <time>2023-09-15T12:38:39Z</time>
      </trkpt>
      <trkpt lat="43.52946" lon="6.30506">
        <ele>369.9</ele>
        <time>2023-09-15T12:38:40Z</time>
      </trkpt>
      <trkpt lat="43.52946" lon="6.30504">
        <ele>369.7</ele>
        <time>2023-09-15T12:38:41Z</time>
      </trkpt>
      <trkpt lat="43.52947" lon="6.30503">
        <ele>369.6</ele>
        <time>2023-09-15T12:38:42Z</time>
      </trkpt>
      <trkpt lat="43.52948" lon="6.30502">
        <ele>369.4</ele>
        <time>2023-09-15T12:38:43Z</time>
      </trkpt>
      <trkpt lat="43.52948" lon="6.30501">
        <ele>369.4</ele>
        <time>2023-09-15T12:38:44Z</time>
      </trkpt>
      <trkpt lat="43.52948" lon="6.305">
        <ele>369.3</ele>
        <time>2023-09-15T12:38:45Z</time>
      </trkpt>
      <trkpt lat="43.52949" lon="6.30499">
        <ele>369.3</ele>
        <time>2023-09-15T12:38:46Z</time>
      </trkpt>
      <trkpt lat="43.52949" lon="6.30497">
        <ele>369.3</ele>
        <time>2023-09-15T12:38:47Z</time>
      </trkpt>
      <trkpt lat="43.52949" lon="6.30496">
        <ele>369.2</ele>
        <time>2023-09-15T12:38:48Z</time>
      </trkpt>
      <trkpt lat="43.5295" lon="6.30495">
        <ele>369.1</ele>
        <time>2023-09-15T12:38:49Z</time>
      </trkpt>
      <trkpt lat="43.5295" lon="6.30494">
        <ele>369</ele>
        <time>2023-09-15T12:38:50Z</time>
      </trkpt>
      <trkpt lat="43.5295" lon="6.30493">
        <ele>368.8</ele>
        <time>2023-09-15T12:38:51Z</time>
      </trkpt>
      <trkpt lat="43.52951" lon="6.30492">
        <ele>368.7</ele>
        <time>2023-09-15T12:38:52Z</time>
      </trkpt>
      <trkpt lat="43.52951" lon="6.30491">
        <ele>368.6</ele>
        <time>2023-09-15T12:38:53Z</time>
      </trkpt>
      <trkpt lat="43.52952" lon="6.3049">
        <ele>368.5</ele>
        <time>2023-09-15T12:38:54Z</time>
      </trkpt>
      <trkpt lat="43.52952" lon="6.30489">
        <ele>368.4</ele>
        <time>2023-09-15T12:38:55Z</time>
      </trkpt>
      <trkpt lat="43.52953" lon="6.30487">
        <ele>368.5</ele>
        <time>2023-09-15T12:38:56Z</time>
      </trkpt>
      <trkpt lat="43.52954" lon="6.30486">
        <ele>368.6</ele>
        <time>2023-09-15T12:38:57Z</time>
      </trkpt>
      <trkpt lat="43.52954" lon="6.30485">
        <ele>368.5</ele>
        <time>2023-09-15T12:38:58Z</time>
      </trkpt>
      <trkpt lat="43.52954" lon="6.30484">
        <ele>368.6</ele>
        <time>2023-09-15T12:38:59Z</time>
      </trkpt>
      <trkpt lat="43.52955" lon="6.30483">
        <ele>368.6</ele>
        <time>2023-09-15T12:39:00Z</time>
      </trkpt>
      <trkpt lat="43.52955" lon="6.30482">
        <ele>368.5</ele>
        <time>2023-09-15T12:39:01Z</time>
      </trkpt>
      <trkpt lat="43.52955" lon="6.30481">
        <ele>368.5</ele>
        <time>2023-09-15T12:39:02Z</time>
      </trkpt>
      <trkpt lat="43.52956" lon="6.3048">
        <ele>368.4</ele>
        <time>2023-09-15T12:39:03Z</time>
      </trkpt>
      <trkpt lat="43.52956" lon="6.30479">
        <ele>368.3</ele>
        <time>2023-09-15T12:39:04Z</time>
      </trkpt>
      <trkpt lat="43.52956" lon="6.30477">
        <ele>368.1</ele>
        <time>2023-09-15T12:39:05Z</time>
      </trkpt>
      <trkpt lat="43.52957" lon="6.30476">
        <ele>368</ele>
        <time>2023-09-15T12:39:06Z</time>
      </trkpt>
      <trkpt lat="43.52957" lon="6.30475">
        <ele>368.1</ele>
        <time>2023-09-15T12:39:07Z</time>
      </trkpt>
      <trkpt lat="43.52958" lon="6.30474">
        <ele>367.9</ele>
        <time>2023-09-15T12:39:08Z</time>
      </trkpt>
      <trkpt lat="43.52958" lon="6.30473">
        <ele>367.7</ele>
        <time>2023-09-15T12:39:09Z</time>
      </trkpt>
      <trkpt lat="43.52959" lon="6.30472">
        <ele>367.6</ele>
        <time>2023-09-15T12:39:10Z</time>
      </trkpt>
      <trkpt lat="43.52959" lon="6.30471">
        <ele>367.5</ele>
        <time>2023-09-15T12:39:11Z</time>
      </trkpt>
      <trkpt lat="43.5296" lon="6.3047">
        <ele>367.4</ele>
        <time>2023-09-15T12:39:12Z</time>
      </trkpt>
      <trkpt lat="43.5296" lon="6.30469">
        <ele>367.3</ele>
        <time>2023-09-15T12:39:13Z</time>
      </trkpt>
      <trkpt lat="43.52961" lon="6.30468">
        <ele>367.1</ele>
        <time>2023-09-15T12:39:14Z</time>
      </trkpt>
      <trkpt lat="43.52961" lon="6.30467">
        <ele>367</ele>
        <time>2023-09-15T12:39:15Z</time>
      </trkpt>
      <trkpt lat="43.52962" lon="6.30466">
        <ele>367</ele>
        <time>2023-09-15T12:39:16Z</time>
      </trkpt>
      <trkpt lat="43.52962" lon="6.30465">
        <ele>366.9</ele>
        <time>2023-09-15T12:39:17Z</time>
      </trkpt>
      <trkpt lat="43.52962" lon="6.30464">
        <ele>366.8</ele>
        <time>2023-09-15T12:39:18Z</time>
      </trkpt>
      <trkpt lat="43.52963" lon="6.30463">
        <ele>366.8</ele>
        <time>2023-09-15T12:39:19Z</time>
      </trkpt>
      <trkpt lat="43.52963" lon="6.30462">
        <ele>366.8</ele>
        <time>2023-09-15T12:39:20Z</time>
      </trkpt>
      <trkpt lat="43.52964" lon="6.30461">
        <ele>366.7</ele>
        <time>2023-09-15T12:39:21Z</time>
      </trkpt>
      <trkpt lat="43.52964" lon="6.3046">
        <ele>366.6</ele>
        <time>2023-09-15T12:39:22Z</time>
      </trkpt>
      <trkpt lat="43.52965" lon="6.30459">
        <ele>366.5</ele>
        <time>2023-09-15T12:39:23Z</time>
      </trkpt>
      <trkpt lat="43.52965" lon="6.30458">
        <ele>366.3</ele>
        <time>2023-09-15T12:39:24Z</time>
      </trkpt>
      <trkpt lat="43.52966" lon="6.30457">
        <ele>366.2</ele>
        <time>2023-09-15T12:39:25Z</time>
      </trkpt>
      <trkpt lat="43.52966" lon="6.30456">
        <ele>366.2</ele>
        <time>2023-09-15T12:39:26Z</time>
      </trkpt>
      <trkpt lat="43.52966" lon="6.30456">
        <ele>366.3</ele>
        <time>2023-09-15T12:39:27Z</time>
      </trkpt>
      <trkpt lat="43.52967" lon="6.30455">
        <ele>366.2</ele>
        <time>2023-09-15T12:39:28Z</time>
      </trkpt>
      <trkpt lat="43.52967" lon="6.30455">
        <ele>366.2</ele>
        <time>2023-09-15T12:39:29Z</time>
      </trkpt>
      <trkpt lat="43.52967" lon="6.30454">
        <ele>366.1</ele>
        <time>2023-09-15T12:39:30Z</time>
      </trkpt>
      <trkpt lat="43.52968" lon="6.30454">
        <ele>366</ele>
        <time>2023-09-15T12:39:31Z</time>
      </trkpt>
      <trkpt lat="43.52968" lon="6.30453">
        <ele>365.9</ele>
        <time>2023-09-15T12:39:32Z</time>
      </trkpt>
      <trkpt lat="43.52969" lon="6.30452">
        <ele>365.9</ele>
        <time>2023-09-15T12:39:33Z</time>
      </trkpt>
      <trkpt lat="43.52969" lon="6.30452">
        <ele>365.9</ele>
        <time>2023-09-15T12:39:34Z</time>
      </trkpt>
      <trkpt lat="43.5297" lon="6.30452">
        <ele>365.8</ele>
        <time>2023-09-15T12:39:35Z</time>
      </trkpt>
      <trkpt lat="43.52971" lon="6.30452">
        <ele>365.7</ele>
        <time>2023-09-15T12:39:36Z</time>
      </trkpt>
      <trkpt lat="43.52971" lon="6.30452">
        <ele>365.6</ele>
        <time>2023-09-15T12:39:37Z</time>
      </trkpt>
      <trkpt lat="43.52972" lon="6.30452">
        <ele>365.6</ele>
        <time>2023-09-15T12:39:38Z</time>
      </trkpt>
      <trkpt lat="43.52973" lon="6.30452">
        <ele>365.5</ele>
        <time>2023-09-15T12:39:39Z</time>
      </trkpt>
      <trkpt lat="43.52973" lon="6.30452">
        <ele>365.4</ele>
        <time>2023-09-15T12:39:40Z</time>
      </trkpt>
      <trkpt lat="43.52974" lon="6.30451">
        <ele>365.4</ele>
        <time>2023-09-15T12:39:41Z</time>
      </trkpt>
      <trkpt lat="43.52975" lon="6.30452">
        <ele>365.4</ele>
        <time>2023-09-15T12:39:42Z</time>
      </trkpt>
      <trkpt lat="43.52975" lon="6.30452">
        <ele>365.3</ele>
        <time>2023-09-15T12:39:43Z</time>
      </trkpt>
      <trkpt lat="43.52976" lon="6.30452">
        <ele>365.3</ele>
        <time>2023-09-15T12:39:44Z</time>
      </trkpt>
      <trkpt lat="43.52977" lon="6.30451">
        <ele>365.3</ele>
        <time>2023-09-15T12:39:45Z</time>
      </trkpt>
      <trkpt lat="43.52978" lon="6.30451">
        <ele>365.4</ele>
        <time>2023-09-15T12:39:46Z</time>
      </trkpt>
      <trkpt lat="43.52978" lon="6.30451">
        <ele>365.4</ele>
        <time>2023-09-15T12:39:47Z</time>
      </trkpt>
      <trkpt lat="43.52979" lon="6.30451">
        <ele>365.3</ele>
        <time>2023-09-15T12:39:48Z</time>
      </trkpt>
      <trkpt lat="43.5298" lon="6.30451">
        <ele>365.3</ele>
        <time>2023-09-15T12:39:49Z</time>
      </trkpt>
      <trkpt lat="43.52981" lon="6.3045">
        <ele>365.2</ele>
        <time>2023-09-15T12:39:50Z</time>
      </trkpt>
      <trkpt lat="43.52981" lon="6.30451">
        <ele>365.2</ele>
        <time>2023-09-15T12:39:51Z</time>
      </trkpt>
      <trkpt lat="43.52982" lon="6.30451">
        <ele>365.2</ele>
        <time>2023-09-15T12:39:52Z</time>
      </trkpt>
      <trkpt lat="43.52983" lon="6.30451">
        <ele>365.2</ele>
        <time>2023-09-15T12:39:53Z</time>
      </trkpt>
      <trkpt lat="43.52984" lon="6.30451">
        <ele>365.2</ele>
        <time>2023-09-15T12:39:54Z</time>
      </trkpt>
      <trkpt lat="43.52984" lon="6.30451">
        <ele>365.2</ele>
        <time>2023-09-15T12:39:55Z</time>
      </trkpt>
      <trkpt lat="43.52985" lon="6.30451">
        <ele>365.2</ele>
        <time>2023-09-15T12:39:56Z</time>
      </trkpt>
      <trkpt lat="43.52986" lon="6.30451">
        <ele>365.2</ele>
        <time>2023-09-15T12:39:57Z</time>
      </trkpt>
      <trkpt lat="43.52987" lon="6.30451">
        <ele>365.1</ele>
        <time>2023-09-15T12:39:58Z</time>
      </trkpt>
      <trkpt lat="43.52987" lon="6.30451">
        <ele>365</ele>
        <time>2023-09-15T12:39:59Z</time>
      </trkpt>
      <trkpt lat="43.52988" lon="6.30452">
        <ele>365</ele>
        <time>2023-09-15T12:40:00Z</time>
      </trkpt>
      <trkpt lat="43.52989" lon="6.30452">
        <ele>364.9</ele>
        <time>2023-09-15T12:40:01Z</time>
      </trkpt>
      <trkpt lat="43.52989" lon="6.30452">
        <ele>364.9</ele>
        <time>2023-09-15T12:40:02Z</time>
      </trkpt>
      <trkpt lat="43.5299" lon="6.30453">
        <ele>364.8</ele>
        <time>2023-09-15T12:40:03Z</time>
      </trkpt>
      <trkpt lat="43.52991" lon="6.30453">
        <ele>364.7</ele>
        <time>2023-09-15T12:40:04Z</time>
      </trkpt>
      <trkpt lat="43.52992" lon="6.30453">
        <ele>364.6</ele>
        <time>2023-09-15T12:40:05Z</time>
      </trkpt>
      <trkpt lat="43.52993" lon="6.30453">
        <ele>364.6</ele>
        <time>2023-09-15T12:40:06Z</time>
      </trkpt>
      <trkpt lat="43.52993" lon="6.30453">
        <ele>364.5</ele>
        <time>2023-09-15T12:40:07Z</time>
      </trkpt>
      <trkpt lat="43.52994" lon="6.30453">
        <ele>364.4</ele>
        <time>2023-09-15T12:40:08Z</time>
      </trkpt>
      <trkpt lat="43.52995" lon="6.30452">
        <ele>363.6</ele>
        <time>2023-09-15T12:40:09Z</time>
      </trkpt>
      <trkpt lat="43.52995" lon="6.30451">
        <ele>363.5</ele>
        <time>2023-09-15T12:40:10Z</time>
      </trkpt>
      <trkpt lat="43.52996" lon="6.3045">
        <ele>363.5</ele>
        <time>2023-09-15T12:40:11Z</time>
      </trkpt>
      <trkpt lat="43.52996" lon="6.3045">
        <ele>363.4</ele>
        <time>2023-09-15T12:40:12Z</time>
      </trkpt>
      <trkpt lat="43.52997" lon="6.30449">
        <ele>363.4</ele>
        <time>2023-09-15T12:40:13Z</time>
      </trkpt>
      <trkpt lat="43.52998" lon="6.30448">
        <ele>363.4</ele>
        <time>2023-09-15T12:40:14Z</time>
      </trkpt>
      <trkpt lat="43.52998" lon="6.30446">
        <ele>363.2</ele>
        <time>2023-09-15T12:40:15Z</time>
      </trkpt>
      <trkpt lat="43.52999" lon="6.30445">
        <ele>363.3</ele>
        <time>2023-09-15T12:40:16Z</time>
      </trkpt>
      <trkpt lat="43.53" lon="6.30446">
        <ele>363.4</ele>
        <time>2023-09-15T12:40:17Z</time>
      </trkpt>
      <trkpt lat="43.53001" lon="6.30445">
        <ele>363.4</ele>
        <time>2023-09-15T12:40:18Z</time>
      </trkpt>
      <trkpt lat="43.53002" lon="6.30444">
        <ele>363.4</ele>
        <time>2023-09-15T12:40:19Z</time>
      </trkpt>
      <trkpt lat="43.53003" lon="6.30444">
        <ele>363.3</ele>
        <time>2023-09-15T12:40:20Z</time>
      </trkpt>
      <trkpt lat="43.53004" lon="6.30444">
        <ele>363.2</ele>
        <time>2023-09-15T12:40:21Z</time>
      </trkpt>
      <trkpt lat="43.53004" lon="6.30443">
        <ele>363</ele>
        <time>2023-09-15T12:40:22Z</time>
      </trkpt>
      <trkpt lat="43.53005" lon="6.30442">
        <ele>362.8</ele>
        <time>2023-09-15T12:40:23Z</time>
      </trkpt>
      <trkpt lat="43.53006" lon="6.30441">
        <ele>362.7</ele>
        <time>2023-09-15T12:40:24Z</time>
      </trkpt>
      <trkpt lat="43.53007" lon="6.30439">
        <ele>362.4</ele>
        <time>2023-09-15T12:40:25Z</time>
      </trkpt>
      <trkpt lat="43.53008" lon="6.30438">
        <ele>362.2</ele>
        <time>2023-09-15T12:40:26Z</time>
      </trkpt>
      <trkpt lat="43.53009" lon="6.30436">
        <ele>362.1</ele>
        <time>2023-09-15T12:40:27Z</time>
      </trkpt>
      <trkpt lat="43.5301" lon="6.30435">
        <ele>362.1</ele>
        <time>2023-09-15T12:40:28Z</time>
      </trkpt>
      <trkpt lat="43.5301" lon="6.30433">
        <ele>362</ele>
        <time>2023-09-15T12:40:29Z</time>
      </trkpt>
      <trkpt lat="43.53011" lon="6.30432">
        <ele>362</ele>
        <time>2023-09-15T12:40:30Z</time>
      </trkpt>
      <trkpt lat="43.53011" lon="6.30431">
        <ele>361.9</ele>
        <time>2023-09-15T12:40:31Z</time>
      </trkpt>
      <trkpt lat="43.53012" lon="6.3043">
        <ele>361.9</ele>
        <time>2023-09-15T12:40:32Z</time>
      </trkpt>
      <trkpt lat="43.53012" lon="6.30429">
        <ele>361.9</ele>
        <time>2023-09-15T12:40:33Z</time>
      </trkpt>
      <trkpt lat="43.53013" lon="6.30427">
        <ele>362</ele>
        <time>2023-09-15T12:40:34Z</time>
      </trkpt>
      <trkpt lat="43.53013" lon="6.30426">
        <ele>362</ele>
        <time>2023-09-15T12:40:35Z</time>
      </trkpt>
      <trkpt lat="43.53013" lon="6.30425">
        <ele>361.7</ele>
        <time>2023-09-15T12:40:36Z</time>
      </trkpt>
      <trkpt lat="43.53014" lon="6.30423">
        <ele>361.5</ele>
        <time>2023-09-15T12:40:37Z</time>
      </trkpt>
      <trkpt lat="43.53014" lon="6.30422">
        <ele>361.5</ele>
        <time>2023-09-15T12:40:38Z</time>
      </trkpt>
      <trkpt lat="43.53014" lon="6.3042">
        <ele>361.4</ele>
        <time>2023-09-15T12:40:39Z</time>
      </trkpt>
      <trkpt lat="43.53014" lon="6.30418">
        <ele>361.3</ele>
        <time>2023-09-15T12:40:40Z</time>
      </trkpt>
      <trkpt lat="43.53014" lon="6.30417">
        <ele>361.3</ele>
        <time>2023-09-15T12:40:41Z</time>
      </trkpt>
      <trkpt lat="43.53014" lon="6.30415">
        <ele>361.2</ele>
        <time>2023-09-15T12:40:42Z</time>
      </trkpt>
      <trkpt lat="43.53014" lon="6.30414">
        <ele>361.2</ele>
        <time>2023-09-15T12:40:43Z</time>
      </trkpt>
      <trkpt lat="43.53014" lon="6.30412">
        <ele>361.1</ele>
        <time>2023-09-15T12:40:44Z</time>
      </trkpt>
      <trkpt lat="43.53014" lon="6.3041">
        <ele>360.9</ele>
        <time>2023-09-15T12:40:45Z</time>
      </trkpt>
      <trkpt lat="43.53014" lon="6.30409">
        <ele>360.7</ele>
        <time>2023-09-15T12:40:46Z</time>
      </trkpt>
      <trkpt lat="43.53014" lon="6.30407">
        <ele>360.6</ele>
        <time>2023-09-15T12:40:47Z</time>
      </trkpt>
      <trkpt lat="43.53015" lon="6.30405">
        <ele>360.5</ele>
        <time>2023-09-15T12:40:48Z</time>
      </trkpt>
      <trkpt lat="43.53015" lon="6.30403">
        <ele>360.5</ele>
        <time>2023-09-15T12:40:49Z</time>
      </trkpt>
      <trkpt lat="43.53015" lon="6.30402">
        <ele>360.5</ele>
        <time>2023-09-15T12:40:50Z</time>
      </trkpt>
      <trkpt lat="43.53015" lon="6.304">
        <ele>360.4</ele>
        <time>2023-09-15T12:40:51Z</time>
      </trkpt>
      <trkpt lat="43.53015" lon="6.30398">
        <ele>360.3</ele>
        <time>2023-09-15T12:40:52Z</time>
      </trkpt>
      <trkpt lat="43.53015" lon="6.30397">
        <ele>360.1</ele>
        <time>2023-09-15T12:40:53Z</time>
      </trkpt>
      <trkpt lat="43.53015" lon="6.30395">
        <ele>360.2</ele>
        <time>2023-09-15T12:40:54Z</time>
      </trkpt>
      <trkpt lat="43.53015" lon="6.30394">
        <ele>360.1</ele>
        <time>2023-09-15T12:40:55Z</time>
      </trkpt>
      <trkpt lat="43.53015" lon="6.30392">
        <ele>360</ele>
        <time>2023-09-15T12:40:56Z</time>
      </trkpt>
      <trkpt lat="43.53014" lon="6.3039">
        <ele>359.9</ele>
        <time>2023-09-15T12:40:57Z</time>
      </trkpt>
      <trkpt lat="43.53014" lon="6.30389">
        <ele>359.8</ele>
        <time>2023-09-15T12:40:58Z</time>
      </trkpt>
      <trkpt lat="43.53014" lon="6.30387">
        <ele>359.9</ele>
        <time>2023-09-15T12:40:59Z</time>
      </trkpt>
      <trkpt lat="43.53014" lon="6.30386">
        <ele>359.9</ele>
        <time>2023-09-15T12:41:00Z</time>
      </trkpt>
      <trkpt lat="43.53014" lon="6.30385">
        <ele>359.9</ele>
        <time>2023-09-15T12:41:01Z</time>
      </trkpt>
      <trkpt lat="43.53013" lon="6.30384">
        <ele>360</ele>
        <time>2023-09-15T12:41:02Z</time>
      </trkpt>
      <trkpt lat="43.53013" lon="6.30383">
        <ele>360</ele>
        <time>2023-09-15T12:41:03Z</time>
      </trkpt>
      <trkpt lat="43.53013" lon="6.30381">
        <ele>359.9</ele>
        <time>2023-09-15T12:41:04Z</time>
      </trkpt>
      <trkpt lat="43.53012" lon="6.3038">
        <ele>359.7</ele>
        <time>2023-09-15T12:41:05Z</time>
      </trkpt>
      <trkpt lat="43.53013" lon="6.30377">
        <ele>359.7</ele>
        <time>2023-09-15T12:41:06Z</time>
      </trkpt>
      <trkpt lat="43.53013" lon="6.30376">
        <ele>359.6</ele>
        <time>2023-09-15T12:41:07Z</time>
      </trkpt>
      <trkpt lat="43.53013" lon="6.30374">
        <ele>359.5</ele>
        <time>2023-09-15T12:41:08Z</time>
      </trkpt>
      <trkpt lat="43.53013" lon="6.30373">
        <ele>359.5</ele>
        <time>2023-09-15T12:41:09Z</time>
      </trkpt>
      <trkpt lat="43.53013" lon="6.30372">
        <ele>359.3</ele>
        <time>2023-09-15T12:41:10Z</time>
      </trkpt>
      <trkpt lat="43.53013" lon="6.30371">
        <ele>359.3</ele>
        <time>2023-09-15T12:41:11Z</time>
      </trkpt>
      <trkpt lat="43.53012" lon="6.30372">
        <ele>359.2</ele>
        <time>2023-09-15T12:41:12Z</time>
      </trkpt>
      <trkpt lat="43.53013" lon="6.30372">
        <ele>359.2</ele>
        <time>2023-09-15T12:41:13Z</time>
      </trkpt>
      <trkpt lat="43.53013" lon="6.30371">
        <ele>359.1</ele>
        <time>2023-09-15T12:41:14Z</time>
      </trkpt>
      <trkpt lat="43.53014" lon="6.30369">
        <ele>359</ele>
        <time>2023-09-15T12:41:15Z</time>
      </trkpt>
      <trkpt lat="43.53015" lon="6.30367">
        <ele>358.9</ele>
        <time>2023-09-15T12:41:16Z</time>
      </trkpt>
      <trkpt lat="43.53015" lon="6.30366">
        <ele>358.9</ele>
        <time>2023-09-15T12:41:17Z</time>
      </trkpt>
      <trkpt lat="43.53016" lon="6.30364">
        <ele>358.8</ele>
        <time>2023-09-15T12:41:18Z</time>
      </trkpt>
      <trkpt lat="43.53016" lon="6.30363">
        <ele>358.7</ele>
        <time>2023-09-15T12:41:19Z</time>
      </trkpt>
      <trkpt lat="43.53016" lon="6.30362">
        <ele>358.6</ele>
        <time>2023-09-15T12:41:20Z</time>
      </trkpt>
      <trkpt lat="43.53017" lon="6.30361">
        <ele>358.4</ele>
        <time>2023-09-15T12:41:21Z</time>
      </trkpt>
      <trkpt lat="43.53017" lon="6.3036">
        <ele>358.3</ele>
        <time>2023-09-15T12:41:22Z</time>
      </trkpt>
      <trkpt lat="43.53017" lon="6.30359">
        <ele>358.2</ele>
        <time>2023-09-15T12:41:23Z</time>
      </trkpt>
      <trkpt lat="43.53017" lon="6.30357">
        <ele>358</ele>
        <time>2023-09-15T12:41:24Z</time>
      </trkpt>
      <trkpt lat="43.53018" lon="6.30356">
        <ele>357.8</ele>
        <time>2023-09-15T12:41:25Z</time>
      </trkpt>
      <trkpt lat="43.53018" lon="6.30355">
        <ele>357.6</ele>
        <time>2023-09-15T12:41:26Z</time>
      </trkpt>
      <trkpt lat="43.53019" lon="6.30353">
        <ele>357.6</ele>
        <time>2023-09-15T12:41:27Z</time>
      </trkpt>
      <trkpt lat="43.53019" lon="6.30352">
        <ele>357.5</ele>
        <time>2023-09-15T12:41:28Z</time>
      </trkpt>
      <trkpt lat="43.53019" lon="6.30351">
        <ele>357.4</ele>
        <time>2023-09-15T12:41:29Z</time>
      </trkpt>
      <trkpt lat="43.5302" lon="6.3035">
        <ele>357.3</ele>
        <time>2023-09-15T12:41:30Z</time>
      </trkpt>
      <trkpt lat="43.53021" lon="6.30349">
        <ele>357.1</ele>
        <time>2023-09-15T12:41:31Z</time>
      </trkpt>
      <trkpt lat="43.53022" lon="6.30347">
        <ele>357</ele>
        <time>2023-09-15T12:41:32Z</time>
      </trkpt>
      <trkpt lat="43.53022" lon="6.30346">
        <ele>356.9</ele>
        <time>2023-09-15T12:41:33Z</time>
      </trkpt>
      <trkpt lat="43.53022" lon="6.30345">
        <ele>356.8</ele>
        <time>2023-09-15T12:41:34Z</time>
      </trkpt>
      <trkpt lat="43.53023" lon="6.30344">
        <ele>356.7</ele>
        <time>2023-09-15T12:41:35Z</time>
      </trkpt>
      <trkpt lat="43.53023" lon="6.30342">
        <ele>356.7</ele>
        <time>2023-09-15T12:41:36Z</time>
      </trkpt>
      <trkpt lat="43.53024" lon="6.30341">
        <ele>356.6</ele>
        <time>2023-09-15T12:41:37Z</time>
      </trkpt>
      <trkpt lat="43.53024" lon="6.3034">
        <ele>356.4</ele>
        <time>2023-09-15T12:41:38Z</time>
      </trkpt>
      <trkpt lat="43.53025" lon="6.30339">
        <ele>356.3</ele>
        <time>2023-09-15T12:41:39Z</time>
      </trkpt>
      <trkpt lat="43.53026" lon="6.30338">
        <ele>356.2</ele>
        <time>2023-09-15T12:41:40Z</time>
      </trkpt>
      <trkpt lat="43.53026" lon="6.30337">
        <ele>356.1</ele>
        <time>2023-09-15T12:41:41Z</time>
      </trkpt>
      <trkpt lat="43.53026" lon="6.30335">
        <ele>356</ele>
        <time>2023-09-15T12:41:42Z</time>
      </trkpt>
      <trkpt lat="43.53027" lon="6.30334">
        <ele>355.9</ele>
        <time>2023-09-15T12:41:43Z</time>
      </trkpt>
      <trkpt lat="43.53027" lon="6.30333">
        <ele>355.8</ele>
        <time>2023-09-15T12:41:44Z</time>
      </trkpt>
      <trkpt lat="43.53028" lon="6.30332">
        <ele>355.7</ele>
        <time>2023-09-15T12:41:45Z</time>
      </trkpt>
      <trkpt lat="43.53029" lon="6.30331">
        <ele>355.6</ele>
        <time>2023-09-15T12:41:46Z</time>
      </trkpt>
      <trkpt lat="43.53029" lon="6.30329">
        <ele>355.6</ele>
        <time>2023-09-15T12:41:47Z</time>
      </trkpt>
      <trkpt lat="43.5303" lon="6.30328">
        <ele>355.5</ele>
        <time>2023-09-15T12:41:48Z</time>
      </trkpt>
      <trkpt lat="43.5303" lon="6.30327">
        <ele>355.4</ele>
        <time>2023-09-15T12:41:49Z</time>
      </trkpt>
      <trkpt lat="43.53031" lon="6.30326">
        <ele>355.2</ele>
        <time>2023-09-15T12:41:50Z</time>
      </trkpt>
      <trkpt lat="43.53031" lon="6.30324">
        <ele>354.8</ele>
        <time>2023-09-15T12:41:51Z</time>
      </trkpt>
      <trkpt lat="43.53031" lon="6.30322">
        <ele>354.7</ele>
        <time>2023-09-15T12:41:52Z</time>
      </trkpt>
      <trkpt lat="43.53032" lon="6.30321">
        <ele>354.6</ele>
        <time>2023-09-15T12:41:53Z</time>
      </trkpt>
      <trkpt lat="43.53032" lon="6.30319">
        <ele>354.6</ele>
        <time>2023-09-15T12:41:54Z</time>
      </trkpt>
      <trkpt lat="43.53032" lon="6.30318">
        <ele>354.6</ele>
        <time>2023-09-15T12:41:55Z</time>
      </trkpt>
      <trkpt lat="43.53032" lon="6.30317">
        <ele>354.4</ele>
        <time>2023-09-15T12:41:56Z</time>
      </trkpt>
      <trkpt lat="43.53032" lon="6.30317">
        <ele>354.3</ele>
        <time>2023-09-15T12:41:57Z</time>
      </trkpt>
      <trkpt lat="43.53032" lon="6.30316">
        <ele>354.2</ele>
        <time>2023-09-15T12:41:58Z</time>
      </trkpt>
      <trkpt lat="43.53032" lon="6.30315">
        <ele>354.1</ele>
        <time>2023-09-15T12:41:59Z</time>
      </trkpt>
      <trkpt lat="43.53032" lon="6.30314">
        <ele>354</ele>
        <time>2023-09-15T12:42:00Z</time>
      </trkpt>
      <trkpt lat="43.53033" lon="6.30313">
        <ele>353.9</ele>
        <time>2023-09-15T12:42:01Z</time>
      </trkpt>
      <trkpt lat="43.53033" lon="6.30312">
        <ele>353.8</ele>
        <time>2023-09-15T12:42:02Z</time>
      </trkpt>
      <trkpt lat="43.53033" lon="6.30311">
        <ele>353.7</ele>
        <time>2023-09-15T12:42:03Z</time>
      </trkpt>
      <trkpt lat="43.53033" lon="6.3031">
        <ele>353.6</ele>
        <time>2023-09-15T12:42:04Z</time>
      </trkpt>
      <trkpt lat="43.53033" lon="6.30308">
        <ele>353.5</ele>
        <time>2023-09-15T12:42:05Z</time>
      </trkpt>
      <trkpt lat="43.53033" lon="6.30307">
        <ele>353.4</ele>
        <time>2023-09-15T12:42:06Z</time>
      </trkpt>
      <trkpt lat="43.53033" lon="6.30306">
        <ele>353.3</ele>
        <time>2023-09-15T12:42:07Z</time>
      </trkpt>
      <trkpt lat="43.53034" lon="6.30305">
        <ele>353.3</ele>
        <time>2023-09-15T12:42:08Z</time>
      </trkpt>
      <trkpt lat="43.53034" lon="6.30303">
        <ele>353.2</ele>
        <time>2023-09-15T12:42:09Z</time>
      </trkpt>
      <trkpt lat="43.53034" lon="6.30302">
        <ele>353.3</ele>
        <time>2023-09-15T12:42:10Z</time>
      </trkpt>
      <trkpt lat="43.53034" lon="6.30301">
        <ele>353.2</ele>
        <time>2023-09-15T12:42:11Z</time>
      </trkpt>
      <trkpt lat="43.53034" lon="6.30299">
        <ele>353</ele>
        <time>2023-09-15T12:42:12Z</time>
      </trkpt>
      <trkpt lat="43.53035" lon="6.30299">
        <ele>352.9</ele>
        <time>2023-09-15T12:42:13Z</time>
      </trkpt>
      <trkpt lat="43.53035" lon="6.30298">
        <ele>352.8</ele>
        <time>2023-09-15T12:42:14Z</time>
      </trkpt>
      <trkpt lat="43.53035" lon="6.30297">
        <ele>352.7</ele>
        <time>2023-09-15T12:42:15Z</time>
      </trkpt>
      <trkpt lat="43.53035" lon="6.30296">
        <ele>352.6</ele>
        <time>2023-09-15T12:42:16Z</time>
      </trkpt>
      <trkpt lat="43.53035" lon="6.30295">
        <ele>352.6</ele>
        <time>2023-09-15T12:42:17Z</time>
      </trkpt>
      <trkpt lat="43.53036" lon="6.30294">
        <ele>352.5</ele>
        <time>2023-09-15T12:42:18Z</time>
      </trkpt>
      <trkpt lat="43.53036" lon="6.30293">
        <ele>352.5</ele>
        <time>2023-09-15T12:42:19Z</time>
      </trkpt>
      <trkpt lat="43.53037" lon="6.30292">
        <ele>352.4</ele>
        <time>2023-09-15T12:42:20Z</time>
      </trkpt>
      <trkpt lat="43.53036" lon="6.30291">
        <ele>352.2</ele>
        <time>2023-09-15T12:42:21Z</time>
      </trkpt>
      <trkpt lat="43.53037" lon="6.3029">
        <ele>352.2</ele>
        <time>2023-09-15T12:42:22Z</time>
      </trkpt>
      <trkpt lat="43.53037" lon="6.30289">
        <ele>352.1</ele>
        <time>2023-09-15T12:42:23Z</time>
      </trkpt>
      <trkpt lat="43.53037" lon="6.30288">
        <ele>352.1</ele>
        <time>2023-09-15T12:42:24Z</time>
      </trkpt>
      <trkpt lat="43.53037" lon="6.30286">
        <ele>352</ele>
        <time>2023-09-15T12:42:25Z</time>
      </trkpt>
      <trkpt lat="43.53037" lon="6.30285">
        <ele>351.9</ele>
        <time>2023-09-15T12:42:26Z</time>
      </trkpt>
      <trkpt lat="43.53037" lon="6.30284">
        <ele>351.8</ele>
        <time>2023-09-15T12:42:27Z</time>
      </trkpt>
      <trkpt lat="43.53038" lon="6.30283">
        <ele>351.7</ele>
        <time>2023-09-15T12:42:28Z</time>
      </trkpt>
      <trkpt lat="43.53038" lon="6.30281">
        <ele>351.5</ele>
        <time>2023-09-15T12:42:29Z</time>
      </trkpt>
      <trkpt lat="43.53037" lon="6.3028">
        <ele>351.4</ele>
        <time>2023-09-15T12:42:30Z</time>
      </trkpt>
      <trkpt lat="43.53037" lon="6.30278">
        <ele>351.3</ele>
        <time>2023-09-15T12:42:31Z</time>
      </trkpt>
      <trkpt lat="43.53036" lon="6.30277">
        <ele>351.1</ele>
        <time>2023-09-15T12:42:32Z</time>
      </trkpt>
      <trkpt lat="43.53036" lon="6.30276">
        <ele>351</ele>
        <time>2023-09-15T12:42:33Z</time>
      </trkpt>
      <trkpt lat="43.53035" lon="6.30275">
        <ele>351</ele>
        <time>2023-09-15T12:42:34Z</time>
      </trkpt>
      <trkpt lat="43.53035" lon="6.30273">
        <ele>350.9</ele>
        <time>2023-09-15T12:42:35Z</time>
      </trkpt>
      <trkpt lat="43.53036" lon="6.30273">
        <ele>350.8</ele>
        <time>2023-09-15T12:42:36Z</time>
      </trkpt>
      <trkpt lat="43.53035" lon="6.30271">
        <ele>350.8</ele>
        <time>2023-09-15T12:42:37Z</time>
      </trkpt>
      <trkpt lat="43.53035" lon="6.30271">
        <ele>350.8</ele>
        <time>2023-09-15T12:42:38Z</time>
      </trkpt>
      <trkpt lat="43.53035" lon="6.3027">
        <ele>350.8</ele>
        <time>2023-09-15T12:42:39Z</time>
      </trkpt>
      <trkpt lat="43.53034" lon="6.30269">
        <ele>350.8</ele>
        <time>2023-09-15T12:42:40Z</time>
      </trkpt>
      <trkpt lat="43.53033" lon="6.30268">
        <ele>350.7</ele>
        <time>2023-09-15T12:42:41Z</time>
      </trkpt>
      <trkpt lat="43.53032" lon="6.30267">
        <ele>350.7</ele>
        <time>2023-09-15T12:42:42Z</time>
      </trkpt>
      <trkpt lat="43.53032" lon="6.30266">
        <ele>350.5</ele>
        <time>2023-09-15T12:42:43Z</time>
      </trkpt>
      <trkpt lat="43.53032" lon="6.30266">
        <ele>350.3</ele>
        <time>2023-09-15T12:42:44Z</time>
      </trkpt>
      <trkpt lat="43.53031" lon="6.30265">
        <ele>350.2</ele>
        <time>2023-09-15T12:42:45Z</time>
      </trkpt>
      <trkpt lat="43.5303" lon="6.30265">
        <ele>350.2</ele>
        <time>2023-09-15T12:42:46Z</time>
      </trkpt>
      <trkpt lat="43.53029" lon="6.30264">
        <ele>350.2</ele>
        <time>2023-09-15T12:42:47Z</time>
      </trkpt>
      <trkpt lat="43.53029" lon="6.30263">
        <ele>350.1</ele>
        <time>2023-09-15T12:42:48Z</time>
      </trkpt>
      <trkpt lat="43.53028" lon="6.30262">
        <ele>350</ele>
        <time>2023-09-15T12:42:49Z</time>
      </trkpt>
      <trkpt lat="43.53027" lon="6.30261">
        <ele>349.9</ele>
        <time>2023-09-15T12:42:50Z</time>
      </trkpt>
      <trkpt lat="43.53027" lon="6.3026">
        <ele>349.8</ele>
        <time>2023-09-15T12:42:51Z</time>
      </trkpt>
      <trkpt lat="43.53026" lon="6.3026">
        <ele>349.7</ele>
        <time>2023-09-15T12:42:52Z</time>
      </trkpt>
      <trkpt lat="43.53026" lon="6.30259">
        <ele>349.9</ele>
        <time>2023-09-15T12:42:53Z</time>
      </trkpt>
      <trkpt lat="43.53025" lon="6.30258">
        <ele>349.8</ele>
        <time>2023-09-15T12:42:54Z</time>
      </trkpt>
      <trkpt lat="43.53024" lon="6.30258">
        <ele>349.7</ele>
        <time>2023-09-15T12:42:55Z</time>
      </trkpt>
      <trkpt lat="43.53023" lon="6.30257">
        <ele>349.5</ele>
        <time>2023-09-15T12:42:56Z</time>
      </trkpt>
      <trkpt lat="43.53023" lon="6.30257">
        <ele>349.4</ele>
        <time>2023-09-15T12:42:57Z</time>
      </trkpt>
      <trkpt lat="43.53023" lon="6.30256">
        <ele>349.3</ele>
        <time>2023-09-15T12:42:58Z</time>
      </trkpt>
      <trkpt lat="43.53022" lon="6.30255">
        <ele>349.2</ele>
        <time>2023-09-15T12:42:59Z</time>
      </trkpt>
      <trkpt lat="43.53021" lon="6.30254">
        <ele>349.1</ele>
        <time>2023-09-15T12:43:00Z</time>
      </trkpt>
      <trkpt lat="43.5302" lon="6.30253">
        <ele>348.9</ele>
        <time>2023-09-15T12:43:01Z</time>
      </trkpt>
      <trkpt lat="43.5302" lon="6.30252">
        <ele>348.8</ele>
        <time>2023-09-15T12:43:02Z</time>
      </trkpt>
      <trkpt lat="43.53019" lon="6.30251">
        <ele>348.6</ele>
        <time>2023-09-15T12:43:03Z</time>
      </trkpt>
      <trkpt lat="43.53018" lon="6.3025">
        <ele>348.5</ele>
        <time>2023-09-15T12:43:04Z</time>
      </trkpt>
      <trkpt lat="43.53016" lon="6.30249">
        <ele>348.4</ele>
        <time>2023-09-15T12:43:05Z</time>
      </trkpt>
      <trkpt lat="43.53016" lon="6.30249">
        <ele>348.3</ele>
        <time>2023-09-15T12:43:06Z</time>
      </trkpt>
      <trkpt lat="43.53015" lon="6.30249">
        <ele>348.1</ele>
        <time>2023-09-15T12:43:07Z</time>
      </trkpt>
      <trkpt lat="43.53015" lon="6.30248">
        <ele>348</ele>
        <time>2023-09-15T12:43:08Z</time>
      </trkpt>
      <trkpt lat="43.53014" lon="6.30247">
        <ele>347.9</ele>
        <time>2023-09-15T12:43:09Z</time>
      </trkpt>
      <trkpt lat="43.53013" lon="6.30246">
        <ele>347.8</ele>
        <time>2023-09-15T12:43:10Z</time>
      </trkpt>
      <trkpt lat="43.53013" lon="6.30246">
        <ele>347.8</ele>
        <time>2023-09-15T12:43:11Z</time>
      </trkpt>
      <trkpt lat="43.53011" lon="6.30245">
        <ele>347.7</ele>
        <time>2023-09-15T12:43:12Z</time>
      </trkpt>
      <trkpt lat="43.5301" lon="6.30244">
        <ele>347.6</ele>
        <time>2023-09-15T12:43:13Z</time>
      </trkpt>
      <trkpt lat="43.53009" lon="6.30244">
        <ele>347.6</ele>
        <time>2023-09-15T12:43:14Z</time>
      </trkpt>
      <trkpt lat="43.53008" lon="6.30244">
        <ele>347.5</ele>
        <time>2023-09-15T12:43:15Z</time>
      </trkpt>
      <trkpt lat="43.53007" lon="6.30244">
        <ele>347.4</ele>
        <time>2023-09-15T12:43:16Z</time>
      </trkpt>
      <trkpt lat="43.53006" lon="6.30244">
        <ele>347.4</ele>
        <time>2023-09-15T12:43:17Z</time>
      </trkpt>
      <trkpt lat="43.53005" lon="6.30244">
        <ele>347.3</ele>
        <time>2023-09-15T12:43:18Z</time>
      </trkpt>
      <trkpt lat="43.53004" lon="6.30245">
        <ele>347.2</ele>
        <time>2023-09-15T12:43:19Z</time>
      </trkpt>
      <trkpt lat="43.53003" lon="6.30245">
        <ele>347.1</ele>
        <time>2023-09-15T12:43:20Z</time>
      </trkpt>
      <trkpt lat="43.53001" lon="6.30245">
        <ele>347</ele>
        <time>2023-09-15T12:43:21Z</time>
      </trkpt>
      <trkpt lat="43.53" lon="6.30245">
        <ele>346.9</ele>
        <time>2023-09-15T12:43:22Z</time>
      </trkpt>
      <trkpt lat="43.52999" lon="6.30245">
        <ele>346.8</ele>
        <time>2023-09-15T12:43:23Z</time>
      </trkpt>
      <trkpt lat="43.52998" lon="6.30245">
        <ele>346.8</ele>
        <time>2023-09-15T12:43:24Z</time>
      </trkpt>
      <trkpt lat="43.52997" lon="6.30246">
        <ele>346.7</ele>
        <time>2023-09-15T12:43:25Z</time>
      </trkpt>
      <trkpt lat="43.52996" lon="6.30246">
        <ele>346.7</ele>
        <time>2023-09-15T12:43:26Z</time>
      </trkpt>
      <trkpt lat="43.52995" lon="6.30247">
        <ele>346.7</ele>
        <time>2023-09-15T12:43:27Z</time>
      </trkpt>
      <trkpt lat="43.52993" lon="6.30247">
        <ele>346.6</ele>
        <time>2023-09-15T12:43:28Z</time>
      </trkpt>
      <trkpt lat="43.52992" lon="6.30247">
        <ele>346.6</ele>
        <time>2023-09-15T12:43:29Z</time>
      </trkpt>
      <trkpt lat="43.52992" lon="6.30249">
        <ele>346.6</ele>
        <time>2023-09-15T12:43:30Z</time>
      </trkpt>
      <trkpt lat="43.52991" lon="6.30249">
        <ele>346.5</ele>
        <time>2023-09-15T12:43:31Z</time>
      </trkpt>
      <trkpt lat="43.5299" lon="6.3025">
        <ele>346.5</ele>
        <time>2023-09-15T12:43:32Z</time>
      </trkpt>
      <trkpt lat="43.52988" lon="6.3025">
        <ele>346.6</ele>
        <time>2023-09-15T12:43:33Z</time>
      </trkpt>
      <trkpt lat="43.52988" lon="6.3025">
        <ele>346.6</ele>
        <time>2023-09-15T12:43:34Z</time>
      </trkpt>
      <trkpt lat="43.52987" lon="6.30251">
        <ele>346.6</ele>
        <time>2023-09-15T12:43:35Z</time>
      </trkpt>
      <trkpt lat="43.52986" lon="6.30251">
        <ele>346.7</ele>
        <time>2023-09-15T12:43:36Z</time>
      </trkpt>
      <trkpt lat="43.52985" lon="6.30252">
        <ele>346.7</ele>
        <time>2023-09-15T12:43:37Z</time>
      </trkpt>
      <trkpt lat="43.52984" lon="6.30252">
        <ele>346.8</ele>
        <time>2023-09-15T12:43:38Z</time>
      </trkpt>
      <trkpt lat="43.52983" lon="6.30252">
        <ele>346.8</ele>
        <time>2023-09-15T12:43:39Z</time>
      </trkpt>
      <trkpt lat="43.52982" lon="6.30252">
        <ele>346.8</ele>
        <time>2023-09-15T12:43:40Z</time>
      </trkpt>
      <trkpt lat="43.5298" lon="6.30252">
        <ele>346.8</ele>
        <time>2023-09-15T12:43:41Z</time>
      </trkpt>
      <trkpt lat="43.52979" lon="6.30252">
        <ele>346.9</ele>
        <time>2023-09-15T12:43:42Z</time>
      </trkpt>
      <trkpt lat="43.52979" lon="6.30253">
        <ele>347</ele>
        <time>2023-09-15T12:43:43Z</time>
      </trkpt>
      <trkpt lat="43.52978" lon="6.30253">
        <ele>347</ele>
        <time>2023-09-15T12:43:44Z</time>
      </trkpt>
      <trkpt lat="43.52976" lon="6.30253">
        <ele>347</ele>
        <time>2023-09-15T12:43:45Z</time>
      </trkpt>
      <trkpt lat="43.52975" lon="6.30253">
        <ele>347</ele>
        <time>2023-09-15T12:43:46Z</time>
      </trkpt>
      <trkpt lat="43.52974" lon="6.30254">
        <ele>347</ele>
        <time>2023-09-15T12:43:47Z</time>
      </trkpt>
      <trkpt lat="43.52973" lon="6.30253">
        <ele>347</ele>
        <time>2023-09-15T12:43:48Z</time>
      </trkpt>
      <trkpt lat="43.52972" lon="6.30254">
        <ele>346.9</ele>
        <time>2023-09-15T12:43:49Z</time>
      </trkpt>
      <trkpt lat="43.52972" lon="6.30253">
        <ele>346.8</ele>
        <time>2023-09-15T12:43:50Z</time>
      </trkpt>
      <trkpt lat="43.5297" lon="6.30253">
        <ele>346.8</ele>
        <time>2023-09-15T12:43:51Z</time>
      </trkpt>
      <trkpt lat="43.52969" lon="6.30253">
        <ele>346.8</ele>
        <time>2023-09-15T12:43:52Z</time>
      </trkpt>
      <trkpt lat="43.52968" lon="6.30253">
        <ele>346.7</ele>
        <time>2023-09-15T12:43:53Z</time>
      </trkpt>
      <trkpt lat="43.52967" lon="6.30253">
        <ele>346.7</ele>
        <time>2023-09-15T12:43:54Z</time>
      </trkpt>
      <trkpt lat="43.52966" lon="6.30253">
        <ele>346.8</ele>
        <time>2023-09-15T12:43:55Z</time>
      </trkpt>
      <trkpt lat="43.52965" lon="6.30253">
        <ele>346.7</ele>
        <time>2023-09-15T12:43:56Z</time>
      </trkpt>
      <trkpt lat="43.52964" lon="6.30253">
        <ele>346.6</ele>
        <time>2023-09-15T12:43:57Z</time>
      </trkpt>
      <trkpt lat="43.52963" lon="6.30253">
        <ele>346.7</ele>
        <time>2023-09-15T12:43:58Z</time>
      </trkpt>
      <trkpt lat="43.52962" lon="6.30253">
        <ele>346.7</ele>
        <time>2023-09-15T12:43:59Z</time>
      </trkpt>
      <trkpt lat="43.52961" lon="6.30252">
        <ele>346.7</ele>
        <time>2023-09-15T12:44:00Z</time>
      </trkpt>
      <trkpt lat="43.5296" lon="6.30253">
        <ele>346.7</ele>
        <time>2023-09-15T12:44:01Z</time>
      </trkpt>
      <trkpt lat="43.52959" lon="6.30253">
        <ele>346.7</ele>
        <time>2023-09-15T12:44:02Z</time>
      </trkpt>
      <trkpt lat="43.52958" lon="6.30253">
        <ele>346.7</ele>
        <time>2023-09-15T12:44:03Z</time>
      </trkpt>
      <trkpt lat="43.52957" lon="6.30253">
        <ele>346.7</ele>
        <time>2023-09-15T12:44:04Z</time>
      </trkpt>
      <trkpt lat="43.52956" lon="6.30252">
        <ele>346.6</ele>
        <time>2023-09-15T12:44:05Z</time>
      </trkpt>
      <trkpt lat="43.52955" lon="6.30252">
        <ele>346.6</ele>
        <time>2023-09-15T12:44:06Z</time>
      </trkpt>
      <trkpt lat="43.52954" lon="6.30252">
        <ele>346.4</ele>
        <time>2023-09-15T12:44:07Z</time>
      </trkpt>
      <trkpt lat="43.52954" lon="6.30251">
        <ele>346.3</ele>
        <time>2023-09-15T12:44:08Z</time>
      </trkpt>
      <trkpt lat="43.52953" lon="6.3025">
        <ele>346.3</ele>
        <time>2023-09-15T12:44:09Z</time>
      </trkpt>
      <trkpt lat="43.52953" lon="6.30249">
        <ele>346.2</ele>
        <time>2023-09-15T12:44:10Z</time>
      </trkpt>
      <trkpt lat="43.52952" lon="6.30248">
        <ele>346.2</ele>
        <time>2023-09-15T12:44:11Z</time>
      </trkpt>
      <trkpt lat="43.52952" lon="6.30247">
        <ele>346.2</ele>
        <time>2023-09-15T12:44:12Z</time>
      </trkpt>
      <trkpt lat="43.52953" lon="6.30247">
        <ele>346.3</ele>
        <time>2023-09-15T12:44:13Z</time>
      </trkpt>
      <trkpt lat="43.52952" lon="6.30246">
        <ele>346.3</ele>
        <time>2023-09-15T12:44:14Z</time>
      </trkpt>
      <trkpt lat="43.52952" lon="6.30246">
        <ele>346.3</ele>
        <time>2023-09-15T12:44:15Z</time>
      </trkpt>
      <trkpt lat="43.52952" lon="6.30245">
        <ele>346.4</ele>
        <time>2023-09-15T12:44:16Z</time>
      </trkpt>
      <trkpt lat="43.52951" lon="6.30244">
        <ele>346.4</ele>
        <time>2023-09-15T12:44:17Z</time>
      </trkpt>
      <trkpt lat="43.52951" lon="6.30243">
        <ele>346.6</ele>
        <time>2023-09-15T12:44:18Z</time>
      </trkpt>
      <trkpt lat="43.52951" lon="6.30242">
        <ele>346.8</ele>
        <time>2023-09-15T12:44:19Z</time>
      </trkpt>
      <trkpt lat="43.52951" lon="6.30241">
        <ele>346.7</ele>
        <time>2023-09-15T12:44:20Z</time>
      </trkpt>
      <trkpt lat="43.5295" lon="6.3024">
        <ele>346.7</ele>
        <time>2023-09-15T12:44:21Z</time>
      </trkpt>
      <trkpt lat="43.5295" lon="6.30239">
        <ele>346.7</ele>
        <time>2023-09-15T12:44:22Z</time>
      </trkpt>
      <trkpt lat="43.52949" lon="6.30239">
        <ele>346.7</ele>
        <time>2023-09-15T12:44:23Z</time>
      </trkpt>
      <trkpt lat="43.52948" lon="6.30238">
        <ele>346.8</ele>
        <time>2023-09-15T12:44:24Z</time>
      </trkpt>
      <trkpt lat="43.52948" lon="6.30237">
        <ele>346.9</ele>
        <time>2023-09-15T12:44:25Z</time>
      </trkpt>
      <trkpt lat="43.52947" lon="6.30236">
        <ele>347</ele>
        <time>2023-09-15T12:44:26Z</time>
      </trkpt>
      <trkpt lat="43.52947" lon="6.30235">
        <ele>347</ele>
        <time>2023-09-15T12:44:27Z</time>
      </trkpt>
      <trkpt lat="43.52946" lon="6.30234">
        <ele>347.1</ele>
        <time>2023-09-15T12:44:28Z</time>
      </trkpt>
      <trkpt lat="43.52946" lon="6.30233">
        <ele>347.2</ele>
        <time>2023-09-15T12:44:29Z</time>
      </trkpt>
      <trkpt lat="43.52946" lon="6.30233">
        <ele>347.2</ele>
        <time>2023-09-15T12:44:30Z</time>
      </trkpt>
      <trkpt lat="43.52946" lon="6.30232">
        <ele>347.2</ele>
        <time>2023-09-15T12:44:31Z</time>
      </trkpt>
      <trkpt lat="43.52946" lon="6.30231">
        <ele>347.2</ele>
        <time>2023-09-15T12:44:32Z</time>
      </trkpt>
      <trkpt lat="43.52946" lon="6.30229">
        <ele>347.1</ele>
        <time>2023-09-15T12:44:33Z</time>
      </trkpt>
      <trkpt lat="43.52946" lon="6.30227">
        <ele>347.2</ele>
        <time>2023-09-15T12:44:34Z</time>
      </trkpt>
      <trkpt lat="43.52946" lon="6.30226">
        <ele>347.1</ele>
        <time>2023-09-15T12:44:35Z</time>
      </trkpt>
      <trkpt lat="43.52946" lon="6.30225">
        <ele>347</ele>
        <time>2023-09-15T12:44:36Z</time>
      </trkpt>
      <trkpt lat="43.52946" lon="6.30224">
        <ele>346.9</ele>
        <time>2023-09-15T12:44:37Z</time>
      </trkpt>
      <trkpt lat="43.52946" lon="6.30223">
        <ele>346.8</ele>
        <time>2023-09-15T12:44:38Z</time>
      </trkpt>
      <trkpt lat="43.52946" lon="6.30222">
        <ele>346.9</ele>
        <time>2023-09-15T12:44:39Z</time>
      </trkpt>
      <trkpt lat="43.52945" lon="6.30221">
        <ele>346.7</ele>
        <time>2023-09-15T12:44:40Z</time>
      </trkpt>
      <trkpt lat="43.52945" lon="6.3022">
        <ele>346.8</ele>
        <time>2023-09-15T12:44:41Z</time>
      </trkpt>
      <trkpt lat="43.52945" lon="6.30219">
        <ele>346.9</ele>
        <time>2023-09-15T12:44:42Z</time>
      </trkpt>
      <trkpt lat="43.52945" lon="6.30219">
        <ele>346.9</ele>
        <time>2023-09-15T12:44:43Z</time>
      </trkpt>
      <trkpt lat="43.52945" lon="6.30219">
        <ele>346.9</ele>
        <time>2023-09-15T12:44:44Z</time>
      </trkpt>
      <trkpt lat="43.52945" lon="6.30218">
        <ele>346.8</ele>
        <time>2023-09-15T12:44:45Z</time>
      </trkpt>
      <trkpt lat="43.52945" lon="6.30217">
        <ele>346.7</ele>
        <time>2023-09-15T12:44:46Z</time>
      </trkpt>
      <trkpt lat="43.52945" lon="6.30215">
        <ele>346.7</ele>
        <time>2023-09-15T12:44:47Z</time>
      </trkpt>
      <trkpt lat="43.52945" lon="6.30214">
        <ele>346.6</ele>
        <time>2023-09-15T12:44:48Z</time>
      </trkpt>
      <trkpt lat="43.52945" lon="6.30213">
        <ele>346</ele>
        <time>2023-09-15T12:44:49Z</time>
      </trkpt>
      <trkpt lat="43.52944" lon="6.30212">
        <ele>345.9</ele>
        <time>2023-09-15T12:44:50Z</time>
      </trkpt>
      <trkpt lat="43.52944" lon="6.30211">
        <ele>345.9</ele>
        <time>2023-09-15T12:44:51Z</time>
      </trkpt>
      <trkpt lat="43.52944" lon="6.30209">
        <ele>345.9</ele>
        <time>2023-09-15T12:44:52Z</time>
      </trkpt>
      <trkpt lat="43.52943" lon="6.30207">
        <ele>345.9</ele>
        <time>2023-09-15T12:44:53Z</time>
      </trkpt>
      <trkpt lat="43.52943" lon="6.30205">
        <ele>345.8</ele>
        <time>2023-09-15T12:44:54Z</time>
      </trkpt>
      <trkpt lat="43.52943" lon="6.30204">
        <ele>345.7</ele>
        <time>2023-09-15T12:44:55Z</time>
      </trkpt>
      <trkpt lat="43.52943" lon="6.30203">
        <ele>345.7</ele>
        <time>2023-09-15T12:44:56Z</time>
      </trkpt>
      <trkpt lat="43.52943" lon="6.30201">
        <ele>345.6</ele>
        <time>2023-09-15T12:44:57Z</time>
      </trkpt>
      <trkpt lat="43.52942" lon="6.302">
        <ele>345.6</ele>
        <time>2023-09-15T12:44:58Z</time>
      </trkpt>
      <trkpt lat="43.52942" lon="6.30197">
        <ele>345.5</ele>
        <time>2023-09-15T12:44:59Z</time>
      </trkpt>
      <trkpt lat="43.52942" lon="6.30196">
        <ele>345.2</ele>
        <time>2023-09-15T12:45:00Z</time>
      </trkpt>
      <trkpt lat="43.52942" lon="6.30195">
        <ele>345</ele>
        <time>2023-09-15T12:45:01Z</time>
      </trkpt>
      <trkpt lat="43.52941" lon="6.30195">
        <ele>344.9</ele>
        <time>2023-09-15T12:45:02Z</time>
      </trkpt>
      <trkpt lat="43.52941" lon="6.30194">
        <ele>344.9</ele>
        <time>2023-09-15T12:45:03Z</time>
      </trkpt>
      <trkpt lat="43.5294" lon="6.30193">
        <ele>344.8</ele>
        <time>2023-09-15T12:45:04Z</time>
      </trkpt>
      <trkpt lat="43.5294" lon="6.30192">
        <ele>344.7</ele>
        <time>2023-09-15T12:45:05Z</time>
      </trkpt>
      <trkpt lat="43.52939" lon="6.30191">
        <ele>344.6</ele>
        <time>2023-09-15T12:45:06Z</time>
      </trkpt>
      <trkpt lat="43.52939" lon="6.3019">
        <ele>344.5</ele>
        <time>2023-09-15T12:45:07Z</time>
      </trkpt>
      <trkpt lat="43.52938" lon="6.30189">
        <ele>344.4</ele>
        <time>2023-09-15T12:45:08Z</time>
      </trkpt>
      <trkpt lat="43.52938" lon="6.30188">
        <ele>344.4</ele>
        <time>2023-09-15T12:45:09Z</time>
      </trkpt>
      <trkpt lat="43.52937" lon="6.30186">
        <ele>344.3</ele>
        <time>2023-09-15T12:45:10Z</time>
      </trkpt>
      <trkpt lat="43.52936" lon="6.30185">
        <ele>344.3</ele>
        <time>2023-09-15T12:45:11Z</time>
      </trkpt>
      <trkpt lat="43.52935" lon="6.30184">
        <ele>344.2</ele>
        <time>2023-09-15T12:45:12Z</time>
      </trkpt>
      <trkpt lat="43.52935" lon="6.30183">
        <ele>344.2</ele>
        <time>2023-09-15T12:45:13Z</time>
      </trkpt>
      <trkpt lat="43.52934" lon="6.30182">
        <ele>344.1</ele>
        <time>2023-09-15T12:45:14Z</time>
      </trkpt>
      <trkpt lat="43.52933" lon="6.30181">
        <ele>344.1</ele>
        <time>2023-09-15T12:45:15Z</time>
      </trkpt>
      <trkpt lat="43.52933" lon="6.3018">
        <ele>344</ele>
        <time>2023-09-15T12:45:16Z</time>
      </trkpt>
      <trkpt lat="43.52932" lon="6.30179">
        <ele>343.9</ele>
        <time>2023-09-15T12:45:17Z</time>
      </trkpt>
      <trkpt lat="43.52931" lon="6.30178">
        <ele>343.9</ele>
        <time>2023-09-15T12:45:18Z</time>
      </trkpt>
      <trkpt lat="43.52931" lon="6.30177">
        <ele>343.8</ele>
        <time>2023-09-15T12:45:19Z</time>
      </trkpt>
      <trkpt lat="43.5293" lon="6.30176">
        <ele>343.8</ele>
        <time>2023-09-15T12:45:20Z</time>
      </trkpt>
      <trkpt lat="43.5293" lon="6.30175">
        <ele>343.8</ele>
        <time>2023-09-15T12:45:21Z</time>
      </trkpt>
      <trkpt lat="43.5293" lon="6.30174">
        <ele>343.8</ele>
        <time>2023-09-15T12:45:22Z</time>
      </trkpt>
      <trkpt lat="43.52929" lon="6.30173">
        <ele>343.7</ele>
        <time>2023-09-15T12:45:23Z</time>
      </trkpt>
      <trkpt lat="43.52929" lon="6.30172">
        <ele>343.7</ele>
        <time>2023-09-15T12:45:24Z</time>
      </trkpt>
      <trkpt lat="43.52927" lon="6.30172">
        <ele>343.6</ele>
        <time>2023-09-15T12:45:25Z</time>
      </trkpt>
      <trkpt lat="43.52926" lon="6.3017">
        <ele>343.6</ele>
        <time>2023-09-15T12:45:26Z</time>
      </trkpt>
      <trkpt lat="43.52925" lon="6.30169">
        <ele>343.4</ele>
        <time>2023-09-15T12:45:27Z</time>
      </trkpt>
      <trkpt lat="43.52924" lon="6.30168">
        <ele>343.3</ele>
        <time>2023-09-15T12:45:28Z</time>
      </trkpt>
      <trkpt lat="43.52923" lon="6.30168">
        <ele>343.2</ele>
        <time>2023-09-15T12:45:29Z</time>
      </trkpt>
      <trkpt lat="43.52922" lon="6.30167">
        <ele>343.2</ele>
        <time>2023-09-15T12:45:30Z</time>
      </trkpt>
      <trkpt lat="43.52921" lon="6.30166">
        <ele>343.1</ele>
        <time>2023-09-15T12:45:31Z</time>
      </trkpt>
      <trkpt lat="43.5292" lon="6.30165">
        <ele>343</ele>
        <time>2023-09-15T12:45:32Z</time>
      </trkpt>
      <trkpt lat="43.52919" lon="6.30163">
        <ele>343.1</ele>
        <time>2023-09-15T12:45:33Z</time>
      </trkpt>
      <trkpt lat="43.52918" lon="6.30162">
        <ele>343</ele>
        <time>2023-09-15T12:45:34Z</time>
      </trkpt>
      <trkpt lat="43.52917" lon="6.30161">
        <ele>342.9</ele>
        <time>2023-09-15T12:45:35Z</time>
      </trkpt>
      <trkpt lat="43.52916" lon="6.3016">
        <ele>342.8</ele>
        <time>2023-09-15T12:45:36Z</time>
      </trkpt>
      <trkpt lat="43.52915" lon="6.30159">
        <ele>342.7</ele>
        <time>2023-09-15T12:45:37Z</time>
      </trkpt>
      <trkpt lat="43.52914" lon="6.30158">
        <ele>342.6</ele>
        <time>2023-09-15T12:45:38Z</time>
      </trkpt>
      <trkpt lat="43.52913" lon="6.30157">
        <ele>342.4</ele>
        <time>2023-09-15T12:45:39Z</time>
      </trkpt>
      <trkpt lat="43.52912" lon="6.30157">
        <ele>342.5</ele>
        <time>2023-09-15T12:45:40Z</time>
      </trkpt>
      <trkpt lat="43.52911" lon="6.30156">
        <ele>342.5</ele>
        <time>2023-09-15T12:45:41Z</time>
      </trkpt>
      <trkpt lat="43.5291" lon="6.30155">
        <ele>342.4</ele>
        <time>2023-09-15T12:45:42Z</time>
      </trkpt>
      <trkpt lat="43.52909" lon="6.30155">
        <ele>342.3</ele>
        <time>2023-09-15T12:45:43Z</time>
      </trkpt>
      <trkpt lat="43.52908" lon="6.30155">
        <ele>342.2</ele>
        <time>2023-09-15T12:45:44Z</time>
      </trkpt>
      <trkpt lat="43.52907" lon="6.30154">
        <ele>342.2</ele>
        <time>2023-09-15T12:45:45Z</time>
      </trkpt>
      <trkpt lat="43.52906" lon="6.30153">
        <ele>342.1</ele>
        <time>2023-09-15T12:45:46Z</time>
      </trkpt>
      <trkpt lat="43.52905" lon="6.30153">
        <ele>342.1</ele>
        <time>2023-09-15T12:45:47Z</time>
      </trkpt>
      <trkpt lat="43.52904" lon="6.30152">
        <ele>342</ele>
        <time>2023-09-15T12:45:48Z</time>
      </trkpt>
      <trkpt lat="43.52903" lon="6.30152">
        <ele>342.1</ele>
        <time>2023-09-15T12:45:49Z</time>
      </trkpt>
      <trkpt lat="43.52902" lon="6.30151">
        <ele>342</ele>
        <time>2023-09-15T12:45:50Z</time>
      </trkpt>
      <trkpt lat="43.52901" lon="6.3015">
        <ele>342</ele>
        <time>2023-09-15T12:45:51Z</time>
      </trkpt>
      <trkpt lat="43.529" lon="6.30149">
        <ele>342</ele>
        <time>2023-09-15T12:45:52Z</time>
      </trkpt>
      <trkpt lat="43.52899" lon="6.30148">
        <ele>342</ele>
        <time>2023-09-15T12:45:53Z</time>
      </trkpt>
      <trkpt lat="43.52898" lon="6.30147">
        <ele>341.9</ele>
        <time>2023-09-15T12:45:54Z</time>
      </trkpt>
      <trkpt lat="43.52898" lon="6.30146">
        <ele>341.9</ele>
        <time>2023-09-15T12:45:55Z</time>
      </trkpt>
      <trkpt lat="43.52897" lon="6.30146">
        <ele>341.8</ele>
        <time>2023-09-15T12:45:56Z</time>
      </trkpt>
      <trkpt lat="43.52896" lon="6.30145">
        <ele>341.7</ele>
        <time>2023-09-15T12:45:57Z</time>
      </trkpt>
      <trkpt lat="43.52895" lon="6.30144">
        <ele>341.6</ele>
        <time>2023-09-15T12:45:58Z</time>
      </trkpt>
      <trkpt lat="43.52894" lon="6.30143">
        <ele>341.5</ele>
        <time>2023-09-15T12:45:59Z</time>
      </trkpt>
      <trkpt lat="43.52893" lon="6.30143">
        <ele>341.5</ele>
        <time>2023-09-15T12:46:00Z</time>
      </trkpt>
      <trkpt lat="43.52892" lon="6.30142">
        <ele>341.4</ele>
        <time>2023-09-15T12:46:01Z</time>
      </trkpt>
      <trkpt lat="43.52891" lon="6.30141">
        <ele>341.4</ele>
        <time>2023-09-15T12:46:02Z</time>
      </trkpt>
      <trkpt lat="43.5289" lon="6.3014">
        <ele>341.3</ele>
        <time>2023-09-15T12:46:03Z</time>
      </trkpt>
      <trkpt lat="43.52889" lon="6.30139">
        <ele>341.2</ele>
        <time>2023-09-15T12:46:04Z</time>
      </trkpt>
      <trkpt lat="43.52888" lon="6.30138">
        <ele>341.1</ele>
        <time>2023-09-15T12:46:05Z</time>
      </trkpt>
      <trkpt lat="43.52887" lon="6.30138">
        <ele>341</ele>
        <time>2023-09-15T12:46:06Z</time>
      </trkpt>
      <trkpt lat="43.52886" lon="6.30137">
        <ele>340.9</ele>
        <time>2023-09-15T12:46:07Z</time>
      </trkpt>
      <trkpt lat="43.52885" lon="6.30137">
        <ele>340.7</ele>
        <time>2023-09-15T12:46:08Z</time>
      </trkpt>
      <trkpt lat="43.52884" lon="6.30136">
        <ele>340.5</ele>
        <time>2023-09-15T12:46:09Z</time>
      </trkpt>
      <trkpt lat="43.52883" lon="6.30135">
        <ele>340.6</ele>
        <time>2023-09-15T12:46:10Z</time>
      </trkpt>
      <trkpt lat="43.52882" lon="6.30135">
        <ele>340.5</ele>
        <time>2023-09-15T12:46:11Z</time>
      </trkpt>
      <trkpt lat="43.52881" lon="6.30135">
        <ele>340.5</ele>
        <time>2023-09-15T12:46:12Z</time>
      </trkpt>
      <trkpt lat="43.5288" lon="6.30134">
        <ele>340.4</ele>
        <time>2023-09-15T12:46:13Z</time>
      </trkpt>
      <trkpt lat="43.5288" lon="6.30134">
        <ele>340.3</ele>
        <time>2023-09-15T12:46:14Z</time>
      </trkpt>
      <trkpt lat="43.52879" lon="6.30134">
        <ele>340.1</ele>
        <time>2023-09-15T12:46:15Z</time>
      </trkpt>
      <trkpt lat="43.52878" lon="6.30133">
        <ele>340</ele>
        <time>2023-09-15T12:46:16Z</time>
      </trkpt>
      <trkpt lat="43.52877" lon="6.30132">
        <ele>339.9</ele>
        <time>2023-09-15T12:46:17Z</time>
      </trkpt>
      <trkpt lat="43.52876" lon="6.30131">
        <ele>339.8</ele>
        <time>2023-09-15T12:46:18Z</time>
      </trkpt>
      <trkpt lat="43.52875" lon="6.30131">
        <ele>339.5</ele>
        <time>2023-09-15T12:46:19Z</time>
      </trkpt>
      <trkpt lat="43.52874" lon="6.3013">
        <ele>339.4</ele>
        <time>2023-09-15T12:46:20Z</time>
      </trkpt>
      <trkpt lat="43.52873" lon="6.3013">
        <ele>339.2</ele>
        <time>2023-09-15T12:46:21Z</time>
      </trkpt>
      <trkpt lat="43.52872" lon="6.3013">
        <ele>339.1</ele>
        <time>2023-09-15T12:46:22Z</time>
      </trkpt>
      <trkpt lat="43.52871" lon="6.30129">
        <ele>338.9</ele>
        <time>2023-09-15T12:46:23Z</time>
      </trkpt>
      <trkpt lat="43.5287" lon="6.30128">
        <ele>338.8</ele>
        <time>2023-09-15T12:46:24Z</time>
      </trkpt>
      <trkpt lat="43.52869" lon="6.30127">
        <ele>338.7</ele>
        <time>2023-09-15T12:46:25Z</time>
      </trkpt>
      <trkpt lat="43.52868" lon="6.30126">
        <ele>338.6</ele>
        <time>2023-09-15T12:46:26Z</time>
      </trkpt>
      <trkpt lat="43.52867" lon="6.30126">
        <ele>338.5</ele>
        <time>2023-09-15T12:46:27Z</time>
      </trkpt>
      <trkpt lat="43.52866" lon="6.30125">
        <ele>338.4</ele>
        <time>2023-09-15T12:46:28Z</time>
      </trkpt>
      <trkpt lat="43.52866" lon="6.30124">
        <ele>338.2</ele>
        <time>2023-09-15T12:46:29Z</time>
      </trkpt>
      <trkpt lat="43.52865" lon="6.30123">
        <ele>338.1</ele>
        <time>2023-09-15T12:46:30Z</time>
      </trkpt>
      <trkpt lat="43.52864" lon="6.30123">
        <ele>338</ele>
        <time>2023-09-15T12:46:31Z</time>
      </trkpt>
      <trkpt lat="43.52863" lon="6.30122">
        <ele>338</ele>
        <time>2023-09-15T12:46:32Z</time>
      </trkpt>
      <trkpt lat="43.52863" lon="6.30122">
        <ele>337.9</ele>
        <time>2023-09-15T12:46:33Z</time>
      </trkpt>
      <trkpt lat="43.52862" lon="6.30121">
        <ele>337.8</ele>
        <time>2023-09-15T12:46:34Z</time>
      </trkpt>
      <trkpt lat="43.52861" lon="6.3012">
        <ele>337.7</ele>
        <time>2023-09-15T12:46:35Z</time>
      </trkpt>
      <trkpt lat="43.5286" lon="6.3012">
        <ele>337.6</ele>
        <time>2023-09-15T12:46:36Z</time>
      </trkpt>
      <trkpt lat="43.52859" lon="6.30119">
        <ele>337.5</ele>
        <time>2023-09-15T12:46:37Z</time>
      </trkpt>
      <trkpt lat="43.52858" lon="6.30117">
        <ele>337.5</ele>
        <time>2023-09-15T12:46:38Z</time>
      </trkpt>
      <trkpt lat="43.52857" lon="6.30116">
        <ele>337.4</ele>
        <time>2023-09-15T12:46:39Z</time>
      </trkpt>
      <trkpt lat="43.52857" lon="6.30116">
        <ele>337.3</ele>
        <time>2023-09-15T12:46:40Z</time>
      </trkpt>
      <trkpt lat="43.52856" lon="6.30115">
        <ele>337.3</ele>
        <time>2023-09-15T12:46:41Z</time>
      </trkpt>
      <trkpt lat="43.52855" lon="6.30114">
        <ele>337.2</ele>
        <time>2023-09-15T12:46:42Z</time>
      </trkpt>
      <trkpt lat="43.52854" lon="6.30114">
        <ele>337.1</ele>
        <time>2023-09-15T12:46:43Z</time>
      </trkpt>
      <trkpt lat="43.52854" lon="6.30114">
        <ele>337.1</ele>
        <time>2023-09-15T12:46:44Z</time>
      </trkpt>
      <trkpt lat="43.52853" lon="6.30114">
        <ele>337.1</ele>
        <time>2023-09-15T12:46:45Z</time>
      </trkpt>
      <trkpt lat="43.52853" lon="6.30114">
        <ele>337</ele>
        <time>2023-09-15T12:46:46Z</time>
      </trkpt>
      <trkpt lat="43.52852" lon="6.30114">
        <ele>337</ele>
        <time>2023-09-15T12:46:47Z</time>
      </trkpt>
      <trkpt lat="43.52852" lon="6.30113">
        <ele>336.9</ele>
        <time>2023-09-15T12:46:48Z</time>
      </trkpt>
      <trkpt lat="43.52851" lon="6.30113">
        <ele>336.7</ele>
        <time>2023-09-15T12:46:49Z</time>
      </trkpt>
      <trkpt lat="43.52851" lon="6.30112">
        <ele>336.6</ele>
        <time>2023-09-15T12:46:50Z</time>
      </trkpt>
      <trkpt lat="43.52851" lon="6.30112">
        <ele>336.7</ele>
        <time>2023-09-15T12:46:51Z</time>
      </trkpt>
      <trkpt lat="43.52851" lon="6.30112">
        <ele>336.8</ele>
        <time>2023-09-15T12:46:52Z</time>
      </trkpt>
      <trkpt lat="43.52851" lon="6.30113">
        <ele>336.8</ele>
        <time>2023-09-15T12:46:53Z</time>
      </trkpt>
      <trkpt lat="43.52851" lon="6.30113">
        <ele>336.8</ele>
        <time>2023-09-15T12:46:54Z</time>
      </trkpt>
      <trkpt lat="43.52852" lon="6.30114">
        <ele>336.8</ele>
        <time>2023-09-15T12:46:55Z</time>
      </trkpt>
      <trkpt lat="43.52852" lon="6.30115">
        <ele>336.8</ele>
        <time>2023-09-15T12:46:56Z</time>
      </trkpt>
      <trkpt lat="43.52852" lon="6.30115">
        <ele>337</ele>
        <time>2023-09-15T12:46:57Z</time>
      </trkpt>
      <trkpt lat="43.52852" lon="6.30116">
        <ele>337</ele>
        <time>2023-09-15T12:46:58Z</time>
      </trkpt>
      <trkpt lat="43.52853" lon="6.30116">
        <ele>336.9</ele>
        <time>2023-09-15T12:46:59Z</time>
      </trkpt>
      <trkpt lat="43.52853" lon="6.30116">
        <ele>336.9</ele>
        <time>2023-09-15T12:47:00Z</time>
      </trkpt>
      <trkpt lat="43.52854" lon="6.30116">
        <ele>336.9</ele>
        <time>2023-09-15T12:47:01Z</time>
      </trkpt>
      <trkpt lat="43.52854" lon="6.30117">
        <ele>336.9</ele>
        <time>2023-09-15T12:47:02Z</time>
      </trkpt>
      <trkpt lat="43.52855" lon="6.30119">
        <ele>336.9</ele>
        <time>2023-09-15T12:47:03Z</time>
      </trkpt>
      <trkpt lat="43.52855" lon="6.30119">
        <ele>337</ele>
        <time>2023-09-15T12:47:04Z</time>
      </trkpt>
      <trkpt lat="43.52856" lon="6.3012">
        <ele>337</ele>
        <time>2023-09-15T12:47:05Z</time>
      </trkpt>
      <trkpt lat="43.52857" lon="6.30121">
        <ele>337</ele>
        <time>2023-09-15T12:47:06Z</time>
      </trkpt>
      <trkpt lat="43.52857" lon="6.30121">
        <ele>337.2</ele>
        <time>2023-09-15T12:47:07Z</time>
      </trkpt>
      <trkpt lat="43.52858" lon="6.30123">
        <ele>337.4</ele>
        <time>2023-09-15T12:47:08Z</time>
      </trkpt>
      <trkpt lat="43.52859" lon="6.30124">
        <ele>337.5</ele>
        <time>2023-09-15T12:47:09Z</time>
      </trkpt>
      <trkpt lat="43.5286" lon="6.30125">
        <ele>337.6</ele>
        <time>2023-09-15T12:47:10Z</time>
      </trkpt>
      <trkpt lat="43.5286" lon="6.30126">
        <ele>337.7</ele>
        <time>2023-09-15T12:47:11Z</time>
      </trkpt>
      <trkpt lat="43.52861" lon="6.30126">
        <ele>337.7</ele>
        <time>2023-09-15T12:47:12Z</time>
      </trkpt>
      <trkpt lat="43.52862" lon="6.30128">
        <ele>337.8</ele>
        <time>2023-09-15T12:47:13Z</time>
      </trkpt>
      <trkpt lat="43.52862" lon="6.30129">
        <ele>337.9</ele>
        <time>2023-09-15T12:47:14Z</time>
      </trkpt>
      <trkpt lat="43.52863" lon="6.30129">
        <ele>338.1</ele>
        <time>2023-09-15T12:47:15Z</time>
      </trkpt>
      <trkpt lat="43.52863" lon="6.3013">
        <ele>338.2</ele>
        <time>2023-09-15T12:47:16Z</time>
      </trkpt>
      <trkpt lat="43.52864" lon="6.30131">
        <ele>338.3</ele>
        <time>2023-09-15T12:47:17Z</time>
      </trkpt>
      <trkpt lat="43.52865" lon="6.30131">
        <ele>338.5</ele>
        <time>2023-09-15T12:47:18Z</time>
      </trkpt>
      <trkpt lat="43.52865" lon="6.30132">
        <ele>338.6</ele>
        <time>2023-09-15T12:47:19Z</time>
      </trkpt>
      <trkpt lat="43.52865" lon="6.30132">
        <ele>338.7</ele>
        <time>2023-09-15T12:47:20Z</time>
      </trkpt>
      <trkpt lat="43.52866" lon="6.30133">
        <ele>338.9</ele>
        <time>2023-09-15T12:47:21Z</time>
      </trkpt>
      <trkpt lat="43.52866" lon="6.30134">
        <ele>339</ele>
        <time>2023-09-15T12:47:22Z</time>
      </trkpt>
      <trkpt lat="43.52867" lon="6.30134">
        <ele>339</ele>
        <time>2023-09-15T12:47:23Z</time>
      </trkpt>
      <trkpt lat="43.52867" lon="6.30134">
        <ele>339.1</ele>
        <time>2023-09-15T12:47:24Z</time>
      </trkpt>
      <trkpt lat="43.52868" lon="6.30136">
        <ele>339.2</ele>
        <time>2023-09-15T12:47:25Z</time>
      </trkpt>
      <trkpt lat="43.52869" lon="6.30136">
        <ele>339.1</ele>
        <time>2023-09-15T12:47:26Z</time>
      </trkpt>
      <trkpt lat="43.52869" lon="6.30137">
        <ele>339.2</ele>
        <time>2023-09-15T12:47:27Z</time>
      </trkpt>
      <trkpt lat="43.5287" lon="6.30137">
        <ele>339.3</ele>
        <time>2023-09-15T12:47:28Z</time>
      </trkpt>
      <trkpt lat="43.52871" lon="6.30138">
        <ele>339.4</ele>
        <time>2023-09-15T12:47:29Z</time>
      </trkpt>
      <trkpt lat="43.52872" lon="6.30138">
        <ele>339.5</ele>
        <time>2023-09-15T12:47:30Z</time>
      </trkpt>
      <trkpt lat="43.52872" lon="6.30138">
        <ele>339.6</ele>
        <time>2023-09-15T12:47:31Z</time>
      </trkpt>
      <trkpt lat="43.52873" lon="6.30139">
        <ele>339.7</ele>
        <time>2023-09-15T12:47:32Z</time>
      </trkpt>
      <trkpt lat="43.52874" lon="6.30139">
        <ele>339.8</ele>
        <time>2023-09-15T12:47:33Z</time>
      </trkpt>
      <trkpt lat="43.52874" lon="6.30139">
        <ele>339.8</ele>
        <time>2023-09-15T12:47:34Z</time>
      </trkpt>
      <trkpt lat="43.52874" lon="6.30139">
        <ele>339.9</ele>
        <time>2023-09-15T12:47:35Z</time>
      </trkpt>
      <trkpt lat="43.52874" lon="6.30139">
        <ele>340</ele>
        <time>2023-09-15T12:47:36Z</time>
      </trkpt>
      <trkpt lat="43.52874" lon="6.30139">
        <ele>340</ele>
        <time>2023-09-15T12:47:37Z</time>
      </trkpt>
      <trkpt lat="43.52874" lon="6.30139">
        <ele>340.1</ele>
        <time>2023-09-15T12:47:38Z</time>
      </trkpt>
      <trkpt lat="43.52874" lon="6.30139">
        <ele>340.1</ele>
        <time>2023-09-15T12:47:39Z</time>
      </trkpt>
      <trkpt lat="43.52874" lon="6.30139">
        <ele>340.1</ele>
        <time>2023-09-15T12:47:40Z</time>
      </trkpt>
      <trkpt lat="43.52874" lon="6.30139">
        <ele>340.1</ele>
        <time>2023-09-15T12:47:41Z</time>
      </trkpt>
      <trkpt lat="43.52874" lon="6.30139">
        <ele>340.1</ele>
        <time>2023-09-15T12:47:42Z</time>
      </trkpt>
      <trkpt lat="43.52874" lon="6.30139">
        <ele>340.1</ele>
        <time>2023-09-15T12:47:43Z</time>
      </trkpt>
      <trkpt lat="43.52875" lon="6.30139">
        <ele>340.1</ele>
        <time>2023-09-15T12:47:44Z</time>
      </trkpt>
      <trkpt lat="43.52876" lon="6.3014">
        <ele>340.1</ele>
        <time>2023-09-15T12:47:45Z</time>
      </trkpt>
      <trkpt lat="43.52876" lon="6.30141">
        <ele>340</ele>
        <time>2023-09-15T12:47:46Z</time>
      </trkpt>
      <trkpt lat="43.52877" lon="6.30141">
        <ele>340.1</ele>
        <time>2023-09-15T12:47:47Z</time>
      </trkpt>
      <trkpt lat="43.52877" lon="6.30141">
        <ele>340.2</ele>
        <time>2023-09-15T12:47:48Z</time>
      </trkpt>
      <trkpt lat="43.52877" lon="6.30141">
        <ele>340.3</ele>
        <time>2023-09-15T12:47:49Z</time>
      </trkpt>
      <trkpt lat="43.52877" lon="6.30141">
        <ele>340.4</ele>
        <time>2023-09-15T12:47:50Z</time>
      </trkpt>
      <trkpt lat="43.52878" lon="6.30141">
        <ele>340.7</ele>
        <time>2023-09-15T12:47:51Z</time>
      </trkpt>
      <trkpt lat="43.52877" lon="6.3014">
        <ele>341</ele>
        <time>2023-09-15T12:47:52Z</time>
      </trkpt>
      <trkpt lat="43.52877" lon="6.3014">
        <ele>341.1</ele>
        <time>2023-09-15T12:47:53Z</time>
      </trkpt>
      <trkpt lat="43.52876" lon="6.30139">
        <ele>341</ele>
        <time>2023-09-15T12:47:54Z</time>
      </trkpt>
      <trkpt lat="43.52876" lon="6.30137">
        <ele>340.9</ele>
        <time>2023-09-15T12:47:55Z</time>
      </trkpt>
      <trkpt lat="43.52875" lon="6.30137">
        <ele>340.8</ele>
        <time>2023-09-15T12:47:56Z</time>
      </trkpt>
      <trkpt lat="43.52874" lon="6.30137">
        <ele>340.7</ele>
        <time>2023-09-15T12:47:57Z</time>
      </trkpt>
      <trkpt lat="43.52874" lon="6.30137">
        <ele>340.6</ele>
        <time>2023-09-15T12:47:58Z</time>
      </trkpt>
      <trkpt lat="43.52874" lon="6.30136">
        <ele>340.5</ele>
        <time>2023-09-15T12:47:59Z</time>
      </trkpt>
      <trkpt lat="43.52873" lon="6.30136">
        <ele>340.5</ele>
        <time>2023-09-15T12:48:00Z</time>
      </trkpt>
      <trkpt lat="43.52873" lon="6.30135">
        <ele>340.5</ele>
        <time>2023-09-15T12:48:01Z</time>
      </trkpt>
      <trkpt lat="43.52872" lon="6.30135">
        <ele>340.5</ele>
        <time>2023-09-15T12:48:02Z</time>
      </trkpt>
      <trkpt lat="43.52872" lon="6.30135">
        <ele>340.5</ele>
        <time>2023-09-15T12:48:03Z</time>
      </trkpt>
      <trkpt lat="43.52871" lon="6.30134">
        <ele>340.5</ele>
        <time>2023-09-15T12:48:04Z</time>
      </trkpt>
      <trkpt lat="43.52871" lon="6.30133">
        <ele>340.5</ele>
        <time>2023-09-15T12:48:05Z</time>
      </trkpt>
      <trkpt lat="43.5287" lon="6.30132">
        <ele>340.3</ele>
        <time>2023-09-15T12:48:06Z</time>
      </trkpt>
      <trkpt lat="43.52869" lon="6.30131">
        <ele>340.1</ele>
        <time>2023-09-15T12:48:07Z</time>
      </trkpt>
      <trkpt lat="43.52868" lon="6.30131">
        <ele>340</ele>
        <time>2023-09-15T12:48:08Z</time>
      </trkpt>
      <trkpt lat="43.52867" lon="6.30131">
        <ele>339.9</ele>
        <time>2023-09-15T12:48:09Z</time>
      </trkpt>
      <trkpt lat="43.52866" lon="6.3013">
        <ele>339.8</ele>
        <time>2023-09-15T12:48:10Z</time>
      </trkpt>
      <trkpt lat="43.52866" lon="6.30129">
        <ele>339.7</ele>
        <time>2023-09-15T12:48:11Z</time>
      </trkpt>
      <trkpt lat="43.52865" lon="6.30129">
        <ele>339.5</ele>
        <time>2023-09-15T12:48:12Z</time>
      </trkpt>
      <trkpt lat="43.52865" lon="6.30128">
        <ele>339.3</ele>
        <time>2023-09-15T12:48:13Z</time>
      </trkpt>
      <trkpt lat="43.52864" lon="6.30127">
        <ele>339.3</ele>
        <time>2023-09-15T12:48:14Z</time>
      </trkpt>
      <trkpt lat="43.52863" lon="6.30126">
        <ele>339.3</ele>
        <time>2023-09-15T12:48:15Z</time>
      </trkpt>
      <trkpt lat="43.52862" lon="6.30125">
        <ele>339.2</ele>
        <time>2023-09-15T12:48:16Z</time>
      </trkpt>
      <trkpt lat="43.52861" lon="6.30125">
        <ele>339.2</ele>
        <time>2023-09-15T12:48:17Z</time>
      </trkpt>
      <trkpt lat="43.5286" lon="6.30124">
        <ele>339.2</ele>
        <time>2023-09-15T12:48:18Z</time>
      </trkpt>
      <trkpt lat="43.5286" lon="6.30123">
        <ele>338.8</ele>
        <time>2023-09-15T12:48:19Z</time>
      </trkpt>
      <trkpt lat="43.52859" lon="6.30123">
        <ele>338.6</ele>
        <time>2023-09-15T12:48:20Z</time>
      </trkpt>
      <trkpt lat="43.52859" lon="6.30122">
        <ele>338.5</ele>
        <time>2023-09-15T12:48:21Z</time>
      </trkpt>
      <trkpt lat="43.52858" lon="6.30121">
        <ele>338.4</ele>
        <time>2023-09-15T12:48:22Z</time>
      </trkpt>
      <trkpt lat="43.52857" lon="6.3012">
        <ele>338.4</ele>
        <time>2023-09-15T12:48:23Z</time>
      </trkpt>
      <trkpt lat="43.52856" lon="6.30119">
        <ele>338.3</ele>
        <time>2023-09-15T12:48:24Z</time>
      </trkpt>
      <trkpt lat="43.52855" lon="6.30118">
        <ele>338.2</ele>
        <time>2023-09-15T12:48:25Z</time>
      </trkpt>
      <trkpt lat="43.52854" lon="6.30117">
        <ele>338.1</ele>
        <time>2023-09-15T12:48:26Z</time>
      </trkpt>
      <trkpt lat="43.52853" lon="6.30116">
        <ele>337.9</ele>
        <time>2023-09-15T12:48:27Z</time>
      </trkpt>
      <trkpt lat="43.52853" lon="6.30115">
        <ele>337.7</ele>
        <time>2023-09-15T12:48:28Z</time>
      </trkpt>
      <trkpt lat="43.52852" lon="6.30114">
        <ele>337.7</ele>
        <time>2023-09-15T12:48:29Z</time>
      </trkpt>
      <trkpt lat="43.52851" lon="6.30112">
        <ele>337.6</ele>
        <time>2023-09-15T12:48:30Z</time>
      </trkpt>
      <trkpt lat="43.52851" lon="6.30112">
        <ele>337.6</ele>
        <time>2023-09-15T12:48:31Z</time>
      </trkpt>
      <trkpt lat="43.5285" lon="6.30112">
        <ele>337.6</ele>
        <time>2023-09-15T12:48:32Z</time>
      </trkpt>
      <trkpt lat="43.52849" lon="6.30111">
        <ele>337.6</ele>
        <time>2023-09-15T12:48:33Z</time>
      </trkpt>
      <trkpt lat="43.52849" lon="6.30111">
        <ele>337.7</ele>
        <time>2023-09-15T12:48:34Z</time>
      </trkpt>
      <trkpt lat="43.52848" lon="6.30111">
        <ele>337.7</ele>
        <time>2023-09-15T12:48:35Z</time>
      </trkpt>
      <trkpt lat="43.52848" lon="6.3011">
        <ele>337.7</ele>
        <time>2023-09-15T12:48:36Z</time>
      </trkpt>
      <trkpt lat="43.52848" lon="6.3011">
        <ele>337.8</ele>
        <time>2023-09-15T12:48:37Z</time>
      </trkpt>
      <trkpt lat="43.52847" lon="6.3011">
        <ele>337.8</ele>
        <time>2023-09-15T12:48:38Z</time>
      </trkpt>
      <trkpt lat="43.52847" lon="6.3011">
        <ele>337.7</ele>
        <time>2023-09-15T12:48:39Z</time>
      </trkpt>
      <trkpt lat="43.52847" lon="6.30109">
        <ele>337.7</ele>
        <time>2023-09-15T12:48:40Z</time>
      </trkpt>
      <trkpt lat="43.52847" lon="6.30109">
        <ele>337.8</ele>
        <time>2023-09-15T12:48:41Z</time>
      </trkpt>
      <trkpt lat="43.52847" lon="6.30109">
        <ele>337.8</ele>
        <time>2023-09-15T12:48:42Z</time>
      </trkpt>
      <trkpt lat="43.52847" lon="6.30109">
        <ele>337.9</ele>
        <time>2023-09-15T12:48:43Z</time>
      </trkpt>
      <trkpt lat="43.52847" lon="6.30109">
        <ele>337.9</ele>
        <time>2023-09-15T12:48:44Z</time>
      </trkpt>
      <trkpt lat="43.52847" lon="6.3011">
        <ele>338</ele>
        <time>2023-09-15T12:48:45Z</time>
      </trkpt>
      <trkpt lat="43.52847" lon="6.3011">
        <ele>338.1</ele>
        <time>2023-09-15T12:48:46Z</time>
      </trkpt>
      <trkpt lat="43.52847" lon="6.3011">
        <ele>338</ele>
        <time>2023-09-15T12:48:47Z</time>
      </trkpt>
      <trkpt lat="43.52846" lon="6.3011">
        <ele>337.9</ele>
        <time>2023-09-15T12:48:48Z</time>
      </trkpt>
      <trkpt lat="43.52846" lon="6.3011">
        <ele>337.9</ele>
        <time>2023-09-15T12:48:49Z</time>
      </trkpt>
      <trkpt lat="43.52846" lon="6.3011">
        <ele>337.8</ele>
        <time>2023-09-15T12:48:50Z</time>
      </trkpt>
      <trkpt lat="43.52846" lon="6.3011">
        <ele>337.8</ele>
        <time>2023-09-15T12:48:51Z</time>
      </trkpt>
      <trkpt lat="43.52846" lon="6.30111">
        <ele>337.8</ele>
        <time>2023-09-15T12:48:52Z</time>
      </trkpt>
      <trkpt lat="43.52846" lon="6.30111">
        <ele>337.9</ele>
        <time>2023-09-15T12:48:53Z</time>
      </trkpt>
      <trkpt lat="43.52846" lon="6.30111">
        <ele>338</ele>
        <time>2023-09-15T12:48:54Z</time>
      </trkpt>
      <trkpt lat="43.52846" lon="6.30111">
        <ele>337.9</ele>
        <time>2023-09-15T12:48:55Z</time>
      </trkpt>
      <trkpt lat="43.52846" lon="6.30111">
        <ele>337.8</ele>
        <time>2023-09-15T12:48:56Z</time>
      </trkpt>
      <trkpt lat="43.52846" lon="6.30111">
        <ele>337.8</ele>
        <time>2023-09-15T12:48:57Z</time>
      </trkpt>
      <trkpt lat="43.52846" lon="6.30111">
        <ele>337.7</ele>
        <time>2023-09-15T12:48:58Z</time>
      </trkpt>
      <trkpt lat="43.52846" lon="6.30111">
        <ele>337.7</ele>
        <time>2023-09-15T12:48:59Z</time>
      </trkpt>
      <trkpt lat="43.52846" lon="6.30112">
        <ele>337.7</ele>
        <time>2023-09-15T12:49:00Z</time>
      </trkpt>
      <trkpt lat="43.52846" lon="6.30111">
        <ele>337.7</ele>
        <time>2023-09-15T12:49:01Z</time>
      </trkpt>
      <trkpt lat="43.52846" lon="6.30112">
        <ele>337.6</ele>
        <time>2023-09-15T12:49:02Z</time>
      </trkpt>
      <trkpt lat="43.52846" lon="6.30111">
        <ele>337.5</ele>
        <time>2023-09-15T12:49:03Z</time>
      </trkpt>
      <trkpt lat="43.52846" lon="6.30112">
        <ele>337.4</ele>
        <time>2023-09-15T12:49:04Z</time>
      </trkpt>
      <trkpt lat="43.52846" lon="6.30112">
        <ele>337.4</ele>
        <time>2023-09-15T12:49:05Z</time>
      </trkpt>
      <trkpt lat="43.52846" lon="6.30112">
        <ele>337.4</ele>
        <time>2023-09-15T12:49:06Z</time>
      </trkpt>
      <trkpt lat="43.52846" lon="6.30112">
        <ele>337.4</ele>
        <time>2023-09-15T12:49:07Z</time>
      </trkpt>
      <trkpt lat="43.52846" lon="6.30112">
        <ele>337.4</ele>
        <time>2023-09-15T12:49:08Z</time>
      </trkpt>
      <trkpt lat="43.52846" lon="6.30112">
        <ele>337.5</ele>
        <time>2023-09-15T12:49:09Z</time>
      </trkpt>
      <trkpt lat="43.52845" lon="6.30112">
        <ele>337.5</ele>
        <time>2023-09-15T12:49:10Z</time>
      </trkpt>
      <trkpt lat="43.52845" lon="6.30112">
        <ele>337.5</ele>
        <time>2023-09-15T12:49:11Z</time>
      </trkpt>
      <trkpt lat="43.52845" lon="6.30111">
        <ele>337.5</ele>
        <time>2023-09-15T12:49:12Z</time>
      </trkpt>
      <trkpt lat="43.52845" lon="6.30111">
        <ele>337.5</ele>
        <time>2023-09-15T12:49:13Z</time>
      </trkpt>
      <trkpt lat="43.52845" lon="6.30111">
        <ele>337.4</ele>
        <time>2023-09-15T12:49:14Z</time>
      </trkpt>
      <trkpt lat="43.52845" lon="6.30111">
        <ele>337.3</ele>
        <time>2023-09-15T12:49:15Z</time>
      </trkpt>
      <trkpt lat="43.52845" lon="6.30111">
        <ele>337.2</ele>
        <time>2023-09-15T12:49:16Z</time>
      </trkpt>
      <trkpt lat="43.52845" lon="6.30111">
        <ele>337.2</ele>
        <time>2023-09-15T12:49:17Z</time>
      </trkpt>
      <trkpt lat="43.52844" lon="6.30111">
        <ele>337.3</ele>
        <time>2023-09-15T12:49:18Z</time>
      </trkpt>
      <trkpt lat="43.52844" lon="6.30111">
        <ele>337.4</ele>
        <time>2023-09-15T12:49:19Z</time>
      </trkpt>
      <trkpt lat="43.52844" lon="6.30111">
        <ele>337.4</ele>
        <time>2023-09-15T12:49:20Z</time>
      </trkpt>
      <trkpt lat="43.52844" lon="6.30112">
        <ele>337.4</ele>
        <time>2023-09-15T12:49:21Z</time>
      </trkpt>
      <trkpt lat="43.52844" lon="6.30112">
        <ele>337.4</ele>
        <time>2023-09-15T12:49:22Z</time>
      </trkpt>
      <trkpt lat="43.52844" lon="6.30112">
        <ele>337.5</ele>
        <time>2023-09-15T12:49:23Z</time>
      </trkpt>
      <trkpt lat="43.52844" lon="6.30112">
        <ele>337.5</ele>
        <time>2023-09-15T12:49:24Z</time>
      </trkpt>
      <trkpt lat="43.52845" lon="6.30111">
        <ele>337.5</ele>
        <time>2023-09-15T12:49:25Z</time>
      </trkpt>
      <trkpt lat="43.52844" lon="6.30111">
        <ele>337.5</ele>
        <time>2023-09-15T12:49:26Z</time>
      </trkpt>
      <trkpt lat="43.52844" lon="6.30111">
        <ele>337.5</ele>
        <time>2023-09-15T12:49:27Z</time>
      </trkpt>
      <trkpt lat="43.52843" lon="6.30111">
        <ele>337.5</ele>
        <time>2023-09-15T12:49:28Z</time>
      </trkpt>
      <trkpt lat="43.52843" lon="6.3011">
        <ele>337.4</ele>
        <time>2023-09-15T12:49:29Z</time>
      </trkpt>
      <trkpt lat="43.52842" lon="6.3011">
        <ele>337.4</ele>
        <time>2023-09-15T12:49:30Z</time>
      </trkpt>
      <trkpt lat="43.52842" lon="6.3011">
        <ele>337.3</ele>
        <time>2023-09-15T12:49:31Z</time>
      </trkpt>
      <trkpt lat="43.52842" lon="6.3011">
        <ele>337.3</ele>
        <time>2023-09-15T12:49:32Z</time>
      </trkpt>
      <trkpt lat="43.52842" lon="6.30109">
        <ele>337.3</ele>
        <time>2023-09-15T12:49:33Z</time>
      </trkpt>
      <trkpt lat="43.52841" lon="6.30109">
        <ele>337.4</ele>
        <time>2023-09-15T12:49:34Z</time>
      </trkpt>
      <trkpt lat="43.52841" lon="6.30108">
        <ele>337.4</ele>
        <time>2023-09-15T12:49:35Z</time>
      </trkpt>
      <trkpt lat="43.52841" lon="6.30108">
        <ele>337.4</ele>
        <time>2023-09-15T12:49:36Z</time>
      </trkpt>
      <trkpt lat="43.5284" lon="6.30108">
        <ele>337.3</ele>
        <time>2023-09-15T12:49:37Z</time>
      </trkpt>
      <trkpt lat="43.5284" lon="6.30107">
        <ele>337.2</ele>
        <time>2023-09-15T12:49:38Z</time>
      </trkpt>
      <trkpt lat="43.52839" lon="6.30107">
        <ele>337.2</ele>
        <time>2023-09-15T12:49:39Z</time>
      </trkpt>
      <trkpt lat="43.52838" lon="6.30106">
        <ele>337.3</ele>
        <time>2023-09-15T12:49:40Z</time>
      </trkpt>
      <trkpt lat="43.52837" lon="6.30106">
        <ele>337.2</ele>
        <time>2023-09-15T12:49:41Z</time>
      </trkpt>
      <trkpt lat="43.52837" lon="6.30106">
        <ele>337.2</ele>
        <time>2023-09-15T12:49:42Z</time>
      </trkpt>
      <trkpt lat="43.52836" lon="6.30105">
        <ele>337.2</ele>
        <time>2023-09-15T12:49:43Z</time>
      </trkpt>
      <trkpt lat="43.52835" lon="6.30105">
        <ele>337.1</ele>
        <time>2023-09-15T12:49:44Z</time>
      </trkpt>
      <trkpt lat="43.52835" lon="6.30105">
        <ele>336.9</ele>
        <time>2023-09-15T12:49:45Z</time>
      </trkpt>
      <trkpt lat="43.52834" lon="6.30105">
        <ele>336.8</ele>
        <time>2023-09-15T12:49:46Z</time>
      </trkpt>
      <trkpt lat="43.52833" lon="6.30105">
        <ele>336.6</ele>
        <time>2023-09-15T12:49:47Z</time>
      </trkpt>
      <trkpt lat="43.52833" lon="6.30104">
        <ele>336.5</ele>
        <time>2023-09-15T12:49:48Z</time>
      </trkpt>
      <trkpt lat="43.52832" lon="6.30104">
        <ele>336.3</ele>
        <time>2023-09-15T12:49:49Z</time>
      </trkpt>
      <trkpt lat="43.52831" lon="6.30105">
        <ele>336.2</ele>
        <time>2023-09-15T12:49:50Z</time>
      </trkpt>
      <trkpt lat="43.52831" lon="6.30105">
        <ele>336.1</ele>
        <time>2023-09-15T12:49:51Z</time>
      </trkpt>
      <trkpt lat="43.5283" lon="6.30105">
        <ele>336</ele>
        <time>2023-09-15T12:49:52Z</time>
      </trkpt>
      <trkpt lat="43.52829" lon="6.30105">
        <ele>335.9</ele>
        <time>2023-09-15T12:49:53Z</time>
      </trkpt>
      <trkpt lat="43.52828" lon="6.30104">
        <ele>335.9</ele>
        <time>2023-09-15T12:49:54Z</time>
      </trkpt>
      <trkpt lat="43.52827" lon="6.30103">
        <ele>335.8</ele>
        <time>2023-09-15T12:49:55Z</time>
      </trkpt>
      <trkpt lat="43.52826" lon="6.30103">
        <ele>335.8</ele>
        <time>2023-09-15T12:49:56Z</time>
      </trkpt>
      <trkpt lat="43.52825" lon="6.30104">
        <ele>335.7</ele>
        <time>2023-09-15T12:49:57Z</time>
      </trkpt>
      <trkpt lat="43.52824" lon="6.30104">
        <ele>335.7</ele>
        <time>2023-09-15T12:49:58Z</time>
      </trkpt>
      <trkpt lat="43.52824" lon="6.30104">
        <ele>335.5</ele>
        <time>2023-09-15T12:49:59Z</time>
      </trkpt>
      <trkpt lat="43.52823" lon="6.30105">
        <ele>335.5</ele>
        <time>2023-09-15T12:50:00Z</time>
      </trkpt>
      <trkpt lat="43.52822" lon="6.30105">
        <ele>335.4</ele>
        <time>2023-09-15T12:50:01Z</time>
      </trkpt>
      <trkpt lat="43.52821" lon="6.30105">
        <ele>335.3</ele>
        <time>2023-09-15T12:50:02Z</time>
      </trkpt>
      <trkpt lat="43.5282" lon="6.30105">
        <ele>335.2</ele>
        <time>2023-09-15T12:50:03Z</time>
      </trkpt>
      <trkpt lat="43.52819" lon="6.30104">
        <ele>335.1</ele>
        <time>2023-09-15T12:50:04Z</time>
      </trkpt>
      <trkpt lat="43.52818" lon="6.30104">
        <ele>335</ele>
        <time>2023-09-15T12:50:05Z</time>
      </trkpt>
      <trkpt lat="43.52818" lon="6.30104">
        <ele>335.1</ele>
        <time>2023-09-15T12:50:06Z</time>
      </trkpt>
      <trkpt lat="43.52817" lon="6.30104">
        <ele>335</ele>
        <time>2023-09-15T12:50:07Z</time>
      </trkpt>
      <trkpt lat="43.52816" lon="6.30104">
        <ele>335</ele>
        <time>2023-09-15T12:50:08Z</time>
      </trkpt>
      <trkpt lat="43.52816" lon="6.30104">
        <ele>335</ele>
        <time>2023-09-15T12:50:09Z</time>
      </trkpt>
      <trkpt lat="43.52815" lon="6.30104">
        <ele>334.9</ele>
        <time>2023-09-15T12:50:10Z</time>
      </trkpt>
      <trkpt lat="43.52814" lon="6.30103">
        <ele>334.9</ele>
        <time>2023-09-15T12:50:11Z</time>
      </trkpt>
      <trkpt lat="43.52813" lon="6.30103">
        <ele>334.7</ele>
        <time>2023-09-15T12:50:12Z</time>
      </trkpt>
      <trkpt lat="43.52812" lon="6.30101">
        <ele>334.6</ele>
        <time>2023-09-15T12:50:13Z</time>
      </trkpt>
      <trkpt lat="43.52811" lon="6.30101">
        <ele>334.5</ele>
        <time>2023-09-15T12:50:14Z</time>
      </trkpt>
      <trkpt lat="43.5281" lon="6.301">
        <ele>334.4</ele>
        <time>2023-09-15T12:50:15Z</time>
      </trkpt>
      <trkpt lat="43.5281" lon="6.301">
        <ele>334.3</ele>
        <time>2023-09-15T12:50:16Z</time>
      </trkpt>
      <trkpt lat="43.52808" lon="6.30099">
        <ele>334.2</ele>
        <time>2023-09-15T12:50:17Z</time>
      </trkpt>
      <trkpt lat="43.52807" lon="6.30099">
        <ele>334.1</ele>
        <time>2023-09-15T12:50:18Z</time>
      </trkpt>
      <trkpt lat="43.52806" lon="6.30099">
        <ele>334</ele>
        <time>2023-09-15T12:50:19Z</time>
      </trkpt>
      <trkpt lat="43.52805" lon="6.30099">
        <ele>333.9</ele>
        <time>2023-09-15T12:50:20Z</time>
      </trkpt>
      <trkpt lat="43.52805" lon="6.30099">
        <ele>333.8</ele>
        <time>2023-09-15T12:50:21Z</time>
      </trkpt>
      <trkpt lat="43.52804" lon="6.30099">
        <ele>333.7</ele>
        <time>2023-09-15T12:50:22Z</time>
      </trkpt>
      <trkpt lat="43.52804" lon="6.30099">
        <ele>333.7</ele>
        <time>2023-09-15T12:50:23Z</time>
      </trkpt>
      <trkpt lat="43.52804" lon="6.30098">
        <ele>333.6</ele>
        <time>2023-09-15T12:50:24Z</time>
      </trkpt>
      <trkpt lat="43.52804" lon="6.30098">
        <ele>333.6</ele>
        <time>2023-09-15T12:50:25Z</time>
      </trkpt>
      <trkpt lat="43.52804" lon="6.30098">
        <ele>333.5</ele>
        <time>2023-09-15T12:50:26Z</time>
      </trkpt>
      <trkpt lat="43.52804" lon="6.30098">
        <ele>333.5</ele>
        <time>2023-09-15T12:50:27Z</time>
      </trkpt>
      <trkpt lat="43.52804" lon="6.30098">
        <ele>333.5</ele>
        <time>2023-09-15T12:50:28Z</time>
      </trkpt>
      <trkpt lat="43.52804" lon="6.30098">
        <ele>333.5</ele>
        <time>2023-09-15T12:50:29Z</time>
      </trkpt>
      <trkpt lat="43.52804" lon="6.30098">
        <ele>333.4</ele>
        <time>2023-09-15T12:50:30Z</time>
      </trkpt>
      <trkpt lat="43.52803" lon="6.30099">
        <ele>333.4</ele>
        <time>2023-09-15T12:50:31Z</time>
      </trkpt>
      <trkpt lat="43.52803" lon="6.30099">
        <ele>333.3</ele>
        <time>2023-09-15T12:50:32Z</time>
      </trkpt>
      <trkpt lat="43.52803" lon="6.30099">
        <ele>333.3</ele>
        <time>2023-09-15T12:50:33Z</time>
      </trkpt>
      <trkpt lat="43.52803" lon="6.30099">
        <ele>333.3</ele>
        <time>2023-09-15T12:50:34Z</time>
      </trkpt>
      <trkpt lat="43.52803" lon="6.30099">
        <ele>333.3</ele>
        <time>2023-09-15T12:50:35Z</time>
      </trkpt>
      <trkpt lat="43.52804" lon="6.301">
        <ele>333.5</ele>
        <time>2023-09-15T12:50:36Z</time>
      </trkpt>
      <trkpt lat="43.52804" lon="6.30099">
        <ele>333.6</ele>
        <time>2023-09-15T12:50:37Z</time>
      </trkpt>
      <trkpt lat="43.52804" lon="6.301">
        <ele>333.5</ele>
        <time>2023-09-15T12:50:38Z</time>
      </trkpt>
      <trkpt lat="43.52804" lon="6.301">
        <ele>333.5</ele>
        <time>2023-09-15T12:50:39Z</time>
      </trkpt>
      <trkpt lat="43.52804" lon="6.301">
        <ele>333.7</ele>
        <time>2023-09-15T12:50:40Z</time>
      </trkpt>
      <trkpt lat="43.52804" lon="6.301">
        <ele>333.8</ele>
        <time>2023-09-15T12:50:41Z</time>
      </trkpt>
      <trkpt lat="43.52804" lon="6.30101">
        <ele>333.9</ele>
        <time>2023-09-15T12:50:42Z</time>
      </trkpt>
      <trkpt lat="43.52805" lon="6.30102">
        <ele>334</ele>
        <time>2023-09-15T12:50:43Z</time>
      </trkpt>
      <trkpt lat="43.52805" lon="6.30102">
        <ele>334</ele>
        <time>2023-09-15T12:50:44Z</time>
      </trkpt>
      <trkpt lat="43.52806" lon="6.30103">
        <ele>334.1</ele>
        <time>2023-09-15T12:50:45Z</time>
      </trkpt>
      <trkpt lat="43.52806" lon="6.30103">
        <ele>334.1</ele>
        <time>2023-09-15T12:50:46Z</time>
      </trkpt>
      <trkpt lat="43.52806" lon="6.30103">
        <ele>334.2</ele>
        <time>2023-09-15T12:50:47Z</time>
      </trkpt>
      <trkpt lat="43.52806" lon="6.30104">
        <ele>334.2</ele>
        <time>2023-09-15T12:50:48Z</time>
      </trkpt>
      <trkpt lat="43.52807" lon="6.30105">
        <ele>334.3</ele>
        <time>2023-09-15T12:50:49Z</time>
      </trkpt>
      <trkpt lat="43.52807" lon="6.30104">
        <ele>334.4</ele>
        <time>2023-09-15T12:50:50Z</time>
      </trkpt>
      <trkpt lat="43.52807" lon="6.30105">
        <ele>334.5</ele>
        <time>2023-09-15T12:50:51Z</time>
      </trkpt>
      <trkpt lat="43.52808" lon="6.30105">
        <ele>334.6</ele>
        <time>2023-09-15T12:50:52Z</time>
      </trkpt>
      <trkpt lat="43.52808" lon="6.30105">
        <ele>334.6</ele>
        <time>2023-09-15T12:50:53Z</time>
      </trkpt>
      <trkpt lat="43.52808" lon="6.30105">
        <ele>334.7</ele>
        <time>2023-09-15T12:50:54Z</time>
      </trkpt>
      <trkpt lat="43.52808" lon="6.30105">
        <ele>334.7</ele>
        <time>2023-09-15T12:50:55Z</time>
      </trkpt>
      <trkpt lat="43.52808" lon="6.30105">
        <ele>334.7</ele>
        <time>2023-09-15T12:50:56Z</time>
      </trkpt>
      <trkpt lat="43.52807" lon="6.30105">
        <ele>334.7</ele>
        <time>2023-09-15T12:50:57Z</time>
      </trkpt>
      <trkpt lat="43.52807" lon="6.30105">
        <ele>334.7</ele>
        <time>2023-09-15T12:50:58Z</time>
      </trkpt>
      <trkpt lat="43.52807" lon="6.30105">
        <ele>334.7</ele>
        <time>2023-09-15T12:50:59Z</time>
      </trkpt>
      <trkpt lat="43.52807" lon="6.30105">
        <ele>334.7</ele>
        <time>2023-09-15T12:51:00Z</time>
      </trkpt>
      <trkpt lat="43.52807" lon="6.30105">
        <ele>334.7</ele>
        <time>2023-09-15T12:51:01Z</time>
      </trkpt>
      <trkpt lat="43.52807" lon="6.30106">
        <ele>334.7</ele>
        <time>2023-09-15T12:51:02Z</time>
      </trkpt>
      <trkpt lat="43.52807" lon="6.30106">
        <ele>334.7</ele>
        <time>2023-09-15T12:51:03Z</time>
      </trkpt>
      <trkpt lat="43.52807" lon="6.30106">
        <ele>334.7</ele>
        <time>2023-09-15T12:51:04Z</time>
      </trkpt>
      <trkpt lat="43.52807" lon="6.30106">
        <ele>334.6</ele>
        <time>2023-09-15T12:51:05Z</time>
      </trkpt>
      <trkpt lat="43.52806" lon="6.30106">
        <ele>334.5</ele>
        <time>2023-09-15T12:51:06Z</time>
      </trkpt>
      <trkpt lat="43.52806" lon="6.30106">
        <ele>334.5</ele>
        <time>2023-09-15T12:51:07Z</time>
      </trkpt>
      <trkpt lat="43.52806" lon="6.30107">
        <ele>334.5</ele>
        <time>2023-09-15T12:51:08Z</time>
      </trkpt>
      <trkpt lat="43.52805" lon="6.30107">
        <ele>334.6</ele>
        <time>2023-09-15T12:51:09Z</time>
      </trkpt>
      <trkpt lat="43.52805" lon="6.30107">
        <ele>334.6</ele>
        <time>2023-09-15T12:51:10Z</time>
      </trkpt>
      <trkpt lat="43.52805" lon="6.30107">
        <ele>334.6</ele>
        <time>2023-09-15T12:51:11Z</time>
      </trkpt>
      <trkpt lat="43.52805" lon="6.30107">
        <ele>334.6</ele>
        <time>2023-09-15T12:51:12Z</time>
      </trkpt>
      <trkpt lat="43.52804" lon="6.30108">
        <ele>334.7</ele>
        <time>2023-09-15T12:51:13Z</time>
      </trkpt>
      <trkpt lat="43.52804" lon="6.30108">
        <ele>334.7</ele>
        <time>2023-09-15T12:51:14Z</time>
      </trkpt>
      <trkpt lat="43.52804" lon="6.30108">
        <ele>334.7</ele>
        <time>2023-09-15T12:51:15Z</time>
      </trkpt>
      <trkpt lat="43.52804" lon="6.30108">
        <ele>334.7</ele>
        <time>2023-09-15T12:51:16Z</time>
      </trkpt>
      <trkpt lat="43.52805" lon="6.30108">
        <ele>334.8</ele>
        <time>2023-09-15T12:51:17Z</time>
      </trkpt>
      <trkpt lat="43.52805" lon="6.30107">
        <ele>334.8</ele>
        <time>2023-09-15T12:51:18Z</time>
      </trkpt>
      <trkpt lat="43.52805" lon="6.30107">
        <ele>334.7</ele>
        <time>2023-09-15T12:51:19Z</time>
      </trkpt>
      <trkpt lat="43.52806" lon="6.30107">
        <ele>334.6</ele>
        <time>2023-09-15T12:51:20Z</time>
      </trkpt>
      <trkpt lat="43.52806" lon="6.30106">
        <ele>334.6</ele>
        <time>2023-09-15T12:51:21Z</time>
      </trkpt>
      <trkpt lat="43.52806" lon="6.30105">
        <ele>334.5</ele>
        <time>2023-09-15T12:51:22Z</time>
      </trkpt>
      <trkpt lat="43.52807" lon="6.30105">
        <ele>334.4</ele>
        <time>2023-09-15T12:51:23Z</time>
      </trkpt>
      <trkpt lat="43.52807" lon="6.30104">
        <ele>334.4</ele>
        <time>2023-09-15T12:51:24Z</time>
      </trkpt>
      <trkpt lat="43.52808" lon="6.30104">
        <ele>334.4</ele>
        <time>2023-09-15T12:51:25Z</time>
      </trkpt>
      <trkpt lat="43.52808" lon="6.30104">
        <ele>334.3</ele>
        <time>2023-09-15T12:51:26Z</time>
      </trkpt>
      <trkpt lat="43.52808" lon="6.30104">
        <ele>334.3</ele>
        <time>2023-09-15T12:51:27Z</time>
      </trkpt>
      <trkpt lat="43.52808" lon="6.30104">
        <ele>334.4</ele>
        <time>2023-09-15T12:51:28Z</time>
      </trkpt>
      <trkpt lat="43.52808" lon="6.30104">
        <ele>334.4</ele>
        <time>2023-09-15T12:51:29Z</time>
      </trkpt>
      <trkpt lat="43.52808" lon="6.30104">
        <ele>334.4</ele>
        <time>2023-09-15T12:51:30Z</time>
      </trkpt>
      <trkpt lat="43.52808" lon="6.30104">
        <ele>334.4</ele>
        <time>2023-09-15T12:51:31Z</time>
      </trkpt>
      <trkpt lat="43.52808" lon="6.30104">
        <ele>334.4</ele>
        <time>2023-09-15T12:51:32Z</time>
      </trkpt>
      <trkpt lat="43.52808" lon="6.30105">
        <ele>334.4</ele>
        <time>2023-09-15T12:51:33Z</time>
      </trkpt>
      <trkpt lat="43.52809" lon="6.30105">
        <ele>334.5</ele>
        <time>2023-09-15T12:51:34Z</time>
      </trkpt>
      <trkpt lat="43.5281" lon="6.30104">
        <ele>334.5</ele>
        <time>2023-09-15T12:51:35Z</time>
      </trkpt>
      <trkpt lat="43.5281" lon="6.30104">
        <ele>334.5</ele>
        <time>2023-09-15T12:51:36Z</time>
      </trkpt>
      <trkpt lat="43.5281" lon="6.30103">
        <ele>334.4</ele>
        <time>2023-09-15T12:51:37Z</time>
      </trkpt>
      <trkpt lat="43.52811" lon="6.30103">
        <ele>334.4</ele>
        <time>2023-09-15T12:51:38Z</time>
      </trkpt>
      <trkpt lat="43.52811" lon="6.30103">
        <ele>334.5</ele>
        <time>2023-09-15T12:51:39Z</time>
      </trkpt>
      <trkpt lat="43.52811" lon="6.30103">
        <ele>334.5</ele>
        <time>2023-09-15T12:51:40Z</time>
      </trkpt>
      <trkpt lat="43.52811" lon="6.30103">
        <ele>334.5</ele>
        <time>2023-09-15T12:51:41Z</time>
      </trkpt>
      <trkpt lat="43.52811" lon="6.30102">
        <ele>334.5</ele>
        <time>2023-09-15T12:51:42Z</time>
      </trkpt>
      <trkpt lat="43.52811" lon="6.30102">
        <ele>334.4</ele>
        <time>2023-09-15T12:51:43Z</time>
      </trkpt>
      <trkpt lat="43.52811" lon="6.30102">
        <ele>334.4</ele>
        <time>2023-09-15T12:51:44Z</time>
      </trkpt>
      <trkpt lat="43.52811" lon="6.30102">
        <ele>334.4</ele>
        <time>2023-09-15T12:51:45Z</time>
      </trkpt>
      <trkpt lat="43.52811" lon="6.30102">
        <ele>334.4</ele>
        <time>2023-09-15T12:51:46Z</time>
      </trkpt>
      <trkpt lat="43.52811" lon="6.30102">
        <ele>334.3</ele>
        <time>2023-09-15T12:51:47Z</time>
      </trkpt>
      <trkpt lat="43.5281" lon="6.30102">
        <ele>334.4</ele>
        <time>2023-09-15T12:51:48Z</time>
      </trkpt>
      <trkpt lat="43.52809" lon="6.30102">
        <ele>334.4</ele>
        <time>2023-09-15T12:51:49Z</time>
      </trkpt>
      <trkpt lat="43.52808" lon="6.30102">
        <ele>334.4</ele>
        <time>2023-09-15T12:51:50Z</time>
      </trkpt>
      <trkpt lat="43.52807" lon="6.30102">
        <ele>334.3</ele>
        <time>2023-09-15T12:51:51Z</time>
      </trkpt>
      <trkpt lat="43.52806" lon="6.30101">
        <ele>334.3</ele>
        <time>2023-09-15T12:51:52Z</time>
      </trkpt>
      <trkpt lat="43.52805" lon="6.30101">
        <ele>334.3</ele>
        <time>2023-09-15T12:51:53Z</time>
      </trkpt>
      <trkpt lat="43.52805" lon="6.30101">
        <ele>334.3</ele>
        <time>2023-09-15T12:51:54Z</time>
      </trkpt>
      <trkpt lat="43.52804" lon="6.30101">
        <ele>334.2</ele>
        <time>2023-09-15T12:51:55Z</time>
      </trkpt>
      <trkpt lat="43.52803" lon="6.301">
        <ele>334.2</ele>
        <time>2023-09-15T12:51:56Z</time>
      </trkpt>
      <trkpt lat="43.52803" lon="6.30099">
        <ele>334.1</ele>
        <time>2023-09-15T12:51:57Z</time>
      </trkpt>
      <trkpt lat="43.52802" lon="6.30098">
        <ele>334.1</ele>
        <time>2023-09-15T12:51:58Z</time>
      </trkpt>
      <trkpt lat="43.52802" lon="6.30097">
        <ele>333.9</ele>
        <time>2023-09-15T12:51:59Z</time>
      </trkpt>
      <trkpt lat="43.52801" lon="6.30097">
        <ele>333.7</ele>
        <time>2023-09-15T12:52:00Z</time>
      </trkpt>
      <trkpt lat="43.528" lon="6.30097">
        <ele>333.7</ele>
        <time>2023-09-15T12:52:01Z</time>
      </trkpt>
      <trkpt lat="43.528" lon="6.30096">
        <ele>333.6</ele>
        <time>2023-09-15T12:52:02Z</time>
      </trkpt>
      <trkpt lat="43.528" lon="6.30096">
        <ele>333.6</ele>
        <time>2023-09-15T12:52:03Z</time>
      </trkpt>
      <trkpt lat="43.528" lon="6.30096">
        <ele>333.6</ele>
        <time>2023-09-15T12:52:04Z</time>
      </trkpt>
      <trkpt lat="43.528" lon="6.30096">
        <ele>333.6</ele>
        <time>2023-09-15T12:52:05Z</time>
      </trkpt>
      <trkpt lat="43.528" lon="6.30095">
        <ele>333.5</ele>
        <time>2023-09-15T12:52:06Z</time>
      </trkpt>
      <trkpt lat="43.528" lon="6.30095">
        <ele>333.5</ele>
        <time>2023-09-15T12:52:07Z</time>
      </trkpt>
      <trkpt lat="43.528" lon="6.30095">
        <ele>333.5</ele>
        <time>2023-09-15T12:52:08Z</time>
      </trkpt>
      <trkpt lat="43.52799" lon="6.30094">
        <ele>333.5</ele>
        <time>2023-09-15T12:52:09Z</time>
      </trkpt>
      <trkpt lat="43.52798" lon="6.30094">
        <ele>333.5</ele>
        <time>2023-09-15T12:52:10Z</time>
      </trkpt>
      <trkpt lat="43.52798" lon="6.30093">
        <ele>333.6</ele>
        <time>2023-09-15T12:52:11Z</time>
      </trkpt>
      <trkpt lat="43.52797" lon="6.30092">
        <ele>333.6</ele>
        <time>2023-09-15T12:52:12Z</time>
      </trkpt>
      <trkpt lat="43.52796" lon="6.30091">
        <ele>333.5</ele>
        <time>2023-09-15T12:52:13Z</time>
      </trkpt>
      <trkpt lat="43.52795" lon="6.3009">
        <ele>333.5</ele>
        <time>2023-09-15T12:52:14Z</time>
      </trkpt>
      <trkpt lat="43.52795" lon="6.3009">
        <ele>333.4</ele>
        <time>2023-09-15T12:52:15Z</time>
      </trkpt>
      <trkpt lat="43.52794" lon="6.30089">
        <ele>333.5</ele>
        <time>2023-09-15T12:52:16Z</time>
      </trkpt>
      <trkpt lat="43.52793" lon="6.30088">
        <ele>333.6</ele>
        <time>2023-09-15T12:52:17Z</time>
      </trkpt>
      <trkpt lat="43.52793" lon="6.30087">
        <ele>333.6</ele>
        <time>2023-09-15T12:52:18Z</time>
      </trkpt>
      <trkpt lat="43.52792" lon="6.30086">
        <ele>333.6</ele>
        <time>2023-09-15T12:52:19Z</time>
      </trkpt>
      <trkpt lat="43.52792" lon="6.30085">
        <ele>333.7</ele>
        <time>2023-09-15T12:52:20Z</time>
      </trkpt>
      <trkpt lat="43.52791" lon="6.30084">
        <ele>333.7</ele>
        <time>2023-09-15T12:52:21Z</time>
      </trkpt>
      <trkpt lat="43.52791" lon="6.30083">
        <ele>333.6</ele>
        <time>2023-09-15T12:52:22Z</time>
      </trkpt>
      <trkpt lat="43.5279" lon="6.30081">
        <ele>333.6</ele>
        <time>2023-09-15T12:52:23Z</time>
      </trkpt>
      <trkpt lat="43.5279" lon="6.3008">
        <ele>333.6</ele>
        <time>2023-09-15T12:52:24Z</time>
      </trkpt>
      <trkpt lat="43.52789" lon="6.30079">
        <ele>333.7</ele>
        <time>2023-09-15T12:52:25Z</time>
      </trkpt>
      <trkpt lat="43.52789" lon="6.30078">
        <ele>333.6</ele>
        <time>2023-09-15T12:52:26Z</time>
      </trkpt>
      <trkpt lat="43.52788" lon="6.30077">
        <ele>333.5</ele>
        <time>2023-09-15T12:52:27Z</time>
      </trkpt>
      <trkpt lat="43.52788" lon="6.30076">
        <ele>333.5</ele>
        <time>2023-09-15T12:52:28Z</time>
      </trkpt>
      <trkpt lat="43.52787" lon="6.30075">
        <ele>333.6</ele>
        <time>2023-09-15T12:52:29Z</time>
      </trkpt>
      <trkpt lat="43.52787" lon="6.30074">
        <ele>333.7</ele>
        <time>2023-09-15T12:52:30Z</time>
      </trkpt>
      <trkpt lat="43.52787" lon="6.30072">
        <ele>333.7</ele>
        <time>2023-09-15T12:52:31Z</time>
      </trkpt>
      <trkpt lat="43.52786" lon="6.30071">
        <ele>333.7</ele>
        <time>2023-09-15T12:52:32Z</time>
      </trkpt>
      <trkpt lat="43.52786" lon="6.3007">
        <ele>333.7</ele>
        <time>2023-09-15T12:52:33Z</time>
      </trkpt>
      <trkpt lat="43.52786" lon="6.30069">
        <ele>333.6</ele>
        <time>2023-09-15T12:52:34Z</time>
      </trkpt>
      <trkpt lat="43.52786" lon="6.30068">
        <ele>333.6</ele>
        <time>2023-09-15T12:52:35Z</time>
      </trkpt>
      <trkpt lat="43.52786" lon="6.30067">
        <ele>333.6</ele>
        <time>2023-09-15T12:52:36Z</time>
      </trkpt>
      <trkpt lat="43.52786" lon="6.30066">
        <ele>333.6</ele>
        <time>2023-09-15T12:52:37Z</time>
      </trkpt>
      <trkpt lat="43.52785" lon="6.30065">
        <ele>333.5</ele>
        <time>2023-09-15T12:52:38Z</time>
      </trkpt>
      <trkpt lat="43.52785" lon="6.30064">
        <ele>333.5</ele>
        <time>2023-09-15T12:52:39Z</time>
      </trkpt>
      <trkpt lat="43.52785" lon="6.30063">
        <ele>333.5</ele>
        <time>2023-09-15T12:52:40Z</time>
      </trkpt>
      <trkpt lat="43.52784" lon="6.30063">
        <ele>333.5</ele>
        <time>2023-09-15T12:52:41Z</time>
      </trkpt>
      <trkpt lat="43.52784" lon="6.30062">
        <ele>333.4</ele>
        <time>2023-09-15T12:52:42Z</time>
      </trkpt>
      <trkpt lat="43.52784" lon="6.30061">
        <ele>333.4</ele>
        <time>2023-09-15T12:52:43Z</time>
      </trkpt>
      <trkpt lat="43.52783" lon="6.30059">
        <ele>333.3</ele>
        <time>2023-09-15T12:52:44Z</time>
      </trkpt>
      <trkpt lat="43.52783" lon="6.30058">
        <ele>333.2</ele>
        <time>2023-09-15T12:52:45Z</time>
      </trkpt>
      <trkpt lat="43.52783" lon="6.30057">
        <ele>333.1</ele>
        <time>2023-09-15T12:52:46Z</time>
      </trkpt>
      <trkpt lat="43.52783" lon="6.30056">
        <ele>333</ele>
        <time>2023-09-15T12:52:47Z</time>
      </trkpt>
      <trkpt lat="43.52782" lon="6.30055">
        <ele>332.9</ele>
        <time>2023-09-15T12:52:48Z</time>
      </trkpt>
      <trkpt lat="43.52782" lon="6.30054">
        <ele>332.8</ele>
        <time>2023-09-15T12:52:49Z</time>
      </trkpt>
      <trkpt lat="43.52782" lon="6.30053">
        <ele>332.8</ele>
        <time>2023-09-15T12:52:50Z</time>
      </trkpt>
      <trkpt lat="43.52782" lon="6.30052">
        <ele>332.7</ele>
        <time>2023-09-15T12:52:51Z</time>
      </trkpt>
      <trkpt lat="43.52781" lon="6.30051">
        <ele>332.6</ele>
        <time>2023-09-15T12:52:52Z</time>
      </trkpt>
      <trkpt lat="43.52781" lon="6.3005">
        <ele>332.5</ele>
        <time>2023-09-15T12:52:53Z</time>
      </trkpt>
      <trkpt lat="43.5278" lon="6.30049">
        <ele>332.4</ele>
        <time>2023-09-15T12:52:54Z</time>
      </trkpt>
      <trkpt lat="43.5278" lon="6.30048">
        <ele>332.4</ele>
        <time>2023-09-15T12:52:55Z</time>
      </trkpt>
      <trkpt lat="43.5278" lon="6.30047">
        <ele>332.3</ele>
        <time>2023-09-15T12:52:56Z</time>
      </trkpt>
      <trkpt lat="43.5278" lon="6.30045">
        <ele>332.3</ele>
        <time>2023-09-15T12:52:57Z</time>
      </trkpt>
      <trkpt lat="43.52779" lon="6.30044">
        <ele>332.3</ele>
        <time>2023-09-15T12:52:58Z</time>
      </trkpt>
      <trkpt lat="43.52778" lon="6.30044">
        <ele>332.3</ele>
        <time>2023-09-15T12:52:59Z</time>
      </trkpt>
      <trkpt lat="43.52778" lon="6.30043">
        <ele>332.2</ele>
        <time>2023-09-15T12:53:00Z</time>
      </trkpt>
      <trkpt lat="43.52778" lon="6.30042">
        <ele>332.2</ele>
        <time>2023-09-15T12:53:01Z</time>
      </trkpt>
      <trkpt lat="43.52777" lon="6.30041">
        <ele>332.2</ele>
        <time>2023-09-15T12:53:02Z</time>
      </trkpt>
      <trkpt lat="43.52776" lon="6.3004">
        <ele>332.2</ele>
        <time>2023-09-15T12:53:03Z</time>
      </trkpt>
      <trkpt lat="43.52776" lon="6.3004">
        <ele>332.1</ele>
        <time>2023-09-15T12:53:04Z</time>
      </trkpt>
      <trkpt lat="43.52775" lon="6.30039">
        <ele>332</ele>
        <time>2023-09-15T12:53:05Z</time>
      </trkpt>
      <trkpt lat="43.52775" lon="6.30037">
        <ele>332</ele>
        <time>2023-09-15T12:53:06Z</time>
      </trkpt>
      <trkpt lat="43.52774" lon="6.30037">
        <ele>332</ele>
        <time>2023-09-15T12:53:07Z</time>
      </trkpt>
      <trkpt lat="43.52774" lon="6.30036">
        <ele>331.9</ele>
        <time>2023-09-15T12:53:08Z</time>
      </trkpt>
      <trkpt lat="43.52773" lon="6.30035">
        <ele>331.8</ele>
        <time>2023-09-15T12:53:09Z</time>
      </trkpt>
      <trkpt lat="43.52772" lon="6.30034">
        <ele>331.8</ele>
        <time>2023-09-15T12:53:10Z</time>
      </trkpt>
      <trkpt lat="43.52771" lon="6.30034">
        <ele>331.8</ele>
        <time>2023-09-15T12:53:11Z</time>
      </trkpt>
      <trkpt lat="43.52771" lon="6.30033">
        <ele>331.7</ele>
        <time>2023-09-15T12:53:12Z</time>
      </trkpt>
      <trkpt lat="43.5277" lon="6.30033">
        <ele>331.7</ele>
        <time>2023-09-15T12:53:13Z</time>
      </trkpt>
      <trkpt lat="43.52769" lon="6.30032">
        <ele>331.7</ele>
        <time>2023-09-15T12:53:14Z</time>
      </trkpt>
      <trkpt lat="43.52769" lon="6.30031">
        <ele>331.6</ele>
        <time>2023-09-15T12:53:15Z</time>
      </trkpt>
      <trkpt lat="43.52768" lon="6.30031">
        <ele>331.5</ele>
        <time>2023-09-15T12:53:16Z</time>
      </trkpt>
      <trkpt lat="43.52767" lon="6.3003">
        <ele>331.4</ele>
        <time>2023-09-15T12:53:17Z</time>
      </trkpt>
      <trkpt lat="43.52767" lon="6.3003">
        <ele>331.4</ele>
        <time>2023-09-15T12:53:18Z</time>
      </trkpt>
      <trkpt lat="43.52766" lon="6.30029">
        <ele>331.4</ele>
        <time>2023-09-15T12:53:19Z</time>
      </trkpt>
      <trkpt lat="43.52765" lon="6.30028">
        <ele>331.2</ele>
        <time>2023-09-15T12:53:20Z</time>
      </trkpt>
      <trkpt lat="43.52764" lon="6.30027">
        <ele>331.1</ele>
        <time>2023-09-15T12:53:21Z</time>
      </trkpt>
      <trkpt lat="43.52763" lon="6.30026">
        <ele>331</ele>
        <time>2023-09-15T12:53:22Z</time>
      </trkpt>
      <trkpt lat="43.52762" lon="6.30025">
        <ele>330.9</ele>
        <time>2023-09-15T12:53:23Z</time>
      </trkpt>
      <trkpt lat="43.5276" lon="6.30024">
        <ele>330.6</ele>
        <time>2023-09-15T12:53:24Z</time>
      </trkpt>
      <trkpt lat="43.52759" lon="6.30024">
        <ele>330.4</ele>
        <time>2023-09-15T12:53:25Z</time>
      </trkpt>
      <trkpt lat="43.52758" lon="6.30024">
        <ele>330.4</ele>
        <time>2023-09-15T12:53:26Z</time>
      </trkpt>
      <trkpt lat="43.52757" lon="6.30024">
        <ele>330.4</ele>
        <time>2023-09-15T12:53:27Z</time>
      </trkpt>
      <trkpt lat="43.52756" lon="6.30023">
        <ele>330.4</ele>
        <time>2023-09-15T12:53:28Z</time>
      </trkpt>
      <trkpt lat="43.52755" lon="6.30023">
        <ele>330.3</ele>
        <time>2023-09-15T12:53:29Z</time>
      </trkpt>
      <trkpt lat="43.52754" lon="6.30022">
        <ele>330.2</ele>
        <time>2023-09-15T12:53:30Z</time>
      </trkpt>
      <trkpt lat="43.52752" lon="6.30021">
        <ele>330.1</ele>
        <time>2023-09-15T12:53:31Z</time>
      </trkpt>
      <trkpt lat="43.52751" lon="6.30021">
        <ele>330.1</ele>
        <time>2023-09-15T12:53:32Z</time>
      </trkpt>
      <trkpt lat="43.5275" lon="6.30021">
        <ele>330</ele>
        <time>2023-09-15T12:53:33Z</time>
      </trkpt>
      <trkpt lat="43.52749" lon="6.3002">
        <ele>329.9</ele>
        <time>2023-09-15T12:53:34Z</time>
      </trkpt>
      <trkpt lat="43.52748" lon="6.3002">
        <ele>330</ele>
        <time>2023-09-15T12:53:35Z</time>
      </trkpt>
      <trkpt lat="43.52747" lon="6.30019">
        <ele>330</ele>
        <time>2023-09-15T12:53:36Z</time>
      </trkpt>
      <trkpt lat="43.52746" lon="6.30019">
        <ele>330</ele>
        <time>2023-09-15T12:53:37Z</time>
      </trkpt>
      <trkpt lat="43.52745" lon="6.30018">
        <ele>329.9</ele>
        <time>2023-09-15T12:53:38Z</time>
      </trkpt>
      <trkpt lat="43.52744" lon="6.30018">
        <ele>329.8</ele>
        <time>2023-09-15T12:53:39Z</time>
      </trkpt>
      <trkpt lat="43.52743" lon="6.30017">
        <ele>329.7</ele>
        <time>2023-09-15T12:53:40Z</time>
      </trkpt>
      <trkpt lat="43.52742" lon="6.30016">
        <ele>329.6</ele>
        <time>2023-09-15T12:53:41Z</time>
      </trkpt>
      <trkpt lat="43.52741" lon="6.30016">
        <ele>329.5</ele>
        <time>2023-09-15T12:53:42Z</time>
      </trkpt>
      <trkpt lat="43.5274" lon="6.30015">
        <ele>329.3</ele>
        <time>2023-09-15T12:53:43Z</time>
      </trkpt>
      <trkpt lat="43.52739" lon="6.30014">
        <ele>329.3</ele>
        <time>2023-09-15T12:53:44Z</time>
      </trkpt>
      <trkpt lat="43.52738" lon="6.30014">
        <ele>329.3</ele>
        <time>2023-09-15T12:53:45Z</time>
      </trkpt>
      <trkpt lat="43.52738" lon="6.30013">
        <ele>329.1</ele>
        <time>2023-09-15T12:53:46Z</time>
      </trkpt>
      <trkpt lat="43.52737" lon="6.30013">
        <ele>329.1</ele>
        <time>2023-09-15T12:53:47Z</time>
      </trkpt>
      <trkpt lat="43.52736" lon="6.30013">
        <ele>329.1</ele>
        <time>2023-09-15T12:53:48Z</time>
      </trkpt>
      <trkpt lat="43.52736" lon="6.30012">
        <ele>329</ele>
        <time>2023-09-15T12:53:49Z</time>
      </trkpt>
      <trkpt lat="43.52735" lon="6.30011">
        <ele>329</ele>
        <time>2023-09-15T12:53:50Z</time>
      </trkpt>
      <trkpt lat="43.52733" lon="6.3001">
        <ele>329</ele>
        <time>2023-09-15T12:53:51Z</time>
      </trkpt>
      <trkpt lat="43.52732" lon="6.3001">
        <ele>329</ele>
        <time>2023-09-15T12:53:52Z</time>
      </trkpt>
      <trkpt lat="43.52731" lon="6.30009">
        <ele>329</ele>
        <time>2023-09-15T12:53:53Z</time>
      </trkpt>
      <trkpt lat="43.5273" lon="6.30008">
        <ele>328.9</ele>
        <time>2023-09-15T12:53:54Z</time>
      </trkpt>
      <trkpt lat="43.52729" lon="6.30008">
        <ele>329</ele>
        <time>2023-09-15T12:53:55Z</time>
      </trkpt>
      <trkpt lat="43.52729" lon="6.30007">
        <ele>328.9</ele>
        <time>2023-09-15T12:53:56Z</time>
      </trkpt>
      <trkpt lat="43.52728" lon="6.30006">
        <ele>329</ele>
        <time>2023-09-15T12:53:57Z</time>
      </trkpt>
      <trkpt lat="43.52726" lon="6.30005">
        <ele>329</ele>
        <time>2023-09-15T12:53:58Z</time>
      </trkpt>
      <trkpt lat="43.52726" lon="6.30004">
        <ele>329.1</ele>
        <time>2023-09-15T12:53:59Z</time>
      </trkpt>
      <trkpt lat="43.52726" lon="6.30004">
        <ele>329.1</ele>
        <time>2023-09-15T12:54:00Z</time>
      </trkpt>
      <trkpt lat="43.52725" lon="6.30004">
        <ele>329.1</ele>
        <time>2023-09-15T12:54:01Z</time>
      </trkpt>
      <trkpt lat="43.52724" lon="6.30003">
        <ele>329.1</ele>
        <time>2023-09-15T12:54:02Z</time>
      </trkpt>
      <trkpt lat="43.52722" lon="6.30003">
        <ele>329.1</ele>
        <time>2023-09-15T12:54:03Z</time>
      </trkpt>
      <trkpt lat="43.52721" lon="6.30003">
        <ele>329.1</ele>
        <time>2023-09-15T12:54:04Z</time>
      </trkpt>
      <trkpt lat="43.5272" lon="6.30003">
        <ele>329.1</ele>
        <time>2023-09-15T12:54:05Z</time>
      </trkpt>
      <trkpt lat="43.5272" lon="6.30002">
        <ele>329</ele>
        <time>2023-09-15T12:54:06Z</time>
      </trkpt>
      <trkpt lat="43.52719" lon="6.30002">
        <ele>328.9</ele>
        <time>2023-09-15T12:54:07Z</time>
      </trkpt>
      <trkpt lat="43.52718" lon="6.30001">
        <ele>328.7</ele>
        <time>2023-09-15T12:54:08Z</time>
      </trkpt>
      <trkpt lat="43.52718" lon="6.3">
        <ele>328.6</ele>
        <time>2023-09-15T12:54:09Z</time>
      </trkpt>
      <trkpt lat="43.52717" lon="6.29998">
        <ele>328.6</ele>
        <time>2023-09-15T12:54:10Z</time>
      </trkpt>
      <trkpt lat="43.52716" lon="6.29998">
        <ele>328.5</ele>
        <time>2023-09-15T12:54:11Z</time>
      </trkpt>
      <trkpt lat="43.52715" lon="6.29997">
        <ele>328.1</ele>
        <time>2023-09-15T12:54:12Z</time>
      </trkpt>
      <trkpt lat="43.52714" lon="6.29996">
        <ele>328.2</ele>
        <time>2023-09-15T12:54:13Z</time>
      </trkpt>
      <trkpt lat="43.52713" lon="6.29995">
        <ele>328.2</ele>
        <time>2023-09-15T12:54:14Z</time>
      </trkpt>
      <trkpt lat="43.52712" lon="6.29995">
        <ele>328.2</ele>
        <time>2023-09-15T12:54:15Z</time>
      </trkpt>
      <trkpt lat="43.52711" lon="6.29994">
        <ele>328</ele>
        <time>2023-09-15T12:54:16Z</time>
      </trkpt>
      <trkpt lat="43.5271" lon="6.29994">
        <ele>327.9</ele>
        <time>2023-09-15T12:54:17Z</time>
      </trkpt>
      <trkpt lat="43.52709" lon="6.29993">
        <ele>327.8</ele>
        <time>2023-09-15T12:54:18Z</time>
      </trkpt>
      <trkpt lat="43.52707" lon="6.29993">
        <ele>327.7</ele>
        <time>2023-09-15T12:54:19Z</time>
      </trkpt>
      <trkpt lat="43.52706" lon="6.29993">
        <ele>327.6</ele>
        <time>2023-09-15T12:54:20Z</time>
      </trkpt>
      <trkpt lat="43.52705" lon="6.29993">
        <ele>327.5</ele>
        <time>2023-09-15T12:54:21Z</time>
      </trkpt>
      <trkpt lat="43.52704" lon="6.29992">
        <ele>327.3</ele>
        <time>2023-09-15T12:54:22Z</time>
      </trkpt>
      <trkpt lat="43.52703" lon="6.29991">
        <ele>327.2</ele>
        <time>2023-09-15T12:54:23Z</time>
      </trkpt>
      <trkpt lat="43.52702" lon="6.29991">
        <ele>327.1</ele>
        <time>2023-09-15T12:54:24Z</time>
      </trkpt>
      <trkpt lat="43.52701" lon="6.2999">
        <ele>326.9</ele>
        <time>2023-09-15T12:54:25Z</time>
      </trkpt>
      <trkpt lat="43.527" lon="6.2999">
        <ele>326.8</ele>
        <time>2023-09-15T12:54:26Z</time>
      </trkpt>
      <trkpt lat="43.527" lon="6.29989">
        <ele>326.6</ele>
        <time>2023-09-15T12:54:27Z</time>
      </trkpt>
      <trkpt lat="43.52699" lon="6.29988">
        <ele>326.5</ele>
        <time>2023-09-15T12:54:28Z</time>
      </trkpt>
      <trkpt lat="43.52697" lon="6.29988">
        <ele>326.5</ele>
        <time>2023-09-15T12:54:29Z</time>
      </trkpt>
      <trkpt lat="43.52696" lon="6.29987">
        <ele>326.4</ele>
        <time>2023-09-15T12:54:30Z</time>
      </trkpt>
      <trkpt lat="43.52696" lon="6.29987">
        <ele>326.3</ele>
        <time>2023-09-15T12:54:31Z</time>
      </trkpt>
      <trkpt lat="43.52694" lon="6.29987">
        <ele>326.2</ele>
        <time>2023-09-15T12:54:32Z</time>
      </trkpt>
      <trkpt lat="43.52693" lon="6.29986">
        <ele>326.1</ele>
        <time>2023-09-15T12:54:33Z</time>
      </trkpt>
      <trkpt lat="43.52693" lon="6.29986">
        <ele>326.1</ele>
        <time>2023-09-15T12:54:34Z</time>
      </trkpt>
      <trkpt lat="43.52691" lon="6.29985">
        <ele>326</ele>
        <time>2023-09-15T12:54:35Z</time>
      </trkpt>
      <trkpt lat="43.5269" lon="6.29985">
        <ele>325.9</ele>
        <time>2023-09-15T12:54:36Z</time>
      </trkpt>
      <trkpt lat="43.5269" lon="6.29985">
        <ele>325.8</ele>
        <time>2023-09-15T12:54:37Z</time>
      </trkpt>
      <trkpt lat="43.52688" lon="6.29985">
        <ele>325.7</ele>
        <time>2023-09-15T12:54:38Z</time>
      </trkpt>
      <trkpt lat="43.52688" lon="6.29985">
        <ele>325.7</ele>
        <time>2023-09-15T12:54:39Z</time>
      </trkpt>
      <trkpt lat="43.52687" lon="6.29984">
        <ele>325.6</ele>
        <time>2023-09-15T12:54:40Z</time>
      </trkpt>
      <trkpt lat="43.52686" lon="6.29983">
        <ele>325.6</ele>
        <time>2023-09-15T12:54:41Z</time>
      </trkpt>
      <trkpt lat="43.52685" lon="6.29983">
        <ele>325.4</ele>
        <time>2023-09-15T12:54:42Z</time>
      </trkpt>
      <trkpt lat="43.52684" lon="6.29983">
        <ele>325.4</ele>
        <time>2023-09-15T12:54:43Z</time>
      </trkpt>
      <trkpt lat="43.52682" lon="6.29982">
        <ele>325.3</ele>
        <time>2023-09-15T12:54:44Z</time>
      </trkpt>
      <trkpt lat="43.52681" lon="6.29981">
        <ele>325.2</ele>
        <time>2023-09-15T12:54:45Z</time>
      </trkpt>
      <trkpt lat="43.52681" lon="6.29981">
        <ele>325.1</ele>
        <time>2023-09-15T12:54:46Z</time>
      </trkpt>
      <trkpt lat="43.5268" lon="6.2998">
        <ele>324.9</ele>
        <time>2023-09-15T12:54:47Z</time>
      </trkpt>
      <trkpt lat="43.52679" lon="6.2998">
        <ele>324.9</ele>
        <time>2023-09-15T12:54:48Z</time>
      </trkpt>
      <trkpt lat="43.52678" lon="6.2998">
        <ele>324.8</ele>
        <time>2023-09-15T12:54:49Z</time>
      </trkpt>
      <trkpt lat="43.52677" lon="6.29979">
        <ele>324.8</ele>
        <time>2023-09-15T12:54:50Z</time>
      </trkpt>
      <trkpt lat="43.52676" lon="6.29978">
        <ele>324.7</ele>
        <time>2023-09-15T12:54:51Z</time>
      </trkpt>
      <trkpt lat="43.52675" lon="6.29978">
        <ele>324.6</ele>
        <time>2023-09-15T12:54:52Z</time>
      </trkpt>
      <trkpt lat="43.52673" lon="6.29977">
        <ele>324.5</ele>
        <time>2023-09-15T12:54:53Z</time>
      </trkpt>
      <trkpt lat="43.52672" lon="6.29977">
        <ele>324.5</ele>
        <time>2023-09-15T12:54:54Z</time>
      </trkpt>
      <trkpt lat="43.52671" lon="6.29977">
        <ele>324.5</ele>
        <time>2023-09-15T12:54:55Z</time>
      </trkpt>
      <trkpt lat="43.5267" lon="6.29976">
        <ele>324.5</ele>
        <time>2023-09-15T12:54:56Z</time>
      </trkpt>
      <trkpt lat="43.52669" lon="6.29976">
        <ele>324.4</ele>
        <time>2023-09-15T12:54:57Z</time>
      </trkpt>
      <trkpt lat="43.52668" lon="6.29976">
        <ele>324.4</ele>
        <time>2023-09-15T12:54:58Z</time>
      </trkpt>
      <trkpt lat="43.52667" lon="6.29976">
        <ele>324.3</ele>
        <time>2023-09-15T12:54:59Z</time>
      </trkpt>
      <trkpt lat="43.52666" lon="6.29976">
        <ele>324.3</ele>
        <time>2023-09-15T12:55:00Z</time>
      </trkpt>
      <trkpt lat="43.52665" lon="6.29976">
        <ele>324.3</ele>
        <time>2023-09-15T12:55:01Z</time>
      </trkpt>
      <trkpt lat="43.52664" lon="6.29975">
        <ele>324.2</ele>
        <time>2023-09-15T12:55:02Z</time>
      </trkpt>
      <trkpt lat="43.52663" lon="6.29975">
        <ele>324.1</ele>
        <time>2023-09-15T12:55:03Z</time>
      </trkpt>
      <trkpt lat="43.52663" lon="6.29975">
        <ele>324</ele>
        <time>2023-09-15T12:55:04Z</time>
      </trkpt>
      <trkpt lat="43.52662" lon="6.29975">
        <ele>323.9</ele>
        <time>2023-09-15T12:55:05Z</time>
      </trkpt>
      <trkpt lat="43.52661" lon="6.29975">
        <ele>323.8</ele>
        <time>2023-09-15T12:55:06Z</time>
      </trkpt>
      <trkpt lat="43.5266" lon="6.29975">
        <ele>323.7</ele>
        <time>2023-09-15T12:55:07Z</time>
      </trkpt>
      <trkpt lat="43.5266" lon="6.29974">
        <ele>323.6</ele>
        <time>2023-09-15T12:55:08Z</time>
      </trkpt>
      <trkpt lat="43.52659" lon="6.29974">
        <ele>323.5</ele>
        <time>2023-09-15T12:55:09Z</time>
      </trkpt>
      <trkpt lat="43.52658" lon="6.29974">
        <ele>323.4</ele>
        <time>2023-09-15T12:55:10Z</time>
      </trkpt>
      <trkpt lat="43.52658" lon="6.29975">
        <ele>323.2</ele>
        <time>2023-09-15T12:55:11Z</time>
      </trkpt>
      <trkpt lat="43.52657" lon="6.29975">
        <ele>323.1</ele>
        <time>2023-09-15T12:55:12Z</time>
      </trkpt>
      <trkpt lat="43.52656" lon="6.29975">
        <ele>323</ele>
        <time>2023-09-15T12:55:13Z</time>
      </trkpt>
      <trkpt lat="43.52654" lon="6.29974">
        <ele>322.9</ele>
        <time>2023-09-15T12:55:14Z</time>
      </trkpt>
      <trkpt lat="43.52653" lon="6.29974">
        <ele>322.9</ele>
        <time>2023-09-15T12:55:15Z</time>
      </trkpt>
      <trkpt lat="43.52653" lon="6.29974">
        <ele>322.8</ele>
        <time>2023-09-15T12:55:16Z</time>
      </trkpt>
      <trkpt lat="43.52652" lon="6.29974">
        <ele>322.7</ele>
        <time>2023-09-15T12:55:17Z</time>
      </trkpt>
      <trkpt lat="43.52651" lon="6.29973">
        <ele>322.6</ele>
        <time>2023-09-15T12:55:18Z</time>
      </trkpt>
      <trkpt lat="43.5265" lon="6.29973">
        <ele>322.5</ele>
        <time>2023-09-15T12:55:19Z</time>
      </trkpt>
      <trkpt lat="43.52649" lon="6.29973">
        <ele>322.4</ele>
        <time>2023-09-15T12:55:20Z</time>
      </trkpt>
      <trkpt lat="43.52648" lon="6.29972">
        <ele>322.3</ele>
        <time>2023-09-15T12:55:21Z</time>
      </trkpt>
      <trkpt lat="43.52648" lon="6.29973">
        <ele>322.1</ele>
        <time>2023-09-15T12:55:22Z</time>
      </trkpt>
      <trkpt lat="43.52647" lon="6.29973">
        <ele>321.9</ele>
        <time>2023-09-15T12:55:23Z</time>
      </trkpt>
      <trkpt lat="43.52647" lon="6.29973">
        <ele>321.8</ele>
        <time>2023-09-15T12:55:24Z</time>
      </trkpt>
      <trkpt lat="43.52646" lon="6.29974">
        <ele>321.7</ele>
        <time>2023-09-15T12:55:25Z</time>
      </trkpt>
      <trkpt lat="43.52645" lon="6.29974">
        <ele>321.6</ele>
        <time>2023-09-15T12:55:26Z</time>
      </trkpt>
      <trkpt lat="43.52645" lon="6.29974">
        <ele>321.5</ele>
        <time>2023-09-15T12:55:27Z</time>
      </trkpt>
      <trkpt lat="43.52644" lon="6.29974">
        <ele>321.5</ele>
        <time>2023-09-15T12:55:28Z</time>
      </trkpt>
      <trkpt lat="43.52643" lon="6.29973">
        <ele>321.4</ele>
        <time>2023-09-15T12:55:29Z</time>
      </trkpt>
      <trkpt lat="43.52642" lon="6.29973">
        <ele>321.4</ele>
        <time>2023-09-15T12:55:30Z</time>
      </trkpt>
      <trkpt lat="43.52642" lon="6.29973">
        <ele>321.3</ele>
        <time>2023-09-15T12:55:31Z</time>
      </trkpt>
      <trkpt lat="43.5264" lon="6.29972">
        <ele>321.3</ele>
        <time>2023-09-15T12:55:32Z</time>
      </trkpt>
      <trkpt lat="43.52639" lon="6.29972">
        <ele>321.3</ele>
        <time>2023-09-15T12:55:33Z</time>
      </trkpt>
      <trkpt lat="43.52639" lon="6.29972">
        <ele>321.3</ele>
        <time>2023-09-15T12:55:34Z</time>
      </trkpt>
      <trkpt lat="43.52638" lon="6.29973">
        <ele>321.1</ele>
        <time>2023-09-15T12:55:35Z</time>
      </trkpt>
      <trkpt lat="43.52637" lon="6.29973">
        <ele>320.9</ele>
        <time>2023-09-15T12:55:36Z</time>
      </trkpt>
      <trkpt lat="43.52636" lon="6.29973">
        <ele>320.9</ele>
        <time>2023-09-15T12:55:37Z</time>
      </trkpt>
      <trkpt lat="43.52635" lon="6.29973">
        <ele>320.7</ele>
        <time>2023-09-15T12:55:38Z</time>
      </trkpt>
      <trkpt lat="43.52634" lon="6.29973">
        <ele>320.6</ele>
        <time>2023-09-15T12:55:39Z</time>
      </trkpt>
      <trkpt lat="43.52633" lon="6.29973">
        <ele>320.5</ele>
        <time>2023-09-15T12:55:40Z</time>
      </trkpt>
      <trkpt lat="43.52632" lon="6.29973">
        <ele>320.5</ele>
        <time>2023-09-15T12:55:41Z</time>
      </trkpt>
      <trkpt lat="43.52631" lon="6.29973">
        <ele>320.4</ele>
        <time>2023-09-15T12:55:42Z</time>
      </trkpt>
      <trkpt lat="43.5263" lon="6.29972">
        <ele>320.2</ele>
        <time>2023-09-15T12:55:43Z</time>
      </trkpt>
      <trkpt lat="43.52629" lon="6.29972">
        <ele>320</ele>
        <time>2023-09-15T12:55:44Z</time>
      </trkpt>
      <trkpt lat="43.52628" lon="6.29972">
        <ele>319.9</ele>
        <time>2023-09-15T12:55:45Z</time>
      </trkpt>
      <trkpt lat="43.52627" lon="6.29972">
        <ele>319.8</ele>
        <time>2023-09-15T12:55:46Z</time>
      </trkpt>
      <trkpt lat="43.52626" lon="6.29971">
        <ele>319.7</ele>
        <time>2023-09-15T12:55:47Z</time>
      </trkpt>
      <trkpt lat="43.52625" lon="6.29971">
        <ele>319.7</ele>
        <time>2023-09-15T12:55:48Z</time>
      </trkpt>
      <trkpt lat="43.52624" lon="6.29971">
        <ele>319.7</ele>
        <time>2023-09-15T12:55:49Z</time>
      </trkpt>
      <trkpt lat="43.52624" lon="6.2997">
        <ele>319.7</ele>
        <time>2023-09-15T12:55:50Z</time>
      </trkpt>
      <trkpt lat="43.52623" lon="6.2997">
        <ele>319.6</ele>
        <time>2023-09-15T12:55:51Z</time>
      </trkpt>
      <trkpt lat="43.52622" lon="6.2997">
        <ele>319.5</ele>
        <time>2023-09-15T12:55:52Z</time>
      </trkpt>
      <trkpt lat="43.52621" lon="6.29971">
        <ele>319.5</ele>
        <time>2023-09-15T12:55:53Z</time>
      </trkpt>
      <trkpt lat="43.5262" lon="6.29971">
        <ele>319.4</ele>
        <time>2023-09-15T12:55:54Z</time>
      </trkpt>
      <trkpt lat="43.52619" lon="6.29971">
        <ele>319.4</ele>
        <time>2023-09-15T12:55:55Z</time>
      </trkpt>
      <trkpt lat="43.52618" lon="6.29971">
        <ele>319.4</ele>
        <time>2023-09-15T12:55:56Z</time>
      </trkpt>
      <trkpt lat="43.52617" lon="6.29971">
        <ele>319.4</ele>
        <time>2023-09-15T12:55:57Z</time>
      </trkpt>
      <trkpt lat="43.52617" lon="6.29971">
        <ele>319.3</ele>
        <time>2023-09-15T12:55:58Z</time>
      </trkpt>
      <trkpt lat="43.52616" lon="6.29971">
        <ele>319.3</ele>
        <time>2023-09-15T12:55:59Z</time>
      </trkpt>
      <trkpt lat="43.52615" lon="6.29972">
        <ele>319.2</ele>
        <time>2023-09-15T12:56:00Z</time>
      </trkpt>
      <trkpt lat="43.52614" lon="6.29971">
        <ele>319.1</ele>
        <time>2023-09-15T12:56:01Z</time>
      </trkpt>
      <trkpt lat="43.52613" lon="6.29971">
        <ele>319.1</ele>
        <time>2023-09-15T12:56:02Z</time>
      </trkpt>
      <trkpt lat="43.52612" lon="6.29971">
        <ele>319</ele>
        <time>2023-09-15T12:56:03Z</time>
      </trkpt>
      <trkpt lat="43.52611" lon="6.29971">
        <ele>318.8</ele>
        <time>2023-09-15T12:56:04Z</time>
      </trkpt>
      <trkpt lat="43.52611" lon="6.29972">
        <ele>318.7</ele>
        <time>2023-09-15T12:56:05Z</time>
      </trkpt>
      <trkpt lat="43.5261" lon="6.29972">
        <ele>318.6</ele>
        <time>2023-09-15T12:56:06Z</time>
      </trkpt>
      <trkpt lat="43.52609" lon="6.29972">
        <ele>318.4</ele>
        <time>2023-09-15T12:56:07Z</time>
      </trkpt>
      <trkpt lat="43.52608" lon="6.29972">
        <ele>318.3</ele>
        <time>2023-09-15T12:56:08Z</time>
      </trkpt>
      <trkpt lat="43.52608" lon="6.29972">
        <ele>318.2</ele>
        <time>2023-09-15T12:56:09Z</time>
      </trkpt>
      <trkpt lat="43.52607" lon="6.29972">
        <ele>318.1</ele>
        <time>2023-09-15T12:56:10Z</time>
      </trkpt>
      <trkpt lat="43.52606" lon="6.29972">
        <ele>318</ele>
        <time>2023-09-15T12:56:11Z</time>
      </trkpt>
      <trkpt lat="43.52605" lon="6.29971">
        <ele>317.9</ele>
        <time>2023-09-15T12:56:12Z</time>
      </trkpt>
      <trkpt lat="43.52604" lon="6.2997">
        <ele>318</ele>
        <time>2023-09-15T12:56:13Z</time>
      </trkpt>
      <trkpt lat="43.52603" lon="6.2997">
        <ele>317.9</ele>
        <time>2023-09-15T12:56:14Z</time>
      </trkpt>
      <trkpt lat="43.52602" lon="6.2997">
        <ele>317.8</ele>
        <time>2023-09-15T12:56:15Z</time>
      </trkpt>
      <trkpt lat="43.52601" lon="6.2997">
        <ele>317.7</ele>
        <time>2023-09-15T12:56:16Z</time>
      </trkpt>
      <trkpt lat="43.526" lon="6.2997">
        <ele>317.7</ele>
        <time>2023-09-15T12:56:17Z</time>
      </trkpt>
      <trkpt lat="43.526" lon="6.29969">
        <ele>317.5</ele>
        <time>2023-09-15T12:56:18Z</time>
      </trkpt>
      <trkpt lat="43.52599" lon="6.29969">
        <ele>317.4</ele>
        <time>2023-09-15T12:56:19Z</time>
      </trkpt>
      <trkpt lat="43.52598" lon="6.29969">
        <ele>317.2</ele>
        <time>2023-09-15T12:56:20Z</time>
      </trkpt>
      <trkpt lat="43.52597" lon="6.29969">
        <ele>317.1</ele>
        <time>2023-09-15T12:56:21Z</time>
      </trkpt>
      <trkpt lat="43.52596" lon="6.29969">
        <ele>317.1</ele>
        <time>2023-09-15T12:56:22Z</time>
      </trkpt>
      <trkpt lat="43.52595" lon="6.29969">
        <ele>317</ele>
        <time>2023-09-15T12:56:23Z</time>
      </trkpt>
      <trkpt lat="43.52594" lon="6.29968">
        <ele>316.9</ele>
        <time>2023-09-15T12:56:24Z</time>
      </trkpt>
      <trkpt lat="43.52593" lon="6.29968">
        <ele>316.8</ele>
        <time>2023-09-15T12:56:25Z</time>
      </trkpt>
      <trkpt lat="43.52593" lon="6.29967">
        <ele>316.7</ele>
        <time>2023-09-15T12:56:26Z</time>
      </trkpt>
      <trkpt lat="43.52592" lon="6.29967">
        <ele>316.6</ele>
        <time>2023-09-15T12:56:27Z</time>
      </trkpt>
      <trkpt lat="43.52591" lon="6.29966">
        <ele>316.5</ele>
        <time>2023-09-15T12:56:28Z</time>
      </trkpt>
      <trkpt lat="43.5259" lon="6.29966">
        <ele>316.4</ele>
        <time>2023-09-15T12:56:29Z</time>
      </trkpt>
      <trkpt lat="43.52589" lon="6.29966">
        <ele>316.3</ele>
        <time>2023-09-15T12:56:30Z</time>
      </trkpt>
      <trkpt lat="43.52588" lon="6.29966">
        <ele>316.2</ele>
        <time>2023-09-15T12:56:31Z</time>
      </trkpt>
      <trkpt lat="43.52588" lon="6.29965">
        <ele>316.1</ele>
        <time>2023-09-15T12:56:32Z</time>
      </trkpt>
      <trkpt lat="43.52587" lon="6.29965">
        <ele>316</ele>
        <time>2023-09-15T12:56:33Z</time>
      </trkpt>
      <trkpt lat="43.52586" lon="6.29965">
        <ele>315.9</ele>
        <time>2023-09-15T12:56:34Z</time>
      </trkpt>
      <trkpt lat="43.52585" lon="6.29965">
        <ele>315.7</ele>
        <time>2023-09-15T12:56:35Z</time>
      </trkpt>
      <trkpt lat="43.52584" lon="6.29965">
        <ele>315.6</ele>
        <time>2023-09-15T12:56:36Z</time>
      </trkpt>
      <trkpt lat="43.52583" lon="6.29965">
        <ele>315.5</ele>
        <time>2023-09-15T12:56:37Z</time>
      </trkpt>
      <trkpt lat="43.52582" lon="6.29965">
        <ele>315.4</ele>
        <time>2023-09-15T12:56:38Z</time>
      </trkpt>
      <trkpt lat="43.52581" lon="6.29964">
        <ele>315.3</ele>
        <time>2023-09-15T12:56:39Z</time>
      </trkpt>
      <trkpt lat="43.5258" lon="6.29964">
        <ele>315</ele>
        <time>2023-09-15T12:56:40Z</time>
      </trkpt>
      <trkpt lat="43.52579" lon="6.29964">
        <ele>314.9</ele>
        <time>2023-09-15T12:56:41Z</time>
      </trkpt>
      <trkpt lat="43.52577" lon="6.29964">
        <ele>314.9</ele>
        <time>2023-09-15T12:56:42Z</time>
      </trkpt>
      <trkpt lat="43.52576" lon="6.29964">
        <ele>314.8</ele>
        <time>2023-09-15T12:56:43Z</time>
      </trkpt>
      <trkpt lat="43.52575" lon="6.29965">
        <ele>314.8</ele>
        <time>2023-09-15T12:56:44Z</time>
      </trkpt>
      <trkpt lat="43.52574" lon="6.29965">
        <ele>314.7</ele>
        <time>2023-09-15T12:56:45Z</time>
      </trkpt>
      <trkpt lat="43.52573" lon="6.29964">
        <ele>314.7</ele>
        <time>2023-09-15T12:56:46Z</time>
      </trkpt>
      <trkpt lat="43.52572" lon="6.29965">
        <ele>314.6</ele>
        <time>2023-09-15T12:56:47Z</time>
      </trkpt>
      <trkpt lat="43.52571" lon="6.29964">
        <ele>314.6</ele>
        <time>2023-09-15T12:56:48Z</time>
      </trkpt>
      <trkpt lat="43.5257" lon="6.29965">
        <ele>314.6</ele>
        <time>2023-09-15T12:56:49Z</time>
      </trkpt>
      <trkpt lat="43.52569" lon="6.29964">
        <ele>314.8</ele>
        <time>2023-09-15T12:56:50Z</time>
      </trkpt>
      <trkpt lat="43.52568" lon="6.29964">
        <ele>314.9</ele>
        <time>2023-09-15T12:56:51Z</time>
      </trkpt>
      <trkpt lat="43.52567" lon="6.29964">
        <ele>315</ele>
        <time>2023-09-15T12:56:52Z</time>
      </trkpt>
      <trkpt lat="43.52566" lon="6.29964">
        <ele>315</ele>
        <time>2023-09-15T12:56:53Z</time>
      </trkpt>
      <trkpt lat="43.52565" lon="6.29965">
        <ele>315.1</ele>
        <time>2023-09-15T12:56:54Z</time>
      </trkpt>
      <trkpt lat="43.52564" lon="6.29965">
        <ele>315.2</ele>
        <time>2023-09-15T12:56:55Z</time>
      </trkpt>
      <trkpt lat="43.52564" lon="6.29966">
        <ele>315.3</ele>
        <time>2023-09-15T12:56:56Z</time>
      </trkpt>
      <trkpt lat="43.52563" lon="6.29966">
        <ele>315.4</ele>
        <time>2023-09-15T12:56:57Z</time>
      </trkpt>
      <trkpt lat="43.52562" lon="6.29967">
        <ele>315.4</ele>
        <time>2023-09-15T12:56:58Z</time>
      </trkpt>
      <trkpt lat="43.5256" lon="6.29967">
        <ele>315.4</ele>
        <time>2023-09-15T12:56:59Z</time>
      </trkpt>
      <trkpt lat="43.52559" lon="6.29968">
        <ele>315.4</ele>
        <time>2023-09-15T12:57:00Z</time>
      </trkpt>
      <trkpt lat="43.52558" lon="6.29969">
        <ele>315.4</ele>
        <time>2023-09-15T12:57:01Z</time>
      </trkpt>
      <trkpt lat="43.52558" lon="6.2997">
        <ele>315.3</ele>
        <time>2023-09-15T12:57:02Z</time>
      </trkpt>
      <trkpt lat="43.52557" lon="6.29971">
        <ele>315.3</ele>
        <time>2023-09-15T12:57:03Z</time>
      </trkpt>
      <trkpt lat="43.52556" lon="6.29971">
        <ele>315.2</ele>
        <time>2023-09-15T12:57:04Z</time>
      </trkpt>
      <trkpt lat="43.52554" lon="6.29971">
        <ele>315.2</ele>
        <time>2023-09-15T12:57:05Z</time>
      </trkpt>
      <trkpt lat="43.52553" lon="6.29971">
        <ele>315.2</ele>
        <time>2023-09-15T12:57:06Z</time>
      </trkpt>
      <trkpt lat="43.52552" lon="6.29972">
        <ele>315.2</ele>
        <time>2023-09-15T12:57:07Z</time>
      </trkpt>
      <trkpt lat="43.52551" lon="6.29972">
        <ele>315.2</ele>
        <time>2023-09-15T12:57:08Z</time>
      </trkpt>
      <trkpt lat="43.5255" lon="6.29972">
        <ele>315.2</ele>
        <time>2023-09-15T12:57:09Z</time>
      </trkpt>
      <trkpt lat="43.52549" lon="6.29973">
        <ele>315.2</ele>
        <time>2023-09-15T12:57:10Z</time>
      </trkpt>
      <trkpt lat="43.52549" lon="6.29973">
        <ele>315.2</ele>
        <time>2023-09-15T12:57:11Z</time>
      </trkpt>
      <trkpt lat="43.52548" lon="6.29974">
        <ele>315.1</ele>
        <time>2023-09-15T12:57:12Z</time>
      </trkpt>
      <trkpt lat="43.52547" lon="6.29975">
        <ele>315</ele>
        <time>2023-09-15T12:57:13Z</time>
      </trkpt>
      <trkpt lat="43.52546" lon="6.29975">
        <ele>314.9</ele>
        <time>2023-09-15T12:57:14Z</time>
      </trkpt>
      <trkpt lat="43.52545" lon="6.29976">
        <ele>314.9</ele>
        <time>2023-09-15T12:57:15Z</time>
      </trkpt>
      <trkpt lat="43.52544" lon="6.29976">
        <ele>314.9</ele>
        <time>2023-09-15T12:57:16Z</time>
      </trkpt>
      <trkpt lat="43.52543" lon="6.29977">
        <ele>314.8</ele>
        <time>2023-09-15T12:57:17Z</time>
      </trkpt>
      <trkpt lat="43.52543" lon="6.29977">
        <ele>314.8</ele>
        <time>2023-09-15T12:57:18Z</time>
      </trkpt>
      <trkpt lat="43.52543" lon="6.29979">
        <ele>314.7</ele>
        <time>2023-09-15T12:57:19Z</time>
      </trkpt>
      <trkpt lat="43.52542" lon="6.2998">
        <ele>314.7</ele>
        <time>2023-09-15T12:57:20Z</time>
      </trkpt>
      <trkpt lat="43.52541" lon="6.2998">
        <ele>314.7</ele>
        <time>2023-09-15T12:57:21Z</time>
      </trkpt>
      <trkpt lat="43.5254" lon="6.29981">
        <ele>314.6</ele>
        <time>2023-09-15T12:57:22Z</time>
      </trkpt>
      <trkpt lat="43.52539" lon="6.29982">
        <ele>314.7</ele>
        <time>2023-09-15T12:57:23Z</time>
      </trkpt>
      <trkpt lat="43.52538" lon="6.29983">
        <ele>314.8</ele>
        <time>2023-09-15T12:57:24Z</time>
      </trkpt>
      <trkpt lat="43.52537" lon="6.29984">
        <ele>314.9</ele>
        <time>2023-09-15T12:57:25Z</time>
      </trkpt>
      <trkpt lat="43.52536" lon="6.29985">
        <ele>314.9</ele>
        <time>2023-09-15T12:57:26Z</time>
      </trkpt>
      <trkpt lat="43.52535" lon="6.29986">
        <ele>314.9</ele>
        <time>2023-09-15T12:57:27Z</time>
      </trkpt>
      <trkpt lat="43.52534" lon="6.29988">
        <ele>314.8</ele>
        <time>2023-09-15T12:57:28Z</time>
      </trkpt>
      <trkpt lat="43.52534" lon="6.29989">
        <ele>314.8</ele>
        <time>2023-09-15T12:57:29Z</time>
      </trkpt>
      <trkpt lat="43.52533" lon="6.2999">
        <ele>314.8</ele>
        <time>2023-09-15T12:57:30Z</time>
      </trkpt>
      <trkpt lat="43.52532" lon="6.29992">
        <ele>314.8</ele>
        <time>2023-09-15T12:57:31Z</time>
      </trkpt>
      <trkpt lat="43.52532" lon="6.29992">
        <ele>314.8</ele>
        <time>2023-09-15T12:57:32Z</time>
      </trkpt>
      <trkpt lat="43.52531" lon="6.29993">
        <ele>314.7</ele>
        <time>2023-09-15T12:57:33Z</time>
      </trkpt>
      <trkpt lat="43.5253" lon="6.29994">
        <ele>314.7</ele>
        <time>2023-09-15T12:57:34Z</time>
      </trkpt>
      <trkpt lat="43.52529" lon="6.29994">
        <ele>314.7</ele>
        <time>2023-09-15T12:57:35Z</time>
      </trkpt>
      <trkpt lat="43.52529" lon="6.29995">
        <ele>314.7</ele>
        <time>2023-09-15T12:57:36Z</time>
      </trkpt>
      <trkpt lat="43.52528" lon="6.29996">
        <ele>314.9</ele>
        <time>2023-09-15T12:57:37Z</time>
      </trkpt>
      <trkpt lat="43.52528" lon="6.29997">
        <ele>314.9</ele>
        <time>2023-09-15T12:57:38Z</time>
      </trkpt>
      <trkpt lat="43.52527" lon="6.29998">
        <ele>315</ele>
        <time>2023-09-15T12:57:39Z</time>
      </trkpt>
      <trkpt lat="43.52527" lon="6.29999">
        <ele>315</ele>
        <time>2023-09-15T12:57:40Z</time>
      </trkpt>
      <trkpt lat="43.52526" lon="6.30001">
        <ele>314.9</ele>
        <time>2023-09-15T12:57:41Z</time>
      </trkpt>
      <trkpt lat="43.52525" lon="6.30002">
        <ele>314.9</ele>
        <time>2023-09-15T12:57:42Z</time>
      </trkpt>
      <trkpt lat="43.52524" lon="6.30003">
        <ele>315</ele>
        <time>2023-09-15T12:57:43Z</time>
      </trkpt>
      <trkpt lat="43.52524" lon="6.30004">
        <ele>315</ele>
        <time>2023-09-15T12:57:44Z</time>
      </trkpt>
      <trkpt lat="43.52523" lon="6.30004">
        <ele>315</ele>
        <time>2023-09-15T12:57:45Z</time>
      </trkpt>
      <trkpt lat="43.52522" lon="6.30004">
        <ele>315</ele>
        <time>2023-09-15T12:57:46Z</time>
      </trkpt>
      <trkpt lat="43.52521" lon="6.30005">
        <ele>315</ele>
        <time>2023-09-15T12:57:47Z</time>
      </trkpt>
      <trkpt lat="43.52521" lon="6.30006">
        <ele>314.9</ele>
        <time>2023-09-15T12:57:48Z</time>
      </trkpt>
      <trkpt lat="43.5252" lon="6.30007">
        <ele>314.9</ele>
        <time>2023-09-15T12:57:49Z</time>
      </trkpt>
      <trkpt lat="43.5252" lon="6.30008">
        <ele>314.9</ele>
        <time>2023-09-15T12:57:50Z</time>
      </trkpt>
      <trkpt lat="43.52519" lon="6.30009">
        <ele>314.9</ele>
        <time>2023-09-15T12:57:51Z</time>
      </trkpt>
      <trkpt lat="43.52518" lon="6.3001">
        <ele>314.9</ele>
        <time>2023-09-15T12:57:52Z</time>
      </trkpt>
      <trkpt lat="43.52517" lon="6.30011">
        <ele>315.1</ele>
        <time>2023-09-15T12:57:53Z</time>
      </trkpt>
      <trkpt lat="43.52516" lon="6.30012">
        <ele>315.2</ele>
        <time>2023-09-15T12:57:54Z</time>
      </trkpt>
      <trkpt lat="43.52516" lon="6.30013">
        <ele>315.3</ele>
        <time>2023-09-15T12:57:55Z</time>
      </trkpt>
      <trkpt lat="43.52515" lon="6.30014">
        <ele>315.4</ele>
        <time>2023-09-15T12:57:56Z</time>
      </trkpt>
      <trkpt lat="43.52514" lon="6.30015">
        <ele>315.4</ele>
        <time>2023-09-15T12:57:57Z</time>
      </trkpt>
      <trkpt lat="43.52514" lon="6.30017">
        <ele>315.4</ele>
        <time>2023-09-15T12:57:58Z</time>
      </trkpt>
      <trkpt lat="43.52514" lon="6.30018">
        <ele>315.5</ele>
        <time>2023-09-15T12:57:59Z</time>
      </trkpt>
      <trkpt lat="43.52513" lon="6.30019">
        <ele>315.6</ele>
        <time>2023-09-15T12:58:00Z</time>
      </trkpt>
      <trkpt lat="43.52514" lon="6.3002">
        <ele>315.7</ele>
        <time>2023-09-15T12:58:01Z</time>
      </trkpt>
      <trkpt lat="43.52514" lon="6.30021">
        <ele>315.8</ele>
        <time>2023-09-15T12:58:02Z</time>
      </trkpt>
      <trkpt lat="43.52513" lon="6.30023">
        <ele>315.8</ele>
        <time>2023-09-15T12:58:03Z</time>
      </trkpt>
      <trkpt lat="43.52513" lon="6.30024">
        <ele>315.9</ele>
        <time>2023-09-15T12:58:04Z</time>
      </trkpt>
      <trkpt lat="43.52513" lon="6.30026">
        <ele>316</ele>
        <time>2023-09-15T12:58:05Z</time>
      </trkpt>
      <trkpt lat="43.52513" lon="6.30027">
        <ele>316.1</ele>
        <time>2023-09-15T12:58:06Z</time>
      </trkpt>
      <trkpt lat="43.52513" lon="6.30028">
        <ele>316.2</ele>
        <time>2023-09-15T12:58:07Z</time>
      </trkpt>
      <trkpt lat="43.52512" lon="6.30029">
        <ele>316.2</ele>
        <time>2023-09-15T12:58:08Z</time>
      </trkpt>
      <trkpt lat="43.52512" lon="6.3003">
        <ele>316.4</ele>
        <time>2023-09-15T12:58:09Z</time>
      </trkpt>
      <trkpt lat="43.52513" lon="6.3003">
        <ele>316.6</ele>
        <time>2023-09-15T12:58:10Z</time>
      </trkpt>
      <trkpt lat="43.52513" lon="6.30031">
        <ele>316.7</ele>
        <time>2023-09-15T12:58:11Z</time>
      </trkpt>
      <trkpt lat="43.52513" lon="6.30033">
        <ele>316.9</ele>
        <time>2023-09-15T12:58:12Z</time>
      </trkpt>
      <trkpt lat="43.52512" lon="6.30035">
        <ele>317.1</ele>
        <time>2023-09-15T12:58:13Z</time>
      </trkpt>
      <trkpt lat="43.52512" lon="6.30036">
        <ele>317.2</ele>
        <time>2023-09-15T12:58:14Z</time>
      </trkpt>
      <trkpt lat="43.52512" lon="6.30037">
        <ele>317.3</ele>
        <time>2023-09-15T12:58:15Z</time>
      </trkpt>
      <trkpt lat="43.52513" lon="6.30039">
        <ele>317.3</ele>
        <time>2023-09-15T12:58:16Z</time>
      </trkpt>
      <trkpt lat="43.52513" lon="6.30039">
        <ele>317.4</ele>
        <time>2023-09-15T12:58:17Z</time>
      </trkpt>
      <trkpt lat="43.52513" lon="6.3004">
        <ele>317.4</ele>
        <time>2023-09-15T12:58:18Z</time>
      </trkpt>
      <trkpt lat="43.52513" lon="6.30041">
        <ele>317.4</ele>
        <time>2023-09-15T12:58:19Z</time>
      </trkpt>
      <trkpt lat="43.52513" lon="6.30042">
        <ele>317.5</ele>
        <time>2023-09-15T12:58:20Z</time>
      </trkpt>
      <trkpt lat="43.52513" lon="6.30043">
        <ele>317.6</ele>
        <time>2023-09-15T12:58:21Z</time>
      </trkpt>
      <trkpt lat="43.52513" lon="6.30045">
        <ele>317.7</ele>
        <time>2023-09-15T12:58:22Z</time>
      </trkpt>
      <trkpt lat="43.52513" lon="6.30046">
        <ele>317.7</ele>
        <time>2023-09-15T12:58:23Z</time>
      </trkpt>
      <trkpt lat="43.52512" lon="6.30047">
        <ele>317.8</ele>
        <time>2023-09-15T12:58:24Z</time>
      </trkpt>
      <trkpt lat="43.52512" lon="6.30049">
        <ele>317.8</ele>
        <time>2023-09-15T12:58:25Z</time>
      </trkpt>
      <trkpt lat="43.52512" lon="6.3005">
        <ele>317.8</ele>
        <time>2023-09-15T12:58:26Z</time>
      </trkpt>
      <trkpt lat="43.52512" lon="6.30051">
        <ele>317.8</ele>
        <time>2023-09-15T12:58:27Z</time>
      </trkpt>
      <trkpt lat="43.52512" lon="6.30052">
        <ele>317.9</ele>
        <time>2023-09-15T12:58:28Z</time>
      </trkpt>
      <trkpt lat="43.52512" lon="6.30054">
        <ele>317.9</ele>
        <time>2023-09-15T12:58:29Z</time>
      </trkpt>
      <trkpt lat="43.52512" lon="6.30055">
        <ele>318</ele>
        <time>2023-09-15T12:58:30Z</time>
      </trkpt>
      <trkpt lat="43.52512" lon="6.30056">
        <ele>318</ele>
        <time>2023-09-15T12:58:31Z</time>
      </trkpt>
      <trkpt lat="43.52512" lon="6.30057">
        <ele>318</ele>
        <time>2023-09-15T12:58:32Z</time>
      </trkpt>
      <trkpt lat="43.52512" lon="6.30058">
        <ele>318</ele>
        <time>2023-09-15T12:58:33Z</time>
      </trkpt>
      <trkpt lat="43.52512" lon="6.30059">
        <ele>318</ele>
        <time>2023-09-15T12:58:34Z</time>
      </trkpt>
      <trkpt lat="43.52512" lon="6.30061">
        <ele>318.1</ele>
        <time>2023-09-15T12:58:35Z</time>
      </trkpt>
      <trkpt lat="43.52512" lon="6.30062">
        <ele>318.1</ele>
        <time>2023-09-15T12:58:36Z</time>
      </trkpt>
      <trkpt lat="43.52512" lon="6.30063">
        <ele>318.1</ele>
        <time>2023-09-15T12:58:37Z</time>
      </trkpt>
      <trkpt lat="43.52512" lon="6.30065">
        <ele>318.2</ele>
        <time>2023-09-15T12:58:38Z</time>
      </trkpt>
      <trkpt lat="43.52512" lon="6.30065">
        <ele>318.2</ele>
        <time>2023-09-15T12:58:39Z</time>
      </trkpt>
      <trkpt lat="43.52512" lon="6.30066">
        <ele>318.4</ele>
        <time>2023-09-15T12:58:40Z</time>
      </trkpt>
      <trkpt lat="43.52512" lon="6.30067">
        <ele>318.5</ele>
        <time>2023-09-15T12:58:41Z</time>
      </trkpt>
      <trkpt lat="43.52512" lon="6.30068">
        <ele>318.6</ele>
        <time>2023-09-15T12:58:42Z</time>
      </trkpt>
      <trkpt lat="43.52513" lon="6.30068">
        <ele>318.6</ele>
        <time>2023-09-15T12:58:43Z</time>
      </trkpt>
      <trkpt lat="43.52513" lon="6.30069">
        <ele>318.8</ele>
        <time>2023-09-15T12:58:44Z</time>
      </trkpt>
      <trkpt lat="43.52514" lon="6.3007">
        <ele>318.9</ele>
        <time>2023-09-15T12:58:45Z</time>
      </trkpt>
      <trkpt lat="43.52514" lon="6.30071">
        <ele>319.1</ele>
        <time>2023-09-15T12:58:46Z</time>
      </trkpt>
      <trkpt lat="43.52514" lon="6.30072">
        <ele>319.1</ele>
        <time>2023-09-15T12:58:47Z</time>
      </trkpt>
      <trkpt lat="43.52514" lon="6.30073">
        <ele>319.2</ele>
        <time>2023-09-15T12:58:48Z</time>
      </trkpt>
      <trkpt lat="43.52514" lon="6.30074">
        <ele>319.3</ele>
        <time>2023-09-15T12:58:49Z</time>
      </trkpt>
      <trkpt lat="43.52514" lon="6.30075">
        <ele>319.4</ele>
        <time>2023-09-15T12:58:50Z</time>
      </trkpt>
      <trkpt lat="43.52515" lon="6.30076">
        <ele>319.5</ele>
        <time>2023-09-15T12:58:51Z</time>
      </trkpt>
      <trkpt lat="43.52515" lon="6.30077">
        <ele>319.5</ele>
        <time>2023-09-15T12:58:52Z</time>
      </trkpt>
      <trkpt lat="43.52515" lon="6.30077">
        <ele>319.6</ele>
        <time>2023-09-15T12:58:53Z</time>
      </trkpt>
      <trkpt lat="43.52515" lon="6.30078">
        <ele>319.7</ele>
        <time>2023-09-15T12:58:54Z</time>
      </trkpt>
      <trkpt lat="43.52516" lon="6.3008">
        <ele>319.8</ele>
        <time>2023-09-15T12:58:55Z</time>
      </trkpt>
      <trkpt lat="43.52516" lon="6.30081">
        <ele>319.8</ele>
        <time>2023-09-15T12:58:56Z</time>
      </trkpt>
      <trkpt lat="43.52517" lon="6.30082">
        <ele>319.9</ele>
        <time>2023-09-15T12:58:57Z</time>
      </trkpt>
      <trkpt lat="43.52517" lon="6.30083">
        <ele>320</ele>
        <time>2023-09-15T12:58:58Z</time>
      </trkpt>
      <trkpt lat="43.52517" lon="6.30084">
        <ele>320.2</ele>
        <time>2023-09-15T12:58:59Z</time>
      </trkpt>
      <trkpt lat="43.52517" lon="6.30084">
        <ele>320.3</ele>
        <time>2023-09-15T12:59:00Z</time>
      </trkpt>
      <trkpt lat="43.52518" lon="6.30085">
        <ele>320.4</ele>
        <time>2023-09-15T12:59:01Z</time>
      </trkpt>
      <trkpt lat="43.52518" lon="6.30086">
        <ele>320.5</ele>
        <time>2023-09-15T12:59:02Z</time>
      </trkpt>
      <trkpt lat="43.52518" lon="6.30086">
        <ele>320.7</ele>
        <time>2023-09-15T12:59:03Z</time>
      </trkpt>
      <trkpt lat="43.52518" lon="6.30087">
        <ele>320.8</ele>
        <time>2023-09-15T12:59:04Z</time>
      </trkpt>
      <trkpt lat="43.52519" lon="6.30088">
        <ele>320.8</ele>
        <time>2023-09-15T12:59:05Z</time>
      </trkpt>
      <trkpt lat="43.52519" lon="6.30089">
        <ele>320.9</ele>
        <time>2023-09-15T12:59:06Z</time>
      </trkpt>
      <trkpt lat="43.5252" lon="6.3009">
        <ele>320.9</ele>
        <time>2023-09-15T12:59:07Z</time>
      </trkpt>
      <trkpt lat="43.5252" lon="6.3009">
        <ele>321</ele>
        <time>2023-09-15T12:59:08Z</time>
      </trkpt>
      <trkpt lat="43.52521" lon="6.30091">
        <ele>321</ele>
        <time>2023-09-15T12:59:09Z</time>
      </trkpt>
      <trkpt lat="43.52521" lon="6.30092">
        <ele>321.1</ele>
        <time>2023-09-15T12:59:10Z</time>
      </trkpt>
      <trkpt lat="43.52521" lon="6.30093">
        <ele>321.1</ele>
        <time>2023-09-15T12:59:11Z</time>
      </trkpt>
      <trkpt lat="43.52521" lon="6.30093">
        <ele>321.3</ele>
        <time>2023-09-15T12:59:12Z</time>
      </trkpt>
      <trkpt lat="43.52521" lon="6.30094">
        <ele>321.4</ele>
        <time>2023-09-15T12:59:13Z</time>
      </trkpt>
      <trkpt lat="43.52522" lon="6.30095">
        <ele>321.6</ele>
        <time>2023-09-15T12:59:14Z</time>
      </trkpt>
      <trkpt lat="43.52522" lon="6.30095">
        <ele>321.6</ele>
        <time>2023-09-15T12:59:15Z</time>
      </trkpt>
      <trkpt lat="43.52522" lon="6.30096">
        <ele>321.6</ele>
        <time>2023-09-15T12:59:16Z</time>
      </trkpt>
      <trkpt lat="43.52522" lon="6.30096">
        <ele>321.7</ele>
        <time>2023-09-15T12:59:17Z</time>
      </trkpt>
      <trkpt lat="43.52522" lon="6.30097">
        <ele>321.7</ele>
        <time>2023-09-15T12:59:18Z</time>
      </trkpt>
      <trkpt lat="43.52522" lon="6.30098">
        <ele>321.8</ele>
        <time>2023-09-15T12:59:19Z</time>
      </trkpt>
      <trkpt lat="43.52522" lon="6.30099">
        <ele>321.9</ele>
        <time>2023-09-15T12:59:20Z</time>
      </trkpt>
      <trkpt lat="43.52522" lon="6.30101">
        <ele>322</ele>
        <time>2023-09-15T12:59:21Z</time>
      </trkpt>
      <trkpt lat="43.52523" lon="6.30102">
        <ele>322</ele>
        <time>2023-09-15T12:59:22Z</time>
      </trkpt>
      <trkpt lat="43.52523" lon="6.30103">
        <ele>322.2</ele>
        <time>2023-09-15T12:59:23Z</time>
      </trkpt>
      <trkpt lat="43.52524" lon="6.30103">
        <ele>322.3</ele>
        <time>2023-09-15T12:59:24Z</time>
      </trkpt>
      <trkpt lat="43.52524" lon="6.30104">
        <ele>322.4</ele>
        <time>2023-09-15T12:59:25Z</time>
      </trkpt>
      <trkpt lat="43.52524" lon="6.30105">
        <ele>322.4</ele>
        <time>2023-09-15T12:59:26Z</time>
      </trkpt>
      <trkpt lat="43.52524" lon="6.30106">
        <ele>322.4</ele>
        <time>2023-09-15T12:59:27Z</time>
      </trkpt>
      <trkpt lat="43.52524" lon="6.30107">
        <ele>322.5</ele>
        <time>2023-09-15T12:59:28Z</time>
      </trkpt>
      <trkpt lat="43.52524" lon="6.30109">
        <ele>322.5</ele>
        <time>2023-09-15T12:59:29Z</time>
      </trkpt>
      <trkpt lat="43.52524" lon="6.30109">
        <ele>322.5</ele>
        <time>2023-09-15T12:59:30Z</time>
      </trkpt>
      <trkpt lat="43.52524" lon="6.3011">
        <ele>322.6</ele>
        <time>2023-09-15T12:59:31Z</time>
      </trkpt>
      <trkpt lat="43.52524" lon="6.30111">
        <ele>322.6</ele>
        <time>2023-09-15T12:59:32Z</time>
      </trkpt>
      <trkpt lat="43.52524" lon="6.30112">
        <ele>322.6</ele>
        <time>2023-09-15T12:59:33Z</time>
      </trkpt>
      <trkpt lat="43.52525" lon="6.30112">
        <ele>322.7</ele>
        <time>2023-09-15T12:59:34Z</time>
      </trkpt>
      <trkpt lat="43.52525" lon="6.30113">
        <ele>322.7</ele>
        <time>2023-09-15T12:59:35Z</time>
      </trkpt>
      <trkpt lat="43.52525" lon="6.30114">
        <ele>322.7</ele>
        <time>2023-09-15T12:59:36Z</time>
      </trkpt>
      <trkpt lat="43.52524" lon="6.30115">
        <ele>322.7</ele>
        <time>2023-09-15T12:59:37Z</time>
      </trkpt>
      <trkpt lat="43.52525" lon="6.30115">
        <ele>322.7</ele>
        <time>2023-09-15T12:59:38Z</time>
      </trkpt>
      <trkpt lat="43.52525" lon="6.30116">
        <ele>322.7</ele>
        <time>2023-09-15T12:59:39Z</time>
      </trkpt>
      <trkpt lat="43.52525" lon="6.30117">
        <ele>322.6</ele>
        <time>2023-09-15T12:59:40Z</time>
      </trkpt>
      <trkpt lat="43.52525" lon="6.30118">
        <ele>322.6</ele>
        <time>2023-09-15T12:59:41Z</time>
      </trkpt>
      <trkpt lat="43.52525" lon="6.30118">
        <ele>322.6</ele>
        <time>2023-09-15T12:59:42Z</time>
      </trkpt>
      <trkpt lat="43.52524" lon="6.30119">
        <ele>322.6</ele>
        <time>2023-09-15T12:59:43Z</time>
      </trkpt>
      <trkpt lat="43.52524" lon="6.3012">
        <ele>322.6</ele>
        <time>2023-09-15T12:59:44Z</time>
      </trkpt>
      <trkpt lat="43.52524" lon="6.3012">
        <ele>322.6</ele>
        <time>2023-09-15T12:59:45Z</time>
      </trkpt>
      <trkpt lat="43.52524" lon="6.30121">
        <ele>322.5</ele>
        <time>2023-09-15T12:59:46Z</time>
      </trkpt>
      <trkpt lat="43.52524" lon="6.30122">
        <ele>322.5</ele>
        <time>2023-09-15T12:59:47Z</time>
      </trkpt>
      <trkpt lat="43.52524" lon="6.30123">
        <ele>322.6</ele>
        <time>2023-09-15T12:59:48Z</time>
      </trkpt>
      <trkpt lat="43.52524" lon="6.30124">
        <ele>322.5</ele>
        <time>2023-09-15T12:59:49Z</time>
      </trkpt>
      <trkpt lat="43.52524" lon="6.30124">
        <ele>322.4</ele>
        <time>2023-09-15T12:59:50Z</time>
      </trkpt>
      <trkpt lat="43.52524" lon="6.30126">
        <ele>322.3</ele>
        <time>2023-09-15T12:59:51Z</time>
      </trkpt>
      <trkpt lat="43.52524" lon="6.30127">
        <ele>322.2</ele>
        <time>2023-09-15T12:59:52Z</time>
      </trkpt>
      <trkpt lat="43.52524" lon="6.30128">
        <ele>322.1</ele>
        <time>2023-09-15T12:59:53Z</time>
      </trkpt>
      <trkpt lat="43.52524" lon="6.30129">
        <ele>322</ele>
        <time>2023-09-15T12:59:54Z</time>
      </trkpt>
      <trkpt lat="43.52524" lon="6.3013">
        <ele>322</ele>
        <time>2023-09-15T12:59:55Z</time>
      </trkpt>
      <trkpt lat="43.52524" lon="6.30131">
        <ele>321.9</ele>
        <time>2023-09-15T12:59:56Z</time>
      </trkpt>
      <trkpt lat="43.52524" lon="6.30132">
        <ele>321.7</ele>
        <time>2023-09-15T12:59:57Z</time>
      </trkpt>
      <trkpt lat="43.52524" lon="6.30133">
        <ele>321.7</ele>
        <time>2023-09-15T12:59:58Z</time>
      </trkpt>
      <trkpt lat="43.52524" lon="6.30134">
        <ele>321.6</ele>
        <time>2023-09-15T12:59:59Z</time>
      </trkpt>
      <trkpt lat="43.52524" lon="6.30135">
        <ele>321.5</ele>
        <time>2023-09-15T13:00:00Z</time>
      </trkpt>
      <trkpt lat="43.52524" lon="6.30136">
        <ele>321.4</ele>
        <time>2023-09-15T13:00:01Z</time>
      </trkpt>
      <trkpt lat="43.52524" lon="6.30137">
        <ele>321.5</ele>
        <time>2023-09-15T13:00:02Z</time>
      </trkpt>
      <trkpt lat="43.52524" lon="6.30138">
        <ele>321.4</ele>
        <time>2023-09-15T13:00:03Z</time>
      </trkpt>
      <trkpt lat="43.52524" lon="6.30139">
        <ele>321.3</ele>
        <time>2023-09-15T13:00:04Z</time>
      </trkpt>
      <trkpt lat="43.52524" lon="6.3014">
        <ele>321.3</ele>
        <time>2023-09-15T13:00:05Z</time>
      </trkpt>
      <trkpt lat="43.52524" lon="6.30141">
        <ele>321.3</ele>
        <time>2023-09-15T13:00:06Z</time>
      </trkpt>
      <trkpt lat="43.52525" lon="6.30142">
        <ele>321.3</ele>
        <time>2023-09-15T13:00:07Z</time>
      </trkpt>
      <trkpt lat="43.52525" lon="6.30143">
        <ele>321.2</ele>
        <time>2023-09-15T13:00:08Z</time>
      </trkpt>
      <trkpt lat="43.52525" lon="6.30144">
        <ele>321.1</ele>
        <time>2023-09-15T13:00:09Z</time>
      </trkpt>
      <trkpt lat="43.52525" lon="6.30144">
        <ele>321.1</ele>
        <time>2023-09-15T13:00:10Z</time>
      </trkpt>
      <trkpt lat="43.52525" lon="6.30145">
        <ele>321</ele>
        <time>2023-09-15T13:00:11Z</time>
      </trkpt>
      <trkpt lat="43.52525" lon="6.30145">
        <ele>320.9</ele>
        <time>2023-09-15T13:00:12Z</time>
      </trkpt>
      <trkpt lat="43.52525" lon="6.30146">
        <ele>320.9</ele>
        <time>2023-09-15T13:00:13Z</time>
      </trkpt>
      <trkpt lat="43.52525" lon="6.30148">
        <ele>320.7</ele>
        <time>2023-09-15T13:00:14Z</time>
      </trkpt>
      <trkpt lat="43.52525" lon="6.30149">
        <ele>320.6</ele>
        <time>2023-09-15T13:00:15Z</time>
      </trkpt>
      <trkpt lat="43.52525" lon="6.3015">
        <ele>320.5</ele>
        <time>2023-09-15T13:00:16Z</time>
      </trkpt>
      <trkpt lat="43.52525" lon="6.30152">
        <ele>320.4</ele>
        <time>2023-09-15T13:00:17Z</time>
      </trkpt>
      <trkpt lat="43.52525" lon="6.30153">
        <ele>320.3</ele>
        <time>2023-09-15T13:00:18Z</time>
      </trkpt>
      <trkpt lat="43.52526" lon="6.30154">
        <ele>320.2</ele>
        <time>2023-09-15T13:00:19Z</time>
      </trkpt>
      <trkpt lat="43.52526" lon="6.30156">
        <ele>320.2</ele>
        <time>2023-09-15T13:00:20Z</time>
      </trkpt>
      <trkpt lat="43.52526" lon="6.30157">
        <ele>320.1</ele>
        <time>2023-09-15T13:00:21Z</time>
      </trkpt>
      <trkpt lat="43.52526" lon="6.30158">
        <ele>320.1</ele>
        <time>2023-09-15T13:00:22Z</time>
      </trkpt>
      <trkpt lat="43.52526" lon="6.3016">
        <ele>320.1</ele>
        <time>2023-09-15T13:00:23Z</time>
      </trkpt>
      <trkpt lat="43.52527" lon="6.30162">
        <ele>320.1</ele>
        <time>2023-09-15T13:00:24Z</time>
      </trkpt>
      <trkpt lat="43.52527" lon="6.30163">
        <ele>320.1</ele>
        <time>2023-09-15T13:00:25Z</time>
      </trkpt>
      <trkpt lat="43.52527" lon="6.30165">
        <ele>320.1</ele>
        <time>2023-09-15T13:00:26Z</time>
      </trkpt>
      <trkpt lat="43.52527" lon="6.30166">
        <ele>320.1</ele>
        <time>2023-09-15T13:00:27Z</time>
      </trkpt>
      <trkpt lat="43.52527" lon="6.30167">
        <ele>320.2</ele>
        <time>2023-09-15T13:00:28Z</time>
      </trkpt>
      <trkpt lat="43.52528" lon="6.30168">
        <ele>320.2</ele>
        <time>2023-09-15T13:00:29Z</time>
      </trkpt>
      <trkpt lat="43.52529" lon="6.3017">
        <ele>320.2</ele>
        <time>2023-09-15T13:00:30Z</time>
      </trkpt>
      <trkpt lat="43.52529" lon="6.30171">
        <ele>320.2</ele>
        <time>2023-09-15T13:00:31Z</time>
      </trkpt>
      <trkpt lat="43.52529" lon="6.30172">
        <ele>320.3</ele>
        <time>2023-09-15T13:00:32Z</time>
      </trkpt>
      <trkpt lat="43.5253" lon="6.30173">
        <ele>320.4</ele>
        <time>2023-09-15T13:00:33Z</time>
      </trkpt>
      <trkpt lat="43.5253" lon="6.30174">
        <ele>320.4</ele>
        <time>2023-09-15T13:00:34Z</time>
      </trkpt>
      <trkpt lat="43.5253" lon="6.30175">
        <ele>320.5</ele>
        <time>2023-09-15T13:00:35Z</time>
      </trkpt>
      <trkpt lat="43.52531" lon="6.30177">
        <ele>320.6</ele>
        <time>2023-09-15T13:00:36Z</time>
      </trkpt>
      <trkpt lat="43.52531" lon="6.30178">
        <ele>320.7</ele>
        <time>2023-09-15T13:00:37Z</time>
      </trkpt>
      <trkpt lat="43.52531" lon="6.3018">
        <ele>320.9</ele>
        <time>2023-09-15T13:00:38Z</time>
      </trkpt>
      <trkpt lat="43.52531" lon="6.30181">
        <ele>321</ele>
        <time>2023-09-15T13:00:39Z</time>
      </trkpt>
      <trkpt lat="43.52532" lon="6.30182">
        <ele>321.2</ele>
        <time>2023-09-15T13:00:40Z</time>
      </trkpt>
      <trkpt lat="43.52532" lon="6.30183">
        <ele>321.4</ele>
        <time>2023-09-15T13:00:41Z</time>
      </trkpt>
      <trkpt lat="43.52533" lon="6.30185">
        <ele>321.6</ele>
        <time>2023-09-15T13:00:42Z</time>
      </trkpt>
      <trkpt lat="43.52533" lon="6.30185">
        <ele>321.8</ele>
        <time>2023-09-15T13:00:43Z</time>
      </trkpt>
      <trkpt lat="43.52534" lon="6.30187">
        <ele>322</ele>
        <time>2023-09-15T13:00:44Z</time>
      </trkpt>
      <trkpt lat="43.52534" lon="6.30188">
        <ele>322.1</ele>
        <time>2023-09-15T13:00:45Z</time>
      </trkpt>
      <trkpt lat="43.52534" lon="6.30189">
        <ele>322.3</ele>
        <time>2023-09-15T13:00:46Z</time>
      </trkpt>
      <trkpt lat="43.52535" lon="6.3019">
        <ele>322.6</ele>
        <time>2023-09-15T13:00:47Z</time>
      </trkpt>
      <trkpt lat="43.52535" lon="6.30191">
        <ele>322.8</ele>
        <time>2023-09-15T13:00:48Z</time>
      </trkpt>
      <trkpt lat="43.52535" lon="6.30192">
        <ele>322.8</ele>
        <time>2023-09-15T13:00:49Z</time>
      </trkpt>
      <trkpt lat="43.52535" lon="6.30192">
        <ele>322.8</ele>
        <time>2023-09-15T13:00:50Z</time>
      </trkpt>
      <trkpt lat="43.52535" lon="6.30193">
        <ele>322.8</ele>
        <time>2023-09-15T13:00:51Z</time>
      </trkpt>
      <trkpt lat="43.52536" lon="6.30194">
        <ele>322.8</ele>
        <time>2023-09-15T13:00:52Z</time>
      </trkpt>
      <trkpt lat="43.52536" lon="6.30195">
        <ele>322.9</ele>
        <time>2023-09-15T13:00:53Z</time>
      </trkpt>
      <trkpt lat="43.52537" lon="6.30196">
        <ele>322.9</ele>
        <time>2023-09-15T13:00:54Z</time>
      </trkpt>
      <trkpt lat="43.52537" lon="6.30197">
        <ele>323</ele>
        <time>2023-09-15T13:00:55Z</time>
      </trkpt>
      <trkpt lat="43.52537" lon="6.30197">
        <ele>323</ele>
        <time>2023-09-15T13:00:56Z</time>
      </trkpt>
      <trkpt lat="43.52538" lon="6.30198">
        <ele>322.9</ele>
        <time>2023-09-15T13:00:57Z</time>
      </trkpt>
      <trkpt lat="43.52538" lon="6.302">
        <ele>323</ele>
        <time>2023-09-15T13:00:58Z</time>
      </trkpt>
      <trkpt lat="43.52538" lon="6.30201">
        <ele>322.8</ele>
        <time>2023-09-15T13:00:59Z</time>
      </trkpt>
      <trkpt lat="43.52539" lon="6.30202">
        <ele>322.7</ele>
        <time>2023-09-15T13:01:00Z</time>
      </trkpt>
      <trkpt lat="43.52539" lon="6.30203">
        <ele>322.6</ele>
        <time>2023-09-15T13:01:01Z</time>
      </trkpt>
      <trkpt lat="43.52539" lon="6.30205">
        <ele>322.5</ele>
        <time>2023-09-15T13:01:02Z</time>
      </trkpt>
      <trkpt lat="43.5254" lon="6.30206">
        <ele>322.4</ele>
        <time>2023-09-15T13:01:03Z</time>
      </trkpt>
      <trkpt lat="43.5254" lon="6.30207">
        <ele>322.3</ele>
        <time>2023-09-15T13:01:04Z</time>
      </trkpt>
      <trkpt lat="43.52541" lon="6.30208">
        <ele>322.3</ele>
        <time>2023-09-15T13:01:05Z</time>
      </trkpt>
      <trkpt lat="43.52541" lon="6.30209">
        <ele>322.3</ele>
        <time>2023-09-15T13:01:06Z</time>
      </trkpt>
      <trkpt lat="43.52541" lon="6.3021">
        <ele>322.3</ele>
        <time>2023-09-15T13:01:07Z</time>
      </trkpt>
      <trkpt lat="43.52541" lon="6.30212">
        <ele>322.3</ele>
        <time>2023-09-15T13:01:08Z</time>
      </trkpt>
      <trkpt lat="43.52541" lon="6.30213">
        <ele>322.3</ele>
        <time>2023-09-15T13:01:09Z</time>
      </trkpt>
      <trkpt lat="43.52541" lon="6.30214">
        <ele>322.2</ele>
        <time>2023-09-15T13:01:10Z</time>
      </trkpt>
      <trkpt lat="43.52542" lon="6.30215">
        <ele>322.2</ele>
        <time>2023-09-15T13:01:11Z</time>
      </trkpt>
      <trkpt lat="43.52542" lon="6.30216">
        <ele>322.2</ele>
        <time>2023-09-15T13:01:12Z</time>
      </trkpt>
      <trkpt lat="43.52542" lon="6.30216">
        <ele>322.2</ele>
        <time>2023-09-15T13:01:13Z</time>
      </trkpt>
      <trkpt lat="43.52542" lon="6.30217">
        <ele>322.3</ele>
        <time>2023-09-15T13:01:14Z</time>
      </trkpt>
      <trkpt lat="43.52542" lon="6.30218">
        <ele>322.3</ele>
        <time>2023-09-15T13:01:15Z</time>
      </trkpt>
      <trkpt lat="43.52543" lon="6.30219">
        <ele>322.5</ele>
        <time>2023-09-15T13:01:16Z</time>
      </trkpt>
      <trkpt lat="43.52543" lon="6.3022">
        <ele>322.6</ele>
        <time>2023-09-15T13:01:17Z</time>
      </trkpt>
      <trkpt lat="43.52543" lon="6.3022">
        <ele>322.7</ele>
        <time>2023-09-15T13:01:18Z</time>
      </trkpt>
      <trkpt lat="43.52543" lon="6.3022">
        <ele>322.8</ele>
        <time>2023-09-15T13:01:19Z</time>
      </trkpt>
      <trkpt lat="43.52543" lon="6.30221">
        <ele>322.8</ele>
        <time>2023-09-15T13:01:20Z</time>
      </trkpt>
      <trkpt lat="43.52543" lon="6.30222">
        <ele>322.9</ele>
        <time>2023-09-15T13:01:21Z</time>
      </trkpt>
      <trkpt lat="43.52543" lon="6.30223">
        <ele>322.9</ele>
        <time>2023-09-15T13:01:22Z</time>
      </trkpt>
      <trkpt lat="43.52544" lon="6.30224">
        <ele>323</ele>
        <time>2023-09-15T13:01:23Z</time>
      </trkpt>
      <trkpt lat="43.52544" lon="6.30224">
        <ele>323.1</ele>
        <time>2023-09-15T13:01:24Z</time>
      </trkpt>
      <trkpt lat="43.52544" lon="6.30225">
        <ele>323.2</ele>
        <time>2023-09-15T13:01:25Z</time>
      </trkpt>
      <trkpt lat="43.52545" lon="6.30225">
        <ele>323.4</ele>
        <time>2023-09-15T13:01:26Z</time>
      </trkpt>
      <trkpt lat="43.52545" lon="6.30225">
        <ele>323.5</ele>
        <time>2023-09-15T13:01:27Z</time>
      </trkpt>
      <trkpt lat="43.52545" lon="6.30226">
        <ele>323.5</ele>
        <time>2023-09-15T13:01:28Z</time>
      </trkpt>
      <trkpt lat="43.52545" lon="6.30226">
        <ele>323.6</ele>
        <time>2023-09-15T13:01:29Z</time>
      </trkpt>
      <trkpt lat="43.52545" lon="6.30226">
        <ele>323.7</ele>
        <time>2023-09-15T13:01:30Z</time>
      </trkpt>
      <trkpt lat="43.52545" lon="6.30227">
        <ele>323.7</ele>
        <time>2023-09-15T13:01:31Z</time>
      </trkpt>
      <trkpt lat="43.52545" lon="6.30227">
        <ele>323.6</ele>
        <time>2023-09-15T13:01:32Z</time>
      </trkpt>
      <trkpt lat="43.52545" lon="6.30227">
        <ele>323.7</ele>
        <time>2023-09-15T13:01:33Z</time>
      </trkpt>
      <trkpt lat="43.52545" lon="6.30228">
        <ele>323.7</ele>
        <time>2023-09-15T13:01:34Z</time>
      </trkpt>
      <trkpt lat="43.52545" lon="6.30228">
        <ele>323.8</ele>
        <time>2023-09-15T13:01:35Z</time>
      </trkpt>
      <trkpt lat="43.52545" lon="6.30228">
        <ele>323.7</ele>
        <time>2023-09-15T13:01:36Z</time>
      </trkpt>
      <trkpt lat="43.52545" lon="6.30228">
        <ele>323.6</ele>
        <time>2023-09-15T13:01:37Z</time>
      </trkpt>
      <trkpt lat="43.52545" lon="6.30228">
        <ele>323.5</ele>
        <time>2023-09-15T13:01:38Z</time>
      </trkpt>
      <trkpt lat="43.52545" lon="6.30228">
        <ele>323.6</ele>
        <time>2023-09-15T13:01:39Z</time>
      </trkpt>
      <trkpt lat="43.52545" lon="6.30228">
        <ele>323.6</ele>
        <time>2023-09-15T13:01:40Z</time>
      </trkpt>
      <trkpt lat="43.52545" lon="6.30228">
        <ele>323.5</ele>
        <time>2023-09-15T13:01:41Z</time>
      </trkpt>
      <trkpt lat="43.52545" lon="6.30228">
        <ele>323.5</ele>
        <time>2023-09-15T13:01:42Z</time>
      </trkpt>
      <trkpt lat="43.52545" lon="6.30228">
        <ele>323.5</ele>
        <time>2023-09-15T13:01:43Z</time>
      </trkpt>
      <trkpt lat="43.52545" lon="6.30228">
        <ele>323.5</ele>
        <time>2023-09-15T13:01:44Z</time>
      </trkpt>
      <trkpt lat="43.52545" lon="6.30228">
        <ele>323.5</ele>
        <time>2023-09-15T13:01:45Z</time>
      </trkpt>
      <trkpt lat="43.52545" lon="6.30228">
        <ele>323.4</ele>
        <time>2023-09-15T13:01:46Z</time>
      </trkpt>
      <trkpt lat="43.52545" lon="6.30228">
        <ele>323.4</ele>
        <time>2023-09-15T13:01:47Z</time>
      </trkpt>
      <trkpt lat="43.52545" lon="6.30228">
        <ele>323.4</ele>
        <time>2023-09-15T13:01:48Z</time>
      </trkpt>
      <trkpt lat="43.52545" lon="6.30228">
        <ele>323.4</ele>
        <time>2023-09-15T13:01:49Z</time>
      </trkpt>
      <trkpt lat="43.52545" lon="6.30229">
        <ele>323.5</ele>
        <time>2023-09-15T13:01:50Z</time>
      </trkpt>
      <trkpt lat="43.52545" lon="6.30229">
        <ele>323.5</ele>
        <time>2023-09-15T13:01:51Z</time>
      </trkpt>
      <trkpt lat="43.52545" lon="6.30229">
        <ele>323.6</ele>
        <time>2023-09-15T13:01:52Z</time>
      </trkpt>
      <trkpt lat="43.52545" lon="6.30229">
        <ele>323.7</ele>
        <time>2023-09-15T13:01:53Z</time>
      </trkpt>
      <trkpt lat="43.52545" lon="6.30229">
        <ele>323.8</ele>
        <time>2023-09-15T13:01:54Z</time>
      </trkpt>
      <trkpt lat="43.52545" lon="6.3023">
        <ele>323.7</ele>
        <time>2023-09-15T13:01:55Z</time>
      </trkpt>
      <trkpt lat="43.52544" lon="6.3023">
        <ele>323.7</ele>
        <time>2023-09-15T13:01:56Z</time>
      </trkpt>
      <trkpt lat="43.52544" lon="6.30231">
        <ele>323.7</ele>
        <time>2023-09-15T13:01:57Z</time>
      </trkpt>
      <trkpt lat="43.52544" lon="6.30232">
        <ele>323.7</ele>
        <time>2023-09-15T13:01:58Z</time>
      </trkpt>
      <trkpt lat="43.52544" lon="6.30232">
        <ele>323.7</ele>
        <time>2023-09-15T13:01:59Z</time>
      </trkpt>
      <trkpt lat="43.52544" lon="6.30232">
        <ele>323.7</ele>
        <time>2023-09-15T13:02:00Z</time>
      </trkpt>
      <trkpt lat="43.52544" lon="6.30232">
        <ele>323.7</ele>
        <time>2023-09-15T13:02:01Z</time>
      </trkpt>
      <trkpt lat="43.52544" lon="6.30232">
        <ele>323.7</ele>
        <time>2023-09-15T13:02:02Z</time>
      </trkpt>
      <trkpt lat="43.52544" lon="6.30233">
        <ele>323.4</ele>
        <time>2023-09-15T13:02:03Z</time>
      </trkpt>
      <trkpt lat="43.52544" lon="6.30233">
        <ele>323.4</ele>
        <time>2023-09-15T13:02:04Z</time>
      </trkpt>
      <trkpt lat="43.52544" lon="6.30233">
        <ele>323.5</ele>
        <time>2023-09-15T13:02:05Z</time>
      </trkpt>
      <trkpt lat="43.52544" lon="6.30233">
        <ele>323.5</ele>
        <time>2023-09-15T13:02:06Z</time>
      </trkpt>
      <trkpt lat="43.52545" lon="6.30233">
        <ele>323.5</ele>
        <time>2023-09-15T13:02:07Z</time>
      </trkpt>
      <trkpt lat="43.52545" lon="6.30234">
        <ele>323.5</ele>
        <time>2023-09-15T13:02:08Z</time>
      </trkpt>
      <trkpt lat="43.52545" lon="6.30233">
        <ele>323.5</ele>
        <time>2023-09-15T13:02:09Z</time>
      </trkpt>
      <trkpt lat="43.52546" lon="6.30233">
        <ele>323.6</ele>
        <time>2023-09-15T13:02:10Z</time>
      </trkpt>
      <trkpt lat="43.52546" lon="6.30233">
        <ele>323.6</ele>
        <time>2023-09-15T13:02:11Z</time>
      </trkpt>
      <trkpt lat="43.52546" lon="6.30233">
        <ele>323.6</ele>
        <time>2023-09-15T13:02:12Z</time>
      </trkpt>
      <trkpt lat="43.52547" lon="6.30233">
        <ele>323.7</ele>
        <time>2023-09-15T13:02:13Z</time>
      </trkpt>
      <trkpt lat="43.52547" lon="6.30232">
        <ele>323.7</ele>
        <time>2023-09-15T13:02:14Z</time>
      </trkpt>
      <trkpt lat="43.52548" lon="6.30232">
        <ele>323.7</ele>
        <time>2023-09-15T13:02:15Z</time>
      </trkpt>
      <trkpt lat="43.52548" lon="6.30231">
        <ele>323.6</ele>
        <time>2023-09-15T13:02:16Z</time>
      </trkpt>
      <trkpt lat="43.52548" lon="6.30231">
        <ele>323.5</ele>
        <time>2023-09-15T13:02:17Z</time>
      </trkpt>
      <trkpt lat="43.52549" lon="6.30231">
        <ele>323.5</ele>
        <time>2023-09-15T13:02:18Z</time>
      </trkpt>
      <trkpt lat="43.52549" lon="6.30231">
        <ele>323.5</ele>
        <time>2023-09-15T13:02:19Z</time>
      </trkpt>
      <trkpt lat="43.52548" lon="6.30231">
        <ele>323.5</ele>
        <time>2023-09-15T13:02:20Z</time>
      </trkpt>
      <trkpt lat="43.52548" lon="6.30231">
        <ele>323.5</ele>
        <time>2023-09-15T13:02:21Z</time>
      </trkpt>
      <trkpt lat="43.52548" lon="6.30231">
        <ele>323.5</ele>
        <time>2023-09-15T13:02:22Z</time>
      </trkpt>
      <trkpt lat="43.52548" lon="6.30232">
        <ele>323.6</ele>
        <time>2023-09-15T13:02:23Z</time>
      </trkpt>
      <trkpt lat="43.52548" lon="6.30232">
        <ele>323.6</ele>
        <time>2023-09-15T13:02:24Z</time>
      </trkpt>
      <trkpt lat="43.52548" lon="6.30232">
        <ele>323.6</ele>
        <time>2023-09-15T13:02:25Z</time>
      </trkpt>
      <trkpt lat="43.52548" lon="6.30232">
        <ele>323.6</ele>
        <time>2023-09-15T13:02:26Z</time>
      </trkpt>
      <trkpt lat="43.52548" lon="6.30232">
        <ele>323.5</ele>
        <time>2023-09-15T13:02:27Z</time>
      </trkpt>
      <trkpt lat="43.52548" lon="6.30232">
        <ele>323.5</ele>
        <time>2023-09-15T13:02:28Z</time>
      </trkpt>
      <trkpt lat="43.52548" lon="6.30233">
        <ele>323.4</ele>
        <time>2023-09-15T13:02:29Z</time>
      </trkpt>
      <trkpt lat="43.52548" lon="6.30232">
        <ele>323.5</ele>
        <time>2023-09-15T13:02:30Z</time>
      </trkpt>
      <trkpt lat="43.52548" lon="6.30232">
        <ele>323.5</ele>
        <time>2023-09-15T13:02:31Z</time>
      </trkpt>
      <trkpt lat="43.52548" lon="6.30232">
        <ele>323.5</ele>
        <time>2023-09-15T13:02:32Z</time>
      </trkpt>
      <trkpt lat="43.52548" lon="6.30233">
        <ele>323.1</ele>
        <time>2023-09-15T13:02:33Z</time>
      </trkpt>
      <trkpt lat="43.52548" lon="6.30233">
        <ele>323.1</ele>
        <time>2023-09-15T13:02:34Z</time>
      </trkpt>
      <trkpt lat="43.52548" lon="6.30233">
        <ele>323.1</ele>
        <time>2023-09-15T13:02:35Z</time>
      </trkpt>
      <trkpt lat="43.52548" lon="6.30233">
        <ele>323.1</ele>
        <time>2023-09-15T13:02:36Z</time>
      </trkpt>
      <trkpt lat="43.52548" lon="6.30232">
        <ele>323.2</ele>
        <time>2023-09-15T13:02:37Z</time>
      </trkpt>
      <trkpt lat="43.52548" lon="6.30233">
        <ele>323.3</ele>
        <time>2023-09-15T13:02:38Z</time>
      </trkpt>
      <trkpt lat="43.52548" lon="6.30232">
        <ele>323.2</ele>
        <time>2023-09-15T13:02:39Z</time>
      </trkpt>
      <trkpt lat="43.52548" lon="6.30232">
        <ele>323.4</ele>
        <time>2023-09-15T13:02:40Z</time>
      </trkpt>
      <trkpt lat="43.52548" lon="6.30232">
        <ele>323.5</ele>
        <time>2023-09-15T13:02:41Z</time>
      </trkpt>
      <trkpt lat="43.52549" lon="6.30231">
        <ele>323.6</ele>
        <time>2023-09-15T13:02:42Z</time>
      </trkpt>
      <trkpt lat="43.52549" lon="6.30231">
        <ele>323.6</ele>
        <time>2023-09-15T13:02:43Z</time>
      </trkpt>
      <trkpt lat="43.52549" lon="6.30231">
        <ele>323.7</ele>
        <time>2023-09-15T13:02:44Z</time>
      </trkpt>
      <trkpt lat="43.52549" lon="6.30231">
        <ele>323.6</ele>
        <time>2023-09-15T13:02:45Z</time>
      </trkpt>
      <trkpt lat="43.5255" lon="6.30232">
        <ele>323.6</ele>
        <time>2023-09-15T13:02:46Z</time>
      </trkpt>
      <trkpt lat="43.5255" lon="6.30233">
        <ele>323.6</ele>
        <time>2023-09-15T13:02:47Z</time>
      </trkpt>
      <trkpt lat="43.5255" lon="6.30233">
        <ele>323.6</ele>
        <time>2023-09-15T13:02:48Z</time>
      </trkpt>
      <trkpt lat="43.5255" lon="6.30233">
        <ele>323.6</ele>
        <time>2023-09-15T13:02:49Z</time>
      </trkpt>
      <trkpt lat="43.5255" lon="6.30233">
        <ele>323.6</ele>
        <time>2023-09-15T13:02:50Z</time>
      </trkpt>
      <trkpt lat="43.52549" lon="6.30233">
        <ele>323.6</ele>
        <time>2023-09-15T13:02:51Z</time>
      </trkpt>
      <trkpt lat="43.52549" lon="6.30233">
        <ele>323.6</ele>
        <time>2023-09-15T13:02:52Z</time>
      </trkpt>
      <trkpt lat="43.52549" lon="6.30233">
        <ele>323.5</ele>
        <time>2023-09-15T13:02:53Z</time>
      </trkpt>
      <trkpt lat="43.52549" lon="6.30234">
        <ele>323.5</ele>
        <time>2023-09-15T13:02:54Z</time>
      </trkpt>
      <trkpt lat="43.52548" lon="6.30234">
        <ele>323.5</ele>
        <time>2023-09-15T13:02:55Z</time>
      </trkpt>
      <trkpt lat="43.52548" lon="6.30234">
        <ele>323.5</ele>
        <time>2023-09-15T13:02:56Z</time>
      </trkpt>
      <trkpt lat="43.52548" lon="6.30234">
        <ele>323.6</ele>
        <time>2023-09-15T13:02:57Z</time>
      </trkpt>
      <trkpt lat="43.52547" lon="6.30234">
        <ele>323.6</ele>
        <time>2023-09-15T13:02:58Z</time>
      </trkpt>
      <trkpt lat="43.52548" lon="6.30234">
        <ele>323.6</ele>
        <time>2023-09-15T13:02:59Z</time>
      </trkpt>
      <trkpt lat="43.52548" lon="6.30234">
        <ele>323.5</ele>
        <time>2023-09-15T13:03:00Z</time>
      </trkpt>
      <trkpt lat="43.52548" lon="6.30234">
        <ele>323.4</ele>
        <time>2023-09-15T13:03:01Z</time>
      </trkpt>
      <trkpt lat="43.52548" lon="6.30234">
        <ele>323.4</ele>
        <time>2023-09-15T13:03:02Z</time>
      </trkpt>
      <trkpt lat="43.52548" lon="6.30235">
        <ele>323.5</ele>
        <time>2023-09-15T13:03:03Z</time>
      </trkpt>
      <trkpt lat="43.52548" lon="6.30235">
        <ele>323.5</ele>
        <time>2023-09-15T13:03:04Z</time>
      </trkpt>
      <trkpt lat="43.52548" lon="6.30235">
        <ele>323.6</ele>
        <time>2023-09-15T13:03:05Z</time>
      </trkpt>
      <trkpt lat="43.52548" lon="6.30235">
        <ele>323.7</ele>
        <time>2023-09-15T13:03:06Z</time>
      </trkpt>
      <trkpt lat="43.52548" lon="6.30235">
        <ele>323.8</ele>
        <time>2023-09-15T13:03:07Z</time>
      </trkpt>
      <trkpt lat="43.52548" lon="6.30236">
        <ele>323.8</ele>
        <time>2023-09-15T13:03:08Z</time>
      </trkpt>
      <trkpt lat="43.52548" lon="6.30236">
        <ele>323.9</ele>
        <time>2023-09-15T13:03:09Z</time>
      </trkpt>
      <trkpt lat="43.52548" lon="6.30236">
        <ele>323.9</ele>
        <time>2023-09-15T13:03:10Z</time>
      </trkpt>
      <trkpt lat="43.52548" lon="6.30236">
        <ele>323.9</ele>
        <time>2023-09-15T13:03:11Z</time>
      </trkpt>
      <trkpt lat="43.52548" lon="6.30236">
        <ele>323.9</ele>
        <time>2023-09-15T13:03:12Z</time>
      </trkpt>
      <trkpt lat="43.52548" lon="6.30236">
        <ele>323.8</ele>
        <time>2023-09-15T13:03:13Z</time>
      </trkpt>
      <trkpt lat="43.52547" lon="6.30236">
        <ele>323.7</ele>
        <time>2023-09-15T13:03:14Z</time>
      </trkpt>
      <trkpt lat="43.52547" lon="6.30236">
        <ele>323.6</ele>
        <time>2023-09-15T13:03:15Z</time>
      </trkpt>
      <trkpt lat="43.52547" lon="6.30236">
        <ele>323.6</ele>
        <time>2023-09-15T13:03:16Z</time>
      </trkpt>
      <trkpt lat="43.52547" lon="6.30236">
        <ele>323.5</ele>
        <time>2023-09-15T13:03:17Z</time>
      </trkpt>
      <trkpt lat="43.52547" lon="6.30236">
        <ele>323.5</ele>
        <time>2023-09-15T13:03:18Z</time>
      </trkpt>
      <trkpt lat="43.52547" lon="6.30236">
        <ele>323.4</ele>
        <time>2023-09-15T13:03:19Z</time>
      </trkpt>
      <trkpt lat="43.52547" lon="6.30236">
        <ele>323.5</ele>
        <time>2023-09-15T13:03:20Z</time>
      </trkpt>
      <trkpt lat="43.52546" lon="6.30236">
        <ele>323.5</ele>
        <time>2023-09-15T13:03:21Z</time>
      </trkpt>
      <trkpt lat="43.52546" lon="6.30236">
        <ele>323.5</ele>
        <time>2023-09-15T13:03:22Z</time>
      </trkpt>
      <trkpt lat="43.52546" lon="6.30236">
        <ele>323.5</ele>
        <time>2023-09-15T13:03:23Z</time>
      </trkpt>
      <trkpt lat="43.52546" lon="6.30236">
        <ele>323.5</ele>
        <time>2023-09-15T13:03:24Z</time>
      </trkpt>
      <trkpt lat="43.52546" lon="6.30236">
        <ele>323.4</ele>
        <time>2023-09-15T13:03:25Z</time>
      </trkpt>
      <trkpt lat="43.52546" lon="6.30236">
        <ele>323.4</ele>
        <time>2023-09-15T13:03:26Z</time>
      </trkpt>
      <trkpt lat="43.52546" lon="6.30236">
        <ele>323.4</ele>
        <time>2023-09-15T13:03:27Z</time>
      </trkpt>
      <trkpt lat="43.52546" lon="6.30236">
        <ele>323.4</ele>
        <time>2023-09-15T13:03:28Z</time>
      </trkpt>
      <trkpt lat="43.52546" lon="6.30236">
        <ele>323.4</ele>
        <time>2023-09-15T13:03:29Z</time>
      </trkpt>
      <trkpt lat="43.52546" lon="6.30236">
        <ele>323.5</ele>
        <time>2023-09-15T13:03:30Z</time>
      </trkpt>
      <trkpt lat="43.52546" lon="6.30236">
        <ele>323.5</ele>
        <time>2023-09-15T13:03:31Z</time>
      </trkpt>
      <trkpt lat="43.52546" lon="6.30236">
        <ele>323.5</ele>
        <time>2023-09-15T13:03:32Z</time>
      </trkpt>
      <trkpt lat="43.52546" lon="6.30236">
        <ele>323.4</ele>
        <time>2023-09-15T13:03:33Z</time>
      </trkpt>
      <trkpt lat="43.52546" lon="6.30236">
        <ele>323.4</ele>
        <time>2023-09-15T13:03:34Z</time>
      </trkpt>
      <trkpt lat="43.52547" lon="6.30236">
        <ele>323.4</ele>
        <time>2023-09-15T13:03:35Z</time>
      </trkpt>
      <trkpt lat="43.52547" lon="6.30236">
        <ele>323.4</ele>
        <time>2023-09-15T13:03:36Z</time>
      </trkpt>
      <trkpt lat="43.52547" lon="6.30236">
        <ele>323.4</ele>
        <time>2023-09-15T13:03:37Z</time>
      </trkpt>
      <trkpt lat="43.52548" lon="6.30236">
        <ele>323.4</ele>
        <time>2023-09-15T13:03:38Z</time>
      </trkpt>
      <trkpt lat="43.52548" lon="6.30237">
        <ele>323.4</ele>
        <time>2023-09-15T13:03:39Z</time>
      </trkpt>
      <trkpt lat="43.52548" lon="6.30236">
        <ele>323.4</ele>
        <time>2023-09-15T13:03:40Z</time>
      </trkpt>
      <trkpt lat="43.52548" lon="6.30236">
        <ele>323.4</ele>
        <time>2023-09-15T13:03:41Z</time>
      </trkpt>
      <trkpt lat="43.52548" lon="6.30236">
        <ele>323.4</ele>
        <time>2023-09-15T13:03:42Z</time>
      </trkpt>
      <trkpt lat="43.52548" lon="6.30236">
        <ele>323.4</ele>
        <time>2023-09-15T13:03:43Z</time>
      </trkpt>
      <trkpt lat="43.52548" lon="6.30236">
        <ele>323.4</ele>
        <time>2023-09-15T13:03:44Z</time>
      </trkpt>
      <trkpt lat="43.52548" lon="6.30236">
        <ele>323.3</ele>
        <time>2023-09-15T13:03:45Z</time>
      </trkpt>
      <trkpt lat="43.52549" lon="6.30236">
        <ele>323.2</ele>
        <time>2023-09-15T13:03:46Z</time>
      </trkpt>
      <trkpt lat="43.52549" lon="6.30236">
        <ele>323.2</ele>
        <time>2023-09-15T13:03:47Z</time>
      </trkpt>
      <trkpt lat="43.52549" lon="6.30236">
        <ele>323.2</ele>
        <time>2023-09-15T13:03:48Z</time>
      </trkpt>
      <trkpt lat="43.52549" lon="6.30236">
        <ele>323.1</ele>
        <time>2023-09-15T13:03:49Z</time>
      </trkpt>
      <trkpt lat="43.52549" lon="6.30236">
        <ele>323.1</ele>
        <time>2023-09-15T13:03:50Z</time>
      </trkpt>
      <trkpt lat="43.52549" lon="6.30236">
        <ele>323.1</ele>
        <time>2023-09-15T13:03:51Z</time>
      </trkpt>
      <trkpt lat="43.52549" lon="6.30236">
        <ele>323.1</ele>
        <time>2023-09-15T13:03:52Z</time>
      </trkpt>
      <trkpt lat="43.52549" lon="6.30236">
        <ele>323.1</ele>
        <time>2023-09-15T13:03:53Z</time>
      </trkpt>
      <trkpt lat="43.52549" lon="6.30236">
        <ele>323.1</ele>
        <time>2023-09-15T13:03:54Z</time>
      </trkpt>
      <trkpt lat="43.5255" lon="6.30236">
        <ele>323.1</ele>
        <time>2023-09-15T13:03:55Z</time>
      </trkpt>
      <trkpt lat="43.5255" lon="6.30236">
        <ele>323.1</ele>
        <time>2023-09-15T13:03:56Z</time>
      </trkpt>
      <trkpt lat="43.5255" lon="6.30236">
        <ele>323.1</ele>
        <time>2023-09-15T13:03:57Z</time>
      </trkpt>
      <trkpt lat="43.5255" lon="6.30236">
        <ele>323</ele>
        <time>2023-09-15T13:03:58Z</time>
      </trkpt>
      <trkpt lat="43.5255" lon="6.30236">
        <ele>323.1</ele>
        <time>2023-09-15T13:03:59Z</time>
      </trkpt>
      <trkpt lat="43.5255" lon="6.30236">
        <ele>323.1</ele>
        <time>2023-09-15T13:04:00Z</time>
      </trkpt>
      <trkpt lat="43.5255" lon="6.30236">
        <ele>323</ele>
        <time>2023-09-15T13:04:01Z</time>
      </trkpt>
      <trkpt lat="43.5255" lon="6.30236">
        <ele>323</ele>
        <time>2023-09-15T13:04:02Z</time>
      </trkpt>
      <trkpt lat="43.5255" lon="6.30236">
        <ele>323</ele>
        <time>2023-09-15T13:04:03Z</time>
      </trkpt>
      <trkpt lat="43.5255" lon="6.30236">
        <ele>322.9</ele>
        <time>2023-09-15T13:04:04Z</time>
      </trkpt>
      <trkpt lat="43.5255" lon="6.30236">
        <ele>323</ele>
        <time>2023-09-15T13:04:05Z</time>
      </trkpt>
      <trkpt lat="43.5255" lon="6.30236">
        <ele>323</ele>
        <time>2023-09-15T13:04:06Z</time>
      </trkpt>
      <trkpt lat="43.5255" lon="6.30236">
        <ele>323</ele>
        <time>2023-09-15T13:04:07Z</time>
      </trkpt>
      <trkpt lat="43.5255" lon="6.30236">
        <ele>322.9</ele>
        <time>2023-09-15T13:04:08Z</time>
      </trkpt>
      <trkpt lat="43.5255" lon="6.30236">
        <ele>322.9</ele>
        <time>2023-09-15T13:04:09Z</time>
      </trkpt>
      <trkpt lat="43.5255" lon="6.30236">
        <ele>322.9</ele>
        <time>2023-09-15T13:04:10Z</time>
      </trkpt>
      <trkpt lat="43.5255" lon="6.30236">
        <ele>322.9</ele>
        <time>2023-09-15T13:04:11Z</time>
      </trkpt>
      <trkpt lat="43.5255" lon="6.30236">
        <ele>323</ele>
        <time>2023-09-15T13:04:12Z</time>
      </trkpt>
      <trkpt lat="43.5255" lon="6.30237">
        <ele>323</ele>
        <time>2023-09-15T13:04:13Z</time>
      </trkpt>
      <trkpt lat="43.5255" lon="6.30237">
        <ele>323.1</ele>
        <time>2023-09-15T13:04:14Z</time>
      </trkpt>
      <trkpt lat="43.5255" lon="6.30238">
        <ele>323.1</ele>
        <time>2023-09-15T13:04:15Z</time>
      </trkpt>
      <trkpt lat="43.52549" lon="6.30238">
        <ele>323.1</ele>
        <time>2023-09-15T13:04:16Z</time>
      </trkpt>
      <trkpt lat="43.52549" lon="6.30238">
        <ele>323.1</ele>
        <time>2023-09-15T13:04:17Z</time>
      </trkpt>
      <trkpt lat="43.52549" lon="6.30239">
        <ele>323.1</ele>
        <time>2023-09-15T13:04:18Z</time>
      </trkpt>
      <trkpt lat="43.5255" lon="6.3024">
        <ele>323</ele>
        <time>2023-09-15T13:04:19Z</time>
      </trkpt>
      <trkpt lat="43.5255" lon="6.30241">
        <ele>323</ele>
        <time>2023-09-15T13:04:20Z</time>
      </trkpt>
      <trkpt lat="43.5255" lon="6.30241">
        <ele>323</ele>
        <time>2023-09-15T13:04:21Z</time>
      </trkpt>
      <trkpt lat="43.52551" lon="6.30241">
        <ele>323</ele>
        <time>2023-09-15T13:04:22Z</time>
      </trkpt>
      <trkpt lat="43.52551" lon="6.30243">
        <ele>323</ele>
        <time>2023-09-15T13:04:23Z</time>
      </trkpt>
      <trkpt lat="43.52551" lon="6.30243">
        <ele>323.1</ele>
        <time>2023-09-15T13:04:24Z</time>
      </trkpt>
      <trkpt lat="43.52551" lon="6.30243">
        <ele>323.1</ele>
        <time>2023-09-15T13:04:25Z</time>
      </trkpt>
      <trkpt lat="43.52551" lon="6.30244">
        <ele>323.2</ele>
        <time>2023-09-15T13:04:26Z</time>
      </trkpt>
      <trkpt lat="43.52552" lon="6.30244">
        <ele>323.2</ele>
        <time>2023-09-15T13:04:27Z</time>
      </trkpt>
      <trkpt lat="43.52552" lon="6.30245">
        <ele>323.3</ele>
        <time>2023-09-15T13:04:28Z</time>
      </trkpt>
      <trkpt lat="43.52552" lon="6.30246">
        <ele>323.4</ele>
        <time>2023-09-15T13:04:29Z</time>
      </trkpt>
      <trkpt lat="43.52552" lon="6.30246">
        <ele>323.5</ele>
        <time>2023-09-15T13:04:30Z</time>
      </trkpt>
      <trkpt lat="43.52552" lon="6.30247">
        <ele>323.5</ele>
        <time>2023-09-15T13:04:31Z</time>
      </trkpt>
      <trkpt lat="43.52552" lon="6.30247">
        <ele>323.5</ele>
        <time>2023-09-15T13:04:32Z</time>
      </trkpt>
      <trkpt lat="43.52551" lon="6.30248">
        <ele>323.5</ele>
        <time>2023-09-15T13:04:33Z</time>
      </trkpt>
      <trkpt lat="43.52551" lon="6.30248">
        <ele>323.5</ele>
        <time>2023-09-15T13:04:34Z</time>
      </trkpt>
      <trkpt lat="43.5255" lon="6.30249">
        <ele>323.4</ele>
        <time>2023-09-15T13:04:35Z</time>
      </trkpt>
      <trkpt lat="43.5255" lon="6.3025">
        <ele>323.3</ele>
        <time>2023-09-15T13:04:36Z</time>
      </trkpt>
      <trkpt lat="43.52549" lon="6.3025">
        <ele>323.3</ele>
        <time>2023-09-15T13:04:37Z</time>
      </trkpt>
      <trkpt lat="43.52549" lon="6.30251">
        <ele>323.4</ele>
        <time>2023-09-15T13:04:38Z</time>
      </trkpt>
      <trkpt lat="43.52548" lon="6.30251">
        <ele>323.4</ele>
        <time>2023-09-15T13:04:39Z</time>
      </trkpt>
      <trkpt lat="43.52548" lon="6.30251">
        <ele>323.3</ele>
        <time>2023-09-15T13:04:40Z</time>
      </trkpt>
      <trkpt lat="43.52547" lon="6.30251">
        <ele>323.3</ele>
        <time>2023-09-15T13:04:41Z</time>
      </trkpt>
      <trkpt lat="43.52547" lon="6.30251">
        <ele>323.3</ele>
        <time>2023-09-15T13:04:42Z</time>
      </trkpt>
      <trkpt lat="43.52546" lon="6.3025">
        <ele>323.4</ele>
        <time>2023-09-15T13:04:43Z</time>
      </trkpt>
      <trkpt lat="43.52545" lon="6.3025">
        <ele>323.4</ele>
        <time>2023-09-15T13:04:44Z</time>
      </trkpt>
      <trkpt lat="43.52545" lon="6.3025">
        <ele>323.3</ele>
        <time>2023-09-15T13:04:45Z</time>
      </trkpt>
      <trkpt lat="43.52545" lon="6.3025">
        <ele>323.3</ele>
        <time>2023-09-15T13:04:46Z</time>
      </trkpt>
      <trkpt lat="43.52545" lon="6.3025">
        <ele>323.2</ele>
        <time>2023-09-15T13:04:47Z</time>
      </trkpt>
      <trkpt lat="43.52544" lon="6.30249">
        <ele>323.2</ele>
        <time>2023-09-15T13:04:48Z</time>
      </trkpt>
      <trkpt lat="43.52543" lon="6.30249">
        <ele>323.2</ele>
        <time>2023-09-15T13:04:49Z</time>
      </trkpt>
      <trkpt lat="43.52543" lon="6.30248">
        <ele>323.1</ele>
        <time>2023-09-15T13:04:50Z</time>
      </trkpt>
      <trkpt lat="43.52542" lon="6.30248">
        <ele>323.1</ele>
        <time>2023-09-15T13:04:51Z</time>
      </trkpt>
      <trkpt lat="43.52541" lon="6.30248">
        <ele>323</ele>
        <time>2023-09-15T13:04:52Z</time>
      </trkpt>
      <trkpt lat="43.52541" lon="6.30249">
        <ele>322.8</ele>
        <time>2023-09-15T13:04:53Z</time>
      </trkpt>
      <trkpt lat="43.5254" lon="6.30248">
        <ele>322.7</ele>
        <time>2023-09-15T13:04:54Z</time>
      </trkpt>
      <trkpt lat="43.52539" lon="6.30247">
        <ele>322.6</ele>
        <time>2023-09-15T13:04:55Z</time>
      </trkpt>
      <trkpt lat="43.52538" lon="6.30247">
        <ele>322.5</ele>
        <time>2023-09-15T13:04:56Z</time>
      </trkpt>
      <trkpt lat="43.52538" lon="6.30247">
        <ele>322.5</ele>
        <time>2023-09-15T13:04:57Z</time>
      </trkpt>
      <trkpt lat="43.52537" lon="6.30246">
        <ele>322.4</ele>
        <time>2023-09-15T13:04:58Z</time>
      </trkpt>
      <trkpt lat="43.52536" lon="6.30245">
        <ele>322.2</ele>
        <time>2023-09-15T13:04:59Z</time>
      </trkpt>
      <trkpt lat="43.52536" lon="6.30245">
        <ele>322</ele>
        <time>2023-09-15T13:05:00Z</time>
      </trkpt>
      <trkpt lat="43.52535" lon="6.30245">
        <ele>321.9</ele>
        <time>2023-09-15T13:05:01Z</time>
      </trkpt>
      <trkpt lat="43.52534" lon="6.30245">
        <ele>321.8</ele>
        <time>2023-09-15T13:05:02Z</time>
      </trkpt>
      <trkpt lat="43.52534" lon="6.30245">
        <ele>321.7</ele>
        <time>2023-09-15T13:05:03Z</time>
      </trkpt>
      <trkpt lat="43.52533" lon="6.30244">
        <ele>321.7</ele>
        <time>2023-09-15T13:05:04Z</time>
      </trkpt>
      <trkpt lat="43.52532" lon="6.30244">
        <ele>321.6</ele>
        <time>2023-09-15T13:05:05Z</time>
      </trkpt>
      <trkpt lat="43.52531" lon="6.30244">
        <ele>321.5</ele>
        <time>2023-09-15T13:05:06Z</time>
      </trkpt>
      <trkpt lat="43.52531" lon="6.30244">
        <ele>321.5</ele>
        <time>2023-09-15T13:05:07Z</time>
      </trkpt>
      <trkpt lat="43.5253" lon="6.30244">
        <ele>321.4</ele>
        <time>2023-09-15T13:05:08Z</time>
      </trkpt>
      <trkpt lat="43.52529" lon="6.30244">
        <ele>321.3</ele>
        <time>2023-09-15T13:05:09Z</time>
      </trkpt>
      <trkpt lat="43.52529" lon="6.30243">
        <ele>321.2</ele>
        <time>2023-09-15T13:05:10Z</time>
      </trkpt>
      <trkpt lat="43.52528" lon="6.30244">
        <ele>321.1</ele>
        <time>2023-09-15T13:05:11Z</time>
      </trkpt>
      <trkpt lat="43.52527" lon="6.30243">
        <ele>321.1</ele>
        <time>2023-09-15T13:05:12Z</time>
      </trkpt>
      <trkpt lat="43.52525" lon="6.30243">
        <ele>321.1</ele>
        <time>2023-09-15T13:05:13Z</time>
      </trkpt>
      <trkpt lat="43.52524" lon="6.30243">
        <ele>321.1</ele>
        <time>2023-09-15T13:05:14Z</time>
      </trkpt>
      <trkpt lat="43.52523" lon="6.30243">
        <ele>321.1</ele>
        <time>2023-09-15T13:05:15Z</time>
      </trkpt>
      <trkpt lat="43.52523" lon="6.30244">
        <ele>321.1</ele>
        <time>2023-09-15T13:05:16Z</time>
      </trkpt>
      <trkpt lat="43.52522" lon="6.30245">
        <ele>321.1</ele>
        <time>2023-09-15T13:05:17Z</time>
      </trkpt>
      <trkpt lat="43.52521" lon="6.30245">
        <ele>321.1</ele>
        <time>2023-09-15T13:05:18Z</time>
      </trkpt>
      <trkpt lat="43.5252" lon="6.30246">
        <ele>321.2</ele>
        <time>2023-09-15T13:05:19Z</time>
      </trkpt>
      <trkpt lat="43.52519" lon="6.30246">
        <ele>321.3</ele>
        <time>2023-09-15T13:05:20Z</time>
      </trkpt>
      <trkpt lat="43.52518" lon="6.30246">
        <ele>321.3</ele>
        <time>2023-09-15T13:05:21Z</time>
      </trkpt>
      <trkpt lat="43.52517" lon="6.30247">
        <ele>321.4</ele>
        <time>2023-09-15T13:05:22Z</time>
      </trkpt>
      <trkpt lat="43.52517" lon="6.30248">
        <ele>321.5</ele>
        <time>2023-09-15T13:05:23Z</time>
      </trkpt>
      <trkpt lat="43.52516" lon="6.30247">
        <ele>321.5</ele>
        <time>2023-09-15T13:05:24Z</time>
      </trkpt>
      <trkpt lat="43.52515" lon="6.30248">
        <ele>321.6</ele>
        <time>2023-09-15T13:05:25Z</time>
      </trkpt>
      <trkpt lat="43.52514" lon="6.30248">
        <ele>321.6</ele>
        <time>2023-09-15T13:05:26Z</time>
      </trkpt>
      <trkpt lat="43.52514" lon="6.30248">
        <ele>321.6</ele>
        <time>2023-09-15T13:05:27Z</time>
      </trkpt>
      <trkpt lat="43.52513" lon="6.30249">
        <ele>321.6</ele>
        <time>2023-09-15T13:05:28Z</time>
      </trkpt>
      <trkpt lat="43.52513" lon="6.30249">
        <ele>321.6</ele>
        <time>2023-09-15T13:05:29Z</time>
      </trkpt>
      <trkpt lat="43.52512" lon="6.3025">
        <ele>321.6</ele>
        <time>2023-09-15T13:05:30Z</time>
      </trkpt>
      <trkpt lat="43.52512" lon="6.30251">
        <ele>321.7</ele>
        <time>2023-09-15T13:05:31Z</time>
      </trkpt>
      <trkpt lat="43.52511" lon="6.30251">
        <ele>321.7</ele>
        <time>2023-09-15T13:05:32Z</time>
      </trkpt>
      <trkpt lat="43.52511" lon="6.30251">
        <ele>321.8</ele>
        <time>2023-09-15T13:05:33Z</time>
      </trkpt>
      <trkpt lat="43.52511" lon="6.30252">
        <ele>321.9</ele>
        <time>2023-09-15T13:05:34Z</time>
      </trkpt>
      <trkpt lat="43.52511" lon="6.30252">
        <ele>322</ele>
        <time>2023-09-15T13:05:35Z</time>
      </trkpt>
      <trkpt lat="43.52511" lon="6.30253">
        <ele>322.1</ele>
        <time>2023-09-15T13:05:36Z</time>
      </trkpt>
      <trkpt lat="43.5251" lon="6.30253">
        <ele>322.2</ele>
        <time>2023-09-15T13:05:37Z</time>
      </trkpt>
      <trkpt lat="43.52509" lon="6.30253">
        <ele>322.3</ele>
        <time>2023-09-15T13:05:38Z</time>
      </trkpt>
      <trkpt lat="43.52508" lon="6.30253">
        <ele>322.4</ele>
        <time>2023-09-15T13:05:39Z</time>
      </trkpt>
      <trkpt lat="43.52507" lon="6.30254">
        <ele>322.4</ele>
        <time>2023-09-15T13:05:40Z</time>
      </trkpt>
      <trkpt lat="43.52506" lon="6.30254">
        <ele>322.4</ele>
        <time>2023-09-15T13:05:41Z</time>
      </trkpt>
      <trkpt lat="43.52506" lon="6.30254">
        <ele>322.5</ele>
        <time>2023-09-15T13:05:42Z</time>
      </trkpt>
      <trkpt lat="43.52505" lon="6.30254">
        <ele>322.6</ele>
        <time>2023-09-15T13:05:43Z</time>
      </trkpt>
      <trkpt lat="43.52504" lon="6.30254">
        <ele>322.7</ele>
        <time>2023-09-15T13:05:44Z</time>
      </trkpt>
      <trkpt lat="43.52503" lon="6.30254">
        <ele>322.9</ele>
        <time>2023-09-15T13:05:45Z</time>
      </trkpt>
      <trkpt lat="43.52502" lon="6.30254">
        <ele>322.9</ele>
        <time>2023-09-15T13:05:46Z</time>
      </trkpt>
      <trkpt lat="43.52502" lon="6.30255">
        <ele>323</ele>
        <time>2023-09-15T13:05:47Z</time>
      </trkpt>
      <trkpt lat="43.52501" lon="6.30255">
        <ele>323.2</ele>
        <time>2023-09-15T13:05:48Z</time>
      </trkpt>
      <trkpt lat="43.525" lon="6.30255">
        <ele>323.3</ele>
        <time>2023-09-15T13:05:49Z</time>
      </trkpt>
      <trkpt lat="43.52499" lon="6.30256">
        <ele>323.4</ele>
        <time>2023-09-15T13:05:50Z</time>
      </trkpt>
      <trkpt lat="43.52499" lon="6.30257">
        <ele>323.4</ele>
        <time>2023-09-15T13:05:51Z</time>
      </trkpt>
      <trkpt lat="43.52498" lon="6.30257">
        <ele>323.4</ele>
        <time>2023-09-15T13:05:52Z</time>
      </trkpt>
      <trkpt lat="43.52497" lon="6.30258">
        <ele>323.4</ele>
        <time>2023-09-15T13:05:53Z</time>
      </trkpt>
      <trkpt lat="43.52497" lon="6.30258">
        <ele>323.6</ele>
        <time>2023-09-15T13:05:54Z</time>
      </trkpt>
      <trkpt lat="43.52496" lon="6.30259">
        <ele>323.6</ele>
        <time>2023-09-15T13:05:55Z</time>
      </trkpt>
      <trkpt lat="43.52496" lon="6.30259">
        <ele>323.7</ele>
        <time>2023-09-15T13:05:56Z</time>
      </trkpt>
      <trkpt lat="43.52496" lon="6.3026">
        <ele>323.8</ele>
        <time>2023-09-15T13:05:57Z</time>
      </trkpt>
      <trkpt lat="43.52495" lon="6.3026">
        <ele>323.9</ele>
        <time>2023-09-15T13:05:58Z</time>
      </trkpt>
      <trkpt lat="43.52495" lon="6.30261">
        <ele>324</ele>
        <time>2023-09-15T13:05:59Z</time>
      </trkpt>
      <trkpt lat="43.52495" lon="6.30261">
        <ele>324.1</ele>
        <time>2023-09-15T13:06:00Z</time>
      </trkpt>
      <trkpt lat="43.52494" lon="6.30261">
        <ele>324.2</ele>
        <time>2023-09-15T13:06:01Z</time>
      </trkpt>
      <trkpt lat="43.52494" lon="6.30262">
        <ele>324.3</ele>
        <time>2023-09-15T13:06:02Z</time>
      </trkpt>
      <trkpt lat="43.52493" lon="6.30262">
        <ele>324.4</ele>
        <time>2023-09-15T13:06:03Z</time>
      </trkpt>
      <trkpt lat="43.52493" lon="6.30263">
        <ele>324.6</ele>
        <time>2023-09-15T13:06:04Z</time>
      </trkpt>
      <trkpt lat="43.52492" lon="6.30263">
        <ele>324.8</ele>
        <time>2023-09-15T13:06:05Z</time>
      </trkpt>
      <trkpt lat="43.52492" lon="6.30264">
        <ele>324.9</ele>
        <time>2023-09-15T13:06:06Z</time>
      </trkpt>
      <trkpt lat="43.52491" lon="6.30265">
        <ele>325.1</ele>
        <time>2023-09-15T13:06:07Z</time>
      </trkpt>
      <trkpt lat="43.52491" lon="6.30265">
        <ele>325.2</ele>
        <time>2023-09-15T13:06:08Z</time>
      </trkpt>
      <trkpt lat="43.52491" lon="6.30266">
        <ele>325.3</ele>
        <time>2023-09-15T13:06:09Z</time>
      </trkpt>
      <trkpt lat="43.5249" lon="6.30267">
        <ele>325.4</ele>
        <time>2023-09-15T13:06:10Z</time>
      </trkpt>
      <trkpt lat="43.5249" lon="6.30268">
        <ele>325.5</ele>
        <time>2023-09-15T13:06:11Z</time>
      </trkpt>
      <trkpt lat="43.52489" lon="6.30268">
        <ele>325.6</ele>
        <time>2023-09-15T13:06:12Z</time>
      </trkpt>
      <trkpt lat="43.52489" lon="6.30268">
        <ele>325.8</ele>
        <time>2023-09-15T13:06:13Z</time>
      </trkpt>
      <trkpt lat="43.52488" lon="6.30269">
        <ele>325.9</ele>
        <time>2023-09-15T13:06:14Z</time>
      </trkpt>
      <trkpt lat="43.52487" lon="6.3027">
        <ele>326</ele>
        <time>2023-09-15T13:06:15Z</time>
      </trkpt>
      <trkpt lat="43.52486" lon="6.30271">
        <ele>326.2</ele>
        <time>2023-09-15T13:06:16Z</time>
      </trkpt>
      <trkpt lat="43.52486" lon="6.30272">
        <ele>326.3</ele>
        <time>2023-09-15T13:06:17Z</time>
      </trkpt>
      <trkpt lat="43.52486" lon="6.30272">
        <ele>326.4</ele>
        <time>2023-09-15T13:06:18Z</time>
      </trkpt>
      <trkpt lat="43.52485" lon="6.30273">
        <ele>326.5</ele>
        <time>2023-09-15T13:06:19Z</time>
      </trkpt>
      <trkpt lat="43.52485" lon="6.30274">
        <ele>326.6</ele>
        <time>2023-09-15T13:06:20Z</time>
      </trkpt>
      <trkpt lat="43.52484" lon="6.30274">
        <ele>326.7</ele>
        <time>2023-09-15T13:06:21Z</time>
      </trkpt>
      <trkpt lat="43.52483" lon="6.30275">
        <ele>326.7</ele>
        <time>2023-09-15T13:06:22Z</time>
      </trkpt>
      <trkpt lat="43.52483" lon="6.30275">
        <ele>326.9</ele>
        <time>2023-09-15T13:06:23Z</time>
      </trkpt>
      <trkpt lat="43.52483" lon="6.30276">
        <ele>327.1</ele>
        <time>2023-09-15T13:06:24Z</time>
      </trkpt>
      <trkpt lat="43.52482" lon="6.30277">
        <ele>327.2</ele>
        <time>2023-09-15T13:06:25Z</time>
      </trkpt>
      <trkpt lat="43.52482" lon="6.30277">
        <ele>327.2</ele>
        <time>2023-09-15T13:06:26Z</time>
      </trkpt>
      <trkpt lat="43.52481" lon="6.30278">
        <ele>327.3</ele>
        <time>2023-09-15T13:06:27Z</time>
      </trkpt>
      <trkpt lat="43.52481" lon="6.30279">
        <ele>327.4</ele>
        <time>2023-09-15T13:06:28Z</time>
      </trkpt>
      <trkpt lat="43.5248" lon="6.30279">
        <ele>327.5</ele>
        <time>2023-09-15T13:06:29Z</time>
      </trkpt>
      <trkpt lat="43.52479" lon="6.3028">
        <ele>327.6</ele>
        <time>2023-09-15T13:06:30Z</time>
      </trkpt>
      <trkpt lat="43.52478" lon="6.3028">
        <ele>327.7</ele>
        <time>2023-09-15T13:06:31Z</time>
      </trkpt>
      <trkpt lat="43.52478" lon="6.30282">
        <ele>327.8</ele>
        <time>2023-09-15T13:06:32Z</time>
      </trkpt>
      <trkpt lat="43.52477" lon="6.30283">
        <ele>327.9</ele>
        <time>2023-09-15T13:06:33Z</time>
      </trkpt>
      <trkpt lat="43.52476" lon="6.30283">
        <ele>328</ele>
        <time>2023-09-15T13:06:34Z</time>
      </trkpt>
      <trkpt lat="43.52476" lon="6.30285">
        <ele>328.1</ele>
        <time>2023-09-15T13:06:35Z</time>
      </trkpt>
      <trkpt lat="43.52476" lon="6.30286">
        <ele>328.3</ele>
        <time>2023-09-15T13:06:36Z</time>
      </trkpt>
      <trkpt lat="43.52475" lon="6.30286">
        <ele>328.4</ele>
        <time>2023-09-15T13:06:37Z</time>
      </trkpt>
      <trkpt lat="43.52475" lon="6.30286">
        <ele>328.4</ele>
        <time>2023-09-15T13:06:38Z</time>
      </trkpt>
      <trkpt lat="43.52474" lon="6.30286">
        <ele>328.6</ele>
        <time>2023-09-15T13:06:39Z</time>
      </trkpt>
      <trkpt lat="43.52473" lon="6.30287">
        <ele>328.6</ele>
        <time>2023-09-15T13:06:40Z</time>
      </trkpt>
      <trkpt lat="43.52472" lon="6.30287">
        <ele>328.7</ele>
        <time>2023-09-15T13:06:41Z</time>
      </trkpt>
      <trkpt lat="43.52472" lon="6.30288">
        <ele>328.7</ele>
        <time>2023-09-15T13:06:42Z</time>
      </trkpt>
      <trkpt lat="43.52472" lon="6.30289">
        <ele>328.8</ele>
        <time>2023-09-15T13:06:43Z</time>
      </trkpt>
      <trkpt lat="43.52471" lon="6.30289">
        <ele>329</ele>
        <time>2023-09-15T13:06:44Z</time>
      </trkpt>
      <trkpt lat="43.52471" lon="6.3029">
        <ele>329.1</ele>
        <time>2023-09-15T13:06:45Z</time>
      </trkpt>
      <trkpt lat="43.5247" lon="6.30291">
        <ele>329.1</ele>
        <time>2023-09-15T13:06:46Z</time>
      </trkpt>
      <trkpt lat="43.5247" lon="6.30292">
        <ele>329.2</ele>
        <time>2023-09-15T13:06:47Z</time>
      </trkpt>
      <trkpt lat="43.52469" lon="6.30292">
        <ele>329.4</ele>
        <time>2023-09-15T13:06:48Z</time>
      </trkpt>
      <trkpt lat="43.52468" lon="6.30291">
        <ele>329.5</ele>
        <time>2023-09-15T13:06:49Z</time>
      </trkpt>
      <trkpt lat="43.52467" lon="6.30292">
        <ele>329.6</ele>
        <time>2023-09-15T13:06:50Z</time>
      </trkpt>
      <trkpt lat="43.52467" lon="6.30292">
        <ele>329.7</ele>
        <time>2023-09-15T13:06:51Z</time>
      </trkpt>
      <trkpt lat="43.52467" lon="6.30294">
        <ele>329.7</ele>
        <time>2023-09-15T13:06:52Z</time>
      </trkpt>
      <trkpt lat="43.52466" lon="6.30294">
        <ele>329.8</ele>
        <time>2023-09-15T13:06:53Z</time>
      </trkpt>
      <trkpt lat="43.52465" lon="6.30295">
        <ele>329.9</ele>
        <time>2023-09-15T13:06:54Z</time>
      </trkpt>
      <trkpt lat="43.52465" lon="6.30295">
        <ele>330</ele>
        <time>2023-09-15T13:06:55Z</time>
      </trkpt>
      <trkpt lat="43.52464" lon="6.30296">
        <ele>330.2</ele>
        <time>2023-09-15T13:06:56Z</time>
      </trkpt>
      <trkpt lat="43.52464" lon="6.30297">
        <ele>330.3</ele>
        <time>2023-09-15T13:06:57Z</time>
      </trkpt>
      <trkpt lat="43.52463" lon="6.30297">
        <ele>330.4</ele>
        <time>2023-09-15T13:06:58Z</time>
      </trkpt>
      <trkpt lat="43.52463" lon="6.30298">
        <ele>330.5</ele>
        <time>2023-09-15T13:06:59Z</time>
      </trkpt>
      <trkpt lat="43.52462" lon="6.30299">
        <ele>330.7</ele>
        <time>2023-09-15T13:07:00Z</time>
      </trkpt>
      <trkpt lat="43.52461" lon="6.303">
        <ele>330.8</ele>
        <time>2023-09-15T13:07:01Z</time>
      </trkpt>
      <trkpt lat="43.52461" lon="6.303">
        <ele>330.8</ele>
        <time>2023-09-15T13:07:02Z</time>
      </trkpt>
      <trkpt lat="43.52461" lon="6.30302">
        <ele>330.9</ele>
        <time>2023-09-15T13:07:03Z</time>
      </trkpt>
      <trkpt lat="43.5246" lon="6.30303">
        <ele>331</ele>
        <time>2023-09-15T13:07:04Z</time>
      </trkpt>
      <trkpt lat="43.52459" lon="6.30303">
        <ele>331.1</ele>
        <time>2023-09-15T13:07:05Z</time>
      </trkpt>
      <trkpt lat="43.52459" lon="6.30304">
        <ele>331.3</ele>
        <time>2023-09-15T13:07:06Z</time>
      </trkpt>
      <trkpt lat="43.52459" lon="6.30306">
        <ele>331.4</ele>
        <time>2023-09-15T13:07:07Z</time>
      </trkpt>
      <trkpt lat="43.52458" lon="6.30306">
        <ele>331.5</ele>
        <time>2023-09-15T13:07:08Z</time>
      </trkpt>
      <trkpt lat="43.52458" lon="6.30307">
        <ele>331.7</ele>
        <time>2023-09-15T13:07:09Z</time>
      </trkpt>
      <trkpt lat="43.52458" lon="6.30308">
        <ele>331.8</ele>
        <time>2023-09-15T13:07:10Z</time>
      </trkpt>
      <trkpt lat="43.52457" lon="6.30309">
        <ele>331.8</ele>
        <time>2023-09-15T13:07:11Z</time>
      </trkpt>
      <trkpt lat="43.52457" lon="6.3031">
        <ele>331.9</ele>
        <time>2023-09-15T13:07:12Z</time>
      </trkpt>
      <trkpt lat="43.52456" lon="6.3031">
        <ele>331.9</ele>
        <time>2023-09-15T13:07:13Z</time>
      </trkpt>
      <trkpt lat="43.52456" lon="6.30311">
        <ele>331.9</ele>
        <time>2023-09-15T13:07:14Z</time>
      </trkpt>
      <trkpt lat="43.52455" lon="6.30312">
        <ele>331.9</ele>
        <time>2023-09-15T13:07:15Z</time>
      </trkpt>
      <trkpt lat="43.52455" lon="6.30313">
        <ele>331.9</ele>
        <time>2023-09-15T13:07:16Z</time>
      </trkpt>
      <trkpt lat="43.52454" lon="6.30314">
        <ele>331.9</ele>
        <time>2023-09-15T13:07:17Z</time>
      </trkpt>
      <trkpt lat="43.52454" lon="6.30315">
        <ele>331.9</ele>
        <time>2023-09-15T13:07:18Z</time>
      </trkpt>
      <trkpt lat="43.52453" lon="6.30316">
        <ele>332</ele>
        <time>2023-09-15T13:07:19Z</time>
      </trkpt>
      <trkpt lat="43.52453" lon="6.30316">
        <ele>332</ele>
        <time>2023-09-15T13:07:20Z</time>
      </trkpt>
      <trkpt lat="43.52452" lon="6.30317">
        <ele>332.1</ele>
        <time>2023-09-15T13:07:21Z</time>
      </trkpt>
      <trkpt lat="43.52452" lon="6.30318">
        <ele>332.1</ele>
        <time>2023-09-15T13:07:22Z</time>
      </trkpt>
      <trkpt lat="43.52451" lon="6.30319">
        <ele>332.2</ele>
        <time>2023-09-15T13:07:23Z</time>
      </trkpt>
      <trkpt lat="43.52451" lon="6.3032">
        <ele>332.3</ele>
        <time>2023-09-15T13:07:24Z</time>
      </trkpt>
      <trkpt lat="43.5245" lon="6.3032">
        <ele>332.3</ele>
        <time>2023-09-15T13:07:25Z</time>
      </trkpt>
      <trkpt lat="43.52449" lon="6.30321">
        <ele>332.4</ele>
        <time>2023-09-15T13:07:26Z</time>
      </trkpt>
      <trkpt lat="43.52449" lon="6.30321">
        <ele>332.6</ele>
        <time>2023-09-15T13:07:27Z</time>
      </trkpt>
      <trkpt lat="43.52448" lon="6.30322">
        <ele>332.6</ele>
        <time>2023-09-15T13:07:28Z</time>
      </trkpt>
      <trkpt lat="43.52448" lon="6.30323">
        <ele>332.7</ele>
        <time>2023-09-15T13:07:29Z</time>
      </trkpt>
      <trkpt lat="43.52447" lon="6.30323">
        <ele>332.8</ele>
        <time>2023-09-15T13:07:30Z</time>
      </trkpt>
      <trkpt lat="43.52447" lon="6.30324">
        <ele>332.8</ele>
        <time>2023-09-15T13:07:31Z</time>
      </trkpt>
      <trkpt lat="43.52446" lon="6.30325">
        <ele>333</ele>
        <time>2023-09-15T13:07:32Z</time>
      </trkpt>
      <trkpt lat="43.52446" lon="6.30326">
        <ele>333.1</ele>
        <time>2023-09-15T13:07:33Z</time>
      </trkpt>
      <trkpt lat="43.52445" lon="6.30327">
        <ele>333.1</ele>
        <time>2023-09-15T13:07:34Z</time>
      </trkpt>
      <trkpt lat="43.52445" lon="6.30327">
        <ele>333.2</ele>
        <time>2023-09-15T13:07:35Z</time>
      </trkpt>
      <trkpt lat="43.52444" lon="6.30328">
        <ele>333.3</ele>
        <time>2023-09-15T13:07:36Z</time>
      </trkpt>
      <trkpt lat="43.52443" lon="6.30329">
        <ele>333.3</ele>
        <time>2023-09-15T13:07:37Z</time>
      </trkpt>
      <trkpt lat="43.52443" lon="6.3033">
        <ele>333.3</ele>
        <time>2023-09-15T13:07:38Z</time>
      </trkpt>
      <trkpt lat="43.52443" lon="6.3033">
        <ele>333.4</ele>
        <time>2023-09-15T13:07:39Z</time>
      </trkpt>
      <trkpt lat="43.52442" lon="6.30331">
        <ele>333.4</ele>
        <time>2023-09-15T13:07:40Z</time>
      </trkpt>
      <trkpt lat="43.52442" lon="6.30331">
        <ele>333.4</ele>
        <time>2023-09-15T13:07:41Z</time>
      </trkpt>
      <trkpt lat="43.52442" lon="6.30331">
        <ele>333.6</ele>
        <time>2023-09-15T13:07:42Z</time>
      </trkpt>
      <trkpt lat="43.52442" lon="6.30331">
        <ele>333.7</ele>
        <time>2023-09-15T13:07:43Z</time>
      </trkpt>
      <trkpt lat="43.52442" lon="6.30332">
        <ele>334.1</ele>
        <time>2023-09-15T13:07:44Z</time>
      </trkpt>
      <trkpt lat="43.52442" lon="6.30334">
        <ele>334.1</ele>
        <time>2023-09-15T13:07:45Z</time>
      </trkpt>
      <trkpt lat="43.52442" lon="6.30334">
        <ele>334.1</ele>
        <time>2023-09-15T13:07:46Z</time>
      </trkpt>
      <trkpt lat="43.52442" lon="6.30335">
        <ele>334</ele>
        <time>2023-09-15T13:07:47Z</time>
      </trkpt>
      <trkpt lat="43.52442" lon="6.30336">
        <ele>333.9</ele>
        <time>2023-09-15T13:07:48Z</time>
      </trkpt>
      <trkpt lat="43.52442" lon="6.30336">
        <ele>333.7</ele>
        <time>2023-09-15T13:07:49Z</time>
      </trkpt>
      <trkpt lat="43.52443" lon="6.30337">
        <ele>333.7</ele>
        <time>2023-09-15T13:07:50Z</time>
      </trkpt>
      <trkpt lat="43.52443" lon="6.30338">
        <ele>333.7</ele>
        <time>2023-09-15T13:07:51Z</time>
      </trkpt>
      <trkpt lat="43.52443" lon="6.30338">
        <ele>333.7</ele>
        <time>2023-09-15T13:07:52Z</time>
      </trkpt>
      <trkpt lat="43.52443" lon="6.30338">
        <ele>333.7</ele>
        <time>2023-09-15T13:07:53Z</time>
      </trkpt>
      <trkpt lat="43.52443" lon="6.30339">
        <ele>333.7</ele>
        <time>2023-09-15T13:07:54Z</time>
      </trkpt>
      <trkpt lat="43.52443" lon="6.30339">
        <ele>333.6</ele>
        <time>2023-09-15T13:07:55Z</time>
      </trkpt>
      <trkpt lat="43.52443" lon="6.30339">
        <ele>333.6</ele>
        <time>2023-09-15T13:07:56Z</time>
      </trkpt>
      <trkpt lat="43.52443" lon="6.30341">
        <ele>333.5</ele>
        <time>2023-09-15T13:07:57Z</time>
      </trkpt>
      <trkpt lat="43.52443" lon="6.30342">
        <ele>333.4</ele>
        <time>2023-09-15T13:07:58Z</time>
      </trkpt>
      <trkpt lat="43.52442" lon="6.30343">
        <ele>333.3</ele>
        <time>2023-09-15T13:07:59Z</time>
      </trkpt>
      <trkpt lat="43.52442" lon="6.30344">
        <ele>333.2</ele>
        <time>2023-09-15T13:08:00Z</time>
      </trkpt>
      <trkpt lat="43.52441" lon="6.30345">
        <ele>333.1</ele>
        <time>2023-09-15T13:08:01Z</time>
      </trkpt>
      <trkpt lat="43.52441" lon="6.30346">
        <ele>333</ele>
        <time>2023-09-15T13:08:02Z</time>
      </trkpt>
      <trkpt lat="43.5244" lon="6.30346">
        <ele>333</ele>
        <time>2023-09-15T13:08:03Z</time>
      </trkpt>
      <trkpt lat="43.5244" lon="6.30347">
        <ele>333</ele>
        <time>2023-09-15T13:08:04Z</time>
      </trkpt>
      <trkpt lat="43.5244" lon="6.30347">
        <ele>332.9</ele>
        <time>2023-09-15T13:08:05Z</time>
      </trkpt>
      <trkpt lat="43.52439" lon="6.30348">
        <ele>332.9</ele>
        <time>2023-09-15T13:08:06Z</time>
      </trkpt>
      <trkpt lat="43.52439" lon="6.30349">
        <ele>332.8</ele>
        <time>2023-09-15T13:08:07Z</time>
      </trkpt>
      <trkpt lat="43.52439" lon="6.30349">
        <ele>332.8</ele>
        <time>2023-09-15T13:08:08Z</time>
      </trkpt>
      <trkpt lat="43.52438" lon="6.3035">
        <ele>332.6</ele>
        <time>2023-09-15T13:08:09Z</time>
      </trkpt>
      <trkpt lat="43.52438" lon="6.30351">
        <ele>332.6</ele>
        <time>2023-09-15T13:08:10Z</time>
      </trkpt>
      <trkpt lat="43.52437" lon="6.30351">
        <ele>332.7</ele>
        <time>2023-09-15T13:08:11Z</time>
      </trkpt>
      <trkpt lat="43.52437" lon="6.30352">
        <ele>332.7</ele>
        <time>2023-09-15T13:08:12Z</time>
      </trkpt>
      <trkpt lat="43.52437" lon="6.30352">
        <ele>332.6</ele>
        <time>2023-09-15T13:08:13Z</time>
      </trkpt>
      <trkpt lat="43.52437" lon="6.30352">
        <ele>332.6</ele>
        <time>2023-09-15T13:08:14Z</time>
      </trkpt>
      <trkpt lat="43.52436" lon="6.30353">
        <ele>332.6</ele>
        <time>2023-09-15T13:08:15Z</time>
      </trkpt>
      <trkpt lat="43.52436" lon="6.30353">
        <ele>332.5</ele>
        <time>2023-09-15T13:08:16Z</time>
      </trkpt>
      <trkpt lat="43.52436" lon="6.30354">
        <ele>332.5</ele>
        <time>2023-09-15T13:08:17Z</time>
      </trkpt>
      <trkpt lat="43.52436" lon="6.30355">
        <ele>332.4</ele>
        <time>2023-09-15T13:08:18Z</time>
      </trkpt>
      <trkpt lat="43.52435" lon="6.30355">
        <ele>332.4</ele>
        <time>2023-09-15T13:08:19Z</time>
      </trkpt>
      <trkpt lat="43.52435" lon="6.30356">
        <ele>332.3</ele>
        <time>2023-09-15T13:08:20Z</time>
      </trkpt>
      <trkpt lat="43.52435" lon="6.30357">
        <ele>332.2</ele>
        <time>2023-09-15T13:08:21Z</time>
      </trkpt>
      <trkpt lat="43.52434" lon="6.30358">
        <ele>332.2</ele>
        <time>2023-09-15T13:08:22Z</time>
      </trkpt>
      <trkpt lat="43.52434" lon="6.30358">
        <ele>331.9</ele>
        <time>2023-09-15T13:08:23Z</time>
      </trkpt>
      <trkpt lat="43.52433" lon="6.30358">
        <ele>331.8</ele>
        <time>2023-09-15T13:08:24Z</time>
      </trkpt>
      <trkpt lat="43.52433" lon="6.30358">
        <ele>331.6</ele>
        <time>2023-09-15T13:08:25Z</time>
      </trkpt>
      <trkpt lat="43.52432" lon="6.30359">
        <ele>331.7</ele>
        <time>2023-09-15T13:08:26Z</time>
      </trkpt>
      <trkpt lat="43.52432" lon="6.3036">
        <ele>331.7</ele>
        <time>2023-09-15T13:08:27Z</time>
      </trkpt>
      <trkpt lat="43.52431" lon="6.30361">
        <ele>331.4</ele>
        <time>2023-09-15T13:08:28Z</time>
      </trkpt>
      <trkpt lat="43.52431" lon="6.30361">
        <ele>331.4</ele>
        <time>2023-09-15T13:08:29Z</time>
      </trkpt>
      <trkpt lat="43.52431" lon="6.30361">
        <ele>331.3</ele>
        <time>2023-09-15T13:08:30Z</time>
      </trkpt>
      <trkpt lat="43.5243" lon="6.30362">
        <ele>331.2</ele>
        <time>2023-09-15T13:08:31Z</time>
      </trkpt>
      <trkpt lat="43.5243" lon="6.30363">
        <ele>331.1</ele>
        <time>2023-09-15T13:08:32Z</time>
      </trkpt>
      <trkpt lat="43.5243" lon="6.30363">
        <ele>331.1</ele>
        <time>2023-09-15T13:08:33Z</time>
      </trkpt>
      <trkpt lat="43.52429" lon="6.30364">
        <ele>331.1</ele>
        <time>2023-09-15T13:08:34Z</time>
      </trkpt>
      <trkpt lat="43.52429" lon="6.30364">
        <ele>331.1</ele>
        <time>2023-09-15T13:08:35Z</time>
      </trkpt>
      <trkpt lat="43.52429" lon="6.30365">
        <ele>331</ele>
        <time>2023-09-15T13:08:36Z</time>
      </trkpt>
      <trkpt lat="43.52428" lon="6.30365">
        <ele>330.9</ele>
        <time>2023-09-15T13:08:37Z</time>
      </trkpt>
      <trkpt lat="43.52428" lon="6.30366">
        <ele>330.8</ele>
        <time>2023-09-15T13:08:38Z</time>
      </trkpt>
      <trkpt lat="43.52427" lon="6.30366">
        <ele>330.7</ele>
        <time>2023-09-15T13:08:39Z</time>
      </trkpt>
      <trkpt lat="43.52427" lon="6.30367">
        <ele>330.6</ele>
        <time>2023-09-15T13:08:40Z</time>
      </trkpt>
      <trkpt lat="43.52426" lon="6.30367">
        <ele>330.4</ele>
        <time>2023-09-15T13:08:41Z</time>
      </trkpt>
      <trkpt lat="43.52426" lon="6.30368">
        <ele>330.3</ele>
        <time>2023-09-15T13:08:42Z</time>
      </trkpt>
      <trkpt lat="43.52425" lon="6.30368">
        <ele>330.1</ele>
        <time>2023-09-15T13:08:43Z</time>
      </trkpt>
      <trkpt lat="43.52425" lon="6.30369">
        <ele>330.1</ele>
        <time>2023-09-15T13:08:44Z</time>
      </trkpt>
      <trkpt lat="43.52425" lon="6.3037">
        <ele>330.1</ele>
        <time>2023-09-15T13:08:45Z</time>
      </trkpt>
      <trkpt lat="43.52425" lon="6.30371">
        <ele>329.9</ele>
        <time>2023-09-15T13:08:46Z</time>
      </trkpt>
      <trkpt lat="43.52425" lon="6.30372">
        <ele>330</ele>
        <time>2023-09-15T13:08:47Z</time>
      </trkpt>
      <trkpt lat="43.52425" lon="6.30373">
        <ele>329.9</ele>
        <time>2023-09-15T13:08:48Z</time>
      </trkpt>
      <trkpt lat="43.52425" lon="6.30374">
        <ele>329.8</ele>
        <time>2023-09-15T13:08:49Z</time>
      </trkpt>
      <trkpt lat="43.52425" lon="6.30374">
        <ele>329.7</ele>
        <time>2023-09-15T13:08:50Z</time>
      </trkpt>
      <trkpt lat="43.52425" lon="6.30375">
        <ele>329.6</ele>
        <time>2023-09-15T13:08:51Z</time>
      </trkpt>
      <trkpt lat="43.52424" lon="6.30376">
        <ele>329.4</ele>
        <time>2023-09-15T13:08:52Z</time>
      </trkpt>
      <trkpt lat="43.52424" lon="6.30377">
        <ele>329.2</ele>
        <time>2023-09-15T13:08:53Z</time>
      </trkpt>
      <trkpt lat="43.52424" lon="6.30378">
        <ele>329.2</ele>
        <time>2023-09-15T13:08:54Z</time>
      </trkpt>
      <trkpt lat="43.52424" lon="6.30379">
        <ele>329.1</ele>
        <time>2023-09-15T13:08:55Z</time>
      </trkpt>
      <trkpt lat="43.52423" lon="6.30379">
        <ele>329.1</ele>
        <time>2023-09-15T13:08:56Z</time>
      </trkpt>
      <trkpt lat="43.52423" lon="6.3038">
        <ele>329</ele>
        <time>2023-09-15T13:08:57Z</time>
      </trkpt>
      <trkpt lat="43.52423" lon="6.30381">
        <ele>328.8</ele>
        <time>2023-09-15T13:08:58Z</time>
      </trkpt>
      <trkpt lat="43.52422" lon="6.30382">
        <ele>328.7</ele>
        <time>2023-09-15T13:08:59Z</time>
      </trkpt>
      <trkpt lat="43.52422" lon="6.30383">
        <ele>328.6</ele>
        <time>2023-09-15T13:09:00Z</time>
      </trkpt>
      <trkpt lat="43.52422" lon="6.30384">
        <ele>328.5</ele>
        <time>2023-09-15T13:09:01Z</time>
      </trkpt>
      <trkpt lat="43.52423" lon="6.30385">
        <ele>328.3</ele>
        <time>2023-09-15T13:09:02Z</time>
      </trkpt>
      <trkpt lat="43.52423" lon="6.30385">
        <ele>328.2</ele>
        <time>2023-09-15T13:09:03Z</time>
      </trkpt>
      <trkpt lat="43.52422" lon="6.30385">
        <ele>328.1</ele>
        <time>2023-09-15T13:09:04Z</time>
      </trkpt>
      <trkpt lat="43.52422" lon="6.30386">
        <ele>328</ele>
        <time>2023-09-15T13:09:05Z</time>
      </trkpt>
      <trkpt lat="43.52422" lon="6.30386">
        <ele>327.9</ele>
        <time>2023-09-15T13:09:06Z</time>
      </trkpt>
      <trkpt lat="43.52421" lon="6.30387">
        <ele>327.8</ele>
        <time>2023-09-15T13:09:07Z</time>
      </trkpt>
      <trkpt lat="43.52421" lon="6.30388">
        <ele>327.7</ele>
        <time>2023-09-15T13:09:08Z</time>
      </trkpt>
      <trkpt lat="43.52421" lon="6.30388">
        <ele>327.6</ele>
        <time>2023-09-15T13:09:09Z</time>
      </trkpt>
      <trkpt lat="43.5242" lon="6.30389">
        <ele>327.6</ele>
        <time>2023-09-15T13:09:10Z</time>
      </trkpt>
      <trkpt lat="43.5242" lon="6.3039">
        <ele>327.5</ele>
        <time>2023-09-15T13:09:11Z</time>
      </trkpt>
      <trkpt lat="43.5242" lon="6.3039">
        <ele>327.5</ele>
        <time>2023-09-15T13:09:12Z</time>
      </trkpt>
      <trkpt lat="43.52419" lon="6.30391">
        <ele>327.4</ele>
        <time>2023-09-15T13:09:13Z</time>
      </trkpt>
      <trkpt lat="43.52419" lon="6.30392">
        <ele>327.3</ele>
        <time>2023-09-15T13:09:14Z</time>
      </trkpt>
      <trkpt lat="43.52419" lon="6.30392">
        <ele>327.2</ele>
        <time>2023-09-15T13:09:15Z</time>
      </trkpt>
      <trkpt lat="43.52418" lon="6.30393">
        <ele>327</ele>
        <time>2023-09-15T13:09:16Z</time>
      </trkpt>
      <trkpt lat="43.52418" lon="6.30393">
        <ele>326.9</ele>
        <time>2023-09-15T13:09:17Z</time>
      </trkpt>
      <trkpt lat="43.52417" lon="6.30394">
        <ele>326.9</ele>
        <time>2023-09-15T13:09:18Z</time>
      </trkpt>
      <trkpt lat="43.52417" lon="6.30395">
        <ele>326.7</ele>
        <time>2023-09-15T13:09:19Z</time>
      </trkpt>
      <trkpt lat="43.52416" lon="6.30395">
        <ele>326.5</ele>
        <time>2023-09-15T13:09:20Z</time>
      </trkpt>
      <trkpt lat="43.52416" lon="6.30396">
        <ele>326.4</ele>
        <time>2023-09-15T13:09:21Z</time>
      </trkpt>
      <trkpt lat="43.52416" lon="6.30396">
        <ele>326.3</ele>
        <time>2023-09-15T13:09:22Z</time>
      </trkpt>
      <trkpt lat="43.52415" lon="6.30396">
        <ele>326.2</ele>
        <time>2023-09-15T13:09:23Z</time>
      </trkpt>
      <trkpt lat="43.52415" lon="6.30397">
        <ele>326.1</ele>
        <time>2023-09-15T13:09:24Z</time>
      </trkpt>
      <trkpt lat="43.52415" lon="6.30397">
        <ele>326</ele>
        <time>2023-09-15T13:09:25Z</time>
      </trkpt>
      <trkpt lat="43.52415" lon="6.30397">
        <ele>325.9</ele>
        <time>2023-09-15T13:09:26Z</time>
      </trkpt>
      <trkpt lat="43.52415" lon="6.30396">
        <ele>325.8</ele>
        <time>2023-09-15T13:09:27Z</time>
      </trkpt>
      <trkpt lat="43.52415" lon="6.30396">
        <ele>325.7</ele>
        <time>2023-09-15T13:09:28Z</time>
      </trkpt>
      <trkpt lat="43.52415" lon="6.30396">
        <ele>325.6</ele>
        <time>2023-09-15T13:09:29Z</time>
      </trkpt>
      <trkpt lat="43.52414" lon="6.30395">
        <ele>325.5</ele>
        <time>2023-09-15T13:09:30Z</time>
      </trkpt>
      <trkpt lat="43.52414" lon="6.30395">
        <ele>325.5</ele>
        <time>2023-09-15T13:09:31Z</time>
      </trkpt>
      <trkpt lat="43.52414" lon="6.30395">
        <ele>325.4</ele>
        <time>2023-09-15T13:09:32Z</time>
      </trkpt>
      <trkpt lat="43.52414" lon="6.30395">
        <ele>325.4</ele>
        <time>2023-09-15T13:09:33Z</time>
      </trkpt>
      <trkpt lat="43.52414" lon="6.30395">
        <ele>325.4</ele>
        <time>2023-09-15T13:09:34Z</time>
      </trkpt>
      <trkpt lat="43.52414" lon="6.30395">
        <ele>325.4</ele>
        <time>2023-09-15T13:09:35Z</time>
      </trkpt>
      <trkpt lat="43.52414" lon="6.30394">
        <ele>325.4</ele>
        <time>2023-09-15T13:09:36Z</time>
      </trkpt>
      <trkpt lat="43.52414" lon="6.30394">
        <ele>325.3</ele>
        <time>2023-09-15T13:09:37Z</time>
      </trkpt>
      <trkpt lat="43.52414" lon="6.30394">
        <ele>325.3</ele>
        <time>2023-09-15T13:09:38Z</time>
      </trkpt>
      <trkpt lat="43.52414" lon="6.30395">
        <ele>325.3</ele>
        <time>2023-09-15T13:09:39Z</time>
      </trkpt>
      <trkpt lat="43.52414" lon="6.30395">
        <ele>325.3</ele>
        <time>2023-09-15T13:09:40Z</time>
      </trkpt>
      <trkpt lat="43.52414" lon="6.30395">
        <ele>325.3</ele>
        <time>2023-09-15T13:09:41Z</time>
      </trkpt>
      <trkpt lat="43.52414" lon="6.30395">
        <ele>325.2</ele>
        <time>2023-09-15T13:09:42Z</time>
      </trkpt>
      <trkpt lat="43.52414" lon="6.30395">
        <ele>325.4</ele>
        <time>2023-09-15T13:09:43Z</time>
      </trkpt>
      <trkpt lat="43.52414" lon="6.30395">
        <ele>325.4</ele>
        <time>2023-09-15T13:09:44Z</time>
      </trkpt>
      <trkpt lat="43.52414" lon="6.30394">
        <ele>325.4</ele>
        <time>2023-09-15T13:09:45Z</time>
      </trkpt>
      <trkpt lat="43.52414" lon="6.30394">
        <ele>325.4</ele>
        <time>2023-09-15T13:09:46Z</time>
      </trkpt>
      <trkpt lat="43.52414" lon="6.30394">
        <ele>325.4</ele>
        <time>2023-09-15T13:09:47Z</time>
      </trkpt>
      <trkpt lat="43.52414" lon="6.30394">
        <ele>325.4</ele>
        <time>2023-09-15T13:09:48Z</time>
      </trkpt>
      <trkpt lat="43.52414" lon="6.30394">
        <ele>325.5</ele>
        <time>2023-09-15T13:09:49Z</time>
      </trkpt>
      <trkpt lat="43.52414" lon="6.30395">
        <ele>325.5</ele>
        <time>2023-09-15T13:09:50Z</time>
      </trkpt>
      <trkpt lat="43.52415" lon="6.30394">
        <ele>325.5</ele>
        <time>2023-09-15T13:09:51Z</time>
      </trkpt>
      <trkpt lat="43.52415" lon="6.30395">
        <ele>325.5</ele>
        <time>2023-09-15T13:09:52Z</time>
      </trkpt>
      <trkpt lat="43.52414" lon="6.30394">
        <ele>325.5</ele>
        <time>2023-09-15T13:09:53Z</time>
      </trkpt>
      <trkpt lat="43.52414" lon="6.30395">
        <ele>325.5</ele>
        <time>2023-09-15T13:09:54Z</time>
      </trkpt>
      <trkpt lat="43.52414" lon="6.30395">
        <ele>325.4</ele>
        <time>2023-09-15T13:09:55Z</time>
      </trkpt>
      <trkpt lat="43.52414" lon="6.30398">
        <ele>325.4</ele>
        <time>2023-09-15T13:09:56Z</time>
      </trkpt>
      <trkpt lat="43.52414" lon="6.30399">
        <ele>325.4</ele>
        <time>2023-09-15T13:09:57Z</time>
      </trkpt>
      <trkpt lat="43.52413" lon="6.304">
        <ele>325.4</ele>
        <time>2023-09-15T13:09:58Z</time>
      </trkpt>
      <trkpt lat="43.52413" lon="6.30401">
        <ele>325.3</ele>
        <time>2023-09-15T13:09:59Z</time>
      </trkpt>
      <trkpt lat="43.52412" lon="6.30402">
        <ele>325.3</ele>
        <time>2023-09-15T13:10:00Z</time>
      </trkpt>
      <trkpt lat="43.52411" lon="6.30403">
        <ele>325.2</ele>
        <time>2023-09-15T13:10:01Z</time>
      </trkpt>
      <trkpt lat="43.5241" lon="6.30404">
        <ele>325.1</ele>
        <time>2023-09-15T13:10:02Z</time>
      </trkpt>
      <trkpt lat="43.5241" lon="6.30405">
        <ele>324.9</ele>
        <time>2023-09-15T13:10:03Z</time>
      </trkpt>
      <trkpt lat="43.52409" lon="6.30405">
        <ele>324.8</ele>
        <time>2023-09-15T13:10:04Z</time>
      </trkpt>
      <trkpt lat="43.52408" lon="6.30406">
        <ele>324.6</ele>
        <time>2023-09-15T13:10:05Z</time>
      </trkpt>
      <trkpt lat="43.52408" lon="6.30406">
        <ele>324.4</ele>
        <time>2023-09-15T13:10:06Z</time>
      </trkpt>
      <trkpt lat="43.52407" lon="6.30406">
        <ele>324.2</ele>
        <time>2023-09-15T13:10:07Z</time>
      </trkpt>
      <trkpt lat="43.52406" lon="6.30407">
        <ele>324</ele>
        <time>2023-09-15T13:10:08Z</time>
      </trkpt>
      <trkpt lat="43.52405" lon="6.30408">
        <ele>323.6</ele>
        <time>2023-09-15T13:10:09Z</time>
      </trkpt>
      <trkpt lat="43.52404" lon="6.30409">
        <ele>323.5</ele>
        <time>2023-09-15T13:10:10Z</time>
      </trkpt>
      <trkpt lat="43.52404" lon="6.3041">
        <ele>323.3</ele>
        <time>2023-09-15T13:10:11Z</time>
      </trkpt>
      <trkpt lat="43.52403" lon="6.3041">
        <ele>323.1</ele>
        <time>2023-09-15T13:10:12Z</time>
      </trkpt>
      <trkpt lat="43.52402" lon="6.30411">
        <ele>322.9</ele>
        <time>2023-09-15T13:10:13Z</time>
      </trkpt>
      <trkpt lat="43.52402" lon="6.30411">
        <ele>322.5</ele>
        <time>2023-09-15T13:10:14Z</time>
      </trkpt>
      <trkpt lat="43.52401" lon="6.30411">
        <ele>322.3</ele>
        <time>2023-09-15T13:10:15Z</time>
      </trkpt>
      <trkpt lat="43.524" lon="6.30412">
        <ele>322.1</ele>
        <time>2023-09-15T13:10:16Z</time>
      </trkpt>
      <trkpt lat="43.524" lon="6.30412">
        <ele>322</ele>
        <time>2023-09-15T13:10:17Z</time>
      </trkpt>
      <trkpt lat="43.524" lon="6.30412">
        <ele>321.9</ele>
        <time>2023-09-15T13:10:18Z</time>
      </trkpt>
      <trkpt lat="43.524" lon="6.30413">
        <ele>321.8</ele>
        <time>2023-09-15T13:10:19Z</time>
      </trkpt>
      <trkpt lat="43.524" lon="6.30413">
        <ele>321.7</ele>
        <time>2023-09-15T13:10:20Z</time>
      </trkpt>
      <trkpt lat="43.524" lon="6.30413">
        <ele>321.7</ele>
        <time>2023-09-15T13:10:21Z</time>
      </trkpt>
      <trkpt lat="43.524" lon="6.30414">
        <ele>321.7</ele>
        <time>2023-09-15T13:10:22Z</time>
      </trkpt>
      <trkpt lat="43.524" lon="6.30413">
        <ele>321.7</ele>
        <time>2023-09-15T13:10:23Z</time>
      </trkpt>
      <trkpt lat="43.52399" lon="6.30414">
        <ele>321.6</ele>
        <time>2023-09-15T13:10:24Z</time>
      </trkpt>
      <trkpt lat="43.52399" lon="6.30414">
        <ele>321.5</ele>
        <time>2023-09-15T13:10:25Z</time>
      </trkpt>
      <trkpt lat="43.52399" lon="6.30414">
        <ele>321.5</ele>
        <time>2023-09-15T13:10:26Z</time>
      </trkpt>
      <trkpt lat="43.52399" lon="6.30414">
        <ele>321.4</ele>
        <time>2023-09-15T13:10:27Z</time>
      </trkpt>
      <trkpt lat="43.52399" lon="6.30415">
        <ele>321.4</ele>
        <time>2023-09-15T13:10:28Z</time>
      </trkpt>
      <trkpt lat="43.52398" lon="6.30416">
        <ele>321.4</ele>
        <time>2023-09-15T13:10:29Z</time>
      </trkpt>
      <trkpt lat="43.52398" lon="6.30416">
        <ele>321.3</ele>
        <time>2023-09-15T13:10:30Z</time>
      </trkpt>
      <trkpt lat="43.52398" lon="6.30417">
        <ele>321.3</ele>
        <time>2023-09-15T13:10:31Z</time>
      </trkpt>
      <trkpt lat="43.52397" lon="6.30417">
        <ele>321.3</ele>
        <time>2023-09-15T13:10:32Z</time>
      </trkpt>
      <trkpt lat="43.52397" lon="6.30417">
        <ele>321.2</ele>
        <time>2023-09-15T13:10:33Z</time>
      </trkpt>
      <trkpt lat="43.52397" lon="6.30417">
        <ele>321.1</ele>
        <time>2023-09-15T13:10:34Z</time>
      </trkpt>
      <trkpt lat="43.52396" lon="6.30418">
        <ele>321</ele>
        <time>2023-09-15T13:10:35Z</time>
      </trkpt>
      <trkpt lat="43.52395" lon="6.30418">
        <ele>320.9</ele>
        <time>2023-09-15T13:10:36Z</time>
      </trkpt>
      <trkpt lat="43.52395" lon="6.30419">
        <ele>320.7</ele>
        <time>2023-09-15T13:10:37Z</time>
      </trkpt>
      <trkpt lat="43.52395" lon="6.30419">
        <ele>320.6</ele>
        <time>2023-09-15T13:10:38Z</time>
      </trkpt>
      <trkpt lat="43.52394" lon="6.30419">
        <ele>320.5</ele>
        <time>2023-09-15T13:10:39Z</time>
      </trkpt>
      <trkpt lat="43.52394" lon="6.3042">
        <ele>320.4</ele>
        <time>2023-09-15T13:10:40Z</time>
      </trkpt>
      <trkpt lat="43.52394" lon="6.3042">
        <ele>320.3</ele>
        <time>2023-09-15T13:10:41Z</time>
      </trkpt>
      <trkpt lat="43.52394" lon="6.3042">
        <ele>320.1</ele>
        <time>2023-09-15T13:10:42Z</time>
      </trkpt>
      <trkpt lat="43.52394" lon="6.30421">
        <ele>320</ele>
        <time>2023-09-15T13:10:43Z</time>
      </trkpt>
      <trkpt lat="43.52394" lon="6.30421">
        <ele>320</ele>
        <time>2023-09-15T13:10:44Z</time>
      </trkpt>
      <trkpt lat="43.52393" lon="6.30421">
        <ele>319.9</ele>
        <time>2023-09-15T13:10:45Z</time>
      </trkpt>
      <trkpt lat="43.52393" lon="6.30421">
        <ele>319.8</ele>
        <time>2023-09-15T13:10:46Z</time>
      </trkpt>
      <trkpt lat="43.52392" lon="6.30421">
        <ele>319.7</ele>
        <time>2023-09-15T13:10:47Z</time>
      </trkpt>
      <trkpt lat="43.52392" lon="6.30422">
        <ele>319.6</ele>
        <time>2023-09-15T13:10:48Z</time>
      </trkpt>
      <trkpt lat="43.52391" lon="6.30422">
        <ele>319.6</ele>
        <time>2023-09-15T13:10:49Z</time>
      </trkpt>
      <trkpt lat="43.52391" lon="6.30423">
        <ele>319.5</ele>
        <time>2023-09-15T13:10:50Z</time>
      </trkpt>
      <trkpt lat="43.5239" lon="6.30424">
        <ele>319.5</ele>
        <time>2023-09-15T13:10:51Z</time>
      </trkpt>
      <trkpt lat="43.5239" lon="6.30424">
        <ele>319.5</ele>
        <time>2023-09-15T13:10:52Z</time>
      </trkpt>
      <trkpt lat="43.52389" lon="6.30425">
        <ele>319.5</ele>
        <time>2023-09-15T13:10:53Z</time>
      </trkpt>
      <trkpt lat="43.52389" lon="6.30426">
        <ele>319.5</ele>
        <time>2023-09-15T13:10:54Z</time>
      </trkpt>
      <trkpt lat="43.52389" lon="6.30426">
        <ele>319.5</ele>
        <time>2023-09-15T13:10:55Z</time>
      </trkpt>
      <trkpt lat="43.52389" lon="6.30427">
        <ele>319.5</ele>
        <time>2023-09-15T13:10:56Z</time>
      </trkpt>
      <trkpt lat="43.52388" lon="6.30428">
        <ele>319.4</ele>
        <time>2023-09-15T13:10:57Z</time>
      </trkpt>
      <trkpt lat="43.52388" lon="6.30428">
        <ele>319.3</ele>
        <time>2023-09-15T13:10:58Z</time>
      </trkpt>
      <trkpt lat="43.52388" lon="6.30428">
        <ele>319.2</ele>
        <time>2023-09-15T13:10:59Z</time>
      </trkpt>
      <trkpt lat="43.52388" lon="6.30429">
        <ele>319.2</ele>
        <time>2023-09-15T13:11:00Z</time>
      </trkpt>
      <trkpt lat="43.52388" lon="6.30431">
        <ele>319.1</ele>
        <time>2023-09-15T13:11:01Z</time>
      </trkpt>
      <trkpt lat="43.52387" lon="6.30431">
        <ele>319.1</ele>
        <time>2023-09-15T13:11:02Z</time>
      </trkpt>
      <trkpt lat="43.52387" lon="6.30431">
        <ele>319</ele>
        <time>2023-09-15T13:11:03Z</time>
      </trkpt>
      <trkpt lat="43.52386" lon="6.30432">
        <ele>319</ele>
        <time>2023-09-15T13:11:04Z</time>
      </trkpt>
      <trkpt lat="43.52386" lon="6.30433">
        <ele>319</ele>
        <time>2023-09-15T13:11:05Z</time>
      </trkpt>
      <trkpt lat="43.52385" lon="6.30434">
        <ele>318.9</ele>
        <time>2023-09-15T13:11:06Z</time>
      </trkpt>
      <trkpt lat="43.52385" lon="6.30435">
        <ele>318.9</ele>
        <time>2023-09-15T13:11:07Z</time>
      </trkpt>
      <trkpt lat="43.52385" lon="6.30436">
        <ele>318.9</ele>
        <time>2023-09-15T13:11:08Z</time>
      </trkpt>
      <trkpt lat="43.52385" lon="6.30437">
        <ele>318.9</ele>
        <time>2023-09-15T13:11:09Z</time>
      </trkpt>
      <trkpt lat="43.52385" lon="6.30438">
        <ele>318.9</ele>
        <time>2023-09-15T13:11:10Z</time>
      </trkpt>
      <trkpt lat="43.52385" lon="6.30439">
        <ele>318.8</ele>
        <time>2023-09-15T13:11:11Z</time>
      </trkpt>
      <trkpt lat="43.52384" lon="6.3044">
        <ele>318.8</ele>
        <time>2023-09-15T13:11:12Z</time>
      </trkpt>
      <trkpt lat="43.52384" lon="6.30441">
        <ele>318.7</ele>
        <time>2023-09-15T13:11:13Z</time>
      </trkpt>
      <trkpt lat="43.52384" lon="6.30441">
        <ele>318.6</ele>
        <time>2023-09-15T13:11:14Z</time>
      </trkpt>
      <trkpt lat="43.52384" lon="6.30443">
        <ele>318.6</ele>
        <time>2023-09-15T13:11:15Z</time>
      </trkpt>
      <trkpt lat="43.52384" lon="6.30444">
        <ele>318.5</ele>
        <time>2023-09-15T13:11:16Z</time>
      </trkpt>
      <trkpt lat="43.52384" lon="6.30445">
        <ele>318.5</ele>
        <time>2023-09-15T13:11:17Z</time>
      </trkpt>
      <trkpt lat="43.52384" lon="6.30446">
        <ele>318.5</ele>
        <time>2023-09-15T13:11:18Z</time>
      </trkpt>
      <trkpt lat="43.52384" lon="6.30448">
        <ele>318.4</ele>
        <time>2023-09-15T13:11:19Z</time>
      </trkpt>
      <trkpt lat="43.52383" lon="6.30449">
        <ele>318.4</ele>
        <time>2023-09-15T13:11:20Z</time>
      </trkpt>
      <trkpt lat="43.52383" lon="6.30449">
        <ele>318.3</ele>
        <time>2023-09-15T13:11:21Z</time>
      </trkpt>
      <trkpt lat="43.52383" lon="6.3045">
        <ele>318.3</ele>
        <time>2023-09-15T13:11:22Z</time>
      </trkpt>
      <trkpt lat="43.52383" lon="6.30451">
        <ele>318.2</ele>
        <time>2023-09-15T13:11:23Z</time>
      </trkpt>
      <trkpt lat="43.52382" lon="6.30452">
        <ele>318.2</ele>
        <time>2023-09-15T13:11:24Z</time>
      </trkpt>
      <trkpt lat="43.52383" lon="6.30453">
        <ele>318.2</ele>
        <time>2023-09-15T13:11:25Z</time>
      </trkpt>
      <trkpt lat="43.52382" lon="6.30454">
        <ele>318.1</ele>
        <time>2023-09-15T13:11:26Z</time>
      </trkpt>
      <trkpt lat="43.52382" lon="6.30455">
        <ele>318</ele>
        <time>2023-09-15T13:11:27Z</time>
      </trkpt>
      <trkpt lat="43.52382" lon="6.30456">
        <ele>317.9</ele>
        <time>2023-09-15T13:11:28Z</time>
      </trkpt>
      <trkpt lat="43.52382" lon="6.30458">
        <ele>317.8</ele>
        <time>2023-09-15T13:11:29Z</time>
      </trkpt>
      <trkpt lat="43.52382" lon="6.3046">
        <ele>317.8</ele>
        <time>2023-09-15T13:11:30Z</time>
      </trkpt>
      <trkpt lat="43.52382" lon="6.30461">
        <ele>317.8</ele>
        <time>2023-09-15T13:11:31Z</time>
      </trkpt>
      <trkpt lat="43.52382" lon="6.30461">
        <ele>317.9</ele>
        <time>2023-09-15T13:11:32Z</time>
      </trkpt>
      <trkpt lat="43.52382" lon="6.30463">
        <ele>318</ele>
        <time>2023-09-15T13:11:33Z</time>
      </trkpt>
      <trkpt lat="43.52382" lon="6.30464">
        <ele>318</ele>
        <time>2023-09-15T13:11:34Z</time>
      </trkpt>
      <trkpt lat="43.52383" lon="6.30466">
        <ele>318</ele>
        <time>2023-09-15T13:11:35Z</time>
      </trkpt>
      <trkpt lat="43.52383" lon="6.30467">
        <ele>317.9</ele>
        <time>2023-09-15T13:11:36Z</time>
      </trkpt>
      <trkpt lat="43.52382" lon="6.30468">
        <ele>317.9</ele>
        <time>2023-09-15T13:11:37Z</time>
      </trkpt>
      <trkpt lat="43.52383" lon="6.30471">
        <ele>317.8</ele>
        <time>2023-09-15T13:11:38Z</time>
      </trkpt>
      <trkpt lat="43.52383" lon="6.30473">
        <ele>317.8</ele>
        <time>2023-09-15T13:11:39Z</time>
      </trkpt>
      <trkpt lat="43.52383" lon="6.30475">
        <ele>317.9</ele>
        <time>2023-09-15T13:11:40Z</time>
      </trkpt>
      <trkpt lat="43.52383" lon="6.30476">
        <ele>317.9</ele>
        <time>2023-09-15T13:11:41Z</time>
      </trkpt>
      <trkpt lat="43.52383" lon="6.30477">
        <ele>318</ele>
        <time>2023-09-15T13:11:42Z</time>
      </trkpt>
      <trkpt lat="43.52383" lon="6.30479">
        <ele>317.9</ele>
        <time>2023-09-15T13:11:43Z</time>
      </trkpt>
      <trkpt lat="43.52383" lon="6.3048">
        <ele>317.9</ele>
        <time>2023-09-15T13:11:44Z</time>
      </trkpt>
      <trkpt lat="43.52383" lon="6.30481">
        <ele>318</ele>
        <time>2023-09-15T13:11:45Z</time>
      </trkpt>
      <trkpt lat="43.52383" lon="6.30483">
        <ele>317.9</ele>
        <time>2023-09-15T13:11:46Z</time>
      </trkpt>
      <trkpt lat="43.52383" lon="6.30484">
        <ele>317.9</ele>
        <time>2023-09-15T13:11:47Z</time>
      </trkpt>
      <trkpt lat="43.52383" lon="6.30485">
        <ele>317.8</ele>
        <time>2023-09-15T13:11:48Z</time>
      </trkpt>
      <trkpt lat="43.52382" lon="6.30486">
        <ele>317.8</ele>
        <time>2023-09-15T13:11:49Z</time>
      </trkpt>
      <trkpt lat="43.52382" lon="6.30487">
        <ele>317.7</ele>
        <time>2023-09-15T13:11:50Z</time>
      </trkpt>
      <trkpt lat="43.52382" lon="6.30488">
        <ele>317.7</ele>
        <time>2023-09-15T13:11:51Z</time>
      </trkpt>
      <trkpt lat="43.52382" lon="6.30489">
        <ele>317.7</ele>
        <time>2023-09-15T13:11:52Z</time>
      </trkpt>
      <trkpt lat="43.52382" lon="6.3049">
        <ele>317.6</ele>
        <time>2023-09-15T13:11:53Z</time>
      </trkpt>
      <trkpt lat="43.52382" lon="6.30491">
        <ele>317.6</ele>
        <time>2023-09-15T13:11:54Z</time>
      </trkpt>
      <trkpt lat="43.52383" lon="6.30493">
        <ele>317.6</ele>
        <time>2023-09-15T13:11:55Z</time>
      </trkpt>
      <trkpt lat="43.52382" lon="6.30493">
        <ele>317.6</ele>
        <time>2023-09-15T13:11:56Z</time>
      </trkpt>
      <trkpt lat="43.52382" lon="6.30494">
        <ele>317.6</ele>
        <time>2023-09-15T13:11:57Z</time>
      </trkpt>
      <trkpt lat="43.52382" lon="6.30495">
        <ele>317.6</ele>
        <time>2023-09-15T13:11:58Z</time>
      </trkpt>
      <trkpt lat="43.52382" lon="6.30496">
        <ele>317.6</ele>
        <time>2023-09-15T13:11:59Z</time>
      </trkpt>
      <trkpt lat="43.52382" lon="6.30497">
        <ele>317.6</ele>
        <time>2023-09-15T13:12:00Z</time>
      </trkpt>
      <trkpt lat="43.52382" lon="6.30498">
        <ele>317.6</ele>
        <time>2023-09-15T13:12:01Z</time>
      </trkpt>
      <trkpt lat="43.52382" lon="6.30499">
        <ele>317.6</ele>
        <time>2023-09-15T13:12:02Z</time>
      </trkpt>
      <trkpt lat="43.52383" lon="6.305">
        <ele>317.6</ele>
        <time>2023-09-15T13:12:03Z</time>
      </trkpt>
      <trkpt lat="43.52383" lon="6.30501">
        <ele>317.6</ele>
        <time>2023-09-15T13:12:04Z</time>
      </trkpt>
      <trkpt lat="43.52383" lon="6.30503">
        <ele>317.7</ele>
        <time>2023-09-15T13:12:05Z</time>
      </trkpt>
      <trkpt lat="43.52383" lon="6.30504">
        <ele>317.7</ele>
        <time>2023-09-15T13:12:06Z</time>
      </trkpt>
      <trkpt lat="43.52383" lon="6.30506">
        <ele>317.8</ele>
        <time>2023-09-15T13:12:07Z</time>
      </trkpt>
      <trkpt lat="43.52384" lon="6.30508">
        <ele>317.8</ele>
        <time>2023-09-15T13:12:08Z</time>
      </trkpt>
      <trkpt lat="43.52384" lon="6.30509">
        <ele>317.8</ele>
        <time>2023-09-15T13:12:09Z</time>
      </trkpt>
      <trkpt lat="43.52384" lon="6.3051">
        <ele>317.9</ele>
        <time>2023-09-15T13:12:10Z</time>
      </trkpt>
      <trkpt lat="43.52384" lon="6.30511">
        <ele>317.9</ele>
        <time>2023-09-15T13:12:11Z</time>
      </trkpt>
      <trkpt lat="43.52384" lon="6.30512">
        <ele>317.9</ele>
        <time>2023-09-15T13:12:12Z</time>
      </trkpt>
      <trkpt lat="43.52384" lon="6.30512">
        <ele>317.9</ele>
        <time>2023-09-15T13:12:13Z</time>
      </trkpt>
      <trkpt lat="43.52385" lon="6.30515">
        <ele>318</ele>
        <time>2023-09-15T13:12:14Z</time>
      </trkpt>
      <trkpt lat="43.52386" lon="6.30517">
        <ele>318.2</ele>
        <time>2023-09-15T13:12:15Z</time>
      </trkpt>
      <trkpt lat="43.52387" lon="6.30519">
        <ele>318.2</ele>
        <time>2023-09-15T13:12:16Z</time>
      </trkpt>
      <trkpt lat="43.52388" lon="6.30521">
        <ele>318.4</ele>
        <time>2023-09-15T13:12:17Z</time>
      </trkpt>
      <trkpt lat="43.52389" lon="6.30522">
        <ele>318.6</ele>
        <time>2023-09-15T13:12:18Z</time>
      </trkpt>
      <trkpt lat="43.52389" lon="6.30523">
        <ele>318.7</ele>
        <time>2023-09-15T13:12:19Z</time>
      </trkpt>
      <trkpt lat="43.5239" lon="6.30525">
        <ele>318.7</ele>
        <time>2023-09-15T13:12:20Z</time>
      </trkpt>
      <trkpt lat="43.5239" lon="6.30526">
        <ele>318.7</ele>
        <time>2023-09-15T13:12:21Z</time>
      </trkpt>
      <trkpt lat="43.52391" lon="6.30528">
        <ele>318.8</ele>
        <time>2023-09-15T13:12:22Z</time>
      </trkpt>
      <trkpt lat="43.52392" lon="6.3053">
        <ele>318.9</ele>
        <time>2023-09-15T13:12:23Z</time>
      </trkpt>
      <trkpt lat="43.52392" lon="6.3053">
        <ele>319</ele>
        <time>2023-09-15T13:12:24Z</time>
      </trkpt>
      <trkpt lat="43.52392" lon="6.30532">
        <ele>319</ele>
        <time>2023-09-15T13:12:25Z</time>
      </trkpt>
      <trkpt lat="43.52393" lon="6.30533">
        <ele>319.1</ele>
        <time>2023-09-15T13:12:26Z</time>
      </trkpt>
      <trkpt lat="43.52393" lon="6.30535">
        <ele>319.1</ele>
        <time>2023-09-15T13:12:27Z</time>
      </trkpt>
      <trkpt lat="43.52393" lon="6.30536">
        <ele>319.1</ele>
        <time>2023-09-15T13:12:28Z</time>
      </trkpt>
      <trkpt lat="43.52394" lon="6.30537">
        <ele>319.2</ele>
        <time>2023-09-15T13:12:29Z</time>
      </trkpt>
      <trkpt lat="43.52394" lon="6.30538">
        <ele>319.1</ele>
        <time>2023-09-15T13:12:30Z</time>
      </trkpt>
      <trkpt lat="43.52394" lon="6.30539">
        <ele>319.1</ele>
        <time>2023-09-15T13:12:31Z</time>
      </trkpt>
      <trkpt lat="43.52394" lon="6.3054">
        <ele>319.1</ele>
        <time>2023-09-15T13:12:32Z</time>
      </trkpt>
      <trkpt lat="43.52394" lon="6.30541">
        <ele>319.1</ele>
        <time>2023-09-15T13:12:33Z</time>
      </trkpt>
      <trkpt lat="43.52394" lon="6.30542">
        <ele>319.2</ele>
        <time>2023-09-15T13:12:34Z</time>
      </trkpt>
      <trkpt lat="43.52394" lon="6.30543">
        <ele>319.2</ele>
        <time>2023-09-15T13:12:35Z</time>
      </trkpt>
      <trkpt lat="43.52394" lon="6.30543">
        <ele>319.3</ele>
        <time>2023-09-15T13:12:36Z</time>
      </trkpt>
      <trkpt lat="43.52394" lon="6.30544">
        <ele>319.3</ele>
        <time>2023-09-15T13:12:37Z</time>
      </trkpt>
      <trkpt lat="43.52393" lon="6.30544">
        <ele>319.4</ele>
        <time>2023-09-15T13:12:38Z</time>
      </trkpt>
      <trkpt lat="43.52392" lon="6.30545">
        <ele>319.4</ele>
        <time>2023-09-15T13:12:39Z</time>
      </trkpt>
      <trkpt lat="43.52392" lon="6.30546">
        <ele>319.4</ele>
        <time>2023-09-15T13:12:40Z</time>
      </trkpt>
      <trkpt lat="43.52391" lon="6.30547">
        <ele>319.5</ele>
        <time>2023-09-15T13:12:41Z</time>
      </trkpt>
      <trkpt lat="43.52391" lon="6.30547">
        <ele>319.5</ele>
        <time>2023-09-15T13:12:42Z</time>
      </trkpt>
      <trkpt lat="43.5239" lon="6.30548">
        <ele>319.6</ele>
        <time>2023-09-15T13:12:43Z</time>
      </trkpt>
      <trkpt lat="43.5239" lon="6.30549">
        <ele>319.6</ele>
        <time>2023-09-15T13:12:44Z</time>
      </trkpt>
      <trkpt lat="43.52389" lon="6.3055">
        <ele>319.6</ele>
        <time>2023-09-15T13:12:45Z</time>
      </trkpt>
      <trkpt lat="43.52389" lon="6.3055">
        <ele>319.6</ele>
        <time>2023-09-15T13:12:46Z</time>
      </trkpt>
      <trkpt lat="43.52388" lon="6.30551">
        <ele>319.6</ele>
        <time>2023-09-15T13:12:47Z</time>
      </trkpt>
      <trkpt lat="43.52387" lon="6.30552">
        <ele>319.6</ele>
        <time>2023-09-15T13:12:48Z</time>
      </trkpt>
      <trkpt lat="43.52387" lon="6.30553">
        <ele>319.6</ele>
        <time>2023-09-15T13:12:49Z</time>
      </trkpt>
      <trkpt lat="43.52386" lon="6.30553">
        <ele>319.6</ele>
        <time>2023-09-15T13:12:50Z</time>
      </trkpt>
      <trkpt lat="43.52386" lon="6.30555">
        <ele>319.6</ele>
        <time>2023-09-15T13:12:51Z</time>
      </trkpt>
      <trkpt lat="43.52385" lon="6.30555">
        <ele>319.6</ele>
        <time>2023-09-15T13:12:52Z</time>
      </trkpt>
      <trkpt lat="43.52384" lon="6.30556">
        <ele>319.6</ele>
        <time>2023-09-15T13:12:53Z</time>
      </trkpt>
      <trkpt lat="43.52384" lon="6.30557">
        <ele>319.6</ele>
        <time>2023-09-15T13:12:54Z</time>
      </trkpt>
      <trkpt lat="43.52383" lon="6.30557">
        <ele>319.6</ele>
        <time>2023-09-15T13:12:55Z</time>
      </trkpt>
      <trkpt lat="43.52383" lon="6.30558">
        <ele>319.5</ele>
        <time>2023-09-15T13:12:56Z</time>
      </trkpt>
      <trkpt lat="43.52383" lon="6.30559">
        <ele>319.5</ele>
        <time>2023-09-15T13:12:57Z</time>
      </trkpt>
      <trkpt lat="43.52382" lon="6.30559">
        <ele>319.5</ele>
        <time>2023-09-15T13:12:58Z</time>
      </trkpt>
      <trkpt lat="43.52381" lon="6.3056">
        <ele>319.5</ele>
        <time>2023-09-15T13:12:59Z</time>
      </trkpt>
      <trkpt lat="43.52381" lon="6.3056">
        <ele>319.4</ele>
        <time>2023-09-15T13:13:00Z</time>
      </trkpt>
      <trkpt lat="43.52381" lon="6.3056">
        <ele>319.4</ele>
        <time>2023-09-15T13:13:01Z</time>
      </trkpt>
      <trkpt lat="43.52381" lon="6.30561">
        <ele>319.4</ele>
        <time>2023-09-15T13:13:02Z</time>
      </trkpt>
      <trkpt lat="43.5238" lon="6.30561">
        <ele>319.4</ele>
        <time>2023-09-15T13:13:03Z</time>
      </trkpt>
      <trkpt lat="43.5238" lon="6.30561">
        <ele>319.5</ele>
        <time>2023-09-15T13:13:04Z</time>
      </trkpt>
      <trkpt lat="43.5238" lon="6.30561">
        <ele>319.5</ele>
        <time>2023-09-15T13:13:05Z</time>
      </trkpt>
      <trkpt lat="43.5238" lon="6.30561">
        <ele>319.5</ele>
        <time>2023-09-15T13:13:06Z</time>
      </trkpt>
      <trkpt lat="43.52379" lon="6.30562">
        <ele>319.6</ele>
        <time>2023-09-15T13:13:07Z</time>
      </trkpt>
      <trkpt lat="43.52379" lon="6.30562">
        <ele>319.7</ele>
        <time>2023-09-15T13:13:08Z</time>
      </trkpt>
      <trkpt lat="43.52379" lon="6.30562">
        <ele>319.7</ele>
        <time>2023-09-15T13:13:09Z</time>
      </trkpt>
      <trkpt lat="43.52379" lon="6.30562">
        <ele>319.7</ele>
        <time>2023-09-15T13:13:10Z</time>
      </trkpt>
      <trkpt lat="43.52378" lon="6.30562">
        <ele>319.8</ele>
        <time>2023-09-15T13:13:11Z</time>
      </trkpt>
      <trkpt lat="43.52378" lon="6.30563">
        <ele>319.7</ele>
        <time>2023-09-15T13:13:12Z</time>
      </trkpt>
      <trkpt lat="43.52377" lon="6.30563">
        <ele>319.7</ele>
        <time>2023-09-15T13:13:13Z</time>
      </trkpt>
      <trkpt lat="43.52377" lon="6.30564">
        <ele>319.7</ele>
        <time>2023-09-15T13:13:14Z</time>
      </trkpt>
      <trkpt lat="43.52376" lon="6.30564">
        <ele>319.8</ele>
        <time>2023-09-15T13:13:15Z</time>
      </trkpt>
      <trkpt lat="43.52376" lon="6.30564">
        <ele>319.8</ele>
        <time>2023-09-15T13:13:16Z</time>
      </trkpt>
      <trkpt lat="43.52376" lon="6.30564">
        <ele>319.9</ele>
        <time>2023-09-15T13:13:17Z</time>
      </trkpt>
      <trkpt lat="43.52375" lon="6.30565">
        <ele>319.9</ele>
        <time>2023-09-15T13:13:18Z</time>
      </trkpt>
      <trkpt lat="43.52375" lon="6.30565">
        <ele>320</ele>
        <time>2023-09-15T13:13:19Z</time>
      </trkpt>
      <trkpt lat="43.52375" lon="6.30565">
        <ele>320</ele>
        <time>2023-09-15T13:13:20Z</time>
      </trkpt>
      <trkpt lat="43.52375" lon="6.30566">
        <ele>320.1</ele>
        <time>2023-09-15T13:13:21Z</time>
      </trkpt>
      <trkpt lat="43.52374" lon="6.30567">
        <ele>320.1</ele>
        <time>2023-09-15T13:13:22Z</time>
      </trkpt>
      <trkpt lat="43.52373" lon="6.30567">
        <ele>320.1</ele>
        <time>2023-09-15T13:13:23Z</time>
      </trkpt>
      <trkpt lat="43.52373" lon="6.30567">
        <ele>320.1</ele>
        <time>2023-09-15T13:13:24Z</time>
      </trkpt>
      <trkpt lat="43.52373" lon="6.30568">
        <ele>320.1</ele>
        <time>2023-09-15T13:13:25Z</time>
      </trkpt>
      <trkpt lat="43.52373" lon="6.30568">
        <ele>320.1</ele>
        <time>2023-09-15T13:13:26Z</time>
      </trkpt>
      <trkpt lat="43.52373" lon="6.30568">
        <ele>320.1</ele>
        <time>2023-09-15T13:13:27Z</time>
      </trkpt>
      <trkpt lat="43.52373" lon="6.30568">
        <ele>320.1</ele>
        <time>2023-09-15T13:13:28Z</time>
      </trkpt>
      <trkpt lat="43.52372" lon="6.30568">
        <ele>320.1</ele>
        <time>2023-09-15T13:13:29Z</time>
      </trkpt>
      <trkpt lat="43.52372" lon="6.30568">
        <ele>320.2</ele>
        <time>2023-09-15T13:13:30Z</time>
      </trkpt>
      <trkpt lat="43.52371" lon="6.30568">
        <ele>320.1</ele>
        <time>2023-09-15T13:13:31Z</time>
      </trkpt>
      <trkpt lat="43.52371" lon="6.30569">
        <ele>320.1</ele>
        <time>2023-09-15T13:13:32Z</time>
      </trkpt>
      <trkpt lat="43.5237" lon="6.30569">
        <ele>320.1</ele>
        <time>2023-09-15T13:13:33Z</time>
      </trkpt>
      <trkpt lat="43.5237" lon="6.3057">
        <ele>320.1</ele>
        <time>2023-09-15T13:13:34Z</time>
      </trkpt>
      <trkpt lat="43.5237" lon="6.3057">
        <ele>320.1</ele>
        <time>2023-09-15T13:13:35Z</time>
      </trkpt>
      <trkpt lat="43.5237" lon="6.3057">
        <ele>320.1</ele>
        <time>2023-09-15T13:13:36Z</time>
      </trkpt>
      <trkpt lat="43.52369" lon="6.30571">
        <ele>320.1</ele>
        <time>2023-09-15T13:13:37Z</time>
      </trkpt>
      <trkpt lat="43.52369" lon="6.30571">
        <ele>320.2</ele>
        <time>2023-09-15T13:13:38Z</time>
      </trkpt>
      <trkpt lat="43.52368" lon="6.30572">
        <ele>320.2</ele>
        <time>2023-09-15T13:13:39Z</time>
      </trkpt>
      <trkpt lat="43.52367" lon="6.30572">
        <ele>320.2</ele>
        <time>2023-09-15T13:13:40Z</time>
      </trkpt>
      <trkpt lat="43.52367" lon="6.30573">
        <ele>320.2</ele>
        <time>2023-09-15T13:13:41Z</time>
      </trkpt>
      <trkpt lat="43.52366" lon="6.30573">
        <ele>320.3</ele>
        <time>2023-09-15T13:13:42Z</time>
      </trkpt>
      <trkpt lat="43.52365" lon="6.30574">
        <ele>320.3</ele>
        <time>2023-09-15T13:13:43Z</time>
      </trkpt>
      <trkpt lat="43.52365" lon="6.30574">
        <ele>320.3</ele>
        <time>2023-09-15T13:13:44Z</time>
      </trkpt>
      <trkpt lat="43.52365" lon="6.30575">
        <ele>320.3</ele>
        <time>2023-09-15T13:13:45Z</time>
      </trkpt>
      <trkpt lat="43.52365" lon="6.30575">
        <ele>320.3</ele>
        <time>2023-09-15T13:13:46Z</time>
      </trkpt>
      <trkpt lat="43.52364" lon="6.30576">
        <ele>320.3</ele>
        <time>2023-09-15T13:13:47Z</time>
      </trkpt>
      <trkpt lat="43.52364" lon="6.30576">
        <ele>320.3</ele>
        <time>2023-09-15T13:13:48Z</time>
      </trkpt>
      <trkpt lat="43.52364" lon="6.30576">
        <ele>320.3</ele>
        <time>2023-09-15T13:13:49Z</time>
      </trkpt>
      <trkpt lat="43.52364" lon="6.30576">
        <ele>320.3</ele>
        <time>2023-09-15T13:13:50Z</time>
      </trkpt>
      <trkpt lat="43.52363" lon="6.30577">
        <ele>320.3</ele>
        <time>2023-09-15T13:13:51Z</time>
      </trkpt>
      <trkpt lat="43.52363" lon="6.30577">
        <ele>320.3</ele>
        <time>2023-09-15T13:13:52Z</time>
      </trkpt>
      <trkpt lat="43.52363" lon="6.30578">
        <ele>320.3</ele>
        <time>2023-09-15T13:13:53Z</time>
      </trkpt>
      <trkpt lat="43.52362" lon="6.30578">
        <ele>320.3</ele>
        <time>2023-09-15T13:13:54Z</time>
      </trkpt>
      <trkpt lat="43.52362" lon="6.30579">
        <ele>320.4</ele>
        <time>2023-09-15T13:13:55Z</time>
      </trkpt>
      <trkpt lat="43.52361" lon="6.30579">
        <ele>320.3</ele>
        <time>2023-09-15T13:13:56Z</time>
      </trkpt>
      <trkpt lat="43.52361" lon="6.3058">
        <ele>320.2</ele>
        <time>2023-09-15T13:13:57Z</time>
      </trkpt>
      <trkpt lat="43.52361" lon="6.3058">
        <ele>320.1</ele>
        <time>2023-09-15T13:13:58Z</time>
      </trkpt>
      <trkpt lat="43.5236" lon="6.30581">
        <ele>320.1</ele>
        <time>2023-09-15T13:13:59Z</time>
      </trkpt>
      <trkpt lat="43.5236" lon="6.30581">
        <ele>320.1</ele>
        <time>2023-09-15T13:14:00Z</time>
      </trkpt>
      <trkpt lat="43.52359" lon="6.30581">
        <ele>320.1</ele>
        <time>2023-09-15T13:14:01Z</time>
      </trkpt>
      <trkpt lat="43.52359" lon="6.30581">
        <ele>320.1</ele>
        <time>2023-09-15T13:14:02Z</time>
      </trkpt>
      <trkpt lat="43.52358" lon="6.30582">
        <ele>320.2</ele>
        <time>2023-09-15T13:14:03Z</time>
      </trkpt>
      <trkpt lat="43.52358" lon="6.30582">
        <ele>320.2</ele>
        <time>2023-09-15T13:14:04Z</time>
      </trkpt>
      <trkpt lat="43.52357" lon="6.30583">
        <ele>320.3</ele>
        <time>2023-09-15T13:14:05Z</time>
      </trkpt>
      <trkpt lat="43.52357" lon="6.30583">
        <ele>320.4</ele>
        <time>2023-09-15T13:14:06Z</time>
      </trkpt>
      <trkpt lat="43.52356" lon="6.30583">
        <ele>320.5</ele>
        <time>2023-09-15T13:14:07Z</time>
      </trkpt>
      <trkpt lat="43.52356" lon="6.30584">
        <ele>320.7</ele>
        <time>2023-09-15T13:14:08Z</time>
      </trkpt>
      <trkpt lat="43.52355" lon="6.30584">
        <ele>320.8</ele>
        <time>2023-09-15T13:14:09Z</time>
      </trkpt>
      <trkpt lat="43.52354" lon="6.30585">
        <ele>320.9</ele>
        <time>2023-09-15T13:14:10Z</time>
      </trkpt>
      <trkpt lat="43.52354" lon="6.30585">
        <ele>321</ele>
        <time>2023-09-15T13:14:11Z</time>
      </trkpt>
      <trkpt lat="43.52353" lon="6.30585">
        <ele>321.1</ele>
        <time>2023-09-15T13:14:12Z</time>
      </trkpt>
      <trkpt lat="43.52352" lon="6.30585">
        <ele>321.3</ele>
        <time>2023-09-15T13:14:13Z</time>
      </trkpt>
      <trkpt lat="43.52352" lon="6.30587">
        <ele>321.3</ele>
        <time>2023-09-15T13:14:14Z</time>
      </trkpt>
      <trkpt lat="43.52351" lon="6.30588">
        <ele>321.5</ele>
        <time>2023-09-15T13:14:15Z</time>
      </trkpt>
      <trkpt lat="43.52351" lon="6.30588">
        <ele>321.5</ele>
        <time>2023-09-15T13:14:16Z</time>
      </trkpt>
      <trkpt lat="43.52351" lon="6.30589">
        <ele>321.6</ele>
        <time>2023-09-15T13:14:17Z</time>
      </trkpt>
      <trkpt lat="43.52351" lon="6.3059">
        <ele>321.7</ele>
        <time>2023-09-15T13:14:18Z</time>
      </trkpt>
      <trkpt lat="43.52351" lon="6.30591">
        <ele>321.8</ele>
        <time>2023-09-15T13:14:19Z</time>
      </trkpt>
      <trkpt lat="43.52351" lon="6.30592">
        <ele>321.8</ele>
        <time>2023-09-15T13:14:20Z</time>
      </trkpt>
      <trkpt lat="43.52351" lon="6.30593">
        <ele>321.8</ele>
        <time>2023-09-15T13:14:21Z</time>
      </trkpt>
      <trkpt lat="43.52351" lon="6.30594">
        <ele>321.8</ele>
        <time>2023-09-15T13:14:22Z</time>
      </trkpt>
      <trkpt lat="43.52351" lon="6.30594">
        <ele>321.9</ele>
        <time>2023-09-15T13:14:23Z</time>
      </trkpt>
      <trkpt lat="43.52351" lon="6.30595">
        <ele>321.9</ele>
        <time>2023-09-15T13:14:24Z</time>
      </trkpt>
      <trkpt lat="43.52351" lon="6.30595">
        <ele>321.9</ele>
        <time>2023-09-15T13:14:25Z</time>
      </trkpt>
      <trkpt lat="43.5235" lon="6.30596">
        <ele>321.8</ele>
        <time>2023-09-15T13:14:26Z</time>
      </trkpt>
      <trkpt lat="43.5235" lon="6.30596">
        <ele>321.7</ele>
        <time>2023-09-15T13:14:27Z</time>
      </trkpt>
      <trkpt lat="43.5235" lon="6.30597">
        <ele>321.7</ele>
        <time>2023-09-15T13:14:28Z</time>
      </trkpt>
      <trkpt lat="43.5235" lon="6.30597">
        <ele>321.7</ele>
        <time>2023-09-15T13:14:29Z</time>
      </trkpt>
      <trkpt lat="43.5235" lon="6.30597">
        <ele>321.6</ele>
        <time>2023-09-15T13:14:30Z</time>
      </trkpt>
      <trkpt lat="43.5235" lon="6.30598">
        <ele>321.5</ele>
        <time>2023-09-15T13:14:31Z</time>
      </trkpt>
      <trkpt lat="43.5235" lon="6.30598">
        <ele>321.5</ele>
        <time>2023-09-15T13:14:32Z</time>
      </trkpt>
      <trkpt lat="43.5235" lon="6.30598">
        <ele>321.5</ele>
        <time>2023-09-15T13:14:33Z</time>
      </trkpt>
      <trkpt lat="43.5235" lon="6.30599">
        <ele>321.5</ele>
        <time>2023-09-15T13:14:34Z</time>
      </trkpt>
      <trkpt lat="43.5235" lon="6.30599">
        <ele>321.5</ele>
        <time>2023-09-15T13:14:35Z</time>
      </trkpt>
      <trkpt lat="43.5235" lon="6.30599">
        <ele>321.5</ele>
        <time>2023-09-15T13:14:36Z</time>
      </trkpt>
      <trkpt lat="43.5235" lon="6.306">
        <ele>321.4</ele>
        <time>2023-09-15T13:14:37Z</time>
      </trkpt>
      <trkpt lat="43.5235" lon="6.306">
        <ele>321.4</ele>
        <time>2023-09-15T13:14:38Z</time>
      </trkpt>
      <trkpt lat="43.52349" lon="6.30599">
        <ele>321.5</ele>
        <time>2023-09-15T13:14:39Z</time>
      </trkpt>
      <trkpt lat="43.52349" lon="6.30599">
        <ele>321.5</ele>
        <time>2023-09-15T13:14:40Z</time>
      </trkpt>
      <trkpt lat="43.52349" lon="6.30599">
        <ele>321.5</ele>
        <time>2023-09-15T13:14:41Z</time>
      </trkpt>
      <trkpt lat="43.52348" lon="6.30599">
        <ele>321.5</ele>
        <time>2023-09-15T13:14:42Z</time>
      </trkpt>
      <trkpt lat="43.52348" lon="6.306">
        <ele>321.6</ele>
        <time>2023-09-15T13:14:43Z</time>
      </trkpt>
      <trkpt lat="43.52348" lon="6.30601">
        <ele>321.6</ele>
        <time>2023-09-15T13:14:44Z</time>
      </trkpt>
      <trkpt lat="43.52347" lon="6.30601">
        <ele>321.5</ele>
        <time>2023-09-15T13:14:45Z</time>
      </trkpt>
      <trkpt lat="43.52347" lon="6.30601">
        <ele>321.5</ele>
        <time>2023-09-15T13:14:46Z</time>
      </trkpt>
      <trkpt lat="43.52347" lon="6.30602">
        <ele>321.6</ele>
        <time>2023-09-15T13:14:47Z</time>
      </trkpt>
      <trkpt lat="43.52347" lon="6.30603">
        <ele>321.7</ele>
        <time>2023-09-15T13:14:48Z</time>
      </trkpt>
      <trkpt lat="43.52346" lon="6.30603">
        <ele>321.8</ele>
        <time>2023-09-15T13:14:49Z</time>
      </trkpt>
      <trkpt lat="43.52346" lon="6.30604">
        <ele>321.9</ele>
        <time>2023-09-15T13:14:50Z</time>
      </trkpt>
      <trkpt lat="43.52346" lon="6.30605">
        <ele>322</ele>
        <time>2023-09-15T13:14:51Z</time>
      </trkpt>
      <trkpt lat="43.52346" lon="6.30605">
        <ele>322.2</ele>
        <time>2023-09-15T13:14:52Z</time>
      </trkpt>
      <trkpt lat="43.52346" lon="6.30605">
        <ele>322.2</ele>
        <time>2023-09-15T13:14:53Z</time>
      </trkpt>
      <trkpt lat="43.52346" lon="6.30605">
        <ele>322.2</ele>
        <time>2023-09-15T13:14:54Z</time>
      </trkpt>
      <trkpt lat="43.52345" lon="6.30605">
        <ele>322.2</ele>
        <time>2023-09-15T13:14:55Z</time>
      </trkpt>
      <trkpt lat="43.52346" lon="6.30606">
        <ele>322.3</ele>
        <time>2023-09-15T13:14:56Z</time>
      </trkpt>
      <trkpt lat="43.52345" lon="6.30606">
        <ele>322.3</ele>
        <time>2023-09-15T13:14:57Z</time>
      </trkpt>
      <trkpt lat="43.52345" lon="6.30606">
        <ele>322.3</ele>
        <time>2023-09-15T13:14:58Z</time>
      </trkpt>
      <trkpt lat="43.52345" lon="6.30606">
        <ele>322.2</ele>
        <time>2023-09-15T13:14:59Z</time>
      </trkpt>
      <trkpt lat="43.52345" lon="6.30606">
        <ele>322.1</ele>
        <time>2023-09-15T13:15:00Z</time>
      </trkpt>
      <trkpt lat="43.52345" lon="6.30606">
        <ele>322.1</ele>
        <time>2023-09-15T13:15:01Z</time>
      </trkpt>
      <trkpt lat="43.52344" lon="6.30606">
        <ele>322.1</ele>
        <time>2023-09-15T13:15:02Z</time>
      </trkpt>
      <trkpt lat="43.52344" lon="6.30606">
        <ele>322.1</ele>
        <time>2023-09-15T13:15:03Z</time>
      </trkpt>
      <trkpt lat="43.52344" lon="6.30607">
        <ele>322.1</ele>
        <time>2023-09-15T13:15:04Z</time>
      </trkpt>
      <trkpt lat="43.52344" lon="6.30607">
        <ele>322.1</ele>
        <time>2023-09-15T13:15:05Z</time>
      </trkpt>
      <trkpt lat="43.52344" lon="6.30606">
        <ele>322.1</ele>
        <time>2023-09-15T13:15:06Z</time>
      </trkpt>
      <trkpt lat="43.52344" lon="6.30607">
        <ele>322.1</ele>
        <time>2023-09-15T13:15:07Z</time>
      </trkpt>
      <trkpt lat="43.52344" lon="6.30607">
        <ele>322.1</ele>
        <time>2023-09-15T13:15:08Z</time>
      </trkpt>
      <trkpt lat="43.52343" lon="6.30607">
        <ele>322</ele>
        <time>2023-09-15T13:15:09Z</time>
      </trkpt>
      <trkpt lat="43.52343" lon="6.30607">
        <ele>322</ele>
        <time>2023-09-15T13:15:10Z</time>
      </trkpt>
      <trkpt lat="43.52343" lon="6.30608">
        <ele>322.1</ele>
        <time>2023-09-15T13:15:11Z</time>
      </trkpt>
      <trkpt lat="43.52343" lon="6.30609">
        <ele>322.2</ele>
        <time>2023-09-15T13:15:12Z</time>
      </trkpt>
      <trkpt lat="43.52342" lon="6.3061">
        <ele>322.4</ele>
        <time>2023-09-15T13:15:13Z</time>
      </trkpt>
      <trkpt lat="43.52342" lon="6.3061">
        <ele>322.5</ele>
        <time>2023-09-15T13:15:14Z</time>
      </trkpt>
      <trkpt lat="43.52342" lon="6.30611">
        <ele>322.6</ele>
        <time>2023-09-15T13:15:15Z</time>
      </trkpt>
      <trkpt lat="43.52341" lon="6.30612">
        <ele>322.8</ele>
        <time>2023-09-15T13:15:16Z</time>
      </trkpt>
      <trkpt lat="43.52341" lon="6.30613">
        <ele>323</ele>
        <time>2023-09-15T13:15:17Z</time>
      </trkpt>
      <trkpt lat="43.52341" lon="6.30614">
        <ele>323.1</ele>
        <time>2023-09-15T13:15:18Z</time>
      </trkpt>
      <trkpt lat="43.5234" lon="6.30615">
        <ele>323.3</ele>
        <time>2023-09-15T13:15:19Z</time>
      </trkpt>
      <trkpt lat="43.5234" lon="6.30616">
        <ele>323.4</ele>
        <time>2023-09-15T13:15:20Z</time>
      </trkpt>
      <trkpt lat="43.5234" lon="6.30617">
        <ele>323.5</ele>
        <time>2023-09-15T13:15:21Z</time>
      </trkpt>
      <trkpt lat="43.52339" lon="6.30618">
        <ele>323.6</ele>
        <time>2023-09-15T13:15:22Z</time>
      </trkpt>
      <trkpt lat="43.52339" lon="6.30619">
        <ele>323.7</ele>
        <time>2023-09-15T13:15:23Z</time>
      </trkpt>
      <trkpt lat="43.52339" lon="6.3062">
        <ele>323.8</ele>
        <time>2023-09-15T13:15:24Z</time>
      </trkpt>
      <trkpt lat="43.52339" lon="6.30621">
        <ele>323.9</ele>
        <time>2023-09-15T13:15:25Z</time>
      </trkpt>
      <trkpt lat="43.52338" lon="6.30622">
        <ele>323.9</ele>
        <time>2023-09-15T13:15:26Z</time>
      </trkpt>
      <trkpt lat="43.52338" lon="6.30623">
        <ele>324</ele>
        <time>2023-09-15T13:15:27Z</time>
      </trkpt>
      <trkpt lat="43.52337" lon="6.30624">
        <ele>324.1</ele>
        <time>2023-09-15T13:15:28Z</time>
      </trkpt>
      <trkpt lat="43.52337" lon="6.30625">
        <ele>324.2</ele>
        <time>2023-09-15T13:15:29Z</time>
      </trkpt>
      <trkpt lat="43.52337" lon="6.30625">
        <ele>324.3</ele>
        <time>2023-09-15T13:15:30Z</time>
      </trkpt>
      <trkpt lat="43.52337" lon="6.30627">
        <ele>324.4</ele>
        <time>2023-09-15T13:15:31Z</time>
      </trkpt>
      <trkpt lat="43.52337" lon="6.30629">
        <ele>324.5</ele>
        <time>2023-09-15T13:15:32Z</time>
      </trkpt>
      <trkpt lat="43.52336" lon="6.3063">
        <ele>324.6</ele>
        <time>2023-09-15T13:15:33Z</time>
      </trkpt>
      <trkpt lat="43.52336" lon="6.30632">
        <ele>324.7</ele>
        <time>2023-09-15T13:15:34Z</time>
      </trkpt>
      <trkpt lat="43.52337" lon="6.30633">
        <ele>324.7</ele>
        <time>2023-09-15T13:15:35Z</time>
      </trkpt>
      <trkpt lat="43.52337" lon="6.30636">
        <ele>324.8</ele>
        <time>2023-09-15T13:15:36Z</time>
      </trkpt>
      <trkpt lat="43.52337" lon="6.30637">
        <ele>324.8</ele>
        <time>2023-09-15T13:15:37Z</time>
      </trkpt>
      <trkpt lat="43.52337" lon="6.30638">
        <ele>324.8</ele>
        <time>2023-09-15T13:15:38Z</time>
      </trkpt>
      <trkpt lat="43.52337" lon="6.3064">
        <ele>324.9</ele>
        <time>2023-09-15T13:15:39Z</time>
      </trkpt>
      <trkpt lat="43.52336" lon="6.30641">
        <ele>324.9</ele>
        <time>2023-09-15T13:15:40Z</time>
      </trkpt>
      <trkpt lat="43.52335" lon="6.30642">
        <ele>324.9</ele>
        <time>2023-09-15T13:15:41Z</time>
      </trkpt>
      <trkpt lat="43.52335" lon="6.30643">
        <ele>325</ele>
        <time>2023-09-15T13:15:42Z</time>
      </trkpt>
      <trkpt lat="43.52335" lon="6.30644">
        <ele>325.1</ele>
        <time>2023-09-15T13:15:43Z</time>
      </trkpt>
      <trkpt lat="43.52335" lon="6.30646">
        <ele>325.2</ele>
        <time>2023-09-15T13:15:44Z</time>
      </trkpt>
      <trkpt lat="43.52335" lon="6.30647">
        <ele>325.3</ele>
        <time>2023-09-15T13:15:45Z</time>
      </trkpt>
      <trkpt lat="43.52335" lon="6.30649">
        <ele>325.4</ele>
        <time>2023-09-15T13:15:46Z</time>
      </trkpt>
      <trkpt lat="43.52335" lon="6.30651">
        <ele>325.4</ele>
        <time>2023-09-15T13:15:47Z</time>
      </trkpt>
      <trkpt lat="43.52335" lon="6.30652">
        <ele>325.5</ele>
        <time>2023-09-15T13:15:48Z</time>
      </trkpt>
      <trkpt lat="43.52335" lon="6.30653">
        <ele>325.5</ele>
        <time>2023-09-15T13:15:49Z</time>
      </trkpt>
      <trkpt lat="43.52335" lon="6.30655">
        <ele>325.6</ele>
        <time>2023-09-15T13:15:50Z</time>
      </trkpt>
      <trkpt lat="43.52335" lon="6.30656">
        <ele>325.6</ele>
        <time>2023-09-15T13:15:51Z</time>
      </trkpt>
      <trkpt lat="43.52335" lon="6.30658">
        <ele>325.6</ele>
        <time>2023-09-15T13:15:52Z</time>
      </trkpt>
      <trkpt lat="43.52335" lon="6.3066">
        <ele>325.7</ele>
        <time>2023-09-15T13:15:53Z</time>
      </trkpt>
      <trkpt lat="43.52334" lon="6.30661">
        <ele>325.8</ele>
        <time>2023-09-15T13:15:54Z</time>
      </trkpt>
      <trkpt lat="43.52334" lon="6.30662">
        <ele>325.9</ele>
        <time>2023-09-15T13:15:55Z</time>
      </trkpt>
      <trkpt lat="43.52334" lon="6.30664">
        <ele>326</ele>
        <time>2023-09-15T13:15:56Z</time>
      </trkpt>
      <trkpt lat="43.52334" lon="6.30665">
        <ele>326.1</ele>
        <time>2023-09-15T13:15:57Z</time>
      </trkpt>
      <trkpt lat="43.52334" lon="6.30667">
        <ele>326.1</ele>
        <time>2023-09-15T13:15:58Z</time>
      </trkpt>
      <trkpt lat="43.52334" lon="6.30669">
        <ele>326.2</ele>
        <time>2023-09-15T13:15:59Z</time>
      </trkpt>
      <trkpt lat="43.52334" lon="6.3067">
        <ele>326.2</ele>
        <time>2023-09-15T13:16:00Z</time>
      </trkpt>
      <trkpt lat="43.52334" lon="6.30671">
        <ele>326.3</ele>
        <time>2023-09-15T13:16:01Z</time>
      </trkpt>
      <trkpt lat="43.52334" lon="6.30673">
        <ele>326.3</ele>
        <time>2023-09-15T13:16:02Z</time>
      </trkpt>
      <trkpt lat="43.52333" lon="6.30675">
        <ele>326.3</ele>
        <time>2023-09-15T13:16:03Z</time>
      </trkpt>
      <trkpt lat="43.52333" lon="6.30676">
        <ele>326.2</ele>
        <time>2023-09-15T13:16:04Z</time>
      </trkpt>
      <trkpt lat="43.52333" lon="6.30677">
        <ele>326.2</ele>
        <time>2023-09-15T13:16:05Z</time>
      </trkpt>
      <trkpt lat="43.52333" lon="6.30678">
        <ele>326.2</ele>
        <time>2023-09-15T13:16:06Z</time>
      </trkpt>
      <trkpt lat="43.52332" lon="6.30679">
        <ele>326.1</ele>
        <time>2023-09-15T13:16:07Z</time>
      </trkpt>
      <trkpt lat="43.52332" lon="6.3068">
        <ele>326</ele>
        <time>2023-09-15T13:16:08Z</time>
      </trkpt>
      <trkpt lat="43.52331" lon="6.30681">
        <ele>326</ele>
        <time>2023-09-15T13:16:09Z</time>
      </trkpt>
      <trkpt lat="43.52331" lon="6.30683">
        <ele>326</ele>
        <time>2023-09-15T13:16:10Z</time>
      </trkpt>
      <trkpt lat="43.52331" lon="6.30685">
        <ele>326</ele>
        <time>2023-09-15T13:16:11Z</time>
      </trkpt>
      <trkpt lat="43.52331" lon="6.30686">
        <ele>326</ele>
        <time>2023-09-15T13:16:12Z</time>
      </trkpt>
      <trkpt lat="43.52331" lon="6.30687">
        <ele>326</ele>
        <time>2023-09-15T13:16:13Z</time>
      </trkpt>
      <trkpt lat="43.52331" lon="6.30689">
        <ele>326.1</ele>
        <time>2023-09-15T13:16:14Z</time>
      </trkpt>
      <trkpt lat="43.5233" lon="6.30691">
        <ele>326</ele>
        <time>2023-09-15T13:16:15Z</time>
      </trkpt>
      <trkpt lat="43.5233" lon="6.30691">
        <ele>326</ele>
        <time>2023-09-15T13:16:16Z</time>
      </trkpt>
      <trkpt lat="43.52329" lon="6.30693">
        <ele>326</ele>
        <time>2023-09-15T13:16:17Z</time>
      </trkpt>
      <trkpt lat="43.52329" lon="6.30694">
        <ele>326</ele>
        <time>2023-09-15T13:16:18Z</time>
      </trkpt>
      <trkpt lat="43.52328" lon="6.30696">
        <ele>325.9</ele>
        <time>2023-09-15T13:16:19Z</time>
      </trkpt>
      <trkpt lat="43.52328" lon="6.30697">
        <ele>325.8</ele>
        <time>2023-09-15T13:16:20Z</time>
      </trkpt>
      <trkpt lat="43.52327" lon="6.30697">
        <ele>325.8</ele>
        <time>2023-09-15T13:16:21Z</time>
      </trkpt>
      <trkpt lat="43.52326" lon="6.30699">
        <ele>325.8</ele>
        <time>2023-09-15T13:16:22Z</time>
      </trkpt>
      <trkpt lat="43.52326" lon="6.307">
        <ele>325.8</ele>
        <time>2023-09-15T13:16:23Z</time>
      </trkpt>
      <trkpt lat="43.52325" lon="6.30701">
        <ele>325.8</ele>
        <time>2023-09-15T13:16:24Z</time>
      </trkpt>
      <trkpt lat="43.52325" lon="6.30702">
        <ele>325.8</ele>
        <time>2023-09-15T13:16:25Z</time>
      </trkpt>
      <trkpt lat="43.52325" lon="6.30703">
        <ele>325.8</ele>
        <time>2023-09-15T13:16:26Z</time>
      </trkpt>
      <trkpt lat="43.52324" lon="6.30704">
        <ele>325.8</ele>
        <time>2023-09-15T13:16:27Z</time>
      </trkpt>
      <trkpt lat="43.52324" lon="6.30706">
        <ele>325.9</ele>
        <time>2023-09-15T13:16:28Z</time>
      </trkpt>
      <trkpt lat="43.52323" lon="6.30707">
        <ele>325.8</ele>
        <time>2023-09-15T13:16:29Z</time>
      </trkpt>
      <trkpt lat="43.52322" lon="6.30708">
        <ele>325.8</ele>
        <time>2023-09-15T13:16:30Z</time>
      </trkpt>
      <trkpt lat="43.52321" lon="6.30709">
        <ele>325.8</ele>
        <time>2023-09-15T13:16:31Z</time>
      </trkpt>
      <trkpt lat="43.52321" lon="6.3071">
        <ele>325.8</ele>
        <time>2023-09-15T13:16:32Z</time>
      </trkpt>
      <trkpt lat="43.52321" lon="6.30711">
        <ele>325.8</ele>
        <time>2023-09-15T13:16:33Z</time>
      </trkpt>
      <trkpt lat="43.5232" lon="6.30712">
        <ele>325.8</ele>
        <time>2023-09-15T13:16:34Z</time>
      </trkpt>
      <trkpt lat="43.52319" lon="6.30713">
        <ele>325.8</ele>
        <time>2023-09-15T13:16:35Z</time>
      </trkpt>
      <trkpt lat="43.52319" lon="6.30715">
        <ele>325.7</ele>
        <time>2023-09-15T13:16:36Z</time>
      </trkpt>
      <trkpt lat="43.52319" lon="6.30717">
        <ele>325.7</ele>
        <time>2023-09-15T13:16:37Z</time>
      </trkpt>
      <trkpt lat="43.52318" lon="6.30719">
        <ele>325.6</ele>
        <time>2023-09-15T13:16:38Z</time>
      </trkpt>
      <trkpt lat="43.52318" lon="6.3072">
        <ele>325.6</ele>
        <time>2023-09-15T13:16:39Z</time>
      </trkpt>
      <trkpt lat="43.52318" lon="6.30721">
        <ele>325.6</ele>
        <time>2023-09-15T13:16:40Z</time>
      </trkpt>
      <trkpt lat="43.52317" lon="6.30722">
        <ele>325.5</ele>
        <time>2023-09-15T13:16:41Z</time>
      </trkpt>
      <trkpt lat="43.52317" lon="6.30723">
        <ele>325.6</ele>
        <time>2023-09-15T13:16:42Z</time>
      </trkpt>
      <trkpt lat="43.52317" lon="6.30724">
        <ele>325.6</ele>
        <time>2023-09-15T13:16:43Z</time>
      </trkpt>
      <trkpt lat="43.52316" lon="6.30726">
        <ele>325.5</ele>
        <time>2023-09-15T13:16:44Z</time>
      </trkpt>
      <trkpt lat="43.52316" lon="6.30727">
        <ele>325.5</ele>
        <time>2023-09-15T13:16:45Z</time>
      </trkpt>
      <trkpt lat="43.52315" lon="6.30728">
        <ele>325.4</ele>
        <time>2023-09-15T13:16:46Z</time>
      </trkpt>
      <trkpt lat="43.52315" lon="6.3073">
        <ele>325.4</ele>
        <time>2023-09-15T13:16:47Z</time>
      </trkpt>
      <trkpt lat="43.52314" lon="6.30731">
        <ele>325.3</ele>
        <time>2023-09-15T13:16:48Z</time>
      </trkpt>
      <trkpt lat="43.52314" lon="6.30733">
        <ele>325.4</ele>
        <time>2023-09-15T13:16:49Z</time>
      </trkpt>
      <trkpt lat="43.52314" lon="6.30734">
        <ele>325.4</ele>
        <time>2023-09-15T13:16:50Z</time>
      </trkpt>
      <trkpt lat="43.52313" lon="6.30735">
        <ele>325.4</ele>
        <time>2023-09-15T13:16:51Z</time>
      </trkpt>
      <trkpt lat="43.52312" lon="6.30737">
        <ele>325.4</ele>
        <time>2023-09-15T13:16:52Z</time>
      </trkpt>
      <trkpt lat="43.52312" lon="6.30738">
        <ele>325.4</ele>
        <time>2023-09-15T13:16:53Z</time>
      </trkpt>
      <trkpt lat="43.52312" lon="6.3074">
        <ele>325.4</ele>
        <time>2023-09-15T13:16:54Z</time>
      </trkpt>
      <trkpt lat="43.52311" lon="6.30741">
        <ele>325.3</ele>
        <time>2023-09-15T13:16:55Z</time>
      </trkpt>
      <trkpt lat="43.5231" lon="6.30742">
        <ele>325.3</ele>
        <time>2023-09-15T13:16:56Z</time>
      </trkpt>
      <trkpt lat="43.5231" lon="6.30743">
        <ele>325.2</ele>
        <time>2023-09-15T13:16:57Z</time>
      </trkpt>
      <trkpt lat="43.52309" lon="6.30744">
        <ele>325</ele>
        <time>2023-09-15T13:16:58Z</time>
      </trkpt>
      <trkpt lat="43.52309" lon="6.30746">
        <ele>324.9</ele>
        <time>2023-09-15T13:16:59Z</time>
      </trkpt>
      <trkpt lat="43.52308" lon="6.30747">
        <ele>324.8</ele>
        <time>2023-09-15T13:17:00Z</time>
      </trkpt>
      <trkpt lat="43.52308" lon="6.30748">
        <ele>324.8</ele>
        <time>2023-09-15T13:17:01Z</time>
      </trkpt>
      <trkpt lat="43.52308" lon="6.30749">
        <ele>324.7</ele>
        <time>2023-09-15T13:17:02Z</time>
      </trkpt>
      <trkpt lat="43.52308" lon="6.3075">
        <ele>324.8</ele>
        <time>2023-09-15T13:17:03Z</time>
      </trkpt>
      <trkpt lat="43.52307" lon="6.30751">
        <ele>324.8</ele>
        <time>2023-09-15T13:17:04Z</time>
      </trkpt>
      <trkpt lat="43.52307" lon="6.30753">
        <ele>324.8</ele>
        <time>2023-09-15T13:17:05Z</time>
      </trkpt>
      <trkpt lat="43.52307" lon="6.30754">
        <ele>324.8</ele>
        <time>2023-09-15T13:17:06Z</time>
      </trkpt>
      <trkpt lat="43.52306" lon="6.30756">
        <ele>324.8</ele>
        <time>2023-09-15T13:17:07Z</time>
      </trkpt>
      <trkpt lat="43.52306" lon="6.30758">
        <ele>324.9</ele>
        <time>2023-09-15T13:17:08Z</time>
      </trkpt>
      <trkpt lat="43.52306" lon="6.30758">
        <ele>325</ele>
        <time>2023-09-15T13:17:09Z</time>
      </trkpt>
      <trkpt lat="43.52305" lon="6.3076">
        <ele>325</ele>
        <time>2023-09-15T13:17:10Z</time>
      </trkpt>
      <trkpt lat="43.52304" lon="6.30762">
        <ele>325.1</ele>
        <time>2023-09-15T13:17:11Z</time>
      </trkpt>
      <trkpt lat="43.52304" lon="6.30763">
        <ele>325.1</ele>
        <time>2023-09-15T13:17:12Z</time>
      </trkpt>
      <trkpt lat="43.52304" lon="6.30764">
        <ele>325.2</ele>
        <time>2023-09-15T13:17:13Z</time>
      </trkpt>
      <trkpt lat="43.52303" lon="6.30764">
        <ele>325.3</ele>
        <time>2023-09-15T13:17:14Z</time>
      </trkpt>
      <trkpt lat="43.52302" lon="6.30765">
        <ele>325.3</ele>
        <time>2023-09-15T13:17:15Z</time>
      </trkpt>
      <trkpt lat="43.52301" lon="6.30766">
        <ele>325.4</ele>
        <time>2023-09-15T13:17:16Z</time>
      </trkpt>
      <trkpt lat="43.523" lon="6.30768">
        <ele>325.4</ele>
        <time>2023-09-15T13:17:17Z</time>
      </trkpt>
      <trkpt lat="43.523" lon="6.30769">
        <ele>325.4</ele>
        <time>2023-09-15T13:17:18Z</time>
      </trkpt>
      <trkpt lat="43.52299" lon="6.30769">
        <ele>325.3</ele>
        <time>2023-09-15T13:17:19Z</time>
      </trkpt>
      <trkpt lat="43.52299" lon="6.30771">
        <ele>325.3</ele>
        <time>2023-09-15T13:17:20Z</time>
      </trkpt>
      <trkpt lat="43.52299" lon="6.30773">
        <ele>325.3</ele>
        <time>2023-09-15T13:17:21Z</time>
      </trkpt>
      <trkpt lat="43.52298" lon="6.30775">
        <ele>325.3</ele>
        <time>2023-09-15T13:17:22Z</time>
      </trkpt>
      <trkpt lat="43.52298" lon="6.30776">
        <ele>325.2</ele>
        <time>2023-09-15T13:17:23Z</time>
      </trkpt>
      <trkpt lat="43.52297" lon="6.30777">
        <ele>325.3</ele>
        <time>2023-09-15T13:17:24Z</time>
      </trkpt>
      <trkpt lat="43.52297" lon="6.30779">
        <ele>325.2</ele>
        <time>2023-09-15T13:17:25Z</time>
      </trkpt>
      <trkpt lat="43.52296" lon="6.3078">
        <ele>325.2</ele>
        <time>2023-09-15T13:17:26Z</time>
      </trkpt>
      <trkpt lat="43.52296" lon="6.30781">
        <ele>325.2</ele>
        <time>2023-09-15T13:17:27Z</time>
      </trkpt>
      <trkpt lat="43.52296" lon="6.30783">
        <ele>325.2</ele>
        <time>2023-09-15T13:17:28Z</time>
      </trkpt>
      <trkpt lat="43.52296" lon="6.30785">
        <ele>325.1</ele>
        <time>2023-09-15T13:17:29Z</time>
      </trkpt>
      <trkpt lat="43.52295" lon="6.30786">
        <ele>325.1</ele>
        <time>2023-09-15T13:17:30Z</time>
      </trkpt>
      <trkpt lat="43.52294" lon="6.30787">
        <ele>325.1</ele>
        <time>2023-09-15T13:17:31Z</time>
      </trkpt>
      <trkpt lat="43.52294" lon="6.30788">
        <ele>325.1</ele>
        <time>2023-09-15T13:17:32Z</time>
      </trkpt>
      <trkpt lat="43.52294" lon="6.30789">
        <ele>325.1</ele>
        <time>2023-09-15T13:17:33Z</time>
      </trkpt>
      <trkpt lat="43.52293" lon="6.30791">
        <ele>325</ele>
        <time>2023-09-15T13:17:34Z</time>
      </trkpt>
      <trkpt lat="43.52293" lon="6.30792">
        <ele>325</ele>
        <time>2023-09-15T13:17:35Z</time>
      </trkpt>
      <trkpt lat="43.52292" lon="6.30793">
        <ele>324.9</ele>
        <time>2023-09-15T13:17:36Z</time>
      </trkpt>
      <trkpt lat="43.52291" lon="6.30794">
        <ele>324.9</ele>
        <time>2023-09-15T13:17:37Z</time>
      </trkpt>
      <trkpt lat="43.5229" lon="6.30794">
        <ele>325</ele>
        <time>2023-09-15T13:17:38Z</time>
      </trkpt>
      <trkpt lat="43.5229" lon="6.30795">
        <ele>325.1</ele>
        <time>2023-09-15T13:17:39Z</time>
      </trkpt>
      <trkpt lat="43.5229" lon="6.30795">
        <ele>325.1</ele>
        <time>2023-09-15T13:17:40Z</time>
      </trkpt>
      <trkpt lat="43.5229" lon="6.30795">
        <ele>325.2</ele>
        <time>2023-09-15T13:17:41Z</time>
      </trkpt>
      <trkpt lat="43.5229" lon="6.30794">
        <ele>325.2</ele>
        <time>2023-09-15T13:17:42Z</time>
      </trkpt>
      <trkpt lat="43.5229" lon="6.30795">
        <ele>325.3</ele>
        <time>2023-09-15T13:17:43Z</time>
      </trkpt>
      <trkpt lat="43.5229" lon="6.30795">
        <ele>325.3</ele>
        <time>2023-09-15T13:17:44Z</time>
      </trkpt>
      <trkpt lat="43.52289" lon="6.30796">
        <ele>325.3</ele>
        <time>2023-09-15T13:17:45Z</time>
      </trkpt>
      <trkpt lat="43.52289" lon="6.30797">
        <ele>325.3</ele>
        <time>2023-09-15T13:17:46Z</time>
      </trkpt>
      <trkpt lat="43.52289" lon="6.30798">
        <ele>325.3</ele>
        <time>2023-09-15T13:17:47Z</time>
      </trkpt>
      <trkpt lat="43.52288" lon="6.30799">
        <ele>325.3</ele>
        <time>2023-09-15T13:17:48Z</time>
      </trkpt>
      <trkpt lat="43.52287" lon="6.308">
        <ele>325.3</ele>
        <time>2023-09-15T13:17:49Z</time>
      </trkpt>
      <trkpt lat="43.52286" lon="6.30801">
        <ele>325.2</ele>
        <time>2023-09-15T13:17:50Z</time>
      </trkpt>
      <trkpt lat="43.52286" lon="6.30801">
        <ele>325.2</ele>
        <time>2023-09-15T13:17:51Z</time>
      </trkpt>
      <trkpt lat="43.52285" lon="6.30802">
        <ele>325.5</ele>
        <time>2023-09-15T13:17:52Z</time>
      </trkpt>
      <trkpt lat="43.52285" lon="6.30804">
        <ele>325.7</ele>
        <time>2023-09-15T13:17:53Z</time>
      </trkpt>
      <trkpt lat="43.52284" lon="6.30805">
        <ele>325.6</ele>
        <time>2023-09-15T13:17:54Z</time>
      </trkpt>
      <trkpt lat="43.52283" lon="6.30806">
        <ele>325.6</ele>
        <time>2023-09-15T13:17:55Z</time>
      </trkpt>
      <trkpt lat="43.52283" lon="6.30808">
        <ele>325.6</ele>
        <time>2023-09-15T13:17:56Z</time>
      </trkpt>
      <trkpt lat="43.52282" lon="6.30809">
        <ele>325.5</ele>
        <time>2023-09-15T13:17:57Z</time>
      </trkpt>
      <trkpt lat="43.52281" lon="6.3081">
        <ele>325.5</ele>
        <time>2023-09-15T13:17:58Z</time>
      </trkpt>
      <trkpt lat="43.5228" lon="6.3081">
        <ele>325.7</ele>
        <time>2023-09-15T13:17:59Z</time>
      </trkpt>
      <trkpt lat="43.52279" lon="6.30812">
        <ele>325.8</ele>
        <time>2023-09-15T13:18:00Z</time>
      </trkpt>
      <trkpt lat="43.52279" lon="6.30813">
        <ele>325.9</ele>
        <time>2023-09-15T13:18:01Z</time>
      </trkpt>
      <trkpt lat="43.52279" lon="6.30813">
        <ele>325.9</ele>
        <time>2023-09-15T13:18:02Z</time>
      </trkpt>
      <trkpt lat="43.52278" lon="6.30814">
        <ele>326</ele>
        <time>2023-09-15T13:18:03Z</time>
      </trkpt>
      <trkpt lat="43.52277" lon="6.30816">
        <ele>326</ele>
        <time>2023-09-15T13:18:04Z</time>
      </trkpt>
      <trkpt lat="43.52277" lon="6.30817">
        <ele>326</ele>
        <time>2023-09-15T13:18:05Z</time>
      </trkpt>
      <trkpt lat="43.52276" lon="6.30818">
        <ele>326</ele>
        <time>2023-09-15T13:18:06Z</time>
      </trkpt>
      <trkpt lat="43.52276" lon="6.30819">
        <ele>326</ele>
        <time>2023-09-15T13:18:07Z</time>
      </trkpt>
      <trkpt lat="43.52275" lon="6.3082">
        <ele>326.1</ele>
        <time>2023-09-15T13:18:08Z</time>
      </trkpt>
      <trkpt lat="43.52273" lon="6.30821">
        <ele>326.1</ele>
        <time>2023-09-15T13:18:09Z</time>
      </trkpt>
      <trkpt lat="43.52272" lon="6.30822">
        <ele>326.1</ele>
        <time>2023-09-15T13:18:10Z</time>
      </trkpt>
      <trkpt lat="43.52272" lon="6.30823">
        <ele>326.1</ele>
        <time>2023-09-15T13:18:11Z</time>
      </trkpt>
      <trkpt lat="43.52271" lon="6.30824">
        <ele>326.1</ele>
        <time>2023-09-15T13:18:12Z</time>
      </trkpt>
      <trkpt lat="43.5227" lon="6.30825">
        <ele>326.1</ele>
        <time>2023-09-15T13:18:13Z</time>
      </trkpt>
      <trkpt lat="43.5227" lon="6.30826">
        <ele>326.1</ele>
        <time>2023-09-15T13:18:14Z</time>
      </trkpt>
      <trkpt lat="43.52269" lon="6.30826">
        <ele>326.1</ele>
        <time>2023-09-15T13:18:15Z</time>
      </trkpt>
      <trkpt lat="43.52268" lon="6.30827">
        <ele>326.2</ele>
        <time>2023-09-15T13:18:16Z</time>
      </trkpt>
      <trkpt lat="43.52267" lon="6.30828">
        <ele>326.2</ele>
        <time>2023-09-15T13:18:17Z</time>
      </trkpt>
      <trkpt lat="43.52266" lon="6.30829">
        <ele>326.4</ele>
        <time>2023-09-15T13:18:18Z</time>
      </trkpt>
      <trkpt lat="43.52265" lon="6.3083">
        <ele>326.6</ele>
        <time>2023-09-15T13:18:19Z</time>
      </trkpt>
      <trkpt lat="43.52264" lon="6.30831">
        <ele>326.8</ele>
        <time>2023-09-15T13:18:20Z</time>
      </trkpt>
      <trkpt lat="43.52264" lon="6.30832">
        <ele>326.9</ele>
        <time>2023-09-15T13:18:21Z</time>
      </trkpt>
      <trkpt lat="43.52263" lon="6.30833">
        <ele>327</ele>
        <time>2023-09-15T13:18:22Z</time>
      </trkpt>
      <trkpt lat="43.52262" lon="6.30833">
        <ele>327</ele>
        <time>2023-09-15T13:18:23Z</time>
      </trkpt>
      <trkpt lat="43.52261" lon="6.30835">
        <ele>327.2</ele>
        <time>2023-09-15T13:18:24Z</time>
      </trkpt>
      <trkpt lat="43.52261" lon="6.30836">
        <ele>327.3</ele>
        <time>2023-09-15T13:18:25Z</time>
      </trkpt>
      <trkpt lat="43.5226" lon="6.30838">
        <ele>327.4</ele>
        <time>2023-09-15T13:18:26Z</time>
      </trkpt>
      <trkpt lat="43.52259" lon="6.30839">
        <ele>327.5</ele>
        <time>2023-09-15T13:18:27Z</time>
      </trkpt>
      <trkpt lat="43.52258" lon="6.30841">
        <ele>327.5</ele>
        <time>2023-09-15T13:18:28Z</time>
      </trkpt>
      <trkpt lat="43.52258" lon="6.30842">
        <ele>327.5</ele>
        <time>2023-09-15T13:18:29Z</time>
      </trkpt>
      <trkpt lat="43.52258" lon="6.30845">
        <ele>327.5</ele>
        <time>2023-09-15T13:18:30Z</time>
      </trkpt>
      <trkpt lat="43.52258" lon="6.30846">
        <ele>327.5</ele>
        <time>2023-09-15T13:18:31Z</time>
      </trkpt>
      <trkpt lat="43.52257" lon="6.30848">
        <ele>327.5</ele>
        <time>2023-09-15T13:18:32Z</time>
      </trkpt>
      <trkpt lat="43.52257" lon="6.3085">
        <ele>327.4</ele>
        <time>2023-09-15T13:18:33Z</time>
      </trkpt>
      <trkpt lat="43.52256" lon="6.30851">
        <ele>327.3</ele>
        <time>2023-09-15T13:18:34Z</time>
      </trkpt>
      <trkpt lat="43.52256" lon="6.30853">
        <ele>327.3</ele>
        <time>2023-09-15T13:18:35Z</time>
      </trkpt>
      <trkpt lat="43.52255" lon="6.30854">
        <ele>327.4</ele>
        <time>2023-09-15T13:18:36Z</time>
      </trkpt>
      <trkpt lat="43.52255" lon="6.30855">
        <ele>327.4</ele>
        <time>2023-09-15T13:18:37Z</time>
      </trkpt>
      <trkpt lat="43.52255" lon="6.30857">
        <ele>327.3</ele>
        <time>2023-09-15T13:18:38Z</time>
      </trkpt>
      <trkpt lat="43.52254" lon="6.30858">
        <ele>327.3</ele>
        <time>2023-09-15T13:18:39Z</time>
      </trkpt>
      <trkpt lat="43.52254" lon="6.3086">
        <ele>327.4</ele>
        <time>2023-09-15T13:18:40Z</time>
      </trkpt>
      <trkpt lat="43.52254" lon="6.30861">
        <ele>327.5</ele>
        <time>2023-09-15T13:18:41Z</time>
      </trkpt>
      <trkpt lat="43.52254" lon="6.30862">
        <ele>327.7</ele>
        <time>2023-09-15T13:18:42Z</time>
      </trkpt>
      <trkpt lat="43.52253" lon="6.30863">
        <ele>327.8</ele>
        <time>2023-09-15T13:18:43Z</time>
      </trkpt>
      <trkpt lat="43.52253" lon="6.30864">
        <ele>328</ele>
        <time>2023-09-15T13:18:44Z</time>
      </trkpt>
      <trkpt lat="43.52252" lon="6.30865">
        <ele>328.1</ele>
        <time>2023-09-15T13:18:45Z</time>
      </trkpt>
      <trkpt lat="43.52251" lon="6.30866">
        <ele>328.2</ele>
        <time>2023-09-15T13:18:46Z</time>
      </trkpt>
      <trkpt lat="43.5225" lon="6.30866">
        <ele>328.3</ele>
        <time>2023-09-15T13:18:47Z</time>
      </trkpt>
      <trkpt lat="43.52249" lon="6.30867">
        <ele>328.4</ele>
        <time>2023-09-15T13:18:48Z</time>
      </trkpt>
      <trkpt lat="43.52249" lon="6.30869">
        <ele>328.4</ele>
        <time>2023-09-15T13:18:49Z</time>
      </trkpt>
      <trkpt lat="43.52249" lon="6.3087">
        <ele>328.5</ele>
        <time>2023-09-15T13:18:50Z</time>
      </trkpt>
      <trkpt lat="43.52248" lon="6.30871">
        <ele>328.6</ele>
        <time>2023-09-15T13:18:51Z</time>
      </trkpt>
      <trkpt lat="43.52247" lon="6.30872">
        <ele>328.7</ele>
        <time>2023-09-15T13:18:52Z</time>
      </trkpt>
      <trkpt lat="43.52247" lon="6.30873">
        <ele>328.7</ele>
        <time>2023-09-15T13:18:53Z</time>
      </trkpt>
      <trkpt lat="43.52246" lon="6.30874">
        <ele>328.8</ele>
        <time>2023-09-15T13:18:54Z</time>
      </trkpt>
      <trkpt lat="43.52245" lon="6.30874">
        <ele>328.8</ele>
        <time>2023-09-15T13:18:55Z</time>
      </trkpt>
      <trkpt lat="43.52245" lon="6.30875">
        <ele>328.9</ele>
        <time>2023-09-15T13:18:56Z</time>
      </trkpt>
      <trkpt lat="43.52244" lon="6.30876">
        <ele>328.9</ele>
        <time>2023-09-15T13:18:57Z</time>
      </trkpt>
      <trkpt lat="43.52244" lon="6.30877">
        <ele>329</ele>
        <time>2023-09-15T13:18:58Z</time>
      </trkpt>
      <trkpt lat="43.52243" lon="6.30878">
        <ele>329.1</ele>
        <time>2023-09-15T13:18:59Z</time>
      </trkpt>
      <trkpt lat="43.52243" lon="6.30879">
        <ele>329.2</ele>
        <time>2023-09-15T13:19:00Z</time>
      </trkpt>
      <trkpt lat="43.52242" lon="6.3088">
        <ele>329.3</ele>
        <time>2023-09-15T13:19:01Z</time>
      </trkpt>
      <trkpt lat="43.52242" lon="6.30881">
        <ele>329.2</ele>
        <time>2023-09-15T13:19:02Z</time>
      </trkpt>
      <trkpt lat="43.52241" lon="6.30882">
        <ele>329.2</ele>
        <time>2023-09-15T13:19:03Z</time>
      </trkpt>
      <trkpt lat="43.52241" lon="6.30885">
        <ele>329.4</ele>
        <time>2023-09-15T13:19:04Z</time>
      </trkpt>
      <trkpt lat="43.52242" lon="6.30887">
        <ele>329.5</ele>
        <time>2023-09-15T13:19:05Z</time>
      </trkpt>
      <trkpt lat="43.52243" lon="6.30888">
        <ele>329.6</ele>
        <time>2023-09-15T13:19:06Z</time>
      </trkpt>
      <trkpt lat="43.52243" lon="6.30889">
        <ele>329.6</ele>
        <time>2023-09-15T13:19:07Z</time>
      </trkpt>
      <trkpt lat="43.52243" lon="6.3089">
        <ele>329.7</ele>
        <time>2023-09-15T13:19:08Z</time>
      </trkpt>
      <trkpt lat="43.52242" lon="6.3089">
        <ele>329.8</ele>
        <time>2023-09-15T13:19:09Z</time>
      </trkpt>
      <trkpt lat="43.52242" lon="6.30891">
        <ele>329.7</ele>
        <time>2023-09-15T13:19:10Z</time>
      </trkpt>
      <trkpt lat="43.52241" lon="6.30893">
        <ele>329.7</ele>
        <time>2023-09-15T13:19:11Z</time>
      </trkpt>
      <trkpt lat="43.5224" lon="6.30894">
        <ele>329.7</ele>
        <time>2023-09-15T13:19:12Z</time>
      </trkpt>
      <trkpt lat="43.52239" lon="6.30895">
        <ele>329.8</ele>
        <time>2023-09-15T13:19:13Z</time>
      </trkpt>
      <trkpt lat="43.52238" lon="6.30895">
        <ele>329.8</ele>
        <time>2023-09-15T13:19:14Z</time>
      </trkpt>
      <trkpt lat="43.52237" lon="6.30896">
        <ele>329.9</ele>
        <time>2023-09-15T13:19:15Z</time>
      </trkpt>
      <trkpt lat="43.52236" lon="6.30897">
        <ele>330</ele>
        <time>2023-09-15T13:19:16Z</time>
      </trkpt>
      <trkpt lat="43.52235" lon="6.30898">
        <ele>330</ele>
        <time>2023-09-15T13:19:17Z</time>
      </trkpt>
      <trkpt lat="43.52234" lon="6.30899">
        <ele>330.2</ele>
        <time>2023-09-15T13:19:18Z</time>
      </trkpt>
      <trkpt lat="43.52233" lon="6.30899">
        <ele>330.3</ele>
        <time>2023-09-15T13:19:19Z</time>
      </trkpt>
      <trkpt lat="43.52232" lon="6.30899">
        <ele>330.4</ele>
        <time>2023-09-15T13:19:20Z</time>
      </trkpt>
      <trkpt lat="43.5223" lon="6.309">
        <ele>330.5</ele>
        <time>2023-09-15T13:19:21Z</time>
      </trkpt>
      <trkpt lat="43.52229" lon="6.309">
        <ele>330.7</ele>
        <time>2023-09-15T13:19:22Z</time>
      </trkpt>
      <trkpt lat="43.52228" lon="6.309">
        <ele>330.8</ele>
        <time>2023-09-15T13:19:23Z</time>
      </trkpt>
      <trkpt lat="43.52227" lon="6.30901">
        <ele>330.9</ele>
        <time>2023-09-15T13:19:24Z</time>
      </trkpt>
      <trkpt lat="43.52225" lon="6.30901">
        <ele>331</ele>
        <time>2023-09-15T13:19:25Z</time>
      </trkpt>
      <trkpt lat="43.52224" lon="6.30901">
        <ele>331.1</ele>
        <time>2023-09-15T13:19:26Z</time>
      </trkpt>
      <trkpt lat="43.52223" lon="6.30901">
        <ele>331.1</ele>
        <time>2023-09-15T13:19:27Z</time>
      </trkpt>
      <trkpt lat="43.52222" lon="6.30901">
        <ele>331.2</ele>
        <time>2023-09-15T13:19:28Z</time>
      </trkpt>
      <trkpt lat="43.52221" lon="6.30901">
        <ele>331.2</ele>
        <time>2023-09-15T13:19:29Z</time>
      </trkpt>
      <trkpt lat="43.5222" lon="6.30901">
        <ele>331.2</ele>
        <time>2023-09-15T13:19:30Z</time>
      </trkpt>
      <trkpt lat="43.52219" lon="6.30901">
        <ele>331.2</ele>
        <time>2023-09-15T13:19:31Z</time>
      </trkpt>
      <trkpt lat="43.52219" lon="6.30901">
        <ele>331.2</ele>
        <time>2023-09-15T13:19:32Z</time>
      </trkpt>
      <trkpt lat="43.52218" lon="6.30901">
        <ele>331.2</ele>
        <time>2023-09-15T13:19:33Z</time>
      </trkpt>
      <trkpt lat="43.52218" lon="6.30901">
        <ele>331.2</ele>
        <time>2023-09-15T13:19:34Z</time>
      </trkpt>
      <trkpt lat="43.52218" lon="6.30901">
        <ele>331.1</ele>
        <time>2023-09-15T13:19:35Z</time>
      </trkpt>
      <trkpt lat="43.52218" lon="6.30901">
        <ele>331.2</ele>
        <time>2023-09-15T13:19:36Z</time>
      </trkpt>
      <trkpt lat="43.52218" lon="6.30902">
        <ele>331.3</ele>
        <time>2023-09-15T13:19:37Z</time>
      </trkpt>
      <trkpt lat="43.52218" lon="6.30903">
        <ele>331.4</ele>
        <time>2023-09-15T13:19:38Z</time>
      </trkpt>
      <trkpt lat="43.52217" lon="6.30904">
        <ele>331.4</ele>
        <time>2023-09-15T13:19:39Z</time>
      </trkpt>
      <trkpt lat="43.52217" lon="6.30905">
        <ele>331.4</ele>
        <time>2023-09-15T13:19:40Z</time>
      </trkpt>
      <trkpt lat="43.52216" lon="6.30906">
        <ele>331.4</ele>
        <time>2023-09-15T13:19:41Z</time>
      </trkpt>
      <trkpt lat="43.52215" lon="6.30907">
        <ele>331.4</ele>
        <time>2023-09-15T13:19:42Z</time>
      </trkpt>
      <trkpt lat="43.52215" lon="6.30908">
        <ele>331.4</ele>
        <time>2023-09-15T13:19:43Z</time>
      </trkpt>
      <trkpt lat="43.52214" lon="6.30909">
        <ele>331.5</ele>
        <time>2023-09-15T13:19:44Z</time>
      </trkpt>
      <trkpt lat="43.52213" lon="6.30911">
        <ele>331.5</ele>
        <time>2023-09-15T13:19:45Z</time>
      </trkpt>
      <trkpt lat="43.52213" lon="6.30912">
        <ele>331.5</ele>
        <time>2023-09-15T13:19:46Z</time>
      </trkpt>
      <trkpt lat="43.52213" lon="6.30913">
        <ele>331.5</ele>
        <time>2023-09-15T13:19:47Z</time>
      </trkpt>
      <trkpt lat="43.52212" lon="6.30915">
        <ele>331.5</ele>
        <time>2023-09-15T13:19:48Z</time>
      </trkpt>
      <trkpt lat="43.52212" lon="6.30917">
        <ele>331.5</ele>
        <time>2023-09-15T13:19:49Z</time>
      </trkpt>
      <trkpt lat="43.52211" lon="6.30918">
        <ele>331.4</ele>
        <time>2023-09-15T13:19:50Z</time>
      </trkpt>
      <trkpt lat="43.5221" lon="6.3092">
        <ele>331.4</ele>
        <time>2023-09-15T13:19:51Z</time>
      </trkpt>
      <trkpt lat="43.52209" lon="6.30921">
        <ele>331.4</ele>
        <time>2023-09-15T13:19:52Z</time>
      </trkpt>
      <trkpt lat="43.52208" lon="6.30922">
        <ele>331.4</ele>
        <time>2023-09-15T13:19:53Z</time>
      </trkpt>
      <trkpt lat="43.52208" lon="6.30924">
        <ele>331.4</ele>
        <time>2023-09-15T13:19:54Z</time>
      </trkpt>
      <trkpt lat="43.52208" lon="6.30926">
        <ele>331.4</ele>
        <time>2023-09-15T13:19:55Z</time>
      </trkpt>
      <trkpt lat="43.52208" lon="6.30928">
        <ele>331.4</ele>
        <time>2023-09-15T13:19:56Z</time>
      </trkpt>
      <trkpt lat="43.52208" lon="6.3093">
        <ele>331.4</ele>
        <time>2023-09-15T13:19:57Z</time>
      </trkpt>
      <trkpt lat="43.52209" lon="6.30932">
        <ele>331.3</ele>
        <time>2023-09-15T13:19:58Z</time>
      </trkpt>
      <trkpt lat="43.52209" lon="6.30934">
        <ele>331.4</ele>
        <time>2023-09-15T13:19:59Z</time>
      </trkpt>
      <trkpt lat="43.52209" lon="6.30935">
        <ele>331.4</ele>
        <time>2023-09-15T13:20:00Z</time>
      </trkpt>
      <trkpt lat="43.5221" lon="6.30937">
        <ele>331.5</ele>
        <time>2023-09-15T13:20:01Z</time>
      </trkpt>
      <trkpt lat="43.5221" lon="6.30938">
        <ele>331.4</ele>
        <time>2023-09-15T13:20:02Z</time>
      </trkpt>
      <trkpt lat="43.5221" lon="6.3094">
        <ele>331.3</ele>
        <time>2023-09-15T13:20:03Z</time>
      </trkpt>
      <trkpt lat="43.5221" lon="6.30942">
        <ele>331.1</ele>
        <time>2023-09-15T13:20:04Z</time>
      </trkpt>
      <trkpt lat="43.52211" lon="6.30944">
        <ele>331</ele>
        <time>2023-09-15T13:20:05Z</time>
      </trkpt>
      <trkpt lat="43.52211" lon="6.30946">
        <ele>330.9</ele>
        <time>2023-09-15T13:20:06Z</time>
      </trkpt>
      <trkpt lat="43.52212" lon="6.30948">
        <ele>330.8</ele>
        <time>2023-09-15T13:20:07Z</time>
      </trkpt>
      <trkpt lat="43.52212" lon="6.30949">
        <ele>330.7</ele>
        <time>2023-09-15T13:20:08Z</time>
      </trkpt>
      <trkpt lat="43.52213" lon="6.30951">
        <ele>330.6</ele>
        <time>2023-09-15T13:20:09Z</time>
      </trkpt>
      <trkpt lat="43.52213" lon="6.30952">
        <ele>330.6</ele>
        <time>2023-09-15T13:20:10Z</time>
      </trkpt>
      <trkpt lat="43.52213" lon="6.30954">
        <ele>330.6</ele>
        <time>2023-09-15T13:20:11Z</time>
      </trkpt>
      <trkpt lat="43.52213" lon="6.30956">
        <ele>330.6</ele>
        <time>2023-09-15T13:20:12Z</time>
      </trkpt>
      <trkpt lat="43.52213" lon="6.30957">
        <ele>330.6</ele>
        <time>2023-09-15T13:20:13Z</time>
      </trkpt>
      <trkpt lat="43.52213" lon="6.30958">
        <ele>330.7</ele>
        <time>2023-09-15T13:20:14Z</time>
      </trkpt>
      <trkpt lat="43.52212" lon="6.30959">
        <ele>330.7</ele>
        <time>2023-09-15T13:20:15Z</time>
      </trkpt>
      <trkpt lat="43.52212" lon="6.30959">
        <ele>330.8</ele>
        <time>2023-09-15T13:20:16Z</time>
      </trkpt>
      <trkpt lat="43.52212" lon="6.3096">
        <ele>330.8</ele>
        <time>2023-09-15T13:20:17Z</time>
      </trkpt>
      <trkpt lat="43.52212" lon="6.30961">
        <ele>330.9</ele>
        <time>2023-09-15T13:20:18Z</time>
      </trkpt>
      <trkpt lat="43.52211" lon="6.30962">
        <ele>330.9</ele>
        <time>2023-09-15T13:20:19Z</time>
      </trkpt>
      <trkpt lat="43.5221" lon="6.30963">
        <ele>330.6</ele>
        <time>2023-09-15T13:20:20Z</time>
      </trkpt>
      <trkpt lat="43.52209" lon="6.30964">
        <ele>330.7</ele>
        <time>2023-09-15T13:20:21Z</time>
      </trkpt>
      <trkpt lat="43.52208" lon="6.30965">
        <ele>330.6</ele>
        <time>2023-09-15T13:20:22Z</time>
      </trkpt>
      <trkpt lat="43.52207" lon="6.30967">
        <ele>330.6</ele>
        <time>2023-09-15T13:20:23Z</time>
      </trkpt>
      <trkpt lat="43.52207" lon="6.30968">
        <ele>330.6</ele>
        <time>2023-09-15T13:20:24Z</time>
      </trkpt>
      <trkpt lat="43.52206" lon="6.3097">
        <ele>330.7</ele>
        <time>2023-09-15T13:20:25Z</time>
      </trkpt>
      <trkpt lat="43.52205" lon="6.30971">
        <ele>330.7</ele>
        <time>2023-09-15T13:20:26Z</time>
      </trkpt>
      <trkpt lat="43.52205" lon="6.30972">
        <ele>330.8</ele>
        <time>2023-09-15T13:20:27Z</time>
      </trkpt>
      <trkpt lat="43.52204" lon="6.30973">
        <ele>330.6</ele>
        <time>2023-09-15T13:20:28Z</time>
      </trkpt>
      <trkpt lat="43.52204" lon="6.30975">
        <ele>330.5</ele>
        <time>2023-09-15T13:20:29Z</time>
      </trkpt>
      <trkpt lat="43.52203" lon="6.30976">
        <ele>330.4</ele>
        <time>2023-09-15T13:20:30Z</time>
      </trkpt>
      <trkpt lat="43.52202" lon="6.30977">
        <ele>330.5</ele>
        <time>2023-09-15T13:20:31Z</time>
      </trkpt>
      <trkpt lat="43.52202" lon="6.30978">
        <ele>330.5</ele>
        <time>2023-09-15T13:20:32Z</time>
      </trkpt>
      <trkpt lat="43.52201" lon="6.30979">
        <ele>330.5</ele>
        <time>2023-09-15T13:20:33Z</time>
      </trkpt>
      <trkpt lat="43.522" lon="6.3098">
        <ele>330.6</ele>
        <time>2023-09-15T13:20:34Z</time>
      </trkpt>
      <trkpt lat="43.522" lon="6.30981">
        <ele>330.5</ele>
        <time>2023-09-15T13:20:35Z</time>
      </trkpt>
      <trkpt lat="43.52199" lon="6.30982">
        <ele>330.3</ele>
        <time>2023-09-15T13:20:36Z</time>
      </trkpt>
      <trkpt lat="43.52198" lon="6.30983">
        <ele>330.2</ele>
        <time>2023-09-15T13:20:37Z</time>
      </trkpt>
      <trkpt lat="43.52198" lon="6.30984">
        <ele>330.1</ele>
        <time>2023-09-15T13:20:38Z</time>
      </trkpt>
      <trkpt lat="43.52198" lon="6.30985">
        <ele>330.1</ele>
        <time>2023-09-15T13:20:39Z</time>
      </trkpt>
      <trkpt lat="43.52197" lon="6.30986">
        <ele>330.1</ele>
        <time>2023-09-15T13:20:40Z</time>
      </trkpt>
      <trkpt lat="43.52196" lon="6.30987">
        <ele>330.1</ele>
        <time>2023-09-15T13:20:41Z</time>
      </trkpt>
      <trkpt lat="43.52196" lon="6.30988">
        <ele>330.1</ele>
        <time>2023-09-15T13:20:42Z</time>
      </trkpt>
      <trkpt lat="43.52195" lon="6.3099">
        <ele>330.1</ele>
        <time>2023-09-15T13:20:43Z</time>
      </trkpt>
      <trkpt lat="43.52195" lon="6.30991">
        <ele>329.9</ele>
        <time>2023-09-15T13:20:44Z</time>
      </trkpt>
      <trkpt lat="43.52194" lon="6.30992">
        <ele>329.7</ele>
        <time>2023-09-15T13:20:45Z</time>
      </trkpt>
      <trkpt lat="43.52194" lon="6.30993">
        <ele>329.6</ele>
        <time>2023-09-15T13:20:46Z</time>
      </trkpt>
      <trkpt lat="43.52193" lon="6.30994">
        <ele>329.7</ele>
        <time>2023-09-15T13:20:47Z</time>
      </trkpt>
      <trkpt lat="43.52192" lon="6.30995">
        <ele>329.8</ele>
        <time>2023-09-15T13:20:48Z</time>
      </trkpt>
      <trkpt lat="43.52192" lon="6.30996">
        <ele>329.8</ele>
        <time>2023-09-15T13:20:49Z</time>
      </trkpt>
      <trkpt lat="43.52192" lon="6.30997">
        <ele>329.8</ele>
        <time>2023-09-15T13:20:50Z</time>
      </trkpt>
      <trkpt lat="43.52191" lon="6.30999">
        <ele>329.8</ele>
        <time>2023-09-15T13:20:51Z</time>
      </trkpt>
      <trkpt lat="43.5219" lon="6.31">
        <ele>329.8</ele>
        <time>2023-09-15T13:20:52Z</time>
      </trkpt>
      <trkpt lat="43.5219" lon="6.31001">
        <ele>329.7</ele>
        <time>2023-09-15T13:20:53Z</time>
      </trkpt>
      <trkpt lat="43.52189" lon="6.31002">
        <ele>329.6</ele>
        <time>2023-09-15T13:20:54Z</time>
      </trkpt>
      <trkpt lat="43.52189" lon="6.31003">
        <ele>329.5</ele>
        <time>2023-09-15T13:20:55Z</time>
      </trkpt>
      <trkpt lat="43.52188" lon="6.31004">
        <ele>329.4</ele>
        <time>2023-09-15T13:20:56Z</time>
      </trkpt>
      <trkpt lat="43.52187" lon="6.31005">
        <ele>329.3</ele>
        <time>2023-09-15T13:20:57Z</time>
      </trkpt>
      <trkpt lat="43.52186" lon="6.31006">
        <ele>329.2</ele>
        <time>2023-09-15T13:20:58Z</time>
      </trkpt>
      <trkpt lat="43.52185" lon="6.31007">
        <ele>329.2</ele>
        <time>2023-09-15T13:20:59Z</time>
      </trkpt>
      <trkpt lat="43.52184" lon="6.31008">
        <ele>329.2</ele>
        <time>2023-09-15T13:21:00Z</time>
      </trkpt>
      <trkpt lat="43.52184" lon="6.31009">
        <ele>329.1</ele>
        <time>2023-09-15T13:21:01Z</time>
      </trkpt>
      <trkpt lat="43.52183" lon="6.3101">
        <ele>329.2</ele>
        <time>2023-09-15T13:21:02Z</time>
      </trkpt>
      <trkpt lat="43.52182" lon="6.31012">
        <ele>329.2</ele>
        <time>2023-09-15T13:21:03Z</time>
      </trkpt>
      <trkpt lat="43.52182" lon="6.31013">
        <ele>329.2</ele>
        <time>2023-09-15T13:21:04Z</time>
      </trkpt>
      <trkpt lat="43.52181" lon="6.31014">
        <ele>329.1</ele>
        <time>2023-09-15T13:21:05Z</time>
      </trkpt>
      <trkpt lat="43.5218" lon="6.31015">
        <ele>329</ele>
        <time>2023-09-15T13:21:06Z</time>
      </trkpt>
      <trkpt lat="43.5218" lon="6.31017">
        <ele>329</ele>
        <time>2023-09-15T13:21:07Z</time>
      </trkpt>
      <trkpt lat="43.52179" lon="6.31018">
        <ele>329</ele>
        <time>2023-09-15T13:21:08Z</time>
      </trkpt>
      <trkpt lat="43.52178" lon="6.3102">
        <ele>329.1</ele>
        <time>2023-09-15T13:21:09Z</time>
      </trkpt>
      <trkpt lat="43.52178" lon="6.31021">
        <ele>329</ele>
        <time>2023-09-15T13:21:10Z</time>
      </trkpt>
      <trkpt lat="43.52177" lon="6.31022">
        <ele>329</ele>
        <time>2023-09-15T13:21:11Z</time>
      </trkpt>
      <trkpt lat="43.52177" lon="6.31023">
        <ele>329</ele>
        <time>2023-09-15T13:21:12Z</time>
      </trkpt>
      <trkpt lat="43.52176" lon="6.31025">
        <ele>329</ele>
        <time>2023-09-15T13:21:13Z</time>
      </trkpt>
      <trkpt lat="43.52176" lon="6.31026">
        <ele>328.9</ele>
        <time>2023-09-15T13:21:14Z</time>
      </trkpt>
      <trkpt lat="43.52175" lon="6.31028">
        <ele>328.9</ele>
        <time>2023-09-15T13:21:15Z</time>
      </trkpt>
      <trkpt lat="43.52175" lon="6.3103">
        <ele>328.9</ele>
        <time>2023-09-15T13:21:16Z</time>
      </trkpt>
      <trkpt lat="43.52174" lon="6.31031">
        <ele>328.8</ele>
        <time>2023-09-15T13:21:17Z</time>
      </trkpt>
      <trkpt lat="43.52173" lon="6.31032">
        <ele>328.8</ele>
        <time>2023-09-15T13:21:18Z</time>
      </trkpt>
      <trkpt lat="43.52172" lon="6.31033">
        <ele>328.8</ele>
        <time>2023-09-15T13:21:19Z</time>
      </trkpt>
      <trkpt lat="43.52172" lon="6.31034">
        <ele>328.8</ele>
        <time>2023-09-15T13:21:20Z</time>
      </trkpt>
      <trkpt lat="43.52171" lon="6.31035">
        <ele>328.9</ele>
        <time>2023-09-15T13:21:21Z</time>
      </trkpt>
      <trkpt lat="43.5217" lon="6.31036">
        <ele>328.9</ele>
        <time>2023-09-15T13:21:22Z</time>
      </trkpt>
      <trkpt lat="43.52169" lon="6.31038">
        <ele>328.9</ele>
        <time>2023-09-15T13:21:23Z</time>
      </trkpt>
      <trkpt lat="43.52168" lon="6.31039">
        <ele>329.1</ele>
        <time>2023-09-15T13:21:24Z</time>
      </trkpt>
      <trkpt lat="43.52168" lon="6.3104">
        <ele>329.1</ele>
        <time>2023-09-15T13:21:25Z</time>
      </trkpt>
      <trkpt lat="43.52167" lon="6.31041">
        <ele>329.1</ele>
        <time>2023-09-15T13:21:26Z</time>
      </trkpt>
      <trkpt lat="43.52167" lon="6.31042">
        <ele>329.1</ele>
        <time>2023-09-15T13:21:27Z</time>
      </trkpt>
      <trkpt lat="43.52166" lon="6.31044">
        <ele>329.1</ele>
        <time>2023-09-15T13:21:28Z</time>
      </trkpt>
      <trkpt lat="43.52166" lon="6.31046">
        <ele>329.2</ele>
        <time>2023-09-15T13:21:29Z</time>
      </trkpt>
      <trkpt lat="43.52165" lon="6.31047">
        <ele>329.2</ele>
        <time>2023-09-15T13:21:30Z</time>
      </trkpt>
      <trkpt lat="43.52165" lon="6.31047">
        <ele>329</ele>
        <time>2023-09-15T13:21:31Z</time>
      </trkpt>
      <trkpt lat="43.52164" lon="6.31049">
        <ele>328.9</ele>
        <time>2023-09-15T13:21:32Z</time>
      </trkpt>
      <trkpt lat="43.52164" lon="6.31049">
        <ele>328.8</ele>
        <time>2023-09-15T13:21:33Z</time>
      </trkpt>
      <trkpt lat="43.52163" lon="6.3105">
        <ele>328.8</ele>
        <time>2023-09-15T13:21:34Z</time>
      </trkpt>
      <trkpt lat="43.52163" lon="6.31052">
        <ele>328.8</ele>
        <time>2023-09-15T13:21:35Z</time>
      </trkpt>
      <trkpt lat="43.52162" lon="6.31053">
        <ele>328.8</ele>
        <time>2023-09-15T13:21:36Z</time>
      </trkpt>
      <trkpt lat="43.52162" lon="6.31054">
        <ele>328.9</ele>
        <time>2023-09-15T13:21:37Z</time>
      </trkpt>
      <trkpt lat="43.52161" lon="6.31055">
        <ele>328.9</ele>
        <time>2023-09-15T13:21:38Z</time>
      </trkpt>
      <trkpt lat="43.5216" lon="6.31056">
        <ele>329</ele>
        <time>2023-09-15T13:21:39Z</time>
      </trkpt>
      <trkpt lat="43.5216" lon="6.31057">
        <ele>329</ele>
        <time>2023-09-15T13:21:40Z</time>
      </trkpt>
      <trkpt lat="43.52159" lon="6.31058">
        <ele>328.9</ele>
        <time>2023-09-15T13:21:41Z</time>
      </trkpt>
      <trkpt lat="43.52158" lon="6.31059">
        <ele>328.8</ele>
        <time>2023-09-15T13:21:42Z</time>
      </trkpt>
      <trkpt lat="43.52158" lon="6.31059">
        <ele>328.9</ele>
        <time>2023-09-15T13:21:43Z</time>
      </trkpt>
      <trkpt lat="43.52157" lon="6.3106">
        <ele>329</ele>
        <time>2023-09-15T13:21:44Z</time>
      </trkpt>
      <trkpt lat="43.52156" lon="6.31061">
        <ele>329</ele>
        <time>2023-09-15T13:21:45Z</time>
      </trkpt>
      <trkpt lat="43.52156" lon="6.31062">
        <ele>329.1</ele>
        <time>2023-09-15T13:21:46Z</time>
      </trkpt>
      <trkpt lat="43.52156" lon="6.31064">
        <ele>329.1</ele>
        <time>2023-09-15T13:21:47Z</time>
      </trkpt>
      <trkpt lat="43.52156" lon="6.31065">
        <ele>329.2</ele>
        <time>2023-09-15T13:21:48Z</time>
      </trkpt>
      <trkpt lat="43.52156" lon="6.31065">
        <ele>329.3</ele>
        <time>2023-09-15T13:21:49Z</time>
      </trkpt>
      <trkpt lat="43.52155" lon="6.31066">
        <ele>329.3</ele>
        <time>2023-09-15T13:21:50Z</time>
      </trkpt>
      <trkpt lat="43.52154" lon="6.31067">
        <ele>329.3</ele>
        <time>2023-09-15T13:21:51Z</time>
      </trkpt>
      <trkpt lat="43.52153" lon="6.31067">
        <ele>329.3</ele>
        <time>2023-09-15T13:21:52Z</time>
      </trkpt>
      <trkpt lat="43.52153" lon="6.31068">
        <ele>329.3</ele>
        <time>2023-09-15T13:21:53Z</time>
      </trkpt>
      <trkpt lat="43.52152" lon="6.31069">
        <ele>329.2</ele>
        <time>2023-09-15T13:21:54Z</time>
      </trkpt>
      <trkpt lat="43.52151" lon="6.3107">
        <ele>329.3</ele>
        <time>2023-09-15T13:21:55Z</time>
      </trkpt>
      <trkpt lat="43.52151" lon="6.31071">
        <ele>329.4</ele>
        <time>2023-09-15T13:21:56Z</time>
      </trkpt>
      <trkpt lat="43.5215" lon="6.31071">
        <ele>329.4</ele>
        <time>2023-09-15T13:21:57Z</time>
      </trkpt>
      <trkpt lat="43.52149" lon="6.31072">
        <ele>329.6</ele>
        <time>2023-09-15T13:21:58Z</time>
      </trkpt>
      <trkpt lat="43.52149" lon="6.31073">
        <ele>329.6</ele>
        <time>2023-09-15T13:21:59Z</time>
      </trkpt>
      <trkpt lat="43.52148" lon="6.31074">
        <ele>329.6</ele>
        <time>2023-09-15T13:22:00Z</time>
      </trkpt>
      <trkpt lat="43.52147" lon="6.31074">
        <ele>329.6</ele>
        <time>2023-09-15T13:22:01Z</time>
      </trkpt>
      <trkpt lat="43.52146" lon="6.31075">
        <ele>329.7</ele>
        <time>2023-09-15T13:22:02Z</time>
      </trkpt>
      <trkpt lat="43.52146" lon="6.31077">
        <ele>329.7</ele>
        <time>2023-09-15T13:22:03Z</time>
      </trkpt>
      <trkpt lat="43.52146" lon="6.31078">
        <ele>329.8</ele>
        <time>2023-09-15T13:22:04Z</time>
      </trkpt>
      <trkpt lat="43.52146" lon="6.31078">
        <ele>329.9</ele>
        <time>2023-09-15T13:22:05Z</time>
      </trkpt>
      <trkpt lat="43.52145" lon="6.31079">
        <ele>329.9</ele>
        <time>2023-09-15T13:22:06Z</time>
      </trkpt>
      <trkpt lat="43.52144" lon="6.3108">
        <ele>329.8</ele>
        <time>2023-09-15T13:22:07Z</time>
      </trkpt>
      <trkpt lat="43.52144" lon="6.31081">
        <ele>329.8</ele>
        <time>2023-09-15T13:22:08Z</time>
      </trkpt>
      <trkpt lat="43.52143" lon="6.31081">
        <ele>329.8</ele>
        <time>2023-09-15T13:22:09Z</time>
      </trkpt>
      <trkpt lat="43.52142" lon="6.31083">
        <ele>329.8</ele>
        <time>2023-09-15T13:22:10Z</time>
      </trkpt>
      <trkpt lat="43.52141" lon="6.31084">
        <ele>329.8</ele>
        <time>2023-09-15T13:22:11Z</time>
      </trkpt>
      <trkpt lat="43.5214" lon="6.31085">
        <ele>329.9</ele>
        <time>2023-09-15T13:22:12Z</time>
      </trkpt>
      <trkpt lat="43.5214" lon="6.31086">
        <ele>329.8</ele>
        <time>2023-09-15T13:22:13Z</time>
      </trkpt>
      <trkpt lat="43.52139" lon="6.31087">
        <ele>329.8</ele>
        <time>2023-09-15T13:22:14Z</time>
      </trkpt>
      <trkpt lat="43.52138" lon="6.31087">
        <ele>329.7</ele>
        <time>2023-09-15T13:22:15Z</time>
      </trkpt>
      <trkpt lat="43.52137" lon="6.31088">
        <ele>329.7</ele>
        <time>2023-09-15T13:22:16Z</time>
      </trkpt>
      <trkpt lat="43.52137" lon="6.31089">
        <ele>329.7</ele>
        <time>2023-09-15T13:22:17Z</time>
      </trkpt>
      <trkpt lat="43.52137" lon="6.3109">
        <ele>329.7</ele>
        <time>2023-09-15T13:22:18Z</time>
      </trkpt>
      <trkpt lat="43.52136" lon="6.31091">
        <ele>329.6</ele>
        <time>2023-09-15T13:22:19Z</time>
      </trkpt>
      <trkpt lat="43.52135" lon="6.31091">
        <ele>329.5</ele>
        <time>2023-09-15T13:22:20Z</time>
      </trkpt>
      <trkpt lat="43.52135" lon="6.31092">
        <ele>329.6</ele>
        <time>2023-09-15T13:22:21Z</time>
      </trkpt>
      <trkpt lat="43.52134" lon="6.31093">
        <ele>329.5</ele>
        <time>2023-09-15T13:22:22Z</time>
      </trkpt>
      <trkpt lat="43.52134" lon="6.31094">
        <ele>329.5</ele>
        <time>2023-09-15T13:22:23Z</time>
      </trkpt>
      <trkpt lat="43.52133" lon="6.31094">
        <ele>329.5</ele>
        <time>2023-09-15T13:22:24Z</time>
      </trkpt>
      <trkpt lat="43.52132" lon="6.31095">
        <ele>329.5</ele>
        <time>2023-09-15T13:22:25Z</time>
      </trkpt>
      <trkpt lat="43.52131" lon="6.31096">
        <ele>329.6</ele>
        <time>2023-09-15T13:22:26Z</time>
      </trkpt>
      <trkpt lat="43.52131" lon="6.31096">
        <ele>329.6</ele>
        <time>2023-09-15T13:22:27Z</time>
      </trkpt>
      <trkpt lat="43.5213" lon="6.31097">
        <ele>329.7</ele>
        <time>2023-09-15T13:22:28Z</time>
      </trkpt>
      <trkpt lat="43.5213" lon="6.31098">
        <ele>329.8</ele>
        <time>2023-09-15T13:22:29Z</time>
      </trkpt>
      <trkpt lat="43.52129" lon="6.31098">
        <ele>329.9</ele>
        <time>2023-09-15T13:22:30Z</time>
      </trkpt>
      <trkpt lat="43.52128" lon="6.31098">
        <ele>329.8</ele>
        <time>2023-09-15T13:22:31Z</time>
      </trkpt>
      <trkpt lat="43.52128" lon="6.31099">
        <ele>329.8</ele>
        <time>2023-09-15T13:22:32Z</time>
      </trkpt>
      <trkpt lat="43.52127" lon="6.311">
        <ele>329.7</ele>
        <time>2023-09-15T13:22:33Z</time>
      </trkpt>
      <trkpt lat="43.52126" lon="6.311">
        <ele>329.6</ele>
        <time>2023-09-15T13:22:34Z</time>
      </trkpt>
      <trkpt lat="43.52126" lon="6.31101">
        <ele>329.6</ele>
        <time>2023-09-15T13:22:35Z</time>
      </trkpt>
      <trkpt lat="43.52125" lon="6.31101">
        <ele>329.5</ele>
        <time>2023-09-15T13:22:36Z</time>
      </trkpt>
      <trkpt lat="43.52125" lon="6.31102">
        <ele>329.5</ele>
        <time>2023-09-15T13:22:37Z</time>
      </trkpt>
      <trkpt lat="43.52124" lon="6.31102">
        <ele>329.4</ele>
        <time>2023-09-15T13:22:38Z</time>
      </trkpt>
      <trkpt lat="43.52123" lon="6.31102">
        <ele>329.4</ele>
        <time>2023-09-15T13:22:39Z</time>
      </trkpt>
      <trkpt lat="43.52122" lon="6.31103">
        <ele>329.3</ele>
        <time>2023-09-15T13:22:40Z</time>
      </trkpt>
      <trkpt lat="43.52121" lon="6.31104">
        <ele>329.2</ele>
        <time>2023-09-15T13:22:41Z</time>
      </trkpt>
      <trkpt lat="43.5212" lon="6.31105">
        <ele>329.1</ele>
        <time>2023-09-15T13:22:42Z</time>
      </trkpt>
      <trkpt lat="43.5212" lon="6.31106">
        <ele>329.1</ele>
        <time>2023-09-15T13:22:43Z</time>
      </trkpt>
      <trkpt lat="43.52119" lon="6.31106">
        <ele>329.1</ele>
        <time>2023-09-15T13:22:44Z</time>
      </trkpt>
      <trkpt lat="43.52118" lon="6.31107">
        <ele>329.1</ele>
        <time>2023-09-15T13:22:45Z</time>
      </trkpt>
      <trkpt lat="43.52117" lon="6.31108">
        <ele>329.1</ele>
        <time>2023-09-15T13:22:46Z</time>
      </trkpt>
      <trkpt lat="43.52116" lon="6.31109">
        <ele>329.2</ele>
        <time>2023-09-15T13:22:47Z</time>
      </trkpt>
      <trkpt lat="43.52115" lon="6.3111">
        <ele>329.3</ele>
        <time>2023-09-15T13:22:48Z</time>
      </trkpt>
      <trkpt lat="43.52114" lon="6.31111">
        <ele>329.3</ele>
        <time>2023-09-15T13:22:49Z</time>
      </trkpt>
      <trkpt lat="43.52114" lon="6.31112">
        <ele>329.4</ele>
        <time>2023-09-15T13:22:50Z</time>
      </trkpt>
      <trkpt lat="43.52113" lon="6.31113">
        <ele>329.4</ele>
        <time>2023-09-15T13:22:51Z</time>
      </trkpt>
      <trkpt lat="43.52112" lon="6.31114">
        <ele>329.4</ele>
        <time>2023-09-15T13:22:52Z</time>
      </trkpt>
      <trkpt lat="43.52112" lon="6.31115">
        <ele>329.3</ele>
        <time>2023-09-15T13:22:53Z</time>
      </trkpt>
      <trkpt lat="43.5211" lon="6.31115">
        <ele>329.2</ele>
        <time>2023-09-15T13:22:54Z</time>
      </trkpt>
      <trkpt lat="43.5211" lon="6.31116">
        <ele>329.2</ele>
        <time>2023-09-15T13:22:55Z</time>
      </trkpt>
      <trkpt lat="43.52109" lon="6.31116">
        <ele>329.2</ele>
        <time>2023-09-15T13:22:56Z</time>
      </trkpt>
      <trkpt lat="43.52108" lon="6.31117">
        <ele>329.2</ele>
        <time>2023-09-15T13:22:57Z</time>
      </trkpt>
      <trkpt lat="43.52108" lon="6.31118">
        <ele>329.1</ele>
        <time>2023-09-15T13:22:58Z</time>
      </trkpt>
      <trkpt lat="43.52107" lon="6.31118">
        <ele>329.1</ele>
        <time>2023-09-15T13:22:59Z</time>
      </trkpt>
      <trkpt lat="43.52106" lon="6.31119">
        <ele>328.9</ele>
        <time>2023-09-15T13:23:00Z</time>
      </trkpt>
      <trkpt lat="43.52105" lon="6.31119">
        <ele>328.8</ele>
        <time>2023-09-15T13:23:01Z</time>
      </trkpt>
      <trkpt lat="43.52105" lon="6.3112">
        <ele>328.7</ele>
        <time>2023-09-15T13:23:02Z</time>
      </trkpt>
      <trkpt lat="43.52104" lon="6.31121">
        <ele>328.6</ele>
        <time>2023-09-15T13:23:03Z</time>
      </trkpt>
      <trkpt lat="43.52103" lon="6.31122">
        <ele>328.5</ele>
        <time>2023-09-15T13:23:04Z</time>
      </trkpt>
      <trkpt lat="43.52103" lon="6.31122">
        <ele>328.4</ele>
        <time>2023-09-15T13:23:05Z</time>
      </trkpt>
      <trkpt lat="43.52102" lon="6.31123">
        <ele>328.4</ele>
        <time>2023-09-15T13:23:06Z</time>
      </trkpt>
      <trkpt lat="43.52101" lon="6.31124">
        <ele>328.3</ele>
        <time>2023-09-15T13:23:07Z</time>
      </trkpt>
      <trkpt lat="43.521" lon="6.31124">
        <ele>328.2</ele>
        <time>2023-09-15T13:23:08Z</time>
      </trkpt>
      <trkpt lat="43.521" lon="6.31125">
        <ele>328.1</ele>
        <time>2023-09-15T13:23:09Z</time>
      </trkpt>
      <trkpt lat="43.52099" lon="6.31126">
        <ele>328.1</ele>
        <time>2023-09-15T13:23:10Z</time>
      </trkpt>
      <trkpt lat="43.52098" lon="6.31126">
        <ele>328.1</ele>
        <time>2023-09-15T13:23:11Z</time>
      </trkpt>
      <trkpt lat="43.52097" lon="6.31126">
        <ele>328</ele>
        <time>2023-09-15T13:23:12Z</time>
      </trkpt>
      <trkpt lat="43.52097" lon="6.31127">
        <ele>328</ele>
        <time>2023-09-15T13:23:13Z</time>
      </trkpt>
      <trkpt lat="43.52096" lon="6.31128">
        <ele>327.9</ele>
        <time>2023-09-15T13:23:14Z</time>
      </trkpt>
      <trkpt lat="43.52096" lon="6.31128">
        <ele>327.8</ele>
        <time>2023-09-15T13:23:15Z</time>
      </trkpt>
      <trkpt lat="43.52095" lon="6.31129">
        <ele>327.8</ele>
        <time>2023-09-15T13:23:16Z</time>
      </trkpt>
      <trkpt lat="43.52095" lon="6.31129">
        <ele>327.7</ele>
        <time>2023-09-15T13:23:17Z</time>
      </trkpt>
      <trkpt lat="43.52094" lon="6.3113">
        <ele>327.6</ele>
        <time>2023-09-15T13:23:18Z</time>
      </trkpt>
      <trkpt lat="43.52093" lon="6.3113">
        <ele>327.4</ele>
        <time>2023-09-15T13:23:19Z</time>
      </trkpt>
      <trkpt lat="43.52092" lon="6.3113">
        <ele>327.4</ele>
        <time>2023-09-15T13:23:20Z</time>
      </trkpt>
      <trkpt lat="43.52091" lon="6.31131">
        <ele>327.3</ele>
        <time>2023-09-15T13:23:21Z</time>
      </trkpt>
      <trkpt lat="43.52091" lon="6.31132">
        <ele>327.3</ele>
        <time>2023-09-15T13:23:22Z</time>
      </trkpt>
      <trkpt lat="43.5209" lon="6.31132">
        <ele>327.2</ele>
        <time>2023-09-15T13:23:23Z</time>
      </trkpt>
      <trkpt lat="43.52089" lon="6.31132">
        <ele>327.2</ele>
        <time>2023-09-15T13:23:24Z</time>
      </trkpt>
      <trkpt lat="43.52088" lon="6.31132">
        <ele>327.1</ele>
        <time>2023-09-15T13:23:25Z</time>
      </trkpt>
      <trkpt lat="43.52087" lon="6.31132">
        <ele>327</ele>
        <time>2023-09-15T13:23:26Z</time>
      </trkpt>
      <trkpt lat="43.52086" lon="6.31133">
        <ele>326.9</ele>
        <time>2023-09-15T13:23:27Z</time>
      </trkpt>
      <trkpt lat="43.52084" lon="6.31134">
        <ele>326.8</ele>
        <time>2023-09-15T13:23:28Z</time>
      </trkpt>
      <trkpt lat="43.52083" lon="6.31134">
        <ele>326.6</ele>
        <time>2023-09-15T13:23:29Z</time>
      </trkpt>
      <trkpt lat="43.52082" lon="6.31134">
        <ele>326.5</ele>
        <time>2023-09-15T13:23:30Z</time>
      </trkpt>
      <trkpt lat="43.52082" lon="6.31135">
        <ele>326.5</ele>
        <time>2023-09-15T13:23:31Z</time>
      </trkpt>
      <trkpt lat="43.52081" lon="6.31134">
        <ele>326.5</ele>
        <time>2023-09-15T13:23:32Z</time>
      </trkpt>
      <trkpt lat="43.5208" lon="6.31135">
        <ele>326.4</ele>
        <time>2023-09-15T13:23:33Z</time>
      </trkpt>
      <trkpt lat="43.52079" lon="6.31135">
        <ele>326.3</ele>
        <time>2023-09-15T13:23:34Z</time>
      </trkpt>
      <trkpt lat="43.52078" lon="6.31135">
        <ele>326.2</ele>
        <time>2023-09-15T13:23:35Z</time>
      </trkpt>
      <trkpt lat="43.52078" lon="6.31135">
        <ele>326.2</ele>
        <time>2023-09-15T13:23:36Z</time>
      </trkpt>
      <trkpt lat="43.52078" lon="6.31136">
        <ele>326.2</ele>
        <time>2023-09-15T13:23:37Z</time>
      </trkpt>
      <trkpt lat="43.52077" lon="6.31138">
        <ele>326.1</ele>
        <time>2023-09-15T13:23:38Z</time>
      </trkpt>
      <trkpt lat="43.52077" lon="6.31138">
        <ele>326</ele>
        <time>2023-09-15T13:23:39Z</time>
      </trkpt>
      <trkpt lat="43.52077" lon="6.31139">
        <ele>325.9</ele>
        <time>2023-09-15T13:23:40Z</time>
      </trkpt>
      <trkpt lat="43.52077" lon="6.3114">
        <ele>325.8</ele>
        <time>2023-09-15T13:23:41Z</time>
      </trkpt>
      <trkpt lat="43.52076" lon="6.3114">
        <ele>325.7</ele>
        <time>2023-09-15T13:23:42Z</time>
      </trkpt>
      <trkpt lat="43.52077" lon="6.3114">
        <ele>325.6</ele>
        <time>2023-09-15T13:23:43Z</time>
      </trkpt>
      <trkpt lat="43.52076" lon="6.31141">
        <ele>325.5</ele>
        <time>2023-09-15T13:23:44Z</time>
      </trkpt>
      <trkpt lat="43.52076" lon="6.31142">
        <ele>325.5</ele>
        <time>2023-09-15T13:23:45Z</time>
      </trkpt>
      <trkpt lat="43.52075" lon="6.31143">
        <ele>325.4</ele>
        <time>2023-09-15T13:23:46Z</time>
      </trkpt>
      <trkpt lat="43.52074" lon="6.31143">
        <ele>325.3</ele>
        <time>2023-09-15T13:23:47Z</time>
      </trkpt>
      <trkpt lat="43.52074" lon="6.31144">
        <ele>325.3</ele>
        <time>2023-09-15T13:23:48Z</time>
      </trkpt>
      <trkpt lat="43.52073" lon="6.31145">
        <ele>325.2</ele>
        <time>2023-09-15T13:23:49Z</time>
      </trkpt>
      <trkpt lat="43.52073" lon="6.31146">
        <ele>325.2</ele>
        <time>2023-09-15T13:23:50Z</time>
      </trkpt>
      <trkpt lat="43.52073" lon="6.31147">
        <ele>325.2</ele>
        <time>2023-09-15T13:23:51Z</time>
      </trkpt>
      <trkpt lat="43.52072" lon="6.31148">
        <ele>325.1</ele>
        <time>2023-09-15T13:23:52Z</time>
      </trkpt>
      <trkpt lat="43.52072" lon="6.31149">
        <ele>325</ele>
        <time>2023-09-15T13:23:53Z</time>
      </trkpt>
      <trkpt lat="43.52072" lon="6.3115">
        <ele>325</ele>
        <time>2023-09-15T13:23:54Z</time>
      </trkpt>
      <trkpt lat="43.52071" lon="6.31151">
        <ele>324.9</ele>
        <time>2023-09-15T13:23:55Z</time>
      </trkpt>
      <trkpt lat="43.52071" lon="6.31152">
        <ele>325</ele>
        <time>2023-09-15T13:23:56Z</time>
      </trkpt>
      <trkpt lat="43.5207" lon="6.31152">
        <ele>325</ele>
        <time>2023-09-15T13:23:57Z</time>
      </trkpt>
      <trkpt lat="43.5207" lon="6.31152">
        <ele>325</ele>
        <time>2023-09-15T13:23:58Z</time>
      </trkpt>
      <trkpt lat="43.5207" lon="6.31152">
        <ele>325</ele>
        <time>2023-09-15T13:23:59Z</time>
      </trkpt>
      <trkpt lat="43.52069" lon="6.31153">
        <ele>325</ele>
        <time>2023-09-15T13:24:00Z</time>
      </trkpt>
      <trkpt lat="43.52069" lon="6.31153">
        <ele>325</ele>
        <time>2023-09-15T13:24:01Z</time>
      </trkpt>
      <trkpt lat="43.52069" lon="6.31153">
        <ele>325.1</ele>
        <time>2023-09-15T13:24:02Z</time>
      </trkpt>
      <trkpt lat="43.52069" lon="6.31153">
        <ele>325.1</ele>
        <time>2023-09-15T13:24:03Z</time>
      </trkpt>
      <trkpt lat="43.52069" lon="6.31153">
        <ele>325</ele>
        <time>2023-09-15T13:24:04Z</time>
      </trkpt>
      <trkpt lat="43.52069" lon="6.31153">
        <ele>325</ele>
        <time>2023-09-15T13:24:05Z</time>
      </trkpt>
      <trkpt lat="43.52069" lon="6.31153">
        <ele>325.1</ele>
        <time>2023-09-15T13:24:06Z</time>
      </trkpt>
      <trkpt lat="43.52069" lon="6.31154">
        <ele>325.1</ele>
        <time>2023-09-15T13:24:07Z</time>
      </trkpt>
      <trkpt lat="43.52069" lon="6.31154">
        <ele>325.1</ele>
        <time>2023-09-15T13:24:08Z</time>
      </trkpt>
      <trkpt lat="43.52068" lon="6.31154">
        <ele>325.1</ele>
        <time>2023-09-15T13:24:09Z</time>
      </trkpt>
      <trkpt lat="43.52068" lon="6.31154">
        <ele>325.2</ele>
        <time>2023-09-15T13:24:10Z</time>
      </trkpt>
      <trkpt lat="43.52068" lon="6.31155">
        <ele>325.2</ele>
        <time>2023-09-15T13:24:11Z</time>
      </trkpt>
      <trkpt lat="43.52068" lon="6.31155">
        <ele>325.2</ele>
        <time>2023-09-15T13:24:12Z</time>
      </trkpt>
      <trkpt lat="43.52068" lon="6.31155">
        <ele>325.2</ele>
        <time>2023-09-15T13:24:13Z</time>
      </trkpt>
      <trkpt lat="43.52068" lon="6.31155">
        <ele>325.2</ele>
        <time>2023-09-15T13:24:14Z</time>
      </trkpt>
      <trkpt lat="43.52068" lon="6.31155">
        <ele>325.1</ele>
        <time>2023-09-15T13:24:15Z</time>
      </trkpt>
      <trkpt lat="43.52068" lon="6.31154">
        <ele>325.1</ele>
        <time>2023-09-15T13:24:16Z</time>
      </trkpt>
      <trkpt lat="43.52069" lon="6.31154">
        <ele>325</ele>
        <time>2023-09-15T13:24:17Z</time>
      </trkpt>
      <trkpt lat="43.52069" lon="6.31154">
        <ele>325</ele>
        <time>2023-09-15T13:24:18Z</time>
      </trkpt>
      <trkpt lat="43.52069" lon="6.31154">
        <ele>325</ele>
        <time>2023-09-15T13:24:19Z</time>
      </trkpt>
      <trkpt lat="43.52069" lon="6.31154">
        <ele>325</ele>
        <time>2023-09-15T13:24:20Z</time>
      </trkpt>
      <trkpt lat="43.52069" lon="6.31154">
        <ele>325</ele>
        <time>2023-09-15T13:24:21Z</time>
      </trkpt>
      <trkpt lat="43.52069" lon="6.31154">
        <ele>325</ele>
        <time>2023-09-15T13:24:22Z</time>
      </trkpt>
      <trkpt lat="43.52069" lon="6.31154">
        <ele>325.1</ele>
        <time>2023-09-15T13:24:23Z</time>
      </trkpt>
      <trkpt lat="43.52069" lon="6.31154">
        <ele>325</ele>
        <time>2023-09-15T13:24:24Z</time>
      </trkpt>
      <trkpt lat="43.52068" lon="6.31154">
        <ele>324.9</ele>
        <time>2023-09-15T13:24:25Z</time>
      </trkpt>
      <trkpt lat="43.52068" lon="6.31154">
        <ele>325</ele>
        <time>2023-09-15T13:24:26Z</time>
      </trkpt>
      <trkpt lat="43.52067" lon="6.31155">
        <ele>325</ele>
        <time>2023-09-15T13:24:27Z</time>
      </trkpt>
      <trkpt lat="43.52067" lon="6.31157">
        <ele>325</ele>
        <time>2023-09-15T13:24:28Z</time>
      </trkpt>
      <trkpt lat="43.52067" lon="6.31158">
        <ele>324.9</ele>
        <time>2023-09-15T13:24:29Z</time>
      </trkpt>
      <trkpt lat="43.52067" lon="6.31159">
        <ele>324.9</ele>
        <time>2023-09-15T13:24:30Z</time>
      </trkpt>
      <trkpt lat="43.52067" lon="6.3116">
        <ele>324.9</ele>
        <time>2023-09-15T13:24:31Z</time>
      </trkpt>
      <trkpt lat="43.52066" lon="6.31161">
        <ele>324.9</ele>
        <time>2023-09-15T13:24:32Z</time>
      </trkpt>
      <trkpt lat="43.52066" lon="6.31162">
        <ele>324.9</ele>
        <time>2023-09-15T13:24:33Z</time>
      </trkpt>
      <trkpt lat="43.52065" lon="6.31162">
        <ele>324.9</ele>
        <time>2023-09-15T13:24:34Z</time>
      </trkpt>
      <trkpt lat="43.52064" lon="6.31163">
        <ele>324.9</ele>
        <time>2023-09-15T13:24:35Z</time>
      </trkpt>
      <trkpt lat="43.52064" lon="6.31164">
        <ele>324.8</ele>
        <time>2023-09-15T13:24:36Z</time>
      </trkpt>
      <trkpt lat="43.52063" lon="6.31166">
        <ele>324.7</ele>
        <time>2023-09-15T13:24:37Z</time>
      </trkpt>
      <trkpt lat="43.52063" lon="6.31167">
        <ele>324.6</ele>
        <time>2023-09-15T13:24:38Z</time>
      </trkpt>
      <trkpt lat="43.52063" lon="6.31168">
        <ele>324.5</ele>
        <time>2023-09-15T13:24:39Z</time>
      </trkpt>
      <trkpt lat="43.52063" lon="6.31169">
        <ele>324.4</ele>
        <time>2023-09-15T13:24:40Z</time>
      </trkpt>
      <trkpt lat="43.52063" lon="6.31169">
        <ele>324.3</ele>
        <time>2023-09-15T13:24:41Z</time>
      </trkpt>
      <trkpt lat="43.52063" lon="6.31169">
        <ele>324.2</ele>
        <time>2023-09-15T13:24:42Z</time>
      </trkpt>
      <trkpt lat="43.52063" lon="6.3117">
        <ele>324.3</ele>
        <time>2023-09-15T13:24:43Z</time>
      </trkpt>
      <trkpt lat="43.52063" lon="6.31171">
        <ele>324.3</ele>
        <time>2023-09-15T13:24:44Z</time>
      </trkpt>
      <trkpt lat="43.52063" lon="6.31171">
        <ele>324.3</ele>
        <time>2023-09-15T13:24:45Z</time>
      </trkpt>
      <trkpt lat="43.52063" lon="6.31172">
        <ele>324.4</ele>
        <time>2023-09-15T13:24:46Z</time>
      </trkpt>
      <trkpt lat="43.52063" lon="6.31173">
        <ele>324.4</ele>
        <time>2023-09-15T13:24:47Z</time>
      </trkpt>
      <trkpt lat="43.52063" lon="6.31173">
        <ele>324.4</ele>
        <time>2023-09-15T13:24:48Z</time>
      </trkpt>
      <trkpt lat="43.52063" lon="6.31173">
        <ele>324.5</ele>
        <time>2023-09-15T13:24:49Z</time>
      </trkpt>
      <trkpt lat="43.52063" lon="6.31173">
        <ele>324.6</ele>
        <time>2023-09-15T13:24:50Z</time>
      </trkpt>
      <trkpt lat="43.52062" lon="6.31173">
        <ele>324.7</ele>
        <time>2023-09-15T13:24:51Z</time>
      </trkpt>
      <trkpt lat="43.52062" lon="6.31174">
        <ele>324.7</ele>
        <time>2023-09-15T13:24:52Z</time>
      </trkpt>
      <trkpt lat="43.52062" lon="6.31174">
        <ele>324.8</ele>
        <time>2023-09-15T13:24:53Z</time>
      </trkpt>
      <trkpt lat="43.52062" lon="6.31174">
        <ele>324.9</ele>
        <time>2023-09-15T13:24:54Z</time>
      </trkpt>
      <trkpt lat="43.52062" lon="6.31174">
        <ele>324.9</ele>
        <time>2023-09-15T13:24:55Z</time>
      </trkpt>
      <trkpt lat="43.52062" lon="6.31174">
        <ele>324.9</ele>
        <time>2023-09-15T13:24:56Z</time>
      </trkpt>
      <trkpt lat="43.52061" lon="6.31175">
        <ele>324.8</ele>
        <time>2023-09-15T13:24:57Z</time>
      </trkpt>
      <trkpt lat="43.52061" lon="6.31175">
        <ele>324.8</ele>
        <time>2023-09-15T13:24:58Z</time>
      </trkpt>
      <trkpt lat="43.52061" lon="6.31175">
        <ele>324.7</ele>
        <time>2023-09-15T13:24:59Z</time>
      </trkpt>
      <trkpt lat="43.52061" lon="6.31175">
        <ele>324.7</ele>
        <time>2023-09-15T13:25:00Z</time>
      </trkpt>
      <trkpt lat="43.52061" lon="6.31175">
        <ele>324.7</ele>
        <time>2023-09-15T13:25:01Z</time>
      </trkpt>
      <trkpt lat="43.52061" lon="6.31175">
        <ele>324.8</ele>
        <time>2023-09-15T13:25:02Z</time>
      </trkpt>
      <trkpt lat="43.52061" lon="6.31175">
        <ele>324.8</ele>
        <time>2023-09-15T13:25:03Z</time>
      </trkpt>
      <trkpt lat="43.52061" lon="6.31175">
        <ele>324.9</ele>
        <time>2023-09-15T13:25:04Z</time>
      </trkpt>
      <trkpt lat="43.52061" lon="6.31176">
        <ele>324.9</ele>
        <time>2023-09-15T13:25:05Z</time>
      </trkpt>
      <trkpt lat="43.52061" lon="6.31176">
        <ele>324.9</ele>
        <time>2023-09-15T13:25:06Z</time>
      </trkpt>
      <trkpt lat="43.52061" lon="6.31176">
        <ele>325</ele>
        <time>2023-09-15T13:25:07Z</time>
      </trkpt>
      <trkpt lat="43.52061" lon="6.31176">
        <ele>325</ele>
        <time>2023-09-15T13:25:08Z</time>
      </trkpt>
      <trkpt lat="43.52061" lon="6.31176">
        <ele>325</ele>
        <time>2023-09-15T13:25:09Z</time>
      </trkpt>
      <trkpt lat="43.52061" lon="6.31177">
        <ele>325</ele>
        <time>2023-09-15T13:25:10Z</time>
      </trkpt>
      <trkpt lat="43.52062" lon="6.31176">
        <ele>325.2</ele>
        <time>2023-09-15T13:25:11Z</time>
      </trkpt>
      <trkpt lat="43.52062" lon="6.31176">
        <ele>325.3</ele>
        <time>2023-09-15T13:25:12Z</time>
      </trkpt>
      <trkpt lat="43.52062" lon="6.31176">
        <ele>325.3</ele>
        <time>2023-09-15T13:25:13Z</time>
      </trkpt>
      <trkpt lat="43.52062" lon="6.31177">
        <ele>325.3</ele>
        <time>2023-09-15T13:25:14Z</time>
      </trkpt>
      <trkpt lat="43.52062" lon="6.31177">
        <ele>325.3</ele>
        <time>2023-09-15T13:25:15Z</time>
      </trkpt>
      <trkpt lat="43.52062" lon="6.31176">
        <ele>325.3</ele>
        <time>2023-09-15T13:25:16Z</time>
      </trkpt>
      <trkpt lat="43.52062" lon="6.31176">
        <ele>325.4</ele>
        <time>2023-09-15T13:25:17Z</time>
      </trkpt>
      <trkpt lat="43.52062" lon="6.31176">
        <ele>325.4</ele>
        <time>2023-09-15T13:25:18Z</time>
      </trkpt>
      <trkpt lat="43.52062" lon="6.31176">
        <ele>325.4</ele>
        <time>2023-09-15T13:25:19Z</time>
      </trkpt>
      <trkpt lat="43.52062" lon="6.31176">
        <ele>325.4</ele>
        <time>2023-09-15T13:25:20Z</time>
      </trkpt>
      <trkpt lat="43.52062" lon="6.31176">
        <ele>325.3</ele>
        <time>2023-09-15T13:25:21Z</time>
      </trkpt>
      <trkpt lat="43.52062" lon="6.31175">
        <ele>325.3</ele>
        <time>2023-09-15T13:25:22Z</time>
      </trkpt>
      <trkpt lat="43.52063" lon="6.31175">
        <ele>325.2</ele>
        <time>2023-09-15T13:25:23Z</time>
      </trkpt>
      <trkpt lat="43.52063" lon="6.31175">
        <ele>325.2</ele>
        <time>2023-09-15T13:25:24Z</time>
      </trkpt>
      <trkpt lat="43.52062" lon="6.31175">
        <ele>325.1</ele>
        <time>2023-09-15T13:25:25Z</time>
      </trkpt>
      <trkpt lat="43.52062" lon="6.31175">
        <ele>325</ele>
        <time>2023-09-15T13:25:26Z</time>
      </trkpt>
      <trkpt lat="43.52062" lon="6.31175">
        <ele>325</ele>
        <time>2023-09-15T13:25:27Z</time>
      </trkpt>
      <trkpt lat="43.52062" lon="6.31175">
        <ele>325</ele>
        <time>2023-09-15T13:25:28Z</time>
      </trkpt>
      <trkpt lat="43.52062" lon="6.31175">
        <ele>325</ele>
        <time>2023-09-15T13:25:29Z</time>
      </trkpt>
      <trkpt lat="43.52062" lon="6.31175">
        <ele>325</ele>
        <time>2023-09-15T13:25:30Z</time>
      </trkpt>
      <trkpt lat="43.52062" lon="6.31175">
        <ele>325</ele>
        <time>2023-09-15T13:25:31Z</time>
      </trkpt>
      <trkpt lat="43.52062" lon="6.31176">
        <ele>325</ele>
        <time>2023-09-15T13:25:32Z</time>
      </trkpt>
      <trkpt lat="43.52062" lon="6.31176">
        <ele>325.1</ele>
        <time>2023-09-15T13:25:33Z</time>
      </trkpt>
      <trkpt lat="43.52062" lon="6.31176">
        <ele>325.1</ele>
        <time>2023-09-15T13:25:34Z</time>
      </trkpt>
      <trkpt lat="43.52062" lon="6.31176">
        <ele>325.1</ele>
        <time>2023-09-15T13:25:35Z</time>
      </trkpt>
      <trkpt lat="43.52062" lon="6.31176">
        <ele>325.1</ele>
        <time>2023-09-15T13:25:36Z</time>
      </trkpt>
      <trkpt lat="43.52062" lon="6.31176">
        <ele>325.1</ele>
        <time>2023-09-15T13:25:37Z</time>
      </trkpt>
      <trkpt lat="43.52062" lon="6.31176">
        <ele>325.1</ele>
        <time>2023-09-15T13:25:38Z</time>
      </trkpt>
      <trkpt lat="43.52062" lon="6.31176">
        <ele>325.1</ele>
        <time>2023-09-15T13:25:39Z</time>
      </trkpt>
      <trkpt lat="43.52062" lon="6.31176">
        <ele>325.1</ele>
        <time>2023-09-15T13:25:40Z</time>
      </trkpt>
      <trkpt lat="43.52062" lon="6.31176">
        <ele>325.1</ele>
        <time>2023-09-15T13:25:41Z</time>
      </trkpt>
      <trkpt lat="43.52062" lon="6.31176">
        <ele>325.1</ele>
        <time>2023-09-15T13:25:42Z</time>
      </trkpt>
      <trkpt lat="43.52062" lon="6.31175">
        <ele>325.2</ele>
        <time>2023-09-15T13:25:43Z</time>
      </trkpt>
      <trkpt lat="43.52062" lon="6.31176">
        <ele>325.2</ele>
        <time>2023-09-15T13:25:44Z</time>
      </trkpt>
      <trkpt lat="43.52062" lon="6.31176">
        <ele>325.3</ele>
        <time>2023-09-15T13:25:45Z</time>
      </trkpt>
      <trkpt lat="43.52062" lon="6.31176">
        <ele>325.4</ele>
        <time>2023-09-15T13:25:46Z</time>
      </trkpt>
      <trkpt lat="43.52061" lon="6.31176">
        <ele>325.6</ele>
        <time>2023-09-15T13:25:47Z</time>
      </trkpt>
      <trkpt lat="43.52061" lon="6.31176">
        <ele>325.5</ele>
        <time>2023-09-15T13:25:48Z</time>
      </trkpt>
      <trkpt lat="43.52061" lon="6.31176">
        <ele>325.5</ele>
        <time>2023-09-15T13:25:49Z</time>
      </trkpt>
      <trkpt lat="43.52061" lon="6.31176">
        <ele>325.5</ele>
        <time>2023-09-15T13:25:50Z</time>
      </trkpt>
      <trkpt lat="43.52061" lon="6.31176">
        <ele>325.5</ele>
        <time>2023-09-15T13:25:51Z</time>
      </trkpt>
      <trkpt lat="43.52061" lon="6.31176">
        <ele>325.4</ele>
        <time>2023-09-15T13:25:52Z</time>
      </trkpt>
      <trkpt lat="43.52061" lon="6.31176">
        <ele>325.4</ele>
        <time>2023-09-15T13:25:53Z</time>
      </trkpt>
      <trkpt lat="43.52061" lon="6.31176">
        <ele>325.4</ele>
        <time>2023-09-15T13:25:54Z</time>
      </trkpt>
      <trkpt lat="43.52061" lon="6.31176">
        <ele>325.4</ele>
        <time>2023-09-15T13:25:55Z</time>
      </trkpt>
      <trkpt lat="43.52061" lon="6.31176">
        <ele>325.4</ele>
        <time>2023-09-15T13:25:56Z</time>
      </trkpt>
      <trkpt lat="43.52061" lon="6.31176">
        <ele>325.4</ele>
        <time>2023-09-15T13:25:57Z</time>
      </trkpt>
      <trkpt lat="43.52061" lon="6.31176">
        <ele>325.4</ele>
        <time>2023-09-15T13:25:58Z</time>
      </trkpt>
      <trkpt lat="43.52061" lon="6.31176">
        <ele>325.3</ele>
        <time>2023-09-15T13:25:59Z</time>
      </trkpt>
      <trkpt lat="43.52061" lon="6.31176">
        <ele>325.3</ele>
        <time>2023-09-15T13:26:00Z</time>
      </trkpt>
      <trkpt lat="43.52061" lon="6.31176">
        <ele>325.3</ele>
        <time>2023-09-15T13:26:01Z</time>
      </trkpt>
      <trkpt lat="43.52061" lon="6.31176">
        <ele>325.3</ele>
        <time>2023-09-15T13:26:02Z</time>
      </trkpt>
      <trkpt lat="43.52062" lon="6.31176">
        <ele>325.4</ele>
        <time>2023-09-15T13:26:03Z</time>
      </trkpt>
      <trkpt lat="43.52062" lon="6.31176">
        <ele>325.5</ele>
        <time>2023-09-15T13:26:04Z</time>
      </trkpt>
      <trkpt lat="43.52062" lon="6.31176">
        <ele>325.5</ele>
        <time>2023-09-15T13:26:05Z</time>
      </trkpt>
      <trkpt lat="43.52062" lon="6.31176">
        <ele>325.6</ele>
        <time>2023-09-15T13:26:06Z</time>
      </trkpt>
      <trkpt lat="43.52062" lon="6.31176">
        <ele>325.6</ele>
        <time>2023-09-15T13:26:07Z</time>
      </trkpt>
      <trkpt lat="43.52062" lon="6.31176">
        <ele>325.6</ele>
        <time>2023-09-15T13:26:08Z</time>
      </trkpt>
      <trkpt lat="43.52062" lon="6.31176">
        <ele>325.6</ele>
        <time>2023-09-15T13:26:09Z</time>
      </trkpt>
      <trkpt lat="43.52062" lon="6.31175">
        <ele>325.6</ele>
        <time>2023-09-15T13:26:10Z</time>
      </trkpt>
      <trkpt lat="43.52062" lon="6.31176">
        <ele>325.6</ele>
        <time>2023-09-15T13:26:11Z</time>
      </trkpt>
      <trkpt lat="43.52062" lon="6.31176">
        <ele>325.6</ele>
        <time>2023-09-15T13:26:12Z</time>
      </trkpt>
      <trkpt lat="43.52062" lon="6.31176">
        <ele>325.6</ele>
        <time>2023-09-15T13:26:13Z</time>
      </trkpt>
      <trkpt lat="43.52062" lon="6.31176">
        <ele>325.6</ele>
        <time>2023-09-15T13:26:14Z</time>
      </trkpt>
      <trkpt lat="43.52061" lon="6.31176">
        <ele>325.6</ele>
        <time>2023-09-15T13:26:15Z</time>
      </trkpt>
      <trkpt lat="43.52061" lon="6.31176">
        <ele>325.6</ele>
        <time>2023-09-15T13:26:16Z</time>
      </trkpt>
      <trkpt lat="43.52061" lon="6.31176">
        <ele>325.6</ele>
        <time>2023-09-15T13:26:17Z</time>
      </trkpt>
      <trkpt lat="43.52061" lon="6.31176">
        <ele>325.6</ele>
        <time>2023-09-15T13:26:18Z</time>
      </trkpt>
      <trkpt lat="43.52061" lon="6.31176">
        <ele>325.6</ele>
        <time>2023-09-15T13:26:19Z</time>
      </trkpt>
      <trkpt lat="43.52061" lon="6.31176">
        <ele>325.6</ele>
        <time>2023-09-15T13:26:20Z</time>
      </trkpt>
      <trkpt lat="43.52061" lon="6.31176">
        <ele>325.6</ele>
        <time>2023-09-15T13:26:21Z</time>
      </trkpt>
      <trkpt lat="43.52061" lon="6.31176">
        <ele>325.6</ele>
        <time>2023-09-15T13:26:22Z</time>
      </trkpt>
      <trkpt lat="43.52061" lon="6.31176">
        <ele>325.6</ele>
        <time>2023-09-15T13:26:23Z</time>
      </trkpt>
      <trkpt lat="43.52061" lon="6.31176">
        <ele>325.6</ele>
        <time>2023-09-15T13:26:24Z</time>
      </trkpt>
      <trkpt lat="43.52061" lon="6.31177">
        <ele>325.6</ele>
        <time>2023-09-15T13:26:25Z</time>
      </trkpt>
      <trkpt lat="43.52061" lon="6.31177">
        <ele>325.6</ele>
        <time>2023-09-15T13:26:26Z</time>
      </trkpt>
      <trkpt lat="43.52061" lon="6.31176">
        <ele>325.7</ele>
        <time>2023-09-15T13:26:27Z</time>
      </trkpt>
      <trkpt lat="43.52061" lon="6.31176">
        <ele>325.7</ele>
        <time>2023-09-15T13:26:28Z</time>
      </trkpt>
      <trkpt lat="43.52061" lon="6.31176">
        <ele>325.7</ele>
        <time>2023-09-15T13:26:29Z</time>
      </trkpt>
      <trkpt lat="43.52061" lon="6.31176">
        <ele>325.8</ele>
        <time>2023-09-15T13:26:30Z</time>
      </trkpt>
      <trkpt lat="43.52061" lon="6.31176">
        <ele>325.8</ele>
        <time>2023-09-15T13:26:31Z</time>
      </trkpt>
      <trkpt lat="43.52061" lon="6.31176">
        <ele>325.8</ele>
        <time>2023-09-15T13:26:32Z</time>
      </trkpt>
      <trkpt lat="43.52061" lon="6.31176">
        <ele>325.8</ele>
        <time>2023-09-15T13:26:33Z</time>
      </trkpt>
      <trkpt lat="43.52061" lon="6.31176">
        <ele>325.8</ele>
        <time>2023-09-15T13:26:34Z</time>
      </trkpt>
      <trkpt lat="43.52061" lon="6.31175">
        <ele>325.8</ele>
        <time>2023-09-15T13:26:35Z</time>
      </trkpt>
      <trkpt lat="43.52061" lon="6.31175">
        <ele>325.8</ele>
        <time>2023-09-15T13:26:36Z</time>
      </trkpt>
      <trkpt lat="43.52061" lon="6.31176">
        <ele>325.8</ele>
        <time>2023-09-15T13:26:37Z</time>
      </trkpt>
      <trkpt lat="43.52061" lon="6.31176">
        <ele>325.8</ele>
        <time>2023-09-15T13:26:38Z</time>
      </trkpt>
      <trkpt lat="43.52061" lon="6.31176">
        <ele>325.8</ele>
        <time>2023-09-15T13:26:39Z</time>
      </trkpt>
      <trkpt lat="43.52061" lon="6.31176">
        <ele>325.8</ele>
        <time>2023-09-15T13:26:40Z</time>
      </trkpt>
      <trkpt lat="43.52061" lon="6.31176">
        <ele>325.8</ele>
        <time>2023-09-15T13:26:41Z</time>
      </trkpt>
      <trkpt lat="43.52061" lon="6.31176">
        <ele>325.8</ele>
        <time>2023-09-15T13:26:42Z</time>
      </trkpt>
      <trkpt lat="43.52061" lon="6.31176">
        <ele>325.7</ele>
        <time>2023-09-15T13:26:43Z</time>
      </trkpt>
      <trkpt lat="43.52061" lon="6.31176">
        <ele>325.6</ele>
        <time>2023-09-15T13:26:44Z</time>
      </trkpt>
      <trkpt lat="43.52061" lon="6.31176">
        <ele>325.5</ele>
        <time>2023-09-15T13:26:45Z</time>
      </trkpt>
      <trkpt lat="43.52061" lon="6.31175">
        <ele>325.4</ele>
        <time>2023-09-15T13:26:46Z</time>
      </trkpt>
      <trkpt lat="43.52061" lon="6.31175">
        <ele>325.4</ele>
        <time>2023-09-15T13:26:47Z</time>
      </trkpt>
      <trkpt lat="43.52061" lon="6.31175">
        <ele>325.4</ele>
        <time>2023-09-15T13:26:48Z</time>
      </trkpt>
      <trkpt lat="43.52061" lon="6.31175">
        <ele>325.4</ele>
        <time>2023-09-15T13:26:49Z</time>
      </trkpt>
      <trkpt lat="43.52061" lon="6.31175">
        <ele>325.4</ele>
        <time>2023-09-15T13:26:50Z</time>
      </trkpt>
      <trkpt lat="43.52061" lon="6.31175">
        <ele>325.5</ele>
        <time>2023-09-15T13:26:51Z</time>
      </trkpt>
      <trkpt lat="43.52061" lon="6.31175">
        <ele>325.5</ele>
        <time>2023-09-15T13:26:52Z</time>
      </trkpt>
      <trkpt lat="43.52061" lon="6.31175">
        <ele>325.5</ele>
        <time>2023-09-15T13:26:53Z</time>
      </trkpt>
      <trkpt lat="43.52061" lon="6.31175">
        <ele>325.5</ele>
        <time>2023-09-15T13:26:54Z</time>
      </trkpt>
      <trkpt lat="43.52061" lon="6.31175">
        <ele>325.5</ele>
        <time>2023-09-15T13:26:55Z</time>
      </trkpt>
      <trkpt lat="43.52062" lon="6.31175">
        <ele>325.4</ele>
        <time>2023-09-15T13:26:56Z</time>
      </trkpt>
      <trkpt lat="43.52062" lon="6.31175">
        <ele>325.4</ele>
        <time>2023-09-15T13:26:57Z</time>
      </trkpt>
      <trkpt lat="43.52062" lon="6.31175">
        <ele>325.4</ele>
        <time>2023-09-15T13:26:58Z</time>
      </trkpt>
      <trkpt lat="43.52062" lon="6.31175">
        <ele>325.5</ele>
        <time>2023-09-15T13:26:59Z</time>
      </trkpt>
      <trkpt lat="43.52062" lon="6.31175">
        <ele>325.5</ele>
        <time>2023-09-15T13:27:00Z</time>
      </trkpt>
      <trkpt lat="43.52062" lon="6.31175">
        <ele>325.5</ele>
        <time>2023-09-15T13:27:01Z</time>
      </trkpt>
      <trkpt lat="43.52062" lon="6.31175">
        <ele>325.5</ele>
        <time>2023-09-15T13:27:02Z</time>
      </trkpt>
      <trkpt lat="43.52062" lon="6.31175">
        <ele>325.6</ele>
        <time>2023-09-15T13:27:03Z</time>
      </trkpt>
      <trkpt lat="43.52062" lon="6.31175">
        <ele>325.4</ele>
        <time>2023-09-15T13:27:04Z</time>
      </trkpt>
      <trkpt lat="43.52062" lon="6.31175">
        <ele>325.3</ele>
        <time>2023-09-15T13:27:05Z</time>
      </trkpt>
      <trkpt lat="43.52062" lon="6.31175">
        <ele>325.3</ele>
        <time>2023-09-15T13:27:06Z</time>
      </trkpt>
      <trkpt lat="43.52063" lon="6.31175">
        <ele>325.2</ele>
        <time>2023-09-15T13:27:07Z</time>
      </trkpt>
      <trkpt lat="43.52063" lon="6.31175">
        <ele>325.1</ele>
        <time>2023-09-15T13:27:08Z</time>
      </trkpt>
      <trkpt lat="43.52063" lon="6.31175">
        <ele>325</ele>
        <time>2023-09-15T13:27:09Z</time>
      </trkpt>
      <trkpt lat="43.52063" lon="6.31175">
        <ele>325</ele>
        <time>2023-09-15T13:27:10Z</time>
      </trkpt>
      <trkpt lat="43.52063" lon="6.31175">
        <ele>325</ele>
        <time>2023-09-15T13:27:11Z</time>
      </trkpt>
      <trkpt lat="43.52063" lon="6.31175">
        <ele>324.9</ele>
        <time>2023-09-15T13:27:12Z</time>
      </trkpt>
      <trkpt lat="43.52063" lon="6.31175">
        <ele>324.9</ele>
        <time>2023-09-15T13:27:13Z</time>
      </trkpt>
      <trkpt lat="43.52063" lon="6.31175">
        <ele>324.9</ele>
        <time>2023-09-15T13:27:14Z</time>
      </trkpt>
      <trkpt lat="43.52063" lon="6.31174">
        <ele>324.8</ele>
        <time>2023-09-15T13:27:15Z</time>
      </trkpt>
      <trkpt lat="43.52063" lon="6.31174">
        <ele>324.8</ele>
        <time>2023-09-15T13:27:16Z</time>
      </trkpt>
      <trkpt lat="43.52063" lon="6.31175">
        <ele>324.8</ele>
        <time>2023-09-15T13:27:17Z</time>
      </trkpt>
      <trkpt lat="43.52063" lon="6.31175">
        <ele>324.8</ele>
        <time>2023-09-15T13:27:18Z</time>
      </trkpt>
      <trkpt lat="43.52063" lon="6.31175">
        <ele>324.8</ele>
        <time>2023-09-15T13:27:19Z</time>
      </trkpt>
      <trkpt lat="43.52063" lon="6.31175">
        <ele>324.8</ele>
        <time>2023-09-15T13:27:20Z</time>
      </trkpt>
      <trkpt lat="43.52063" lon="6.31175">
        <ele>324.8</ele>
        <time>2023-09-15T13:27:21Z</time>
      </trkpt>
      <trkpt lat="43.52063" lon="6.31175">
        <ele>324.8</ele>
        <time>2023-09-15T13:27:22Z</time>
      </trkpt>
      <trkpt lat="43.52063" lon="6.31175">
        <ele>324.8</ele>
        <time>2023-09-15T13:27:23Z</time>
      </trkpt>
      <trkpt lat="43.52063" lon="6.31175">
        <ele>324.8</ele>
        <time>2023-09-15T13:27:24Z</time>
      </trkpt>
      <trkpt lat="43.52063" lon="6.31175">
        <ele>324.9</ele>
        <time>2023-09-15T13:27:25Z</time>
      </trkpt>
      <trkpt lat="43.52063" lon="6.31175">
        <ele>325</ele>
        <time>2023-09-15T13:27:26Z</time>
      </trkpt>
      <trkpt lat="43.52063" lon="6.31175">
        <ele>325</ele>
        <time>2023-09-15T13:27:27Z</time>
      </trkpt>
      <trkpt lat="43.52063" lon="6.31176">
        <ele>325.1</ele>
        <time>2023-09-15T13:27:28Z</time>
      </trkpt>
      <trkpt lat="43.52063" lon="6.31176">
        <ele>325</ele>
        <time>2023-09-15T13:27:29Z</time>
      </trkpt>
      <trkpt lat="43.52063" lon="6.31176">
        <ele>325.1</ele>
        <time>2023-09-15T13:27:30Z</time>
      </trkpt>
      <trkpt lat="43.52063" lon="6.31176">
        <ele>325.2</ele>
        <time>2023-09-15T13:27:31Z</time>
      </trkpt>
      <trkpt lat="43.52062" lon="6.31176">
        <ele>325.2</ele>
        <time>2023-09-15T13:27:32Z</time>
      </trkpt>
      <trkpt lat="43.52062" lon="6.31176">
        <ele>325.2</ele>
        <time>2023-09-15T13:27:33Z</time>
      </trkpt>
      <trkpt lat="43.52062" lon="6.31176">
        <ele>325.1</ele>
        <time>2023-09-15T13:27:34Z</time>
      </trkpt>
      <trkpt lat="43.52062" lon="6.31176">
        <ele>325.1</ele>
        <time>2023-09-15T13:27:35Z</time>
      </trkpt>
      <trkpt lat="43.52062" lon="6.31176">
        <ele>325.1</ele>
        <time>2023-09-15T13:27:36Z</time>
      </trkpt>
      <trkpt lat="43.52062" lon="6.31176">
        <ele>325.1</ele>
        <time>2023-09-15T13:27:37Z</time>
      </trkpt>
      <trkpt lat="43.52062" lon="6.31176">
        <ele>325</ele>
        <time>2023-09-15T13:27:38Z</time>
      </trkpt>
      <trkpt lat="43.52061" lon="6.31177">
        <ele>325</ele>
        <time>2023-09-15T13:27:39Z</time>
      </trkpt>
      <trkpt lat="43.52061" lon="6.31177">
        <ele>325</ele>
        <time>2023-09-15T13:27:40Z</time>
      </trkpt>
      <trkpt lat="43.52061" lon="6.31177">
        <ele>325</ele>
        <time>2023-09-15T13:27:41Z</time>
      </trkpt>
      <trkpt lat="43.52061" lon="6.31177">
        <ele>325</ele>
        <time>2023-09-15T13:27:42Z</time>
      </trkpt>
      <trkpt lat="43.52061" lon="6.31177">
        <ele>324.9</ele>
        <time>2023-09-15T13:27:43Z</time>
      </trkpt>
      <trkpt lat="43.52061" lon="6.31177">
        <ele>324.9</ele>
        <time>2023-09-15T13:27:44Z</time>
      </trkpt>
      <trkpt lat="43.52061" lon="6.31177">
        <ele>324.8</ele>
        <time>2023-09-15T13:27:45Z</time>
      </trkpt>
      <trkpt lat="43.52061" lon="6.31177">
        <ele>324.8</ele>
        <time>2023-09-15T13:27:46Z</time>
      </trkpt>
      <trkpt lat="43.52061" lon="6.31177">
        <ele>324.8</ele>
        <time>2023-09-15T13:27:47Z</time>
      </trkpt>
      <trkpt lat="43.52061" lon="6.31177">
        <ele>324.9</ele>
        <time>2023-09-15T13:27:48Z</time>
      </trkpt>
      <trkpt lat="43.52061" lon="6.31177">
        <ele>324.9</ele>
        <time>2023-09-15T13:27:49Z</time>
      </trkpt>
      <trkpt lat="43.52061" lon="6.31177">
        <ele>325</ele>
        <time>2023-09-15T13:27:50Z</time>
      </trkpt>
      <trkpt lat="43.52061" lon="6.31176">
        <ele>325.1</ele>
        <time>2023-09-15T13:27:51Z</time>
      </trkpt>
      <trkpt lat="43.52061" lon="6.31177">
        <ele>325</ele>
        <time>2023-09-15T13:27:52Z</time>
      </trkpt>
      <trkpt lat="43.52061" lon="6.31177">
        <ele>325</ele>
        <time>2023-09-15T13:27:53Z</time>
      </trkpt>
      <trkpt lat="43.52061" lon="6.31177">
        <ele>324.9</ele>
        <time>2023-09-15T13:27:54Z</time>
      </trkpt>
      <trkpt lat="43.52062" lon="6.31176">
        <ele>324.9</ele>
        <time>2023-09-15T13:27:55Z</time>
      </trkpt>
      <trkpt lat="43.52062" lon="6.31176">
        <ele>324.9</ele>
        <time>2023-09-15T13:27:56Z</time>
      </trkpt>
      <trkpt lat="43.52062" lon="6.31177">
        <ele>324.9</ele>
        <time>2023-09-15T13:27:57Z</time>
      </trkpt>
      <trkpt lat="43.52062" lon="6.31177">
        <ele>324.9</ele>
        <time>2023-09-15T13:27:58Z</time>
      </trkpt>
      <trkpt lat="43.52061" lon="6.31177">
        <ele>324.9</ele>
        <time>2023-09-15T13:27:59Z</time>
      </trkpt>
      <trkpt lat="43.52061" lon="6.31177">
        <ele>324.9</ele>
        <time>2023-09-15T13:28:00Z</time>
      </trkpt>
      <trkpt lat="43.52062" lon="6.31177">
        <ele>324.9</ele>
        <time>2023-09-15T13:28:01Z</time>
      </trkpt>
      <trkpt lat="43.52062" lon="6.31176">
        <ele>324.9</ele>
        <time>2023-09-15T13:28:02Z</time>
      </trkpt>
      <trkpt lat="43.52062" lon="6.31176">
        <ele>324.9</ele>
        <time>2023-09-15T13:28:03Z</time>
      </trkpt>
      <trkpt lat="43.52063" lon="6.31176">
        <ele>324.9</ele>
        <time>2023-09-15T13:28:04Z</time>
      </trkpt>
      <trkpt lat="43.52063" lon="6.31176">
        <ele>324.9</ele>
        <time>2023-09-15T13:28:05Z</time>
      </trkpt>
      <trkpt lat="43.52063" lon="6.31176">
        <ele>324.8</ele>
        <time>2023-09-15T13:28:06Z</time>
      </trkpt>
      <trkpt lat="43.52063" lon="6.31176">
        <ele>324.9</ele>
        <time>2023-09-15T13:28:07Z</time>
      </trkpt>
      <trkpt lat="43.52062" lon="6.31176">
        <ele>324.7</ele>
        <time>2023-09-15T13:28:08Z</time>
      </trkpt>
      <trkpt lat="43.52062" lon="6.31176">
        <ele>324.7</ele>
        <time>2023-09-15T13:28:09Z</time>
      </trkpt>
      <trkpt lat="43.52062" lon="6.31176">
        <ele>324.6</ele>
        <time>2023-09-15T13:28:10Z</time>
      </trkpt>
      <trkpt lat="43.52062" lon="6.31176">
        <ele>324.6</ele>
        <time>2023-09-15T13:28:11Z</time>
      </trkpt>
      <trkpt lat="43.52062" lon="6.31175">
        <ele>324.6</ele>
        <time>2023-09-15T13:28:12Z</time>
      </trkpt>
      <trkpt lat="43.52062" lon="6.31175">
        <ele>324.7</ele>
        <time>2023-09-15T13:28:13Z</time>
      </trkpt>
      <trkpt lat="43.52062" lon="6.31175">
        <ele>324.7</ele>
        <time>2023-09-15T13:28:14Z</time>
      </trkpt>
      <trkpt lat="43.52062" lon="6.31176">
        <ele>324.7</ele>
        <time>2023-09-15T13:28:15Z</time>
      </trkpt>
      <trkpt lat="43.52061" lon="6.31176">
        <ele>324.7</ele>
        <time>2023-09-15T13:28:16Z</time>
      </trkpt>
      <trkpt lat="43.52061" lon="6.31176">
        <ele>324.7</ele>
        <time>2023-09-15T13:28:17Z</time>
      </trkpt>
      <trkpt lat="43.52061" lon="6.31176">
        <ele>324.7</ele>
        <time>2023-09-15T13:28:18Z</time>
      </trkpt>
      <trkpt lat="43.52061" lon="6.31176">
        <ele>324.7</ele>
        <time>2023-09-15T13:28:19Z</time>
      </trkpt>
      <trkpt lat="43.52061" lon="6.31177">
        <ele>324.7</ele>
        <time>2023-09-15T13:28:20Z</time>
      </trkpt>
      <trkpt lat="43.52062" lon="6.31176">
        <ele>324.7</ele>
        <time>2023-09-15T13:28:21Z</time>
      </trkpt>
      <trkpt lat="43.52062" lon="6.31176">
        <ele>324.7</ele>
        <time>2023-09-15T13:28:22Z</time>
      </trkpt>
      <trkpt lat="43.52062" lon="6.31176">
        <ele>324.6</ele>
        <time>2023-09-15T13:28:23Z</time>
      </trkpt>
      <trkpt lat="43.52062" lon="6.31176">
        <ele>324.6</ele>
        <time>2023-09-15T13:28:24Z</time>
      </trkpt>
      <trkpt lat="43.52062" lon="6.31176">
        <ele>324.7</ele>
        <time>2023-09-15T13:28:25Z</time>
      </trkpt>
      <trkpt lat="43.52063" lon="6.31176">
        <ele>324.6</ele>
        <time>2023-09-15T13:28:26Z</time>
      </trkpt>
      <trkpt lat="43.52063" lon="6.31177">
        <ele>324.4</ele>
        <time>2023-09-15T13:28:27Z</time>
      </trkpt>
      <trkpt lat="43.52062" lon="6.31177">
        <ele>324.3</ele>
        <time>2023-09-15T13:28:28Z</time>
      </trkpt>
      <trkpt lat="43.52063" lon="6.31177">
        <ele>324.2</ele>
        <time>2023-09-15T13:28:29Z</time>
      </trkpt>
      <trkpt lat="43.52063" lon="6.31177">
        <ele>324.2</ele>
        <time>2023-09-15T13:28:30Z</time>
      </trkpt>
      <trkpt lat="43.52063" lon="6.31176">
        <ele>324.2</ele>
        <time>2023-09-15T13:28:31Z</time>
      </trkpt>
      <trkpt lat="43.52063" lon="6.31175">
        <ele>324.2</ele>
        <time>2023-09-15T13:28:32Z</time>
      </trkpt>
      <trkpt lat="43.52063" lon="6.31176">
        <ele>324.3</ele>
        <time>2023-09-15T13:28:33Z</time>
      </trkpt>
      <trkpt lat="43.52063" lon="6.31176">
        <ele>324.3</ele>
        <time>2023-09-15T13:28:34Z</time>
      </trkpt>
      <trkpt lat="43.52063" lon="6.31176">
        <ele>324.3</ele>
        <time>2023-09-15T13:28:35Z</time>
      </trkpt>
      <trkpt lat="43.52064" lon="6.31175">
        <ele>324.3</ele>
        <time>2023-09-15T13:28:36Z</time>
      </trkpt>
      <trkpt lat="43.52064" lon="6.31175">
        <ele>324.4</ele>
        <time>2023-09-15T13:28:37Z</time>
      </trkpt>
      <trkpt lat="43.52064" lon="6.31175">
        <ele>324.4</ele>
        <time>2023-09-15T13:28:38Z</time>
      </trkpt>
      <trkpt lat="43.52064" lon="6.31175">
        <ele>324.3</ele>
        <time>2023-09-15T13:28:39Z</time>
      </trkpt>
      <trkpt lat="43.52064" lon="6.31175">
        <ele>324.2</ele>
        <time>2023-09-15T13:28:40Z</time>
      </trkpt>
      <trkpt lat="43.52064" lon="6.31175">
        <ele>324.2</ele>
        <time>2023-09-15T13:28:41Z</time>
      </trkpt>
      <trkpt lat="43.52064" lon="6.31175">
        <ele>324.2</ele>
        <time>2023-09-15T13:28:42Z</time>
      </trkpt>
      <trkpt lat="43.52064" lon="6.31175">
        <ele>324.2</ele>
        <time>2023-09-15T13:28:43Z</time>
      </trkpt>
      <trkpt lat="43.52065" lon="6.31175">
        <ele>324.3</ele>
        <time>2023-09-15T13:28:44Z</time>
      </trkpt>
      <trkpt lat="43.52065" lon="6.31174">
        <ele>324.4</ele>
        <time>2023-09-15T13:28:45Z</time>
      </trkpt>
      <trkpt lat="43.52065" lon="6.31174">
        <ele>324.5</ele>
        <time>2023-09-15T13:28:46Z</time>
      </trkpt>
      <trkpt lat="43.52065" lon="6.31174">
        <ele>324.6</ele>
        <time>2023-09-15T13:28:47Z</time>
      </trkpt>
      <trkpt lat="43.52065" lon="6.31174">
        <ele>324.7</ele>
        <time>2023-09-15T13:28:48Z</time>
      </trkpt>
      <trkpt lat="43.52065" lon="6.31174">
        <ele>324.8</ele>
        <time>2023-09-15T13:28:49Z</time>
      </trkpt>
      <trkpt lat="43.52065" lon="6.31173">
        <ele>324.8</ele>
        <time>2023-09-15T13:28:50Z</time>
      </trkpt>
      <trkpt lat="43.52065" lon="6.31173">
        <ele>324.8</ele>
        <time>2023-09-15T13:28:51Z</time>
      </trkpt>
      <trkpt lat="43.52065" lon="6.31173">
        <ele>324.9</ele>
        <time>2023-09-15T13:28:52Z</time>
      </trkpt>
      <trkpt lat="43.52065" lon="6.31173">
        <ele>324.9</ele>
        <time>2023-09-15T13:28:53Z</time>
      </trkpt>
      <trkpt lat="43.52065" lon="6.31172">
        <ele>324.9</ele>
        <time>2023-09-15T13:28:54Z</time>
      </trkpt>
      <trkpt lat="43.52065" lon="6.31172">
        <ele>324.9</ele>
        <time>2023-09-15T13:28:55Z</time>
      </trkpt>
      <trkpt lat="43.52064" lon="6.31172">
        <ele>325</ele>
        <time>2023-09-15T13:28:56Z</time>
      </trkpt>
      <trkpt lat="43.52064" lon="6.31172">
        <ele>325</ele>
        <time>2023-09-15T13:28:57Z</time>
      </trkpt>
      <trkpt lat="43.52064" lon="6.31172">
        <ele>324.9</ele>
        <time>2023-09-15T13:28:58Z</time>
      </trkpt>
      <trkpt lat="43.52064" lon="6.31172">
        <ele>325</ele>
        <time>2023-09-15T13:28:59Z</time>
      </trkpt>
      <trkpt lat="43.52064" lon="6.31172">
        <ele>325</ele>
        <time>2023-09-15T13:29:00Z</time>
      </trkpt>
      <trkpt lat="43.52064" lon="6.31173">
        <ele>325</ele>
        <time>2023-09-15T13:29:01Z</time>
      </trkpt>
      <trkpt lat="43.52064" lon="6.31173">
        <ele>325.1</ele>
        <time>2023-09-15T13:29:02Z</time>
      </trkpt>
      <trkpt lat="43.52064" lon="6.31172">
        <ele>325.1</ele>
        <time>2023-09-15T13:29:03Z</time>
      </trkpt>
      <trkpt lat="43.52064" lon="6.31172">
        <ele>325.1</ele>
        <time>2023-09-15T13:29:04Z</time>
      </trkpt>
      <trkpt lat="43.52063" lon="6.31173">
        <ele>325</ele>
        <time>2023-09-15T13:29:05Z</time>
      </trkpt>
      <trkpt lat="43.52064" lon="6.31172">
        <ele>325</ele>
        <time>2023-09-15T13:29:06Z</time>
      </trkpt>
      <trkpt lat="43.52064" lon="6.31172">
        <ele>325</ele>
        <time>2023-09-15T13:29:07Z</time>
      </trkpt>
      <trkpt lat="43.52064" lon="6.31172">
        <ele>324.9</ele>
        <time>2023-09-15T13:29:08Z</time>
      </trkpt>
      <trkpt lat="43.52064" lon="6.31172">
        <ele>324.9</ele>
        <time>2023-09-15T13:29:09Z</time>
      </trkpt>
      <trkpt lat="43.52064" lon="6.31172">
        <ele>324.9</ele>
        <time>2023-09-15T13:29:10Z</time>
      </trkpt>
      <trkpt lat="43.52064" lon="6.31172">
        <ele>324.9</ele>
        <time>2023-09-15T13:29:11Z</time>
      </trkpt>
      <trkpt lat="43.52063" lon="6.31172">
        <ele>324.8</ele>
        <time>2023-09-15T13:29:12Z</time>
      </trkpt>
      <trkpt lat="43.52063" lon="6.31172">
        <ele>324.8</ele>
        <time>2023-09-15T13:29:13Z</time>
      </trkpt>
      <trkpt lat="43.52063" lon="6.31172">
        <ele>324.8</ele>
        <time>2023-09-15T13:29:14Z</time>
      </trkpt>
      <trkpt lat="43.52063" lon="6.31172">
        <ele>324.9</ele>
        <time>2023-09-15T13:29:15Z</time>
      </trkpt>
      <trkpt lat="43.52063" lon="6.31172">
        <ele>324.9</ele>
        <time>2023-09-15T13:29:16Z</time>
      </trkpt>
      <trkpt lat="43.52063" lon="6.31172">
        <ele>325</ele>
        <time>2023-09-15T13:29:17Z</time>
      </trkpt>
      <trkpt lat="43.52063" lon="6.31172">
        <ele>324.9</ele>
        <time>2023-09-15T13:29:18Z</time>
      </trkpt>
      <trkpt lat="43.52062" lon="6.31172">
        <ele>324.9</ele>
        <time>2023-09-15T13:29:19Z</time>
      </trkpt>
      <trkpt lat="43.52062" lon="6.31172">
        <ele>324.9</ele>
        <time>2023-09-15T13:29:20Z</time>
      </trkpt>
      <trkpt lat="43.52062" lon="6.31172">
        <ele>324.9</ele>
        <time>2023-09-15T13:29:21Z</time>
      </trkpt>
      <trkpt lat="43.52062" lon="6.31172">
        <ele>324.8</ele>
        <time>2023-09-15T13:29:22Z</time>
      </trkpt>
      <trkpt lat="43.52062" lon="6.31171">
        <ele>324.8</ele>
        <time>2023-09-15T13:29:23Z</time>
      </trkpt>
      <trkpt lat="43.52062" lon="6.31171">
        <ele>324.8</ele>
        <time>2023-09-15T13:29:24Z</time>
      </trkpt>
      <trkpt lat="43.52062" lon="6.31172">
        <ele>324.8</ele>
        <time>2023-09-15T13:29:25Z</time>
      </trkpt>
      <trkpt lat="43.52062" lon="6.31172">
        <ele>324.8</ele>
        <time>2023-09-15T13:29:26Z</time>
      </trkpt>
      <trkpt lat="43.52062" lon="6.31172">
        <ele>324.9</ele>
        <time>2023-09-15T13:29:27Z</time>
      </trkpt>
      <trkpt lat="43.52062" lon="6.31172">
        <ele>324.9</ele>
        <time>2023-09-15T13:29:28Z</time>
      </trkpt>
      <trkpt lat="43.52062" lon="6.31172">
        <ele>324.9</ele>
        <time>2023-09-15T13:29:29Z</time>
      </trkpt>
      <trkpt lat="43.52062" lon="6.31172">
        <ele>324.9</ele>
        <time>2023-09-15T13:29:30Z</time>
      </trkpt>
      <trkpt lat="43.52061" lon="6.31172">
        <ele>324.9</ele>
        <time>2023-09-15T13:29:31Z</time>
      </trkpt>
      <trkpt lat="43.52061" lon="6.31172">
        <ele>324.9</ele>
        <time>2023-09-15T13:29:32Z</time>
      </trkpt>
      <trkpt lat="43.52061" lon="6.31173">
        <ele>324.9</ele>
        <time>2023-09-15T13:29:33Z</time>
      </trkpt>
      <trkpt lat="43.52061" lon="6.31173">
        <ele>324.9</ele>
        <time>2023-09-15T13:29:34Z</time>
      </trkpt>
      <trkpt lat="43.52061" lon="6.31173">
        <ele>324.9</ele>
        <time>2023-09-15T13:29:35Z</time>
      </trkpt>
      <trkpt lat="43.52061" lon="6.31173">
        <ele>324.8</ele>
        <time>2023-09-15T13:29:36Z</time>
      </trkpt>
      <trkpt lat="43.52061" lon="6.31173">
        <ele>324.7</ele>
        <time>2023-09-15T13:29:37Z</time>
      </trkpt>
      <trkpt lat="43.52062" lon="6.31173">
        <ele>324.6</ele>
        <time>2023-09-15T13:29:38Z</time>
      </trkpt>
      <trkpt lat="43.52062" lon="6.31173">
        <ele>324.6</ele>
        <time>2023-09-15T13:29:39Z</time>
      </trkpt>
      <trkpt lat="43.52062" lon="6.31173">
        <ele>324.6</ele>
        <time>2023-09-15T13:29:40Z</time>
      </trkpt>
      <trkpt lat="43.52062" lon="6.31173">
        <ele>324.5</ele>
        <time>2023-09-15T13:29:41Z</time>
      </trkpt>
      <trkpt lat="43.52062" lon="6.31173">
        <ele>324.5</ele>
        <time>2023-09-15T13:29:42Z</time>
      </trkpt>
      <trkpt lat="43.52062" lon="6.31173">
        <ele>324.4</ele>
        <time>2023-09-15T13:29:43Z</time>
      </trkpt>
      <trkpt lat="43.52061" lon="6.31174">
        <ele>324.4</ele>
        <time>2023-09-15T13:29:44Z</time>
      </trkpt>
      <trkpt lat="43.52061" lon="6.31174">
        <ele>324.5</ele>
        <time>2023-09-15T13:29:45Z</time>
      </trkpt>
      <trkpt lat="43.52061" lon="6.31174">
        <ele>324.5</ele>
        <time>2023-09-15T13:29:46Z</time>
      </trkpt>
      <trkpt lat="43.52061" lon="6.31174">
        <ele>324.6</ele>
        <time>2023-09-15T13:29:47Z</time>
      </trkpt>
      <trkpt lat="43.52061" lon="6.31174">
        <ele>324.5</ele>
        <time>2023-09-15T13:29:48Z</time>
      </trkpt>
      <trkpt lat="43.52061" lon="6.31174">
        <ele>324.5</ele>
        <time>2023-09-15T13:29:49Z</time>
      </trkpt>
      <trkpt lat="43.52061" lon="6.31174">
        <ele>324.4</ele>
        <time>2023-09-15T13:29:50Z</time>
      </trkpt>
      <trkpt lat="43.52061" lon="6.31174">
        <ele>324.4</ele>
        <time>2023-09-15T13:29:51Z</time>
      </trkpt>
      <trkpt lat="43.52061" lon="6.31174">
        <ele>324.3</ele>
        <time>2023-09-15T13:29:52Z</time>
      </trkpt>
      <trkpt lat="43.52061" lon="6.31174">
        <ele>324.3</ele>
        <time>2023-09-15T13:29:53Z</time>
      </trkpt>
      <trkpt lat="43.52061" lon="6.31174">
        <ele>324.2</ele>
        <time>2023-09-15T13:29:54Z</time>
      </trkpt>
      <trkpt lat="43.52061" lon="6.31174">
        <ele>324.2</ele>
        <time>2023-09-15T13:29:55Z</time>
      </trkpt>
      <trkpt lat="43.52061" lon="6.31174">
        <ele>324.3</ele>
        <time>2023-09-15T13:29:56Z</time>
      </trkpt>
      <trkpt lat="43.52061" lon="6.31174">
        <ele>324.2</ele>
        <time>2023-09-15T13:29:57Z</time>
      </trkpt>
      <trkpt lat="43.52061" lon="6.31174">
        <ele>324.1</ele>
        <time>2023-09-15T13:29:58Z</time>
      </trkpt>
      <trkpt lat="43.52061" lon="6.31174">
        <ele>324.1</ele>
        <time>2023-09-15T13:29:59Z</time>
      </trkpt>
      <trkpt lat="43.52061" lon="6.31174">
        <ele>324</ele>
        <time>2023-09-15T13:30:00Z</time>
      </trkpt>
      <trkpt lat="43.52061" lon="6.31175">
        <ele>324</ele>
        <time>2023-09-15T13:30:01Z</time>
      </trkpt>
      <trkpt lat="43.52061" lon="6.31175">
        <ele>323.9</ele>
        <time>2023-09-15T13:30:02Z</time>
      </trkpt>
      <trkpt lat="43.52061" lon="6.31175">
        <ele>323.8</ele>
        <time>2023-09-15T13:30:03Z</time>
      </trkpt>
      <trkpt lat="43.52061" lon="6.31175">
        <ele>323.8</ele>
        <time>2023-09-15T13:30:04Z</time>
      </trkpt>
      <trkpt lat="43.52061" lon="6.31174">
        <ele>323.7</ele>
        <time>2023-09-15T13:30:05Z</time>
      </trkpt>
      <trkpt lat="43.52061" lon="6.31174">
        <ele>323.7</ele>
        <time>2023-09-15T13:30:06Z</time>
      </trkpt>
      <trkpt lat="43.52061" lon="6.31174">
        <ele>323.7</ele>
        <time>2023-09-15T13:30:07Z</time>
      </trkpt>
      <trkpt lat="43.52061" lon="6.31174">
        <ele>323.7</ele>
        <time>2023-09-15T13:30:08Z</time>
      </trkpt>
      <trkpt lat="43.52061" lon="6.31175">
        <ele>323.7</ele>
        <time>2023-09-15T13:30:09Z</time>
      </trkpt>
      <trkpt lat="43.5206" lon="6.31175">
        <ele>323.8</ele>
        <time>2023-09-15T13:30:10Z</time>
      </trkpt>
      <trkpt lat="43.52061" lon="6.31175">
        <ele>323.8</ele>
        <time>2023-09-15T13:30:11Z</time>
      </trkpt>
      <trkpt lat="43.5206" lon="6.31175">
        <ele>323.8</ele>
        <time>2023-09-15T13:30:12Z</time>
      </trkpt>
      <trkpt lat="43.5206" lon="6.31175">
        <ele>323.9</ele>
        <time>2023-09-15T13:30:13Z</time>
      </trkpt>
      <trkpt lat="43.5206" lon="6.31175">
        <ele>324</ele>
        <time>2023-09-15T13:30:14Z</time>
      </trkpt>
      <trkpt lat="43.5206" lon="6.31176">
        <ele>324.1</ele>
        <time>2023-09-15T13:30:15Z</time>
      </trkpt>
      <trkpt lat="43.5206" lon="6.31176">
        <ele>324.2</ele>
        <time>2023-09-15T13:30:16Z</time>
      </trkpt>
      <trkpt lat="43.5206" lon="6.31176">
        <ele>324.2</ele>
        <time>2023-09-15T13:30:17Z</time>
      </trkpt>
      <trkpt lat="43.5206" lon="6.31176">
        <ele>324.3</ele>
        <time>2023-09-15T13:30:18Z</time>
      </trkpt>
      <trkpt lat="43.5206" lon="6.31176">
        <ele>324.3</ele>
        <time>2023-09-15T13:30:19Z</time>
      </trkpt>
      <trkpt lat="43.5206" lon="6.31177">
        <ele>324.3</ele>
        <time>2023-09-15T13:30:20Z</time>
      </trkpt>
      <trkpt lat="43.52059" lon="6.31178">
        <ele>324.2</ele>
        <time>2023-09-15T13:30:21Z</time>
      </trkpt>
      <trkpt lat="43.52059" lon="6.31178">
        <ele>324.2</ele>
        <time>2023-09-15T13:30:22Z</time>
      </trkpt>
      <trkpt lat="43.52059" lon="6.31178">
        <ele>324.1</ele>
        <time>2023-09-15T13:30:23Z</time>
      </trkpt>
      <trkpt lat="43.52059" lon="6.31179">
        <ele>324.1</ele>
        <time>2023-09-15T13:30:24Z</time>
      </trkpt>
      <trkpt lat="43.52058" lon="6.31179">
        <ele>324.1</ele>
        <time>2023-09-15T13:30:25Z</time>
      </trkpt>
      <trkpt lat="43.52058" lon="6.3118">
        <ele>324.1</ele>
        <time>2023-09-15T13:30:26Z</time>
      </trkpt>
      <trkpt lat="43.52058" lon="6.3118">
        <ele>324</ele>
        <time>2023-09-15T13:30:27Z</time>
      </trkpt>
      <trkpt lat="43.52058" lon="6.3118">
        <ele>323.9</ele>
        <time>2023-09-15T13:30:28Z</time>
      </trkpt>
      <trkpt lat="43.52058" lon="6.31181">
        <ele>323.9</ele>
        <time>2023-09-15T13:30:29Z</time>
      </trkpt>
      <trkpt lat="43.52058" lon="6.31181">
        <ele>324</ele>
        <time>2023-09-15T13:30:30Z</time>
      </trkpt>
      <trkpt lat="43.52058" lon="6.31181">
        <ele>324.1</ele>
        <time>2023-09-15T13:30:31Z</time>
      </trkpt>
      <trkpt lat="43.52058" lon="6.31181">
        <ele>324</ele>
        <time>2023-09-15T13:30:32Z</time>
      </trkpt>
      <trkpt lat="43.52058" lon="6.31181">
        <ele>324</ele>
        <time>2023-09-15T13:30:33Z</time>
      </trkpt>
      <trkpt lat="43.52058" lon="6.31181">
        <ele>324</ele>
        <time>2023-09-15T13:30:34Z</time>
      </trkpt>
      <trkpt lat="43.52058" lon="6.31181">
        <ele>324</ele>
        <time>2023-09-15T13:30:35Z</time>
      </trkpt>
      <trkpt lat="43.52058" lon="6.31181">
        <ele>324</ele>
        <time>2023-09-15T13:30:36Z</time>
      </trkpt>
      <trkpt lat="43.52058" lon="6.3118">
        <ele>324</ele>
        <time>2023-09-15T13:30:37Z</time>
      </trkpt>
      <trkpt lat="43.52058" lon="6.3118">
        <ele>324.1</ele>
        <time>2023-09-15T13:30:38Z</time>
      </trkpt>
      <trkpt lat="43.52058" lon="6.3118">
        <ele>324</ele>
        <time>2023-09-15T13:30:39Z</time>
      </trkpt>
      <trkpt lat="43.52058" lon="6.3118">
        <ele>324</ele>
        <time>2023-09-15T13:30:40Z</time>
      </trkpt>
      <trkpt lat="43.52058" lon="6.3118">
        <ele>323.9</ele>
        <time>2023-09-15T13:30:41Z</time>
      </trkpt>
      <trkpt lat="43.52059" lon="6.3118">
        <ele>323.9</ele>
        <time>2023-09-15T13:30:42Z</time>
      </trkpt>
      <trkpt lat="43.52059" lon="6.3118">
        <ele>323.9</ele>
        <time>2023-09-15T13:30:43Z</time>
      </trkpt>
      <trkpt lat="43.52059" lon="6.3118">
        <ele>323.9</ele>
        <time>2023-09-15T13:30:44Z</time>
      </trkpt>
      <trkpt lat="43.52059" lon="6.3118">
        <ele>323.8</ele>
        <time>2023-09-15T13:30:45Z</time>
      </trkpt>
      <trkpt lat="43.52059" lon="6.3118">
        <ele>323.9</ele>
        <time>2023-09-15T13:30:46Z</time>
      </trkpt>
      <trkpt lat="43.5206" lon="6.3118">
        <ele>323.9</ele>
        <time>2023-09-15T13:30:47Z</time>
      </trkpt>
      <trkpt lat="43.5206" lon="6.3118">
        <ele>323.9</ele>
        <time>2023-09-15T13:30:48Z</time>
      </trkpt>
      <trkpt lat="43.52059" lon="6.3118">
        <ele>324</ele>
        <time>2023-09-15T13:30:49Z</time>
      </trkpt>
      <trkpt lat="43.52059" lon="6.3118">
        <ele>324</ele>
        <time>2023-09-15T13:30:50Z</time>
      </trkpt>
      <trkpt lat="43.52059" lon="6.3118">
        <ele>324</ele>
        <time>2023-09-15T13:30:51Z</time>
      </trkpt>
      <trkpt lat="43.52059" lon="6.3118">
        <ele>324.1</ele>
        <time>2023-09-15T13:30:52Z</time>
      </trkpt>
      <trkpt lat="43.52059" lon="6.3118">
        <ele>324.1</ele>
        <time>2023-09-15T13:30:53Z</time>
      </trkpt>
      <trkpt lat="43.5206" lon="6.31179">
        <ele>324.1</ele>
        <time>2023-09-15T13:30:54Z</time>
      </trkpt>
      <trkpt lat="43.52059" lon="6.31179">
        <ele>324.2</ele>
        <time>2023-09-15T13:30:55Z</time>
      </trkpt>
      <trkpt lat="43.52059" lon="6.31179">
        <ele>324.3</ele>
        <time>2023-09-15T13:30:56Z</time>
      </trkpt>
      <trkpt lat="43.52059" lon="6.31179">
        <ele>324.3</ele>
        <time>2023-09-15T13:30:57Z</time>
      </trkpt>
      <trkpt lat="43.52059" lon="6.31179">
        <ele>324.4</ele>
        <time>2023-09-15T13:30:58Z</time>
      </trkpt>
      <trkpt lat="43.52059" lon="6.31179">
        <ele>324.4</ele>
        <time>2023-09-15T13:30:59Z</time>
      </trkpt>
      <trkpt lat="43.52059" lon="6.31179">
        <ele>324.4</ele>
        <time>2023-09-15T13:31:00Z</time>
      </trkpt>
      <trkpt lat="43.52059" lon="6.31179">
        <ele>324.5</ele>
        <time>2023-09-15T13:31:01Z</time>
      </trkpt>
      <trkpt lat="43.52059" lon="6.31179">
        <ele>324.5</ele>
        <time>2023-09-15T13:31:02Z</time>
      </trkpt>
      <trkpt lat="43.52059" lon="6.31179">
        <ele>324.6</ele>
        <time>2023-09-15T13:31:03Z</time>
      </trkpt>
      <trkpt lat="43.52059" lon="6.31179">
        <ele>324.6</ele>
        <time>2023-09-15T13:31:04Z</time>
      </trkpt>
      <trkpt lat="43.52059" lon="6.31178">
        <ele>324.6</ele>
        <time>2023-09-15T13:31:05Z</time>
      </trkpt>
      <trkpt lat="43.52059" lon="6.31178">
        <ele>324.6</ele>
        <time>2023-09-15T13:31:06Z</time>
      </trkpt>
      <trkpt lat="43.52059" lon="6.31178">
        <ele>324.5</ele>
        <time>2023-09-15T13:31:07Z</time>
      </trkpt>
      <trkpt lat="43.52059" lon="6.31178">
        <ele>324.5</ele>
        <time>2023-09-15T13:31:08Z</time>
      </trkpt>
      <trkpt lat="43.52059" lon="6.31178">
        <ele>324.5</ele>
        <time>2023-09-15T13:31:09Z</time>
      </trkpt>
      <trkpt lat="43.52059" lon="6.31178">
        <ele>324.5</ele>
        <time>2023-09-15T13:31:10Z</time>
      </trkpt>
      <trkpt lat="43.52059" lon="6.31178">
        <ele>324.5</ele>
        <time>2023-09-15T13:31:11Z</time>
      </trkpt>
      <trkpt lat="43.52059" lon="6.31178">
        <ele>324.6</ele>
        <time>2023-09-15T13:31:12Z</time>
      </trkpt>
      <trkpt lat="43.52059" lon="6.31178">
        <ele>324.6</ele>
        <time>2023-09-15T13:31:13Z</time>
      </trkpt>
      <trkpt lat="43.52059" lon="6.31178">
        <ele>324.6</ele>
        <time>2023-09-15T13:31:14Z</time>
      </trkpt>
      <trkpt lat="43.52059" lon="6.31179">
        <ele>324.6</ele>
        <time>2023-09-15T13:31:15Z</time>
      </trkpt>
      <trkpt lat="43.52059" lon="6.31179">
        <ele>324.6</ele>
        <time>2023-09-15T13:31:16Z</time>
      </trkpt>
      <trkpt lat="43.52059" lon="6.31179">
        <ele>324.5</ele>
        <time>2023-09-15T13:31:17Z</time>
      </trkpt>
      <trkpt lat="43.52059" lon="6.3118">
        <ele>324.4</ele>
        <time>2023-09-15T13:31:18Z</time>
      </trkpt>
      <trkpt lat="43.52059" lon="6.3118">
        <ele>324.4</ele>
        <time>2023-09-15T13:31:19Z</time>
      </trkpt>
      <trkpt lat="43.52059" lon="6.3118">
        <ele>324.3</ele>
        <time>2023-09-15T13:31:20Z</time>
      </trkpt>
      <trkpt lat="43.52059" lon="6.3118">
        <ele>324.3</ele>
        <time>2023-09-15T13:31:21Z</time>
      </trkpt>
      <trkpt lat="43.52059" lon="6.3118">
        <ele>324.3</ele>
        <time>2023-09-15T13:31:22Z</time>
      </trkpt>
      <trkpt lat="43.52059" lon="6.3118">
        <ele>324.3</ele>
        <time>2023-09-15T13:31:23Z</time>
      </trkpt>
      <trkpt lat="43.52059" lon="6.31181">
        <ele>324.3</ele>
        <time>2023-09-15T13:31:24Z</time>
      </trkpt>
      <trkpt lat="43.52059" lon="6.31181">
        <ele>324.4</ele>
        <time>2023-09-15T13:31:25Z</time>
      </trkpt>
      <trkpt lat="43.52059" lon="6.31181">
        <ele>324.4</ele>
        <time>2023-09-15T13:31:26Z</time>
      </trkpt>
      <trkpt lat="43.52058" lon="6.31181">
        <ele>324.4</ele>
        <time>2023-09-15T13:31:27Z</time>
      </trkpt>
      <trkpt lat="43.52059" lon="6.31181">
        <ele>324.4</ele>
        <time>2023-09-15T13:31:28Z</time>
      </trkpt>
      <trkpt lat="43.52058" lon="6.31181">
        <ele>324.4</ele>
        <time>2023-09-15T13:31:29Z</time>
      </trkpt>
      <trkpt lat="43.52058" lon="6.31181">
        <ele>324.4</ele>
        <time>2023-09-15T13:31:30Z</time>
      </trkpt>
      <trkpt lat="43.52058" lon="6.31182">
        <ele>324.3</ele>
        <time>2023-09-15T13:31:31Z</time>
      </trkpt>
      <trkpt lat="43.52058" lon="6.31182">
        <ele>324.3</ele>
        <time>2023-09-15T13:31:32Z</time>
      </trkpt>
      <trkpt lat="43.52057" lon="6.31183">
        <ele>324.3</ele>
        <time>2023-09-15T13:31:33Z</time>
      </trkpt>
      <trkpt lat="43.52057" lon="6.31183">
        <ele>324.3</ele>
        <time>2023-09-15T13:31:34Z</time>
      </trkpt>
      <trkpt lat="43.52057" lon="6.31184">
        <ele>324.3</ele>
        <time>2023-09-15T13:31:35Z</time>
      </trkpt>
      <trkpt lat="43.52057" lon="6.31184">
        <ele>324.4</ele>
        <time>2023-09-15T13:31:36Z</time>
      </trkpt>
      <trkpt lat="43.52057" lon="6.31185">
        <ele>324.4</ele>
        <time>2023-09-15T13:31:37Z</time>
      </trkpt>
      <trkpt lat="43.52057" lon="6.31185">
        <ele>324.4</ele>
        <time>2023-09-15T13:31:38Z</time>
      </trkpt>
      <trkpt lat="43.52057" lon="6.31185">
        <ele>324.4</ele>
        <time>2023-09-15T13:31:39Z</time>
      </trkpt>
      <trkpt lat="43.52056" lon="6.31185">
        <ele>324.5</ele>
        <time>2023-09-15T13:31:40Z</time>
      </trkpt>
      <trkpt lat="43.52057" lon="6.31185">
        <ele>324.4</ele>
        <time>2023-09-15T13:31:41Z</time>
      </trkpt>
      <trkpt lat="43.52056" lon="6.31185">
        <ele>324.4</ele>
        <time>2023-09-15T13:31:42Z</time>
      </trkpt>
      <trkpt lat="43.52056" lon="6.31185">
        <ele>324.4</ele>
        <time>2023-09-15T13:31:43Z</time>
      </trkpt>
      <trkpt lat="43.52056" lon="6.31185">
        <ele>324.3</ele>
        <time>2023-09-15T13:31:44Z</time>
      </trkpt>
      <trkpt lat="43.52055" lon="6.31186">
        <ele>324.3</ele>
        <time>2023-09-15T13:31:45Z</time>
      </trkpt>
      <trkpt lat="43.52055" lon="6.31187">
        <ele>324.3</ele>
        <time>2023-09-15T13:31:46Z</time>
      </trkpt>
      <trkpt lat="43.52054" lon="6.31188">
        <ele>324.3</ele>
        <time>2023-09-15T13:31:47Z</time>
      </trkpt>
      <trkpt lat="43.52054" lon="6.31188">
        <ele>324.3</ele>
        <time>2023-09-15T13:31:48Z</time>
      </trkpt>
      <trkpt lat="43.52053" lon="6.31189">
        <ele>324.4</ele>
        <time>2023-09-15T13:31:49Z</time>
      </trkpt>
      <trkpt lat="43.52053" lon="6.31189">
        <ele>324.5</ele>
        <time>2023-09-15T13:31:50Z</time>
      </trkpt>
      <trkpt lat="43.52053" lon="6.31189">
        <ele>324.5</ele>
        <time>2023-09-15T13:31:51Z</time>
      </trkpt>
      <trkpt lat="43.52053" lon="6.31189">
        <ele>324.5</ele>
        <time>2023-09-15T13:31:52Z</time>
      </trkpt>
      <trkpt lat="43.52053" lon="6.31189">
        <ele>324.5</ele>
        <time>2023-09-15T13:31:53Z</time>
      </trkpt>
      <trkpt lat="43.52053" lon="6.31189">
        <ele>324.6</ele>
        <time>2023-09-15T13:31:54Z</time>
      </trkpt>
      <trkpt lat="43.52053" lon="6.3119">
        <ele>324.7</ele>
        <time>2023-09-15T13:31:55Z</time>
      </trkpt>
      <trkpt lat="43.52053" lon="6.3119">
        <ele>324.8</ele>
        <time>2023-09-15T13:31:56Z</time>
      </trkpt>
      <trkpt lat="43.52052" lon="6.31191">
        <ele>324.9</ele>
        <time>2023-09-15T13:31:57Z</time>
      </trkpt>
      <trkpt lat="43.52052" lon="6.31191">
        <ele>324.8</ele>
        <time>2023-09-15T13:31:58Z</time>
      </trkpt>
      <trkpt lat="43.52051" lon="6.31192">
        <ele>324.8</ele>
        <time>2023-09-15T13:31:59Z</time>
      </trkpt>
      <trkpt lat="43.52051" lon="6.31192">
        <ele>324.7</ele>
        <time>2023-09-15T13:32:00Z</time>
      </trkpt>
      <trkpt lat="43.52051" lon="6.31192">
        <ele>324.7</ele>
        <time>2023-09-15T13:32:01Z</time>
      </trkpt>
      <trkpt lat="43.52051" lon="6.31192">
        <ele>324.7</ele>
        <time>2023-09-15T13:32:02Z</time>
      </trkpt>
      <trkpt lat="43.52051" lon="6.31192">
        <ele>324.8</ele>
        <time>2023-09-15T13:32:03Z</time>
      </trkpt>
      <trkpt lat="43.52051" lon="6.31192">
        <ele>324.8</ele>
        <time>2023-09-15T13:32:04Z</time>
      </trkpt>
      <trkpt lat="43.52052" lon="6.31192">
        <ele>324.9</ele>
        <time>2023-09-15T13:32:05Z</time>
      </trkpt>
      <trkpt lat="43.52052" lon="6.31191">
        <ele>324.9</ele>
        <time>2023-09-15T13:32:06Z</time>
      </trkpt>
      <trkpt lat="43.52052" lon="6.31191">
        <ele>324.9</ele>
        <time>2023-09-15T13:32:07Z</time>
      </trkpt>
      <trkpt lat="43.52053" lon="6.3119">
        <ele>324.8</ele>
        <time>2023-09-15T13:32:08Z</time>
      </trkpt>
      <trkpt lat="43.52053" lon="6.3119">
        <ele>324.8</ele>
        <time>2023-09-15T13:32:09Z</time>
      </trkpt>
      <trkpt lat="43.52053" lon="6.3119">
        <ele>324.7</ele>
        <time>2023-09-15T13:32:10Z</time>
      </trkpt>
      <trkpt lat="43.52053" lon="6.3119">
        <ele>324.6</ele>
        <time>2023-09-15T13:32:11Z</time>
      </trkpt>
      <trkpt lat="43.52053" lon="6.3119">
        <ele>324.6</ele>
        <time>2023-09-15T13:32:12Z</time>
      </trkpt>
      <trkpt lat="43.52053" lon="6.3119">
        <ele>324.7</ele>
        <time>2023-09-15T13:32:13Z</time>
      </trkpt>
      <trkpt lat="43.52053" lon="6.31189">
        <ele>324.7</ele>
        <time>2023-09-15T13:32:14Z</time>
      </trkpt>
      <trkpt lat="43.52054" lon="6.31188">
        <ele>324.7</ele>
        <time>2023-09-15T13:32:15Z</time>
      </trkpt>
      <trkpt lat="43.52055" lon="6.31187">
        <ele>324.7</ele>
        <time>2023-09-15T13:32:16Z</time>
      </trkpt>
      <trkpt lat="43.52055" lon="6.31186">
        <ele>324.7</ele>
        <time>2023-09-15T13:32:17Z</time>
      </trkpt>
      <trkpt lat="43.52055" lon="6.31186">
        <ele>324.7</ele>
        <time>2023-09-15T13:32:18Z</time>
      </trkpt>
      <trkpt lat="43.52056" lon="6.31186">
        <ele>324.7</ele>
        <time>2023-09-15T13:32:19Z</time>
      </trkpt>
      <trkpt lat="43.52056" lon="6.31185">
        <ele>324.7</ele>
        <time>2023-09-15T13:32:20Z</time>
      </trkpt>
      <trkpt lat="43.52055" lon="6.31185">
        <ele>324.6</ele>
        <time>2023-09-15T13:32:21Z</time>
      </trkpt>
      <trkpt lat="43.52056" lon="6.31185">
        <ele>324.6</ele>
        <time>2023-09-15T13:32:22Z</time>
      </trkpt>
      <trkpt lat="43.52056" lon="6.31185">
        <ele>324.5</ele>
        <time>2023-09-15T13:32:23Z</time>
      </trkpt>
      <trkpt lat="43.52056" lon="6.31185">
        <ele>324.5</ele>
        <time>2023-09-15T13:32:24Z</time>
      </trkpt>
      <trkpt lat="43.52057" lon="6.31185">
        <ele>324.5</ele>
        <time>2023-09-15T13:32:25Z</time>
      </trkpt>
      <trkpt lat="43.52057" lon="6.31185">
        <ele>324.5</ele>
        <time>2023-09-15T13:32:26Z</time>
      </trkpt>
      <trkpt lat="43.52057" lon="6.31185">
        <ele>324.4</ele>
        <time>2023-09-15T13:32:27Z</time>
      </trkpt>
      <trkpt lat="43.52057" lon="6.31185">
        <ele>324.4</ele>
        <time>2023-09-15T13:32:28Z</time>
      </trkpt>
      <trkpt lat="43.52057" lon="6.31185">
        <ele>324.5</ele>
        <time>2023-09-15T13:32:29Z</time>
      </trkpt>
      <trkpt lat="43.52057" lon="6.31185">
        <ele>324.5</ele>
        <time>2023-09-15T13:32:30Z</time>
      </trkpt>
      <trkpt lat="43.52057" lon="6.31184">
        <ele>324.5</ele>
        <time>2023-09-15T13:32:31Z</time>
      </trkpt>
      <trkpt lat="43.52057" lon="6.31184">
        <ele>324.4</ele>
        <time>2023-09-15T13:32:32Z</time>
      </trkpt>
      <trkpt lat="43.52057" lon="6.31185">
        <ele>324.4</ele>
        <time>2023-09-15T13:32:33Z</time>
      </trkpt>
      <trkpt lat="43.52057" lon="6.31185">
        <ele>324.5</ele>
        <time>2023-09-15T13:32:34Z</time>
      </trkpt>
      <trkpt lat="43.52057" lon="6.31185">
        <ele>324.4</ele>
        <time>2023-09-15T13:32:35Z</time>
      </trkpt>
      <trkpt lat="43.52057" lon="6.31184">
        <ele>324.5</ele>
        <time>2023-09-15T13:32:36Z</time>
      </trkpt>
      <trkpt lat="43.52057" lon="6.31184">
        <ele>324.6</ele>
        <time>2023-09-15T13:32:37Z</time>
      </trkpt>
      <trkpt lat="43.52057" lon="6.31184">
        <ele>324.7</ele>
        <time>2023-09-15T13:32:38Z</time>
      </trkpt>
      <trkpt lat="43.52057" lon="6.31184">
        <ele>324.8</ele>
        <time>2023-09-15T13:32:39Z</time>
      </trkpt>
      <trkpt lat="43.52057" lon="6.31184">
        <ele>324.8</ele>
        <time>2023-09-15T13:32:40Z</time>
      </trkpt>
      <trkpt lat="43.52057" lon="6.31184">
        <ele>324.8</ele>
        <time>2023-09-15T13:32:41Z</time>
      </trkpt>
      <trkpt lat="43.52057" lon="6.31184">
        <ele>324.8</ele>
        <time>2023-09-15T13:32:42Z</time>
      </trkpt>
      <trkpt lat="43.52058" lon="6.31183">
        <ele>324.9</ele>
        <time>2023-09-15T13:32:43Z</time>
      </trkpt>
      <trkpt lat="43.52058" lon="6.31183">
        <ele>324.8</ele>
        <time>2023-09-15T13:32:44Z</time>
      </trkpt>
      <trkpt lat="43.52058" lon="6.31183">
        <ele>324.8</ele>
        <time>2023-09-15T13:32:45Z</time>
      </trkpt>
      <trkpt lat="43.52058" lon="6.31183">
        <ele>324.7</ele>
        <time>2023-09-15T13:32:46Z</time>
      </trkpt>
      <trkpt lat="43.52058" lon="6.31183">
        <ele>324.7</ele>
        <time>2023-09-15T13:32:47Z</time>
      </trkpt>
      <trkpt lat="43.52059" lon="6.31183">
        <ele>324.7</ele>
        <time>2023-09-15T13:32:48Z</time>
      </trkpt>
      <trkpt lat="43.52059" lon="6.31182">
        <ele>324.8</ele>
        <time>2023-09-15T13:32:49Z</time>
      </trkpt>
      <trkpt lat="43.52059" lon="6.31182">
        <ele>324.8</ele>
        <time>2023-09-15T13:32:50Z</time>
      </trkpt>
      <trkpt lat="43.52059" lon="6.31181">
        <ele>324.8</ele>
        <time>2023-09-15T13:32:51Z</time>
      </trkpt>
      <trkpt lat="43.5206" lon="6.31181">
        <ele>324.7</ele>
        <time>2023-09-15T13:32:52Z</time>
      </trkpt>
      <trkpt lat="43.5206" lon="6.31181">
        <ele>324.7</ele>
        <time>2023-09-15T13:32:53Z</time>
      </trkpt>
      <trkpt lat="43.5206" lon="6.3118">
        <ele>324.7</ele>
        <time>2023-09-15T13:32:54Z</time>
      </trkpt>
      <trkpt lat="43.5206" lon="6.3118">
        <ele>324.7</ele>
        <time>2023-09-15T13:32:55Z</time>
      </trkpt>
      <trkpt lat="43.52061" lon="6.3118">
        <ele>324.8</ele>
        <time>2023-09-15T13:32:56Z</time>
      </trkpt>
      <trkpt lat="43.52061" lon="6.31179">
        <ele>324.7</ele>
        <time>2023-09-15T13:32:57Z</time>
      </trkpt>
      <trkpt lat="43.5206" lon="6.31179">
        <ele>324.7</ele>
        <time>2023-09-15T13:32:58Z</time>
      </trkpt>
      <trkpt lat="43.52061" lon="6.31179">
        <ele>324.7</ele>
        <time>2023-09-15T13:32:59Z</time>
      </trkpt>
      <trkpt lat="43.5206" lon="6.31179">
        <ele>324.5</ele>
        <time>2023-09-15T13:33:00Z</time>
      </trkpt>
      <trkpt lat="43.5206" lon="6.31179">
        <ele>324.5</ele>
        <time>2023-09-15T13:33:01Z</time>
      </trkpt>
      <trkpt lat="43.5206" lon="6.31179">
        <ele>324.5</ele>
        <time>2023-09-15T13:33:02Z</time>
      </trkpt>
      <trkpt lat="43.52061" lon="6.31179">
        <ele>324.5</ele>
        <time>2023-09-15T13:33:03Z</time>
      </trkpt>
      <trkpt lat="43.52061" lon="6.31179">
        <ele>324.4</ele>
        <time>2023-09-15T13:33:04Z</time>
      </trkpt>
      <trkpt lat="43.52061" lon="6.31179">
        <ele>324.4</ele>
        <time>2023-09-15T13:33:05Z</time>
      </trkpt>
      <trkpt lat="43.52061" lon="6.31179">
        <ele>324.4</ele>
        <time>2023-09-15T13:33:06Z</time>
      </trkpt>
      <trkpt lat="43.52061" lon="6.31178">
        <ele>324.5</ele>
        <time>2023-09-15T13:33:07Z</time>
      </trkpt>
      <trkpt lat="43.52061" lon="6.31178">
        <ele>324.4</ele>
        <time>2023-09-15T13:33:08Z</time>
      </trkpt>
      <trkpt lat="43.52061" lon="6.31178">
        <ele>324.5</ele>
        <time>2023-09-15T13:33:09Z</time>
      </trkpt>
      <trkpt lat="43.52062" lon="6.31178">
        <ele>324.6</ele>
        <time>2023-09-15T13:33:10Z</time>
      </trkpt>
      <trkpt lat="43.52062" lon="6.31178">
        <ele>324.7</ele>
        <time>2023-09-15T13:33:11Z</time>
      </trkpt>
      <trkpt lat="43.52062" lon="6.31178">
        <ele>324.6</ele>
        <time>2023-09-15T13:33:12Z</time>
      </trkpt>
      <trkpt lat="43.52062" lon="6.31177">
        <ele>324.7</ele>
        <time>2023-09-15T13:33:13Z</time>
      </trkpt>
      <trkpt lat="43.52062" lon="6.31177">
        <ele>324.7</ele>
        <time>2023-09-15T13:33:14Z</time>
      </trkpt>
      <trkpt lat="43.52062" lon="6.31177">
        <ele>324.7</ele>
        <time>2023-09-15T13:33:15Z</time>
      </trkpt>
      <trkpt lat="43.52062" lon="6.31177">
        <ele>324.7</ele>
        <time>2023-09-15T13:33:16Z</time>
      </trkpt>
      <trkpt lat="43.52062" lon="6.31177">
        <ele>324.8</ele>
        <time>2023-09-15T13:33:17Z</time>
      </trkpt>
      <trkpt lat="43.52062" lon="6.31177">
        <ele>324.8</ele>
        <time>2023-09-15T13:33:18Z</time>
      </trkpt>
      <trkpt lat="43.52062" lon="6.31177">
        <ele>324.8</ele>
        <time>2023-09-15T13:33:19Z</time>
      </trkpt>
      <trkpt lat="43.52062" lon="6.31177">
        <ele>324.8</ele>
        <time>2023-09-15T13:33:20Z</time>
      </trkpt>
      <trkpt lat="43.52062" lon="6.31177">
        <ele>324.9</ele>
        <time>2023-09-15T13:33:21Z</time>
      </trkpt>
      <trkpt lat="43.52062" lon="6.31177">
        <ele>324.9</ele>
        <time>2023-09-15T13:33:22Z</time>
      </trkpt>
      <trkpt lat="43.52062" lon="6.31177">
        <ele>324.9</ele>
        <time>2023-09-15T13:33:23Z</time>
      </trkpt>
      <trkpt lat="43.52062" lon="6.31177">
        <ele>325</ele>
        <time>2023-09-15T13:33:24Z</time>
      </trkpt>
      <trkpt lat="43.52062" lon="6.31178">
        <ele>325</ele>
        <time>2023-09-15T13:33:25Z</time>
      </trkpt>
      <trkpt lat="43.52062" lon="6.31178">
        <ele>325</ele>
        <time>2023-09-15T13:33:26Z</time>
      </trkpt>
      <trkpt lat="43.52062" lon="6.31178">
        <ele>325.1</ele>
        <time>2023-09-15T13:33:27Z</time>
      </trkpt>
      <trkpt lat="43.52062" lon="6.31178">
        <ele>325</ele>
        <time>2023-09-15T13:33:28Z</time>
      </trkpt>
      <trkpt lat="43.52062" lon="6.31178">
        <ele>324.9</ele>
        <time>2023-09-15T13:33:29Z</time>
      </trkpt>
      <trkpt lat="43.52062" lon="6.31179">
        <ele>324.9</ele>
        <time>2023-09-15T13:33:30Z</time>
      </trkpt>
      <trkpt lat="43.52062" lon="6.31179">
        <ele>324.9</ele>
        <time>2023-09-15T13:33:31Z</time>
      </trkpt>
      <trkpt lat="43.52061" lon="6.31179">
        <ele>324.9</ele>
        <time>2023-09-15T13:33:32Z</time>
      </trkpt>
      <trkpt lat="43.52061" lon="6.31179">
        <ele>325</ele>
        <time>2023-09-15T13:33:33Z</time>
      </trkpt>
      <trkpt lat="43.52061" lon="6.31179">
        <ele>325.1</ele>
        <time>2023-09-15T13:33:34Z</time>
      </trkpt>
      <trkpt lat="43.52061" lon="6.31179">
        <ele>325.1</ele>
        <time>2023-09-15T13:33:35Z</time>
      </trkpt>
      <trkpt lat="43.52061" lon="6.3118">
        <ele>325.2</ele>
        <time>2023-09-15T13:33:36Z</time>
      </trkpt>
      <trkpt lat="43.52061" lon="6.3118">
        <ele>325.2</ele>
        <time>2023-09-15T13:33:37Z</time>
      </trkpt>
      <trkpt lat="43.52061" lon="6.3118">
        <ele>325.2</ele>
        <time>2023-09-15T13:33:38Z</time>
      </trkpt>
      <trkpt lat="43.52061" lon="6.3118">
        <ele>325.2</ele>
        <time>2023-09-15T13:33:39Z</time>
      </trkpt>
      <trkpt lat="43.52061" lon="6.3118">
        <ele>325.2</ele>
        <time>2023-09-15T13:33:40Z</time>
      </trkpt>
      <trkpt lat="43.52061" lon="6.3118">
        <ele>325.2</ele>
        <time>2023-09-15T13:33:41Z</time>
      </trkpt>
      <trkpt lat="43.52061" lon="6.3118">
        <ele>325.2</ele>
        <time>2023-09-15T13:33:42Z</time>
      </trkpt>
      <trkpt lat="43.52061" lon="6.31181">
        <ele>325.2</ele>
        <time>2023-09-15T13:33:43Z</time>
      </trkpt>
      <trkpt lat="43.52061" lon="6.31181">
        <ele>325.2</ele>
        <time>2023-09-15T13:33:44Z</time>
      </trkpt>
      <trkpt lat="43.52061" lon="6.31182">
        <ele>325.2</ele>
        <time>2023-09-15T13:33:45Z</time>
      </trkpt>
      <trkpt lat="43.5206" lon="6.31182">
        <ele>325.1</ele>
        <time>2023-09-15T13:33:46Z</time>
      </trkpt>
      <trkpt lat="43.5206" lon="6.31183">
        <ele>325.1</ele>
        <time>2023-09-15T13:33:47Z</time>
      </trkpt>
      <trkpt lat="43.5206" lon="6.31184">
        <ele>325.1</ele>
        <time>2023-09-15T13:33:48Z</time>
      </trkpt>
      <trkpt lat="43.5206" lon="6.31184">
        <ele>325</ele>
        <time>2023-09-15T13:33:49Z</time>
      </trkpt>
      <trkpt lat="43.5206" lon="6.31185">
        <ele>324.9</ele>
        <time>2023-09-15T13:33:50Z</time>
      </trkpt>
      <trkpt lat="43.52059" lon="6.31185">
        <ele>324.9</ele>
        <time>2023-09-15T13:33:51Z</time>
      </trkpt>
      <trkpt lat="43.52059" lon="6.31186">
        <ele>324.7</ele>
        <time>2023-09-15T13:33:52Z</time>
      </trkpt>
      <trkpt lat="43.52059" lon="6.31186">
        <ele>324.7</ele>
        <time>2023-09-15T13:33:53Z</time>
      </trkpt>
      <trkpt lat="43.52058" lon="6.31187">
        <ele>324.6</ele>
        <time>2023-09-15T13:33:54Z</time>
      </trkpt>
      <trkpt lat="43.52058" lon="6.31187">
        <ele>324.6</ele>
        <time>2023-09-15T13:33:55Z</time>
      </trkpt>
      <trkpt lat="43.52058" lon="6.31188">
        <ele>324.6</ele>
        <time>2023-09-15T13:33:56Z</time>
      </trkpt>
      <trkpt lat="43.52058" lon="6.31189">
        <ele>324.6</ele>
        <time>2023-09-15T13:33:57Z</time>
      </trkpt>
      <trkpt lat="43.52058" lon="6.3119">
        <ele>324.6</ele>
        <time>2023-09-15T13:33:58Z</time>
      </trkpt>
      <trkpt lat="43.52057" lon="6.3119">
        <ele>324.4</ele>
        <time>2023-09-15T13:33:59Z</time>
      </trkpt>
      <trkpt lat="43.52057" lon="6.31191">
        <ele>324.5</ele>
        <time>2023-09-15T13:34:00Z</time>
      </trkpt>
      <trkpt lat="43.52056" lon="6.31191">
        <ele>324.6</ele>
        <time>2023-09-15T13:34:01Z</time>
      </trkpt>
      <trkpt lat="43.52055" lon="6.31191">
        <ele>324.7</ele>
        <time>2023-09-15T13:34:02Z</time>
      </trkpt>
      <trkpt lat="43.52056" lon="6.31192">
        <ele>324.8</ele>
        <time>2023-09-15T13:34:03Z</time>
      </trkpt>
      <trkpt lat="43.52055" lon="6.31193">
        <ele>324.9</ele>
        <time>2023-09-15T13:34:04Z</time>
      </trkpt>
      <trkpt lat="43.52054" lon="6.31193">
        <ele>324.9</ele>
        <time>2023-09-15T13:34:05Z</time>
      </trkpt>
      <trkpt lat="43.52053" lon="6.31194">
        <ele>324.9</ele>
        <time>2023-09-15T13:34:06Z</time>
      </trkpt>
      <trkpt lat="43.52053" lon="6.31193">
        <ele>324.9</ele>
        <time>2023-09-15T13:34:07Z</time>
      </trkpt>
      <trkpt lat="43.52052" lon="6.31194">
        <ele>324.8</ele>
        <time>2023-09-15T13:34:08Z</time>
      </trkpt>
      <trkpt lat="43.52051" lon="6.31194">
        <ele>324.8</ele>
        <time>2023-09-15T13:34:09Z</time>
      </trkpt>
      <trkpt lat="43.5205" lon="6.31194">
        <ele>324.7</ele>
        <time>2023-09-15T13:34:10Z</time>
      </trkpt>
      <trkpt lat="43.52049" lon="6.31195">
        <ele>324.7</ele>
        <time>2023-09-15T13:34:11Z</time>
      </trkpt>
      <trkpt lat="43.52049" lon="6.31195">
        <ele>324.6</ele>
        <time>2023-09-15T13:34:12Z</time>
      </trkpt>
      <trkpt lat="43.52049" lon="6.31195">
        <ele>324.5</ele>
        <time>2023-09-15T13:34:13Z</time>
      </trkpt>
      <trkpt lat="43.52047" lon="6.31196">
        <ele>324.4</ele>
        <time>2023-09-15T13:34:14Z</time>
      </trkpt>
      <trkpt lat="43.52046" lon="6.31196">
        <ele>324.3</ele>
        <time>2023-09-15T13:34:15Z</time>
      </trkpt>
      <trkpt lat="43.52046" lon="6.31197">
        <ele>324.3</ele>
        <time>2023-09-15T13:34:16Z</time>
      </trkpt>
      <trkpt lat="43.52045" lon="6.31198">
        <ele>324.3</ele>
        <time>2023-09-15T13:34:17Z</time>
      </trkpt>
      <trkpt lat="43.52045" lon="6.312">
        <ele>324.3</ele>
        <time>2023-09-15T13:34:18Z</time>
      </trkpt>
      <trkpt lat="43.52045" lon="6.31201">
        <ele>324.3</ele>
        <time>2023-09-15T13:34:19Z</time>
      </trkpt>
      <trkpt lat="43.52045" lon="6.31203">
        <ele>324.4</ele>
        <time>2023-09-15T13:34:20Z</time>
      </trkpt>
      <trkpt lat="43.52044" lon="6.31204">
        <ele>324.3</ele>
        <time>2023-09-15T13:34:21Z</time>
      </trkpt>
      <trkpt lat="43.52044" lon="6.31205">
        <ele>324.2</ele>
        <time>2023-09-15T13:34:22Z</time>
      </trkpt>
      <trkpt lat="43.52043" lon="6.31207">
        <ele>324.1</ele>
        <time>2023-09-15T13:34:23Z</time>
      </trkpt>
      <trkpt lat="43.52043" lon="6.31208">
        <ele>324</ele>
        <time>2023-09-15T13:34:24Z</time>
      </trkpt>
      <trkpt lat="43.52043" lon="6.31209">
        <ele>323.7</ele>
        <time>2023-09-15T13:34:25Z</time>
      </trkpt>
      <trkpt lat="43.52042" lon="6.3121">
        <ele>323.7</ele>
        <time>2023-09-15T13:34:26Z</time>
      </trkpt>
      <trkpt lat="43.52042" lon="6.3121">
        <ele>323.5</ele>
        <time>2023-09-15T13:34:27Z</time>
      </trkpt>
      <trkpt lat="43.52042" lon="6.31211">
        <ele>323.5</ele>
        <time>2023-09-15T13:34:28Z</time>
      </trkpt>
      <trkpt lat="43.52041" lon="6.31213">
        <ele>323.4</ele>
        <time>2023-09-15T13:34:29Z</time>
      </trkpt>
      <trkpt lat="43.52041" lon="6.31214">
        <ele>323.2</ele>
        <time>2023-09-15T13:34:30Z</time>
      </trkpt>
      <trkpt lat="43.52041" lon="6.31215">
        <ele>323.1</ele>
        <time>2023-09-15T13:34:31Z</time>
      </trkpt>
      <trkpt lat="43.52042" lon="6.31215">
        <ele>323.1</ele>
        <time>2023-09-15T13:34:32Z</time>
      </trkpt>
      <trkpt lat="43.52041" lon="6.31216">
        <ele>323.1</ele>
        <time>2023-09-15T13:34:33Z</time>
      </trkpt>
      <trkpt lat="43.52041" lon="6.31217">
        <ele>323.2</ele>
        <time>2023-09-15T13:34:34Z</time>
      </trkpt>
      <trkpt lat="43.5204" lon="6.31218">
        <ele>323.1</ele>
        <time>2023-09-15T13:34:35Z</time>
      </trkpt>
      <trkpt lat="43.5204" lon="6.3122">
        <ele>323</ele>
        <time>2023-09-15T13:34:36Z</time>
      </trkpt>
      <trkpt lat="43.52039" lon="6.31221">
        <ele>322.9</ele>
        <time>2023-09-15T13:34:37Z</time>
      </trkpt>
      <trkpt lat="43.52039" lon="6.31221">
        <ele>322.7</ele>
        <time>2023-09-15T13:34:38Z</time>
      </trkpt>
      <trkpt lat="43.52039" lon="6.31222">
        <ele>322.6</ele>
        <time>2023-09-15T13:34:39Z</time>
      </trkpt>
      <trkpt lat="43.52039" lon="6.31223">
        <ele>322.5</ele>
        <time>2023-09-15T13:34:40Z</time>
      </trkpt>
      <trkpt lat="43.52039" lon="6.31224">
        <ele>322.4</ele>
        <time>2023-09-15T13:34:41Z</time>
      </trkpt>
      <trkpt lat="43.52038" lon="6.31224">
        <ele>322.3</ele>
        <time>2023-09-15T13:34:42Z</time>
      </trkpt>
      <trkpt lat="43.52038" lon="6.31225">
        <ele>322.3</ele>
        <time>2023-09-15T13:34:43Z</time>
      </trkpt>
      <trkpt lat="43.52038" lon="6.31226">
        <ele>322.2</ele>
        <time>2023-09-15T13:34:44Z</time>
      </trkpt>
      <trkpt lat="43.52037" lon="6.31227">
        <ele>322.1</ele>
        <time>2023-09-15T13:34:45Z</time>
      </trkpt>
      <trkpt lat="43.52036" lon="6.31227">
        <ele>321.9</ele>
        <time>2023-09-15T13:34:46Z</time>
      </trkpt>
      <trkpt lat="43.52035" lon="6.31228">
        <ele>321.8</ele>
        <time>2023-09-15T13:34:47Z</time>
      </trkpt>
      <trkpt lat="43.52035" lon="6.31229">
        <ele>321.8</ele>
        <time>2023-09-15T13:34:48Z</time>
      </trkpt>
      <trkpt lat="43.52035" lon="6.31229">
        <ele>321.6</ele>
        <time>2023-09-15T13:34:49Z</time>
      </trkpt>
      <trkpt lat="43.52034" lon="6.3123">
        <ele>321.5</ele>
        <time>2023-09-15T13:34:50Z</time>
      </trkpt>
      <trkpt lat="43.52034" lon="6.31231">
        <ele>321.4</ele>
        <time>2023-09-15T13:34:51Z</time>
      </trkpt>
      <trkpt lat="43.52033" lon="6.31231">
        <ele>321.4</ele>
        <time>2023-09-15T13:34:52Z</time>
      </trkpt>
      <trkpt lat="43.52032" lon="6.31233">
        <ele>321.4</ele>
        <time>2023-09-15T13:34:53Z</time>
      </trkpt>
      <trkpt lat="43.52031" lon="6.31233">
        <ele>321.4</ele>
        <time>2023-09-15T13:34:54Z</time>
      </trkpt>
      <trkpt lat="43.5203" lon="6.31233">
        <ele>321.4</ele>
        <time>2023-09-15T13:34:55Z</time>
      </trkpt>
      <trkpt lat="43.52029" lon="6.31234">
        <ele>321.3</ele>
        <time>2023-09-15T13:34:56Z</time>
      </trkpt>
      <trkpt lat="43.52029" lon="6.31234">
        <ele>321.3</ele>
        <time>2023-09-15T13:34:57Z</time>
      </trkpt>
      <trkpt lat="43.52028" lon="6.31236">
        <ele>320.9</ele>
        <time>2023-09-15T13:34:58Z</time>
      </trkpt>
      <trkpt lat="43.52028" lon="6.31238">
        <ele>320.3</ele>
        <time>2023-09-15T13:34:59Z</time>
      </trkpt>
      <trkpt lat="43.52027" lon="6.31238">
        <ele>320.2</ele>
        <time>2023-09-15T13:35:00Z</time>
      </trkpt>
      <trkpt lat="43.52026" lon="6.31239">
        <ele>320</ele>
        <time>2023-09-15T13:35:01Z</time>
      </trkpt>
      <trkpt lat="43.52025" lon="6.3124">
        <ele>319.8</ele>
        <time>2023-09-15T13:35:02Z</time>
      </trkpt>
      <trkpt lat="43.52025" lon="6.3124">
        <ele>319.6</ele>
        <time>2023-09-15T13:35:03Z</time>
      </trkpt>
      <trkpt lat="43.52025" lon="6.31241">
        <ele>319.5</ele>
        <time>2023-09-15T13:35:04Z</time>
      </trkpt>
      <trkpt lat="43.52024" lon="6.31242">
        <ele>318.7</ele>
        <time>2023-09-15T13:35:05Z</time>
      </trkpt>
      <trkpt lat="43.52023" lon="6.31243">
        <ele>318.6</ele>
        <time>2023-09-15T13:35:06Z</time>
      </trkpt>
      <trkpt lat="43.52022" lon="6.31244">
        <ele>318.7</ele>
        <time>2023-09-15T13:35:07Z</time>
      </trkpt>
      <trkpt lat="43.52021" lon="6.31244">
        <ele>318.8</ele>
        <time>2023-09-15T13:35:08Z</time>
      </trkpt>
      <trkpt lat="43.52021" lon="6.31244">
        <ele>318.9</ele>
        <time>2023-09-15T13:35:09Z</time>
      </trkpt>
      <trkpt lat="43.52019" lon="6.31244">
        <ele>318.9</ele>
        <time>2023-09-15T13:35:10Z</time>
      </trkpt>
      <trkpt lat="43.52018" lon="6.31245">
        <ele>318.9</ele>
        <time>2023-09-15T13:35:11Z</time>
      </trkpt>
      <trkpt lat="43.52017" lon="6.31245">
        <ele>318.9</ele>
        <time>2023-09-15T13:35:12Z</time>
      </trkpt>
      <trkpt lat="43.52015" lon="6.31245">
        <ele>318.9</ele>
        <time>2023-09-15T13:35:13Z</time>
      </trkpt>
      <trkpt lat="43.52014" lon="6.31246">
        <ele>318.9</ele>
        <time>2023-09-15T13:35:14Z</time>
      </trkpt>
      <trkpt lat="43.52014" lon="6.31247">
        <ele>318.7</ele>
        <time>2023-09-15T13:35:15Z</time>
      </trkpt>
      <trkpt lat="43.52012" lon="6.31247">
        <ele>318.5</ele>
        <time>2023-09-15T13:35:16Z</time>
      </trkpt>
      <trkpt lat="43.52012" lon="6.31247">
        <ele>318.3</ele>
        <time>2023-09-15T13:35:17Z</time>
      </trkpt>
      <trkpt lat="43.52011" lon="6.31247">
        <ele>318.2</ele>
        <time>2023-09-15T13:35:18Z</time>
      </trkpt>
      <trkpt lat="43.5201" lon="6.31247">
        <ele>318.1</ele>
        <time>2023-09-15T13:35:19Z</time>
      </trkpt>
      <trkpt lat="43.52009" lon="6.31247">
        <ele>317.9</ele>
        <time>2023-09-15T13:35:20Z</time>
      </trkpt>
      <trkpt lat="43.52008" lon="6.31247">
        <ele>317.8</ele>
        <time>2023-09-15T13:35:21Z</time>
      </trkpt>
      <trkpt lat="43.52007" lon="6.31247">
        <ele>317.7</ele>
        <time>2023-09-15T13:35:22Z</time>
      </trkpt>
      <trkpt lat="43.52006" lon="6.31248">
        <ele>317.7</ele>
        <time>2023-09-15T13:35:23Z</time>
      </trkpt>
      <trkpt lat="43.52006" lon="6.31249">
        <ele>317.7</ele>
        <time>2023-09-15T13:35:24Z</time>
      </trkpt>
      <trkpt lat="43.52004" lon="6.31249">
        <ele>317.6</ele>
        <time>2023-09-15T13:35:25Z</time>
      </trkpt>
      <trkpt lat="43.52003" lon="6.31249">
        <ele>317.4</ele>
        <time>2023-09-15T13:35:26Z</time>
      </trkpt>
      <trkpt lat="43.52002" lon="6.3125">
        <ele>317.4</ele>
        <time>2023-09-15T13:35:27Z</time>
      </trkpt>
      <trkpt lat="43.52001" lon="6.3125">
        <ele>317.4</ele>
        <time>2023-09-15T13:35:28Z</time>
      </trkpt>
      <trkpt lat="43.52" lon="6.31251">
        <ele>317.3</ele>
        <time>2023-09-15T13:35:29Z</time>
      </trkpt>
      <trkpt lat="43.51999" lon="6.31252">
        <ele>317.3</ele>
        <time>2023-09-15T13:35:30Z</time>
      </trkpt>
      <trkpt lat="43.51998" lon="6.31252">
        <ele>317.2</ele>
        <time>2023-09-15T13:35:31Z</time>
      </trkpt>
      <trkpt lat="43.51997" lon="6.31252">
        <ele>317.1</ele>
        <time>2023-09-15T13:35:32Z</time>
      </trkpt>
      <trkpt lat="43.51996" lon="6.31253">
        <ele>317</ele>
        <time>2023-09-15T13:35:33Z</time>
      </trkpt>
      <trkpt lat="43.51996" lon="6.31253">
        <ele>317</ele>
        <time>2023-09-15T13:35:34Z</time>
      </trkpt>
      <trkpt lat="43.51995" lon="6.31254">
        <ele>316.9</ele>
        <time>2023-09-15T13:35:35Z</time>
      </trkpt>
      <trkpt lat="43.51995" lon="6.31255">
        <ele>316.8</ele>
        <time>2023-09-15T13:35:36Z</time>
      </trkpt>
      <trkpt lat="43.51994" lon="6.31256">
        <ele>316.8</ele>
        <time>2023-09-15T13:35:37Z</time>
      </trkpt>
      <trkpt lat="43.51993" lon="6.31256">
        <ele>316.8</ele>
        <time>2023-09-15T13:35:38Z</time>
      </trkpt>
      <trkpt lat="43.51992" lon="6.31257">
        <ele>316.9</ele>
        <time>2023-09-15T13:35:39Z</time>
      </trkpt>
      <trkpt lat="43.51991" lon="6.31258">
        <ele>317</ele>
        <time>2023-09-15T13:35:40Z</time>
      </trkpt>
      <trkpt lat="43.5199" lon="6.31258">
        <ele>316.8</ele>
        <time>2023-09-15T13:35:41Z</time>
      </trkpt>
      <trkpt lat="43.5199" lon="6.31259">
        <ele>316.7</ele>
        <time>2023-09-15T13:35:42Z</time>
      </trkpt>
      <trkpt lat="43.51989" lon="6.31259">
        <ele>316.7</ele>
        <time>2023-09-15T13:35:43Z</time>
      </trkpt>
      <trkpt lat="43.51989" lon="6.31259">
        <ele>316.6</ele>
        <time>2023-09-15T13:35:44Z</time>
      </trkpt>
      <trkpt lat="43.51988" lon="6.3126">
        <ele>316.4</ele>
        <time>2023-09-15T13:35:45Z</time>
      </trkpt>
      <trkpt lat="43.51988" lon="6.3126">
        <ele>316.3</ele>
        <time>2023-09-15T13:35:46Z</time>
      </trkpt>
      <trkpt lat="43.51987" lon="6.3126">
        <ele>316</ele>
        <time>2023-09-15T13:35:47Z</time>
      </trkpt>
      <trkpt lat="43.51986" lon="6.3126">
        <ele>315.8</ele>
        <time>2023-09-15T13:35:48Z</time>
      </trkpt>
      <trkpt lat="43.51985" lon="6.31261">
        <ele>315.7</ele>
        <time>2023-09-15T13:35:49Z</time>
      </trkpt>
      <trkpt lat="43.51985" lon="6.31262">
        <ele>315.6</ele>
        <time>2023-09-15T13:35:50Z</time>
      </trkpt>
      <trkpt lat="43.51985" lon="6.31263">
        <ele>315.5</ele>
        <time>2023-09-15T13:35:51Z</time>
      </trkpt>
      <trkpt lat="43.51984" lon="6.31263">
        <ele>315.4</ele>
        <time>2023-09-15T13:35:52Z</time>
      </trkpt>
      <trkpt lat="43.51983" lon="6.31264">
        <ele>315.4</ele>
        <time>2023-09-15T13:35:53Z</time>
      </trkpt>
      <trkpt lat="43.51983" lon="6.31265">
        <ele>315.3</ele>
        <time>2023-09-15T13:35:54Z</time>
      </trkpt>
      <trkpt lat="43.51982" lon="6.31265">
        <ele>315.3</ele>
        <time>2023-09-15T13:35:55Z</time>
      </trkpt>
      <trkpt lat="43.51981" lon="6.31266">
        <ele>315.2</ele>
        <time>2023-09-15T13:35:56Z</time>
      </trkpt>
      <trkpt lat="43.51981" lon="6.31267">
        <ele>315.2</ele>
        <time>2023-09-15T13:35:57Z</time>
      </trkpt>
      <trkpt lat="43.5198" lon="6.31267">
        <ele>315</ele>
        <time>2023-09-15T13:35:58Z</time>
      </trkpt>
      <trkpt lat="43.51979" lon="6.31267">
        <ele>314.9</ele>
        <time>2023-09-15T13:35:59Z</time>
      </trkpt>
      <trkpt lat="43.51978" lon="6.31268">
        <ele>315</ele>
        <time>2023-09-15T13:36:00Z</time>
      </trkpt>
      <trkpt lat="43.51977" lon="6.31269">
        <ele>315</ele>
        <time>2023-09-15T13:36:01Z</time>
      </trkpt>
      <trkpt lat="43.51976" lon="6.3127">
        <ele>315</ele>
        <time>2023-09-15T13:36:02Z</time>
      </trkpt>
      <trkpt lat="43.51976" lon="6.3127">
        <ele>315</ele>
        <time>2023-09-15T13:36:03Z</time>
      </trkpt>
      <trkpt lat="43.51975" lon="6.31269">
        <ele>315.1</ele>
        <time>2023-09-15T13:36:04Z</time>
      </trkpt>
      <trkpt lat="43.51974" lon="6.3127">
        <ele>315.1</ele>
        <time>2023-09-15T13:36:05Z</time>
      </trkpt>
      <trkpt lat="43.51974" lon="6.3127">
        <ele>315.2</ele>
        <time>2023-09-15T13:36:06Z</time>
      </trkpt>
      <trkpt lat="43.51974" lon="6.3127">
        <ele>315.2</ele>
        <time>2023-09-15T13:36:07Z</time>
      </trkpt>
      <trkpt lat="43.51974" lon="6.31271">
        <ele>315.3</ele>
        <time>2023-09-15T13:36:08Z</time>
      </trkpt>
      <trkpt lat="43.51974" lon="6.31271">
        <ele>315.3</ele>
        <time>2023-09-15T13:36:09Z</time>
      </trkpt>
      <trkpt lat="43.51973" lon="6.31271">
        <ele>315.3</ele>
        <time>2023-09-15T13:36:10Z</time>
      </trkpt>
      <trkpt lat="43.51972" lon="6.31271">
        <ele>315.3</ele>
        <time>2023-09-15T13:36:11Z</time>
      </trkpt>
      <trkpt lat="43.51972" lon="6.31271">
        <ele>315.3</ele>
        <time>2023-09-15T13:36:12Z</time>
      </trkpt>
      <trkpt lat="43.51971" lon="6.31271">
        <ele>315.4</ele>
        <time>2023-09-15T13:36:13Z</time>
      </trkpt>
      <trkpt lat="43.51971" lon="6.31271">
        <ele>315.4</ele>
        <time>2023-09-15T13:36:14Z</time>
      </trkpt>
      <trkpt lat="43.5197" lon="6.31272">
        <ele>315.4</ele>
        <time>2023-09-15T13:36:15Z</time>
      </trkpt>
      <trkpt lat="43.5197" lon="6.31272">
        <ele>315.4</ele>
        <time>2023-09-15T13:36:16Z</time>
      </trkpt>
      <trkpt lat="43.51969" lon="6.31272">
        <ele>315.5</ele>
        <time>2023-09-15T13:36:17Z</time>
      </trkpt>
      <trkpt lat="43.51968" lon="6.31272">
        <ele>315.5</ele>
        <time>2023-09-15T13:36:18Z</time>
      </trkpt>
      <trkpt lat="43.51967" lon="6.31272">
        <ele>315.6</ele>
        <time>2023-09-15T13:36:19Z</time>
      </trkpt>
      <trkpt lat="43.51967" lon="6.31273">
        <ele>315.6</ele>
        <time>2023-09-15T13:36:20Z</time>
      </trkpt>
      <trkpt lat="43.51967" lon="6.31273">
        <ele>315.6</ele>
        <time>2023-09-15T13:36:21Z</time>
      </trkpt>
      <trkpt lat="43.51967" lon="6.31274">
        <ele>315.6</ele>
        <time>2023-09-15T13:36:22Z</time>
      </trkpt>
      <trkpt lat="43.51967" lon="6.31274">
        <ele>315.6</ele>
        <time>2023-09-15T13:36:23Z</time>
      </trkpt>
      <trkpt lat="43.51966" lon="6.31275">
        <ele>315.6</ele>
        <time>2023-09-15T13:36:24Z</time>
      </trkpt>
      <trkpt lat="43.51966" lon="6.31275">
        <ele>315.5</ele>
        <time>2023-09-15T13:36:25Z</time>
      </trkpt>
      <trkpt lat="43.51966" lon="6.31276">
        <ele>315.5</ele>
        <time>2023-09-15T13:36:26Z</time>
      </trkpt>
      <trkpt lat="43.51966" lon="6.31276">
        <ele>315.5</ele>
        <time>2023-09-15T13:36:27Z</time>
      </trkpt>
      <trkpt lat="43.51965" lon="6.31276">
        <ele>315.5</ele>
        <time>2023-09-15T13:36:28Z</time>
      </trkpt>
      <trkpt lat="43.51965" lon="6.31276">
        <ele>315.5</ele>
        <time>2023-09-15T13:36:29Z</time>
      </trkpt>
      <trkpt lat="43.51965" lon="6.31277">
        <ele>315.5</ele>
        <time>2023-09-15T13:36:30Z</time>
      </trkpt>
      <trkpt lat="43.51965" lon="6.31277">
        <ele>315.4</ele>
        <time>2023-09-15T13:36:31Z</time>
      </trkpt>
      <trkpt lat="43.51965" lon="6.31277">
        <ele>315.4</ele>
        <time>2023-09-15T13:36:32Z</time>
      </trkpt>
      <trkpt lat="43.51965" lon="6.31278">
        <ele>315.4</ele>
        <time>2023-09-15T13:36:33Z</time>
      </trkpt>
      <trkpt lat="43.51965" lon="6.31278">
        <ele>315.4</ele>
        <time>2023-09-15T13:36:34Z</time>
      </trkpt>
      <trkpt lat="43.51964" lon="6.31279">
        <ele>315.4</ele>
        <time>2023-09-15T13:36:35Z</time>
      </trkpt>
      <trkpt lat="43.51964" lon="6.3128">
        <ele>315.4</ele>
        <time>2023-09-15T13:36:36Z</time>
      </trkpt>
      <trkpt lat="43.51964" lon="6.3128">
        <ele>315.5</ele>
        <time>2023-09-15T13:36:37Z</time>
      </trkpt>
      <trkpt lat="43.51964" lon="6.3128">
        <ele>315.5</ele>
        <time>2023-09-15T13:36:38Z</time>
      </trkpt>
      <trkpt lat="43.51964" lon="6.3128">
        <ele>315.4</ele>
        <time>2023-09-15T13:36:39Z</time>
      </trkpt>
      <trkpt lat="43.51964" lon="6.31281">
        <ele>315.4</ele>
        <time>2023-09-15T13:36:40Z</time>
      </trkpt>
      <trkpt lat="43.51964" lon="6.31281">
        <ele>315.4</ele>
        <time>2023-09-15T13:36:41Z</time>
      </trkpt>
      <trkpt lat="43.51964" lon="6.31281">
        <ele>315.4</ele>
        <time>2023-09-15T13:36:42Z</time>
      </trkpt>
      <trkpt lat="43.51964" lon="6.31281">
        <ele>315.3</ele>
        <time>2023-09-15T13:36:43Z</time>
      </trkpt>
      <trkpt lat="43.51964" lon="6.31281">
        <ele>315.3</ele>
        <time>2023-09-15T13:36:44Z</time>
      </trkpt>
      <trkpt lat="43.51964" lon="6.31281">
        <ele>315.3</ele>
        <time>2023-09-15T13:36:45Z</time>
      </trkpt>
      <trkpt lat="43.51964" lon="6.31282">
        <ele>315.3</ele>
        <time>2023-09-15T13:36:46Z</time>
      </trkpt>
      <trkpt lat="43.51964" lon="6.31282">
        <ele>315.4</ele>
        <time>2023-09-15T13:36:47Z</time>
      </trkpt>
      <trkpt lat="43.51963" lon="6.31282">
        <ele>315.4</ele>
        <time>2023-09-15T13:36:48Z</time>
      </trkpt>
      <trkpt lat="43.51964" lon="6.31282">
        <ele>315.4</ele>
        <time>2023-09-15T13:36:49Z</time>
      </trkpt>
      <trkpt lat="43.51964" lon="6.31282">
        <ele>315.5</ele>
        <time>2023-09-15T13:36:50Z</time>
      </trkpt>
      <trkpt lat="43.51963" lon="6.31282">
        <ele>315.5</ele>
        <time>2023-09-15T13:36:51Z</time>
      </trkpt>
      <trkpt lat="43.51963" lon="6.31282">
        <ele>315.4</ele>
        <time>2023-09-15T13:36:52Z</time>
      </trkpt>
      <trkpt lat="43.51963" lon="6.31282">
        <ele>315.3</ele>
        <time>2023-09-15T13:36:53Z</time>
      </trkpt>
      <trkpt lat="43.51962" lon="6.31282">
        <ele>315.2</ele>
        <time>2023-09-15T13:36:54Z</time>
      </trkpt>
      <trkpt lat="43.51962" lon="6.31282">
        <ele>315.2</ele>
        <time>2023-09-15T13:36:55Z</time>
      </trkpt>
      <trkpt lat="43.51962" lon="6.31282">
        <ele>315.2</ele>
        <time>2023-09-15T13:36:56Z</time>
      </trkpt>
      <trkpt lat="43.51962" lon="6.31282">
        <ele>315.1</ele>
        <time>2023-09-15T13:36:57Z</time>
      </trkpt>
      <trkpt lat="43.51961" lon="6.31282">
        <ele>315.1</ele>
        <time>2023-09-15T13:36:58Z</time>
      </trkpt>
      <trkpt lat="43.51961" lon="6.31282">
        <ele>315.1</ele>
        <time>2023-09-15T13:36:59Z</time>
      </trkpt>
      <trkpt lat="43.51961" lon="6.31283">
        <ele>315.1</ele>
        <time>2023-09-15T13:37:00Z</time>
      </trkpt>
      <trkpt lat="43.51961" lon="6.31283">
        <ele>315.1</ele>
        <time>2023-09-15T13:37:01Z</time>
      </trkpt>
      <trkpt lat="43.51961" lon="6.31283">
        <ele>315</ele>
        <time>2023-09-15T13:37:02Z</time>
      </trkpt>
      <trkpt lat="43.5196" lon="6.31283">
        <ele>315</ele>
        <time>2023-09-15T13:37:03Z</time>
      </trkpt>
      <trkpt lat="43.5196" lon="6.31283">
        <ele>315</ele>
        <time>2023-09-15T13:37:04Z</time>
      </trkpt>
      <trkpt lat="43.5196" lon="6.31283">
        <ele>315.1</ele>
        <time>2023-09-15T13:37:05Z</time>
      </trkpt>
      <trkpt lat="43.5196" lon="6.31284">
        <ele>315</ele>
        <time>2023-09-15T13:37:06Z</time>
      </trkpt>
      <trkpt lat="43.5196" lon="6.31284">
        <ele>315</ele>
        <time>2023-09-15T13:37:07Z</time>
      </trkpt>
      <trkpt lat="43.5196" lon="6.31283">
        <ele>315</ele>
        <time>2023-09-15T13:37:08Z</time>
      </trkpt>
      <trkpt lat="43.5196" lon="6.31283">
        <ele>315</ele>
        <time>2023-09-15T13:37:09Z</time>
      </trkpt>
      <trkpt lat="43.51959" lon="6.31284">
        <ele>315</ele>
        <time>2023-09-15T13:37:10Z</time>
      </trkpt>
      <trkpt lat="43.51959" lon="6.31284">
        <ele>315.1</ele>
        <time>2023-09-15T13:37:11Z</time>
      </trkpt>
      <trkpt lat="43.51959" lon="6.31284">
        <ele>315.2</ele>
        <time>2023-09-15T13:37:12Z</time>
      </trkpt>
      <trkpt lat="43.51959" lon="6.31284">
        <ele>315.2</ele>
        <time>2023-09-15T13:37:13Z</time>
      </trkpt>
      <trkpt lat="43.51959" lon="6.31284">
        <ele>315.2</ele>
        <time>2023-09-15T13:37:14Z</time>
      </trkpt>
      <trkpt lat="43.51959" lon="6.31284">
        <ele>315.1</ele>
        <time>2023-09-15T13:37:15Z</time>
      </trkpt>
      <trkpt lat="43.51959" lon="6.31284">
        <ele>315</ele>
        <time>2023-09-15T13:37:16Z</time>
      </trkpt>
      <trkpt lat="43.51959" lon="6.31284">
        <ele>315</ele>
        <time>2023-09-15T13:37:17Z</time>
      </trkpt>
      <trkpt lat="43.51959" lon="6.31284">
        <ele>315</ele>
        <time>2023-09-15T13:37:18Z</time>
      </trkpt>
      <trkpt lat="43.51959" lon="6.31284">
        <ele>315</ele>
        <time>2023-09-15T13:37:19Z</time>
      </trkpt>
      <trkpt lat="43.5196" lon="6.31283">
        <ele>315</ele>
        <time>2023-09-15T13:37:20Z</time>
      </trkpt>
      <trkpt lat="43.5196" lon="6.31282">
        <ele>315</ele>
        <time>2023-09-15T13:37:21Z</time>
      </trkpt>
      <trkpt lat="43.5196" lon="6.31281">
        <ele>315</ele>
        <time>2023-09-15T13:37:22Z</time>
      </trkpt>
      <trkpt lat="43.5196" lon="6.3128">
        <ele>315</ele>
        <time>2023-09-15T13:37:23Z</time>
      </trkpt>
      <trkpt lat="43.51961" lon="6.31279">
        <ele>315</ele>
        <time>2023-09-15T13:37:24Z</time>
      </trkpt>
      <trkpt lat="43.51961" lon="6.31278">
        <ele>315.1</ele>
        <time>2023-09-15T13:37:25Z</time>
      </trkpt>
      <trkpt lat="43.51962" lon="6.31277">
        <ele>315.1</ele>
        <time>2023-09-15T13:37:26Z</time>
      </trkpt>
      <trkpt lat="43.51962" lon="6.31276">
        <ele>315.1</ele>
        <time>2023-09-15T13:37:27Z</time>
      </trkpt>
      <trkpt lat="43.51962" lon="6.31276">
        <ele>315.1</ele>
        <time>2023-09-15T13:37:28Z</time>
      </trkpt>
      <trkpt lat="43.51962" lon="6.31276">
        <ele>315.1</ele>
        <time>2023-09-15T13:37:29Z</time>
      </trkpt>
      <trkpt lat="43.51962" lon="6.31277">
        <ele>315.1</ele>
        <time>2023-09-15T13:37:30Z</time>
      </trkpt>
      <trkpt lat="43.51962" lon="6.31277">
        <ele>315.1</ele>
        <time>2023-09-15T13:37:31Z</time>
      </trkpt>
      <trkpt lat="43.51962" lon="6.31277">
        <ele>315.2</ele>
        <time>2023-09-15T13:37:32Z</time>
      </trkpt>
      <trkpt lat="43.51961" lon="6.31277">
        <ele>315.3</ele>
        <time>2023-09-15T13:37:33Z</time>
      </trkpt>
      <trkpt lat="43.51962" lon="6.31277">
        <ele>315.2</ele>
        <time>2023-09-15T13:37:34Z</time>
      </trkpt>
      <trkpt lat="43.51962" lon="6.31277">
        <ele>315.2</ele>
        <time>2023-09-15T13:37:35Z</time>
      </trkpt>
      <trkpt lat="43.51963" lon="6.31276">
        <ele>315.2</ele>
        <time>2023-09-15T13:37:36Z</time>
      </trkpt>
      <trkpt lat="43.51963" lon="6.31275">
        <ele>315.2</ele>
        <time>2023-09-15T13:37:37Z</time>
      </trkpt>
      <trkpt lat="43.51963" lon="6.31275">
        <ele>315.3</ele>
        <time>2023-09-15T13:37:38Z</time>
      </trkpt>
      <trkpt lat="43.51962" lon="6.31275">
        <ele>315.3</ele>
        <time>2023-09-15T13:37:39Z</time>
      </trkpt>
      <trkpt lat="43.51962" lon="6.31274">
        <ele>315.3</ele>
        <time>2023-09-15T13:37:40Z</time>
      </trkpt>
      <trkpt lat="43.51962" lon="6.31274">
        <ele>315.3</ele>
        <time>2023-09-15T13:37:41Z</time>
      </trkpt>
      <trkpt lat="43.51962" lon="6.31274">
        <ele>315.3</ele>
        <time>2023-09-15T13:37:42Z</time>
      </trkpt>
      <trkpt lat="43.51962" lon="6.31274">
        <ele>315.3</ele>
        <time>2023-09-15T13:37:43Z</time>
      </trkpt>
      <trkpt lat="43.51962" lon="6.31273">
        <ele>315.3</ele>
        <time>2023-09-15T13:37:44Z</time>
      </trkpt>
      <trkpt lat="43.51962" lon="6.31273">
        <ele>315.2</ele>
        <time>2023-09-15T13:37:45Z</time>
      </trkpt>
      <trkpt lat="43.51962" lon="6.31273">
        <ele>315.2</ele>
        <time>2023-09-15T13:37:46Z</time>
      </trkpt>
      <trkpt lat="43.51962" lon="6.31273">
        <ele>315.2</ele>
        <time>2023-09-15T13:37:47Z</time>
      </trkpt>
      <trkpt lat="43.51962" lon="6.31273">
        <ele>315.2</ele>
        <time>2023-09-15T13:37:48Z</time>
      </trkpt>
      <trkpt lat="43.51963" lon="6.31272">
        <ele>315.3</ele>
        <time>2023-09-15T13:37:49Z</time>
      </trkpt>
      <trkpt lat="43.51963" lon="6.31272">
        <ele>315.2</ele>
        <time>2023-09-15T13:37:50Z</time>
      </trkpt>
      <trkpt lat="43.51963" lon="6.31272">
        <ele>315.3</ele>
        <time>2023-09-15T13:37:51Z</time>
      </trkpt>
      <trkpt lat="43.51963" lon="6.31272">
        <ele>315.3</ele>
        <time>2023-09-15T13:37:52Z</time>
      </trkpt>
      <trkpt lat="43.51963" lon="6.31271">
        <ele>315.3</ele>
        <time>2023-09-15T13:37:53Z</time>
      </trkpt>
      <trkpt lat="43.51963" lon="6.31271">
        <ele>315.3</ele>
        <time>2023-09-15T13:37:54Z</time>
      </trkpt>
      <trkpt lat="43.51963" lon="6.31271">
        <ele>315.2</ele>
        <time>2023-09-15T13:37:55Z</time>
      </trkpt>
      <trkpt lat="43.51963" lon="6.31271">
        <ele>315.1</ele>
        <time>2023-09-15T13:37:56Z</time>
      </trkpt>
      <trkpt lat="43.51963" lon="6.31271">
        <ele>315.1</ele>
        <time>2023-09-15T13:37:57Z</time>
      </trkpt>
      <trkpt lat="43.51963" lon="6.3127">
        <ele>315.1</ele>
        <time>2023-09-15T13:37:58Z</time>
      </trkpt>
      <trkpt lat="43.51964" lon="6.3127">
        <ele>315.1</ele>
        <time>2023-09-15T13:37:59Z</time>
      </trkpt>
      <trkpt lat="43.51964" lon="6.3127">
        <ele>315.1</ele>
        <time>2023-09-15T13:38:00Z</time>
      </trkpt>
      <trkpt lat="43.51964" lon="6.3127">
        <ele>315.1</ele>
        <time>2023-09-15T13:38:01Z</time>
      </trkpt>
      <trkpt lat="43.51964" lon="6.3127">
        <ele>315.1</ele>
        <time>2023-09-15T13:38:02Z</time>
      </trkpt>
      <trkpt lat="43.51964" lon="6.3127">
        <ele>315.1</ele>
        <time>2023-09-15T13:38:03Z</time>
      </trkpt>
      <trkpt lat="43.51964" lon="6.31271">
        <ele>315.2</ele>
        <time>2023-09-15T13:38:04Z</time>
      </trkpt>
      <trkpt lat="43.51964" lon="6.31271">
        <ele>315.3</ele>
        <time>2023-09-15T13:38:05Z</time>
      </trkpt>
      <trkpt lat="43.51964" lon="6.31272">
        <ele>315.3</ele>
        <time>2023-09-15T13:38:06Z</time>
      </trkpt>
      <trkpt lat="43.51964" lon="6.31273">
        <ele>315.3</ele>
        <time>2023-09-15T13:38:07Z</time>
      </trkpt>
      <trkpt lat="43.51964" lon="6.31273">
        <ele>315.3</ele>
        <time>2023-09-15T13:38:08Z</time>
      </trkpt>
      <trkpt lat="43.51963" lon="6.31274">
        <ele>315.3</ele>
        <time>2023-09-15T13:38:09Z</time>
      </trkpt>
      <trkpt lat="43.51963" lon="6.31275">
        <ele>315.4</ele>
        <time>2023-09-15T13:38:10Z</time>
      </trkpt>
      <trkpt lat="43.51963" lon="6.31275">
        <ele>315.3</ele>
        <time>2023-09-15T13:38:11Z</time>
      </trkpt>
      <trkpt lat="43.51963" lon="6.31275">
        <ele>315.3</ele>
        <time>2023-09-15T13:38:12Z</time>
      </trkpt>
      <trkpt lat="43.51962" lon="6.31275">
        <ele>315.3</ele>
        <time>2023-09-15T13:38:13Z</time>
      </trkpt>
      <trkpt lat="43.51962" lon="6.31275">
        <ele>315.3</ele>
        <time>2023-09-15T13:38:14Z</time>
      </trkpt>
      <trkpt lat="43.51962" lon="6.31275">
        <ele>315.3</ele>
        <time>2023-09-15T13:38:15Z</time>
      </trkpt>
      <trkpt lat="43.51962" lon="6.31275">
        <ele>315.3</ele>
        <time>2023-09-15T13:38:16Z</time>
      </trkpt>
      <trkpt lat="43.51962" lon="6.31275">
        <ele>315.3</ele>
        <time>2023-09-15T13:38:17Z</time>
      </trkpt>
      <trkpt lat="43.51962" lon="6.31275">
        <ele>315.3</ele>
        <time>2023-09-15T13:38:18Z</time>
      </trkpt>
      <trkpt lat="43.51962" lon="6.31275">
        <ele>315.2</ele>
        <time>2023-09-15T13:38:19Z</time>
      </trkpt>
      <trkpt lat="43.51962" lon="6.31275">
        <ele>315.1</ele>
        <time>2023-09-15T13:38:20Z</time>
      </trkpt>
      <trkpt lat="43.51962" lon="6.31275">
        <ele>315.1</ele>
        <time>2023-09-15T13:38:21Z</time>
      </trkpt>
      <trkpt lat="43.51962" lon="6.31275">
        <ele>315.1</ele>
        <time>2023-09-15T13:38:22Z</time>
      </trkpt>
      <trkpt lat="43.51962" lon="6.31275">
        <ele>315.1</ele>
        <time>2023-09-15T13:38:23Z</time>
      </trkpt>
      <trkpt lat="43.51962" lon="6.31274">
        <ele>315.1</ele>
        <time>2023-09-15T13:38:24Z</time>
      </trkpt>
      <trkpt lat="43.51962" lon="6.31274">
        <ele>315.2</ele>
        <time>2023-09-15T13:38:25Z</time>
      </trkpt>
      <trkpt lat="43.51962" lon="6.31275">
        <ele>315.2</ele>
        <time>2023-09-15T13:38:26Z</time>
      </trkpt>
      <trkpt lat="43.51962" lon="6.31274">
        <ele>315.2</ele>
        <time>2023-09-15T13:38:27Z</time>
      </trkpt>
      <trkpt lat="43.51962" lon="6.31274">
        <ele>315.2</ele>
        <time>2023-09-15T13:38:28Z</time>
      </trkpt>
      <trkpt lat="43.51962" lon="6.31274">
        <ele>315.3</ele>
        <time>2023-09-15T13:38:29Z</time>
      </trkpt>
      <trkpt lat="43.51962" lon="6.31274">
        <ele>315.3</ele>
        <time>2023-09-15T13:38:30Z</time>
      </trkpt>
      <trkpt lat="43.51962" lon="6.31274">
        <ele>315.4</ele>
        <time>2023-09-15T13:38:31Z</time>
      </trkpt>
      <trkpt lat="43.51962" lon="6.31274">
        <ele>315.3</ele>
        <time>2023-09-15T13:38:32Z</time>
      </trkpt>
      <trkpt lat="43.51962" lon="6.31274">
        <ele>315.3</ele>
        <time>2023-09-15T13:38:33Z</time>
      </trkpt>
      <trkpt lat="43.51962" lon="6.31274">
        <ele>315.3</ele>
        <time>2023-09-15T13:38:34Z</time>
      </trkpt>
      <trkpt lat="43.51962" lon="6.31274">
        <ele>315.4</ele>
        <time>2023-09-15T13:38:35Z</time>
      </trkpt>
      <trkpt lat="43.51962" lon="6.31274">
        <ele>315.4</ele>
        <time>2023-09-15T13:38:36Z</time>
      </trkpt>
      <trkpt lat="43.51962" lon="6.31274">
        <ele>315.4</ele>
        <time>2023-09-15T13:38:37Z</time>
      </trkpt>
      <trkpt lat="43.51963" lon="6.31274">
        <ele>315.5</ele>
        <time>2023-09-15T13:38:38Z</time>
      </trkpt>
      <trkpt lat="43.51963" lon="6.31273">
        <ele>315.5</ele>
        <time>2023-09-15T13:38:39Z</time>
      </trkpt>
      <trkpt lat="43.51964" lon="6.31272">
        <ele>315.5</ele>
        <time>2023-09-15T13:38:40Z</time>
      </trkpt>
      <trkpt lat="43.51964" lon="6.31271">
        <ele>315.5</ele>
        <time>2023-09-15T13:38:41Z</time>
      </trkpt>
      <trkpt lat="43.51964" lon="6.31271">
        <ele>315.4</ele>
        <time>2023-09-15T13:38:42Z</time>
      </trkpt>
      <trkpt lat="43.51963" lon="6.31271">
        <ele>315.4</ele>
        <time>2023-09-15T13:38:43Z</time>
      </trkpt>
      <trkpt lat="43.51963" lon="6.31271">
        <ele>315.3</ele>
        <time>2023-09-15T13:38:44Z</time>
      </trkpt>
      <trkpt lat="43.51963" lon="6.3127">
        <ele>315.3</ele>
        <time>2023-09-15T13:38:45Z</time>
      </trkpt>
      <trkpt lat="43.51963" lon="6.3127">
        <ele>315.4</ele>
        <time>2023-09-15T13:38:46Z</time>
      </trkpt>
      <trkpt lat="43.51963" lon="6.3127">
        <ele>315.4</ele>
        <time>2023-09-15T13:38:47Z</time>
      </trkpt>
      <trkpt lat="43.51963" lon="6.3127">
        <ele>315.4</ele>
        <time>2023-09-15T13:38:48Z</time>
      </trkpt>
      <trkpt lat="43.51963" lon="6.3127">
        <ele>315.3</ele>
        <time>2023-09-15T13:38:49Z</time>
      </trkpt>
      <trkpt lat="43.51964" lon="6.3127">
        <ele>315.3</ele>
        <time>2023-09-15T13:38:50Z</time>
      </trkpt>
      <trkpt lat="43.51964" lon="6.3127">
        <ele>315.3</ele>
        <time>2023-09-15T13:38:51Z</time>
      </trkpt>
      <trkpt lat="43.51964" lon="6.31269">
        <ele>315.3</ele>
        <time>2023-09-15T13:38:52Z</time>
      </trkpt>
      <trkpt lat="43.51964" lon="6.31269">
        <ele>315.3</ele>
        <time>2023-09-15T13:38:53Z</time>
      </trkpt>
      <trkpt lat="43.51964" lon="6.31269">
        <ele>315.3</ele>
        <time>2023-09-15T13:38:54Z</time>
      </trkpt>
      <trkpt lat="43.51964" lon="6.3127">
        <ele>315.3</ele>
        <time>2023-09-15T13:38:55Z</time>
      </trkpt>
      <trkpt lat="43.51963" lon="6.31271">
        <ele>315.1</ele>
        <time>2023-09-15T13:38:56Z</time>
      </trkpt>
      <trkpt lat="43.51963" lon="6.31271">
        <ele>315.1</ele>
        <time>2023-09-15T13:38:57Z</time>
      </trkpt>
      <trkpt lat="43.51963" lon="6.31271">
        <ele>315</ele>
        <time>2023-09-15T13:38:58Z</time>
      </trkpt>
      <trkpt lat="43.51963" lon="6.31271">
        <ele>314.9</ele>
        <time>2023-09-15T13:38:59Z</time>
      </trkpt>
      <trkpt lat="43.51963" lon="6.31271">
        <ele>314.9</ele>
        <time>2023-09-15T13:39:00Z</time>
      </trkpt>
      <trkpt lat="43.51963" lon="6.31271">
        <ele>314.9</ele>
        <time>2023-09-15T13:39:01Z</time>
      </trkpt>
      <trkpt lat="43.51964" lon="6.31272">
        <ele>314.9</ele>
        <time>2023-09-15T13:39:02Z</time>
      </trkpt>
      <trkpt lat="43.51963" lon="6.31273">
        <ele>314.9</ele>
        <time>2023-09-15T13:39:03Z</time>
      </trkpt>
      <trkpt lat="43.51963" lon="6.31274">
        <ele>315</ele>
        <time>2023-09-15T13:39:04Z</time>
      </trkpt>
      <trkpt lat="43.51963" lon="6.31274">
        <ele>315</ele>
        <time>2023-09-15T13:39:05Z</time>
      </trkpt>
      <trkpt lat="43.51963" lon="6.31274">
        <ele>315</ele>
        <time>2023-09-15T13:39:06Z</time>
      </trkpt>
      <trkpt lat="43.51963" lon="6.31274">
        <ele>315</ele>
        <time>2023-09-15T13:39:07Z</time>
      </trkpt>
      <trkpt lat="43.51963" lon="6.31274">
        <ele>315</ele>
        <time>2023-09-15T13:39:08Z</time>
      </trkpt>
      <trkpt lat="43.51963" lon="6.31273">
        <ele>314.9</ele>
        <time>2023-09-15T13:39:09Z</time>
      </trkpt>
      <trkpt lat="43.51963" lon="6.31273">
        <ele>314.9</ele>
        <time>2023-09-15T13:39:10Z</time>
      </trkpt>
      <trkpt lat="43.51963" lon="6.31273">
        <ele>314.9</ele>
        <time>2023-09-15T13:39:11Z</time>
      </trkpt>
      <trkpt lat="43.51963" lon="6.31273">
        <ele>314.9</ele>
        <time>2023-09-15T13:39:12Z</time>
      </trkpt>
      <trkpt lat="43.51963" lon="6.31273">
        <ele>314.9</ele>
        <time>2023-09-15T13:39:13Z</time>
      </trkpt>
      <trkpt lat="43.51963" lon="6.31273">
        <ele>314.9</ele>
        <time>2023-09-15T13:39:14Z</time>
      </trkpt>
      <trkpt lat="43.51963" lon="6.31273">
        <ele>314.9</ele>
        <time>2023-09-15T13:39:15Z</time>
      </trkpt>
      <trkpt lat="43.51963" lon="6.31272">
        <ele>314.9</ele>
        <time>2023-09-15T13:39:16Z</time>
      </trkpt>
      <trkpt lat="43.51963" lon="6.31272">
        <ele>315</ele>
        <time>2023-09-15T13:39:17Z</time>
      </trkpt>
      <trkpt lat="43.51963" lon="6.31272">
        <ele>315</ele>
        <time>2023-09-15T13:39:18Z</time>
      </trkpt>
      <trkpt lat="43.51963" lon="6.31272">
        <ele>315</ele>
        <time>2023-09-15T13:39:19Z</time>
      </trkpt>
      <trkpt lat="43.51963" lon="6.31272">
        <ele>315.1</ele>
        <time>2023-09-15T13:39:20Z</time>
      </trkpt>
      <trkpt lat="43.51963" lon="6.31272">
        <ele>315.1</ele>
        <time>2023-09-15T13:39:21Z</time>
      </trkpt>
      <trkpt lat="43.51963" lon="6.31273">
        <ele>315.1</ele>
        <time>2023-09-15T13:39:22Z</time>
      </trkpt>
      <trkpt lat="43.51962" lon="6.31274">
        <ele>315.1</ele>
        <time>2023-09-15T13:39:23Z</time>
      </trkpt>
      <trkpt lat="43.51962" lon="6.31275">
        <ele>315.1</ele>
        <time>2023-09-15T13:39:24Z</time>
      </trkpt>
      <trkpt lat="43.51963" lon="6.31276">
        <ele>315.1</ele>
        <time>2023-09-15T13:39:25Z</time>
      </trkpt>
      <trkpt lat="43.51963" lon="6.31277">
        <ele>315.1</ele>
        <time>2023-09-15T13:39:26Z</time>
      </trkpt>
      <trkpt lat="43.51962" lon="6.31277">
        <ele>315.1</ele>
        <time>2023-09-15T13:39:27Z</time>
      </trkpt>
      <trkpt lat="43.51961" lon="6.31277">
        <ele>315.1</ele>
        <time>2023-09-15T13:39:28Z</time>
      </trkpt>
      <trkpt lat="43.51961" lon="6.31278">
        <ele>315</ele>
        <time>2023-09-15T13:39:29Z</time>
      </trkpt>
      <trkpt lat="43.5196" lon="6.31279">
        <ele>315</ele>
        <time>2023-09-15T13:39:30Z</time>
      </trkpt>
      <trkpt lat="43.5196" lon="6.31279">
        <ele>315</ele>
        <time>2023-09-15T13:39:31Z</time>
      </trkpt>
      <trkpt lat="43.5196" lon="6.31281">
        <ele>314.9</ele>
        <time>2023-09-15T13:39:32Z</time>
      </trkpt>
      <trkpt lat="43.51961" lon="6.31281">
        <ele>314.9</ele>
        <time>2023-09-15T13:39:33Z</time>
      </trkpt>
      <trkpt lat="43.51961" lon="6.31282">
        <ele>314.9</ele>
        <time>2023-09-15T13:39:34Z</time>
      </trkpt>
      <trkpt lat="43.51961" lon="6.31282">
        <ele>315</ele>
        <time>2023-09-15T13:39:35Z</time>
      </trkpt>
      <trkpt lat="43.51961" lon="6.31283">
        <ele>314.9</ele>
        <time>2023-09-15T13:39:36Z</time>
      </trkpt>
      <trkpt lat="43.51961" lon="6.31283">
        <ele>315</ele>
        <time>2023-09-15T13:39:37Z</time>
      </trkpt>
      <trkpt lat="43.51962" lon="6.31284">
        <ele>315</ele>
        <time>2023-09-15T13:39:38Z</time>
      </trkpt>
      <trkpt lat="43.51962" lon="6.31284">
        <ele>315</ele>
        <time>2023-09-15T13:39:39Z</time>
      </trkpt>
      <trkpt lat="43.51962" lon="6.31284">
        <ele>315</ele>
        <time>2023-09-15T13:39:40Z</time>
      </trkpt>
      <trkpt lat="43.51961" lon="6.31285">
        <ele>314.9</ele>
        <time>2023-09-15T13:39:41Z</time>
      </trkpt>
      <trkpt lat="43.51961" lon="6.31285">
        <ele>314.9</ele>
        <time>2023-09-15T13:39:42Z</time>
      </trkpt>
      <trkpt lat="43.51961" lon="6.31285">
        <ele>314.8</ele>
        <time>2023-09-15T13:39:43Z</time>
      </trkpt>
      <trkpt lat="43.51961" lon="6.31285">
        <ele>314.8</ele>
        <time>2023-09-15T13:39:44Z</time>
      </trkpt>
      <trkpt lat="43.51961" lon="6.31286">
        <ele>314.8</ele>
        <time>2023-09-15T13:39:45Z</time>
      </trkpt>
      <trkpt lat="43.51961" lon="6.31286">
        <ele>314.8</ele>
        <time>2023-09-15T13:39:46Z</time>
      </trkpt>
      <trkpt lat="43.51961" lon="6.31286">
        <ele>314.8</ele>
        <time>2023-09-15T13:39:47Z</time>
      </trkpt>
      <trkpt lat="43.51961" lon="6.31286">
        <ele>314.8</ele>
        <time>2023-09-15T13:39:48Z</time>
      </trkpt>
      <trkpt lat="43.51961" lon="6.31287">
        <ele>314.8</ele>
        <time>2023-09-15T13:39:49Z</time>
      </trkpt>
      <trkpt lat="43.51961" lon="6.31287">
        <ele>314.9</ele>
        <time>2023-09-15T13:39:50Z</time>
      </trkpt>
      <trkpt lat="43.51961" lon="6.31287">
        <ele>315</ele>
        <time>2023-09-15T13:39:51Z</time>
      </trkpt>
      <trkpt lat="43.51961" lon="6.31287">
        <ele>314.9</ele>
        <time>2023-09-15T13:39:52Z</time>
      </trkpt>
      <trkpt lat="43.51961" lon="6.31287">
        <ele>314.9</ele>
        <time>2023-09-15T13:39:53Z</time>
      </trkpt>
      <trkpt lat="43.51961" lon="6.31287">
        <ele>315</ele>
        <time>2023-09-15T13:39:54Z</time>
      </trkpt>
      <trkpt lat="43.51961" lon="6.31287">
        <ele>315</ele>
        <time>2023-09-15T13:39:55Z</time>
      </trkpt>
      <trkpt lat="43.51961" lon="6.31287">
        <ele>315</ele>
        <time>2023-09-15T13:39:56Z</time>
      </trkpt>
      <trkpt lat="43.51961" lon="6.31287">
        <ele>315</ele>
        <time>2023-09-15T13:39:57Z</time>
      </trkpt>
      <trkpt lat="43.51961" lon="6.31287">
        <ele>315</ele>
        <time>2023-09-15T13:39:58Z</time>
      </trkpt>
      <trkpt lat="43.51962" lon="6.31287">
        <ele>315.1</ele>
        <time>2023-09-15T13:39:59Z</time>
      </trkpt>
      <trkpt lat="43.51962" lon="6.31287">
        <ele>315.1</ele>
        <time>2023-09-15T13:40:00Z</time>
      </trkpt>
      <trkpt lat="43.51962" lon="6.31287">
        <ele>315.2</ele>
        <time>2023-09-15T13:40:01Z</time>
      </trkpt>
      <trkpt lat="43.51962" lon="6.31287">
        <ele>315.2</ele>
        <time>2023-09-15T13:40:02Z</time>
      </trkpt>
      <trkpt lat="43.51962" lon="6.31287">
        <ele>315.2</ele>
        <time>2023-09-15T13:40:03Z</time>
      </trkpt>
      <trkpt lat="43.51962" lon="6.31288">
        <ele>315.2</ele>
        <time>2023-09-15T13:40:04Z</time>
      </trkpt>
      <trkpt lat="43.51962" lon="6.31288">
        <ele>315.2</ele>
        <time>2023-09-15T13:40:05Z</time>
      </trkpt>
      <trkpt lat="43.51962" lon="6.31288">
        <ele>315.2</ele>
        <time>2023-09-15T13:40:06Z</time>
      </trkpt>
      <trkpt lat="43.51962" lon="6.31288">
        <ele>315.3</ele>
        <time>2023-09-15T13:40:07Z</time>
      </trkpt>
      <trkpt lat="43.51962" lon="6.31288">
        <ele>315.3</ele>
        <time>2023-09-15T13:40:08Z</time>
      </trkpt>
      <trkpt lat="43.51962" lon="6.31288">
        <ele>315.3</ele>
        <time>2023-09-15T13:40:09Z</time>
      </trkpt>
      <trkpt lat="43.51962" lon="6.31288">
        <ele>315.4</ele>
        <time>2023-09-15T13:40:10Z</time>
      </trkpt>
      <trkpt lat="43.51962" lon="6.31288">
        <ele>315.5</ele>
        <time>2023-09-15T13:40:11Z</time>
      </trkpt>
      <trkpt lat="43.51962" lon="6.31288">
        <ele>315.5</ele>
        <time>2023-09-15T13:40:12Z</time>
      </trkpt>
      <trkpt lat="43.51963" lon="6.31288">
        <ele>315.5</ele>
        <time>2023-09-15T13:40:13Z</time>
      </trkpt>
      <trkpt lat="43.51963" lon="6.31288">
        <ele>315.6</ele>
        <time>2023-09-15T13:40:14Z</time>
      </trkpt>
      <trkpt lat="43.51963" lon="6.31288">
        <ele>315.6</ele>
        <time>2023-09-15T13:40:15Z</time>
      </trkpt>
      <trkpt lat="43.51962" lon="6.31288">
        <ele>315.6</ele>
        <time>2023-09-15T13:40:16Z</time>
      </trkpt>
      <trkpt lat="43.51962" lon="6.31288">
        <ele>315.6</ele>
        <time>2023-09-15T13:40:17Z</time>
      </trkpt>
      <trkpt lat="43.51962" lon="6.31287">
        <ele>315.6</ele>
        <time>2023-09-15T13:40:18Z</time>
      </trkpt>
      <trkpt lat="43.51962" lon="6.31287">
        <ele>315.5</ele>
        <time>2023-09-15T13:40:19Z</time>
      </trkpt>
      <trkpt lat="43.51962" lon="6.31286">
        <ele>315.4</ele>
        <time>2023-09-15T13:40:20Z</time>
      </trkpt>
      <trkpt lat="43.51962" lon="6.31286">
        <ele>315.3</ele>
        <time>2023-09-15T13:40:21Z</time>
      </trkpt>
      <trkpt lat="43.51962" lon="6.31285">
        <ele>315.2</ele>
        <time>2023-09-15T13:40:22Z</time>
      </trkpt>
      <trkpt lat="43.51962" lon="6.31285">
        <ele>315.2</ele>
        <time>2023-09-15T13:40:23Z</time>
      </trkpt>
      <trkpt lat="43.51962" lon="6.31285">
        <ele>315.1</ele>
        <time>2023-09-15T13:40:24Z</time>
      </trkpt>
      <trkpt lat="43.51962" lon="6.31285">
        <ele>315.1</ele>
        <time>2023-09-15T13:40:25Z</time>
      </trkpt>
      <trkpt lat="43.51962" lon="6.31285">
        <ele>315</ele>
        <time>2023-09-15T13:40:26Z</time>
      </trkpt>
      <trkpt lat="43.51963" lon="6.31285">
        <ele>315</ele>
        <time>2023-09-15T13:40:27Z</time>
      </trkpt>
      <trkpt lat="43.51963" lon="6.31285">
        <ele>315</ele>
        <time>2023-09-15T13:40:28Z</time>
      </trkpt>
      <trkpt lat="43.51963" lon="6.31285">
        <ele>314.9</ele>
        <time>2023-09-15T13:40:29Z</time>
      </trkpt>
      <trkpt lat="43.51963" lon="6.31285">
        <ele>314.9</ele>
        <time>2023-09-15T13:40:30Z</time>
      </trkpt>
      <trkpt lat="43.51963" lon="6.31285">
        <ele>315</ele>
        <time>2023-09-15T13:40:31Z</time>
      </trkpt>
      <trkpt lat="43.51963" lon="6.31285">
        <ele>314.9</ele>
        <time>2023-09-15T13:40:32Z</time>
      </trkpt>
      <trkpt lat="43.51963" lon="6.31285">
        <ele>314.9</ele>
        <time>2023-09-15T13:40:33Z</time>
      </trkpt>
      <trkpt lat="43.51963" lon="6.31285">
        <ele>314.9</ele>
        <time>2023-09-15T13:40:34Z</time>
      </trkpt>
      <trkpt lat="43.51963" lon="6.31285">
        <ele>314.9</ele>
        <time>2023-09-15T13:40:35Z</time>
      </trkpt>
      <trkpt lat="43.51963" lon="6.31285">
        <ele>314.9</ele>
        <time>2023-09-15T13:40:36Z</time>
      </trkpt>
      <trkpt lat="43.51963" lon="6.31285">
        <ele>314.9</ele>
        <time>2023-09-15T13:40:37Z</time>
      </trkpt>
      <trkpt lat="43.51962" lon="6.31285">
        <ele>314.9</ele>
        <time>2023-09-15T13:40:38Z</time>
      </trkpt>
      <trkpt lat="43.51961" lon="6.31285">
        <ele>314.9</ele>
        <time>2023-09-15T13:40:39Z</time>
      </trkpt>
      <trkpt lat="43.51961" lon="6.31285">
        <ele>314.9</ele>
        <time>2023-09-15T13:40:40Z</time>
      </trkpt>
      <trkpt lat="43.51961" lon="6.31284">
        <ele>314.9</ele>
        <time>2023-09-15T13:40:41Z</time>
      </trkpt>
      <trkpt lat="43.51961" lon="6.31283">
        <ele>314.9</ele>
        <time>2023-09-15T13:40:42Z</time>
      </trkpt>
      <trkpt lat="43.5196" lon="6.31282">
        <ele>314.9</ele>
        <time>2023-09-15T13:40:43Z</time>
      </trkpt>
      <trkpt lat="43.5196" lon="6.31282">
        <ele>314.9</ele>
        <time>2023-09-15T13:40:44Z</time>
      </trkpt>
      <trkpt lat="43.5196" lon="6.31282">
        <ele>314.9</ele>
        <time>2023-09-15T13:40:45Z</time>
      </trkpt>
      <trkpt lat="43.5196" lon="6.31282">
        <ele>315</ele>
        <time>2023-09-15T13:40:46Z</time>
      </trkpt>
      <trkpt lat="43.5196" lon="6.31282">
        <ele>315.1</ele>
        <time>2023-09-15T13:40:47Z</time>
      </trkpt>
      <trkpt lat="43.5196" lon="6.31282">
        <ele>315.1</ele>
        <time>2023-09-15T13:40:48Z</time>
      </trkpt>
      <trkpt lat="43.51959" lon="6.31282">
        <ele>315.1</ele>
        <time>2023-09-15T13:40:49Z</time>
      </trkpt>
      <trkpt lat="43.51959" lon="6.31282">
        <ele>315.1</ele>
        <time>2023-09-15T13:40:50Z</time>
      </trkpt>
      <trkpt lat="43.51959" lon="6.31282">
        <ele>315.2</ele>
        <time>2023-09-15T13:40:51Z</time>
      </trkpt>
      <trkpt lat="43.51959" lon="6.31282">
        <ele>315.2</ele>
        <time>2023-09-15T13:40:52Z</time>
      </trkpt>
      <trkpt lat="43.51959" lon="6.31282">
        <ele>315.3</ele>
        <time>2023-09-15T13:40:53Z</time>
      </trkpt>
      <trkpt lat="43.51959" lon="6.31282">
        <ele>315.3</ele>
        <time>2023-09-15T13:40:54Z</time>
      </trkpt>
      <trkpt lat="43.51959" lon="6.31282">
        <ele>315.4</ele>
        <time>2023-09-15T13:40:55Z</time>
      </trkpt>
      <trkpt lat="43.51958" lon="6.31282">
        <ele>315.4</ele>
        <time>2023-09-15T13:40:56Z</time>
      </trkpt>
      <trkpt lat="43.51958" lon="6.31282">
        <ele>315.4</ele>
        <time>2023-09-15T13:40:57Z</time>
      </trkpt>
      <trkpt lat="43.51958" lon="6.31282">
        <ele>315.4</ele>
        <time>2023-09-15T13:40:58Z</time>
      </trkpt>
      <trkpt lat="43.51958" lon="6.31282">
        <ele>315.4</ele>
        <time>2023-09-15T13:40:59Z</time>
      </trkpt>
      <trkpt lat="43.51958" lon="6.31282">
        <ele>315.4</ele>
        <time>2023-09-15T13:41:00Z</time>
      </trkpt>
      <trkpt lat="43.51958" lon="6.31282">
        <ele>315.4</ele>
        <time>2023-09-15T13:41:01Z</time>
      </trkpt>
      <trkpt lat="43.51958" lon="6.31282">
        <ele>315.4</ele>
        <time>2023-09-15T13:41:02Z</time>
      </trkpt>
      <trkpt lat="43.51958" lon="6.31282">
        <ele>315.4</ele>
        <time>2023-09-15T13:41:03Z</time>
      </trkpt>
      <trkpt lat="43.51958" lon="6.31282">
        <ele>315.4</ele>
        <time>2023-09-15T13:41:04Z</time>
      </trkpt>
      <trkpt lat="43.51958" lon="6.31282">
        <ele>315.5</ele>
        <time>2023-09-15T13:41:05Z</time>
      </trkpt>
      <trkpt lat="43.51958" lon="6.31282">
        <ele>315.5</ele>
        <time>2023-09-15T13:41:06Z</time>
      </trkpt>
      <trkpt lat="43.51958" lon="6.31282">
        <ele>315.5</ele>
        <time>2023-09-15T13:41:07Z</time>
      </trkpt>
      <trkpt lat="43.51958" lon="6.31282">
        <ele>315.6</ele>
        <time>2023-09-15T13:41:08Z</time>
      </trkpt>
      <trkpt lat="43.51958" lon="6.31282">
        <ele>315.5</ele>
        <time>2023-09-15T13:41:09Z</time>
      </trkpt>
      <trkpt lat="43.51958" lon="6.31281">
        <ele>315.5</ele>
        <time>2023-09-15T13:41:10Z</time>
      </trkpt>
      <trkpt lat="43.51958" lon="6.31281">
        <ele>315.4</ele>
        <time>2023-09-15T13:41:11Z</time>
      </trkpt>
      <trkpt lat="43.51958" lon="6.31281">
        <ele>315.4</ele>
        <time>2023-09-15T13:41:12Z</time>
      </trkpt>
      <trkpt lat="43.51958" lon="6.31281">
        <ele>315.4</ele>
        <time>2023-09-15T13:41:13Z</time>
      </trkpt>
      <trkpt lat="43.51959" lon="6.31281">
        <ele>315.4</ele>
        <time>2023-09-15T13:41:14Z</time>
      </trkpt>
      <trkpt lat="43.51959" lon="6.3128">
        <ele>315.4</ele>
        <time>2023-09-15T13:41:15Z</time>
      </trkpt>
      <trkpt lat="43.51959" lon="6.3128">
        <ele>315.4</ele>
        <time>2023-09-15T13:41:16Z</time>
      </trkpt>
      <trkpt lat="43.51959" lon="6.3128">
        <ele>315.4</ele>
        <time>2023-09-15T13:41:17Z</time>
      </trkpt>
      <trkpt lat="43.51959" lon="6.3128">
        <ele>315.4</ele>
        <time>2023-09-15T13:41:18Z</time>
      </trkpt>
      <trkpt lat="43.51959" lon="6.3128">
        <ele>315.4</ele>
        <time>2023-09-15T13:41:19Z</time>
      </trkpt>
      <trkpt lat="43.51959" lon="6.3128">
        <ele>315.4</ele>
        <time>2023-09-15T13:41:20Z</time>
      </trkpt>
      <trkpt lat="43.51959" lon="6.3128">
        <ele>315.5</ele>
        <time>2023-09-15T13:41:21Z</time>
      </trkpt>
      <trkpt lat="43.51959" lon="6.3128">
        <ele>315.5</ele>
        <time>2023-09-15T13:41:22Z</time>
      </trkpt>
      <trkpt lat="43.51959" lon="6.3128">
        <ele>315.4</ele>
        <time>2023-09-15T13:41:23Z</time>
      </trkpt>
      <trkpt lat="43.51959" lon="6.3128">
        <ele>315.4</ele>
        <time>2023-09-15T13:41:24Z</time>
      </trkpt>
      <trkpt lat="43.51959" lon="6.31279">
        <ele>315.4</ele>
        <time>2023-09-15T13:41:25Z</time>
      </trkpt>
      <trkpt lat="43.5196" lon="6.31279">
        <ele>315.3</ele>
        <time>2023-09-15T13:41:26Z</time>
      </trkpt>
      <trkpt lat="43.5196" lon="6.31279">
        <ele>315.4</ele>
        <time>2023-09-15T13:41:27Z</time>
      </trkpt>
      <trkpt lat="43.5196" lon="6.31279">
        <ele>315.3</ele>
        <time>2023-09-15T13:41:28Z</time>
      </trkpt>
      <trkpt lat="43.5196" lon="6.31279">
        <ele>315.3</ele>
        <time>2023-09-15T13:41:29Z</time>
      </trkpt>
      <trkpt lat="43.5196" lon="6.31279">
        <ele>315.3</ele>
        <time>2023-09-15T13:41:30Z</time>
      </trkpt>
      <trkpt lat="43.5196" lon="6.3128">
        <ele>315.3</ele>
        <time>2023-09-15T13:41:31Z</time>
      </trkpt>
      <trkpt lat="43.5196" lon="6.3128">
        <ele>315.4</ele>
        <time>2023-09-15T13:41:32Z</time>
      </trkpt>
      <trkpt lat="43.5196" lon="6.3128">
        <ele>315.4</ele>
        <time>2023-09-15T13:41:33Z</time>
      </trkpt>
      <trkpt lat="43.5196" lon="6.3128">
        <ele>315.4</ele>
        <time>2023-09-15T13:41:34Z</time>
      </trkpt>
      <trkpt lat="43.5196" lon="6.3128">
        <ele>315.4</ele>
        <time>2023-09-15T13:41:35Z</time>
      </trkpt>
      <trkpt lat="43.5196" lon="6.3128">
        <ele>315.4</ele>
        <time>2023-09-15T13:41:36Z</time>
      </trkpt>
      <trkpt lat="43.5196" lon="6.3128">
        <ele>315.3</ele>
        <time>2023-09-15T13:41:37Z</time>
      </trkpt>
      <trkpt lat="43.5196" lon="6.3128">
        <ele>315.3</ele>
        <time>2023-09-15T13:41:38Z</time>
      </trkpt>
      <trkpt lat="43.5196" lon="6.3128">
        <ele>315.3</ele>
        <time>2023-09-15T13:41:39Z</time>
      </trkpt>
      <trkpt lat="43.5196" lon="6.3128">
        <ele>315.4</ele>
        <time>2023-09-15T13:41:40Z</time>
      </trkpt>
      <trkpt lat="43.5196" lon="6.3128">
        <ele>315.4</ele>
        <time>2023-09-15T13:41:41Z</time>
      </trkpt>
      <trkpt lat="43.5196" lon="6.3128">
        <ele>315.5</ele>
        <time>2023-09-15T13:41:42Z</time>
      </trkpt>
      <trkpt lat="43.5196" lon="6.3128">
        <ele>315.5</ele>
        <time>2023-09-15T13:41:43Z</time>
      </trkpt>
      <trkpt lat="43.5196" lon="6.3128">
        <ele>315.5</ele>
        <time>2023-09-15T13:41:44Z</time>
      </trkpt>
      <trkpt lat="43.5196" lon="6.3128">
        <ele>315.4</ele>
        <time>2023-09-15T13:41:45Z</time>
      </trkpt>
      <trkpt lat="43.5196" lon="6.3128">
        <ele>315.4</ele>
        <time>2023-09-15T13:41:46Z</time>
      </trkpt>
      <trkpt lat="43.5196" lon="6.3128">
        <ele>315.3</ele>
        <time>2023-09-15T13:41:47Z</time>
      </trkpt>
      <trkpt lat="43.5196" lon="6.3128">
        <ele>315.3</ele>
        <time>2023-09-15T13:41:48Z</time>
      </trkpt>
      <trkpt lat="43.5196" lon="6.3128">
        <ele>315.3</ele>
        <time>2023-09-15T13:41:49Z</time>
      </trkpt>
      <trkpt lat="43.5196" lon="6.3128">
        <ele>315.3</ele>
        <time>2023-09-15T13:41:50Z</time>
      </trkpt>
      <trkpt lat="43.5196" lon="6.3128">
        <ele>315.2</ele>
        <time>2023-09-15T13:41:51Z</time>
      </trkpt>
      <trkpt lat="43.5196" lon="6.3128">
        <ele>315.2</ele>
        <time>2023-09-15T13:41:52Z</time>
      </trkpt>
      <trkpt lat="43.5196" lon="6.31279">
        <ele>315.3</ele>
        <time>2023-09-15T13:41:53Z</time>
      </trkpt>
      <trkpt lat="43.5196" lon="6.31279">
        <ele>315.3</ele>
        <time>2023-09-15T13:41:54Z</time>
      </trkpt>
      <trkpt lat="43.5196" lon="6.31279">
        <ele>315.3</ele>
        <time>2023-09-15T13:41:55Z</time>
      </trkpt>
      <trkpt lat="43.51959" lon="6.3128">
        <ele>315.2</ele>
        <time>2023-09-15T13:41:56Z</time>
      </trkpt>
      <trkpt lat="43.51959" lon="6.3128">
        <ele>315.3</ele>
        <time>2023-09-15T13:41:57Z</time>
      </trkpt>
      <trkpt lat="43.51959" lon="6.3128">
        <ele>315.3</ele>
        <time>2023-09-15T13:41:58Z</time>
      </trkpt>
      <trkpt lat="43.51959" lon="6.3128">
        <ele>315.3</ele>
        <time>2023-09-15T13:41:59Z</time>
      </trkpt>
      <trkpt lat="43.51959" lon="6.3128">
        <ele>315.3</ele>
        <time>2023-09-15T13:42:00Z</time>
      </trkpt>
      <trkpt lat="43.51959" lon="6.31279">
        <ele>315.3</ele>
        <time>2023-09-15T13:42:01Z</time>
      </trkpt>
      <trkpt lat="43.51959" lon="6.3128">
        <ele>315.2</ele>
        <time>2023-09-15T13:42:02Z</time>
      </trkpt>
      <trkpt lat="43.5196" lon="6.3128">
        <ele>315.3</ele>
        <time>2023-09-15T13:42:03Z</time>
      </trkpt>
      <trkpt lat="43.5196" lon="6.3128">
        <ele>315.3</ele>
        <time>2023-09-15T13:42:04Z</time>
      </trkpt>
      <trkpt lat="43.5196" lon="6.3128">
        <ele>315.3</ele>
        <time>2023-09-15T13:42:05Z</time>
      </trkpt>
      <trkpt lat="43.5196" lon="6.3128">
        <ele>315.4</ele>
        <time>2023-09-15T13:42:06Z</time>
      </trkpt>
      <trkpt lat="43.5196" lon="6.31279">
        <ele>315.3</ele>
        <time>2023-09-15T13:42:07Z</time>
      </trkpt>
      <trkpt lat="43.5196" lon="6.31279">
        <ele>315.3</ele>
        <time>2023-09-15T13:42:08Z</time>
      </trkpt>
      <trkpt lat="43.5196" lon="6.31279">
        <ele>315.3</ele>
        <time>2023-09-15T13:42:09Z</time>
      </trkpt>
      <trkpt lat="43.5196" lon="6.31279">
        <ele>315.3</ele>
        <time>2023-09-15T13:42:10Z</time>
      </trkpt>
      <trkpt lat="43.5196" lon="6.31279">
        <ele>315.3</ele>
        <time>2023-09-15T13:42:11Z</time>
      </trkpt>
      <trkpt lat="43.5196" lon="6.31279">
        <ele>315.3</ele>
        <time>2023-09-15T13:42:12Z</time>
      </trkpt>
      <trkpt lat="43.5196" lon="6.31279">
        <ele>315.3</ele>
        <time>2023-09-15T13:42:13Z</time>
      </trkpt>
      <trkpt lat="43.5196" lon="6.31278">
        <ele>315.3</ele>
        <time>2023-09-15T13:42:14Z</time>
      </trkpt>
      <trkpt lat="43.5196" lon="6.31278">
        <ele>315.3</ele>
        <time>2023-09-15T13:42:15Z</time>
      </trkpt>
      <trkpt lat="43.51959" lon="6.31278">
        <ele>315.3</ele>
        <time>2023-09-15T13:42:16Z</time>
      </trkpt>
      <trkpt lat="43.51959" lon="6.31278">
        <ele>315.3</ele>
        <time>2023-09-15T13:42:17Z</time>
      </trkpt>
      <trkpt lat="43.51959" lon="6.31278">
        <ele>315.3</ele>
        <time>2023-09-15T13:42:18Z</time>
      </trkpt>
      <trkpt lat="43.51959" lon="6.31278">
        <ele>315.3</ele>
        <time>2023-09-15T13:42:19Z</time>
      </trkpt>
      <trkpt lat="43.5196" lon="6.31278">
        <ele>315.4</ele>
        <time>2023-09-15T13:42:20Z</time>
      </trkpt>
      <trkpt lat="43.5196" lon="6.31278">
        <ele>315.4</ele>
        <time>2023-09-15T13:42:21Z</time>
      </trkpt>
      <trkpt lat="43.5196" lon="6.31278">
        <ele>315.3</ele>
        <time>2023-09-15T13:42:22Z</time>
      </trkpt>
      <trkpt lat="43.5196" lon="6.31278">
        <ele>315.3</ele>
        <time>2023-09-15T13:42:23Z</time>
      </trkpt>
      <trkpt lat="43.5196" lon="6.31278">
        <ele>315.3</ele>
        <time>2023-09-15T13:42:24Z</time>
      </trkpt>
      <trkpt lat="43.5196" lon="6.31278">
        <ele>315.3</ele>
        <time>2023-09-15T13:42:25Z</time>
      </trkpt>
      <trkpt lat="43.5196" lon="6.31278">
        <ele>315.3</ele>
        <time>2023-09-15T13:42:26Z</time>
      </trkpt>
      <trkpt lat="43.5196" lon="6.31278">
        <ele>315.3</ele>
        <time>2023-09-15T13:42:27Z</time>
      </trkpt>
      <trkpt lat="43.5196" lon="6.31278">
        <ele>315.4</ele>
        <time>2023-09-15T13:42:28Z</time>
      </trkpt>
      <trkpt lat="43.5196" lon="6.31278">
        <ele>315.4</ele>
        <time>2023-09-15T13:42:29Z</time>
      </trkpt>
      <trkpt lat="43.51961" lon="6.31278">
        <ele>315.5</ele>
        <time>2023-09-15T13:42:30Z</time>
      </trkpt>
      <trkpt lat="43.51961" lon="6.31278">
        <ele>315.5</ele>
        <time>2023-09-15T13:42:31Z</time>
      </trkpt>
      <trkpt lat="43.51961" lon="6.31278">
        <ele>315.6</ele>
        <time>2023-09-15T13:42:32Z</time>
      </trkpt>
      <trkpt lat="43.51961" lon="6.31278">
        <ele>315.6</ele>
        <time>2023-09-15T13:42:33Z</time>
      </trkpt>
      <trkpt lat="43.51961" lon="6.31278">
        <ele>315.5</ele>
        <time>2023-09-15T13:42:34Z</time>
      </trkpt>
      <trkpt lat="43.51961" lon="6.31278">
        <ele>315.5</ele>
        <time>2023-09-15T13:42:35Z</time>
      </trkpt>
      <trkpt lat="43.51961" lon="6.31278">
        <ele>315.6</ele>
        <time>2023-09-15T13:42:36Z</time>
      </trkpt>
      <trkpt lat="43.51961" lon="6.31278">
        <ele>315.6</ele>
        <time>2023-09-15T13:42:37Z</time>
      </trkpt>
      <trkpt lat="43.51961" lon="6.31278">
        <ele>315.6</ele>
        <time>2023-09-15T13:42:38Z</time>
      </trkpt>
      <trkpt lat="43.51961" lon="6.31278">
        <ele>315.6</ele>
        <time>2023-09-15T13:42:39Z</time>
      </trkpt>
      <trkpt lat="43.51961" lon="6.31278">
        <ele>315.6</ele>
        <time>2023-09-15T13:42:40Z</time>
      </trkpt>
      <trkpt lat="43.51962" lon="6.31278">
        <ele>315.6</ele>
        <time>2023-09-15T13:42:41Z</time>
      </trkpt>
      <trkpt lat="43.51962" lon="6.31278">
        <ele>315.6</ele>
        <time>2023-09-15T13:42:42Z</time>
      </trkpt>
      <trkpt lat="43.51962" lon="6.31278">
        <ele>315.6</ele>
        <time>2023-09-15T13:42:43Z</time>
      </trkpt>
      <trkpt lat="43.51962" lon="6.31278">
        <ele>315.6</ele>
        <time>2023-09-15T13:42:44Z</time>
      </trkpt>
      <trkpt lat="43.51962" lon="6.31278">
        <ele>315.6</ele>
        <time>2023-09-15T13:42:45Z</time>
      </trkpt>
      <trkpt lat="43.51962" lon="6.31278">
        <ele>315.6</ele>
        <time>2023-09-15T13:42:46Z</time>
      </trkpt>
      <trkpt lat="43.51962" lon="6.31278">
        <ele>315.5</ele>
        <time>2023-09-15T13:42:47Z</time>
      </trkpt>
      <trkpt lat="43.51962" lon="6.31278">
        <ele>315.5</ele>
        <time>2023-09-15T13:42:48Z</time>
      </trkpt>
      <trkpt lat="43.51962" lon="6.31277">
        <ele>315.5</ele>
        <time>2023-09-15T13:42:49Z</time>
      </trkpt>
      <trkpt lat="43.51962" lon="6.31277">
        <ele>315.4</ele>
        <time>2023-09-15T13:42:50Z</time>
      </trkpt>
      <trkpt lat="43.51962" lon="6.31277">
        <ele>315.4</ele>
        <time>2023-09-15T13:42:51Z</time>
      </trkpt>
      <trkpt lat="43.51962" lon="6.31277">
        <ele>315.4</ele>
        <time>2023-09-15T13:42:52Z</time>
      </trkpt>
      <trkpt lat="43.51962" lon="6.31277">
        <ele>315.4</ele>
        <time>2023-09-15T13:42:53Z</time>
      </trkpt>
      <trkpt lat="43.51962" lon="6.31277">
        <ele>315.4</ele>
        <time>2023-09-15T13:42:54Z</time>
      </trkpt>
      <trkpt lat="43.51962" lon="6.31277">
        <ele>315.4</ele>
        <time>2023-09-15T13:42:55Z</time>
      </trkpt>
      <trkpt lat="43.51962" lon="6.31277">
        <ele>315.4</ele>
        <time>2023-09-15T13:42:56Z</time>
      </trkpt>
      <trkpt lat="43.51962" lon="6.31277">
        <ele>315.3</ele>
        <time>2023-09-15T13:42:57Z</time>
      </trkpt>
      <trkpt lat="43.51962" lon="6.31277">
        <ele>315.3</ele>
        <time>2023-09-15T13:42:58Z</time>
      </trkpt>
      <trkpt lat="43.51962" lon="6.31277">
        <ele>315.3</ele>
        <time>2023-09-15T13:42:59Z</time>
      </trkpt>
      <trkpt lat="43.51962" lon="6.31277">
        <ele>315.3</ele>
        <time>2023-09-15T13:43:00Z</time>
      </trkpt>
      <trkpt lat="43.51962" lon="6.31277">
        <ele>315.3</ele>
        <time>2023-09-15T13:43:01Z</time>
      </trkpt>
      <trkpt lat="43.51962" lon="6.31277">
        <ele>315.4</ele>
        <time>2023-09-15T13:43:02Z</time>
      </trkpt>
      <trkpt lat="43.51962" lon="6.31277">
        <ele>315.5</ele>
        <time>2023-09-15T13:43:03Z</time>
      </trkpt>
      <trkpt lat="43.51962" lon="6.31276">
        <ele>315.5</ele>
        <time>2023-09-15T13:43:04Z</time>
      </trkpt>
      <trkpt lat="43.51963" lon="6.31276">
        <ele>315.5</ele>
        <time>2023-09-15T13:43:05Z</time>
      </trkpt>
      <trkpt lat="43.51963" lon="6.31276">
        <ele>315.5</ele>
        <time>2023-09-15T13:43:06Z</time>
      </trkpt>
      <trkpt lat="43.51963" lon="6.31276">
        <ele>315.5</ele>
        <time>2023-09-15T13:43:07Z</time>
      </trkpt>
      <trkpt lat="43.51963" lon="6.31276">
        <ele>315.4</ele>
        <time>2023-09-15T13:43:08Z</time>
      </trkpt>
      <trkpt lat="43.51963" lon="6.31276">
        <ele>315.3</ele>
        <time>2023-09-15T13:43:09Z</time>
      </trkpt>
      <trkpt lat="43.51963" lon="6.31276">
        <ele>315.3</ele>
        <time>2023-09-15T13:43:10Z</time>
      </trkpt>
      <trkpt lat="43.51963" lon="6.31276">
        <ele>315.3</ele>
        <time>2023-09-15T13:43:11Z</time>
      </trkpt>
      <trkpt lat="43.51963" lon="6.31276">
        <ele>315.3</ele>
        <time>2023-09-15T13:43:12Z</time>
      </trkpt>
      <trkpt lat="43.51963" lon="6.31277">
        <ele>315.3</ele>
        <time>2023-09-15T13:43:13Z</time>
      </trkpt>
      <trkpt lat="43.51963" lon="6.31277">
        <ele>315.4</ele>
        <time>2023-09-15T13:43:14Z</time>
      </trkpt>
      <trkpt lat="43.51964" lon="6.31277">
        <ele>315.4</ele>
        <time>2023-09-15T13:43:15Z</time>
      </trkpt>
      <trkpt lat="43.51963" lon="6.31277">
        <ele>315.3</ele>
        <time>2023-09-15T13:43:16Z</time>
      </trkpt>
      <trkpt lat="43.51964" lon="6.31278">
        <ele>315.2</ele>
        <time>2023-09-15T13:43:17Z</time>
      </trkpt>
      <trkpt lat="43.51963" lon="6.31278">
        <ele>315.2</ele>
        <time>2023-09-15T13:43:18Z</time>
      </trkpt>
      <trkpt lat="43.51963" lon="6.31278">
        <ele>315.2</ele>
        <time>2023-09-15T13:43:19Z</time>
      </trkpt>
      <trkpt lat="43.51963" lon="6.31278">
        <ele>315.1</ele>
        <time>2023-09-15T13:43:20Z</time>
      </trkpt>
      <trkpt lat="43.51963" lon="6.31278">
        <ele>315.2</ele>
        <time>2023-09-15T13:43:21Z</time>
      </trkpt>
      <trkpt lat="43.51963" lon="6.31278">
        <ele>315.2</ele>
        <time>2023-09-15T13:43:22Z</time>
      </trkpt>
      <trkpt lat="43.51963" lon="6.31278">
        <ele>315.2</ele>
        <time>2023-09-15T13:43:23Z</time>
      </trkpt>
      <trkpt lat="43.51963" lon="6.31278">
        <ele>315.1</ele>
        <time>2023-09-15T13:43:24Z</time>
      </trkpt>
      <trkpt lat="43.51963" lon="6.31278">
        <ele>315.1</ele>
        <time>2023-09-15T13:43:25Z</time>
      </trkpt>
      <trkpt lat="43.51963" lon="6.31278">
        <ele>315.1</ele>
        <time>2023-09-15T13:43:26Z</time>
      </trkpt>
      <trkpt lat="43.51963" lon="6.31278">
        <ele>315.1</ele>
        <time>2023-09-15T13:43:27Z</time>
      </trkpt>
      <trkpt lat="43.51962" lon="6.31278">
        <ele>315.1</ele>
        <time>2023-09-15T13:43:28Z</time>
      </trkpt>
      <trkpt lat="43.51962" lon="6.31278">
        <ele>315.1</ele>
        <time>2023-09-15T13:43:29Z</time>
      </trkpt>
      <trkpt lat="43.51962" lon="6.31278">
        <ele>315.1</ele>
        <time>2023-09-15T13:43:30Z</time>
      </trkpt>
      <trkpt lat="43.51962" lon="6.31278">
        <ele>315.2</ele>
        <time>2023-09-15T13:43:31Z</time>
      </trkpt>
      <trkpt lat="43.51963" lon="6.31278">
        <ele>315.2</ele>
        <time>2023-09-15T13:43:32Z</time>
      </trkpt>
      <trkpt lat="43.51963" lon="6.31279">
        <ele>315.2</ele>
        <time>2023-09-15T13:43:33Z</time>
      </trkpt>
      <trkpt lat="43.51964" lon="6.31279">
        <ele>315.2</ele>
        <time>2023-09-15T13:43:34Z</time>
      </trkpt>
      <trkpt lat="43.51965" lon="6.31279">
        <ele>315.4</ele>
        <time>2023-09-15T13:43:35Z</time>
      </trkpt>
      <trkpt lat="43.51965" lon="6.3128">
        <ele>315.4</ele>
        <time>2023-09-15T13:43:36Z</time>
      </trkpt>
      <trkpt lat="43.51965" lon="6.3128">
        <ele>315.4</ele>
        <time>2023-09-15T13:43:37Z</time>
      </trkpt>
      <trkpt lat="43.51965" lon="6.3128">
        <ele>315.3</ele>
        <time>2023-09-15T13:43:38Z</time>
      </trkpt>
      <trkpt lat="43.51965" lon="6.3128">
        <ele>315.4</ele>
        <time>2023-09-15T13:43:39Z</time>
      </trkpt>
      <trkpt lat="43.51966" lon="6.31279">
        <ele>315.4</ele>
        <time>2023-09-15T13:43:40Z</time>
      </trkpt>
      <trkpt lat="43.51966" lon="6.31279">
        <ele>315.5</ele>
        <time>2023-09-15T13:43:41Z</time>
      </trkpt>
      <trkpt lat="43.51966" lon="6.3128">
        <ele>315.4</ele>
        <time>2023-09-15T13:43:42Z</time>
      </trkpt>
      <trkpt lat="43.51967" lon="6.3128">
        <ele>315.2</ele>
        <time>2023-09-15T13:43:43Z</time>
      </trkpt>
      <trkpt lat="43.51967" lon="6.31281">
        <ele>315.1</ele>
        <time>2023-09-15T13:43:44Z</time>
      </trkpt>
      <trkpt lat="43.51967" lon="6.31281">
        <ele>315.1</ele>
        <time>2023-09-15T13:43:45Z</time>
      </trkpt>
      <trkpt lat="43.51967" lon="6.31281">
        <ele>314.9</ele>
        <time>2023-09-15T13:43:46Z</time>
      </trkpt>
      <trkpt lat="43.51966" lon="6.31281">
        <ele>314.9</ele>
        <time>2023-09-15T13:43:47Z</time>
      </trkpt>
      <trkpt lat="43.51966" lon="6.31281">
        <ele>314.9</ele>
        <time>2023-09-15T13:43:48Z</time>
      </trkpt>
      <trkpt lat="43.51966" lon="6.31281">
        <ele>314.8</ele>
        <time>2023-09-15T13:43:49Z</time>
      </trkpt>
      <trkpt lat="43.51966" lon="6.31281">
        <ele>314.8</ele>
        <time>2023-09-15T13:43:50Z</time>
      </trkpt>
      <trkpt lat="43.51966" lon="6.31282">
        <ele>314.8</ele>
        <time>2023-09-15T13:43:51Z</time>
      </trkpt>
      <trkpt lat="43.51966" lon="6.31282">
        <ele>314.8</ele>
        <time>2023-09-15T13:43:52Z</time>
      </trkpt>
      <trkpt lat="43.51966" lon="6.31281">
        <ele>314.8</ele>
        <time>2023-09-15T13:43:53Z</time>
      </trkpt>
      <trkpt lat="43.51966" lon="6.31281">
        <ele>314.8</ele>
        <time>2023-09-15T13:43:54Z</time>
      </trkpt>
      <trkpt lat="43.51967" lon="6.31281">
        <ele>314.9</ele>
        <time>2023-09-15T13:43:55Z</time>
      </trkpt>
      <trkpt lat="43.51967" lon="6.31281">
        <ele>315</ele>
        <time>2023-09-15T13:43:56Z</time>
      </trkpt>
      <trkpt lat="43.51968" lon="6.3128">
        <ele>315</ele>
        <time>2023-09-15T13:43:57Z</time>
      </trkpt>
      <trkpt lat="43.51968" lon="6.31279">
        <ele>315</ele>
        <time>2023-09-15T13:43:58Z</time>
      </trkpt>
      <trkpt lat="43.51969" lon="6.31278">
        <ele>315</ele>
        <time>2023-09-15T13:43:59Z</time>
      </trkpt>
      <trkpt lat="43.51969" lon="6.31278">
        <ele>315</ele>
        <time>2023-09-15T13:44:00Z</time>
      </trkpt>
      <trkpt lat="43.5197" lon="6.31278">
        <ele>315</ele>
        <time>2023-09-15T13:44:01Z</time>
      </trkpt>
      <trkpt lat="43.51971" lon="6.31279">
        <ele>314.8</ele>
        <time>2023-09-15T13:44:02Z</time>
      </trkpt>
      <trkpt lat="43.51971" lon="6.31279">
        <ele>314.8</ele>
        <time>2023-09-15T13:44:03Z</time>
      </trkpt>
      <trkpt lat="43.51972" lon="6.31279">
        <ele>314.7</ele>
        <time>2023-09-15T13:44:04Z</time>
      </trkpt>
      <trkpt lat="43.51973" lon="6.31278">
        <ele>314.7</ele>
        <time>2023-09-15T13:44:05Z</time>
      </trkpt>
      <trkpt lat="43.51973" lon="6.31279">
        <ele>314.6</ele>
        <time>2023-09-15T13:44:06Z</time>
      </trkpt>
      <trkpt lat="43.51974" lon="6.3128">
        <ele>314.6</ele>
        <time>2023-09-15T13:44:07Z</time>
      </trkpt>
      <trkpt lat="43.51975" lon="6.31279">
        <ele>314.6</ele>
        <time>2023-09-15T13:44:08Z</time>
      </trkpt>
      <trkpt lat="43.51975" lon="6.31279">
        <ele>314.6</ele>
        <time>2023-09-15T13:44:09Z</time>
      </trkpt>
      <trkpt lat="43.51976" lon="6.31279">
        <ele>314.5</ele>
        <time>2023-09-15T13:44:10Z</time>
      </trkpt>
      <trkpt lat="43.51977" lon="6.31278">
        <ele>314.6</ele>
        <time>2023-09-15T13:44:11Z</time>
      </trkpt>
      <trkpt lat="43.51977" lon="6.31278">
        <ele>314.6</ele>
        <time>2023-09-15T13:44:12Z</time>
      </trkpt>
      <trkpt lat="43.51978" lon="6.31278">
        <ele>314.6</ele>
        <time>2023-09-15T13:44:13Z</time>
      </trkpt>
      <trkpt lat="43.51979" lon="6.31278">
        <ele>314.7</ele>
        <time>2023-09-15T13:44:14Z</time>
      </trkpt>
      <trkpt lat="43.5198" lon="6.31277">
        <ele>314.9</ele>
        <time>2023-09-15T13:44:15Z</time>
      </trkpt>
      <trkpt lat="43.5198" lon="6.31278">
        <ele>315</ele>
        <time>2023-09-15T13:44:16Z</time>
      </trkpt>
      <trkpt lat="43.51981" lon="6.31278">
        <ele>315.1</ele>
        <time>2023-09-15T13:44:17Z</time>
      </trkpt>
      <trkpt lat="43.51981" lon="6.31278">
        <ele>315.2</ele>
        <time>2023-09-15T13:44:18Z</time>
      </trkpt>
      <trkpt lat="43.51982" lon="6.31277">
        <ele>315.3</ele>
        <time>2023-09-15T13:44:19Z</time>
      </trkpt>
      <trkpt lat="43.51983" lon="6.31276">
        <ele>315.5</ele>
        <time>2023-09-15T13:44:20Z</time>
      </trkpt>
      <trkpt lat="43.51984" lon="6.31275">
        <ele>315.7</ele>
        <time>2023-09-15T13:44:21Z</time>
      </trkpt>
      <trkpt lat="43.51985" lon="6.31273">
        <ele>315.8</ele>
        <time>2023-09-15T13:44:22Z</time>
      </trkpt>
      <trkpt lat="43.51985" lon="6.31273">
        <ele>316</ele>
        <time>2023-09-15T13:44:23Z</time>
      </trkpt>
      <trkpt lat="43.51986" lon="6.31271">
        <ele>316.1</ele>
        <time>2023-09-15T13:44:24Z</time>
      </trkpt>
      <trkpt lat="43.51986" lon="6.3127">
        <ele>316.2</ele>
        <time>2023-09-15T13:44:25Z</time>
      </trkpt>
      <trkpt lat="43.51986" lon="6.31269">
        <ele>316.2</ele>
        <time>2023-09-15T13:44:26Z</time>
      </trkpt>
      <trkpt lat="43.51986" lon="6.31268">
        <ele>316.4</ele>
        <time>2023-09-15T13:44:27Z</time>
      </trkpt>
      <trkpt lat="43.51986" lon="6.31267">
        <ele>316.4</ele>
        <time>2023-09-15T13:44:28Z</time>
      </trkpt>
      <trkpt lat="43.51986" lon="6.31267">
        <ele>316.5</ele>
        <time>2023-09-15T13:44:29Z</time>
      </trkpt>
      <trkpt lat="43.51986" lon="6.31266">
        <ele>316.6</ele>
        <time>2023-09-15T13:44:30Z</time>
      </trkpt>
      <trkpt lat="43.51986" lon="6.31266">
        <ele>316.6</ele>
        <time>2023-09-15T13:44:31Z</time>
      </trkpt>
      <trkpt lat="43.51986" lon="6.31265">
        <ele>316.6</ele>
        <time>2023-09-15T13:44:32Z</time>
      </trkpt>
      <trkpt lat="43.51986" lon="6.31265">
        <ele>316.7</ele>
        <time>2023-09-15T13:44:33Z</time>
      </trkpt>
      <trkpt lat="43.51986" lon="6.31265">
        <ele>316.7</ele>
        <time>2023-09-15T13:44:34Z</time>
      </trkpt>
      <trkpt lat="43.51985" lon="6.31265">
        <ele>316.7</ele>
        <time>2023-09-15T13:44:35Z</time>
      </trkpt>
      <trkpt lat="43.51985" lon="6.31265">
        <ele>316.7</ele>
        <time>2023-09-15T13:44:36Z</time>
      </trkpt>
      <trkpt lat="43.51986" lon="6.31265">
        <ele>316.7</ele>
        <time>2023-09-15T13:44:37Z</time>
      </trkpt>
      <trkpt lat="43.51986" lon="6.31265">
        <ele>316.8</ele>
        <time>2023-09-15T13:44:38Z</time>
      </trkpt>
      <trkpt lat="43.51986" lon="6.31265">
        <ele>316.8</ele>
        <time>2023-09-15T13:44:39Z</time>
      </trkpt>
      <trkpt lat="43.51986" lon="6.31265">
        <ele>316.9</ele>
        <time>2023-09-15T13:44:40Z</time>
      </trkpt>
      <trkpt lat="43.51986" lon="6.31265">
        <ele>316.9</ele>
        <time>2023-09-15T13:44:41Z</time>
      </trkpt>
      <trkpt lat="43.51986" lon="6.31265">
        <ele>317</ele>
        <time>2023-09-15T13:44:42Z</time>
      </trkpt>
      <trkpt lat="43.51987" lon="6.31265">
        <ele>316.6</ele>
        <time>2023-09-15T13:44:43Z</time>
      </trkpt>
      <trkpt lat="43.51988" lon="6.31264">
        <ele>316.6</ele>
        <time>2023-09-15T13:44:44Z</time>
      </trkpt>
      <trkpt lat="43.51988" lon="6.31262">
        <ele>316.6</ele>
        <time>2023-09-15T13:44:45Z</time>
      </trkpt>
      <trkpt lat="43.51988" lon="6.31262">
        <ele>316.6</ele>
        <time>2023-09-15T13:44:46Z</time>
      </trkpt>
      <trkpt lat="43.51988" lon="6.3126">
        <ele>316.6</ele>
        <time>2023-09-15T13:44:47Z</time>
      </trkpt>
      <trkpt lat="43.51988" lon="6.31259">
        <ele>316.7</ele>
        <time>2023-09-15T13:44:48Z</time>
      </trkpt>
      <trkpt lat="43.51989" lon="6.31258">
        <ele>316.6</ele>
        <time>2023-09-15T13:44:49Z</time>
      </trkpt>
      <trkpt lat="43.51989" lon="6.31257">
        <ele>316.5</ele>
        <time>2023-09-15T13:44:50Z</time>
      </trkpt>
      <trkpt lat="43.51989" lon="6.31255">
        <ele>316.5</ele>
        <time>2023-09-15T13:44:51Z</time>
      </trkpt>
      <trkpt lat="43.51989" lon="6.31253">
        <ele>316.5</ele>
        <time>2023-09-15T13:44:52Z</time>
      </trkpt>
      <trkpt lat="43.51989" lon="6.31252">
        <ele>316.4</ele>
        <time>2023-09-15T13:44:53Z</time>
      </trkpt>
      <trkpt lat="43.51989" lon="6.31251">
        <ele>316.4</ele>
        <time>2023-09-15T13:44:54Z</time>
      </trkpt>
      <trkpt lat="43.51989" lon="6.3125">
        <ele>316.4</ele>
        <time>2023-09-15T13:44:55Z</time>
      </trkpt>
      <trkpt lat="43.51989" lon="6.31249">
        <ele>316.4</ele>
        <time>2023-09-15T13:44:56Z</time>
      </trkpt>
      <trkpt lat="43.51989" lon="6.31247">
        <ele>316.6</ele>
        <time>2023-09-15T13:44:57Z</time>
      </trkpt>
      <trkpt lat="43.51989" lon="6.31246">
        <ele>316.8</ele>
        <time>2023-09-15T13:44:58Z</time>
      </trkpt>
      <trkpt lat="43.51989" lon="6.31246">
        <ele>316.9</ele>
        <time>2023-09-15T13:44:59Z</time>
      </trkpt>
      <trkpt lat="43.51989" lon="6.31245">
        <ele>317</ele>
        <time>2023-09-15T13:45:00Z</time>
      </trkpt>
      <trkpt lat="43.51989" lon="6.31245">
        <ele>317</ele>
        <time>2023-09-15T13:45:01Z</time>
      </trkpt>
      <trkpt lat="43.51989" lon="6.31244">
        <ele>317</ele>
        <time>2023-09-15T13:45:02Z</time>
      </trkpt>
      <trkpt lat="43.51988" lon="6.31243">
        <ele>317.1</ele>
        <time>2023-09-15T13:45:03Z</time>
      </trkpt>
      <trkpt lat="43.51989" lon="6.31243">
        <ele>317.2</ele>
        <time>2023-09-15T13:45:04Z</time>
      </trkpt>
      <trkpt lat="43.51986" lon="6.31244">
        <ele>317.7</ele>
        <time>2023-09-15T13:45:05Z</time>
      </trkpt>
      <trkpt lat="43.51987" lon="6.31243">
        <ele>318</ele>
        <time>2023-09-15T13:45:06Z</time>
      </trkpt>
      <trkpt lat="43.51987" lon="6.31243">
        <ele>316.7</ele>
        <time>2023-09-15T13:45:07Z</time>
      </trkpt>
      <trkpt lat="43.51987" lon="6.31243">
        <ele>316.9</ele>
        <time>2023-09-15T13:45:08Z</time>
      </trkpt>
      <trkpt lat="43.51986" lon="6.31242">
        <ele>317.1</ele>
        <time>2023-09-15T13:45:09Z</time>
      </trkpt>
      <trkpt lat="43.51987" lon="6.31241">
        <ele>317.2</ele>
        <time>2023-09-15T13:45:10Z</time>
      </trkpt>
      <trkpt lat="43.51986" lon="6.3124">
        <ele>317.4</ele>
        <time>2023-09-15T13:45:11Z</time>
      </trkpt>
      <trkpt lat="43.51987" lon="6.31239">
        <ele>317.4</ele>
        <time>2023-09-15T13:45:12Z</time>
      </trkpt>
      <trkpt lat="43.51986" lon="6.31237">
        <ele>317.6</ele>
        <time>2023-09-15T13:45:13Z</time>
      </trkpt>
      <trkpt lat="43.51986" lon="6.31236">
        <ele>317.4</ele>
        <time>2023-09-15T13:45:14Z</time>
      </trkpt>
      <trkpt lat="43.51986" lon="6.31235">
        <ele>317.4</ele>
        <time>2023-09-15T13:45:15Z</time>
      </trkpt>
      <trkpt lat="43.51986" lon="6.31234">
        <ele>317.4</ele>
        <time>2023-09-15T13:45:16Z</time>
      </trkpt>
      <trkpt lat="43.51985" lon="6.31233">
        <ele>317.4</ele>
        <time>2023-09-15T13:45:17Z</time>
      </trkpt>
      <trkpt lat="43.51985" lon="6.31232">
        <ele>317.2</ele>
        <time>2023-09-15T13:45:18Z</time>
      </trkpt>
      <trkpt lat="43.51985" lon="6.31232">
        <ele>317</ele>
        <time>2023-09-15T13:45:19Z</time>
      </trkpt>
      <trkpt lat="43.51984" lon="6.31231">
        <ele>316.9</ele>
        <time>2023-09-15T13:45:20Z</time>
      </trkpt>
      <trkpt lat="43.51984" lon="6.31231">
        <ele>316.9</ele>
        <time>2023-09-15T13:45:21Z</time>
      </trkpt>
      <trkpt lat="43.51984" lon="6.31231">
        <ele>316.8</ele>
        <time>2023-09-15T13:45:22Z</time>
      </trkpt>
      <trkpt lat="43.51983" lon="6.31231">
        <ele>316.8</ele>
        <time>2023-09-15T13:45:23Z</time>
      </trkpt>
      <trkpt lat="43.51983" lon="6.31231">
        <ele>316.7</ele>
        <time>2023-09-15T13:45:24Z</time>
      </trkpt>
      <trkpt lat="43.51983" lon="6.31231">
        <ele>316.7</ele>
        <time>2023-09-15T13:45:25Z</time>
      </trkpt>
      <trkpt lat="43.51983" lon="6.31231">
        <ele>316.5</ele>
        <time>2023-09-15T13:45:26Z</time>
      </trkpt>
      <trkpt lat="43.51983" lon="6.31232">
        <ele>316.4</ele>
        <time>2023-09-15T13:45:27Z</time>
      </trkpt>
      <trkpt lat="43.51982" lon="6.31232">
        <ele>316.3</ele>
        <time>2023-09-15T13:45:28Z</time>
      </trkpt>
      <trkpt lat="43.51982" lon="6.31232">
        <ele>316.3</ele>
        <time>2023-09-15T13:45:29Z</time>
      </trkpt>
      <trkpt lat="43.51982" lon="6.31232">
        <ele>316.4</ele>
        <time>2023-09-15T13:45:30Z</time>
      </trkpt>
      <trkpt lat="43.51982" lon="6.31232">
        <ele>316.5</ele>
        <time>2023-09-15T13:45:31Z</time>
      </trkpt>
      <trkpt lat="43.51982" lon="6.31233">
        <ele>316.6</ele>
        <time>2023-09-15T13:45:32Z</time>
      </trkpt>
      <trkpt lat="43.51981" lon="6.31233">
        <ele>316.6</ele>
        <time>2023-09-15T13:45:33Z</time>
      </trkpt>
      <trkpt lat="43.51981" lon="6.31233">
        <ele>316.6</ele>
        <time>2023-09-15T13:45:34Z</time>
      </trkpt>
      <trkpt lat="43.51981" lon="6.31233">
        <ele>316.6</ele>
        <time>2023-09-15T13:45:35Z</time>
      </trkpt>
      <trkpt lat="43.51981" lon="6.31233">
        <ele>316.6</ele>
        <time>2023-09-15T13:45:36Z</time>
      </trkpt>
      <trkpt lat="43.51981" lon="6.31233">
        <ele>316.6</ele>
        <time>2023-09-15T13:45:37Z</time>
      </trkpt>
      <trkpt lat="43.51981" lon="6.31234">
        <ele>316.6</ele>
        <time>2023-09-15T13:45:38Z</time>
      </trkpt>
      <trkpt lat="43.51981" lon="6.31234">
        <ele>316.6</ele>
        <time>2023-09-15T13:45:39Z</time>
      </trkpt>
      <trkpt lat="43.51981" lon="6.31234">
        <ele>316.6</ele>
        <time>2023-09-15T13:45:40Z</time>
      </trkpt>
      <trkpt lat="43.5198" lon="6.31234">
        <ele>316.6</ele>
        <time>2023-09-15T13:45:41Z</time>
      </trkpt>
      <trkpt lat="43.5198" lon="6.31235">
        <ele>316.6</ele>
        <time>2023-09-15T13:45:42Z</time>
      </trkpt>
      <trkpt lat="43.5198" lon="6.31235">
        <ele>316.6</ele>
        <time>2023-09-15T13:45:43Z</time>
      </trkpt>
      <trkpt lat="43.5198" lon="6.31235">
        <ele>316.6</ele>
        <time>2023-09-15T13:45:44Z</time>
      </trkpt>
      <trkpt lat="43.5198" lon="6.31235">
        <ele>316.6</ele>
        <time>2023-09-15T13:45:45Z</time>
      </trkpt>
      <trkpt lat="43.5198" lon="6.31234">
        <ele>316.5</ele>
        <time>2023-09-15T13:45:46Z</time>
      </trkpt>
      <trkpt lat="43.51981" lon="6.31233">
        <ele>316.5</ele>
        <time>2023-09-15T13:45:47Z</time>
      </trkpt>
      <trkpt lat="43.51981" lon="6.31233">
        <ele>316.4</ele>
        <time>2023-09-15T13:45:48Z</time>
      </trkpt>
      <trkpt lat="43.5198" lon="6.31233">
        <ele>316.4</ele>
        <time>2023-09-15T13:45:49Z</time>
      </trkpt>
      <trkpt lat="43.5198" lon="6.31233">
        <ele>316.4</ele>
        <time>2023-09-15T13:45:50Z</time>
      </trkpt>
      <trkpt lat="43.5198" lon="6.31232">
        <ele>316.4</ele>
        <time>2023-09-15T13:45:51Z</time>
      </trkpt>
      <trkpt lat="43.5198" lon="6.31231">
        <ele>316.4</ele>
        <time>2023-09-15T13:45:52Z</time>
      </trkpt>
      <trkpt lat="43.51981" lon="6.31231">
        <ele>316.4</ele>
        <time>2023-09-15T13:45:53Z</time>
      </trkpt>
      <trkpt lat="43.51981" lon="6.3123">
        <ele>316.3</ele>
        <time>2023-09-15T13:45:54Z</time>
      </trkpt>
      <trkpt lat="43.51981" lon="6.3123">
        <ele>316.3</ele>
        <time>2023-09-15T13:45:55Z</time>
      </trkpt>
      <trkpt lat="43.51981" lon="6.3123">
        <ele>316.4</ele>
        <time>2023-09-15T13:45:56Z</time>
      </trkpt>
      <trkpt lat="43.51981" lon="6.3123">
        <ele>316.4</ele>
        <time>2023-09-15T13:45:57Z</time>
      </trkpt>
      <trkpt lat="43.51981" lon="6.3123">
        <ele>316.5</ele>
        <time>2023-09-15T13:45:58Z</time>
      </trkpt>
      <trkpt lat="43.51981" lon="6.31229">
        <ele>316.6</ele>
        <time>2023-09-15T13:45:59Z</time>
      </trkpt>
      <trkpt lat="43.51981" lon="6.31229">
        <ele>316.6</ele>
        <time>2023-09-15T13:46:00Z</time>
      </trkpt>
      <trkpt lat="43.51981" lon="6.31229">
        <ele>316.6</ele>
        <time>2023-09-15T13:46:01Z</time>
      </trkpt>
      <trkpt lat="43.51981" lon="6.31229">
        <ele>316.7</ele>
        <time>2023-09-15T13:46:02Z</time>
      </trkpt>
      <trkpt lat="43.51981" lon="6.31229">
        <ele>316.7</ele>
        <time>2023-09-15T13:46:03Z</time>
      </trkpt>
      <trkpt lat="43.51981" lon="6.31228">
        <ele>316.8</ele>
        <time>2023-09-15T13:46:04Z</time>
      </trkpt>
      <trkpt lat="43.51981" lon="6.31228">
        <ele>316.8</ele>
        <time>2023-09-15T13:46:05Z</time>
      </trkpt>
      <trkpt lat="43.51981" lon="6.31228">
        <ele>316.8</ele>
        <time>2023-09-15T13:46:06Z</time>
      </trkpt>
      <trkpt lat="43.51982" lon="6.31228">
        <ele>316.9</ele>
        <time>2023-09-15T13:46:07Z</time>
      </trkpt>
      <trkpt lat="43.51982" lon="6.31227">
        <ele>316.9</ele>
        <time>2023-09-15T13:46:08Z</time>
      </trkpt>
      <trkpt lat="43.51982" lon="6.31227">
        <ele>316.9</ele>
        <time>2023-09-15T13:46:09Z</time>
      </trkpt>
      <trkpt lat="43.51982" lon="6.31227">
        <ele>316.9</ele>
        <time>2023-09-15T13:46:10Z</time>
      </trkpt>
      <trkpt lat="43.51982" lon="6.31227">
        <ele>317</ele>
        <time>2023-09-15T13:46:11Z</time>
      </trkpt>
      <trkpt lat="43.51982" lon="6.31227">
        <ele>317</ele>
        <time>2023-09-15T13:46:12Z</time>
      </trkpt>
      <trkpt lat="43.51982" lon="6.31227">
        <ele>317</ele>
        <time>2023-09-15T13:46:13Z</time>
      </trkpt>
      <trkpt lat="43.51982" lon="6.31226">
        <ele>317</ele>
        <time>2023-09-15T13:46:14Z</time>
      </trkpt>
      <trkpt lat="43.51982" lon="6.31226">
        <ele>316.9</ele>
        <time>2023-09-15T13:46:15Z</time>
      </trkpt>
      <trkpt lat="43.51982" lon="6.31226">
        <ele>316.7</ele>
        <time>2023-09-15T13:46:16Z</time>
      </trkpt>
      <trkpt lat="43.51982" lon="6.31226">
        <ele>316.7</ele>
        <time>2023-09-15T13:46:17Z</time>
      </trkpt>
      <trkpt lat="43.51983" lon="6.31225">
        <ele>316.7</ele>
        <time>2023-09-15T13:46:18Z</time>
      </trkpt>
      <trkpt lat="43.51983" lon="6.31225">
        <ele>316.7</ele>
        <time>2023-09-15T13:46:19Z</time>
      </trkpt>
      <trkpt lat="43.51983" lon="6.31225">
        <ele>316.7</ele>
        <time>2023-09-15T13:46:20Z</time>
      </trkpt>
      <trkpt lat="43.51983" lon="6.31224">
        <ele>316.7</ele>
        <time>2023-09-15T13:46:21Z</time>
      </trkpt>
      <trkpt lat="43.51983" lon="6.31224">
        <ele>316.6</ele>
        <time>2023-09-15T13:46:22Z</time>
      </trkpt>
      <trkpt lat="43.51984" lon="6.31224">
        <ele>316.7</ele>
        <time>2023-09-15T13:46:23Z</time>
      </trkpt>
      <trkpt lat="43.51984" lon="6.31224">
        <ele>316.8</ele>
        <time>2023-09-15T13:46:24Z</time>
      </trkpt>
      <trkpt lat="43.51984" lon="6.31224">
        <ele>316.9</ele>
        <time>2023-09-15T13:46:25Z</time>
      </trkpt>
      <trkpt lat="43.51984" lon="6.31223">
        <ele>316.9</ele>
        <time>2023-09-15T13:46:26Z</time>
      </trkpt>
      <trkpt lat="43.51984" lon="6.31223">
        <ele>317</ele>
        <time>2023-09-15T13:46:27Z</time>
      </trkpt>
      <trkpt lat="43.51984" lon="6.31223">
        <ele>317</ele>
        <time>2023-09-15T13:46:28Z</time>
      </trkpt>
      <trkpt lat="43.51984" lon="6.31223">
        <ele>317</ele>
        <time>2023-09-15T13:46:29Z</time>
      </trkpt>
      <trkpt lat="43.51984" lon="6.31223">
        <ele>317</ele>
        <time>2023-09-15T13:46:30Z</time>
      </trkpt>
      <trkpt lat="43.51985" lon="6.31223">
        <ele>317.1</ele>
        <time>2023-09-15T13:46:31Z</time>
      </trkpt>
      <trkpt lat="43.51984" lon="6.31223">
        <ele>317.1</ele>
        <time>2023-09-15T13:46:32Z</time>
      </trkpt>
      <trkpt lat="43.51985" lon="6.31223">
        <ele>317.2</ele>
        <time>2023-09-15T13:46:33Z</time>
      </trkpt>
      <trkpt lat="43.51985" lon="6.31223">
        <ele>317.2</ele>
        <time>2023-09-15T13:46:34Z</time>
      </trkpt>
      <trkpt lat="43.51985" lon="6.31222">
        <ele>317.2</ele>
        <time>2023-09-15T13:46:35Z</time>
      </trkpt>
      <trkpt lat="43.51985" lon="6.31222">
        <ele>317.3</ele>
        <time>2023-09-15T13:46:36Z</time>
      </trkpt>
      <trkpt lat="43.51984" lon="6.31222">
        <ele>317.2</ele>
        <time>2023-09-15T13:46:37Z</time>
      </trkpt>
      <trkpt lat="43.51983" lon="6.31221">
        <ele>317.2</ele>
        <time>2023-09-15T13:46:38Z</time>
      </trkpt>
      <trkpt lat="43.51983" lon="6.31221">
        <ele>317.2</ele>
        <time>2023-09-15T13:46:39Z</time>
      </trkpt>
      <trkpt lat="43.51983" lon="6.3122">
        <ele>317.2</ele>
        <time>2023-09-15T13:46:40Z</time>
      </trkpt>
      <trkpt lat="43.51982" lon="6.3122">
        <ele>317.3</ele>
        <time>2023-09-15T13:46:41Z</time>
      </trkpt>
      <trkpt lat="43.51982" lon="6.31219">
        <ele>317.3</ele>
        <time>2023-09-15T13:46:42Z</time>
      </trkpt>
      <trkpt lat="43.51981" lon="6.31218">
        <ele>317.3</ele>
        <time>2023-09-15T13:46:43Z</time>
      </trkpt>
      <trkpt lat="43.51981" lon="6.31218">
        <ele>317.2</ele>
        <time>2023-09-15T13:46:44Z</time>
      </trkpt>
      <trkpt lat="43.51981" lon="6.31218">
        <ele>317.2</ele>
        <time>2023-09-15T13:46:45Z</time>
      </trkpt>
      <trkpt lat="43.5198" lon="6.31217">
        <ele>317.3</ele>
        <time>2023-09-15T13:46:46Z</time>
      </trkpt>
      <trkpt lat="43.51979" lon="6.31216">
        <ele>317.3</ele>
        <time>2023-09-15T13:46:47Z</time>
      </trkpt>
      <trkpt lat="43.51979" lon="6.31216">
        <ele>317.3</ele>
        <time>2023-09-15T13:46:48Z</time>
      </trkpt>
      <trkpt lat="43.51978" lon="6.31215">
        <ele>317.3</ele>
        <time>2023-09-15T13:46:49Z</time>
      </trkpt>
      <trkpt lat="43.51977" lon="6.31215">
        <ele>317.3</ele>
        <time>2023-09-15T13:46:50Z</time>
      </trkpt>
      <trkpt lat="43.51977" lon="6.31214">
        <ele>317.3</ele>
        <time>2023-09-15T13:46:51Z</time>
      </trkpt>
      <trkpt lat="43.51976" lon="6.31213">
        <ele>317.2</ele>
        <time>2023-09-15T13:46:52Z</time>
      </trkpt>
      <trkpt lat="43.51975" lon="6.31212">
        <ele>317.2</ele>
        <time>2023-09-15T13:46:53Z</time>
      </trkpt>
      <trkpt lat="43.51975" lon="6.31212">
        <ele>317.1</ele>
        <time>2023-09-15T13:46:54Z</time>
      </trkpt>
      <trkpt lat="43.51974" lon="6.31212">
        <ele>317.1</ele>
        <time>2023-09-15T13:46:55Z</time>
      </trkpt>
      <trkpt lat="43.51974" lon="6.31211">
        <ele>317.1</ele>
        <time>2023-09-15T13:46:56Z</time>
      </trkpt>
      <trkpt lat="43.51973" lon="6.3121">
        <ele>317.1</ele>
        <time>2023-09-15T13:46:57Z</time>
      </trkpt>
      <trkpt lat="43.51973" lon="6.31209">
        <ele>317</ele>
        <time>2023-09-15T13:46:58Z</time>
      </trkpt>
      <trkpt lat="43.51972" lon="6.31209">
        <ele>317</ele>
        <time>2023-09-15T13:46:59Z</time>
      </trkpt>
      <trkpt lat="43.51972" lon="6.31209">
        <ele>316.9</ele>
        <time>2023-09-15T13:47:00Z</time>
      </trkpt>
      <trkpt lat="43.51971" lon="6.31208">
        <ele>316.9</ele>
        <time>2023-09-15T13:47:01Z</time>
      </trkpt>
      <trkpt lat="43.51971" lon="6.31208">
        <ele>316.9</ele>
        <time>2023-09-15T13:47:02Z</time>
      </trkpt>
      <trkpt lat="43.5197" lon="6.31208">
        <ele>316.9</ele>
        <time>2023-09-15T13:47:03Z</time>
      </trkpt>
      <trkpt lat="43.51969" lon="6.31207">
        <ele>316.8</ele>
        <time>2023-09-15T13:47:04Z</time>
      </trkpt>
      <trkpt lat="43.51969" lon="6.31207">
        <ele>316.7</ele>
        <time>2023-09-15T13:47:05Z</time>
      </trkpt>
      <trkpt lat="43.51968" lon="6.31206">
        <ele>316.6</ele>
        <time>2023-09-15T13:47:06Z</time>
      </trkpt>
      <trkpt lat="43.51968" lon="6.31206">
        <ele>316.5</ele>
        <time>2023-09-15T13:47:07Z</time>
      </trkpt>
      <trkpt lat="43.51968" lon="6.31206">
        <ele>316.4</ele>
        <time>2023-09-15T13:47:08Z</time>
      </trkpt>
      <trkpt lat="43.51967" lon="6.31206">
        <ele>316.3</ele>
        <time>2023-09-15T13:47:09Z</time>
      </trkpt>
      <trkpt lat="43.51966" lon="6.31206">
        <ele>316.2</ele>
        <time>2023-09-15T13:47:10Z</time>
      </trkpt>
      <trkpt lat="43.51966" lon="6.31206">
        <ele>316.1</ele>
        <time>2023-09-15T13:47:11Z</time>
      </trkpt>
      <trkpt lat="43.51965" lon="6.31205">
        <ele>316</ele>
        <time>2023-09-15T13:47:12Z</time>
      </trkpt>
      <trkpt lat="43.51964" lon="6.31206">
        <ele>315.9</ele>
        <time>2023-09-15T13:47:13Z</time>
      </trkpt>
      <trkpt lat="43.51964" lon="6.31205">
        <ele>315.9</ele>
        <time>2023-09-15T13:47:14Z</time>
      </trkpt>
      <trkpt lat="43.51963" lon="6.31206">
        <ele>315.7</ele>
        <time>2023-09-15T13:47:15Z</time>
      </trkpt>
      <trkpt lat="43.51962" lon="6.31205">
        <ele>315.7</ele>
        <time>2023-09-15T13:47:16Z</time>
      </trkpt>
      <trkpt lat="43.51962" lon="6.31205">
        <ele>315.5</ele>
        <time>2023-09-15T13:47:17Z</time>
      </trkpt>
      <trkpt lat="43.51961" lon="6.31206">
        <ele>315.4</ele>
        <time>2023-09-15T13:47:18Z</time>
      </trkpt>
      <trkpt lat="43.5196" lon="6.31206">
        <ele>315.4</ele>
        <time>2023-09-15T13:47:19Z</time>
      </trkpt>
      <trkpt lat="43.51959" lon="6.31206">
        <ele>315.2</ele>
        <time>2023-09-15T13:47:20Z</time>
      </trkpt>
      <trkpt lat="43.51959" lon="6.31206">
        <ele>315.1</ele>
        <time>2023-09-15T13:47:21Z</time>
      </trkpt>
      <trkpt lat="43.51958" lon="6.31206">
        <ele>315</ele>
        <time>2023-09-15T13:47:22Z</time>
      </trkpt>
      <trkpt lat="43.51958" lon="6.31207">
        <ele>314.9</ele>
        <time>2023-09-15T13:47:23Z</time>
      </trkpt>
      <trkpt lat="43.51957" lon="6.31207">
        <ele>314.8</ele>
        <time>2023-09-15T13:47:24Z</time>
      </trkpt>
      <trkpt lat="43.51957" lon="6.31207">
        <ele>314.7</ele>
        <time>2023-09-15T13:47:25Z</time>
      </trkpt>
      <trkpt lat="43.51956" lon="6.31207">
        <ele>314.7</ele>
        <time>2023-09-15T13:47:26Z</time>
      </trkpt>
      <trkpt lat="43.51955" lon="6.31207">
        <ele>314.7</ele>
        <time>2023-09-15T13:47:27Z</time>
      </trkpt>
      <trkpt lat="43.51955" lon="6.31207">
        <ele>314.6</ele>
        <time>2023-09-15T13:47:28Z</time>
      </trkpt>
      <trkpt lat="43.51954" lon="6.31207">
        <ele>314.6</ele>
        <time>2023-09-15T13:47:29Z</time>
      </trkpt>
      <trkpt lat="43.51953" lon="6.31207">
        <ele>314.4</ele>
        <time>2023-09-15T13:47:30Z</time>
      </trkpt>
      <trkpt lat="43.51952" lon="6.31207">
        <ele>314.4</ele>
        <time>2023-09-15T13:47:31Z</time>
      </trkpt>
      <trkpt lat="43.51952" lon="6.31207">
        <ele>314.2</ele>
        <time>2023-09-15T13:47:32Z</time>
      </trkpt>
      <trkpt lat="43.51951" lon="6.31207">
        <ele>314.1</ele>
        <time>2023-09-15T13:47:33Z</time>
      </trkpt>
      <trkpt lat="43.51951" lon="6.31208">
        <ele>313.9</ele>
        <time>2023-09-15T13:47:34Z</time>
      </trkpt>
      <trkpt lat="43.5195" lon="6.31208">
        <ele>313.8</ele>
        <time>2023-09-15T13:47:35Z</time>
      </trkpt>
      <trkpt lat="43.51949" lon="6.31209">
        <ele>313.7</ele>
        <time>2023-09-15T13:47:36Z</time>
      </trkpt>
      <trkpt lat="43.51949" lon="6.31209">
        <ele>313.6</ele>
        <time>2023-09-15T13:47:37Z</time>
      </trkpt>
      <trkpt lat="43.51948" lon="6.31208">
        <ele>313.5</ele>
        <time>2023-09-15T13:47:38Z</time>
      </trkpt>
      <trkpt lat="43.51948" lon="6.31209">
        <ele>313.3</ele>
        <time>2023-09-15T13:47:39Z</time>
      </trkpt>
      <trkpt lat="43.51947" lon="6.31209">
        <ele>313.3</ele>
        <time>2023-09-15T13:47:40Z</time>
      </trkpt>
      <trkpt lat="43.51946" lon="6.31209">
        <ele>313.2</ele>
        <time>2023-09-15T13:47:41Z</time>
      </trkpt>
      <trkpt lat="43.51946" lon="6.31209">
        <ele>313.2</ele>
        <time>2023-09-15T13:47:42Z</time>
      </trkpt>
      <trkpt lat="43.51945" lon="6.3121">
        <ele>313.2</ele>
        <time>2023-09-15T13:47:43Z</time>
      </trkpt>
      <trkpt lat="43.51944" lon="6.3121">
        <ele>313.1</ele>
        <time>2023-09-15T13:47:44Z</time>
      </trkpt>
      <trkpt lat="43.51944" lon="6.31211">
        <ele>313</ele>
        <time>2023-09-15T13:47:45Z</time>
      </trkpt>
      <trkpt lat="43.51943" lon="6.31211">
        <ele>313</ele>
        <time>2023-09-15T13:47:46Z</time>
      </trkpt>
      <trkpt lat="43.51942" lon="6.31211">
        <ele>312.9</ele>
        <time>2023-09-15T13:47:47Z</time>
      </trkpt>
      <trkpt lat="43.51941" lon="6.31211">
        <ele>312.9</ele>
        <time>2023-09-15T13:47:48Z</time>
      </trkpt>
      <trkpt lat="43.5194" lon="6.31211">
        <ele>312.8</ele>
        <time>2023-09-15T13:47:49Z</time>
      </trkpt>
      <trkpt lat="43.51939" lon="6.31211">
        <ele>312.8</ele>
        <time>2023-09-15T13:47:50Z</time>
      </trkpt>
      <trkpt lat="43.51939" lon="6.31211">
        <ele>312.8</ele>
        <time>2023-09-15T13:47:51Z</time>
      </trkpt>
      <trkpt lat="43.51938" lon="6.31211">
        <ele>312.6</ele>
        <time>2023-09-15T13:47:52Z</time>
      </trkpt>
      <trkpt lat="43.51937" lon="6.31211">
        <ele>312.6</ele>
        <time>2023-09-15T13:47:53Z</time>
      </trkpt>
      <trkpt lat="43.51936" lon="6.31212">
        <ele>312.6</ele>
        <time>2023-09-15T13:47:54Z</time>
      </trkpt>
      <trkpt lat="43.51935" lon="6.31212">
        <ele>312.5</ele>
        <time>2023-09-15T13:47:55Z</time>
      </trkpt>
      <trkpt lat="43.51934" lon="6.31212">
        <ele>312.4</ele>
        <time>2023-09-15T13:47:56Z</time>
      </trkpt>
      <trkpt lat="43.51934" lon="6.31212">
        <ele>312.3</ele>
        <time>2023-09-15T13:47:57Z</time>
      </trkpt>
      <trkpt lat="43.51933" lon="6.31213">
        <ele>312.1</ele>
        <time>2023-09-15T13:47:58Z</time>
      </trkpt>
      <trkpt lat="43.51932" lon="6.31213">
        <ele>312</ele>
        <time>2023-09-15T13:47:59Z</time>
      </trkpt>
      <trkpt lat="43.51931" lon="6.31214">
        <ele>312</ele>
        <time>2023-09-15T13:48:00Z</time>
      </trkpt>
      <trkpt lat="43.51931" lon="6.31214">
        <ele>311.9</ele>
        <time>2023-09-15T13:48:01Z</time>
      </trkpt>
      <trkpt lat="43.5193" lon="6.31213">
        <ele>311.9</ele>
        <time>2023-09-15T13:48:02Z</time>
      </trkpt>
      <trkpt lat="43.51929" lon="6.31213">
        <ele>311.8</ele>
        <time>2023-09-15T13:48:03Z</time>
      </trkpt>
      <trkpt lat="43.51928" lon="6.31213">
        <ele>311.8</ele>
        <time>2023-09-15T13:48:04Z</time>
      </trkpt>
      <trkpt lat="43.51927" lon="6.31213">
        <ele>311.7</ele>
        <time>2023-09-15T13:48:05Z</time>
      </trkpt>
      <trkpt lat="43.51926" lon="6.31213">
        <ele>311.7</ele>
        <time>2023-09-15T13:48:06Z</time>
      </trkpt>
      <trkpt lat="43.51925" lon="6.31213">
        <ele>311.7</ele>
        <time>2023-09-15T13:48:07Z</time>
      </trkpt>
      <trkpt lat="43.51924" lon="6.31214">
        <ele>311.6</ele>
        <time>2023-09-15T13:48:08Z</time>
      </trkpt>
      <trkpt lat="43.51923" lon="6.31214">
        <ele>311.6</ele>
        <time>2023-09-15T13:48:09Z</time>
      </trkpt>
      <trkpt lat="43.51922" lon="6.31214">
        <ele>311.5</ele>
        <time>2023-09-15T13:48:10Z</time>
      </trkpt>
      <trkpt lat="43.51921" lon="6.31214">
        <ele>311.5</ele>
        <time>2023-09-15T13:48:11Z</time>
      </trkpt>
      <trkpt lat="43.51921" lon="6.31214">
        <ele>311.4</ele>
        <time>2023-09-15T13:48:12Z</time>
      </trkpt>
      <trkpt lat="43.5192" lon="6.31214">
        <ele>311.3</ele>
        <time>2023-09-15T13:48:13Z</time>
      </trkpt>
      <trkpt lat="43.51919" lon="6.31215">
        <ele>311.3</ele>
        <time>2023-09-15T13:48:14Z</time>
      </trkpt>
      <trkpt lat="43.51918" lon="6.31215">
        <ele>311.2</ele>
        <time>2023-09-15T13:48:15Z</time>
      </trkpt>
      <trkpt lat="43.51918" lon="6.31215">
        <ele>311.1</ele>
        <time>2023-09-15T13:48:16Z</time>
      </trkpt>
      <trkpt lat="43.51917" lon="6.31215">
        <ele>311</ele>
        <time>2023-09-15T13:48:17Z</time>
      </trkpt>
      <trkpt lat="43.51916" lon="6.31215">
        <ele>311</ele>
        <time>2023-09-15T13:48:18Z</time>
      </trkpt>
      <trkpt lat="43.51915" lon="6.31215">
        <ele>310.9</ele>
        <time>2023-09-15T13:48:19Z</time>
      </trkpt>
      <trkpt lat="43.51914" lon="6.31216">
        <ele>310.8</ele>
        <time>2023-09-15T13:48:20Z</time>
      </trkpt>
      <trkpt lat="43.51913" lon="6.31216">
        <ele>310.8</ele>
        <time>2023-09-15T13:48:21Z</time>
      </trkpt>
      <trkpt lat="43.51912" lon="6.31216">
        <ele>310.7</ele>
        <time>2023-09-15T13:48:22Z</time>
      </trkpt>
      <trkpt lat="43.51912" lon="6.31215">
        <ele>310.7</ele>
        <time>2023-09-15T13:48:23Z</time>
      </trkpt>
      <trkpt lat="43.51911" lon="6.31216">
        <ele>310.6</ele>
        <time>2023-09-15T13:48:24Z</time>
      </trkpt>
      <trkpt lat="43.5191" lon="6.31216">
        <ele>310.6</ele>
        <time>2023-09-15T13:48:25Z</time>
      </trkpt>
      <trkpt lat="43.51909" lon="6.31216">
        <ele>310.5</ele>
        <time>2023-09-15T13:48:26Z</time>
      </trkpt>
      <trkpt lat="43.51909" lon="6.31216">
        <ele>310.5</ele>
        <time>2023-09-15T13:48:27Z</time>
      </trkpt>
      <trkpt lat="43.51908" lon="6.31216">
        <ele>310.4</ele>
        <time>2023-09-15T13:48:28Z</time>
      </trkpt>
      <trkpt lat="43.51907" lon="6.31216">
        <ele>310.4</ele>
        <time>2023-09-15T13:48:29Z</time>
      </trkpt>
      <trkpt lat="43.51906" lon="6.31217">
        <ele>310.3</ele>
        <time>2023-09-15T13:48:30Z</time>
      </trkpt>
      <trkpt lat="43.51905" lon="6.31217">
        <ele>310.3</ele>
        <time>2023-09-15T13:48:31Z</time>
      </trkpt>
      <trkpt lat="43.51905" lon="6.31217">
        <ele>310.3</ele>
        <time>2023-09-15T13:48:32Z</time>
      </trkpt>
      <trkpt lat="43.51904" lon="6.31217">
        <ele>310.3</ele>
        <time>2023-09-15T13:48:33Z</time>
      </trkpt>
      <trkpt lat="43.51903" lon="6.31217">
        <ele>310.3</ele>
        <time>2023-09-15T13:48:34Z</time>
      </trkpt>
      <trkpt lat="43.51902" lon="6.31217">
        <ele>310.3</ele>
        <time>2023-09-15T13:48:35Z</time>
      </trkpt>
      <trkpt lat="43.51901" lon="6.31217">
        <ele>310.3</ele>
        <time>2023-09-15T13:48:36Z</time>
      </trkpt>
      <trkpt lat="43.519" lon="6.31217">
        <ele>310.2</ele>
        <time>2023-09-15T13:48:37Z</time>
      </trkpt>
      <trkpt lat="43.51899" lon="6.31217">
        <ele>310.1</ele>
        <time>2023-09-15T13:48:38Z</time>
      </trkpt>
      <trkpt lat="43.51899" lon="6.31218">
        <ele>310</ele>
        <time>2023-09-15T13:48:39Z</time>
      </trkpt>
      <trkpt lat="43.51898" lon="6.31218">
        <ele>310</ele>
        <time>2023-09-15T13:48:40Z</time>
      </trkpt>
      <trkpt lat="43.51897" lon="6.31218">
        <ele>309.9</ele>
        <time>2023-09-15T13:48:41Z</time>
      </trkpt>
      <trkpt lat="43.51896" lon="6.31217">
        <ele>310</ele>
        <time>2023-09-15T13:48:42Z</time>
      </trkpt>
      <trkpt lat="43.51895" lon="6.31217">
        <ele>310</ele>
        <time>2023-09-15T13:48:43Z</time>
      </trkpt>
      <trkpt lat="43.51894" lon="6.31217">
        <ele>310</ele>
        <time>2023-09-15T13:48:44Z</time>
      </trkpt>
      <trkpt lat="43.51893" lon="6.31218">
        <ele>310</ele>
        <time>2023-09-15T13:48:45Z</time>
      </trkpt>
      <trkpt lat="43.51892" lon="6.31218">
        <ele>310</ele>
        <time>2023-09-15T13:48:46Z</time>
      </trkpt>
      <trkpt lat="43.51891" lon="6.31218">
        <ele>310</ele>
        <time>2023-09-15T13:48:47Z</time>
      </trkpt>
      <trkpt lat="43.51891" lon="6.31218">
        <ele>309.9</ele>
        <time>2023-09-15T13:48:48Z</time>
      </trkpt>
      <trkpt lat="43.5189" lon="6.31218">
        <ele>309.9</ele>
        <time>2023-09-15T13:48:49Z</time>
      </trkpt>
      <trkpt lat="43.51889" lon="6.31218">
        <ele>309.8</ele>
        <time>2023-09-15T13:48:50Z</time>
      </trkpt>
      <trkpt lat="43.51888" lon="6.31218">
        <ele>309.8</ele>
        <time>2023-09-15T13:48:51Z</time>
      </trkpt>
      <trkpt lat="43.51887" lon="6.31219">
        <ele>309.8</ele>
        <time>2023-09-15T13:48:52Z</time>
      </trkpt>
      <trkpt lat="43.51886" lon="6.31219">
        <ele>309.7</ele>
        <time>2023-09-15T13:48:53Z</time>
      </trkpt>
      <trkpt lat="43.51885" lon="6.31219">
        <ele>309.6</ele>
        <time>2023-09-15T13:48:54Z</time>
      </trkpt>
      <trkpt lat="43.51885" lon="6.31219">
        <ele>309.6</ele>
        <time>2023-09-15T13:48:55Z</time>
      </trkpt>
      <trkpt lat="43.51884" lon="6.31219">
        <ele>309.4</ele>
        <time>2023-09-15T13:48:56Z</time>
      </trkpt>
      <trkpt lat="43.51883" lon="6.31219">
        <ele>309.3</ele>
        <time>2023-09-15T13:48:57Z</time>
      </trkpt>
      <trkpt lat="43.51883" lon="6.31219">
        <ele>309.2</ele>
        <time>2023-09-15T13:48:58Z</time>
      </trkpt>
      <trkpt lat="43.51882" lon="6.31219">
        <ele>309.1</ele>
        <time>2023-09-15T13:48:59Z</time>
      </trkpt>
      <trkpt lat="43.51881" lon="6.31218">
        <ele>309.2</ele>
        <time>2023-09-15T13:49:00Z</time>
      </trkpt>
      <trkpt lat="43.5188" lon="6.31219">
        <ele>309.2</ele>
        <time>2023-09-15T13:49:01Z</time>
      </trkpt>
      <trkpt lat="43.51879" lon="6.31219">
        <ele>309.1</ele>
        <time>2023-09-15T13:49:02Z</time>
      </trkpt>
      <trkpt lat="43.51878" lon="6.31219">
        <ele>309</ele>
        <time>2023-09-15T13:49:03Z</time>
      </trkpt>
      <trkpt lat="43.51877" lon="6.31219">
        <ele>308.9</ele>
        <time>2023-09-15T13:49:04Z</time>
      </trkpt>
      <trkpt lat="43.51876" lon="6.31219">
        <ele>308.8</ele>
        <time>2023-09-15T13:49:05Z</time>
      </trkpt>
      <trkpt lat="43.51875" lon="6.31219">
        <ele>308.7</ele>
        <time>2023-09-15T13:49:06Z</time>
      </trkpt>
      <trkpt lat="43.51874" lon="6.31219">
        <ele>308.7</ele>
        <time>2023-09-15T13:49:07Z</time>
      </trkpt>
      <trkpt lat="43.51874" lon="6.31219">
        <ele>308.6</ele>
        <time>2023-09-15T13:49:08Z</time>
      </trkpt>
      <trkpt lat="43.51873" lon="6.31219">
        <ele>308.5</ele>
        <time>2023-09-15T13:49:09Z</time>
      </trkpt>
      <trkpt lat="43.51872" lon="6.31219">
        <ele>308.5</ele>
        <time>2023-09-15T13:49:10Z</time>
      </trkpt>
      <trkpt lat="43.51871" lon="6.31219">
        <ele>308.4</ele>
        <time>2023-09-15T13:49:11Z</time>
      </trkpt>
      <trkpt lat="43.5187" lon="6.31219">
        <ele>308.4</ele>
        <time>2023-09-15T13:49:12Z</time>
      </trkpt>
      <trkpt lat="43.5187" lon="6.3122">
        <ele>308.4</ele>
        <time>2023-09-15T13:49:13Z</time>
      </trkpt>
      <trkpt lat="43.51869" lon="6.3122">
        <ele>308.4</ele>
        <time>2023-09-15T13:49:14Z</time>
      </trkpt>
      <trkpt lat="43.51869" lon="6.3122">
        <ele>308.4</ele>
        <time>2023-09-15T13:49:15Z</time>
      </trkpt>
      <trkpt lat="43.51868" lon="6.3122">
        <ele>308.4</ele>
        <time>2023-09-15T13:49:16Z</time>
      </trkpt>
      <trkpt lat="43.51867" lon="6.3122">
        <ele>308.4</ele>
        <time>2023-09-15T13:49:17Z</time>
      </trkpt>
      <trkpt lat="43.51866" lon="6.3122">
        <ele>308.4</ele>
        <time>2023-09-15T13:49:18Z</time>
      </trkpt>
      <trkpt lat="43.51866" lon="6.3122">
        <ele>308.3</ele>
        <time>2023-09-15T13:49:19Z</time>
      </trkpt>
      <trkpt lat="43.51865" lon="6.3122">
        <ele>308.4</ele>
        <time>2023-09-15T13:49:20Z</time>
      </trkpt>
      <trkpt lat="43.51864" lon="6.31219">
        <ele>308.3</ele>
        <time>2023-09-15T13:49:21Z</time>
      </trkpt>
      <trkpt lat="43.51863" lon="6.31219">
        <ele>308.1</ele>
        <time>2023-09-15T13:49:22Z</time>
      </trkpt>
      <trkpt lat="43.51862" lon="6.31219">
        <ele>308.1</ele>
        <time>2023-09-15T13:49:23Z</time>
      </trkpt>
      <trkpt lat="43.51861" lon="6.31219">
        <ele>308.2</ele>
        <time>2023-09-15T13:49:24Z</time>
      </trkpt>
      <trkpt lat="43.5186" lon="6.31219">
        <ele>308.1</ele>
        <time>2023-09-15T13:49:25Z</time>
      </trkpt>
      <trkpt lat="43.51859" lon="6.31219">
        <ele>308</ele>
        <time>2023-09-15T13:49:26Z</time>
      </trkpt>
      <trkpt lat="43.51858" lon="6.31219">
        <ele>308</ele>
        <time>2023-09-15T13:49:27Z</time>
      </trkpt>
      <trkpt lat="43.51857" lon="6.31219">
        <ele>307.9</ele>
        <time>2023-09-15T13:49:28Z</time>
      </trkpt>
      <trkpt lat="43.51856" lon="6.31219">
        <ele>307.9</ele>
        <time>2023-09-15T13:49:29Z</time>
      </trkpt>
      <trkpt lat="43.51855" lon="6.31219">
        <ele>307.9</ele>
        <time>2023-09-15T13:49:30Z</time>
      </trkpt>
      <trkpt lat="43.51854" lon="6.31218">
        <ele>307.8</ele>
        <time>2023-09-15T13:49:31Z</time>
      </trkpt>
      <trkpt lat="43.51853" lon="6.31219">
        <ele>307.7</ele>
        <time>2023-09-15T13:49:32Z</time>
      </trkpt>
      <trkpt lat="43.51852" lon="6.31219">
        <ele>307.5</ele>
        <time>2023-09-15T13:49:33Z</time>
      </trkpt>
      <trkpt lat="43.51851" lon="6.31218">
        <ele>307.4</ele>
        <time>2023-09-15T13:49:34Z</time>
      </trkpt>
      <trkpt lat="43.5185" lon="6.31218">
        <ele>307.3</ele>
        <time>2023-09-15T13:49:35Z</time>
      </trkpt>
      <trkpt lat="43.51849" lon="6.31217">
        <ele>307.2</ele>
        <time>2023-09-15T13:49:36Z</time>
      </trkpt>
      <trkpt lat="43.51849" lon="6.31217">
        <ele>307.2</ele>
        <time>2023-09-15T13:49:37Z</time>
      </trkpt>
      <trkpt lat="43.51848" lon="6.31216">
        <ele>307.1</ele>
        <time>2023-09-15T13:49:38Z</time>
      </trkpt>
      <trkpt lat="43.51847" lon="6.31216">
        <ele>307.1</ele>
        <time>2023-09-15T13:49:39Z</time>
      </trkpt>
      <trkpt lat="43.51846" lon="6.31215">
        <ele>307.1</ele>
        <time>2023-09-15T13:49:40Z</time>
      </trkpt>
      <trkpt lat="43.51845" lon="6.31215">
        <ele>307.1</ele>
        <time>2023-09-15T13:49:41Z</time>
      </trkpt>
      <trkpt lat="43.51844" lon="6.31214">
        <ele>307.2</ele>
        <time>2023-09-15T13:49:42Z</time>
      </trkpt>
      <trkpt lat="43.51843" lon="6.31214">
        <ele>306.9</ele>
        <time>2023-09-15T13:49:43Z</time>
      </trkpt>
      <trkpt lat="43.51842" lon="6.31213">
        <ele>306.8</ele>
        <time>2023-09-15T13:49:44Z</time>
      </trkpt>
      <trkpt lat="43.51842" lon="6.31213">
        <ele>306.9</ele>
        <time>2023-09-15T13:49:45Z</time>
      </trkpt>
      <trkpt lat="43.51841" lon="6.31212">
        <ele>306.9</ele>
        <time>2023-09-15T13:49:46Z</time>
      </trkpt>
      <trkpt lat="43.5184" lon="6.31212">
        <ele>307</ele>
        <time>2023-09-15T13:49:47Z</time>
      </trkpt>
      <trkpt lat="43.51839" lon="6.31212">
        <ele>307</ele>
        <time>2023-09-15T13:49:48Z</time>
      </trkpt>
      <trkpt lat="43.51838" lon="6.31211">
        <ele>307</ele>
        <time>2023-09-15T13:49:49Z</time>
      </trkpt>
      <trkpt lat="43.51837" lon="6.31211">
        <ele>307.1</ele>
        <time>2023-09-15T13:49:50Z</time>
      </trkpt>
      <trkpt lat="43.51836" lon="6.31211">
        <ele>307.1</ele>
        <time>2023-09-15T13:49:51Z</time>
      </trkpt>
      <trkpt lat="43.51835" lon="6.31211">
        <ele>307</ele>
        <time>2023-09-15T13:49:52Z</time>
      </trkpt>
      <trkpt lat="43.51834" lon="6.31211">
        <ele>307</ele>
        <time>2023-09-15T13:49:53Z</time>
      </trkpt>
      <trkpt lat="43.51833" lon="6.31211">
        <ele>307</ele>
        <time>2023-09-15T13:49:54Z</time>
      </trkpt>
      <trkpt lat="43.51832" lon="6.3121">
        <ele>306.9</ele>
        <time>2023-09-15T13:49:55Z</time>
      </trkpt>
      <trkpt lat="43.51832" lon="6.3121">
        <ele>306.8</ele>
        <time>2023-09-15T13:49:56Z</time>
      </trkpt>
      <trkpt lat="43.51831" lon="6.3121">
        <ele>306.8</ele>
        <time>2023-09-15T13:49:57Z</time>
      </trkpt>
      <trkpt lat="43.5183" lon="6.3121">
        <ele>306.7</ele>
        <time>2023-09-15T13:49:58Z</time>
      </trkpt>
      <trkpt lat="43.51829" lon="6.3121">
        <ele>306.7</ele>
        <time>2023-09-15T13:49:59Z</time>
      </trkpt>
      <trkpt lat="43.51828" lon="6.3121">
        <ele>306.7</ele>
        <time>2023-09-15T13:50:00Z</time>
      </trkpt>
      <trkpt lat="43.51827" lon="6.3121">
        <ele>306.5</ele>
        <time>2023-09-15T13:50:01Z</time>
      </trkpt>
      <trkpt lat="43.51826" lon="6.3121">
        <ele>306.4</ele>
        <time>2023-09-15T13:50:02Z</time>
      </trkpt>
      <trkpt lat="43.51826" lon="6.3121">
        <ele>306.4</ele>
        <time>2023-09-15T13:50:03Z</time>
      </trkpt>
      <trkpt lat="43.51824" lon="6.31211">
        <ele>306.3</ele>
        <time>2023-09-15T13:50:04Z</time>
      </trkpt>
      <trkpt lat="43.51823" lon="6.31211">
        <ele>306.3</ele>
        <time>2023-09-15T13:50:05Z</time>
      </trkpt>
      <trkpt lat="43.51822" lon="6.31211">
        <ele>306.3</ele>
        <time>2023-09-15T13:50:06Z</time>
      </trkpt>
      <trkpt lat="43.51821" lon="6.31211">
        <ele>306.3</ele>
        <time>2023-09-15T13:50:07Z</time>
      </trkpt>
      <trkpt lat="43.51821" lon="6.31211">
        <ele>306.2</ele>
        <time>2023-09-15T13:50:08Z</time>
      </trkpt>
      <trkpt lat="43.51819" lon="6.31212">
        <ele>306.1</ele>
        <time>2023-09-15T13:50:09Z</time>
      </trkpt>
      <trkpt lat="43.51819" lon="6.31212">
        <ele>306</ele>
        <time>2023-09-15T13:50:10Z</time>
      </trkpt>
      <trkpt lat="43.51818" lon="6.31213">
        <ele>306</ele>
        <time>2023-09-15T13:50:11Z</time>
      </trkpt>
      <trkpt lat="43.51818" lon="6.31214">
        <ele>305.9</ele>
        <time>2023-09-15T13:50:12Z</time>
      </trkpt>
      <trkpt lat="43.51817" lon="6.31215">
        <ele>305.9</ele>
        <time>2023-09-15T13:50:13Z</time>
      </trkpt>
      <trkpt lat="43.51816" lon="6.31216">
        <ele>305.9</ele>
        <time>2023-09-15T13:50:14Z</time>
      </trkpt>
      <trkpt lat="43.51815" lon="6.31217">
        <ele>306</ele>
        <time>2023-09-15T13:50:15Z</time>
      </trkpt>
      <trkpt lat="43.51814" lon="6.31218">
        <ele>306</ele>
        <time>2023-09-15T13:50:16Z</time>
      </trkpt>
      <trkpt lat="43.51813" lon="6.31219">
        <ele>306.1</ele>
        <time>2023-09-15T13:50:17Z</time>
      </trkpt>
      <trkpt lat="43.51812" lon="6.3122">
        <ele>306.1</ele>
        <time>2023-09-15T13:50:18Z</time>
      </trkpt>
      <trkpt lat="43.51811" lon="6.31221">
        <ele>306</ele>
        <time>2023-09-15T13:50:19Z</time>
      </trkpt>
      <trkpt lat="43.51811" lon="6.31222">
        <ele>306</ele>
        <time>2023-09-15T13:50:20Z</time>
      </trkpt>
      <trkpt lat="43.5181" lon="6.31222">
        <ele>306</ele>
        <time>2023-09-15T13:50:21Z</time>
      </trkpt>
      <trkpt lat="43.5181" lon="6.31222">
        <ele>305.9</ele>
        <time>2023-09-15T13:50:22Z</time>
      </trkpt>
      <trkpt lat="43.5181" lon="6.31222">
        <ele>305.9</ele>
        <time>2023-09-15T13:50:23Z</time>
      </trkpt>
      <trkpt lat="43.5181" lon="6.31222">
        <ele>305.9</ele>
        <time>2023-09-15T13:50:24Z</time>
      </trkpt>
      <trkpt lat="43.5181" lon="6.31222">
        <ele>305.8</ele>
        <time>2023-09-15T13:50:25Z</time>
      </trkpt>
      <trkpt lat="43.51811" lon="6.31222">
        <ele>305.8</ele>
        <time>2023-09-15T13:50:26Z</time>
      </trkpt>
      <trkpt lat="43.51811" lon="6.31222">
        <ele>305.7</ele>
        <time>2023-09-15T13:50:27Z</time>
      </trkpt>
      <trkpt lat="43.51811" lon="6.31223">
        <ele>305.7</ele>
        <time>2023-09-15T13:50:28Z</time>
      </trkpt>
      <trkpt lat="43.51812" lon="6.31223">
        <ele>305.7</ele>
        <time>2023-09-15T13:50:29Z</time>
      </trkpt>
      <trkpt lat="43.51812" lon="6.31224">
        <ele>305.8</ele>
        <time>2023-09-15T13:50:30Z</time>
      </trkpt>
      <trkpt lat="43.51812" lon="6.31224">
        <ele>305.6</ele>
        <time>2023-09-15T13:50:31Z</time>
      </trkpt>
      <trkpt lat="43.51812" lon="6.31224">
        <ele>305.5</ele>
        <time>2023-09-15T13:50:32Z</time>
      </trkpt>
      <trkpt lat="43.51813" lon="6.31224">
        <ele>305.4</ele>
        <time>2023-09-15T13:50:33Z</time>
      </trkpt>
      <trkpt lat="43.51813" lon="6.31224">
        <ele>305.4</ele>
        <time>2023-09-15T13:50:34Z</time>
      </trkpt>
      <trkpt lat="43.51813" lon="6.31224">
        <ele>305.3</ele>
        <time>2023-09-15T13:50:35Z</time>
      </trkpt>
      <trkpt lat="43.51813" lon="6.31224">
        <ele>305.3</ele>
        <time>2023-09-15T13:50:36Z</time>
      </trkpt>
      <trkpt lat="43.51813" lon="6.31224">
        <ele>305.2</ele>
        <time>2023-09-15T13:50:37Z</time>
      </trkpt>
      <trkpt lat="43.51813" lon="6.31224">
        <ele>305.2</ele>
        <time>2023-09-15T13:50:38Z</time>
      </trkpt>
      <trkpt lat="43.51813" lon="6.31224">
        <ele>305.1</ele>
        <time>2023-09-15T13:50:39Z</time>
      </trkpt>
      <trkpt lat="43.51813" lon="6.31224">
        <ele>305.1</ele>
        <time>2023-09-15T13:50:40Z</time>
      </trkpt>
      <trkpt lat="43.51814" lon="6.31224">
        <ele>305</ele>
        <time>2023-09-15T13:50:41Z</time>
      </trkpt>
      <trkpt lat="43.51814" lon="6.31224">
        <ele>305</ele>
        <time>2023-09-15T13:50:42Z</time>
      </trkpt>
      <trkpt lat="43.51814" lon="6.31225">
        <ele>305</ele>
        <time>2023-09-15T13:50:43Z</time>
      </trkpt>
      <trkpt lat="43.51814" lon="6.31224">
        <ele>305.2</ele>
        <time>2023-09-15T13:50:44Z</time>
      </trkpt>
      <trkpt lat="43.51814" lon="6.31224">
        <ele>305.3</ele>
        <time>2023-09-15T13:50:45Z</time>
      </trkpt>
      <trkpt lat="43.51813" lon="6.31225">
        <ele>305.3</ele>
        <time>2023-09-15T13:50:46Z</time>
      </trkpt>
      <trkpt lat="43.51813" lon="6.31225">
        <ele>305.4</ele>
        <time>2023-09-15T13:50:47Z</time>
      </trkpt>
      <trkpt lat="43.51813" lon="6.31225">
        <ele>305.6</ele>
        <time>2023-09-15T13:50:48Z</time>
      </trkpt>
      <trkpt lat="43.51813" lon="6.31225">
        <ele>305.6</ele>
        <time>2023-09-15T13:50:49Z</time>
      </trkpt>
      <trkpt lat="43.51812" lon="6.31225">
        <ele>305.8</ele>
        <time>2023-09-15T13:50:50Z</time>
      </trkpt>
      <trkpt lat="43.51812" lon="6.31225">
        <ele>305.9</ele>
        <time>2023-09-15T13:50:51Z</time>
      </trkpt>
      <trkpt lat="43.51812" lon="6.31225">
        <ele>305.8</ele>
        <time>2023-09-15T13:50:52Z</time>
      </trkpt>
      <trkpt lat="43.51812" lon="6.31226">
        <ele>305.9</ele>
        <time>2023-09-15T13:50:53Z</time>
      </trkpt>
      <trkpt lat="43.51812" lon="6.31226">
        <ele>306</ele>
        <time>2023-09-15T13:50:54Z</time>
      </trkpt>
      <trkpt lat="43.51812" lon="6.31227">
        <ele>306</ele>
        <time>2023-09-15T13:50:55Z</time>
      </trkpt>
      <trkpt lat="43.51812" lon="6.31226">
        <ele>306.1</ele>
        <time>2023-09-15T13:50:56Z</time>
      </trkpt>
      <trkpt lat="43.51812" lon="6.31226">
        <ele>306.2</ele>
        <time>2023-09-15T13:50:57Z</time>
      </trkpt>
      <trkpt lat="43.51812" lon="6.31226">
        <ele>306.2</ele>
        <time>2023-09-15T13:50:58Z</time>
      </trkpt>
      <trkpt lat="43.51812" lon="6.31226">
        <ele>306.3</ele>
        <time>2023-09-15T13:50:59Z</time>
      </trkpt>
      <trkpt lat="43.51812" lon="6.31226">
        <ele>306.3</ele>
        <time>2023-09-15T13:51:00Z</time>
      </trkpt>
      <trkpt lat="43.51811" lon="6.31226">
        <ele>306.4</ele>
        <time>2023-09-15T13:51:01Z</time>
      </trkpt>
      <trkpt lat="43.51811" lon="6.31226">
        <ele>306.4</ele>
        <time>2023-09-15T13:51:02Z</time>
      </trkpt>
      <trkpt lat="43.51811" lon="6.31226">
        <ele>306.5</ele>
        <time>2023-09-15T13:51:03Z</time>
      </trkpt>
      <trkpt lat="43.51811" lon="6.31226">
        <ele>306.5</ele>
        <time>2023-09-15T13:51:04Z</time>
      </trkpt>
      <trkpt lat="43.51811" lon="6.31227">
        <ele>306.5</ele>
        <time>2023-09-15T13:51:05Z</time>
      </trkpt>
      <trkpt lat="43.51811" lon="6.31227">
        <ele>306.4</ele>
        <time>2023-09-15T13:51:06Z</time>
      </trkpt>
      <trkpt lat="43.51811" lon="6.31227">
        <ele>306.4</ele>
        <time>2023-09-15T13:51:07Z</time>
      </trkpt>
      <trkpt lat="43.51811" lon="6.31227">
        <ele>306.6</ele>
        <time>2023-09-15T13:51:08Z</time>
      </trkpt>
      <trkpt lat="43.51811" lon="6.31227">
        <ele>306.6</ele>
        <time>2023-09-15T13:51:09Z</time>
      </trkpt>
      <trkpt lat="43.51811" lon="6.31228">
        <ele>306.7</ele>
        <time>2023-09-15T13:51:10Z</time>
      </trkpt>
      <trkpt lat="43.51811" lon="6.31228">
        <ele>306.7</ele>
        <time>2023-09-15T13:51:11Z</time>
      </trkpt>
      <trkpt lat="43.51811" lon="6.31227">
        <ele>306.8</ele>
        <time>2023-09-15T13:51:12Z</time>
      </trkpt>
      <trkpt lat="43.51812" lon="6.31227">
        <ele>306.7</ele>
        <time>2023-09-15T13:51:13Z</time>
      </trkpt>
      <trkpt lat="43.51812" lon="6.31227">
        <ele>306.6</ele>
        <time>2023-09-15T13:51:14Z</time>
      </trkpt>
      <trkpt lat="43.51812" lon="6.31227">
        <ele>306.6</ele>
        <time>2023-09-15T13:51:15Z</time>
      </trkpt>
      <trkpt lat="43.51812" lon="6.31227">
        <ele>306.6</ele>
        <time>2023-09-15T13:51:16Z</time>
      </trkpt>
      <trkpt lat="43.51811" lon="6.31227">
        <ele>306.4</ele>
        <time>2023-09-15T13:51:17Z</time>
      </trkpt>
      <trkpt lat="43.51811" lon="6.31227">
        <ele>306.2</ele>
        <time>2023-09-15T13:51:18Z</time>
      </trkpt>
      <trkpt lat="43.51811" lon="6.31227">
        <ele>306.2</ele>
        <time>2023-09-15T13:51:19Z</time>
      </trkpt>
      <trkpt lat="43.51811" lon="6.31227">
        <ele>306.2</ele>
        <time>2023-09-15T13:51:20Z</time>
      </trkpt>
      <trkpt lat="43.51811" lon="6.31227">
        <ele>306.1</ele>
        <time>2023-09-15T13:51:21Z</time>
      </trkpt>
      <trkpt lat="43.51812" lon="6.31227">
        <ele>306.1</ele>
        <time>2023-09-15T13:51:22Z</time>
      </trkpt>
      <trkpt lat="43.51812" lon="6.31226">
        <ele>306</ele>
        <time>2023-09-15T13:51:23Z</time>
      </trkpt>
      <trkpt lat="43.51812" lon="6.31226">
        <ele>306</ele>
        <time>2023-09-15T13:51:24Z</time>
      </trkpt>
      <trkpt lat="43.51812" lon="6.31226">
        <ele>305.9</ele>
        <time>2023-09-15T13:51:25Z</time>
      </trkpt>
      <trkpt lat="43.51812" lon="6.31225">
        <ele>305.8</ele>
        <time>2023-09-15T13:51:26Z</time>
      </trkpt>
      <trkpt lat="43.51812" lon="6.31225">
        <ele>305.7</ele>
        <time>2023-09-15T13:51:27Z</time>
      </trkpt>
      <trkpt lat="43.51812" lon="6.31225">
        <ele>305.8</ele>
        <time>2023-09-15T13:51:28Z</time>
      </trkpt>
      <trkpt lat="43.51812" lon="6.31225">
        <ele>305.8</ele>
        <time>2023-09-15T13:51:29Z</time>
      </trkpt>
      <trkpt lat="43.51812" lon="6.31225">
        <ele>305.7</ele>
        <time>2023-09-15T13:51:30Z</time>
      </trkpt>
      <trkpt lat="43.51812" lon="6.31225">
        <ele>305.7</ele>
        <time>2023-09-15T13:51:31Z</time>
      </trkpt>
      <trkpt lat="43.51812" lon="6.31224">
        <ele>305.6</ele>
        <time>2023-09-15T13:51:32Z</time>
      </trkpt>
      <trkpt lat="43.51812" lon="6.31224">
        <ele>305.5</ele>
        <time>2023-09-15T13:51:33Z</time>
      </trkpt>
      <trkpt lat="43.51812" lon="6.31225">
        <ele>305.5</ele>
        <time>2023-09-15T13:51:34Z</time>
      </trkpt>
      <trkpt lat="43.51813" lon="6.31225">
        <ele>305.6</ele>
        <time>2023-09-15T13:51:35Z</time>
      </trkpt>
      <trkpt lat="43.51813" lon="6.31225">
        <ele>305.6</ele>
        <time>2023-09-15T13:51:36Z</time>
      </trkpt>
      <trkpt lat="43.51813" lon="6.31226">
        <ele>305.6</ele>
        <time>2023-09-15T13:51:37Z</time>
      </trkpt>
      <trkpt lat="43.51813" lon="6.31226">
        <ele>305.5</ele>
        <time>2023-09-15T13:51:38Z</time>
      </trkpt>
      <trkpt lat="43.51813" lon="6.31226">
        <ele>305.5</ele>
        <time>2023-09-15T13:51:39Z</time>
      </trkpt>
      <trkpt lat="43.51813" lon="6.31226">
        <ele>305.5</ele>
        <time>2023-09-15T13:51:40Z</time>
      </trkpt>
      <trkpt lat="43.51813" lon="6.31226">
        <ele>305.4</ele>
        <time>2023-09-15T13:51:41Z</time>
      </trkpt>
      <trkpt lat="43.51813" lon="6.31227">
        <ele>305.4</ele>
        <time>2023-09-15T13:51:42Z</time>
      </trkpt>
      <trkpt lat="43.51813" lon="6.31227">
        <ele>305.4</ele>
        <time>2023-09-15T13:51:43Z</time>
      </trkpt>
      <trkpt lat="43.51813" lon="6.31227">
        <ele>305.4</ele>
        <time>2023-09-15T13:51:44Z</time>
      </trkpt>
      <trkpt lat="43.51813" lon="6.31227">
        <ele>305.3</ele>
        <time>2023-09-15T13:51:45Z</time>
      </trkpt>
      <trkpt lat="43.51813" lon="6.31227">
        <ele>305.3</ele>
        <time>2023-09-15T13:51:46Z</time>
      </trkpt>
      <trkpt lat="43.51813" lon="6.31227">
        <ele>305.3</ele>
        <time>2023-09-15T13:51:47Z</time>
      </trkpt>
      <trkpt lat="43.51813" lon="6.31226">
        <ele>305.4</ele>
        <time>2023-09-15T13:51:48Z</time>
      </trkpt>
      <trkpt lat="43.51813" lon="6.31226">
        <ele>305.4</ele>
        <time>2023-09-15T13:51:49Z</time>
      </trkpt>
      <trkpt lat="43.51813" lon="6.31226">
        <ele>305.5</ele>
        <time>2023-09-15T13:51:50Z</time>
      </trkpt>
      <trkpt lat="43.51813" lon="6.31226">
        <ele>305.5</ele>
        <time>2023-09-15T13:51:51Z</time>
      </trkpt>
      <trkpt lat="43.51813" lon="6.31226">
        <ele>305.5</ele>
        <time>2023-09-15T13:51:52Z</time>
      </trkpt>
      <trkpt lat="43.51813" lon="6.31225">
        <ele>305.5</ele>
        <time>2023-09-15T13:51:53Z</time>
      </trkpt>
      <trkpt lat="43.51813" lon="6.31224">
        <ele>305.4</ele>
        <time>2023-09-15T13:51:54Z</time>
      </trkpt>
      <trkpt lat="43.51813" lon="6.31223">
        <ele>305.4</ele>
        <time>2023-09-15T13:51:55Z</time>
      </trkpt>
      <trkpt lat="43.51813" lon="6.31223">
        <ele>305.4</ele>
        <time>2023-09-15T13:51:56Z</time>
      </trkpt>
      <trkpt lat="43.51813" lon="6.31223">
        <ele>305.4</ele>
        <time>2023-09-15T13:51:57Z</time>
      </trkpt>
      <trkpt lat="43.51813" lon="6.31222">
        <ele>305.4</ele>
        <time>2023-09-15T13:51:58Z</time>
      </trkpt>
      <trkpt lat="43.51813" lon="6.31221">
        <ele>305.4</ele>
        <time>2023-09-15T13:51:59Z</time>
      </trkpt>
      <trkpt lat="43.51812" lon="6.3122">
        <ele>305.4</ele>
        <time>2023-09-15T13:52:00Z</time>
      </trkpt>
      <trkpt lat="43.51812" lon="6.31219">
        <ele>305.4</ele>
        <time>2023-09-15T13:52:01Z</time>
      </trkpt>
      <trkpt lat="43.51812" lon="6.31217">
        <ele>305.4</ele>
        <time>2023-09-15T13:52:02Z</time>
      </trkpt>
      <trkpt lat="43.51812" lon="6.31216">
        <ele>305.3</ele>
        <time>2023-09-15T13:52:03Z</time>
      </trkpt>
      <trkpt lat="43.51812" lon="6.31214">
        <ele>305.3</ele>
        <time>2023-09-15T13:52:04Z</time>
      </trkpt>
      <trkpt lat="43.51811" lon="6.31212">
        <ele>305.3</ele>
        <time>2023-09-15T13:52:05Z</time>
      </trkpt>
      <trkpt lat="43.51811" lon="6.3121">
        <ele>305.3</ele>
        <time>2023-09-15T13:52:06Z</time>
      </trkpt>
      <trkpt lat="43.5181" lon="6.31208">
        <ele>305.3</ele>
        <time>2023-09-15T13:52:07Z</time>
      </trkpt>
      <trkpt lat="43.5181" lon="6.31207">
        <ele>305.3</ele>
        <time>2023-09-15T13:52:08Z</time>
      </trkpt>
      <trkpt lat="43.51809" lon="6.31205">
        <ele>305.5</ele>
        <time>2023-09-15T13:52:09Z</time>
      </trkpt>
      <trkpt lat="43.51809" lon="6.31204">
        <ele>305.5</ele>
        <time>2023-09-15T13:52:10Z</time>
      </trkpt>
      <trkpt lat="43.51808" lon="6.31203">
        <ele>305.3</ele>
        <time>2023-09-15T13:52:11Z</time>
      </trkpt>
      <trkpt lat="43.51807" lon="6.31202">
        <ele>305.2</ele>
        <time>2023-09-15T13:52:12Z</time>
      </trkpt>
      <trkpt lat="43.51807" lon="6.31201">
        <ele>305.2</ele>
        <time>2023-09-15T13:52:13Z</time>
      </trkpt>
      <trkpt lat="43.51806" lon="6.312">
        <ele>305</ele>
        <time>2023-09-15T13:52:14Z</time>
      </trkpt>
      <trkpt lat="43.51805" lon="6.31199">
        <ele>304.9</ele>
        <time>2023-09-15T13:52:15Z</time>
      </trkpt>
      <trkpt lat="43.51804" lon="6.31198">
        <ele>304.9</ele>
        <time>2023-09-15T13:52:16Z</time>
      </trkpt>
      <trkpt lat="43.51803" lon="6.31197">
        <ele>304.9</ele>
        <time>2023-09-15T13:52:17Z</time>
      </trkpt>
      <trkpt lat="43.51802" lon="6.31196">
        <ele>304.9</ele>
        <time>2023-09-15T13:52:18Z</time>
      </trkpt>
      <trkpt lat="43.51801" lon="6.31195">
        <ele>304.8</ele>
        <time>2023-09-15T13:52:19Z</time>
      </trkpt>
      <trkpt lat="43.518" lon="6.31194">
        <ele>304.7</ele>
        <time>2023-09-15T13:52:20Z</time>
      </trkpt>
      <trkpt lat="43.51798" lon="6.31193">
        <ele>304.6</ele>
        <time>2023-09-15T13:52:21Z</time>
      </trkpt>
      <trkpt lat="43.51797" lon="6.31192">
        <ele>304.8</ele>
        <time>2023-09-15T13:52:22Z</time>
      </trkpt>
      <trkpt lat="43.51796" lon="6.3119">
        <ele>304.6</ele>
        <time>2023-09-15T13:52:23Z</time>
      </trkpt>
      <trkpt lat="43.51795" lon="6.31189">
        <ele>304.5</ele>
        <time>2023-09-15T13:52:24Z</time>
      </trkpt>
      <trkpt lat="43.51794" lon="6.31188">
        <ele>304.4</ele>
        <time>2023-09-15T13:52:25Z</time>
      </trkpt>
      <trkpt lat="43.51793" lon="6.31187">
        <ele>304.3</ele>
        <time>2023-09-15T13:52:26Z</time>
      </trkpt>
      <trkpt lat="43.51792" lon="6.31185">
        <ele>304.3</ele>
        <time>2023-09-15T13:52:27Z</time>
      </trkpt>
      <trkpt lat="43.51791" lon="6.31184">
        <ele>304.4</ele>
        <time>2023-09-15T13:52:28Z</time>
      </trkpt>
      <trkpt lat="43.51789" lon="6.31183">
        <ele>304.3</ele>
        <time>2023-09-15T13:52:29Z</time>
      </trkpt>
      <trkpt lat="43.51789" lon="6.31182">
        <ele>304.3</ele>
        <time>2023-09-15T13:52:30Z</time>
      </trkpt>
      <trkpt lat="43.51788" lon="6.3118">
        <ele>304.3</ele>
        <time>2023-09-15T13:52:31Z</time>
      </trkpt>
      <trkpt lat="43.51787" lon="6.31179">
        <ele>304.4</ele>
        <time>2023-09-15T13:52:32Z</time>
      </trkpt>
      <trkpt lat="43.51785" lon="6.31178">
        <ele>304.3</ele>
        <time>2023-09-15T13:52:33Z</time>
      </trkpt>
      <trkpt lat="43.51784" lon="6.31177">
        <ele>304.3</ele>
        <time>2023-09-15T13:52:34Z</time>
      </trkpt>
      <trkpt lat="43.51783" lon="6.31175">
        <ele>304.3</ele>
        <time>2023-09-15T13:52:35Z</time>
      </trkpt>
      <trkpt lat="43.51782" lon="6.31174">
        <ele>304.3</ele>
        <time>2023-09-15T13:52:36Z</time>
      </trkpt>
      <trkpt lat="43.51782" lon="6.31173">
        <ele>304.3</ele>
        <time>2023-09-15T13:52:37Z</time>
      </trkpt>
      <trkpt lat="43.51781" lon="6.31172">
        <ele>304.4</ele>
        <time>2023-09-15T13:52:38Z</time>
      </trkpt>
      <trkpt lat="43.5178" lon="6.31171">
        <ele>304.3</ele>
        <time>2023-09-15T13:52:39Z</time>
      </trkpt>
      <trkpt lat="43.51779" lon="6.3117">
        <ele>304.3</ele>
        <time>2023-09-15T13:52:40Z</time>
      </trkpt>
      <trkpt lat="43.51778" lon="6.31169">
        <ele>304.4</ele>
        <time>2023-09-15T13:52:41Z</time>
      </trkpt>
      <trkpt lat="43.51778" lon="6.31168">
        <ele>304.4</ele>
        <time>2023-09-15T13:52:42Z</time>
      </trkpt>
      <trkpt lat="43.51777" lon="6.31166">
        <ele>304.4</ele>
        <time>2023-09-15T13:52:43Z</time>
      </trkpt>
      <trkpt lat="43.51777" lon="6.31165">
        <ele>304.5</ele>
        <time>2023-09-15T13:52:44Z</time>
      </trkpt>
      <trkpt lat="43.51776" lon="6.31164">
        <ele>304.5</ele>
        <time>2023-09-15T13:52:45Z</time>
      </trkpt>
      <trkpt lat="43.51774" lon="6.31163">
        <ele>304.6</ele>
        <time>2023-09-15T13:52:46Z</time>
      </trkpt>
      <trkpt lat="43.51773" lon="6.31162">
        <ele>304.7</ele>
        <time>2023-09-15T13:52:47Z</time>
      </trkpt>
      <trkpt lat="43.51772" lon="6.31161">
        <ele>304.7</ele>
        <time>2023-09-15T13:52:48Z</time>
      </trkpt>
      <trkpt lat="43.51771" lon="6.31161">
        <ele>304.7</ele>
        <time>2023-09-15T13:52:49Z</time>
      </trkpt>
      <trkpt lat="43.5177" lon="6.3116">
        <ele>304.7</ele>
        <time>2023-09-15T13:52:50Z</time>
      </trkpt>
      <trkpt lat="43.51769" lon="6.31159">
        <ele>304.8</ele>
        <time>2023-09-15T13:52:51Z</time>
      </trkpt>
      <trkpt lat="43.51768" lon="6.31157">
        <ele>304.8</ele>
        <time>2023-09-15T13:52:52Z</time>
      </trkpt>
      <trkpt lat="43.51766" lon="6.31155">
        <ele>304.7</ele>
        <time>2023-09-15T13:52:53Z</time>
      </trkpt>
      <trkpt lat="43.51764" lon="6.31154">
        <ele>304.7</ele>
        <time>2023-09-15T13:52:54Z</time>
      </trkpt>
      <trkpt lat="43.51763" lon="6.31153">
        <ele>304.7</ele>
        <time>2023-09-15T13:52:55Z</time>
      </trkpt>
      <trkpt lat="43.51761" lon="6.31152">
        <ele>304.7</ele>
        <time>2023-09-15T13:52:56Z</time>
      </trkpt>
      <trkpt lat="43.51759" lon="6.31151">
        <ele>304.7</ele>
        <time>2023-09-15T13:52:57Z</time>
      </trkpt>
      <trkpt lat="43.51757" lon="6.31149">
        <ele>304.7</ele>
        <time>2023-09-15T13:52:58Z</time>
      </trkpt>
      <trkpt lat="43.51756" lon="6.31148">
        <ele>304.6</ele>
        <time>2023-09-15T13:52:59Z</time>
      </trkpt>
      <trkpt lat="43.51754" lon="6.31147">
        <ele>304.6</ele>
        <time>2023-09-15T13:53:00Z</time>
      </trkpt>
      <trkpt lat="43.51754" lon="6.31146">
        <ele>304.6</ele>
        <time>2023-09-15T13:53:01Z</time>
      </trkpt>
      <trkpt lat="43.51752" lon="6.31145">
        <ele>304.5</ele>
        <time>2023-09-15T13:53:02Z</time>
      </trkpt>
      <trkpt lat="43.51751" lon="6.31145">
        <ele>304.4</ele>
        <time>2023-09-15T13:53:03Z</time>
      </trkpt>
      <trkpt lat="43.5175" lon="6.31144">
        <ele>304.3</ele>
        <time>2023-09-15T13:53:04Z</time>
      </trkpt>
      <trkpt lat="43.51749" lon="6.31143">
        <ele>304.3</ele>
        <time>2023-09-15T13:53:05Z</time>
      </trkpt>
      <trkpt lat="43.51747" lon="6.31143">
        <ele>304.2</ele>
        <time>2023-09-15T13:53:06Z</time>
      </trkpt>
      <trkpt lat="43.51746" lon="6.31143">
        <ele>304.1</ele>
        <time>2023-09-15T13:53:07Z</time>
      </trkpt>
      <trkpt lat="43.51745" lon="6.31142">
        <ele>304.1</ele>
        <time>2023-09-15T13:53:08Z</time>
      </trkpt>
      <trkpt lat="43.51744" lon="6.31142">
        <ele>304.1</ele>
        <time>2023-09-15T13:53:09Z</time>
      </trkpt>
      <trkpt lat="43.51743" lon="6.31142">
        <ele>304.1</ele>
        <time>2023-09-15T13:53:10Z</time>
      </trkpt>
      <trkpt lat="43.51743" lon="6.31141">
        <ele>304</ele>
        <time>2023-09-15T13:53:11Z</time>
      </trkpt>
      <trkpt lat="43.51742" lon="6.31141">
        <ele>304</ele>
        <time>2023-09-15T13:53:12Z</time>
      </trkpt>
      <trkpt lat="43.51742" lon="6.31141">
        <ele>304</ele>
        <time>2023-09-15T13:53:13Z</time>
      </trkpt>
      <trkpt lat="43.51742" lon="6.31141">
        <ele>303.9</ele>
        <time>2023-09-15T13:53:14Z</time>
      </trkpt>
      <trkpt lat="43.51741" lon="6.31141">
        <ele>303.9</ele>
        <time>2023-09-15T13:53:15Z</time>
      </trkpt>
      <trkpt lat="43.5174" lon="6.31141">
        <ele>303.9</ele>
        <time>2023-09-15T13:53:16Z</time>
      </trkpt>
      <trkpt lat="43.5174" lon="6.31141">
        <ele>303.9</ele>
        <time>2023-09-15T13:53:17Z</time>
      </trkpt>
      <trkpt lat="43.5174" lon="6.31141">
        <ele>303.8</ele>
        <time>2023-09-15T13:53:18Z</time>
      </trkpt>
      <trkpt lat="43.51739" lon="6.31141">
        <ele>303.7</ele>
        <time>2023-09-15T13:53:19Z</time>
      </trkpt>
      <trkpt lat="43.51738" lon="6.3114">
        <ele>303.7</ele>
        <time>2023-09-15T13:53:20Z</time>
      </trkpt>
      <trkpt lat="43.51738" lon="6.3114">
        <ele>303.7</ele>
        <time>2023-09-15T13:53:21Z</time>
      </trkpt>
      <trkpt lat="43.51738" lon="6.3114">
        <ele>303.6</ele>
        <time>2023-09-15T13:53:22Z</time>
      </trkpt>
      <trkpt lat="43.51738" lon="6.3114">
        <ele>303.6</ele>
        <time>2023-09-15T13:53:23Z</time>
      </trkpt>
      <trkpt lat="43.51737" lon="6.3114">
        <ele>303.7</ele>
        <time>2023-09-15T13:53:24Z</time>
      </trkpt>
      <trkpt lat="43.51737" lon="6.3114">
        <ele>303.7</ele>
        <time>2023-09-15T13:53:25Z</time>
      </trkpt>
      <trkpt lat="43.51737" lon="6.3114">
        <ele>303.7</ele>
        <time>2023-09-15T13:53:26Z</time>
      </trkpt>
      <trkpt lat="43.51736" lon="6.3114">
        <ele>303.7</ele>
        <time>2023-09-15T13:53:27Z</time>
      </trkpt>
      <trkpt lat="43.51736" lon="6.3114">
        <ele>303.8</ele>
        <time>2023-09-15T13:53:28Z</time>
      </trkpt>
      <trkpt lat="43.51736" lon="6.3114">
        <ele>303.8</ele>
        <time>2023-09-15T13:53:29Z</time>
      </trkpt>
      <trkpt lat="43.51736" lon="6.3114">
        <ele>303.8</ele>
        <time>2023-09-15T13:53:30Z</time>
      </trkpt>
      <trkpt lat="43.51736" lon="6.3114">
        <ele>303.8</ele>
        <time>2023-09-15T13:53:31Z</time>
      </trkpt>
      <trkpt lat="43.51736" lon="6.3114">
        <ele>303.9</ele>
        <time>2023-09-15T13:53:32Z</time>
      </trkpt>
      <trkpt lat="43.51736" lon="6.3114">
        <ele>303.9</ele>
        <time>2023-09-15T13:53:33Z</time>
      </trkpt>
      <trkpt lat="43.51736" lon="6.3114">
        <ele>303.8</ele>
        <time>2023-09-15T13:53:34Z</time>
      </trkpt>
      <trkpt lat="43.51735" lon="6.3114">
        <ele>303.8</ele>
        <time>2023-09-15T13:53:35Z</time>
      </trkpt>
      <trkpt lat="43.51735" lon="6.3114">
        <ele>303.8</ele>
        <time>2023-09-15T13:53:36Z</time>
      </trkpt>
      <trkpt lat="43.51735" lon="6.3114">
        <ele>303.8</ele>
        <time>2023-09-15T13:53:37Z</time>
      </trkpt>
      <trkpt lat="43.51734" lon="6.31141">
        <ele>303.7</ele>
        <time>2023-09-15T13:53:38Z</time>
      </trkpt>
      <trkpt lat="43.51734" lon="6.3114">
        <ele>303.7</ele>
        <time>2023-09-15T13:53:39Z</time>
      </trkpt>
      <trkpt lat="43.51734" lon="6.3114">
        <ele>303.6</ele>
        <time>2023-09-15T13:53:40Z</time>
      </trkpt>
      <trkpt lat="43.51734" lon="6.3114">
        <ele>303.6</ele>
        <time>2023-09-15T13:53:41Z</time>
      </trkpt>
      <trkpt lat="43.51734" lon="6.3114">
        <ele>303.5</ele>
        <time>2023-09-15T13:53:42Z</time>
      </trkpt>
      <trkpt lat="43.51734" lon="6.31141">
        <ele>303.6</ele>
        <time>2023-09-15T13:53:43Z</time>
      </trkpt>
      <trkpt lat="43.51734" lon="6.3114">
        <ele>303.5</ele>
        <time>2023-09-15T13:53:44Z</time>
      </trkpt>
      <trkpt lat="43.51734" lon="6.3114">
        <ele>303.5</ele>
        <time>2023-09-15T13:53:45Z</time>
      </trkpt>
      <trkpt lat="43.51734" lon="6.3114">
        <ele>303.5</ele>
        <time>2023-09-15T13:53:46Z</time>
      </trkpt>
      <trkpt lat="43.51735" lon="6.3114">
        <ele>303.5</ele>
        <time>2023-09-15T13:53:47Z</time>
      </trkpt>
      <trkpt lat="43.51735" lon="6.3114">
        <ele>303.5</ele>
        <time>2023-09-15T13:53:48Z</time>
      </trkpt>
      <trkpt lat="43.51735" lon="6.3114">
        <ele>303.5</ele>
        <time>2023-09-15T13:53:49Z</time>
      </trkpt>
      <trkpt lat="43.51735" lon="6.3114">
        <ele>303.6</ele>
        <time>2023-09-15T13:53:50Z</time>
      </trkpt>
      <trkpt lat="43.51735" lon="6.3114">
        <ele>303.6</ele>
        <time>2023-09-15T13:53:51Z</time>
      </trkpt>
      <trkpt lat="43.51736" lon="6.3114">
        <ele>303.6</ele>
        <time>2023-09-15T13:53:52Z</time>
      </trkpt>
      <trkpt lat="43.51736" lon="6.31141">
        <ele>303.6</ele>
        <time>2023-09-15T13:53:53Z</time>
      </trkpt>
      <trkpt lat="43.51736" lon="6.3114">
        <ele>303.5</ele>
        <time>2023-09-15T13:53:54Z</time>
      </trkpt>
      <trkpt lat="43.51736" lon="6.3114">
        <ele>303.5</ele>
        <time>2023-09-15T13:53:55Z</time>
      </trkpt>
      <trkpt lat="43.51735" lon="6.31141">
        <ele>303.6</ele>
        <time>2023-09-15T13:53:56Z</time>
      </trkpt>
      <trkpt lat="43.51735" lon="6.3114">
        <ele>303.6</ele>
        <time>2023-09-15T13:53:57Z</time>
      </trkpt>
      <trkpt lat="43.51735" lon="6.31141">
        <ele>303.7</ele>
        <time>2023-09-15T13:53:58Z</time>
      </trkpt>
      <trkpt lat="43.51734" lon="6.31141">
        <ele>303.7</ele>
        <time>2023-09-15T13:53:59Z</time>
      </trkpt>
      <trkpt lat="43.51735" lon="6.31141">
        <ele>303.8</ele>
        <time>2023-09-15T13:54:00Z</time>
      </trkpt>
      <trkpt lat="43.51735" lon="6.31141">
        <ele>303.8</ele>
        <time>2023-09-15T13:54:01Z</time>
      </trkpt>
      <trkpt lat="43.51735" lon="6.31141">
        <ele>303.8</ele>
        <time>2023-09-15T13:54:02Z</time>
      </trkpt>
      <trkpt lat="43.51735" lon="6.31141">
        <ele>303.9</ele>
        <time>2023-09-15T13:54:03Z</time>
      </trkpt>
      <trkpt lat="43.51735" lon="6.31141">
        <ele>304</ele>
        <time>2023-09-15T13:54:04Z</time>
      </trkpt>
      <trkpt lat="43.51735" lon="6.31142">
        <ele>304</ele>
        <time>2023-09-15T13:54:05Z</time>
      </trkpt>
      <trkpt lat="43.51735" lon="6.31142">
        <ele>304</ele>
        <time>2023-09-15T13:54:06Z</time>
      </trkpt>
      <trkpt lat="43.51735" lon="6.31142">
        <ele>304</ele>
        <time>2023-09-15T13:54:07Z</time>
      </trkpt>
      <trkpt lat="43.51735" lon="6.31142">
        <ele>304</ele>
        <time>2023-09-15T13:54:08Z</time>
      </trkpt>
      <trkpt lat="43.51735" lon="6.31142">
        <ele>304.1</ele>
        <time>2023-09-15T13:54:09Z</time>
      </trkpt>
      <trkpt lat="43.51735" lon="6.31142">
        <ele>304.1</ele>
        <time>2023-09-15T13:54:10Z</time>
      </trkpt>
      <trkpt lat="43.51734" lon="6.31142">
        <ele>304.1</ele>
        <time>2023-09-15T13:54:11Z</time>
      </trkpt>
      <trkpt lat="43.51734" lon="6.31141">
        <ele>304.2</ele>
        <time>2023-09-15T13:54:12Z</time>
      </trkpt>
      <trkpt lat="43.51733" lon="6.31141">
        <ele>304.2</ele>
        <time>2023-09-15T13:54:13Z</time>
      </trkpt>
      <trkpt lat="43.51733" lon="6.3114">
        <ele>304.2</ele>
        <time>2023-09-15T13:54:14Z</time>
      </trkpt>
      <trkpt lat="43.51733" lon="6.3114">
        <ele>304.2</ele>
        <time>2023-09-15T13:54:15Z</time>
      </trkpt>
      <trkpt lat="43.51732" lon="6.31139">
        <ele>304.2</ele>
        <time>2023-09-15T13:54:16Z</time>
      </trkpt>
      <trkpt lat="43.51731" lon="6.31139">
        <ele>304.1</ele>
        <time>2023-09-15T13:54:17Z</time>
      </trkpt>
      <trkpt lat="43.5173" lon="6.31138">
        <ele>304.1</ele>
        <time>2023-09-15T13:54:18Z</time>
      </trkpt>
      <trkpt lat="43.5173" lon="6.31138">
        <ele>303.8</ele>
        <time>2023-09-15T13:54:19Z</time>
      </trkpt>
      <trkpt lat="43.51729" lon="6.31137">
        <ele>303.7</ele>
        <time>2023-09-15T13:54:20Z</time>
      </trkpt>
      <trkpt lat="43.51728" lon="6.31137">
        <ele>303.7</ele>
        <time>2023-09-15T13:54:21Z</time>
      </trkpt>
      <trkpt lat="43.51727" lon="6.31136">
        <ele>303.7</ele>
        <time>2023-09-15T13:54:22Z</time>
      </trkpt>
      <trkpt lat="43.51726" lon="6.31135">
        <ele>303.7</ele>
        <time>2023-09-15T13:54:23Z</time>
      </trkpt>
      <trkpt lat="43.51725" lon="6.31134">
        <ele>303.7</ele>
        <time>2023-09-15T13:54:24Z</time>
      </trkpt>
      <trkpt lat="43.51725" lon="6.31133">
        <ele>303.7</ele>
        <time>2023-09-15T13:54:25Z</time>
      </trkpt>
      <trkpt lat="43.51724" lon="6.31133">
        <ele>303.7</ele>
        <time>2023-09-15T13:54:26Z</time>
      </trkpt>
      <trkpt lat="43.51723" lon="6.31132">
        <ele>303.7</ele>
        <time>2023-09-15T13:54:27Z</time>
      </trkpt>
      <trkpt lat="43.51723" lon="6.31131">
        <ele>303.6</ele>
        <time>2023-09-15T13:54:28Z</time>
      </trkpt>
      <trkpt lat="43.51722" lon="6.3113">
        <ele>303.5</ele>
        <time>2023-09-15T13:54:29Z</time>
      </trkpt>
      <trkpt lat="43.51721" lon="6.3113">
        <ele>303.4</ele>
        <time>2023-09-15T13:54:30Z</time>
      </trkpt>
      <trkpt lat="43.5172" lon="6.31129">
        <ele>303.4</ele>
        <time>2023-09-15T13:54:31Z</time>
      </trkpt>
      <trkpt lat="43.5172" lon="6.31129">
        <ele>303.4</ele>
        <time>2023-09-15T13:54:32Z</time>
      </trkpt>
      <trkpt lat="43.51719" lon="6.31128">
        <ele>303.3</ele>
        <time>2023-09-15T13:54:33Z</time>
      </trkpt>
      <trkpt lat="43.51717" lon="6.31127">
        <ele>303.1</ele>
        <time>2023-09-15T13:54:34Z</time>
      </trkpt>
      <trkpt lat="43.51716" lon="6.31126">
        <ele>303</ele>
        <time>2023-09-15T13:54:35Z</time>
      </trkpt>
      <trkpt lat="43.51715" lon="6.31126">
        <ele>302.9</ele>
        <time>2023-09-15T13:54:36Z</time>
      </trkpt>
      <trkpt lat="43.51714" lon="6.31125">
        <ele>302.9</ele>
        <time>2023-09-15T13:54:37Z</time>
      </trkpt>
      <trkpt lat="43.51714" lon="6.31125">
        <ele>302.8</ele>
        <time>2023-09-15T13:54:38Z</time>
      </trkpt>
      <trkpt lat="43.51713" lon="6.31125">
        <ele>302.8</ele>
        <time>2023-09-15T13:54:39Z</time>
      </trkpt>
      <trkpt lat="43.51712" lon="6.31125">
        <ele>302.7</ele>
        <time>2023-09-15T13:54:40Z</time>
      </trkpt>
      <trkpt lat="43.51711" lon="6.31125">
        <ele>302.7</ele>
        <time>2023-09-15T13:54:41Z</time>
      </trkpt>
      <trkpt lat="43.5171" lon="6.31124">
        <ele>302.6</ele>
        <time>2023-09-15T13:54:42Z</time>
      </trkpt>
      <trkpt lat="43.51709" lon="6.31123">
        <ele>302.6</ele>
        <time>2023-09-15T13:54:43Z</time>
      </trkpt>
      <trkpt lat="43.51708" lon="6.31123">
        <ele>302.6</ele>
        <time>2023-09-15T13:54:44Z</time>
      </trkpt>
      <trkpt lat="43.51708" lon="6.31123">
        <ele>302.6</ele>
        <time>2023-09-15T13:54:45Z</time>
      </trkpt>
      <trkpt lat="43.51706" lon="6.31123">
        <ele>302.6</ele>
        <time>2023-09-15T13:54:46Z</time>
      </trkpt>
      <trkpt lat="43.51705" lon="6.31123">
        <ele>302.5</ele>
        <time>2023-09-15T13:54:47Z</time>
      </trkpt>
      <trkpt lat="43.51704" lon="6.31122">
        <ele>302.5</ele>
        <time>2023-09-15T13:54:48Z</time>
      </trkpt>
      <trkpt lat="43.51703" lon="6.31121">
        <ele>302.4</ele>
        <time>2023-09-15T13:54:49Z</time>
      </trkpt>
      <trkpt lat="43.51702" lon="6.31121">
        <ele>302.5</ele>
        <time>2023-09-15T13:54:50Z</time>
      </trkpt>
      <trkpt lat="43.51701" lon="6.3112">
        <ele>302.5</ele>
        <time>2023-09-15T13:54:51Z</time>
      </trkpt>
      <trkpt lat="43.51701" lon="6.3112">
        <ele>302.5</ele>
        <time>2023-09-15T13:54:52Z</time>
      </trkpt>
      <trkpt lat="43.517" lon="6.3112">
        <ele>302.4</ele>
        <time>2023-09-15T13:54:53Z</time>
      </trkpt>
      <trkpt lat="43.51699" lon="6.31119">
        <ele>302.4</ele>
        <time>2023-09-15T13:54:54Z</time>
      </trkpt>
      <trkpt lat="43.51698" lon="6.31119">
        <ele>302.3</ele>
        <time>2023-09-15T13:54:55Z</time>
      </trkpt>
      <trkpt lat="43.51697" lon="6.31118">
        <ele>302.3</ele>
        <time>2023-09-15T13:54:56Z</time>
      </trkpt>
      <trkpt lat="43.51696" lon="6.31118">
        <ele>302.2</ele>
        <time>2023-09-15T13:54:57Z</time>
      </trkpt>
      <trkpt lat="43.51695" lon="6.31117">
        <ele>302.2</ele>
        <time>2023-09-15T13:54:58Z</time>
      </trkpt>
      <trkpt lat="43.51694" lon="6.31116">
        <ele>302.1</ele>
        <time>2023-09-15T13:54:59Z</time>
      </trkpt>
      <trkpt lat="43.51693" lon="6.31115">
        <ele>302.1</ele>
        <time>2023-09-15T13:55:00Z</time>
      </trkpt>
      <trkpt lat="43.51692" lon="6.31114">
        <ele>302.1</ele>
        <time>2023-09-15T13:55:01Z</time>
      </trkpt>
      <trkpt lat="43.51691" lon="6.31114">
        <ele>302.1</ele>
        <time>2023-09-15T13:55:02Z</time>
      </trkpt>
      <trkpt lat="43.51691" lon="6.31114">
        <ele>302.1</ele>
        <time>2023-09-15T13:55:03Z</time>
      </trkpt>
      <trkpt lat="43.5169" lon="6.31114">
        <ele>302.1</ele>
        <time>2023-09-15T13:55:04Z</time>
      </trkpt>
      <trkpt lat="43.51689" lon="6.31113">
        <ele>302.1</ele>
        <time>2023-09-15T13:55:05Z</time>
      </trkpt>
      <trkpt lat="43.51687" lon="6.31112">
        <ele>302</ele>
        <time>2023-09-15T13:55:06Z</time>
      </trkpt>
      <trkpt lat="43.51686" lon="6.31112">
        <ele>302</ele>
        <time>2023-09-15T13:55:07Z</time>
      </trkpt>
      <trkpt lat="43.51685" lon="6.31111">
        <ele>301.9</ele>
        <time>2023-09-15T13:55:08Z</time>
      </trkpt>
      <trkpt lat="43.51684" lon="6.31111">
        <ele>301.9</ele>
        <time>2023-09-15T13:55:09Z</time>
      </trkpt>
      <trkpt lat="43.51683" lon="6.31111">
        <ele>301.8</ele>
        <time>2023-09-15T13:55:10Z</time>
      </trkpt>
      <trkpt lat="43.51682" lon="6.3111">
        <ele>301.8</ele>
        <time>2023-09-15T13:55:11Z</time>
      </trkpt>
      <trkpt lat="43.51681" lon="6.3111">
        <ele>301.8</ele>
        <time>2023-09-15T13:55:12Z</time>
      </trkpt>
      <trkpt lat="43.5168" lon="6.31109">
        <ele>301.8</ele>
        <time>2023-09-15T13:55:13Z</time>
      </trkpt>
      <trkpt lat="43.51679" lon="6.31109">
        <ele>301.8</ele>
        <time>2023-09-15T13:55:14Z</time>
      </trkpt>
      <trkpt lat="43.51678" lon="6.31108">
        <ele>301.6</ele>
        <time>2023-09-15T13:55:15Z</time>
      </trkpt>
      <trkpt lat="43.51676" lon="6.31108">
        <ele>301.6</ele>
        <time>2023-09-15T13:55:16Z</time>
      </trkpt>
      <trkpt lat="43.51675" lon="6.31107">
        <ele>301.5</ele>
        <time>2023-09-15T13:55:17Z</time>
      </trkpt>
      <trkpt lat="43.51674" lon="6.31107">
        <ele>301.4</ele>
        <time>2023-09-15T13:55:18Z</time>
      </trkpt>
      <trkpt lat="43.51673" lon="6.31107">
        <ele>301.4</ele>
        <time>2023-09-15T13:55:19Z</time>
      </trkpt>
      <trkpt lat="43.51672" lon="6.31107">
        <ele>301.4</ele>
        <time>2023-09-15T13:55:20Z</time>
      </trkpt>
      <trkpt lat="43.5167" lon="6.31108">
        <ele>301.3</ele>
        <time>2023-09-15T13:55:21Z</time>
      </trkpt>
      <trkpt lat="43.5167" lon="6.31108">
        <ele>301.2</ele>
        <time>2023-09-15T13:55:22Z</time>
      </trkpt>
      <trkpt lat="43.51669" lon="6.31108">
        <ele>301.1</ele>
        <time>2023-09-15T13:55:23Z</time>
      </trkpt>
      <trkpt lat="43.51668" lon="6.31108">
        <ele>301</ele>
        <time>2023-09-15T13:55:24Z</time>
      </trkpt>
      <trkpt lat="43.51667" lon="6.31108">
        <ele>300.9</ele>
        <time>2023-09-15T13:55:25Z</time>
      </trkpt>
      <trkpt lat="43.51666" lon="6.31108">
        <ele>300.8</ele>
        <time>2023-09-15T13:55:26Z</time>
      </trkpt>
      <trkpt lat="43.51665" lon="6.31108">
        <ele>300.7</ele>
        <time>2023-09-15T13:55:27Z</time>
      </trkpt>
      <trkpt lat="43.51664" lon="6.31108">
        <ele>300.6</ele>
        <time>2023-09-15T13:55:28Z</time>
      </trkpt>
      <trkpt lat="43.51662" lon="6.31108">
        <ele>300.5</ele>
        <time>2023-09-15T13:55:29Z</time>
      </trkpt>
      <trkpt lat="43.51662" lon="6.31109">
        <ele>300.4</ele>
        <time>2023-09-15T13:55:30Z</time>
      </trkpt>
      <trkpt lat="43.5166" lon="6.31109">
        <ele>300.4</ele>
        <time>2023-09-15T13:55:31Z</time>
      </trkpt>
      <trkpt lat="43.5166" lon="6.31108">
        <ele>300.3</ele>
        <time>2023-09-15T13:55:32Z</time>
      </trkpt>
      <trkpt lat="43.51659" lon="6.31108">
        <ele>300.3</ele>
        <time>2023-09-15T13:55:33Z</time>
      </trkpt>
      <trkpt lat="43.51659" lon="6.31109">
        <ele>300.2</ele>
        <time>2023-09-15T13:55:34Z</time>
      </trkpt>
      <trkpt lat="43.51658" lon="6.31109">
        <ele>300.2</ele>
        <time>2023-09-15T13:55:35Z</time>
      </trkpt>
      <trkpt lat="43.51657" lon="6.31109">
        <ele>300.1</ele>
        <time>2023-09-15T13:55:36Z</time>
      </trkpt>
      <trkpt lat="43.51656" lon="6.31109">
        <ele>300</ele>
        <time>2023-09-15T13:55:37Z</time>
      </trkpt>
      <trkpt lat="43.51655" lon="6.3111">
        <ele>299.9</ele>
        <time>2023-09-15T13:55:38Z</time>
      </trkpt>
      <trkpt lat="43.51654" lon="6.3111">
        <ele>299.8</ele>
        <time>2023-09-15T13:55:39Z</time>
      </trkpt>
      <trkpt lat="43.51654" lon="6.3111">
        <ele>299.7</ele>
        <time>2023-09-15T13:55:40Z</time>
      </trkpt>
      <trkpt lat="43.51653" lon="6.31111">
        <ele>299.6</ele>
        <time>2023-09-15T13:55:41Z</time>
      </trkpt>
      <trkpt lat="43.51652" lon="6.31111">
        <ele>299.6</ele>
        <time>2023-09-15T13:55:42Z</time>
      </trkpt>
      <trkpt lat="43.51651" lon="6.31112">
        <ele>299.5</ele>
        <time>2023-09-15T13:55:43Z</time>
      </trkpt>
      <trkpt lat="43.5165" lon="6.31113">
        <ele>299.4</ele>
        <time>2023-09-15T13:55:44Z</time>
      </trkpt>
      <trkpt lat="43.51649" lon="6.31114">
        <ele>299.4</ele>
        <time>2023-09-15T13:55:45Z</time>
      </trkpt>
      <trkpt lat="43.51647" lon="6.31115">
        <ele>299.4</ele>
        <time>2023-09-15T13:55:46Z</time>
      </trkpt>
      <trkpt lat="43.51646" lon="6.31115">
        <ele>299.4</ele>
        <time>2023-09-15T13:55:47Z</time>
      </trkpt>
      <trkpt lat="43.51645" lon="6.31114">
        <ele>299.4</ele>
        <time>2023-09-15T13:55:48Z</time>
      </trkpt>
      <trkpt lat="43.51644" lon="6.31115">
        <ele>299.4</ele>
        <time>2023-09-15T13:55:49Z</time>
      </trkpt>
      <trkpt lat="43.51643" lon="6.31115">
        <ele>299.4</ele>
        <time>2023-09-15T13:55:50Z</time>
      </trkpt>
      <trkpt lat="43.51642" lon="6.31115">
        <ele>299.4</ele>
        <time>2023-09-15T13:55:51Z</time>
      </trkpt>
      <trkpt lat="43.5164" lon="6.31116">
        <ele>299.4</ele>
        <time>2023-09-15T13:55:52Z</time>
      </trkpt>
      <trkpt lat="43.51639" lon="6.31116">
        <ele>299.4</ele>
        <time>2023-09-15T13:55:53Z</time>
      </trkpt>
      <trkpt lat="43.51638" lon="6.31117">
        <ele>299.4</ele>
        <time>2023-09-15T13:55:54Z</time>
      </trkpt>
      <trkpt lat="43.51637" lon="6.31118">
        <ele>299.4</ele>
        <time>2023-09-15T13:55:55Z</time>
      </trkpt>
      <trkpt lat="43.51636" lon="6.31118">
        <ele>299.4</ele>
        <time>2023-09-15T13:55:56Z</time>
      </trkpt>
      <trkpt lat="43.51636" lon="6.31119">
        <ele>299.4</ele>
        <time>2023-09-15T13:55:57Z</time>
      </trkpt>
      <trkpt lat="43.51635" lon="6.31119">
        <ele>299.4</ele>
        <time>2023-09-15T13:55:58Z</time>
      </trkpt>
      <trkpt lat="43.51635" lon="6.3112">
        <ele>299.4</ele>
        <time>2023-09-15T13:55:59Z</time>
      </trkpt>
      <trkpt lat="43.51634" lon="6.3112">
        <ele>299.6</ele>
        <time>2023-09-15T13:56:00Z</time>
      </trkpt>
      <trkpt lat="43.51633" lon="6.31121">
        <ele>299.6</ele>
        <time>2023-09-15T13:56:01Z</time>
      </trkpt>
      <trkpt lat="43.51633" lon="6.31121">
        <ele>299.6</ele>
        <time>2023-09-15T13:56:02Z</time>
      </trkpt>
      <trkpt lat="43.51632" lon="6.31122">
        <ele>299.6</ele>
        <time>2023-09-15T13:56:03Z</time>
      </trkpt>
      <trkpt lat="43.51631" lon="6.31122">
        <ele>299.6</ele>
        <time>2023-09-15T13:56:04Z</time>
      </trkpt>
      <trkpt lat="43.51631" lon="6.31123">
        <ele>299.6</ele>
        <time>2023-09-15T13:56:05Z</time>
      </trkpt>
      <trkpt lat="43.51631" lon="6.31123">
        <ele>299.5</ele>
        <time>2023-09-15T13:56:06Z</time>
      </trkpt>
      <trkpt lat="43.5163" lon="6.31124">
        <ele>299.5</ele>
        <time>2023-09-15T13:56:07Z</time>
      </trkpt>
      <trkpt lat="43.5163" lon="6.31123">
        <ele>299.4</ele>
        <time>2023-09-15T13:56:08Z</time>
      </trkpt>
      <trkpt lat="43.51629" lon="6.31123">
        <ele>299.4</ele>
        <time>2023-09-15T13:56:09Z</time>
      </trkpt>
      <trkpt lat="43.51628" lon="6.31124">
        <ele>299.4</ele>
        <time>2023-09-15T13:56:10Z</time>
      </trkpt>
      <trkpt lat="43.51627" lon="6.31124">
        <ele>299.3</ele>
        <time>2023-09-15T13:56:11Z</time>
      </trkpt>
      <trkpt lat="43.51626" lon="6.31125">
        <ele>299.3</ele>
        <time>2023-09-15T13:56:12Z</time>
      </trkpt>
      <trkpt lat="43.51626" lon="6.31125">
        <ele>299.2</ele>
        <time>2023-09-15T13:56:13Z</time>
      </trkpt>
      <trkpt lat="43.51625" lon="6.31127">
        <ele>299.1</ele>
        <time>2023-09-15T13:56:14Z</time>
      </trkpt>
      <trkpt lat="43.51624" lon="6.31127">
        <ele>299.1</ele>
        <time>2023-09-15T13:56:15Z</time>
      </trkpt>
      <trkpt lat="43.51623" lon="6.31127">
        <ele>299</ele>
        <time>2023-09-15T13:56:16Z</time>
      </trkpt>
      <trkpt lat="43.51622" lon="6.31128">
        <ele>299</ele>
        <time>2023-09-15T13:56:17Z</time>
      </trkpt>
      <trkpt lat="43.5162" lon="6.31129">
        <ele>299</ele>
        <time>2023-09-15T13:56:18Z</time>
      </trkpt>
      <trkpt lat="43.51619" lon="6.3113">
        <ele>298.9</ele>
        <time>2023-09-15T13:56:19Z</time>
      </trkpt>
      <trkpt lat="43.51618" lon="6.31131">
        <ele>298.9</ele>
        <time>2023-09-15T13:56:20Z</time>
      </trkpt>
      <trkpt lat="43.51618" lon="6.31132">
        <ele>298.9</ele>
        <time>2023-09-15T13:56:21Z</time>
      </trkpt>
      <trkpt lat="43.51617" lon="6.31132">
        <ele>298.9</ele>
        <time>2023-09-15T13:56:22Z</time>
      </trkpt>
      <trkpt lat="43.51616" lon="6.31133">
        <ele>298.8</ele>
        <time>2023-09-15T13:56:23Z</time>
      </trkpt>
      <trkpt lat="43.51615" lon="6.31134">
        <ele>298.7</ele>
        <time>2023-09-15T13:56:24Z</time>
      </trkpt>
      <trkpt lat="43.51614" lon="6.31134">
        <ele>298.7</ele>
        <time>2023-09-15T13:56:25Z</time>
      </trkpt>
      <trkpt lat="43.51613" lon="6.31135">
        <ele>298.7</ele>
        <time>2023-09-15T13:56:26Z</time>
      </trkpt>
      <trkpt lat="43.51613" lon="6.31136">
        <ele>298.6</ele>
        <time>2023-09-15T13:56:27Z</time>
      </trkpt>
      <trkpt lat="43.51612" lon="6.31136">
        <ele>298.6</ele>
        <time>2023-09-15T13:56:28Z</time>
      </trkpt>
      <trkpt lat="43.51611" lon="6.31137">
        <ele>298.7</ele>
        <time>2023-09-15T13:56:29Z</time>
      </trkpt>
      <trkpt lat="43.5161" lon="6.31138">
        <ele>298.7</ele>
        <time>2023-09-15T13:56:30Z</time>
      </trkpt>
      <trkpt lat="43.51609" lon="6.31139">
        <ele>298.8</ele>
        <time>2023-09-15T13:56:31Z</time>
      </trkpt>
      <trkpt lat="43.51607" lon="6.31139">
        <ele>298.7</ele>
        <time>2023-09-15T13:56:32Z</time>
      </trkpt>
      <trkpt lat="43.51607" lon="6.31139">
        <ele>298.7</ele>
        <time>2023-09-15T13:56:33Z</time>
      </trkpt>
      <trkpt lat="43.51605" lon="6.31139">
        <ele>298.7</ele>
        <time>2023-09-15T13:56:34Z</time>
      </trkpt>
      <trkpt lat="43.51604" lon="6.3114">
        <ele>298.7</ele>
        <time>2023-09-15T13:56:35Z</time>
      </trkpt>
      <trkpt lat="43.51604" lon="6.3114">
        <ele>298.6</ele>
        <time>2023-09-15T13:56:36Z</time>
      </trkpt>
      <trkpt lat="43.51603" lon="6.31141">
        <ele>298.5</ele>
        <time>2023-09-15T13:56:37Z</time>
      </trkpt>
      <trkpt lat="43.51602" lon="6.31142">
        <ele>298.5</ele>
        <time>2023-09-15T13:56:38Z</time>
      </trkpt>
      <trkpt lat="43.51601" lon="6.31142">
        <ele>298.5</ele>
        <time>2023-09-15T13:56:39Z</time>
      </trkpt>
      <trkpt lat="43.516" lon="6.31143">
        <ele>298.4</ele>
        <time>2023-09-15T13:56:40Z</time>
      </trkpt>
      <trkpt lat="43.51599" lon="6.31143">
        <ele>298.4</ele>
        <time>2023-09-15T13:56:41Z</time>
      </trkpt>
      <trkpt lat="43.51598" lon="6.31143">
        <ele>298.3</ele>
        <time>2023-09-15T13:56:42Z</time>
      </trkpt>
      <trkpt lat="43.51597" lon="6.31143">
        <ele>298.3</ele>
        <time>2023-09-15T13:56:43Z</time>
      </trkpt>
      <trkpt lat="43.51595" lon="6.31144">
        <ele>298.3</ele>
        <time>2023-09-15T13:56:44Z</time>
      </trkpt>
      <trkpt lat="43.51595" lon="6.31145">
        <ele>298.2</ele>
        <time>2023-09-15T13:56:45Z</time>
      </trkpt>
      <trkpt lat="43.51594" lon="6.31146">
        <ele>298.2</ele>
        <time>2023-09-15T13:56:46Z</time>
      </trkpt>
      <trkpt lat="43.51592" lon="6.31147">
        <ele>298.2</ele>
        <time>2023-09-15T13:56:47Z</time>
      </trkpt>
      <trkpt lat="43.51591" lon="6.31147">
        <ele>298.1</ele>
        <time>2023-09-15T13:56:48Z</time>
      </trkpt>
      <trkpt lat="43.5159" lon="6.31148">
        <ele>298.1</ele>
        <time>2023-09-15T13:56:49Z</time>
      </trkpt>
      <trkpt lat="43.51589" lon="6.31149">
        <ele>298.1</ele>
        <time>2023-09-15T13:56:50Z</time>
      </trkpt>
      <trkpt lat="43.51588" lon="6.3115">
        <ele>298.1</ele>
        <time>2023-09-15T13:56:51Z</time>
      </trkpt>
      <trkpt lat="43.51587" lon="6.3115">
        <ele>298.2</ele>
        <time>2023-09-15T13:56:52Z</time>
      </trkpt>
      <trkpt lat="43.51586" lon="6.3115">
        <ele>298.3</ele>
        <time>2023-09-15T13:56:53Z</time>
      </trkpt>
      <trkpt lat="43.51585" lon="6.31151">
        <ele>298.4</ele>
        <time>2023-09-15T13:56:54Z</time>
      </trkpt>
      <trkpt lat="43.51584" lon="6.31151">
        <ele>298.4</ele>
        <time>2023-09-15T13:56:55Z</time>
      </trkpt>
      <trkpt lat="43.51583" lon="6.31151">
        <ele>298.5</ele>
        <time>2023-09-15T13:56:56Z</time>
      </trkpt>
      <trkpt lat="43.51582" lon="6.31152">
        <ele>298.5</ele>
        <time>2023-09-15T13:56:57Z</time>
      </trkpt>
      <trkpt lat="43.51581" lon="6.31153">
        <ele>298.4</ele>
        <time>2023-09-15T13:56:58Z</time>
      </trkpt>
      <trkpt lat="43.5158" lon="6.31154">
        <ele>298.4</ele>
        <time>2023-09-15T13:56:59Z</time>
      </trkpt>
      <trkpt lat="43.51579" lon="6.31154">
        <ele>298.3</ele>
        <time>2023-09-15T13:57:00Z</time>
      </trkpt>
      <trkpt lat="43.51578" lon="6.31155">
        <ele>298.3</ele>
        <time>2023-09-15T13:57:01Z</time>
      </trkpt>
      <trkpt lat="43.51577" lon="6.31155">
        <ele>298.2</ele>
        <time>2023-09-15T13:57:02Z</time>
      </trkpt>
      <trkpt lat="43.51576" lon="6.31155">
        <ele>298.2</ele>
        <time>2023-09-15T13:57:03Z</time>
      </trkpt>
      <trkpt lat="43.51575" lon="6.31155">
        <ele>298.1</ele>
        <time>2023-09-15T13:57:04Z</time>
      </trkpt>
      <trkpt lat="43.51574" lon="6.31156">
        <ele>298</ele>
        <time>2023-09-15T13:57:05Z</time>
      </trkpt>
      <trkpt lat="43.51573" lon="6.31156">
        <ele>298</ele>
        <time>2023-09-15T13:57:06Z</time>
      </trkpt>
      <trkpt lat="43.51572" lon="6.31156">
        <ele>298</ele>
        <time>2023-09-15T13:57:07Z</time>
      </trkpt>
      <trkpt lat="43.51571" lon="6.31158">
        <ele>298</ele>
        <time>2023-09-15T13:57:08Z</time>
      </trkpt>
      <trkpt lat="43.5157" lon="6.31159">
        <ele>298</ele>
        <time>2023-09-15T13:57:09Z</time>
      </trkpt>
      <trkpt lat="43.51569" lon="6.31159">
        <ele>297.9</ele>
        <time>2023-09-15T13:57:10Z</time>
      </trkpt>
      <trkpt lat="43.51568" lon="6.3116">
        <ele>297.9</ele>
        <time>2023-09-15T13:57:11Z</time>
      </trkpt>
      <trkpt lat="43.51567" lon="6.3116">
        <ele>297.9</ele>
        <time>2023-09-15T13:57:12Z</time>
      </trkpt>
      <trkpt lat="43.51566" lon="6.3116">
        <ele>297.9</ele>
        <time>2023-09-15T13:57:13Z</time>
      </trkpt>
      <trkpt lat="43.51565" lon="6.31161">
        <ele>297.9</ele>
        <time>2023-09-15T13:57:14Z</time>
      </trkpt>
      <trkpt lat="43.51564" lon="6.31162">
        <ele>297.9</ele>
        <time>2023-09-15T13:57:15Z</time>
      </trkpt>
      <trkpt lat="43.51564" lon="6.31164">
        <ele>297.9</ele>
        <time>2023-09-15T13:57:16Z</time>
      </trkpt>
      <trkpt lat="43.51563" lon="6.31164">
        <ele>297.9</ele>
        <time>2023-09-15T13:57:17Z</time>
      </trkpt>
      <trkpt lat="43.51562" lon="6.31165">
        <ele>298</ele>
        <time>2023-09-15T13:57:18Z</time>
      </trkpt>
      <trkpt lat="43.51562" lon="6.31166">
        <ele>298</ele>
        <time>2023-09-15T13:57:19Z</time>
      </trkpt>
      <trkpt lat="43.51561" lon="6.31167">
        <ele>298</ele>
        <time>2023-09-15T13:57:20Z</time>
      </trkpt>
      <trkpt lat="43.5156" lon="6.31168">
        <ele>298</ele>
        <time>2023-09-15T13:57:21Z</time>
      </trkpt>
      <trkpt lat="43.5156" lon="6.31169">
        <ele>298</ele>
        <time>2023-09-15T13:57:22Z</time>
      </trkpt>
      <trkpt lat="43.51559" lon="6.3117">
        <ele>297.9</ele>
        <time>2023-09-15T13:57:23Z</time>
      </trkpt>
      <trkpt lat="43.51559" lon="6.3117">
        <ele>297.9</ele>
        <time>2023-09-15T13:57:24Z</time>
      </trkpt>
      <trkpt lat="43.51558" lon="6.31171">
        <ele>297.8</ele>
        <time>2023-09-15T13:57:25Z</time>
      </trkpt>
      <trkpt lat="43.51558" lon="6.31172">
        <ele>297.7</ele>
        <time>2023-09-15T13:57:26Z</time>
      </trkpt>
      <trkpt lat="43.51558" lon="6.31174">
        <ele>297.7</ele>
        <time>2023-09-15T13:57:27Z</time>
      </trkpt>
      <trkpt lat="43.51557" lon="6.31175">
        <ele>297.6</ele>
        <time>2023-09-15T13:57:28Z</time>
      </trkpt>
      <trkpt lat="43.51556" lon="6.31176">
        <ele>297.5</ele>
        <time>2023-09-15T13:57:29Z</time>
      </trkpt>
      <trkpt lat="43.51556" lon="6.31177">
        <ele>297.4</ele>
        <time>2023-09-15T13:57:30Z</time>
      </trkpt>
      <trkpt lat="43.51556" lon="6.31179">
        <ele>297.3</ele>
        <time>2023-09-15T13:57:31Z</time>
      </trkpt>
      <trkpt lat="43.51555" lon="6.31181">
        <ele>297.1</ele>
        <time>2023-09-15T13:57:32Z</time>
      </trkpt>
      <trkpt lat="43.51555" lon="6.31182">
        <ele>297</ele>
        <time>2023-09-15T13:57:33Z</time>
      </trkpt>
      <trkpt lat="43.51554" lon="6.31182">
        <ele>296.9</ele>
        <time>2023-09-15T13:57:34Z</time>
      </trkpt>
      <trkpt lat="43.51554" lon="6.31183">
        <ele>296.9</ele>
        <time>2023-09-15T13:57:35Z</time>
      </trkpt>
      <trkpt lat="43.51553" lon="6.31184">
        <ele>296.8</ele>
        <time>2023-09-15T13:57:36Z</time>
      </trkpt>
      <trkpt lat="43.51553" lon="6.31184">
        <ele>296.8</ele>
        <time>2023-09-15T13:57:37Z</time>
      </trkpt>
      <trkpt lat="43.51552" lon="6.31185">
        <ele>296.7</ele>
        <time>2023-09-15T13:57:38Z</time>
      </trkpt>
      <trkpt lat="43.51552" lon="6.31186">
        <ele>296.7</ele>
        <time>2023-09-15T13:57:39Z</time>
      </trkpt>
      <trkpt lat="43.51552" lon="6.31187">
        <ele>296.7</ele>
        <time>2023-09-15T13:57:40Z</time>
      </trkpt>
      <trkpt lat="43.51551" lon="6.31188">
        <ele>296.7</ele>
        <time>2023-09-15T13:57:41Z</time>
      </trkpt>
      <trkpt lat="43.5155" lon="6.31189">
        <ele>296.7</ele>
        <time>2023-09-15T13:57:42Z</time>
      </trkpt>
      <trkpt lat="43.5155" lon="6.3119">
        <ele>296.8</ele>
        <time>2023-09-15T13:57:43Z</time>
      </trkpt>
      <trkpt lat="43.51549" lon="6.31191">
        <ele>296.8</ele>
        <time>2023-09-15T13:57:44Z</time>
      </trkpt>
      <trkpt lat="43.51549" lon="6.31192">
        <ele>296.8</ele>
        <time>2023-09-15T13:57:45Z</time>
      </trkpt>
      <trkpt lat="43.51548" lon="6.31193">
        <ele>296.9</ele>
        <time>2023-09-15T13:57:46Z</time>
      </trkpt>
      <trkpt lat="43.51548" lon="6.31194">
        <ele>296.8</ele>
        <time>2023-09-15T13:57:47Z</time>
      </trkpt>
      <trkpt lat="43.51547" lon="6.31195">
        <ele>296.8</ele>
        <time>2023-09-15T13:57:48Z</time>
      </trkpt>
      <trkpt lat="43.51546" lon="6.31197">
        <ele>296.8</ele>
        <time>2023-09-15T13:57:49Z</time>
      </trkpt>
      <trkpt lat="43.51545" lon="6.31198">
        <ele>296.8</ele>
        <time>2023-09-15T13:57:50Z</time>
      </trkpt>
      <trkpt lat="43.51545" lon="6.31199">
        <ele>296.8</ele>
        <time>2023-09-15T13:57:51Z</time>
      </trkpt>
      <trkpt lat="43.51544" lon="6.31201">
        <ele>296.7</ele>
        <time>2023-09-15T13:57:52Z</time>
      </trkpt>
      <trkpt lat="43.51544" lon="6.31202">
        <ele>296.6</ele>
        <time>2023-09-15T13:57:53Z</time>
      </trkpt>
      <trkpt lat="43.51543" lon="6.31203">
        <ele>296.5</ele>
        <time>2023-09-15T13:57:54Z</time>
      </trkpt>
      <trkpt lat="43.51542" lon="6.31204">
        <ele>296.5</ele>
        <time>2023-09-15T13:57:55Z</time>
      </trkpt>
      <trkpt lat="43.51542" lon="6.31205">
        <ele>296.5</ele>
        <time>2023-09-15T13:57:56Z</time>
      </trkpt>
      <trkpt lat="43.51542" lon="6.31205">
        <ele>296.4</ele>
        <time>2023-09-15T13:57:57Z</time>
      </trkpt>
      <trkpt lat="43.51541" lon="6.31207">
        <ele>296.3</ele>
        <time>2023-09-15T13:57:58Z</time>
      </trkpt>
      <trkpt lat="43.51541" lon="6.31208">
        <ele>296.3</ele>
        <time>2023-09-15T13:57:59Z</time>
      </trkpt>
      <trkpt lat="43.5154" lon="6.31209">
        <ele>296.2</ele>
        <time>2023-09-15T13:58:00Z</time>
      </trkpt>
      <trkpt lat="43.51539" lon="6.31211">
        <ele>296.1</ele>
        <time>2023-09-15T13:58:01Z</time>
      </trkpt>
      <trkpt lat="43.51539" lon="6.31212">
        <ele>296.1</ele>
        <time>2023-09-15T13:58:02Z</time>
      </trkpt>
      <trkpt lat="43.51537" lon="6.31213">
        <ele>296</ele>
        <time>2023-09-15T13:58:03Z</time>
      </trkpt>
      <trkpt lat="43.51537" lon="6.31214">
        <ele>295.9</ele>
        <time>2023-09-15T13:58:04Z</time>
      </trkpt>
      <trkpt lat="43.51535" lon="6.31215">
        <ele>295.9</ele>
        <time>2023-09-15T13:58:05Z</time>
      </trkpt>
      <trkpt lat="43.51535" lon="6.31216">
        <ele>295.8</ele>
        <time>2023-09-15T13:58:06Z</time>
      </trkpt>
      <trkpt lat="43.51534" lon="6.31216">
        <ele>295.7</ele>
        <time>2023-09-15T13:58:07Z</time>
      </trkpt>
      <trkpt lat="43.51533" lon="6.31217">
        <ele>295.7</ele>
        <time>2023-09-15T13:58:08Z</time>
      </trkpt>
      <trkpt lat="43.51532" lon="6.31217">
        <ele>295.6</ele>
        <time>2023-09-15T13:58:09Z</time>
      </trkpt>
      <trkpt lat="43.51531" lon="6.31218">
        <ele>295.5</ele>
        <time>2023-09-15T13:58:10Z</time>
      </trkpt>
      <trkpt lat="43.5153" lon="6.31219">
        <ele>295.4</ele>
        <time>2023-09-15T13:58:11Z</time>
      </trkpt>
      <trkpt lat="43.51529" lon="6.3122">
        <ele>295.3</ele>
        <time>2023-09-15T13:58:12Z</time>
      </trkpt>
      <trkpt lat="43.51529" lon="6.31221">
        <ele>295.3</ele>
        <time>2023-09-15T13:58:13Z</time>
      </trkpt>
      <trkpt lat="43.51528" lon="6.31222">
        <ele>295.2</ele>
        <time>2023-09-15T13:58:14Z</time>
      </trkpt>
      <trkpt lat="43.51527" lon="6.31223">
        <ele>295.2</ele>
        <time>2023-09-15T13:58:15Z</time>
      </trkpt>
      <trkpt lat="43.51527" lon="6.31224">
        <ele>295.2</ele>
        <time>2023-09-15T13:58:16Z</time>
      </trkpt>
      <trkpt lat="43.51526" lon="6.31224">
        <ele>295.2</ele>
        <time>2023-09-15T13:58:17Z</time>
      </trkpt>
      <trkpt lat="43.51526" lon="6.31225">
        <ele>295.1</ele>
        <time>2023-09-15T13:58:18Z</time>
      </trkpt>
      <trkpt lat="43.51525" lon="6.31225">
        <ele>295.1</ele>
        <time>2023-09-15T13:58:19Z</time>
      </trkpt>
      <trkpt lat="43.51525" lon="6.31225">
        <ele>294.9</ele>
        <time>2023-09-15T13:58:20Z</time>
      </trkpt>
      <trkpt lat="43.51525" lon="6.31226">
        <ele>295</ele>
        <time>2023-09-15T13:58:21Z</time>
      </trkpt>
      <trkpt lat="43.51525" lon="6.31228">
        <ele>295.1</ele>
        <time>2023-09-15T13:58:22Z</time>
      </trkpt>
      <trkpt lat="43.51524" lon="6.31229">
        <ele>295.1</ele>
        <time>2023-09-15T13:58:23Z</time>
      </trkpt>
      <trkpt lat="43.51524" lon="6.3123">
        <ele>295.1</ele>
        <time>2023-09-15T13:58:24Z</time>
      </trkpt>
      <trkpt lat="43.51524" lon="6.31231">
        <ele>295.1</ele>
        <time>2023-09-15T13:58:25Z</time>
      </trkpt>
      <trkpt lat="43.51524" lon="6.31231">
        <ele>295.2</ele>
        <time>2023-09-15T13:58:26Z</time>
      </trkpt>
      <trkpt lat="43.51523" lon="6.31231">
        <ele>295.2</ele>
        <time>2023-09-15T13:58:27Z</time>
      </trkpt>
      <trkpt lat="43.51523" lon="6.31231">
        <ele>295.2</ele>
        <time>2023-09-15T13:58:28Z</time>
      </trkpt>
      <trkpt lat="43.51523" lon="6.31232">
        <ele>295.3</ele>
        <time>2023-09-15T13:58:29Z</time>
      </trkpt>
      <trkpt lat="43.51523" lon="6.31232">
        <ele>295.3</ele>
        <time>2023-09-15T13:58:30Z</time>
      </trkpt>
      <trkpt lat="43.51523" lon="6.31233">
        <ele>295.3</ele>
        <time>2023-09-15T13:58:31Z</time>
      </trkpt>
      <trkpt lat="43.51523" lon="6.31233">
        <ele>295.3</ele>
        <time>2023-09-15T13:58:32Z</time>
      </trkpt>
      <trkpt lat="43.51524" lon="6.31234">
        <ele>295.3</ele>
        <time>2023-09-15T13:58:33Z</time>
      </trkpt>
      <trkpt lat="43.51524" lon="6.31234">
        <ele>295.3</ele>
        <time>2023-09-15T13:58:34Z</time>
      </trkpt>
      <trkpt lat="43.51524" lon="6.31235">
        <ele>295.3</ele>
        <time>2023-09-15T13:58:35Z</time>
      </trkpt>
      <trkpt lat="43.51524" lon="6.31234">
        <ele>295.2</ele>
        <time>2023-09-15T13:58:36Z</time>
      </trkpt>
      <trkpt lat="43.51525" lon="6.31234">
        <ele>295.2</ele>
        <time>2023-09-15T13:58:37Z</time>
      </trkpt>
      <trkpt lat="43.51525" lon="6.31233">
        <ele>295.1</ele>
        <time>2023-09-15T13:58:38Z</time>
      </trkpt>
      <trkpt lat="43.51525" lon="6.31233">
        <ele>295.1</ele>
        <time>2023-09-15T13:58:39Z</time>
      </trkpt>
      <trkpt lat="43.51526" lon="6.31232">
        <ele>295.1</ele>
        <time>2023-09-15T13:58:40Z</time>
      </trkpt>
      <trkpt lat="43.51527" lon="6.31232">
        <ele>295.2</ele>
        <time>2023-09-15T13:58:41Z</time>
      </trkpt>
      <trkpt lat="43.51527" lon="6.31232">
        <ele>295.2</ele>
        <time>2023-09-15T13:58:42Z</time>
      </trkpt>
      <trkpt lat="43.51527" lon="6.31232">
        <ele>295.2</ele>
        <time>2023-09-15T13:58:43Z</time>
      </trkpt>
      <trkpt lat="43.51528" lon="6.31231">
        <ele>295.3</ele>
        <time>2023-09-15T13:58:44Z</time>
      </trkpt>
      <trkpt lat="43.51529" lon="6.3123">
        <ele>295.4</ele>
        <time>2023-09-15T13:58:45Z</time>
      </trkpt>
      <trkpt lat="43.51529" lon="6.31229">
        <ele>295.5</ele>
        <time>2023-09-15T13:58:46Z</time>
      </trkpt>
      <trkpt lat="43.5153" lon="6.31229">
        <ele>295.5</ele>
        <time>2023-09-15T13:58:47Z</time>
      </trkpt>
      <trkpt lat="43.51531" lon="6.31228">
        <ele>295.5</ele>
        <time>2023-09-15T13:58:48Z</time>
      </trkpt>
      <trkpt lat="43.51531" lon="6.31228">
        <ele>295.5</ele>
        <time>2023-09-15T13:58:49Z</time>
      </trkpt>
      <trkpt lat="43.51532" lon="6.31227">
        <ele>295.6</ele>
        <time>2023-09-15T13:58:50Z</time>
      </trkpt>
      <trkpt lat="43.51532" lon="6.31227">
        <ele>295.7</ele>
        <time>2023-09-15T13:58:51Z</time>
      </trkpt>
      <trkpt lat="43.51532" lon="6.31226">
        <ele>295.8</ele>
        <time>2023-09-15T13:58:52Z</time>
      </trkpt>
      <trkpt lat="43.51532" lon="6.31226">
        <ele>295.8</ele>
        <time>2023-09-15T13:58:53Z</time>
      </trkpt>
      <trkpt lat="43.51532" lon="6.31226">
        <ele>295.9</ele>
        <time>2023-09-15T13:58:54Z</time>
      </trkpt>
      <trkpt lat="43.51533" lon="6.31225">
        <ele>295.9</ele>
        <time>2023-09-15T13:58:55Z</time>
      </trkpt>
      <trkpt lat="43.51533" lon="6.31225">
        <ele>296</ele>
        <time>2023-09-15T13:58:56Z</time>
      </trkpt>
      <trkpt lat="43.51533" lon="6.31225">
        <ele>296</ele>
        <time>2023-09-15T13:58:57Z</time>
      </trkpt>
      <trkpt lat="43.51533" lon="6.31225">
        <ele>296.1</ele>
        <time>2023-09-15T13:58:58Z</time>
      </trkpt>
      <trkpt lat="43.51534" lon="6.31224">
        <ele>296.1</ele>
        <time>2023-09-15T13:58:59Z</time>
      </trkpt>
      <trkpt lat="43.51534" lon="6.31224">
        <ele>296.2</ele>
        <time>2023-09-15T13:59:00Z</time>
      </trkpt>
      <trkpt lat="43.51534" lon="6.31223">
        <ele>296.2</ele>
        <time>2023-09-15T13:59:01Z</time>
      </trkpt>
      <trkpt lat="43.51534" lon="6.31223">
        <ele>296.2</ele>
        <time>2023-09-15T13:59:02Z</time>
      </trkpt>
      <trkpt lat="43.51535" lon="6.31223">
        <ele>296.2</ele>
        <time>2023-09-15T13:59:03Z</time>
      </trkpt>
      <trkpt lat="43.51536" lon="6.31222">
        <ele>296.3</ele>
        <time>2023-09-15T13:59:04Z</time>
      </trkpt>
      <trkpt lat="43.51536" lon="6.31221">
        <ele>296.3</ele>
        <time>2023-09-15T13:59:05Z</time>
      </trkpt>
      <trkpt lat="43.51537" lon="6.3122">
        <ele>296.2</ele>
        <time>2023-09-15T13:59:06Z</time>
      </trkpt>
      <trkpt lat="43.51538" lon="6.31219">
        <ele>296.2</ele>
        <time>2023-09-15T13:59:07Z</time>
      </trkpt>
      <trkpt lat="43.51539" lon="6.31219">
        <ele>296.1</ele>
        <time>2023-09-15T13:59:08Z</time>
      </trkpt>
      <trkpt lat="43.51539" lon="6.31218">
        <ele>296.1</ele>
        <time>2023-09-15T13:59:09Z</time>
      </trkpt>
      <trkpt lat="43.51539" lon="6.31217">
        <ele>296</ele>
        <time>2023-09-15T13:59:10Z</time>
      </trkpt>
      <trkpt lat="43.5154" lon="6.31216">
        <ele>295.9</ele>
        <time>2023-09-15T13:59:11Z</time>
      </trkpt>
      <trkpt lat="43.51541" lon="6.31215">
        <ele>295.9</ele>
        <time>2023-09-15T13:59:12Z</time>
      </trkpt>
      <trkpt lat="43.51542" lon="6.31214">
        <ele>295.9</ele>
        <time>2023-09-15T13:59:13Z</time>
      </trkpt>
      <trkpt lat="43.51542" lon="6.31213">
        <ele>295.9</ele>
        <time>2023-09-15T13:59:14Z</time>
      </trkpt>
      <trkpt lat="43.51543" lon="6.31212">
        <ele>296</ele>
        <time>2023-09-15T13:59:15Z</time>
      </trkpt>
      <trkpt lat="43.51543" lon="6.31211">
        <ele>295.9</ele>
        <time>2023-09-15T13:59:16Z</time>
      </trkpt>
      <trkpt lat="43.51544" lon="6.31211">
        <ele>295.8</ele>
        <time>2023-09-15T13:59:17Z</time>
      </trkpt>
      <trkpt lat="43.51545" lon="6.3121">
        <ele>295.8</ele>
        <time>2023-09-15T13:59:18Z</time>
      </trkpt>
      <trkpt lat="43.51545" lon="6.31209">
        <ele>295.8</ele>
        <time>2023-09-15T13:59:19Z</time>
      </trkpt>
      <trkpt lat="43.51546" lon="6.31208">
        <ele>295.9</ele>
        <time>2023-09-15T13:59:20Z</time>
      </trkpt>
      <trkpt lat="43.51547" lon="6.31207">
        <ele>296</ele>
        <time>2023-09-15T13:59:21Z</time>
      </trkpt>
      <trkpt lat="43.51548" lon="6.31206">
        <ele>296.1</ele>
        <time>2023-09-15T13:59:22Z</time>
      </trkpt>
      <trkpt lat="43.51548" lon="6.31205">
        <ele>296.1</ele>
        <time>2023-09-15T13:59:23Z</time>
      </trkpt>
      <trkpt lat="43.51549" lon="6.31205">
        <ele>296.1</ele>
        <time>2023-09-15T13:59:24Z</time>
      </trkpt>
      <trkpt lat="43.5155" lon="6.31204">
        <ele>296.1</ele>
        <time>2023-09-15T13:59:25Z</time>
      </trkpt>
      <trkpt lat="43.5155" lon="6.31202">
        <ele>296.2</ele>
        <time>2023-09-15T13:59:26Z</time>
      </trkpt>
      <trkpt lat="43.5155" lon="6.31201">
        <ele>296.3</ele>
        <time>2023-09-15T13:59:27Z</time>
      </trkpt>
      <trkpt lat="43.5155" lon="6.31201">
        <ele>296.4</ele>
        <time>2023-09-15T13:59:28Z</time>
      </trkpt>
      <trkpt lat="43.51551" lon="6.312">
        <ele>296.6</ele>
        <time>2023-09-15T13:59:29Z</time>
      </trkpt>
      <trkpt lat="43.51552" lon="6.31198">
        <ele>296.7</ele>
        <time>2023-09-15T13:59:30Z</time>
      </trkpt>
      <trkpt lat="43.51552" lon="6.31197">
        <ele>296.8</ele>
        <time>2023-09-15T13:59:31Z</time>
      </trkpt>
      <trkpt lat="43.51552" lon="6.31197">
        <ele>296.8</ele>
        <time>2023-09-15T13:59:32Z</time>
      </trkpt>
      <trkpt lat="43.51553" lon="6.31196">
        <ele>296.8</ele>
        <time>2023-09-15T13:59:33Z</time>
      </trkpt>
      <trkpt lat="43.51554" lon="6.31194">
        <ele>297</ele>
        <time>2023-09-15T13:59:34Z</time>
      </trkpt>
      <trkpt lat="43.51555" lon="6.31193">
        <ele>297.1</ele>
        <time>2023-09-15T13:59:35Z</time>
      </trkpt>
      <trkpt lat="43.51556" lon="6.31192">
        <ele>297.3</ele>
        <time>2023-09-15T13:59:36Z</time>
      </trkpt>
      <trkpt lat="43.51556" lon="6.31191">
        <ele>297.4</ele>
        <time>2023-09-15T13:59:37Z</time>
      </trkpt>
      <trkpt lat="43.51557" lon="6.3119">
        <ele>297.4</ele>
        <time>2023-09-15T13:59:38Z</time>
      </trkpt>
      <trkpt lat="43.51557" lon="6.3119">
        <ele>297.5</ele>
        <time>2023-09-15T13:59:39Z</time>
      </trkpt>
      <trkpt lat="43.51558" lon="6.31189">
        <ele>297.6</ele>
        <time>2023-09-15T13:59:40Z</time>
      </trkpt>
      <trkpt lat="43.51559" lon="6.31188">
        <ele>297.6</ele>
        <time>2023-09-15T13:59:41Z</time>
      </trkpt>
      <trkpt lat="43.5156" lon="6.31187">
        <ele>297.7</ele>
        <time>2023-09-15T13:59:42Z</time>
      </trkpt>
      <trkpt lat="43.5156" lon="6.31187">
        <ele>297.7</ele>
        <time>2023-09-15T13:59:43Z</time>
      </trkpt>
      <trkpt lat="43.5156" lon="6.31186">
        <ele>297.8</ele>
        <time>2023-09-15T13:59:44Z</time>
      </trkpt>
      <trkpt lat="43.51561" lon="6.31185">
        <ele>297.8</ele>
        <time>2023-09-15T13:59:45Z</time>
      </trkpt>
      <trkpt lat="43.51563" lon="6.31184">
        <ele>297.9</ele>
        <time>2023-09-15T13:59:46Z</time>
      </trkpt>
      <trkpt lat="43.51564" lon="6.31183">
        <ele>298</ele>
        <time>2023-09-15T13:59:47Z</time>
      </trkpt>
      <trkpt lat="43.51564" lon="6.31182">
        <ele>298.1</ele>
        <time>2023-09-15T13:59:48Z</time>
      </trkpt>
      <trkpt lat="43.51565" lon="6.3118">
        <ele>298.2</ele>
        <time>2023-09-15T13:59:49Z</time>
      </trkpt>
      <trkpt lat="43.51565" lon="6.31179">
        <ele>298.2</ele>
        <time>2023-09-15T13:59:50Z</time>
      </trkpt>
      <trkpt lat="43.51566" lon="6.31178">
        <ele>298.2</ele>
        <time>2023-09-15T13:59:51Z</time>
      </trkpt>
      <trkpt lat="43.51567" lon="6.31177">
        <ele>298.2</ele>
        <time>2023-09-15T13:59:52Z</time>
      </trkpt>
      <trkpt lat="43.51568" lon="6.31177">
        <ele>298.3</ele>
        <time>2023-09-15T13:59:53Z</time>
      </trkpt>
      <trkpt lat="43.51568" lon="6.31176">
        <ele>298.3</ele>
        <time>2023-09-15T13:59:54Z</time>
      </trkpt>
      <trkpt lat="43.51568" lon="6.31176">
        <ele>298.3</ele>
        <time>2023-09-15T13:59:55Z</time>
      </trkpt>
      <trkpt lat="43.51568" lon="6.31176">
        <ele>298.4</ele>
        <time>2023-09-15T13:59:56Z</time>
      </trkpt>
      <trkpt lat="43.51568" lon="6.31176">
        <ele>298.4</ele>
        <time>2023-09-15T13:59:57Z</time>
      </trkpt>
      <trkpt lat="43.51569" lon="6.31176">
        <ele>298.4</ele>
        <time>2023-09-15T13:59:58Z</time>
      </trkpt>
      <trkpt lat="43.5157" lon="6.31175">
        <ele>298.3</ele>
        <time>2023-09-15T13:59:59Z</time>
      </trkpt>
      <trkpt lat="43.5157" lon="6.31175">
        <ele>298.3</ele>
        <time>2023-09-15T14:00:00Z</time>
      </trkpt>
      <trkpt lat="43.5157" lon="6.31175">
        <ele>298.3</ele>
        <time>2023-09-15T14:00:01Z</time>
      </trkpt>
      <trkpt lat="43.5157" lon="6.31175">
        <ele>298.2</ele>
        <time>2023-09-15T14:00:02Z</time>
      </trkpt>
      <trkpt lat="43.51571" lon="6.31175">
        <ele>298.3</ele>
        <time>2023-09-15T14:00:03Z</time>
      </trkpt>
      <trkpt lat="43.51572" lon="6.31175">
        <ele>298.2</ele>
        <time>2023-09-15T14:00:04Z</time>
      </trkpt>
      <trkpt lat="43.51572" lon="6.31175">
        <ele>298.2</ele>
        <time>2023-09-15T14:00:05Z</time>
      </trkpt>
      <trkpt lat="43.51573" lon="6.31175">
        <ele>298.1</ele>
        <time>2023-09-15T14:00:06Z</time>
      </trkpt>
      <trkpt lat="43.51574" lon="6.31174">
        <ele>298</ele>
        <time>2023-09-15T14:00:07Z</time>
      </trkpt>
      <trkpt lat="43.51575" lon="6.31174">
        <ele>298</ele>
        <time>2023-09-15T14:00:08Z</time>
      </trkpt>
      <trkpt lat="43.51576" lon="6.31174">
        <ele>298</ele>
        <time>2023-09-15T14:00:09Z</time>
      </trkpt>
      <trkpt lat="43.51576" lon="6.31174">
        <ele>298</ele>
        <time>2023-09-15T14:00:10Z</time>
      </trkpt>
      <trkpt lat="43.51577" lon="6.31174">
        <ele>298</ele>
        <time>2023-09-15T14:00:11Z</time>
      </trkpt>
      <trkpt lat="43.51579" lon="6.31173">
        <ele>298.1</ele>
        <time>2023-09-15T14:00:12Z</time>
      </trkpt>
      <trkpt lat="43.51579" lon="6.31173">
        <ele>298.1</ele>
        <time>2023-09-15T14:00:13Z</time>
      </trkpt>
      <trkpt lat="43.51579" lon="6.31173">
        <ele>298.2</ele>
        <time>2023-09-15T14:00:14Z</time>
      </trkpt>
      <trkpt lat="43.5158" lon="6.31173">
        <ele>298.2</ele>
        <time>2023-09-15T14:00:15Z</time>
      </trkpt>
      <trkpt lat="43.51582" lon="6.31172">
        <ele>298.2</ele>
        <time>2023-09-15T14:00:16Z</time>
      </trkpt>
      <trkpt lat="43.51584" lon="6.31171">
        <ele>298.3</ele>
        <time>2023-09-15T14:00:17Z</time>
      </trkpt>
      <trkpt lat="43.51584" lon="6.3117">
        <ele>298.3</ele>
        <time>2023-09-15T14:00:18Z</time>
      </trkpt>
      <trkpt lat="43.51586" lon="6.31168">
        <ele>298.3</ele>
        <time>2023-09-15T14:00:19Z</time>
      </trkpt>
      <trkpt lat="43.51587" lon="6.31167">
        <ele>298.2</ele>
        <time>2023-09-15T14:00:20Z</time>
      </trkpt>
      <trkpt lat="43.51589" lon="6.31166">
        <ele>298.3</ele>
        <time>2023-09-15T14:00:21Z</time>
      </trkpt>
      <trkpt lat="43.5159" lon="6.31165">
        <ele>298.3</ele>
        <time>2023-09-15T14:00:22Z</time>
      </trkpt>
      <trkpt lat="43.51592" lon="6.31163">
        <ele>298.3</ele>
        <time>2023-09-15T14:00:23Z</time>
      </trkpt>
      <trkpt lat="43.51593" lon="6.31162">
        <ele>298.4</ele>
        <time>2023-09-15T14:00:24Z</time>
      </trkpt>
      <trkpt lat="43.51595" lon="6.3116">
        <ele>298.4</ele>
        <time>2023-09-15T14:00:25Z</time>
      </trkpt>
      <trkpt lat="43.51597" lon="6.31159">
        <ele>298.4</ele>
        <time>2023-09-15T14:00:26Z</time>
      </trkpt>
      <trkpt lat="43.51598" lon="6.31158">
        <ele>298.5</ele>
        <time>2023-09-15T14:00:27Z</time>
      </trkpt>
      <trkpt lat="43.51599" lon="6.31157">
        <ele>298.5</ele>
        <time>2023-09-15T14:00:28Z</time>
      </trkpt>
      <trkpt lat="43.516" lon="6.31155">
        <ele>298.6</ele>
        <time>2023-09-15T14:00:29Z</time>
      </trkpt>
      <trkpt lat="43.51601" lon="6.31154">
        <ele>298.6</ele>
        <time>2023-09-15T14:00:30Z</time>
      </trkpt>
      <trkpt lat="43.51601" lon="6.31155">
        <ele>298.6</ele>
        <time>2023-09-15T14:00:31Z</time>
      </trkpt>
      <trkpt lat="43.51602" lon="6.31153">
        <ele>298.6</ele>
        <time>2023-09-15T14:00:32Z</time>
      </trkpt>
      <trkpt lat="43.51604" lon="6.31152">
        <ele>298.6</ele>
        <time>2023-09-15T14:00:33Z</time>
      </trkpt>
      <trkpt lat="43.51605" lon="6.31151">
        <ele>298.6</ele>
        <time>2023-09-15T14:00:34Z</time>
      </trkpt>
      <trkpt lat="43.51606" lon="6.3115">
        <ele>298.6</ele>
        <time>2023-09-15T14:00:35Z</time>
      </trkpt>
      <trkpt lat="43.51607" lon="6.31149">
        <ele>298.5</ele>
        <time>2023-09-15T14:00:36Z</time>
      </trkpt>
      <trkpt lat="43.51608" lon="6.31148">
        <ele>298.6</ele>
        <time>2023-09-15T14:00:37Z</time>
      </trkpt>
      <trkpt lat="43.51609" lon="6.31147">
        <ele>298.6</ele>
        <time>2023-09-15T14:00:38Z</time>
      </trkpt>
      <trkpt lat="43.51609" lon="6.31146">
        <ele>298.6</ele>
        <time>2023-09-15T14:00:39Z</time>
      </trkpt>
      <trkpt lat="43.51611" lon="6.31145">
        <ele>298.6</ele>
        <time>2023-09-15T14:00:40Z</time>
      </trkpt>
      <trkpt lat="43.51612" lon="6.31145">
        <ele>298.6</ele>
        <time>2023-09-15T14:00:41Z</time>
      </trkpt>
      <trkpt lat="43.51612" lon="6.31145">
        <ele>298.6</ele>
        <time>2023-09-15T14:00:42Z</time>
      </trkpt>
      <trkpt lat="43.51612" lon="6.31144">
        <ele>298.7</ele>
        <time>2023-09-15T14:00:43Z</time>
      </trkpt>
      <trkpt lat="43.51613" lon="6.31143">
        <ele>298.7</ele>
        <time>2023-09-15T14:00:44Z</time>
      </trkpt>
      <trkpt lat="43.51613" lon="6.31143">
        <ele>298.7</ele>
        <time>2023-09-15T14:00:45Z</time>
      </trkpt>
      <trkpt lat="43.51613" lon="6.31143">
        <ele>298.7</ele>
        <time>2023-09-15T14:00:46Z</time>
      </trkpt>
      <trkpt lat="43.51613" lon="6.31142">
        <ele>298.7</ele>
        <time>2023-09-15T14:00:47Z</time>
      </trkpt>
      <trkpt lat="43.51614" lon="6.31142">
        <ele>298.7</ele>
        <time>2023-09-15T14:00:48Z</time>
      </trkpt>
      <trkpt lat="43.51616" lon="6.31142">
        <ele>298.6</ele>
        <time>2023-09-15T14:00:49Z</time>
      </trkpt>
      <trkpt lat="43.51615" lon="6.31142">
        <ele>298.5</ele>
        <time>2023-09-15T14:00:50Z</time>
      </trkpt>
      <trkpt lat="43.51615" lon="6.31141">
        <ele>298.6</ele>
        <time>2023-09-15T14:00:51Z</time>
      </trkpt>
      <trkpt lat="43.51615" lon="6.31141">
        <ele>298.5</ele>
        <time>2023-09-15T14:00:52Z</time>
      </trkpt>
      <trkpt lat="43.51614" lon="6.3114">
        <ele>298.4</ele>
        <time>2023-09-15T14:00:53Z</time>
      </trkpt>
      <trkpt lat="43.51614" lon="6.3114">
        <ele>298.5</ele>
        <time>2023-09-15T14:00:54Z</time>
      </trkpt>
      <trkpt lat="43.51615" lon="6.31141">
        <ele>298.5</ele>
        <time>2023-09-15T14:00:55Z</time>
      </trkpt>
      <trkpt lat="43.51615" lon="6.31141">
        <ele>298.6</ele>
        <time>2023-09-15T14:00:56Z</time>
      </trkpt>
      <trkpt lat="43.51616" lon="6.31142">
        <ele>298.7</ele>
        <time>2023-09-15T14:00:57Z</time>
      </trkpt>
      <trkpt lat="43.51617" lon="6.31143">
        <ele>298.7</ele>
        <time>2023-09-15T14:00:58Z</time>
      </trkpt>
      <trkpt lat="43.51617" lon="6.31144">
        <ele>298.8</ele>
        <time>2023-09-15T14:00:59Z</time>
      </trkpt>
      <trkpt lat="43.51617" lon="6.31146">
        <ele>298.8</ele>
        <time>2023-09-15T14:01:00Z</time>
      </trkpt>
      <trkpt lat="43.51617" lon="6.31146">
        <ele>298.7</ele>
        <time>2023-09-15T14:01:01Z</time>
      </trkpt>
      <trkpt lat="43.51617" lon="6.31148">
        <ele>298.7</ele>
        <time>2023-09-15T14:01:02Z</time>
      </trkpt>
      <trkpt lat="43.51617" lon="6.31149">
        <ele>298.7</ele>
        <time>2023-09-15T14:01:03Z</time>
      </trkpt>
      <trkpt lat="43.51617" lon="6.3115">
        <ele>298.6</ele>
        <time>2023-09-15T14:01:04Z</time>
      </trkpt>
      <trkpt lat="43.51617" lon="6.3115">
        <ele>298.7</ele>
        <time>2023-09-15T14:01:05Z</time>
      </trkpt>
      <trkpt lat="43.51617" lon="6.31151">
        <ele>298.7</ele>
        <time>2023-09-15T14:01:06Z</time>
      </trkpt>
      <trkpt lat="43.51616" lon="6.31152">
        <ele>298.7</ele>
        <time>2023-09-15T14:01:07Z</time>
      </trkpt>
      <trkpt lat="43.51617" lon="6.31151">
        <ele>298.7</ele>
        <time>2023-09-15T14:01:08Z</time>
      </trkpt>
      <trkpt lat="43.51617" lon="6.31151">
        <ele>298.7</ele>
        <time>2023-09-15T14:01:09Z</time>
      </trkpt>
      <trkpt lat="43.51617" lon="6.31151">
        <ele>298.7</ele>
        <time>2023-09-15T14:01:10Z</time>
      </trkpt>
      <trkpt lat="43.51617" lon="6.31151">
        <ele>298.7</ele>
        <time>2023-09-15T14:01:11Z</time>
      </trkpt>
      <trkpt lat="43.51617" lon="6.31151">
        <ele>298.7</ele>
        <time>2023-09-15T14:01:12Z</time>
      </trkpt>
      <trkpt lat="43.51618" lon="6.31151">
        <ele>298.7</ele>
        <time>2023-09-15T14:01:13Z</time>
      </trkpt>
      <trkpt lat="43.51618" lon="6.31151">
        <ele>298.7</ele>
        <time>2023-09-15T14:01:14Z</time>
      </trkpt>
      <trkpt lat="43.51618" lon="6.31151">
        <ele>298.8</ele>
        <time>2023-09-15T14:01:15Z</time>
      </trkpt>
      <trkpt lat="43.51618" lon="6.31151">
        <ele>298.8</ele>
        <time>2023-09-15T14:01:16Z</time>
      </trkpt>
      <trkpt lat="43.51618" lon="6.31152">
        <ele>298.9</ele>
        <time>2023-09-15T14:01:17Z</time>
      </trkpt>
      <trkpt lat="43.51618" lon="6.31152">
        <ele>298.9</ele>
        <time>2023-09-15T14:01:18Z</time>
      </trkpt>
      <trkpt lat="43.51618" lon="6.31153">
        <ele>298.9</ele>
        <time>2023-09-15T14:01:19Z</time>
      </trkpt>
      <trkpt lat="43.51618" lon="6.31153">
        <ele>299</ele>
        <time>2023-09-15T14:01:20Z</time>
      </trkpt>
      <trkpt lat="43.51618" lon="6.31153">
        <ele>299</ele>
        <time>2023-09-15T14:01:21Z</time>
      </trkpt>
      <trkpt lat="43.51617" lon="6.31153">
        <ele>299.1</ele>
        <time>2023-09-15T14:01:22Z</time>
      </trkpt>
      <trkpt lat="43.51617" lon="6.31153">
        <ele>299.1</ele>
        <time>2023-09-15T14:01:23Z</time>
      </trkpt>
      <trkpt lat="43.51617" lon="6.31154">
        <ele>299.2</ele>
        <time>2023-09-15T14:01:24Z</time>
      </trkpt>
      <trkpt lat="43.51617" lon="6.31154">
        <ele>299.2</ele>
        <time>2023-09-15T14:01:25Z</time>
      </trkpt>
      <trkpt lat="43.51617" lon="6.31154">
        <ele>299.3</ele>
        <time>2023-09-15T14:01:26Z</time>
      </trkpt>
      <trkpt lat="43.51617" lon="6.31154">
        <ele>299.3</ele>
        <time>2023-09-15T14:01:27Z</time>
      </trkpt>
      <trkpt lat="43.51617" lon="6.31154">
        <ele>299.3</ele>
        <time>2023-09-15T14:01:28Z</time>
      </trkpt>
      <trkpt lat="43.51617" lon="6.31154">
        <ele>299.3</ele>
        <time>2023-09-15T14:01:29Z</time>
      </trkpt>
      <trkpt lat="43.51617" lon="6.31154">
        <ele>299.3</ele>
        <time>2023-09-15T14:01:30Z</time>
      </trkpt>
      <trkpt lat="43.51617" lon="6.31154">
        <ele>299.3</ele>
        <time>2023-09-15T14:01:31Z</time>
      </trkpt>
      <trkpt lat="43.51616" lon="6.31155">
        <ele>299.4</ele>
        <time>2023-09-15T14:01:32Z</time>
      </trkpt>
      <trkpt lat="43.51616" lon="6.31155">
        <ele>299.4</ele>
        <time>2023-09-15T14:01:33Z</time>
      </trkpt>
      <trkpt lat="43.51617" lon="6.31155">
        <ele>299.4</ele>
        <time>2023-09-15T14:01:34Z</time>
      </trkpt>
      <trkpt lat="43.51617" lon="6.31155">
        <ele>299.4</ele>
        <time>2023-09-15T14:01:35Z</time>
      </trkpt>
      <trkpt lat="43.51618" lon="6.31156">
        <ele>299.5</ele>
        <time>2023-09-15T14:01:36Z</time>
      </trkpt>
      <trkpt lat="43.51618" lon="6.31156">
        <ele>299.5</ele>
        <time>2023-09-15T14:01:37Z</time>
      </trkpt>
      <trkpt lat="43.51618" lon="6.31157">
        <ele>299.6</ele>
        <time>2023-09-15T14:01:38Z</time>
      </trkpt>
      <trkpt lat="43.51618" lon="6.31158">
        <ele>299.6</ele>
        <time>2023-09-15T14:01:39Z</time>
      </trkpt>
      <trkpt lat="43.51618" lon="6.31158">
        <ele>299.6</ele>
        <time>2023-09-15T14:01:40Z</time>
      </trkpt>
      <trkpt lat="43.51619" lon="6.31159">
        <ele>299.6</ele>
        <time>2023-09-15T14:01:41Z</time>
      </trkpt>
      <trkpt lat="43.5162" lon="6.3116">
        <ele>299.6</ele>
        <time>2023-09-15T14:01:42Z</time>
      </trkpt>
      <trkpt lat="43.5162" lon="6.31161">
        <ele>299.7</ele>
        <time>2023-09-15T14:01:43Z</time>
      </trkpt>
      <trkpt lat="43.5162" lon="6.31162">
        <ele>299.8</ele>
        <time>2023-09-15T14:01:44Z</time>
      </trkpt>
      <trkpt lat="43.5162" lon="6.31162">
        <ele>299.9</ele>
        <time>2023-09-15T14:01:45Z</time>
      </trkpt>
      <trkpt lat="43.5162" lon="6.31163">
        <ele>299.9</ele>
        <time>2023-09-15T14:01:46Z</time>
      </trkpt>
      <trkpt lat="43.5162" lon="6.31163">
        <ele>299.9</ele>
        <time>2023-09-15T14:01:47Z</time>
      </trkpt>
      <trkpt lat="43.51621" lon="6.31164">
        <ele>300</ele>
        <time>2023-09-15T14:01:48Z</time>
      </trkpt>
      <trkpt lat="43.51621" lon="6.31165">
        <ele>300</ele>
        <time>2023-09-15T14:01:49Z</time>
      </trkpt>
      <trkpt lat="43.51622" lon="6.31166">
        <ele>300</ele>
        <time>2023-09-15T14:01:50Z</time>
      </trkpt>
      <trkpt lat="43.51622" lon="6.31166">
        <ele>300</ele>
        <time>2023-09-15T14:01:51Z</time>
      </trkpt>
      <trkpt lat="43.51623" lon="6.31167">
        <ele>300</ele>
        <time>2023-09-15T14:01:52Z</time>
      </trkpt>
      <trkpt lat="43.51623" lon="6.31169">
        <ele>300.1</ele>
        <time>2023-09-15T14:01:53Z</time>
      </trkpt>
      <trkpt lat="43.51623" lon="6.3117">
        <ele>300.1</ele>
        <time>2023-09-15T14:01:54Z</time>
      </trkpt>
      <trkpt lat="43.51623" lon="6.31171">
        <ele>300.2</ele>
        <time>2023-09-15T14:01:55Z</time>
      </trkpt>
      <trkpt lat="43.51624" lon="6.31172">
        <ele>300.3</ele>
        <time>2023-09-15T14:01:56Z</time>
      </trkpt>
      <trkpt lat="43.51624" lon="6.31173">
        <ele>300.5</ele>
        <time>2023-09-15T14:01:57Z</time>
      </trkpt>
      <trkpt lat="43.51624" lon="6.31175">
        <ele>300.5</ele>
        <time>2023-09-15T14:01:58Z</time>
      </trkpt>
      <trkpt lat="43.51624" lon="6.31176">
        <ele>300.6</ele>
        <time>2023-09-15T14:01:59Z</time>
      </trkpt>
      <trkpt lat="43.51624" lon="6.31177">
        <ele>300.8</ele>
        <time>2023-09-15T14:02:00Z</time>
      </trkpt>
      <trkpt lat="43.51625" lon="6.31178">
        <ele>300.9</ele>
        <time>2023-09-15T14:02:01Z</time>
      </trkpt>
      <trkpt lat="43.51625" lon="6.31179">
        <ele>301</ele>
        <time>2023-09-15T14:02:02Z</time>
      </trkpt>
      <trkpt lat="43.51624" lon="6.31181">
        <ele>301.1</ele>
        <time>2023-09-15T14:02:03Z</time>
      </trkpt>
      <trkpt lat="43.51624" lon="6.31182">
        <ele>301.2</ele>
        <time>2023-09-15T14:02:04Z</time>
      </trkpt>
      <trkpt lat="43.51624" lon="6.31184">
        <ele>301.2</ele>
        <time>2023-09-15T14:02:05Z</time>
      </trkpt>
      <trkpt lat="43.51624" lon="6.31185">
        <ele>301.3</ele>
        <time>2023-09-15T14:02:06Z</time>
      </trkpt>
      <trkpt lat="43.51625" lon="6.31186">
        <ele>301.3</ele>
        <time>2023-09-15T14:02:07Z</time>
      </trkpt>
      <trkpt lat="43.51624" lon="6.31187">
        <ele>301.4</ele>
        <time>2023-09-15T14:02:08Z</time>
      </trkpt>
      <trkpt lat="43.51624" lon="6.31189">
        <ele>301.4</ele>
        <time>2023-09-15T14:02:09Z</time>
      </trkpt>
      <trkpt lat="43.51624" lon="6.3119">
        <ele>301.4</ele>
        <time>2023-09-15T14:02:10Z</time>
      </trkpt>
      <trkpt lat="43.51625" lon="6.31191">
        <ele>301.4</ele>
        <time>2023-09-15T14:02:11Z</time>
      </trkpt>
      <trkpt lat="43.51625" lon="6.31192">
        <ele>301.5</ele>
        <time>2023-09-15T14:02:12Z</time>
      </trkpt>
      <trkpt lat="43.51625" lon="6.31193">
        <ele>301.6</ele>
        <time>2023-09-15T14:02:13Z</time>
      </trkpt>
      <trkpt lat="43.51625" lon="6.31194">
        <ele>301.6</ele>
        <time>2023-09-15T14:02:14Z</time>
      </trkpt>
      <trkpt lat="43.51625" lon="6.31195">
        <ele>301.7</ele>
        <time>2023-09-15T14:02:15Z</time>
      </trkpt>
      <trkpt lat="43.51625" lon="6.31197">
        <ele>301.7</ele>
        <time>2023-09-15T14:02:16Z</time>
      </trkpt>
      <trkpt lat="43.51625" lon="6.31198">
        <ele>301.8</ele>
        <time>2023-09-15T14:02:17Z</time>
      </trkpt>
      <trkpt lat="43.51625" lon="6.31199">
        <ele>301.9</ele>
        <time>2023-09-15T14:02:18Z</time>
      </trkpt>
      <trkpt lat="43.51625" lon="6.312">
        <ele>302</ele>
        <time>2023-09-15T14:02:19Z</time>
      </trkpt>
      <trkpt lat="43.51625" lon="6.31201">
        <ele>302.1</ele>
        <time>2023-09-15T14:02:20Z</time>
      </trkpt>
      <trkpt lat="43.51625" lon="6.31202">
        <ele>302.1</ele>
        <time>2023-09-15T14:02:21Z</time>
      </trkpt>
      <trkpt lat="43.51625" lon="6.31203">
        <ele>302.2</ele>
        <time>2023-09-15T14:02:22Z</time>
      </trkpt>
      <trkpt lat="43.51625" lon="6.31204">
        <ele>302.2</ele>
        <time>2023-09-15T14:02:23Z</time>
      </trkpt>
      <trkpt lat="43.51625" lon="6.31205">
        <ele>302.3</ele>
        <time>2023-09-15T14:02:24Z</time>
      </trkpt>
      <trkpt lat="43.51625" lon="6.31207">
        <ele>302.3</ele>
        <time>2023-09-15T14:02:25Z</time>
      </trkpt>
      <trkpt lat="43.51625" lon="6.31208">
        <ele>302.2</ele>
        <time>2023-09-15T14:02:26Z</time>
      </trkpt>
      <trkpt lat="43.51625" lon="6.3121">
        <ele>302.2</ele>
        <time>2023-09-15T14:02:27Z</time>
      </trkpt>
      <trkpt lat="43.51625" lon="6.31211">
        <ele>302.2</ele>
        <time>2023-09-15T14:02:28Z</time>
      </trkpt>
      <trkpt lat="43.51625" lon="6.31213">
        <ele>302.2</ele>
        <time>2023-09-15T14:02:29Z</time>
      </trkpt>
      <trkpt lat="43.51625" lon="6.31214">
        <ele>302.2</ele>
        <time>2023-09-15T14:02:30Z</time>
      </trkpt>
      <trkpt lat="43.51625" lon="6.31216">
        <ele>302.2</ele>
        <time>2023-09-15T14:02:31Z</time>
      </trkpt>
      <trkpt lat="43.51625" lon="6.31217">
        <ele>302.2</ele>
        <time>2023-09-15T14:02:32Z</time>
      </trkpt>
      <trkpt lat="43.51625" lon="6.31219">
        <ele>302.2</ele>
        <time>2023-09-15T14:02:33Z</time>
      </trkpt>
      <trkpt lat="43.51624" lon="6.3122">
        <ele>302.3</ele>
        <time>2023-09-15T14:02:34Z</time>
      </trkpt>
      <trkpt lat="43.51624" lon="6.31221">
        <ele>302.3</ele>
        <time>2023-09-15T14:02:35Z</time>
      </trkpt>
      <trkpt lat="43.51624" lon="6.31223">
        <ele>302.3</ele>
        <time>2023-09-15T14:02:36Z</time>
      </trkpt>
      <trkpt lat="43.51623" lon="6.31225">
        <ele>302.3</ele>
        <time>2023-09-15T14:02:37Z</time>
      </trkpt>
      <trkpt lat="43.51623" lon="6.31226">
        <ele>302.2</ele>
        <time>2023-09-15T14:02:38Z</time>
      </trkpt>
      <trkpt lat="43.51623" lon="6.31227">
        <ele>302.1</ele>
        <time>2023-09-15T14:02:39Z</time>
      </trkpt>
      <trkpt lat="43.51624" lon="6.31229">
        <ele>302.1</ele>
        <time>2023-09-15T14:02:40Z</time>
      </trkpt>
      <trkpt lat="43.51623" lon="6.31231">
        <ele>302</ele>
        <time>2023-09-15T14:02:41Z</time>
      </trkpt>
      <trkpt lat="43.51624" lon="6.31232">
        <ele>302</ele>
        <time>2023-09-15T14:02:42Z</time>
      </trkpt>
      <trkpt lat="43.51624" lon="6.31234">
        <ele>302</ele>
        <time>2023-09-15T14:02:43Z</time>
      </trkpt>
      <trkpt lat="43.51624" lon="6.31236">
        <ele>301.9</ele>
        <time>2023-09-15T14:02:44Z</time>
      </trkpt>
      <trkpt lat="43.51625" lon="6.31237">
        <ele>301.8</ele>
        <time>2023-09-15T14:02:45Z</time>
      </trkpt>
      <trkpt lat="43.51625" lon="6.31238">
        <ele>301.9</ele>
        <time>2023-09-15T14:02:46Z</time>
      </trkpt>
      <trkpt lat="43.51625" lon="6.3124">
        <ele>301.9</ele>
        <time>2023-09-15T14:02:47Z</time>
      </trkpt>
      <trkpt lat="43.51626" lon="6.31241">
        <ele>301.9</ele>
        <time>2023-09-15T14:02:48Z</time>
      </trkpt>
      <trkpt lat="43.51627" lon="6.31242">
        <ele>301.9</ele>
        <time>2023-09-15T14:02:49Z</time>
      </trkpt>
      <trkpt lat="43.51628" lon="6.31244">
        <ele>301.9</ele>
        <time>2023-09-15T14:02:50Z</time>
      </trkpt>
      <trkpt lat="43.51628" lon="6.31245">
        <ele>301.9</ele>
        <time>2023-09-15T14:02:51Z</time>
      </trkpt>
      <trkpt lat="43.51629" lon="6.31246">
        <ele>301.9</ele>
        <time>2023-09-15T14:02:52Z</time>
      </trkpt>
      <trkpt lat="43.51629" lon="6.31247">
        <ele>301.9</ele>
        <time>2023-09-15T14:02:53Z</time>
      </trkpt>
      <trkpt lat="43.5163" lon="6.31248">
        <ele>301.9</ele>
        <time>2023-09-15T14:02:54Z</time>
      </trkpt>
      <trkpt lat="43.5163" lon="6.31249">
        <ele>301.9</ele>
        <time>2023-09-15T14:02:55Z</time>
      </trkpt>
      <trkpt lat="43.51631" lon="6.3125">
        <ele>301.9</ele>
        <time>2023-09-15T14:02:56Z</time>
      </trkpt>
      <trkpt lat="43.51631" lon="6.31251">
        <ele>302</ele>
        <time>2023-09-15T14:02:57Z</time>
      </trkpt>
      <trkpt lat="43.51631" lon="6.31253">
        <ele>302</ele>
        <time>2023-09-15T14:02:58Z</time>
      </trkpt>
      <trkpt lat="43.51632" lon="6.31254">
        <ele>302</ele>
        <time>2023-09-15T14:02:59Z</time>
      </trkpt>
      <trkpt lat="43.51633" lon="6.31255">
        <ele>302</ele>
        <time>2023-09-15T14:03:00Z</time>
      </trkpt>
      <trkpt lat="43.51633" lon="6.31256">
        <ele>302</ele>
        <time>2023-09-15T14:03:01Z</time>
      </trkpt>
      <trkpt lat="43.51633" lon="6.31257">
        <ele>302</ele>
        <time>2023-09-15T14:03:02Z</time>
      </trkpt>
      <trkpt lat="43.51633" lon="6.31259">
        <ele>301.9</ele>
        <time>2023-09-15T14:03:03Z</time>
      </trkpt>
      <trkpt lat="43.51633" lon="6.3126">
        <ele>301.9</ele>
        <time>2023-09-15T14:03:04Z</time>
      </trkpt>
      <trkpt lat="43.51634" lon="6.31261">
        <ele>301.9</ele>
        <time>2023-09-15T14:03:05Z</time>
      </trkpt>
      <trkpt lat="43.51634" lon="6.31262">
        <ele>301.9</ele>
        <time>2023-09-15T14:03:06Z</time>
      </trkpt>
      <trkpt lat="43.51634" lon="6.31263">
        <ele>301.8</ele>
        <time>2023-09-15T14:03:07Z</time>
      </trkpt>
      <trkpt lat="43.51634" lon="6.31264">
        <ele>301.9</ele>
        <time>2023-09-15T14:03:08Z</time>
      </trkpt>
      <trkpt lat="43.51634" lon="6.31265">
        <ele>301.8</ele>
        <time>2023-09-15T14:03:09Z</time>
      </trkpt>
      <trkpt lat="43.51635" lon="6.31266">
        <ele>301.8</ele>
        <time>2023-09-15T14:03:10Z</time>
      </trkpt>
      <trkpt lat="43.51634" lon="6.31267">
        <ele>301.8</ele>
        <time>2023-09-15T14:03:11Z</time>
      </trkpt>
      <trkpt lat="43.51634" lon="6.31268">
        <ele>301.8</ele>
        <time>2023-09-15T14:03:12Z</time>
      </trkpt>
      <trkpt lat="43.51634" lon="6.31268">
        <ele>301.8</ele>
        <time>2023-09-15T14:03:13Z</time>
      </trkpt>
      <trkpt lat="43.51634" lon="6.31269">
        <ele>301.8</ele>
        <time>2023-09-15T14:03:14Z</time>
      </trkpt>
      <trkpt lat="43.51633" lon="6.3127">
        <ele>301.7</ele>
        <time>2023-09-15T14:03:15Z</time>
      </trkpt>
      <trkpt lat="43.51633" lon="6.31271">
        <ele>301.7</ele>
        <time>2023-09-15T14:03:16Z</time>
      </trkpt>
      <trkpt lat="43.51632" lon="6.31271">
        <ele>301.7</ele>
        <time>2023-09-15T14:03:17Z</time>
      </trkpt>
      <trkpt lat="43.51632" lon="6.31272">
        <ele>301.9</ele>
        <time>2023-09-15T14:03:18Z</time>
      </trkpt>
      <trkpt lat="43.51631" lon="6.31273">
        <ele>301.9</ele>
        <time>2023-09-15T14:03:19Z</time>
      </trkpt>
      <trkpt lat="43.5163" lon="6.31273">
        <ele>302</ele>
        <time>2023-09-15T14:03:20Z</time>
      </trkpt>
      <trkpt lat="43.5163" lon="6.31274">
        <ele>302</ele>
        <time>2023-09-15T14:03:21Z</time>
      </trkpt>
      <trkpt lat="43.51629" lon="6.31275">
        <ele>302</ele>
        <time>2023-09-15T14:03:22Z</time>
      </trkpt>
      <trkpt lat="43.51629" lon="6.31275">
        <ele>302.1</ele>
        <time>2023-09-15T14:03:23Z</time>
      </trkpt>
      <trkpt lat="43.51628" lon="6.31276">
        <ele>302.1</ele>
        <time>2023-09-15T14:03:24Z</time>
      </trkpt>
      <trkpt lat="43.51627" lon="6.31277">
        <ele>302.1</ele>
        <time>2023-09-15T14:03:25Z</time>
      </trkpt>
      <trkpt lat="43.51626" lon="6.31278">
        <ele>302.1</ele>
        <time>2023-09-15T14:03:26Z</time>
      </trkpt>
      <trkpt lat="43.51626" lon="6.31278">
        <ele>302.1</ele>
        <time>2023-09-15T14:03:27Z</time>
      </trkpt>
      <trkpt lat="43.51625" lon="6.31279">
        <ele>302</ele>
        <time>2023-09-15T14:03:28Z</time>
      </trkpt>
      <trkpt lat="43.51625" lon="6.31279">
        <ele>301.9</ele>
        <time>2023-09-15T14:03:29Z</time>
      </trkpt>
      <trkpt lat="43.51624" lon="6.3128">
        <ele>301.9</ele>
        <time>2023-09-15T14:03:30Z</time>
      </trkpt>
      <trkpt lat="43.51623" lon="6.31281">
        <ele>302</ele>
        <time>2023-09-15T14:03:31Z</time>
      </trkpt>
      <trkpt lat="43.51623" lon="6.31281">
        <ele>302.1</ele>
        <time>2023-09-15T14:03:32Z</time>
      </trkpt>
      <trkpt lat="43.51622" lon="6.31282">
        <ele>302.1</ele>
        <time>2023-09-15T14:03:33Z</time>
      </trkpt>
      <trkpt lat="43.51621" lon="6.31283">
        <ele>302.1</ele>
        <time>2023-09-15T14:03:34Z</time>
      </trkpt>
      <trkpt lat="43.5162" lon="6.31284">
        <ele>302</ele>
        <time>2023-09-15T14:03:35Z</time>
      </trkpt>
      <trkpt lat="43.5162" lon="6.31284">
        <ele>302</ele>
        <time>2023-09-15T14:03:36Z</time>
      </trkpt>
      <trkpt lat="43.51619" lon="6.31285">
        <ele>302.1</ele>
        <time>2023-09-15T14:03:37Z</time>
      </trkpt>
      <trkpt lat="43.51619" lon="6.31285">
        <ele>302.1</ele>
        <time>2023-09-15T14:03:38Z</time>
      </trkpt>
      <trkpt lat="43.51618" lon="6.31286">
        <ele>302</ele>
        <time>2023-09-15T14:03:39Z</time>
      </trkpt>
      <trkpt lat="43.51617" lon="6.31287">
        <ele>302</ele>
        <time>2023-09-15T14:03:40Z</time>
      </trkpt>
      <trkpt lat="43.51617" lon="6.31288">
        <ele>301.9</ele>
        <time>2023-09-15T14:03:41Z</time>
      </trkpt>
      <trkpt lat="43.51616" lon="6.31288">
        <ele>301.9</ele>
        <time>2023-09-15T14:03:42Z</time>
      </trkpt>
      <trkpt lat="43.51615" lon="6.31289">
        <ele>301.9</ele>
        <time>2023-09-15T14:03:43Z</time>
      </trkpt>
      <trkpt lat="43.51614" lon="6.31289">
        <ele>302</ele>
        <time>2023-09-15T14:03:44Z</time>
      </trkpt>
      <trkpt lat="43.51614" lon="6.3129">
        <ele>302</ele>
        <time>2023-09-15T14:03:45Z</time>
      </trkpt>
      <trkpt lat="43.51613" lon="6.31291">
        <ele>302.1</ele>
        <time>2023-09-15T14:03:46Z</time>
      </trkpt>
      <trkpt lat="43.51612" lon="6.31292">
        <ele>302.1</ele>
        <time>2023-09-15T14:03:47Z</time>
      </trkpt>
      <trkpt lat="43.51612" lon="6.31293">
        <ele>302</ele>
        <time>2023-09-15T14:03:48Z</time>
      </trkpt>
      <trkpt lat="43.51611" lon="6.31294">
        <ele>302</ele>
        <time>2023-09-15T14:03:49Z</time>
      </trkpt>
      <trkpt lat="43.51611" lon="6.31295">
        <ele>301.9</ele>
        <time>2023-09-15T14:03:50Z</time>
      </trkpt>
      <trkpt lat="43.5161" lon="6.31296">
        <ele>302</ele>
        <time>2023-09-15T14:03:51Z</time>
      </trkpt>
      <trkpt lat="43.5161" lon="6.31297">
        <ele>302</ele>
        <time>2023-09-15T14:03:52Z</time>
      </trkpt>
      <trkpt lat="43.51609" lon="6.31298">
        <ele>302.1</ele>
        <time>2023-09-15T14:03:53Z</time>
      </trkpt>
      <trkpt lat="43.51609" lon="6.31299">
        <ele>302.1</ele>
        <time>2023-09-15T14:03:54Z</time>
      </trkpt>
      <trkpt lat="43.51608" lon="6.31299">
        <ele>302.2</ele>
        <time>2023-09-15T14:03:55Z</time>
      </trkpt>
      <trkpt lat="43.51607" lon="6.31301">
        <ele>302.2</ele>
        <time>2023-09-15T14:03:56Z</time>
      </trkpt>
      <trkpt lat="43.51606" lon="6.31302">
        <ele>302.1</ele>
        <time>2023-09-15T14:03:57Z</time>
      </trkpt>
      <trkpt lat="43.51606" lon="6.31303">
        <ele>302</ele>
        <time>2023-09-15T14:03:58Z</time>
      </trkpt>
      <trkpt lat="43.51605" lon="6.31304">
        <ele>301.9</ele>
        <time>2023-09-15T14:03:59Z</time>
      </trkpt>
      <trkpt lat="43.51604" lon="6.31305">
        <ele>301.9</ele>
        <time>2023-09-15T14:04:00Z</time>
      </trkpt>
      <trkpt lat="43.51604" lon="6.31306">
        <ele>301.9</ele>
        <time>2023-09-15T14:04:01Z</time>
      </trkpt>
      <trkpt lat="43.51603" lon="6.31307">
        <ele>301.8</ele>
        <time>2023-09-15T14:04:02Z</time>
      </trkpt>
      <trkpt lat="43.51602" lon="6.31309">
        <ele>301.8</ele>
        <time>2023-09-15T14:04:03Z</time>
      </trkpt>
      <trkpt lat="43.51601" lon="6.3131">
        <ele>301.9</ele>
        <time>2023-09-15T14:04:04Z</time>
      </trkpt>
      <trkpt lat="43.51601" lon="6.31311">
        <ele>301.8</ele>
        <time>2023-09-15T14:04:05Z</time>
      </trkpt>
      <trkpt lat="43.516" lon="6.31312">
        <ele>301.7</ele>
        <time>2023-09-15T14:04:06Z</time>
      </trkpt>
      <trkpt lat="43.51599" lon="6.31313">
        <ele>301.7</ele>
        <time>2023-09-15T14:04:07Z</time>
      </trkpt>
      <trkpt lat="43.51599" lon="6.31314">
        <ele>301.7</ele>
        <time>2023-09-15T14:04:08Z</time>
      </trkpt>
      <trkpt lat="43.51598" lon="6.31316">
        <ele>301.7</ele>
        <time>2023-09-15T14:04:09Z</time>
      </trkpt>
      <trkpt lat="43.51598" lon="6.31317">
        <ele>301.7</ele>
        <time>2023-09-15T14:04:10Z</time>
      </trkpt>
      <trkpt lat="43.51597" lon="6.31318">
        <ele>301.8</ele>
        <time>2023-09-15T14:04:11Z</time>
      </trkpt>
      <trkpt lat="43.51597" lon="6.31319">
        <ele>301.9</ele>
        <time>2023-09-15T14:04:12Z</time>
      </trkpt>
      <trkpt lat="43.51597" lon="6.3132">
        <ele>302</ele>
        <time>2023-09-15T14:04:13Z</time>
      </trkpt>
      <trkpt lat="43.51596" lon="6.31322">
        <ele>302</ele>
        <time>2023-09-15T14:04:14Z</time>
      </trkpt>
      <trkpt lat="43.51596" lon="6.31323">
        <ele>302</ele>
        <time>2023-09-15T14:04:15Z</time>
      </trkpt>
      <trkpt lat="43.51595" lon="6.31324">
        <ele>302.1</ele>
        <time>2023-09-15T14:04:16Z</time>
      </trkpt>
      <trkpt lat="43.51595" lon="6.31325">
        <ele>302.1</ele>
        <time>2023-09-15T14:04:17Z</time>
      </trkpt>
      <trkpt lat="43.51595" lon="6.31326">
        <ele>302</ele>
        <time>2023-09-15T14:04:18Z</time>
      </trkpt>
      <trkpt lat="43.51594" lon="6.31328">
        <ele>302</ele>
        <time>2023-09-15T14:04:19Z</time>
      </trkpt>
      <trkpt lat="43.51594" lon="6.31329">
        <ele>302</ele>
        <time>2023-09-15T14:04:20Z</time>
      </trkpt>
      <trkpt lat="43.51593" lon="6.3133">
        <ele>302</ele>
        <time>2023-09-15T14:04:21Z</time>
      </trkpt>
      <trkpt lat="43.51593" lon="6.31331">
        <ele>302</ele>
        <time>2023-09-15T14:04:22Z</time>
      </trkpt>
      <trkpt lat="43.51592" lon="6.31332">
        <ele>302</ele>
        <time>2023-09-15T14:04:23Z</time>
      </trkpt>
      <trkpt lat="43.51592" lon="6.31333">
        <ele>302</ele>
        <time>2023-09-15T14:04:24Z</time>
      </trkpt>
      <trkpt lat="43.51591" lon="6.31335">
        <ele>302</ele>
        <time>2023-09-15T14:04:25Z</time>
      </trkpt>
      <trkpt lat="43.51591" lon="6.31337">
        <ele>302</ele>
        <time>2023-09-15T14:04:26Z</time>
      </trkpt>
      <trkpt lat="43.5159" lon="6.31338">
        <ele>301.9</ele>
        <time>2023-09-15T14:04:27Z</time>
      </trkpt>
      <trkpt lat="43.5159" lon="6.31339">
        <ele>301.9</ele>
        <time>2023-09-15T14:04:28Z</time>
      </trkpt>
      <trkpt lat="43.5159" lon="6.3134">
        <ele>301.9</ele>
        <time>2023-09-15T14:04:29Z</time>
      </trkpt>
      <trkpt lat="43.51589" lon="6.31342">
        <ele>301.9</ele>
        <time>2023-09-15T14:04:30Z</time>
      </trkpt>
      <trkpt lat="43.51589" lon="6.31343">
        <ele>301.8</ele>
        <time>2023-09-15T14:04:31Z</time>
      </trkpt>
      <trkpt lat="43.51589" lon="6.31345">
        <ele>301.7</ele>
        <time>2023-09-15T14:04:32Z</time>
      </trkpt>
      <trkpt lat="43.51588" lon="6.31346">
        <ele>301.6</ele>
        <time>2023-09-15T14:04:33Z</time>
      </trkpt>
      <trkpt lat="43.51588" lon="6.31348">
        <ele>301.5</ele>
        <time>2023-09-15T14:04:34Z</time>
      </trkpt>
      <trkpt lat="43.51588" lon="6.31349">
        <ele>301.4</ele>
        <time>2023-09-15T14:04:35Z</time>
      </trkpt>
      <trkpt lat="43.51587" lon="6.31351">
        <ele>301.4</ele>
        <time>2023-09-15T14:04:36Z</time>
      </trkpt>
      <trkpt lat="43.51587" lon="6.31352">
        <ele>301.3</ele>
        <time>2023-09-15T14:04:37Z</time>
      </trkpt>
      <trkpt lat="43.51587" lon="6.31353">
        <ele>301.1</ele>
        <time>2023-09-15T14:04:38Z</time>
      </trkpt>
      <trkpt lat="43.51587" lon="6.31355">
        <ele>301</ele>
        <time>2023-09-15T14:04:39Z</time>
      </trkpt>
      <trkpt lat="43.51587" lon="6.31357">
        <ele>300.8</ele>
        <time>2023-09-15T14:04:40Z</time>
      </trkpt>
      <trkpt lat="43.51587" lon="6.31358">
        <ele>300.7</ele>
        <time>2023-09-15T14:04:41Z</time>
      </trkpt>
      <trkpt lat="43.51586" lon="6.31359">
        <ele>300.6</ele>
        <time>2023-09-15T14:04:42Z</time>
      </trkpt>
      <trkpt lat="43.51586" lon="6.31361">
        <ele>300.5</ele>
        <time>2023-09-15T14:04:43Z</time>
      </trkpt>
      <trkpt lat="43.51586" lon="6.31363">
        <ele>300.5</ele>
        <time>2023-09-15T14:04:44Z</time>
      </trkpt>
      <trkpt lat="43.51586" lon="6.31364">
        <ele>300.4</ele>
        <time>2023-09-15T14:04:45Z</time>
      </trkpt>
      <trkpt lat="43.51586" lon="6.31366">
        <ele>300.5</ele>
        <time>2023-09-15T14:04:46Z</time>
      </trkpt>
      <trkpt lat="43.51586" lon="6.31368">
        <ele>300.5</ele>
        <time>2023-09-15T14:04:47Z</time>
      </trkpt>
      <trkpt lat="43.51585" lon="6.31369">
        <ele>300.5</ele>
        <time>2023-09-15T14:04:48Z</time>
      </trkpt>
      <trkpt lat="43.51585" lon="6.31371">
        <ele>300.5</ele>
        <time>2023-09-15T14:04:49Z</time>
      </trkpt>
      <trkpt lat="43.51585" lon="6.31372">
        <ele>300.5</ele>
        <time>2023-09-15T14:04:50Z</time>
      </trkpt>
      <trkpt lat="43.51585" lon="6.31373">
        <ele>300.4</ele>
        <time>2023-09-15T14:04:51Z</time>
      </trkpt>
      <trkpt lat="43.51585" lon="6.31375">
        <ele>300.4</ele>
        <time>2023-09-15T14:04:52Z</time>
      </trkpt>
      <trkpt lat="43.51585" lon="6.31377">
        <ele>300.3</ele>
        <time>2023-09-15T14:04:53Z</time>
      </trkpt>
      <trkpt lat="43.51585" lon="6.31378">
        <ele>300.2</ele>
        <time>2023-09-15T14:04:54Z</time>
      </trkpt>
      <trkpt lat="43.51585" lon="6.3138">
        <ele>300.2</ele>
        <time>2023-09-15T14:04:55Z</time>
      </trkpt>
      <trkpt lat="43.51584" lon="6.31382">
        <ele>300.1</ele>
        <time>2023-09-15T14:04:56Z</time>
      </trkpt>
      <trkpt lat="43.51584" lon="6.31383">
        <ele>300.1</ele>
        <time>2023-09-15T14:04:57Z</time>
      </trkpt>
      <trkpt lat="43.51584" lon="6.31384">
        <ele>300</ele>
        <time>2023-09-15T14:04:58Z</time>
      </trkpt>
      <trkpt lat="43.51584" lon="6.31386">
        <ele>300</ele>
        <time>2023-09-15T14:04:59Z</time>
      </trkpt>
      <trkpt lat="43.51584" lon="6.31388">
        <ele>299.9</ele>
        <time>2023-09-15T14:05:00Z</time>
      </trkpt>
      <trkpt lat="43.51584" lon="6.31389">
        <ele>300</ele>
        <time>2023-09-15T14:05:01Z</time>
      </trkpt>
      <trkpt lat="43.51584" lon="6.31391">
        <ele>299.9</ele>
        <time>2023-09-15T14:05:02Z</time>
      </trkpt>
      <trkpt lat="43.51584" lon="6.31392">
        <ele>299.8</ele>
        <time>2023-09-15T14:05:03Z</time>
      </trkpt>
      <trkpt lat="43.51584" lon="6.31393">
        <ele>299.7</ele>
        <time>2023-09-15T14:05:04Z</time>
      </trkpt>
      <trkpt lat="43.51584" lon="6.31395">
        <ele>299.7</ele>
        <time>2023-09-15T14:05:05Z</time>
      </trkpt>
      <trkpt lat="43.51584" lon="6.31396">
        <ele>299.7</ele>
        <time>2023-09-15T14:05:06Z</time>
      </trkpt>
      <trkpt lat="43.51584" lon="6.31397">
        <ele>299.6</ele>
        <time>2023-09-15T14:05:07Z</time>
      </trkpt>
      <trkpt lat="43.51584" lon="6.31399">
        <ele>299.6</ele>
        <time>2023-09-15T14:05:08Z</time>
      </trkpt>
      <trkpt lat="43.51584" lon="6.314">
        <ele>299.5</ele>
        <time>2023-09-15T14:05:09Z</time>
      </trkpt>
      <trkpt lat="43.51583" lon="6.31401">
        <ele>299.4</ele>
        <time>2023-09-15T14:05:10Z</time>
      </trkpt>
      <trkpt lat="43.51583" lon="6.31403">
        <ele>299.4</ele>
        <time>2023-09-15T14:05:11Z</time>
      </trkpt>
      <trkpt lat="43.51583" lon="6.31404">
        <ele>299.4</ele>
        <time>2023-09-15T14:05:12Z</time>
      </trkpt>
      <trkpt lat="43.51584" lon="6.31406">
        <ele>299.4</ele>
        <time>2023-09-15T14:05:13Z</time>
      </trkpt>
      <trkpt lat="43.51584" lon="6.31407">
        <ele>299.4</ele>
        <time>2023-09-15T14:05:14Z</time>
      </trkpt>
      <trkpt lat="43.51584" lon="6.31409">
        <ele>299.4</ele>
        <time>2023-09-15T14:05:15Z</time>
      </trkpt>
      <trkpt lat="43.51584" lon="6.31411">
        <ele>299.4</ele>
        <time>2023-09-15T14:05:16Z</time>
      </trkpt>
      <trkpt lat="43.51584" lon="6.31412">
        <ele>299.4</ele>
        <time>2023-09-15T14:05:17Z</time>
      </trkpt>
      <trkpt lat="43.51584" lon="6.31413">
        <ele>299.4</ele>
        <time>2023-09-15T14:05:18Z</time>
      </trkpt>
      <trkpt lat="43.51584" lon="6.31415">
        <ele>299.3</ele>
        <time>2023-09-15T14:05:19Z</time>
      </trkpt>
      <trkpt lat="43.51584" lon="6.31416">
        <ele>299.3</ele>
        <time>2023-09-15T14:05:20Z</time>
      </trkpt>
      <trkpt lat="43.51585" lon="6.31417">
        <ele>299.2</ele>
        <time>2023-09-15T14:05:21Z</time>
      </trkpt>
      <trkpt lat="43.51585" lon="6.31419">
        <ele>299.2</ele>
        <time>2023-09-15T14:05:22Z</time>
      </trkpt>
      <trkpt lat="43.51585" lon="6.31421">
        <ele>299.2</ele>
        <time>2023-09-15T14:05:23Z</time>
      </trkpt>
      <trkpt lat="43.51586" lon="6.31422">
        <ele>299.2</ele>
        <time>2023-09-15T14:05:24Z</time>
      </trkpt>
      <trkpt lat="43.51586" lon="6.31423">
        <ele>299.3</ele>
        <time>2023-09-15T14:05:25Z</time>
      </trkpt>
      <trkpt lat="43.51587" lon="6.31425">
        <ele>299.3</ele>
        <time>2023-09-15T14:05:26Z</time>
      </trkpt>
      <trkpt lat="43.51587" lon="6.31426">
        <ele>299.4</ele>
        <time>2023-09-15T14:05:27Z</time>
      </trkpt>
      <trkpt lat="43.51588" lon="6.31427">
        <ele>299.5</ele>
        <time>2023-09-15T14:05:28Z</time>
      </trkpt>
      <trkpt lat="43.51588" lon="6.31428">
        <ele>299.5</ele>
        <time>2023-09-15T14:05:29Z</time>
      </trkpt>
      <trkpt lat="43.51589" lon="6.31429">
        <ele>299.7</ele>
        <time>2023-09-15T14:05:30Z</time>
      </trkpt>
      <trkpt lat="43.51589" lon="6.3143">
        <ele>299.8</ele>
        <time>2023-09-15T14:05:31Z</time>
      </trkpt>
      <trkpt lat="43.51589" lon="6.31432">
        <ele>299.8</ele>
        <time>2023-09-15T14:05:32Z</time>
      </trkpt>
      <trkpt lat="43.5159" lon="6.31433">
        <ele>299.9</ele>
        <time>2023-09-15T14:05:33Z</time>
      </trkpt>
      <trkpt lat="43.5159" lon="6.31434">
        <ele>299.9</ele>
        <time>2023-09-15T14:05:34Z</time>
      </trkpt>
      <trkpt lat="43.51591" lon="6.31435">
        <ele>300</ele>
        <time>2023-09-15T14:05:35Z</time>
      </trkpt>
      <trkpt lat="43.51592" lon="6.31436">
        <ele>300.1</ele>
        <time>2023-09-15T14:05:36Z</time>
      </trkpt>
      <trkpt lat="43.51592" lon="6.31437">
        <ele>300.2</ele>
        <time>2023-09-15T14:05:37Z</time>
      </trkpt>
      <trkpt lat="43.51593" lon="6.31438">
        <ele>300.3</ele>
        <time>2023-09-15T14:05:38Z</time>
      </trkpt>
      <trkpt lat="43.51593" lon="6.31439">
        <ele>300.3</ele>
        <time>2023-09-15T14:05:39Z</time>
      </trkpt>
      <trkpt lat="43.51594" lon="6.31441">
        <ele>300.4</ele>
        <time>2023-09-15T14:05:40Z</time>
      </trkpt>
      <trkpt lat="43.51594" lon="6.31442">
        <ele>300.4</ele>
        <time>2023-09-15T14:05:41Z</time>
      </trkpt>
      <trkpt lat="43.51595" lon="6.31443">
        <ele>300.5</ele>
        <time>2023-09-15T14:05:42Z</time>
      </trkpt>
      <trkpt lat="43.51595" lon="6.31444">
        <ele>300.6</ele>
        <time>2023-09-15T14:05:43Z</time>
      </trkpt>
      <trkpt lat="43.51595" lon="6.31445">
        <ele>300.7</ele>
        <time>2023-09-15T14:05:44Z</time>
      </trkpt>
      <trkpt lat="43.51596" lon="6.31446">
        <ele>300.9</ele>
        <time>2023-09-15T14:05:45Z</time>
      </trkpt>
      <trkpt lat="43.51596" lon="6.31447">
        <ele>301</ele>
        <time>2023-09-15T14:05:46Z</time>
      </trkpt>
      <trkpt lat="43.51597" lon="6.31448">
        <ele>301.2</ele>
        <time>2023-09-15T14:05:47Z</time>
      </trkpt>
      <trkpt lat="43.51597" lon="6.31449">
        <ele>301.3</ele>
        <time>2023-09-15T14:05:48Z</time>
      </trkpt>
      <trkpt lat="43.51598" lon="6.3145">
        <ele>301.4</ele>
        <time>2023-09-15T14:05:49Z</time>
      </trkpt>
      <trkpt lat="43.51598" lon="6.31451">
        <ele>301.5</ele>
        <time>2023-09-15T14:05:50Z</time>
      </trkpt>
      <trkpt lat="43.51599" lon="6.31452">
        <ele>301.6</ele>
        <time>2023-09-15T14:05:51Z</time>
      </trkpt>
      <trkpt lat="43.51599" lon="6.31453">
        <ele>301.8</ele>
        <time>2023-09-15T14:05:52Z</time>
      </trkpt>
      <trkpt lat="43.516" lon="6.31454">
        <ele>302</ele>
        <time>2023-09-15T14:05:53Z</time>
      </trkpt>
      <trkpt lat="43.516" lon="6.31455">
        <ele>302.1</ele>
        <time>2023-09-15T14:05:54Z</time>
      </trkpt>
      <trkpt lat="43.51601" lon="6.31455">
        <ele>302.2</ele>
        <time>2023-09-15T14:05:55Z</time>
      </trkpt>
      <trkpt lat="43.51601" lon="6.31456">
        <ele>302.4</ele>
        <time>2023-09-15T14:05:56Z</time>
      </trkpt>
      <trkpt lat="43.51602" lon="6.31457">
        <ele>302.5</ele>
        <time>2023-09-15T14:05:57Z</time>
      </trkpt>
      <trkpt lat="43.51602" lon="6.31458">
        <ele>302.5</ele>
        <time>2023-09-15T14:05:58Z</time>
      </trkpt>
      <trkpt lat="43.51603" lon="6.31459">
        <ele>302.5</ele>
        <time>2023-09-15T14:05:59Z</time>
      </trkpt>
      <trkpt lat="43.51603" lon="6.3146">
        <ele>302.6</ele>
        <time>2023-09-15T14:06:00Z</time>
      </trkpt>
      <trkpt lat="43.51604" lon="6.31461">
        <ele>302.7</ele>
        <time>2023-09-15T14:06:01Z</time>
      </trkpt>
      <trkpt lat="43.51604" lon="6.31462">
        <ele>302.8</ele>
        <time>2023-09-15T14:06:02Z</time>
      </trkpt>
      <trkpt lat="43.51605" lon="6.31463">
        <ele>302.8</ele>
        <time>2023-09-15T14:06:03Z</time>
      </trkpt>
      <trkpt lat="43.51606" lon="6.31464">
        <ele>303</ele>
        <time>2023-09-15T14:06:04Z</time>
      </trkpt>
      <trkpt lat="43.51606" lon="6.31464">
        <ele>303.1</ele>
        <time>2023-09-15T14:06:05Z</time>
      </trkpt>
      <trkpt lat="43.51606" lon="6.31465">
        <ele>303.2</ele>
        <time>2023-09-15T14:06:06Z</time>
      </trkpt>
      <trkpt lat="43.51607" lon="6.31466">
        <ele>303.3</ele>
        <time>2023-09-15T14:06:07Z</time>
      </trkpt>
      <trkpt lat="43.51607" lon="6.31467">
        <ele>303.4</ele>
        <time>2023-09-15T14:06:08Z</time>
      </trkpt>
      <trkpt lat="43.51608" lon="6.31468">
        <ele>303.4</ele>
        <time>2023-09-15T14:06:09Z</time>
      </trkpt>
      <trkpt lat="43.51608" lon="6.31469">
        <ele>303.5</ele>
        <time>2023-09-15T14:06:10Z</time>
      </trkpt>
      <trkpt lat="43.51609" lon="6.3147">
        <ele>303.5</ele>
        <time>2023-09-15T14:06:11Z</time>
      </trkpt>
      <trkpt lat="43.51609" lon="6.31471">
        <ele>303.6</ele>
        <time>2023-09-15T14:06:12Z</time>
      </trkpt>
      <trkpt lat="43.5161" lon="6.31472">
        <ele>303.7</ele>
        <time>2023-09-15T14:06:13Z</time>
      </trkpt>
      <trkpt lat="43.51611" lon="6.31473">
        <ele>303.7</ele>
        <time>2023-09-15T14:06:14Z</time>
      </trkpt>
      <trkpt lat="43.51612" lon="6.31474">
        <ele>303.7</ele>
        <time>2023-09-15T14:06:15Z</time>
      </trkpt>
      <trkpt lat="43.51612" lon="6.31475">
        <ele>303.8</ele>
        <time>2023-09-15T14:06:16Z</time>
      </trkpt>
      <trkpt lat="43.51613" lon="6.31476">
        <ele>303.8</ele>
        <time>2023-09-15T14:06:17Z</time>
      </trkpt>
      <trkpt lat="43.51614" lon="6.31477">
        <ele>303.8</ele>
        <time>2023-09-15T14:06:18Z</time>
      </trkpt>
      <trkpt lat="43.51614" lon="6.31477">
        <ele>303.9</ele>
        <time>2023-09-15T14:06:19Z</time>
      </trkpt>
      <trkpt lat="43.51615" lon="6.31479">
        <ele>304</ele>
        <time>2023-09-15T14:06:20Z</time>
      </trkpt>
      <trkpt lat="43.51615" lon="6.3148">
        <ele>304</ele>
        <time>2023-09-15T14:06:21Z</time>
      </trkpt>
      <trkpt lat="43.51616" lon="6.31482">
        <ele>304</ele>
        <time>2023-09-15T14:06:22Z</time>
      </trkpt>
      <trkpt lat="43.51617" lon="6.31483">
        <ele>303.9</ele>
        <time>2023-09-15T14:06:23Z</time>
      </trkpt>
      <trkpt lat="43.51617" lon="6.31484">
        <ele>303.9</ele>
        <time>2023-09-15T14:06:24Z</time>
      </trkpt>
      <trkpt lat="43.51618" lon="6.31485">
        <ele>303.9</ele>
        <time>2023-09-15T14:06:25Z</time>
      </trkpt>
      <trkpt lat="43.51619" lon="6.31486">
        <ele>303.9</ele>
        <time>2023-09-15T14:06:26Z</time>
      </trkpt>
      <trkpt lat="43.51619" lon="6.31487">
        <ele>303.9</ele>
        <time>2023-09-15T14:06:27Z</time>
      </trkpt>
      <trkpt lat="43.51619" lon="6.31488">
        <ele>303.9</ele>
        <time>2023-09-15T14:06:28Z</time>
      </trkpt>
      <trkpt lat="43.5162" lon="6.31489">
        <ele>304</ele>
        <time>2023-09-15T14:06:29Z</time>
      </trkpt>
      <trkpt lat="43.51621" lon="6.3149">
        <ele>304</ele>
        <time>2023-09-15T14:06:30Z</time>
      </trkpt>
      <trkpt lat="43.51622" lon="6.31491">
        <ele>304.1</ele>
        <time>2023-09-15T14:06:31Z</time>
      </trkpt>
      <trkpt lat="43.51623" lon="6.31492">
        <ele>304.2</ele>
        <time>2023-09-15T14:06:32Z</time>
      </trkpt>
      <trkpt lat="43.51624" lon="6.31493">
        <ele>304.3</ele>
        <time>2023-09-15T14:06:33Z</time>
      </trkpt>
      <trkpt lat="43.51624" lon="6.31494">
        <ele>304.3</ele>
        <time>2023-09-15T14:06:34Z</time>
      </trkpt>
      <trkpt lat="43.51625" lon="6.31496">
        <ele>304.4</ele>
        <time>2023-09-15T14:06:35Z</time>
      </trkpt>
      <trkpt lat="43.51626" lon="6.31497">
        <ele>304.5</ele>
        <time>2023-09-15T14:06:36Z</time>
      </trkpt>
      <trkpt lat="43.51627" lon="6.31498">
        <ele>304.5</ele>
        <time>2023-09-15T14:06:37Z</time>
      </trkpt>
      <trkpt lat="43.51628" lon="6.31499">
        <ele>304.6</ele>
        <time>2023-09-15T14:06:38Z</time>
      </trkpt>
      <trkpt lat="43.51628" lon="6.315">
        <ele>304.7</ele>
        <time>2023-09-15T14:06:39Z</time>
      </trkpt>
      <trkpt lat="43.51628" lon="6.31501">
        <ele>304.8</ele>
        <time>2023-09-15T14:06:40Z</time>
      </trkpt>
      <trkpt lat="43.51629" lon="6.31503">
        <ele>304.8</ele>
        <time>2023-09-15T14:06:41Z</time>
      </trkpt>
      <trkpt lat="43.51629" lon="6.31504">
        <ele>304.9</ele>
        <time>2023-09-15T14:06:42Z</time>
      </trkpt>
      <trkpt lat="43.5163" lon="6.31505">
        <ele>304.9</ele>
        <time>2023-09-15T14:06:43Z</time>
      </trkpt>
      <trkpt lat="43.51631" lon="6.31505">
        <ele>304.9</ele>
        <time>2023-09-15T14:06:44Z</time>
      </trkpt>
      <trkpt lat="43.51632" lon="6.31506">
        <ele>304.9</ele>
        <time>2023-09-15T14:06:45Z</time>
      </trkpt>
      <trkpt lat="43.51632" lon="6.31508">
        <ele>304.9</ele>
        <time>2023-09-15T14:06:46Z</time>
      </trkpt>
      <trkpt lat="43.51633" lon="6.31509">
        <ele>305</ele>
        <time>2023-09-15T14:06:47Z</time>
      </trkpt>
      <trkpt lat="43.51633" lon="6.31509">
        <ele>305</ele>
        <time>2023-09-15T14:06:48Z</time>
      </trkpt>
      <trkpt lat="43.51634" lon="6.3151">
        <ele>305</ele>
        <time>2023-09-15T14:06:49Z</time>
      </trkpt>
      <trkpt lat="43.51635" lon="6.31511">
        <ele>305</ele>
        <time>2023-09-15T14:06:50Z</time>
      </trkpt>
      <trkpt lat="43.51635" lon="6.31512">
        <ele>305</ele>
        <time>2023-09-15T14:06:51Z</time>
      </trkpt>
      <trkpt lat="43.51636" lon="6.31513">
        <ele>305</ele>
        <time>2023-09-15T14:06:52Z</time>
      </trkpt>
      <trkpt lat="43.51637" lon="6.31514">
        <ele>305</ele>
        <time>2023-09-15T14:06:53Z</time>
      </trkpt>
      <trkpt lat="43.51637" lon="6.31514">
        <ele>305</ele>
        <time>2023-09-15T14:06:54Z</time>
      </trkpt>
      <trkpt lat="43.51638" lon="6.31515">
        <ele>304.9</ele>
        <time>2023-09-15T14:06:55Z</time>
      </trkpt>
      <trkpt lat="43.51638" lon="6.31516">
        <ele>305</ele>
        <time>2023-09-15T14:06:56Z</time>
      </trkpt>
      <trkpt lat="43.51639" lon="6.31517">
        <ele>305</ele>
        <time>2023-09-15T14:06:57Z</time>
      </trkpt>
      <trkpt lat="43.5164" lon="6.31518">
        <ele>305</ele>
        <time>2023-09-15T14:06:58Z</time>
      </trkpt>
      <trkpt lat="43.5164" lon="6.31519">
        <ele>304.9</ele>
        <time>2023-09-15T14:06:59Z</time>
      </trkpt>
      <trkpt lat="43.51641" lon="6.3152">
        <ele>304.9</ele>
        <time>2023-09-15T14:07:00Z</time>
      </trkpt>
      <trkpt lat="43.51642" lon="6.3152">
        <ele>304.8</ele>
        <time>2023-09-15T14:07:01Z</time>
      </trkpt>
      <trkpt lat="43.51643" lon="6.31521">
        <ele>304.7</ele>
        <time>2023-09-15T14:07:02Z</time>
      </trkpt>
      <trkpt lat="43.51643" lon="6.31523">
        <ele>304.8</ele>
        <time>2023-09-15T14:07:03Z</time>
      </trkpt>
      <trkpt lat="43.51644" lon="6.31524">
        <ele>304.8</ele>
        <time>2023-09-15T14:07:04Z</time>
      </trkpt>
      <trkpt lat="43.51644" lon="6.31525">
        <ele>304.8</ele>
        <time>2023-09-15T14:07:05Z</time>
      </trkpt>
      <trkpt lat="43.51645" lon="6.31526">
        <ele>304.8</ele>
        <time>2023-09-15T14:07:06Z</time>
      </trkpt>
      <trkpt lat="43.51646" lon="6.31527">
        <ele>304.9</ele>
        <time>2023-09-15T14:07:07Z</time>
      </trkpt>
      <trkpt lat="43.51646" lon="6.31529">
        <ele>305</ele>
        <time>2023-09-15T14:07:08Z</time>
      </trkpt>
      <trkpt lat="43.51647" lon="6.3153">
        <ele>305.1</ele>
        <time>2023-09-15T14:07:09Z</time>
      </trkpt>
      <trkpt lat="43.51648" lon="6.31532">
        <ele>305.1</ele>
        <time>2023-09-15T14:07:10Z</time>
      </trkpt>
      <trkpt lat="43.51648" lon="6.31533">
        <ele>305.2</ele>
        <time>2023-09-15T14:07:11Z</time>
      </trkpt>
      <trkpt lat="43.51649" lon="6.31534">
        <ele>305.3</ele>
        <time>2023-09-15T14:07:12Z</time>
      </trkpt>
      <trkpt lat="43.5165" lon="6.31535">
        <ele>305.3</ele>
        <time>2023-09-15T14:07:13Z</time>
      </trkpt>
      <trkpt lat="43.5165" lon="6.31536">
        <ele>305.4</ele>
        <time>2023-09-15T14:07:14Z</time>
      </trkpt>
      <trkpt lat="43.51651" lon="6.31537">
        <ele>305.5</ele>
        <time>2023-09-15T14:07:15Z</time>
      </trkpt>
      <trkpt lat="43.51651" lon="6.31538">
        <ele>305.5</ele>
        <time>2023-09-15T14:07:16Z</time>
      </trkpt>
      <trkpt lat="43.51652" lon="6.31539">
        <ele>305.5</ele>
        <time>2023-09-15T14:07:17Z</time>
      </trkpt>
      <trkpt lat="43.51653" lon="6.3154">
        <ele>305.4</ele>
        <time>2023-09-15T14:07:18Z</time>
      </trkpt>
      <trkpt lat="43.51653" lon="6.3154">
        <ele>305.4</ele>
        <time>2023-09-15T14:07:19Z</time>
      </trkpt>
      <trkpt lat="43.51653" lon="6.31542">
        <ele>305.3</ele>
        <time>2023-09-15T14:07:20Z</time>
      </trkpt>
      <trkpt lat="43.51654" lon="6.31543">
        <ele>305.3</ele>
        <time>2023-09-15T14:07:21Z</time>
      </trkpt>
      <trkpt lat="43.51654" lon="6.31544">
        <ele>305.3</ele>
        <time>2023-09-15T14:07:22Z</time>
      </trkpt>
      <trkpt lat="43.51655" lon="6.31545">
        <ele>305.3</ele>
        <time>2023-09-15T14:07:23Z</time>
      </trkpt>
      <trkpt lat="43.51656" lon="6.31546">
        <ele>305.5</ele>
        <time>2023-09-15T14:07:24Z</time>
      </trkpt>
      <trkpt lat="43.51656" lon="6.31548">
        <ele>305.7</ele>
        <time>2023-09-15T14:07:25Z</time>
      </trkpt>
      <trkpt lat="43.51657" lon="6.31549">
        <ele>305.9</ele>
        <time>2023-09-15T14:07:26Z</time>
      </trkpt>
      <trkpt lat="43.51658" lon="6.3155">
        <ele>305.8</ele>
        <time>2023-09-15T14:07:27Z</time>
      </trkpt>
      <trkpt lat="43.51658" lon="6.31551">
        <ele>305.9</ele>
        <time>2023-09-15T14:07:28Z</time>
      </trkpt>
      <trkpt lat="43.51659" lon="6.31552">
        <ele>305.9</ele>
        <time>2023-09-15T14:07:29Z</time>
      </trkpt>
      <trkpt lat="43.5166" lon="6.31553">
        <ele>306</ele>
        <time>2023-09-15T14:07:30Z</time>
      </trkpt>
      <trkpt lat="43.51661" lon="6.31554">
        <ele>306</ele>
        <time>2023-09-15T14:07:31Z</time>
      </trkpt>
      <trkpt lat="43.51662" lon="6.31556">
        <ele>306.1</ele>
        <time>2023-09-15T14:07:32Z</time>
      </trkpt>
      <trkpt lat="43.51662" lon="6.31557">
        <ele>306.1</ele>
        <time>2023-09-15T14:07:33Z</time>
      </trkpt>
      <trkpt lat="43.51663" lon="6.31558">
        <ele>306.2</ele>
        <time>2023-09-15T14:07:34Z</time>
      </trkpt>
      <trkpt lat="43.51663" lon="6.31559">
        <ele>306.2</ele>
        <time>2023-09-15T14:07:35Z</time>
      </trkpt>
      <trkpt lat="43.51664" lon="6.3156">
        <ele>306.2</ele>
        <time>2023-09-15T14:07:36Z</time>
      </trkpt>
      <trkpt lat="43.51664" lon="6.31561">
        <ele>306.2</ele>
        <time>2023-09-15T14:07:37Z</time>
      </trkpt>
      <trkpt lat="43.51664" lon="6.31563">
        <ele>306.2</ele>
        <time>2023-09-15T14:07:38Z</time>
      </trkpt>
      <trkpt lat="43.51665" lon="6.31564">
        <ele>306.2</ele>
        <time>2023-09-15T14:07:39Z</time>
      </trkpt>
      <trkpt lat="43.51665" lon="6.31565">
        <ele>306.2</ele>
        <time>2023-09-15T14:07:40Z</time>
      </trkpt>
      <trkpt lat="43.51666" lon="6.31566">
        <ele>306.1</ele>
        <time>2023-09-15T14:07:41Z</time>
      </trkpt>
      <trkpt lat="43.51667" lon="6.31568">
        <ele>306.1</ele>
        <time>2023-09-15T14:07:42Z</time>
      </trkpt>
      <trkpt lat="43.51667" lon="6.31568">
        <ele>306</ele>
        <time>2023-09-15T14:07:43Z</time>
      </trkpt>
      <trkpt lat="43.51667" lon="6.3157">
        <ele>306</ele>
        <time>2023-09-15T14:07:44Z</time>
      </trkpt>
      <trkpt lat="43.51667" lon="6.31571">
        <ele>305.9</ele>
        <time>2023-09-15T14:07:45Z</time>
      </trkpt>
      <trkpt lat="43.51668" lon="6.31572">
        <ele>305.9</ele>
        <time>2023-09-15T14:07:46Z</time>
      </trkpt>
      <trkpt lat="43.51669" lon="6.31573">
        <ele>305.9</ele>
        <time>2023-09-15T14:07:47Z</time>
      </trkpt>
      <trkpt lat="43.51669" lon="6.31574">
        <ele>305.9</ele>
        <time>2023-09-15T14:07:48Z</time>
      </trkpt>
      <trkpt lat="43.51669" lon="6.31575">
        <ele>306</ele>
        <time>2023-09-15T14:07:49Z</time>
      </trkpt>
      <trkpt lat="43.5167" lon="6.31576">
        <ele>306</ele>
        <time>2023-09-15T14:07:50Z</time>
      </trkpt>
      <trkpt lat="43.5167" lon="6.31577">
        <ele>306.1</ele>
        <time>2023-09-15T14:07:51Z</time>
      </trkpt>
      <trkpt lat="43.51671" lon="6.31578">
        <ele>306.1</ele>
        <time>2023-09-15T14:07:52Z</time>
      </trkpt>
      <trkpt lat="43.51671" lon="6.31579">
        <ele>306</ele>
        <time>2023-09-15T14:07:53Z</time>
      </trkpt>
      <trkpt lat="43.51671" lon="6.31581">
        <ele>306.1</ele>
        <time>2023-09-15T14:07:54Z</time>
      </trkpt>
      <trkpt lat="43.51672" lon="6.31582">
        <ele>306.1</ele>
        <time>2023-09-15T14:07:55Z</time>
      </trkpt>
      <trkpt lat="43.51672" lon="6.31583">
        <ele>306.1</ele>
        <time>2023-09-15T14:07:56Z</time>
      </trkpt>
      <trkpt lat="43.51673" lon="6.31583">
        <ele>306.2</ele>
        <time>2023-09-15T14:07:57Z</time>
      </trkpt>
      <trkpt lat="43.51673" lon="6.31584">
        <ele>306.2</ele>
        <time>2023-09-15T14:07:58Z</time>
      </trkpt>
      <trkpt lat="43.51674" lon="6.31586">
        <ele>306.1</ele>
        <time>2023-09-15T14:07:59Z</time>
      </trkpt>
      <trkpt lat="43.51675" lon="6.31587">
        <ele>306.2</ele>
        <time>2023-09-15T14:08:00Z</time>
      </trkpt>
      <trkpt lat="43.51676" lon="6.31588">
        <ele>306.2</ele>
        <time>2023-09-15T14:08:01Z</time>
      </trkpt>
      <trkpt lat="43.51677" lon="6.31589">
        <ele>306.2</ele>
        <time>2023-09-15T14:08:02Z</time>
      </trkpt>
      <trkpt lat="43.51678" lon="6.3159">
        <ele>306.2</ele>
        <time>2023-09-15T14:08:03Z</time>
      </trkpt>
      <trkpt lat="43.51679" lon="6.31591">
        <ele>306.2</ele>
        <time>2023-09-15T14:08:04Z</time>
      </trkpt>
      <trkpt lat="43.51679" lon="6.31592">
        <ele>306.2</ele>
        <time>2023-09-15T14:08:05Z</time>
      </trkpt>
      <trkpt lat="43.5168" lon="6.31594">
        <ele>306.2</ele>
        <time>2023-09-15T14:08:06Z</time>
      </trkpt>
      <trkpt lat="43.51681" lon="6.31594">
        <ele>306.4</ele>
        <time>2023-09-15T14:08:07Z</time>
      </trkpt>
      <trkpt lat="43.51682" lon="6.31596">
        <ele>306.5</ele>
        <time>2023-09-15T14:08:08Z</time>
      </trkpt>
      <trkpt lat="43.51683" lon="6.31597">
        <ele>306.6</ele>
        <time>2023-09-15T14:08:09Z</time>
      </trkpt>
      <trkpt lat="43.51683" lon="6.31599">
        <ele>306.6</ele>
        <time>2023-09-15T14:08:10Z</time>
      </trkpt>
      <trkpt lat="43.51684" lon="6.31599">
        <ele>306.7</ele>
        <time>2023-09-15T14:08:11Z</time>
      </trkpt>
      <trkpt lat="43.51685" lon="6.316">
        <ele>306.7</ele>
        <time>2023-09-15T14:08:12Z</time>
      </trkpt>
      <trkpt lat="43.51686" lon="6.31601">
        <ele>306.7</ele>
        <time>2023-09-15T14:08:13Z</time>
      </trkpt>
      <trkpt lat="43.51687" lon="6.31602">
        <ele>306.8</ele>
        <time>2023-09-15T14:08:14Z</time>
      </trkpt>
      <trkpt lat="43.51688" lon="6.31602">
        <ele>306.8</ele>
        <time>2023-09-15T14:08:15Z</time>
      </trkpt>
      <trkpt lat="43.51688" lon="6.31603">
        <ele>306.8</ele>
        <time>2023-09-15T14:08:16Z</time>
      </trkpt>
      <trkpt lat="43.51689" lon="6.31604">
        <ele>306.9</ele>
        <time>2023-09-15T14:08:17Z</time>
      </trkpt>
      <trkpt lat="43.5169" lon="6.31604">
        <ele>306.9</ele>
        <time>2023-09-15T14:08:18Z</time>
      </trkpt>
      <trkpt lat="43.51691" lon="6.31605">
        <ele>307</ele>
        <time>2023-09-15T14:08:19Z</time>
      </trkpt>
      <trkpt lat="43.51691" lon="6.31605">
        <ele>307.1</ele>
        <time>2023-09-15T14:08:20Z</time>
      </trkpt>
      <trkpt lat="43.51692" lon="6.31606">
        <ele>307.1</ele>
        <time>2023-09-15T14:08:21Z</time>
      </trkpt>
      <trkpt lat="43.51692" lon="6.31607">
        <ele>307.1</ele>
        <time>2023-09-15T14:08:22Z</time>
      </trkpt>
      <trkpt lat="43.51693" lon="6.31607">
        <ele>307.3</ele>
        <time>2023-09-15T14:08:23Z</time>
      </trkpt>
      <trkpt lat="43.51694" lon="6.31608">
        <ele>307.4</ele>
        <time>2023-09-15T14:08:24Z</time>
      </trkpt>
      <trkpt lat="43.51695" lon="6.31609">
        <ele>307.5</ele>
        <time>2023-09-15T14:08:25Z</time>
      </trkpt>
      <trkpt lat="43.51696" lon="6.31611">
        <ele>307.6</ele>
        <time>2023-09-15T14:08:26Z</time>
      </trkpt>
      <trkpt lat="43.51697" lon="6.31612">
        <ele>307.8</ele>
        <time>2023-09-15T14:08:27Z</time>
      </trkpt>
      <trkpt lat="43.51697" lon="6.31612">
        <ele>307.9</ele>
        <time>2023-09-15T14:08:28Z</time>
      </trkpt>
      <trkpt lat="43.51698" lon="6.31613">
        <ele>308.1</ele>
        <time>2023-09-15T14:08:29Z</time>
      </trkpt>
      <trkpt lat="43.51699" lon="6.31615">
        <ele>308.3</ele>
        <time>2023-09-15T14:08:30Z</time>
      </trkpt>
      <trkpt lat="43.51699" lon="6.31616">
        <ele>308.4</ele>
        <time>2023-09-15T14:08:31Z</time>
      </trkpt>
      <trkpt lat="43.517" lon="6.31617">
        <ele>308.5</ele>
        <time>2023-09-15T14:08:32Z</time>
      </trkpt>
      <trkpt lat="43.51701" lon="6.31617">
        <ele>308.6</ele>
        <time>2023-09-15T14:08:33Z</time>
      </trkpt>
      <trkpt lat="43.51702" lon="6.31618">
        <ele>308.7</ele>
        <time>2023-09-15T14:08:34Z</time>
      </trkpt>
      <trkpt lat="43.51702" lon="6.31619">
        <ele>308.7</ele>
        <time>2023-09-15T14:08:35Z</time>
      </trkpt>
      <trkpt lat="43.51703" lon="6.3162">
        <ele>308.7</ele>
        <time>2023-09-15T14:08:36Z</time>
      </trkpt>
      <trkpt lat="43.51703" lon="6.31621">
        <ele>308.7</ele>
        <time>2023-09-15T14:08:37Z</time>
      </trkpt>
      <trkpt lat="43.51704" lon="6.31621">
        <ele>308.9</ele>
        <time>2023-09-15T14:08:38Z</time>
      </trkpt>
      <trkpt lat="43.51705" lon="6.31622">
        <ele>308.9</ele>
        <time>2023-09-15T14:08:39Z</time>
      </trkpt>
      <trkpt lat="43.51705" lon="6.31623">
        <ele>309</ele>
        <time>2023-09-15T14:08:40Z</time>
      </trkpt>
      <trkpt lat="43.51706" lon="6.31623">
        <ele>309.1</ele>
        <time>2023-09-15T14:08:41Z</time>
      </trkpt>
      <trkpt lat="43.51706" lon="6.31623">
        <ele>309.2</ele>
        <time>2023-09-15T14:08:42Z</time>
      </trkpt>
      <trkpt lat="43.51707" lon="6.31624">
        <ele>309.2</ele>
        <time>2023-09-15T14:08:43Z</time>
      </trkpt>
      <trkpt lat="43.51708" lon="6.31625">
        <ele>309.2</ele>
        <time>2023-09-15T14:08:44Z</time>
      </trkpt>
      <trkpt lat="43.51708" lon="6.31625">
        <ele>309.2</ele>
        <time>2023-09-15T14:08:45Z</time>
      </trkpt>
      <trkpt lat="43.51709" lon="6.31626">
        <ele>309.3</ele>
        <time>2023-09-15T14:08:46Z</time>
      </trkpt>
      <trkpt lat="43.5171" lon="6.31628">
        <ele>309.3</ele>
        <time>2023-09-15T14:08:47Z</time>
      </trkpt>
      <trkpt lat="43.5171" lon="6.31628">
        <ele>309.3</ele>
        <time>2023-09-15T14:08:48Z</time>
      </trkpt>
      <trkpt lat="43.51711" lon="6.31629">
        <ele>309.4</ele>
        <time>2023-09-15T14:08:49Z</time>
      </trkpt>
      <trkpt lat="43.51711" lon="6.3163">
        <ele>309.4</ele>
        <time>2023-09-15T14:08:50Z</time>
      </trkpt>
      <trkpt lat="43.51712" lon="6.31631">
        <ele>309.5</ele>
        <time>2023-09-15T14:08:51Z</time>
      </trkpt>
      <trkpt lat="43.51712" lon="6.31631">
        <ele>309.5</ele>
        <time>2023-09-15T14:08:52Z</time>
      </trkpt>
      <trkpt lat="43.51713" lon="6.31632">
        <ele>309.5</ele>
        <time>2023-09-15T14:08:53Z</time>
      </trkpt>
      <trkpt lat="43.51712" lon="6.31633">
        <ele>309.8</ele>
        <time>2023-09-15T14:08:54Z</time>
      </trkpt>
      <trkpt lat="43.51713" lon="6.31634">
        <ele>310</ele>
        <time>2023-09-15T14:08:55Z</time>
      </trkpt>
      <trkpt lat="43.51713" lon="6.31635">
        <ele>310</ele>
        <time>2023-09-15T14:08:56Z</time>
      </trkpt>
      <trkpt lat="43.51714" lon="6.31636">
        <ele>310.1</ele>
        <time>2023-09-15T14:08:57Z</time>
      </trkpt>
      <trkpt lat="43.51714" lon="6.31636">
        <ele>310.2</ele>
        <time>2023-09-15T14:08:58Z</time>
      </trkpt>
      <trkpt lat="43.51714" lon="6.31637">
        <ele>310.3</ele>
        <time>2023-09-15T14:08:59Z</time>
      </trkpt>
      <trkpt lat="43.51715" lon="6.31638">
        <ele>310.4</ele>
        <time>2023-09-15T14:09:00Z</time>
      </trkpt>
      <trkpt lat="43.51715" lon="6.31639">
        <ele>310.5</ele>
        <time>2023-09-15T14:09:01Z</time>
      </trkpt>
      <trkpt lat="43.51715" lon="6.3164">
        <ele>310.6</ele>
        <time>2023-09-15T14:09:02Z</time>
      </trkpt>
      <trkpt lat="43.51715" lon="6.31641">
        <ele>310.6</ele>
        <time>2023-09-15T14:09:03Z</time>
      </trkpt>
      <trkpt lat="43.51715" lon="6.31642">
        <ele>310.7</ele>
        <time>2023-09-15T14:09:04Z</time>
      </trkpt>
      <trkpt lat="43.51716" lon="6.31643">
        <ele>310.7</ele>
        <time>2023-09-15T14:09:05Z</time>
      </trkpt>
      <trkpt lat="43.51716" lon="6.31643">
        <ele>310.7</ele>
        <time>2023-09-15T14:09:06Z</time>
      </trkpt>
      <trkpt lat="43.51716" lon="6.31644">
        <ele>310.8</ele>
        <time>2023-09-15T14:09:07Z</time>
      </trkpt>
      <trkpt lat="43.51716" lon="6.31646">
        <ele>310.8</ele>
        <time>2023-09-15T14:09:08Z</time>
      </trkpt>
      <trkpt lat="43.51716" lon="6.31646">
        <ele>310.8</ele>
        <time>2023-09-15T14:09:09Z</time>
      </trkpt>
      <trkpt lat="43.51716" lon="6.31646">
        <ele>310.9</ele>
        <time>2023-09-15T14:09:10Z</time>
      </trkpt>
      <trkpt lat="43.51716" lon="6.31647">
        <ele>311</ele>
        <time>2023-09-15T14:09:11Z</time>
      </trkpt>
      <trkpt lat="43.51716" lon="6.31648">
        <ele>311.1</ele>
        <time>2023-09-15T14:09:12Z</time>
      </trkpt>
      <trkpt lat="43.51716" lon="6.31649">
        <ele>311.1</ele>
        <time>2023-09-15T14:09:13Z</time>
      </trkpt>
      <trkpt lat="43.51716" lon="6.3165">
        <ele>311.2</ele>
        <time>2023-09-15T14:09:14Z</time>
      </trkpt>
      <trkpt lat="43.51716" lon="6.31651">
        <ele>311.3</ele>
        <time>2023-09-15T14:09:15Z</time>
      </trkpt>
      <trkpt lat="43.51717" lon="6.31651">
        <ele>311.4</ele>
        <time>2023-09-15T14:09:16Z</time>
      </trkpt>
      <trkpt lat="43.51717" lon="6.31653">
        <ele>311.5</ele>
        <time>2023-09-15T14:09:17Z</time>
      </trkpt>
      <trkpt lat="43.51717" lon="6.31654">
        <ele>311.6</ele>
        <time>2023-09-15T14:09:18Z</time>
      </trkpt>
      <trkpt lat="43.51717" lon="6.31655">
        <ele>311.6</ele>
        <time>2023-09-15T14:09:19Z</time>
      </trkpt>
      <trkpt lat="43.51717" lon="6.31656">
        <ele>311.8</ele>
        <time>2023-09-15T14:09:20Z</time>
      </trkpt>
      <trkpt lat="43.51717" lon="6.31657">
        <ele>311.9</ele>
        <time>2023-09-15T14:09:21Z</time>
      </trkpt>
      <trkpt lat="43.51717" lon="6.31658">
        <ele>312</ele>
        <time>2023-09-15T14:09:22Z</time>
      </trkpt>
      <trkpt lat="43.51718" lon="6.31659">
        <ele>312.1</ele>
        <time>2023-09-15T14:09:23Z</time>
      </trkpt>
      <trkpt lat="43.51718" lon="6.3166">
        <ele>312.2</ele>
        <time>2023-09-15T14:09:24Z</time>
      </trkpt>
      <trkpt lat="43.51718" lon="6.31661">
        <ele>312.3</ele>
        <time>2023-09-15T14:09:25Z</time>
      </trkpt>
      <trkpt lat="43.51718" lon="6.31662">
        <ele>312.3</ele>
        <time>2023-09-15T14:09:26Z</time>
      </trkpt>
      <trkpt lat="43.51718" lon="6.31663">
        <ele>312.4</ele>
        <time>2023-09-15T14:09:27Z</time>
      </trkpt>
      <trkpt lat="43.51718" lon="6.31664">
        <ele>312.4</ele>
        <time>2023-09-15T14:09:28Z</time>
      </trkpt>
      <trkpt lat="43.51718" lon="6.31665">
        <ele>312.5</ele>
        <time>2023-09-15T14:09:29Z</time>
      </trkpt>
      <trkpt lat="43.51718" lon="6.31666">
        <ele>312.6</ele>
        <time>2023-09-15T14:09:30Z</time>
      </trkpt>
      <trkpt lat="43.51718" lon="6.31667">
        <ele>312.5</ele>
        <time>2023-09-15T14:09:31Z</time>
      </trkpt>
      <trkpt lat="43.51718" lon="6.31669">
        <ele>312.6</ele>
        <time>2023-09-15T14:09:32Z</time>
      </trkpt>
      <trkpt lat="43.51718" lon="6.3167">
        <ele>312.8</ele>
        <time>2023-09-15T14:09:33Z</time>
      </trkpt>
      <trkpt lat="43.51718" lon="6.31671">
        <ele>312.9</ele>
        <time>2023-09-15T14:09:34Z</time>
      </trkpt>
      <trkpt lat="43.51718" lon="6.31673">
        <ele>312.9</ele>
        <time>2023-09-15T14:09:35Z</time>
      </trkpt>
      <trkpt lat="43.51718" lon="6.31674">
        <ele>313.1</ele>
        <time>2023-09-15T14:09:36Z</time>
      </trkpt>
      <trkpt lat="43.51718" lon="6.31675">
        <ele>313.2</ele>
        <time>2023-09-15T14:09:37Z</time>
      </trkpt>
      <trkpt lat="43.51718" lon="6.31676">
        <ele>313.3</ele>
        <time>2023-09-15T14:09:38Z</time>
      </trkpt>
      <trkpt lat="43.51718" lon="6.31677">
        <ele>313.3</ele>
        <time>2023-09-15T14:09:39Z</time>
      </trkpt>
      <trkpt lat="43.51718" lon="6.31679">
        <ele>313.4</ele>
        <time>2023-09-15T14:09:40Z</time>
      </trkpt>
      <trkpt lat="43.51718" lon="6.3168">
        <ele>313.4</ele>
        <time>2023-09-15T14:09:41Z</time>
      </trkpt>
      <trkpt lat="43.51718" lon="6.3168">
        <ele>313.5</ele>
        <time>2023-09-15T14:09:42Z</time>
      </trkpt>
      <trkpt lat="43.51719" lon="6.31681">
        <ele>313.5</ele>
        <time>2023-09-15T14:09:43Z</time>
      </trkpt>
      <trkpt lat="43.51718" lon="6.31682">
        <ele>313.5</ele>
        <time>2023-09-15T14:09:44Z</time>
      </trkpt>
      <trkpt lat="43.51718" lon="6.31683">
        <ele>313.4</ele>
        <time>2023-09-15T14:09:45Z</time>
      </trkpt>
      <trkpt lat="43.51718" lon="6.31685">
        <ele>313.4</ele>
        <time>2023-09-15T14:09:46Z</time>
      </trkpt>
      <trkpt lat="43.51718" lon="6.31686">
        <ele>313.5</ele>
        <time>2023-09-15T14:09:47Z</time>
      </trkpt>
      <trkpt lat="43.51718" lon="6.31688">
        <ele>313.5</ele>
        <time>2023-09-15T14:09:48Z</time>
      </trkpt>
      <trkpt lat="43.51717" lon="6.31689">
        <ele>313.5</ele>
        <time>2023-09-15T14:09:49Z</time>
      </trkpt>
      <trkpt lat="43.51717" lon="6.3169">
        <ele>313.5</ele>
        <time>2023-09-15T14:09:50Z</time>
      </trkpt>
      <trkpt lat="43.51717" lon="6.31691">
        <ele>313.5</ele>
        <time>2023-09-15T14:09:51Z</time>
      </trkpt>
      <trkpt lat="43.51717" lon="6.31692">
        <ele>313.6</ele>
        <time>2023-09-15T14:09:52Z</time>
      </trkpt>
      <trkpt lat="43.51717" lon="6.31693">
        <ele>313.6</ele>
        <time>2023-09-15T14:09:53Z</time>
      </trkpt>
      <trkpt lat="43.51716" lon="6.31695">
        <ele>313.6</ele>
        <time>2023-09-15T14:09:54Z</time>
      </trkpt>
      <trkpt lat="43.51716" lon="6.31696">
        <ele>313.6</ele>
        <time>2023-09-15T14:09:55Z</time>
      </trkpt>
      <trkpt lat="43.51716" lon="6.31697">
        <ele>313.7</ele>
        <time>2023-09-15T14:09:56Z</time>
      </trkpt>
      <trkpt lat="43.51716" lon="6.31699">
        <ele>313.7</ele>
        <time>2023-09-15T14:09:57Z</time>
      </trkpt>
      <trkpt lat="43.51716" lon="6.31701">
        <ele>313.6</ele>
        <time>2023-09-15T14:09:58Z</time>
      </trkpt>
      <trkpt lat="43.51716" lon="6.31702">
        <ele>313.7</ele>
        <time>2023-09-15T14:09:59Z</time>
      </trkpt>
      <trkpt lat="43.51716" lon="6.31704">
        <ele>313.7</ele>
        <time>2023-09-15T14:10:00Z</time>
      </trkpt>
      <trkpt lat="43.51716" lon="6.31705">
        <ele>313.7</ele>
        <time>2023-09-15T14:10:01Z</time>
      </trkpt>
      <trkpt lat="43.51717" lon="6.31706">
        <ele>313.7</ele>
        <time>2023-09-15T14:10:02Z</time>
      </trkpt>
      <trkpt lat="43.51716" lon="6.31708">
        <ele>313.7</ele>
        <time>2023-09-15T14:10:03Z</time>
      </trkpt>
      <trkpt lat="43.51717" lon="6.3171">
        <ele>313.7</ele>
        <time>2023-09-15T14:10:04Z</time>
      </trkpt>
      <trkpt lat="43.51716" lon="6.31712">
        <ele>313.7</ele>
        <time>2023-09-15T14:10:05Z</time>
      </trkpt>
      <trkpt lat="43.51716" lon="6.31713">
        <ele>313.8</ele>
        <time>2023-09-15T14:10:06Z</time>
      </trkpt>
      <trkpt lat="43.51715" lon="6.31714">
        <ele>313.7</ele>
        <time>2023-09-15T14:10:07Z</time>
      </trkpt>
      <trkpt lat="43.51715" lon="6.31715">
        <ele>313.8</ele>
        <time>2023-09-15T14:10:08Z</time>
      </trkpt>
      <trkpt lat="43.51715" lon="6.31716">
        <ele>313.7</ele>
        <time>2023-09-15T14:10:09Z</time>
      </trkpt>
      <trkpt lat="43.51715" lon="6.31717">
        <ele>313.6</ele>
        <time>2023-09-15T14:10:10Z</time>
      </trkpt>
      <trkpt lat="43.51716" lon="6.31719">
        <ele>313.5</ele>
        <time>2023-09-15T14:10:11Z</time>
      </trkpt>
      <trkpt lat="43.51716" lon="6.3172">
        <ele>313.5</ele>
        <time>2023-09-15T14:10:12Z</time>
      </trkpt>
      <trkpt lat="43.51715" lon="6.31721">
        <ele>313.5</ele>
        <time>2023-09-15T14:10:13Z</time>
      </trkpt>
      <trkpt lat="43.51715" lon="6.31722">
        <ele>313.5</ele>
        <time>2023-09-15T14:10:14Z</time>
      </trkpt>
      <trkpt lat="43.51716" lon="6.31724">
        <ele>313.5</ele>
        <time>2023-09-15T14:10:15Z</time>
      </trkpt>
      <trkpt lat="43.51716" lon="6.31725">
        <ele>313.6</ele>
        <time>2023-09-15T14:10:16Z</time>
      </trkpt>
      <trkpt lat="43.51716" lon="6.31726">
        <ele>313.5</ele>
        <time>2023-09-15T14:10:17Z</time>
      </trkpt>
      <trkpt lat="43.51715" lon="6.31727">
        <ele>313.5</ele>
        <time>2023-09-15T14:10:18Z</time>
      </trkpt>
      <trkpt lat="43.51715" lon="6.31728">
        <ele>313.5</ele>
        <time>2023-09-15T14:10:19Z</time>
      </trkpt>
      <trkpt lat="43.51715" lon="6.31729">
        <ele>313.6</ele>
        <time>2023-09-15T14:10:20Z</time>
      </trkpt>
      <trkpt lat="43.51715" lon="6.3173">
        <ele>313.5</ele>
        <time>2023-09-15T14:10:21Z</time>
      </trkpt>
      <trkpt lat="43.51715" lon="6.31732">
        <ele>313.5</ele>
        <time>2023-09-15T14:10:22Z</time>
      </trkpt>
      <trkpt lat="43.51715" lon="6.31733">
        <ele>313.5</ele>
        <time>2023-09-15T14:10:23Z</time>
      </trkpt>
      <trkpt lat="43.51715" lon="6.31734">
        <ele>313.5</ele>
        <time>2023-09-15T14:10:24Z</time>
      </trkpt>
      <trkpt lat="43.51716" lon="6.31734">
        <ele>313.6</ele>
        <time>2023-09-15T14:10:25Z</time>
      </trkpt>
      <trkpt lat="43.51716" lon="6.31736">
        <ele>313.7</ele>
        <time>2023-09-15T14:10:26Z</time>
      </trkpt>
      <trkpt lat="43.51716" lon="6.31736">
        <ele>313.7</ele>
        <time>2023-09-15T14:10:27Z</time>
      </trkpt>
      <trkpt lat="43.51716" lon="6.31738">
        <ele>313.7</ele>
        <time>2023-09-15T14:10:28Z</time>
      </trkpt>
      <trkpt lat="43.51716" lon="6.31739">
        <ele>313.9</ele>
        <time>2023-09-15T14:10:29Z</time>
      </trkpt>
      <trkpt lat="43.51716" lon="6.31741">
        <ele>314</ele>
        <time>2023-09-15T14:10:30Z</time>
      </trkpt>
      <trkpt lat="43.51716" lon="6.31742">
        <ele>314.1</ele>
        <time>2023-09-15T14:10:31Z</time>
      </trkpt>
      <trkpt lat="43.51716" lon="6.31743">
        <ele>314</ele>
        <time>2023-09-15T14:10:32Z</time>
      </trkpt>
      <trkpt lat="43.51716" lon="6.31744">
        <ele>314</ele>
        <time>2023-09-15T14:10:33Z</time>
      </trkpt>
      <trkpt lat="43.51716" lon="6.31745">
        <ele>314</ele>
        <time>2023-09-15T14:10:34Z</time>
      </trkpt>
      <trkpt lat="43.51716" lon="6.31746">
        <ele>314</ele>
        <time>2023-09-15T14:10:35Z</time>
      </trkpt>
      <trkpt lat="43.51716" lon="6.31747">
        <ele>314</ele>
        <time>2023-09-15T14:10:36Z</time>
      </trkpt>
      <trkpt lat="43.51716" lon="6.31747">
        <ele>314.1</ele>
        <time>2023-09-15T14:10:37Z</time>
      </trkpt>
      <trkpt lat="43.51716" lon="6.31749">
        <ele>314.1</ele>
        <time>2023-09-15T14:10:38Z</time>
      </trkpt>
      <trkpt lat="43.51716" lon="6.3175">
        <ele>314.1</ele>
        <time>2023-09-15T14:10:39Z</time>
      </trkpt>
      <trkpt lat="43.51716" lon="6.31751">
        <ele>314.1</ele>
        <time>2023-09-15T14:10:40Z</time>
      </trkpt>
      <trkpt lat="43.51717" lon="6.31752">
        <ele>314.1</ele>
        <time>2023-09-15T14:10:41Z</time>
      </trkpt>
      <trkpt lat="43.51717" lon="6.31754">
        <ele>314.1</ele>
        <time>2023-09-15T14:10:42Z</time>
      </trkpt>
      <trkpt lat="43.51717" lon="6.31754">
        <ele>314.1</ele>
        <time>2023-09-15T14:10:43Z</time>
      </trkpt>
      <trkpt lat="43.51717" lon="6.31755">
        <ele>314.2</ele>
        <time>2023-09-15T14:10:44Z</time>
      </trkpt>
      <trkpt lat="43.51716" lon="6.31756">
        <ele>314.2</ele>
        <time>2023-09-15T14:10:45Z</time>
      </trkpt>
      <trkpt lat="43.51716" lon="6.31758">
        <ele>314.2</ele>
        <time>2023-09-15T14:10:46Z</time>
      </trkpt>
      <trkpt lat="43.51716" lon="6.31759">
        <ele>314.2</ele>
        <time>2023-09-15T14:10:47Z</time>
      </trkpt>
      <trkpt lat="43.51716" lon="6.3176">
        <ele>314.2</ele>
        <time>2023-09-15T14:10:48Z</time>
      </trkpt>
      <trkpt lat="43.51716" lon="6.31762">
        <ele>314.2</ele>
        <time>2023-09-15T14:10:49Z</time>
      </trkpt>
      <trkpt lat="43.51716" lon="6.31763">
        <ele>314.2</ele>
        <time>2023-09-15T14:10:50Z</time>
      </trkpt>
      <trkpt lat="43.51717" lon="6.31764">
        <ele>314.2</ele>
        <time>2023-09-15T14:10:51Z</time>
      </trkpt>
      <trkpt lat="43.51717" lon="6.31766">
        <ele>314.2</ele>
        <time>2023-09-15T14:10:52Z</time>
      </trkpt>
      <trkpt lat="43.51717" lon="6.31767">
        <ele>314.2</ele>
        <time>2023-09-15T14:10:53Z</time>
      </trkpt>
      <trkpt lat="43.51717" lon="6.31768">
        <ele>314.2</ele>
        <time>2023-09-15T14:10:54Z</time>
      </trkpt>
      <trkpt lat="43.51717" lon="6.3177">
        <ele>314.1</ele>
        <time>2023-09-15T14:10:55Z</time>
      </trkpt>
      <trkpt lat="43.51716" lon="6.31771">
        <ele>314.1</ele>
        <time>2023-09-15T14:10:56Z</time>
      </trkpt>
      <trkpt lat="43.51716" lon="6.31772">
        <ele>314.1</ele>
        <time>2023-09-15T14:10:57Z</time>
      </trkpt>
      <trkpt lat="43.51716" lon="6.31774">
        <ele>314.1</ele>
        <time>2023-09-15T14:10:58Z</time>
      </trkpt>
      <trkpt lat="43.51716" lon="6.31775">
        <ele>314.1</ele>
        <time>2023-09-15T14:10:59Z</time>
      </trkpt>
      <trkpt lat="43.51716" lon="6.31776">
        <ele>314.1</ele>
        <time>2023-09-15T14:11:00Z</time>
      </trkpt>
      <trkpt lat="43.51716" lon="6.31778">
        <ele>314.1</ele>
        <time>2023-09-15T14:11:01Z</time>
      </trkpt>
      <trkpt lat="43.51716" lon="6.31779">
        <ele>314</ele>
        <time>2023-09-15T14:11:02Z</time>
      </trkpt>
      <trkpt lat="43.51716" lon="6.3178">
        <ele>314</ele>
        <time>2023-09-15T14:11:03Z</time>
      </trkpt>
      <trkpt lat="43.51716" lon="6.31781">
        <ele>314</ele>
        <time>2023-09-15T14:11:04Z</time>
      </trkpt>
      <trkpt lat="43.51716" lon="6.31782">
        <ele>314</ele>
        <time>2023-09-15T14:11:05Z</time>
      </trkpt>
      <trkpt lat="43.51716" lon="6.31784">
        <ele>313.9</ele>
        <time>2023-09-15T14:11:06Z</time>
      </trkpt>
      <trkpt lat="43.51716" lon="6.31785">
        <ele>313.9</ele>
        <time>2023-09-15T14:11:07Z</time>
      </trkpt>
      <trkpt lat="43.51716" lon="6.31785">
        <ele>313.9</ele>
        <time>2023-09-15T14:11:08Z</time>
      </trkpt>
      <trkpt lat="43.51716" lon="6.31786">
        <ele>314</ele>
        <time>2023-09-15T14:11:09Z</time>
      </trkpt>
      <trkpt lat="43.51716" lon="6.31788">
        <ele>314.1</ele>
        <time>2023-09-15T14:11:10Z</time>
      </trkpt>
      <trkpt lat="43.51716" lon="6.31789">
        <ele>314.1</ele>
        <time>2023-09-15T14:11:11Z</time>
      </trkpt>
      <trkpt lat="43.51716" lon="6.3179">
        <ele>314</ele>
        <time>2023-09-15T14:11:12Z</time>
      </trkpt>
      <trkpt lat="43.51716" lon="6.31791">
        <ele>313.9</ele>
        <time>2023-09-15T14:11:13Z</time>
      </trkpt>
      <trkpt lat="43.51716" lon="6.31793">
        <ele>313.9</ele>
        <time>2023-09-15T14:11:14Z</time>
      </trkpt>
      <trkpt lat="43.51716" lon="6.31794">
        <ele>313.9</ele>
        <time>2023-09-15T14:11:15Z</time>
      </trkpt>
      <trkpt lat="43.51716" lon="6.31795">
        <ele>313.9</ele>
        <time>2023-09-15T14:11:16Z</time>
      </trkpt>
      <trkpt lat="43.51716" lon="6.31796">
        <ele>313.9</ele>
        <time>2023-09-15T14:11:17Z</time>
      </trkpt>
      <trkpt lat="43.51716" lon="6.31797">
        <ele>313.9</ele>
        <time>2023-09-15T14:11:18Z</time>
      </trkpt>
      <trkpt lat="43.51715" lon="6.31798">
        <ele>314.1</ele>
        <time>2023-09-15T14:11:19Z</time>
      </trkpt>
      <trkpt lat="43.51715" lon="6.318">
        <ele>314.1</ele>
        <time>2023-09-15T14:11:20Z</time>
      </trkpt>
      <trkpt lat="43.51715" lon="6.318">
        <ele>314.2</ele>
        <time>2023-09-15T14:11:21Z</time>
      </trkpt>
      <trkpt lat="43.51715" lon="6.31802">
        <ele>314.4</ele>
        <time>2023-09-15T14:11:22Z</time>
      </trkpt>
      <trkpt lat="43.51715" lon="6.31803">
        <ele>314.5</ele>
        <time>2023-09-15T14:11:23Z</time>
      </trkpt>
      <trkpt lat="43.51715" lon="6.31804">
        <ele>314.4</ele>
        <time>2023-09-15T14:11:24Z</time>
      </trkpt>
      <trkpt lat="43.51715" lon="6.31805">
        <ele>314.5</ele>
        <time>2023-09-15T14:11:25Z</time>
      </trkpt>
      <trkpt lat="43.51715" lon="6.31807">
        <ele>314.5</ele>
        <time>2023-09-15T14:11:26Z</time>
      </trkpt>
      <trkpt lat="43.51714" lon="6.31808">
        <ele>314.6</ele>
        <time>2023-09-15T14:11:27Z</time>
      </trkpt>
      <trkpt lat="43.51713" lon="6.3181">
        <ele>314.7</ele>
        <time>2023-09-15T14:11:28Z</time>
      </trkpt>
      <trkpt lat="43.51713" lon="6.31811">
        <ele>314.8</ele>
        <time>2023-09-15T14:11:29Z</time>
      </trkpt>
      <trkpt lat="43.51713" lon="6.31812">
        <ele>314.8</ele>
        <time>2023-09-15T14:11:30Z</time>
      </trkpt>
      <trkpt lat="43.51713" lon="6.31814">
        <ele>314.8</ele>
        <time>2023-09-15T14:11:31Z</time>
      </trkpt>
      <trkpt lat="43.51712" lon="6.31815">
        <ele>314.9</ele>
        <time>2023-09-15T14:11:32Z</time>
      </trkpt>
      <trkpt lat="43.51712" lon="6.31816">
        <ele>315</ele>
        <time>2023-09-15T14:11:33Z</time>
      </trkpt>
      <trkpt lat="43.51712" lon="6.31817">
        <ele>315</ele>
        <time>2023-09-15T14:11:34Z</time>
      </trkpt>
      <trkpt lat="43.51711" lon="6.31818">
        <ele>315.1</ele>
        <time>2023-09-15T14:11:35Z</time>
      </trkpt>
      <trkpt lat="43.51711" lon="6.3182">
        <ele>315.1</ele>
        <time>2023-09-15T14:11:36Z</time>
      </trkpt>
      <trkpt lat="43.51711" lon="6.3182">
        <ele>315.2</ele>
        <time>2023-09-15T14:11:37Z</time>
      </trkpt>
      <trkpt lat="43.51711" lon="6.31821">
        <ele>315.2</ele>
        <time>2023-09-15T14:11:38Z</time>
      </trkpt>
      <trkpt lat="43.51711" lon="6.31822">
        <ele>315.4</ele>
        <time>2023-09-15T14:11:39Z</time>
      </trkpt>
      <trkpt lat="43.5171" lon="6.31823">
        <ele>315.6</ele>
        <time>2023-09-15T14:11:40Z</time>
      </trkpt>
      <trkpt lat="43.5171" lon="6.31824">
        <ele>315.7</ele>
        <time>2023-09-15T14:11:41Z</time>
      </trkpt>
      <trkpt lat="43.5171" lon="6.31825">
        <ele>315.8</ele>
        <time>2023-09-15T14:11:42Z</time>
      </trkpt>
      <trkpt lat="43.51709" lon="6.31825">
        <ele>315.8</ele>
        <time>2023-09-15T14:11:43Z</time>
      </trkpt>
      <trkpt lat="43.51709" lon="6.31826">
        <ele>315.8</ele>
        <time>2023-09-15T14:11:44Z</time>
      </trkpt>
      <trkpt lat="43.51709" lon="6.31828">
        <ele>315.8</ele>
        <time>2023-09-15T14:11:45Z</time>
      </trkpt>
      <trkpt lat="43.51709" lon="6.31828">
        <ele>315.9</ele>
        <time>2023-09-15T14:11:46Z</time>
      </trkpt>
      <trkpt lat="43.51709" lon="6.3183">
        <ele>315.9</ele>
        <time>2023-09-15T14:11:47Z</time>
      </trkpt>
      <trkpt lat="43.51709" lon="6.31831">
        <ele>316</ele>
        <time>2023-09-15T14:11:48Z</time>
      </trkpt>
      <trkpt lat="43.51709" lon="6.31833">
        <ele>316.1</ele>
        <time>2023-09-15T14:11:49Z</time>
      </trkpt>
      <trkpt lat="43.51709" lon="6.31835">
        <ele>316.2</ele>
        <time>2023-09-15T14:11:50Z</time>
      </trkpt>
      <trkpt lat="43.51709" lon="6.31836">
        <ele>316.3</ele>
        <time>2023-09-15T14:11:51Z</time>
      </trkpt>
      <trkpt lat="43.51708" lon="6.31838">
        <ele>316.5</ele>
        <time>2023-09-15T14:11:52Z</time>
      </trkpt>
      <trkpt lat="43.51708" lon="6.3184">
        <ele>316.6</ele>
        <time>2023-09-15T14:11:53Z</time>
      </trkpt>
      <trkpt lat="43.51708" lon="6.31841">
        <ele>316.7</ele>
        <time>2023-09-15T14:11:54Z</time>
      </trkpt>
      <trkpt lat="43.51708" lon="6.31842">
        <ele>316.7</ele>
        <time>2023-09-15T14:11:55Z</time>
      </trkpt>
      <trkpt lat="43.51708" lon="6.31843">
        <ele>316.8</ele>
        <time>2023-09-15T14:11:56Z</time>
      </trkpt>
      <trkpt lat="43.51708" lon="6.31845">
        <ele>317</ele>
        <time>2023-09-15T14:11:57Z</time>
      </trkpt>
      <trkpt lat="43.51707" lon="6.31846">
        <ele>317.1</ele>
        <time>2023-09-15T14:11:58Z</time>
      </trkpt>
      <trkpt lat="43.51707" lon="6.31848">
        <ele>317.2</ele>
        <time>2023-09-15T14:11:59Z</time>
      </trkpt>
      <trkpt lat="43.51707" lon="6.31849">
        <ele>317.3</ele>
        <time>2023-09-15T14:12:00Z</time>
      </trkpt>
      <trkpt lat="43.51707" lon="6.3185">
        <ele>317.4</ele>
        <time>2023-09-15T14:12:01Z</time>
      </trkpt>
      <trkpt lat="43.51707" lon="6.31851">
        <ele>317.5</ele>
        <time>2023-09-15T14:12:02Z</time>
      </trkpt>
      <trkpt lat="43.51706" lon="6.31852">
        <ele>317.7</ele>
        <time>2023-09-15T14:12:03Z</time>
      </trkpt>
      <trkpt lat="43.51706" lon="6.31854">
        <ele>317.8</ele>
        <time>2023-09-15T14:12:04Z</time>
      </trkpt>
      <trkpt lat="43.51706" lon="6.31855">
        <ele>317.9</ele>
        <time>2023-09-15T14:12:05Z</time>
      </trkpt>
      <trkpt lat="43.51706" lon="6.31856">
        <ele>318</ele>
        <time>2023-09-15T14:12:06Z</time>
      </trkpt>
      <trkpt lat="43.51706" lon="6.31857">
        <ele>318.1</ele>
        <time>2023-09-15T14:12:07Z</time>
      </trkpt>
      <trkpt lat="43.51706" lon="6.31858">
        <ele>318.1</ele>
        <time>2023-09-15T14:12:08Z</time>
      </trkpt>
      <trkpt lat="43.51706" lon="6.31859">
        <ele>318.1</ele>
        <time>2023-09-15T14:12:09Z</time>
      </trkpt>
      <trkpt lat="43.51705" lon="6.3186">
        <ele>318.1</ele>
        <time>2023-09-15T14:12:10Z</time>
      </trkpt>
      <trkpt lat="43.51705" lon="6.31861">
        <ele>318.1</ele>
        <time>2023-09-15T14:12:11Z</time>
      </trkpt>
      <trkpt lat="43.51704" lon="6.31863">
        <ele>318.1</ele>
        <time>2023-09-15T14:12:12Z</time>
      </trkpt>
      <trkpt lat="43.51704" lon="6.31864">
        <ele>318.1</ele>
        <time>2023-09-15T14:12:13Z</time>
      </trkpt>
      <trkpt lat="43.51704" lon="6.31865">
        <ele>318.3</ele>
        <time>2023-09-15T14:12:14Z</time>
      </trkpt>
      <trkpt lat="43.51704" lon="6.31866">
        <ele>318.4</ele>
        <time>2023-09-15T14:12:15Z</time>
      </trkpt>
      <trkpt lat="43.51703" lon="6.31867">
        <ele>318.5</ele>
        <time>2023-09-15T14:12:16Z</time>
      </trkpt>
      <trkpt lat="43.51703" lon="6.31868">
        <ele>318.6</ele>
        <time>2023-09-15T14:12:17Z</time>
      </trkpt>
      <trkpt lat="43.51702" lon="6.31869">
        <ele>318.7</ele>
        <time>2023-09-15T14:12:18Z</time>
      </trkpt>
      <trkpt lat="43.51702" lon="6.3187">
        <ele>318.7</ele>
        <time>2023-09-15T14:12:19Z</time>
      </trkpt>
      <trkpt lat="43.51701" lon="6.31869">
        <ele>318.8</ele>
        <time>2023-09-15T14:12:20Z</time>
      </trkpt>
      <trkpt lat="43.51701" lon="6.3187">
        <ele>318.8</ele>
        <time>2023-09-15T14:12:21Z</time>
      </trkpt>
      <trkpt lat="43.51701" lon="6.31871">
        <ele>318.9</ele>
        <time>2023-09-15T14:12:22Z</time>
      </trkpt>
      <trkpt lat="43.51701" lon="6.31872">
        <ele>318.9</ele>
        <time>2023-09-15T14:12:23Z</time>
      </trkpt>
      <trkpt lat="43.51701" lon="6.31873">
        <ele>319</ele>
        <time>2023-09-15T14:12:24Z</time>
      </trkpt>
      <trkpt lat="43.517" lon="6.31874">
        <ele>319</ele>
        <time>2023-09-15T14:12:25Z</time>
      </trkpt>
      <trkpt lat="43.517" lon="6.31875">
        <ele>319.1</ele>
        <time>2023-09-15T14:12:26Z</time>
      </trkpt>
      <trkpt lat="43.517" lon="6.31877">
        <ele>319.1</ele>
        <time>2023-09-15T14:12:27Z</time>
      </trkpt>
      <trkpt lat="43.517" lon="6.31877">
        <ele>319.3</ele>
        <time>2023-09-15T14:12:28Z</time>
      </trkpt>
      <trkpt lat="43.517" lon="6.31878">
        <ele>319.5</ele>
        <time>2023-09-15T14:12:29Z</time>
      </trkpt>
      <trkpt lat="43.517" lon="6.31879">
        <ele>319.6</ele>
        <time>2023-09-15T14:12:30Z</time>
      </trkpt>
      <trkpt lat="43.517" lon="6.3188">
        <ele>319.7</ele>
        <time>2023-09-15T14:12:31Z</time>
      </trkpt>
      <trkpt lat="43.517" lon="6.31882">
        <ele>319.8</ele>
        <time>2023-09-15T14:12:32Z</time>
      </trkpt>
      <trkpt lat="43.51701" lon="6.31883">
        <ele>319.9</ele>
        <time>2023-09-15T14:12:33Z</time>
      </trkpt>
      <trkpt lat="43.51701" lon="6.31884">
        <ele>320</ele>
        <time>2023-09-15T14:12:34Z</time>
      </trkpt>
      <trkpt lat="43.51701" lon="6.31885">
        <ele>320.1</ele>
        <time>2023-09-15T14:12:35Z</time>
      </trkpt>
      <trkpt lat="43.51702" lon="6.31887">
        <ele>320.2</ele>
        <time>2023-09-15T14:12:36Z</time>
      </trkpt>
      <trkpt lat="43.51702" lon="6.31887">
        <ele>320.2</ele>
        <time>2023-09-15T14:12:37Z</time>
      </trkpt>
      <trkpt lat="43.51702" lon="6.31888">
        <ele>320.3</ele>
        <time>2023-09-15T14:12:38Z</time>
      </trkpt>
      <trkpt lat="43.51703" lon="6.31889">
        <ele>320.4</ele>
        <time>2023-09-15T14:12:39Z</time>
      </trkpt>
      <trkpt lat="43.51703" lon="6.31889">
        <ele>320.4</ele>
        <time>2023-09-15T14:12:40Z</time>
      </trkpt>
      <trkpt lat="43.51703" lon="6.3189">
        <ele>320.4</ele>
        <time>2023-09-15T14:12:41Z</time>
      </trkpt>
      <trkpt lat="43.51703" lon="6.3189">
        <ele>320.4</ele>
        <time>2023-09-15T14:12:42Z</time>
      </trkpt>
      <trkpt lat="43.51703" lon="6.3189">
        <ele>320.4</ele>
        <time>2023-09-15T14:12:43Z</time>
      </trkpt>
      <trkpt lat="43.51704" lon="6.31891">
        <ele>320.4</ele>
        <time>2023-09-15T14:12:44Z</time>
      </trkpt>
      <trkpt lat="43.51704" lon="6.31891">
        <ele>320.3</ele>
        <time>2023-09-15T14:12:45Z</time>
      </trkpt>
      <trkpt lat="43.51704" lon="6.31891">
        <ele>320.3</ele>
        <time>2023-09-15T14:12:46Z</time>
      </trkpt>
      <trkpt lat="43.51704" lon="6.31892">
        <ele>320.3</ele>
        <time>2023-09-15T14:12:47Z</time>
      </trkpt>
      <trkpt lat="43.51704" lon="6.31892">
        <ele>320.2</ele>
        <time>2023-09-15T14:12:48Z</time>
      </trkpt>
      <trkpt lat="43.51704" lon="6.31892">
        <ele>320.2</ele>
        <time>2023-09-15T14:12:49Z</time>
      </trkpt>
      <trkpt lat="43.51704" lon="6.31892">
        <ele>320.2</ele>
        <time>2023-09-15T14:12:50Z</time>
      </trkpt>
      <trkpt lat="43.51704" lon="6.31893">
        <ele>320.1</ele>
        <time>2023-09-15T14:12:51Z</time>
      </trkpt>
      <trkpt lat="43.51705" lon="6.31893">
        <ele>320</ele>
        <time>2023-09-15T14:12:52Z</time>
      </trkpt>
      <trkpt lat="43.51705" lon="6.31893">
        <ele>320</ele>
        <time>2023-09-15T14:12:53Z</time>
      </trkpt>
      <trkpt lat="43.51705" lon="6.31893">
        <ele>319.9</ele>
        <time>2023-09-15T14:12:54Z</time>
      </trkpt>
      <trkpt lat="43.51704" lon="6.31893">
        <ele>319.8</ele>
        <time>2023-09-15T14:12:55Z</time>
      </trkpt>
      <trkpt lat="43.51705" lon="6.31894">
        <ele>319.8</ele>
        <time>2023-09-15T14:12:56Z</time>
      </trkpt>
      <trkpt lat="43.51705" lon="6.31894">
        <ele>319.7</ele>
        <time>2023-09-15T14:12:57Z</time>
      </trkpt>
      <trkpt lat="43.51705" lon="6.31894">
        <ele>319.7</ele>
        <time>2023-09-15T14:12:58Z</time>
      </trkpt>
      <trkpt lat="43.51705" lon="6.31894">
        <ele>319.6</ele>
        <time>2023-09-15T14:12:59Z</time>
      </trkpt>
      <trkpt lat="43.51705" lon="6.31894">
        <ele>319.6</ele>
        <time>2023-09-15T14:13:00Z</time>
      </trkpt>
      <trkpt lat="43.51705" lon="6.31895">
        <ele>319.5</ele>
        <time>2023-09-15T14:13:01Z</time>
      </trkpt>
      <trkpt lat="43.51705" lon="6.31895">
        <ele>319.5</ele>
        <time>2023-09-15T14:13:02Z</time>
      </trkpt>
      <trkpt lat="43.51705" lon="6.31895">
        <ele>319.6</ele>
        <time>2023-09-15T14:13:03Z</time>
      </trkpt>
      <trkpt lat="43.51706" lon="6.31895">
        <ele>319.7</ele>
        <time>2023-09-15T14:13:04Z</time>
      </trkpt>
      <trkpt lat="43.51706" lon="6.31895">
        <ele>319.7</ele>
        <time>2023-09-15T14:13:05Z</time>
      </trkpt>
      <trkpt lat="43.51706" lon="6.31896">
        <ele>319.7</ele>
        <time>2023-09-15T14:13:06Z</time>
      </trkpt>
      <trkpt lat="43.51706" lon="6.31896">
        <ele>319.7</ele>
        <time>2023-09-15T14:13:07Z</time>
      </trkpt>
      <trkpt lat="43.51706" lon="6.31896">
        <ele>319.7</ele>
        <time>2023-09-15T14:13:08Z</time>
      </trkpt>
      <trkpt lat="43.51707" lon="6.31896">
        <ele>319.7</ele>
        <time>2023-09-15T14:13:09Z</time>
      </trkpt>
      <trkpt lat="43.51707" lon="6.31896">
        <ele>319.7</ele>
        <time>2023-09-15T14:13:10Z</time>
      </trkpt>
      <trkpt lat="43.51707" lon="6.31896">
        <ele>319.7</ele>
        <time>2023-09-15T14:13:11Z</time>
      </trkpt>
      <trkpt lat="43.51707" lon="6.31896">
        <ele>319.7</ele>
        <time>2023-09-15T14:13:12Z</time>
      </trkpt>
      <trkpt lat="43.51707" lon="6.31896">
        <ele>319.7</ele>
        <time>2023-09-15T14:13:13Z</time>
      </trkpt>
      <trkpt lat="43.51707" lon="6.31896">
        <ele>319.7</ele>
        <time>2023-09-15T14:13:14Z</time>
      </trkpt>
      <trkpt lat="43.51707" lon="6.31896">
        <ele>319.7</ele>
        <time>2023-09-15T14:13:15Z</time>
      </trkpt>
      <trkpt lat="43.51707" lon="6.31896">
        <ele>319.7</ele>
        <time>2023-09-15T14:13:16Z</time>
      </trkpt>
      <trkpt lat="43.51706" lon="6.31897">
        <ele>319.7</ele>
        <time>2023-09-15T14:13:17Z</time>
      </trkpt>
      <trkpt lat="43.51705" lon="6.31898">
        <ele>319.7</ele>
        <time>2023-09-15T14:13:18Z</time>
      </trkpt>
      <trkpt lat="43.51705" lon="6.31898">
        <ele>319.8</ele>
        <time>2023-09-15T14:13:19Z</time>
      </trkpt>
      <trkpt lat="43.51706" lon="6.31899">
        <ele>319.9</ele>
        <time>2023-09-15T14:13:20Z</time>
      </trkpt>
      <trkpt lat="43.51705" lon="6.319">
        <ele>319.9</ele>
        <time>2023-09-15T14:13:21Z</time>
      </trkpt>
      <trkpt lat="43.51705" lon="6.31901">
        <ele>320</ele>
        <time>2023-09-15T14:13:22Z</time>
      </trkpt>
      <trkpt lat="43.51705" lon="6.31901">
        <ele>320</ele>
        <time>2023-09-15T14:13:23Z</time>
      </trkpt>
      <trkpt lat="43.51705" lon="6.31902">
        <ele>320.1</ele>
        <time>2023-09-15T14:13:24Z</time>
      </trkpt>
      <trkpt lat="43.51705" lon="6.31903">
        <ele>320.1</ele>
        <time>2023-09-15T14:13:25Z</time>
      </trkpt>
      <trkpt lat="43.51706" lon="6.31903">
        <ele>320.1</ele>
        <time>2023-09-15T14:13:26Z</time>
      </trkpt>
      <trkpt lat="43.51706" lon="6.31903">
        <ele>320.1</ele>
        <time>2023-09-15T14:13:27Z</time>
      </trkpt>
      <trkpt lat="43.51706" lon="6.31903">
        <ele>320.1</ele>
        <time>2023-09-15T14:13:28Z</time>
      </trkpt>
      <trkpt lat="43.51706" lon="6.31904">
        <ele>320.1</ele>
        <time>2023-09-15T14:13:29Z</time>
      </trkpt>
      <trkpt lat="43.51706" lon="6.31904">
        <ele>320.1</ele>
        <time>2023-09-15T14:13:30Z</time>
      </trkpt>
      <trkpt lat="43.51706" lon="6.31904">
        <ele>320.2</ele>
        <time>2023-09-15T14:13:31Z</time>
      </trkpt>
      <trkpt lat="43.51706" lon="6.31904">
        <ele>320.2</ele>
        <time>2023-09-15T14:13:32Z</time>
      </trkpt>
      <trkpt lat="43.51706" lon="6.31904">
        <ele>320.2</ele>
        <time>2023-09-15T14:13:33Z</time>
      </trkpt>
      <trkpt lat="43.51707" lon="6.31905">
        <ele>320.1</ele>
        <time>2023-09-15T14:13:34Z</time>
      </trkpt>
      <trkpt lat="43.51707" lon="6.31905">
        <ele>320.1</ele>
        <time>2023-09-15T14:13:35Z</time>
      </trkpt>
      <trkpt lat="43.51707" lon="6.31905">
        <ele>320.1</ele>
        <time>2023-09-15T14:13:36Z</time>
      </trkpt>
      <trkpt lat="43.51707" lon="6.31905">
        <ele>320.1</ele>
        <time>2023-09-15T14:13:37Z</time>
      </trkpt>
      <trkpt lat="43.51707" lon="6.31905">
        <ele>320.1</ele>
        <time>2023-09-15T14:13:38Z</time>
      </trkpt>
      <trkpt lat="43.51708" lon="6.31906">
        <ele>320.1</ele>
        <time>2023-09-15T14:13:39Z</time>
      </trkpt>
      <trkpt lat="43.51708" lon="6.31906">
        <ele>320</ele>
        <time>2023-09-15T14:13:40Z</time>
      </trkpt>
      <trkpt lat="43.51708" lon="6.31906">
        <ele>320</ele>
        <time>2023-09-15T14:13:41Z</time>
      </trkpt>
      <trkpt lat="43.51708" lon="6.31906">
        <ele>320</ele>
        <time>2023-09-15T14:13:42Z</time>
      </trkpt>
      <trkpt lat="43.51708" lon="6.31905">
        <ele>320.1</ele>
        <time>2023-09-15T14:13:43Z</time>
      </trkpt>
      <trkpt lat="43.51708" lon="6.31905">
        <ele>320.1</ele>
        <time>2023-09-15T14:13:44Z</time>
      </trkpt>
      <trkpt lat="43.51709" lon="6.31905">
        <ele>320.1</ele>
        <time>2023-09-15T14:13:45Z</time>
      </trkpt>
      <trkpt lat="43.51708" lon="6.31905">
        <ele>320.2</ele>
        <time>2023-09-15T14:13:46Z</time>
      </trkpt>
      <trkpt lat="43.51708" lon="6.31905">
        <ele>320.3</ele>
        <time>2023-09-15T14:13:47Z</time>
      </trkpt>
      <trkpt lat="43.51709" lon="6.31905">
        <ele>320.2</ele>
        <time>2023-09-15T14:13:48Z</time>
      </trkpt>
      <trkpt lat="43.51709" lon="6.31905">
        <ele>320.2</ele>
        <time>2023-09-15T14:13:49Z</time>
      </trkpt>
      <trkpt lat="43.51708" lon="6.31906">
        <ele>320.2</ele>
        <time>2023-09-15T14:13:50Z</time>
      </trkpt>
      <trkpt lat="43.51708" lon="6.31906">
        <ele>320.2</ele>
        <time>2023-09-15T14:13:51Z</time>
      </trkpt>
      <trkpt lat="43.51708" lon="6.31906">
        <ele>320.2</ele>
        <time>2023-09-15T14:13:52Z</time>
      </trkpt>
      <trkpt lat="43.51708" lon="6.31906">
        <ele>320.3</ele>
        <time>2023-09-15T14:13:53Z</time>
      </trkpt>
      <trkpt lat="43.51708" lon="6.31906">
        <ele>320.3</ele>
        <time>2023-09-15T14:13:54Z</time>
      </trkpt>
      <trkpt lat="43.51708" lon="6.31906">
        <ele>320.3</ele>
        <time>2023-09-15T14:13:55Z</time>
      </trkpt>
      <trkpt lat="43.51708" lon="6.31906">
        <ele>320.3</ele>
        <time>2023-09-15T14:13:56Z</time>
      </trkpt>
      <trkpt lat="43.51708" lon="6.31906">
        <ele>320.4</ele>
        <time>2023-09-15T14:13:57Z</time>
      </trkpt>
      <trkpt lat="43.51708" lon="6.31906">
        <ele>320.4</ele>
        <time>2023-09-15T14:13:58Z</time>
      </trkpt>
      <trkpt lat="43.51708" lon="6.31906">
        <ele>320.4</ele>
        <time>2023-09-15T14:13:59Z</time>
      </trkpt>
      <trkpt lat="43.51708" lon="6.31906">
        <ele>320.4</ele>
        <time>2023-09-15T14:14:00Z</time>
      </trkpt>
      <trkpt lat="43.51708" lon="6.31906">
        <ele>320.4</ele>
        <time>2023-09-15T14:14:01Z</time>
      </trkpt>
      <trkpt lat="43.51708" lon="6.31906">
        <ele>320.4</ele>
        <time>2023-09-15T14:14:02Z</time>
      </trkpt>
      <trkpt lat="43.51708" lon="6.31906">
        <ele>320.4</ele>
        <time>2023-09-15T14:14:03Z</time>
      </trkpt>
      <trkpt lat="43.51708" lon="6.31906">
        <ele>320.4</ele>
        <time>2023-09-15T14:14:04Z</time>
      </trkpt>
      <trkpt lat="43.51709" lon="6.31906">
        <ele>320.4</ele>
        <time>2023-09-15T14:14:05Z</time>
      </trkpt>
      <trkpt lat="43.51709" lon="6.31906">
        <ele>320.3</ele>
        <time>2023-09-15T14:14:06Z</time>
      </trkpt>
      <trkpt lat="43.51709" lon="6.31905">
        <ele>320.3</ele>
        <time>2023-09-15T14:14:07Z</time>
      </trkpt>
      <trkpt lat="43.5171" lon="6.31904">
        <ele>320.3</ele>
        <time>2023-09-15T14:14:08Z</time>
      </trkpt>
      <trkpt lat="43.5171" lon="6.31904">
        <ele>320.4</ele>
        <time>2023-09-15T14:14:09Z</time>
      </trkpt>
      <trkpt lat="43.5171" lon="6.31904">
        <ele>320.4</ele>
        <time>2023-09-15T14:14:10Z</time>
      </trkpt>
      <trkpt lat="43.5171" lon="6.31904">
        <ele>320.3</ele>
        <time>2023-09-15T14:14:11Z</time>
      </trkpt>
      <trkpt lat="43.5171" lon="6.31904">
        <ele>320.3</ele>
        <time>2023-09-15T14:14:12Z</time>
      </trkpt>
      <trkpt lat="43.5171" lon="6.31904">
        <ele>320.3</ele>
        <time>2023-09-15T14:14:13Z</time>
      </trkpt>
      <trkpt lat="43.5171" lon="6.31904">
        <ele>320.3</ele>
        <time>2023-09-15T14:14:14Z</time>
      </trkpt>
      <trkpt lat="43.5171" lon="6.31904">
        <ele>320.3</ele>
        <time>2023-09-15T14:14:15Z</time>
      </trkpt>
      <trkpt lat="43.51709" lon="6.31904">
        <ele>320.3</ele>
        <time>2023-09-15T14:14:16Z</time>
      </trkpt>
      <trkpt lat="43.51709" lon="6.31904">
        <ele>320.3</ele>
        <time>2023-09-15T14:14:17Z</time>
      </trkpt>
      <trkpt lat="43.51709" lon="6.31904">
        <ele>320.3</ele>
        <time>2023-09-15T14:14:18Z</time>
      </trkpt>
      <trkpt lat="43.51709" lon="6.31904">
        <ele>320.3</ele>
        <time>2023-09-15T14:14:19Z</time>
      </trkpt>
      <trkpt lat="43.51709" lon="6.31904">
        <ele>320.3</ele>
        <time>2023-09-15T14:14:20Z</time>
      </trkpt>
      <trkpt lat="43.51709" lon="6.31904">
        <ele>320.3</ele>
        <time>2023-09-15T14:14:21Z</time>
      </trkpt>
      <trkpt lat="43.51709" lon="6.31904">
        <ele>320.3</ele>
        <time>2023-09-15T14:14:22Z</time>
      </trkpt>
      <trkpt lat="43.51709" lon="6.31904">
        <ele>320.3</ele>
        <time>2023-09-15T14:14:23Z</time>
      </trkpt>
      <trkpt lat="43.51709" lon="6.31904">
        <ele>320.3</ele>
        <time>2023-09-15T14:14:24Z</time>
      </trkpt>
      <trkpt lat="43.51709" lon="6.31904">
        <ele>320.3</ele>
        <time>2023-09-15T14:14:25Z</time>
      </trkpt>
      <trkpt lat="43.51709" lon="6.31904">
        <ele>320.3</ele>
        <time>2023-09-15T14:14:26Z</time>
      </trkpt>
      <trkpt lat="43.51709" lon="6.31904">
        <ele>320.3</ele>
        <time>2023-09-15T14:14:27Z</time>
      </trkpt>
      <trkpt lat="43.51709" lon="6.31904">
        <ele>320.2</ele>
        <time>2023-09-15T14:14:28Z</time>
      </trkpt>
      <trkpt lat="43.51709" lon="6.31904">
        <ele>320.2</ele>
        <time>2023-09-15T14:14:29Z</time>
      </trkpt>
      <trkpt lat="43.51709" lon="6.31904">
        <ele>320.2</ele>
        <time>2023-09-15T14:14:30Z</time>
      </trkpt>
      <trkpt lat="43.51709" lon="6.31903">
        <ele>320.2</ele>
        <time>2023-09-15T14:14:31Z</time>
      </trkpt>
      <trkpt lat="43.51709" lon="6.31903">
        <ele>320.3</ele>
        <time>2023-09-15T14:14:32Z</time>
      </trkpt>
      <trkpt lat="43.51709" lon="6.31903">
        <ele>320.4</ele>
        <time>2023-09-15T14:14:33Z</time>
      </trkpt>
      <trkpt lat="43.51709" lon="6.31903">
        <ele>320.4</ele>
        <time>2023-09-15T14:14:34Z</time>
      </trkpt>
      <trkpt lat="43.5171" lon="6.31903">
        <ele>320.4</ele>
        <time>2023-09-15T14:14:35Z</time>
      </trkpt>
      <trkpt lat="43.5171" lon="6.31903">
        <ele>320.5</ele>
        <time>2023-09-15T14:14:36Z</time>
      </trkpt>
      <trkpt lat="43.5171" lon="6.31903">
        <ele>320.5</ele>
        <time>2023-09-15T14:14:37Z</time>
      </trkpt>
      <trkpt lat="43.5171" lon="6.31903">
        <ele>320.5</ele>
        <time>2023-09-15T14:14:38Z</time>
      </trkpt>
      <trkpt lat="43.5171" lon="6.31903">
        <ele>320.6</ele>
        <time>2023-09-15T14:14:39Z</time>
      </trkpt>
      <trkpt lat="43.5171" lon="6.31903">
        <ele>320.7</ele>
        <time>2023-09-15T14:14:40Z</time>
      </trkpt>
      <trkpt lat="43.51709" lon="6.31903">
        <ele>320.7</ele>
        <time>2023-09-15T14:14:41Z</time>
      </trkpt>
      <trkpt lat="43.51709" lon="6.31903">
        <ele>320.7</ele>
        <time>2023-09-15T14:14:42Z</time>
      </trkpt>
      <trkpt lat="43.51709" lon="6.31902">
        <ele>320.8</ele>
        <time>2023-09-15T14:14:43Z</time>
      </trkpt>
      <trkpt lat="43.51709" lon="6.31902">
        <ele>320.8</ele>
        <time>2023-09-15T14:14:44Z</time>
      </trkpt>
      <trkpt lat="43.51709" lon="6.31902">
        <ele>320.8</ele>
        <time>2023-09-15T14:14:45Z</time>
      </trkpt>
      <trkpt lat="43.51709" lon="6.31902">
        <ele>320.8</ele>
        <time>2023-09-15T14:14:46Z</time>
      </trkpt>
      <trkpt lat="43.51709" lon="6.31902">
        <ele>320.9</ele>
        <time>2023-09-15T14:14:47Z</time>
      </trkpt>
      <trkpt lat="43.5171" lon="6.31902">
        <ele>320.9</ele>
        <time>2023-09-15T14:14:48Z</time>
      </trkpt>
      <trkpt lat="43.51709" lon="6.31902">
        <ele>320.8</ele>
        <time>2023-09-15T14:14:49Z</time>
      </trkpt>
      <trkpt lat="43.51709" lon="6.31902">
        <ele>320.8</ele>
        <time>2023-09-15T14:14:50Z</time>
      </trkpt>
      <trkpt lat="43.5171" lon="6.31902">
        <ele>320.8</ele>
        <time>2023-09-15T14:14:51Z</time>
      </trkpt>
      <trkpt lat="43.5171" lon="6.31902">
        <ele>320.8</ele>
        <time>2023-09-15T14:14:52Z</time>
      </trkpt>
      <trkpt lat="43.5171" lon="6.31902">
        <ele>320.8</ele>
        <time>2023-09-15T14:14:53Z</time>
      </trkpt>
      <trkpt lat="43.5171" lon="6.31903">
        <ele>320.8</ele>
        <time>2023-09-15T14:14:54Z</time>
      </trkpt>
      <trkpt lat="43.5171" lon="6.31902">
        <ele>320.8</ele>
        <time>2023-09-15T14:14:55Z</time>
      </trkpt>
      <trkpt lat="43.51709" lon="6.31902">
        <ele>320.8</ele>
        <time>2023-09-15T14:14:56Z</time>
      </trkpt>
      <trkpt lat="43.51709" lon="6.31902">
        <ele>320.8</ele>
        <time>2023-09-15T14:14:57Z</time>
      </trkpt>
      <trkpt lat="43.51709" lon="6.31902">
        <ele>320.8</ele>
        <time>2023-09-15T14:14:58Z</time>
      </trkpt>
      <trkpt lat="43.51709" lon="6.31902">
        <ele>320.8</ele>
        <time>2023-09-15T14:14:59Z</time>
      </trkpt>
      <trkpt lat="43.51709" lon="6.31901">
        <ele>320.7</ele>
        <time>2023-09-15T14:15:00Z</time>
      </trkpt>
      <trkpt lat="43.51709" lon="6.31901">
        <ele>320.9</ele>
        <time>2023-09-15T14:15:01Z</time>
      </trkpt>
      <trkpt lat="43.51709" lon="6.31902">
        <ele>320.9</ele>
        <time>2023-09-15T14:15:02Z</time>
      </trkpt>
      <trkpt lat="43.51709" lon="6.31902">
        <ele>320.8</ele>
        <time>2023-09-15T14:15:03Z</time>
      </trkpt>
      <trkpt lat="43.51709" lon="6.31902">
        <ele>320.8</ele>
        <time>2023-09-15T14:15:04Z</time>
      </trkpt>
      <trkpt lat="43.5171" lon="6.31902">
        <ele>320.8</ele>
        <time>2023-09-15T14:15:05Z</time>
      </trkpt>
      <trkpt lat="43.5171" lon="6.31901">
        <ele>320.7</ele>
        <time>2023-09-15T14:15:06Z</time>
      </trkpt>
      <trkpt lat="43.5171" lon="6.31902">
        <ele>320.6</ele>
        <time>2023-09-15T14:15:07Z</time>
      </trkpt>
      <trkpt lat="43.5171" lon="6.31902">
        <ele>320.5</ele>
        <time>2023-09-15T14:15:08Z</time>
      </trkpt>
      <trkpt lat="43.5171" lon="6.31902">
        <ele>320.4</ele>
        <time>2023-09-15T14:15:09Z</time>
      </trkpt>
      <trkpt lat="43.5171" lon="6.31902">
        <ele>320.4</ele>
        <time>2023-09-15T14:15:10Z</time>
      </trkpt>
      <trkpt lat="43.5171" lon="6.31901">
        <ele>320.4</ele>
        <time>2023-09-15T14:15:11Z</time>
      </trkpt>
      <trkpt lat="43.5171" lon="6.31901">
        <ele>320.4</ele>
        <time>2023-09-15T14:15:12Z</time>
      </trkpt>
      <trkpt lat="43.5171" lon="6.31901">
        <ele>320.4</ele>
        <time>2023-09-15T14:15:13Z</time>
      </trkpt>
      <trkpt lat="43.5171" lon="6.31901">
        <ele>320.3</ele>
        <time>2023-09-15T14:15:14Z</time>
      </trkpt>
      <trkpt lat="43.5171" lon="6.31901">
        <ele>320.2</ele>
        <time>2023-09-15T14:15:15Z</time>
      </trkpt>
      <trkpt lat="43.51711" lon="6.31901">
        <ele>320.2</ele>
        <time>2023-09-15T14:15:16Z</time>
      </trkpt>
      <trkpt lat="43.51711" lon="6.31901">
        <ele>320.2</ele>
        <time>2023-09-15T14:15:17Z</time>
      </trkpt>
      <trkpt lat="43.51711" lon="6.31901">
        <ele>320.3</ele>
        <time>2023-09-15T14:15:18Z</time>
      </trkpt>
      <trkpt lat="43.51711" lon="6.31901">
        <ele>320.3</ele>
        <time>2023-09-15T14:15:19Z</time>
      </trkpt>
      <trkpt lat="43.51711" lon="6.31901">
        <ele>320.3</ele>
        <time>2023-09-15T14:15:20Z</time>
      </trkpt>
      <trkpt lat="43.51711" lon="6.31901">
        <ele>320.2</ele>
        <time>2023-09-15T14:15:21Z</time>
      </trkpt>
      <trkpt lat="43.51711" lon="6.31901">
        <ele>320.2</ele>
        <time>2023-09-15T14:15:22Z</time>
      </trkpt>
      <trkpt lat="43.51711" lon="6.31901">
        <ele>320.2</ele>
        <time>2023-09-15T14:15:23Z</time>
      </trkpt>
      <trkpt lat="43.51711" lon="6.31901">
        <ele>320.2</ele>
        <time>2023-09-15T14:15:24Z</time>
      </trkpt>
      <trkpt lat="43.51711" lon="6.31901">
        <ele>320.2</ele>
        <time>2023-09-15T14:15:25Z</time>
      </trkpt>
      <trkpt lat="43.51711" lon="6.31901">
        <ele>320.2</ele>
        <time>2023-09-15T14:15:26Z</time>
      </trkpt>
      <trkpt lat="43.51711" lon="6.31902">
        <ele>320.2</ele>
        <time>2023-09-15T14:15:27Z</time>
      </trkpt>
      <trkpt lat="43.51711" lon="6.31902">
        <ele>320.3</ele>
        <time>2023-09-15T14:15:28Z</time>
      </trkpt>
      <trkpt lat="43.51711" lon="6.31902">
        <ele>320.4</ele>
        <time>2023-09-15T14:15:29Z</time>
      </trkpt>
      <trkpt lat="43.51711" lon="6.31902">
        <ele>320.5</ele>
        <time>2023-09-15T14:15:30Z</time>
      </trkpt>
      <trkpt lat="43.51711" lon="6.31902">
        <ele>320.6</ele>
        <time>2023-09-15T14:15:31Z</time>
      </trkpt>
      <trkpt lat="43.51711" lon="6.31902">
        <ele>320.7</ele>
        <time>2023-09-15T14:15:32Z</time>
      </trkpt>
      <trkpt lat="43.51711" lon="6.31901">
        <ele>320.6</ele>
        <time>2023-09-15T14:15:33Z</time>
      </trkpt>
      <trkpt lat="43.51711" lon="6.31901">
        <ele>320.6</ele>
        <time>2023-09-15T14:15:34Z</time>
      </trkpt>
      <trkpt lat="43.51711" lon="6.31901">
        <ele>320.6</ele>
        <time>2023-09-15T14:15:35Z</time>
      </trkpt>
      <trkpt lat="43.51711" lon="6.31901">
        <ele>320.6</ele>
        <time>2023-09-15T14:15:36Z</time>
      </trkpt>
      <trkpt lat="43.51711" lon="6.31902">
        <ele>320.6</ele>
        <time>2023-09-15T14:15:37Z</time>
      </trkpt>
      <trkpt lat="43.51711" lon="6.31902">
        <ele>320.6</ele>
        <time>2023-09-15T14:15:38Z</time>
      </trkpt>
      <trkpt lat="43.51711" lon="6.31902">
        <ele>320.6</ele>
        <time>2023-09-15T14:15:39Z</time>
      </trkpt>
      <trkpt lat="43.51711" lon="6.31901">
        <ele>320.6</ele>
        <time>2023-09-15T14:15:40Z</time>
      </trkpt>
      <trkpt lat="43.51711" lon="6.31901">
        <ele>320.7</ele>
        <time>2023-09-15T14:15:41Z</time>
      </trkpt>
      <trkpt lat="43.51711" lon="6.31902">
        <ele>320.7</ele>
        <time>2023-09-15T14:15:42Z</time>
      </trkpt>
      <trkpt lat="43.51711" lon="6.31902">
        <ele>320.7</ele>
        <time>2023-09-15T14:15:43Z</time>
      </trkpt>
      <trkpt lat="43.51711" lon="6.31902">
        <ele>320.7</ele>
        <time>2023-09-15T14:15:44Z</time>
      </trkpt>
      <trkpt lat="43.51711" lon="6.31902">
        <ele>320.7</ele>
        <time>2023-09-15T14:15:45Z</time>
      </trkpt>
      <trkpt lat="43.51711" lon="6.31902">
        <ele>320.7</ele>
        <time>2023-09-15T14:15:46Z</time>
      </trkpt>
      <trkpt lat="43.51711" lon="6.31902">
        <ele>320.7</ele>
        <time>2023-09-15T14:15:47Z</time>
      </trkpt>
      <trkpt lat="43.51711" lon="6.31902">
        <ele>320.7</ele>
        <time>2023-09-15T14:15:48Z</time>
      </trkpt>
      <trkpt lat="43.51711" lon="6.31902">
        <ele>320.7</ele>
        <time>2023-09-15T14:15:49Z</time>
      </trkpt>
      <trkpt lat="43.51711" lon="6.31902">
        <ele>320.7</ele>
        <time>2023-09-15T14:15:50Z</time>
      </trkpt>
      <trkpt lat="43.51712" lon="6.31902">
        <ele>320.6</ele>
        <time>2023-09-15T14:15:51Z</time>
      </trkpt>
      <trkpt lat="43.51712" lon="6.31902">
        <ele>320.6</ele>
        <time>2023-09-15T14:15:52Z</time>
      </trkpt>
      <trkpt lat="43.51712" lon="6.31902">
        <ele>320.5</ele>
        <time>2023-09-15T14:15:53Z</time>
      </trkpt>
      <trkpt lat="43.51712" lon="6.31902">
        <ele>320.5</ele>
        <time>2023-09-15T14:15:54Z</time>
      </trkpt>
      <trkpt lat="43.51712" lon="6.31902">
        <ele>320.5</ele>
        <time>2023-09-15T14:15:55Z</time>
      </trkpt>
      <trkpt lat="43.51712" lon="6.31902">
        <ele>320.7</ele>
        <time>2023-09-15T14:15:56Z</time>
      </trkpt>
      <trkpt lat="43.51712" lon="6.31902">
        <ele>320.6</ele>
        <time>2023-09-15T14:15:57Z</time>
      </trkpt>
      <trkpt lat="43.51712" lon="6.31902">
        <ele>320.6</ele>
        <time>2023-09-15T14:15:58Z</time>
      </trkpt>
      <trkpt lat="43.51712" lon="6.31902">
        <ele>320.6</ele>
        <time>2023-09-15T14:15:59Z</time>
      </trkpt>
      <trkpt lat="43.51712" lon="6.31902">
        <ele>320.6</ele>
        <time>2023-09-15T14:16:00Z</time>
      </trkpt>
      <trkpt lat="43.51712" lon="6.31902">
        <ele>320.6</ele>
        <time>2023-09-15T14:16:01Z</time>
      </trkpt>
      <trkpt lat="43.51712" lon="6.31902">
        <ele>320.6</ele>
        <time>2023-09-15T14:16:02Z</time>
      </trkpt>
      <trkpt lat="43.51712" lon="6.31902">
        <ele>320.5</ele>
        <time>2023-09-15T14:16:03Z</time>
      </trkpt>
      <trkpt lat="43.51712" lon="6.31902">
        <ele>320.5</ele>
        <time>2023-09-15T14:16:04Z</time>
      </trkpt>
      <trkpt lat="43.51712" lon="6.31902">
        <ele>320.5</ele>
        <time>2023-09-15T14:16:05Z</time>
      </trkpt>
      <trkpt lat="43.51712" lon="6.31902">
        <ele>320.5</ele>
        <time>2023-09-15T14:16:06Z</time>
      </trkpt>
      <trkpt lat="43.51712" lon="6.31902">
        <ele>320.6</ele>
        <time>2023-09-15T14:16:07Z</time>
      </trkpt>
      <trkpt lat="43.51712" lon="6.31901">
        <ele>320.6</ele>
        <time>2023-09-15T14:16:08Z</time>
      </trkpt>
      <trkpt lat="43.51712" lon="6.31901">
        <ele>320.6</ele>
        <time>2023-09-15T14:16:09Z</time>
      </trkpt>
      <trkpt lat="43.51712" lon="6.31901">
        <ele>320.6</ele>
        <time>2023-09-15T14:16:10Z</time>
      </trkpt>
      <trkpt lat="43.51712" lon="6.31901">
        <ele>320.6</ele>
        <time>2023-09-15T14:16:11Z</time>
      </trkpt>
      <trkpt lat="43.51712" lon="6.31901">
        <ele>320.6</ele>
        <time>2023-09-15T14:16:12Z</time>
      </trkpt>
      <trkpt lat="43.51712" lon="6.31901">
        <ele>320.6</ele>
        <time>2023-09-15T14:16:13Z</time>
      </trkpt>
      <trkpt lat="43.51712" lon="6.31901">
        <ele>320.6</ele>
        <time>2023-09-15T14:16:14Z</time>
      </trkpt>
      <trkpt lat="43.51711" lon="6.31901">
        <ele>320.7</ele>
        <time>2023-09-15T14:16:15Z</time>
      </trkpt>
      <trkpt lat="43.51711" lon="6.31901">
        <ele>320.7</ele>
        <time>2023-09-15T14:16:16Z</time>
      </trkpt>
      <trkpt lat="43.51711" lon="6.31901">
        <ele>320.6</ele>
        <time>2023-09-15T14:16:17Z</time>
      </trkpt>
      <trkpt lat="43.51711" lon="6.31901">
        <ele>320.5</ele>
        <time>2023-09-15T14:16:18Z</time>
      </trkpt>
      <trkpt lat="43.51711" lon="6.31901">
        <ele>320.5</ele>
        <time>2023-09-15T14:16:19Z</time>
      </trkpt>
      <trkpt lat="43.51711" lon="6.319">
        <ele>320.5</ele>
        <time>2023-09-15T14:16:20Z</time>
      </trkpt>
      <trkpt lat="43.51711" lon="6.31901">
        <ele>320.5</ele>
        <time>2023-09-15T14:16:21Z</time>
      </trkpt>
      <trkpt lat="43.51711" lon="6.31901">
        <ele>320.5</ele>
        <time>2023-09-15T14:16:22Z</time>
      </trkpt>
      <trkpt lat="43.51711" lon="6.31901">
        <ele>320.5</ele>
        <time>2023-09-15T14:16:23Z</time>
      </trkpt>
      <trkpt lat="43.51711" lon="6.31901">
        <ele>320.5</ele>
        <time>2023-09-15T14:16:24Z</time>
      </trkpt>
      <trkpt lat="43.51711" lon="6.31901">
        <ele>320.6</ele>
        <time>2023-09-15T14:16:25Z</time>
      </trkpt>
      <trkpt lat="43.51711" lon="6.31901">
        <ele>320.6</ele>
        <time>2023-09-15T14:16:26Z</time>
      </trkpt>
      <trkpt lat="43.5171" lon="6.31901">
        <ele>320.6</ele>
        <time>2023-09-15T14:16:27Z</time>
      </trkpt>
      <trkpt lat="43.5171" lon="6.31901">
        <ele>320.7</ele>
        <time>2023-09-15T14:16:28Z</time>
      </trkpt>
      <trkpt lat="43.5171" lon="6.31902">
        <ele>320.7</ele>
        <time>2023-09-15T14:16:29Z</time>
      </trkpt>
      <trkpt lat="43.5171" lon="6.31902">
        <ele>320.8</ele>
        <time>2023-09-15T14:16:30Z</time>
      </trkpt>
      <trkpt lat="43.5171" lon="6.31902">
        <ele>320.8</ele>
        <time>2023-09-15T14:16:31Z</time>
      </trkpt>
      <trkpt lat="43.5171" lon="6.31902">
        <ele>320.7</ele>
        <time>2023-09-15T14:16:32Z</time>
      </trkpt>
      <trkpt lat="43.5171" lon="6.31903">
        <ele>320.7</ele>
        <time>2023-09-15T14:16:33Z</time>
      </trkpt>
      <trkpt lat="43.5171" lon="6.31903">
        <ele>320.8</ele>
        <time>2023-09-15T14:16:34Z</time>
      </trkpt>
      <trkpt lat="43.5171" lon="6.31903">
        <ele>320.8</ele>
        <time>2023-09-15T14:16:35Z</time>
      </trkpt>
      <trkpt lat="43.51711" lon="6.31903">
        <ele>320.8</ele>
        <time>2023-09-15T14:16:36Z</time>
      </trkpt>
      <trkpt lat="43.51711" lon="6.31903">
        <ele>320.8</ele>
        <time>2023-09-15T14:16:37Z</time>
      </trkpt>
      <trkpt lat="43.51711" lon="6.31903">
        <ele>320.7</ele>
        <time>2023-09-15T14:16:38Z</time>
      </trkpt>
      <trkpt lat="43.51712" lon="6.31903">
        <ele>320.7</ele>
        <time>2023-09-15T14:16:39Z</time>
      </trkpt>
      <trkpt lat="43.51712" lon="6.31903">
        <ele>320.7</ele>
        <time>2023-09-15T14:16:40Z</time>
      </trkpt>
      <trkpt lat="43.51711" lon="6.31903">
        <ele>320.6</ele>
        <time>2023-09-15T14:16:41Z</time>
      </trkpt>
      <trkpt lat="43.51712" lon="6.31903">
        <ele>320.6</ele>
        <time>2023-09-15T14:16:42Z</time>
      </trkpt>
      <trkpt lat="43.51712" lon="6.31903">
        <ele>320.6</ele>
        <time>2023-09-15T14:16:43Z</time>
      </trkpt>
      <trkpt lat="43.51712" lon="6.31903">
        <ele>320.6</ele>
        <time>2023-09-15T14:16:44Z</time>
      </trkpt>
      <trkpt lat="43.51712" lon="6.31903">
        <ele>320.6</ele>
        <time>2023-09-15T14:16:45Z</time>
      </trkpt>
      <trkpt lat="43.51712" lon="6.31903">
        <ele>320.6</ele>
        <time>2023-09-15T14:16:46Z</time>
      </trkpt>
      <trkpt lat="43.51712" lon="6.31903">
        <ele>320.6</ele>
        <time>2023-09-15T14:16:47Z</time>
      </trkpt>
      <trkpt lat="43.51712" lon="6.31903">
        <ele>320.6</ele>
        <time>2023-09-15T14:16:48Z</time>
      </trkpt>
      <trkpt lat="43.51712" lon="6.31904">
        <ele>320.6</ele>
        <time>2023-09-15T14:16:49Z</time>
      </trkpt>
      <trkpt lat="43.51711" lon="6.31904">
        <ele>320.8</ele>
        <time>2023-09-15T14:16:50Z</time>
      </trkpt>
      <trkpt lat="43.51712" lon="6.31903">
        <ele>320.8</ele>
        <time>2023-09-15T14:16:51Z</time>
      </trkpt>
      <trkpt lat="43.51711" lon="6.31903">
        <ele>320.8</ele>
        <time>2023-09-15T14:16:52Z</time>
      </trkpt>
      <trkpt lat="43.51711" lon="6.31903">
        <ele>320.7</ele>
        <time>2023-09-15T14:16:53Z</time>
      </trkpt>
      <trkpt lat="43.51711" lon="6.31903">
        <ele>320.7</ele>
        <time>2023-09-15T14:16:54Z</time>
      </trkpt>
      <trkpt lat="43.51711" lon="6.31903">
        <ele>320.6</ele>
        <time>2023-09-15T14:16:55Z</time>
      </trkpt>
      <trkpt lat="43.51711" lon="6.31903">
        <ele>320.6</ele>
        <time>2023-09-15T14:16:56Z</time>
      </trkpt>
      <trkpt lat="43.51711" lon="6.31902">
        <ele>320.6</ele>
        <time>2023-09-15T14:16:57Z</time>
      </trkpt>
      <trkpt lat="43.51711" lon="6.31902">
        <ele>320.5</ele>
        <time>2023-09-15T14:16:58Z</time>
      </trkpt>
      <trkpt lat="43.51712" lon="6.31902">
        <ele>320.5</ele>
        <time>2023-09-15T14:16:59Z</time>
      </trkpt>
      <trkpt lat="43.51712" lon="6.31902">
        <ele>320.5</ele>
        <time>2023-09-15T14:17:00Z</time>
      </trkpt>
      <trkpt lat="43.51712" lon="6.31902">
        <ele>320.5</ele>
        <time>2023-09-15T14:17:01Z</time>
      </trkpt>
      <trkpt lat="43.51712" lon="6.31901">
        <ele>320.6</ele>
        <time>2023-09-15T14:17:02Z</time>
      </trkpt>
      <trkpt lat="43.51712" lon="6.31902">
        <ele>320.6</ele>
        <time>2023-09-15T14:17:03Z</time>
      </trkpt>
      <trkpt lat="43.51712" lon="6.31902">
        <ele>320.6</ele>
        <time>2023-09-15T14:17:04Z</time>
      </trkpt>
      <trkpt lat="43.51712" lon="6.31902">
        <ele>320.6</ele>
        <time>2023-09-15T14:17:05Z</time>
      </trkpt>
      <trkpt lat="43.51711" lon="6.31901">
        <ele>320.7</ele>
        <time>2023-09-15T14:17:06Z</time>
      </trkpt>
      <trkpt lat="43.51711" lon="6.31901">
        <ele>320.8</ele>
        <time>2023-09-15T14:17:07Z</time>
      </trkpt>
      <trkpt lat="43.51712" lon="6.31901">
        <ele>320.7</ele>
        <time>2023-09-15T14:17:08Z</time>
      </trkpt>
      <trkpt lat="43.51712" lon="6.31901">
        <ele>320.7</ele>
        <time>2023-09-15T14:17:09Z</time>
      </trkpt>
      <trkpt lat="43.51712" lon="6.31901">
        <ele>320.7</ele>
        <time>2023-09-15T14:17:10Z</time>
      </trkpt>
      <trkpt lat="43.51712" lon="6.31901">
        <ele>320.8</ele>
        <time>2023-09-15T14:17:11Z</time>
      </trkpt>
      <trkpt lat="43.51711" lon="6.31901">
        <ele>320.8</ele>
        <time>2023-09-15T14:17:12Z</time>
      </trkpt>
      <trkpt lat="43.51711" lon="6.31901">
        <ele>320.8</ele>
        <time>2023-09-15T14:17:13Z</time>
      </trkpt>
      <trkpt lat="43.51711" lon="6.31901">
        <ele>320.8</ele>
        <time>2023-09-15T14:17:14Z</time>
      </trkpt>
      <trkpt lat="43.5171" lon="6.31901">
        <ele>320.9</ele>
        <time>2023-09-15T14:17:15Z</time>
      </trkpt>
      <trkpt lat="43.5171" lon="6.31901">
        <ele>320.9</ele>
        <time>2023-09-15T14:17:16Z</time>
      </trkpt>
      <trkpt lat="43.5171" lon="6.31901">
        <ele>320.9</ele>
        <time>2023-09-15T14:17:17Z</time>
      </trkpt>
      <trkpt lat="43.5171" lon="6.31901">
        <ele>320.9</ele>
        <time>2023-09-15T14:17:18Z</time>
      </trkpt>
      <trkpt lat="43.51709" lon="6.31901">
        <ele>320.9</ele>
        <time>2023-09-15T14:17:19Z</time>
      </trkpt>
      <trkpt lat="43.51708" lon="6.319">
        <ele>320.9</ele>
        <time>2023-09-15T14:17:20Z</time>
      </trkpt>
      <trkpt lat="43.51708" lon="6.319">
        <ele>320.9</ele>
        <time>2023-09-15T14:17:21Z</time>
      </trkpt>
      <trkpt lat="43.51709" lon="6.319">
        <ele>320.9</ele>
        <time>2023-09-15T14:17:22Z</time>
      </trkpt>
      <trkpt lat="43.51709" lon="6.319">
        <ele>320.9</ele>
        <time>2023-09-15T14:17:23Z</time>
      </trkpt>
      <trkpt lat="43.51708" lon="6.319">
        <ele>320.9</ele>
        <time>2023-09-15T14:17:24Z</time>
      </trkpt>
      <trkpt lat="43.51708" lon="6.319">
        <ele>320.9</ele>
        <time>2023-09-15T14:17:25Z</time>
      </trkpt>
      <trkpt lat="43.51708" lon="6.319">
        <ele>320.9</ele>
        <time>2023-09-15T14:17:26Z</time>
      </trkpt>
      <trkpt lat="43.51707" lon="6.319">
        <ele>320.9</ele>
        <time>2023-09-15T14:17:27Z</time>
      </trkpt>
      <trkpt lat="43.51707" lon="6.319">
        <ele>321</ele>
        <time>2023-09-15T14:17:28Z</time>
      </trkpt>
      <trkpt lat="43.51707" lon="6.319">
        <ele>320.9</ele>
        <time>2023-09-15T14:17:29Z</time>
      </trkpt>
      <trkpt lat="43.51707" lon="6.319">
        <ele>320.9</ele>
        <time>2023-09-15T14:17:30Z</time>
      </trkpt>
      <trkpt lat="43.51707" lon="6.31901">
        <ele>320.9</ele>
        <time>2023-09-15T14:17:31Z</time>
      </trkpt>
      <trkpt lat="43.51706" lon="6.31901">
        <ele>320.9</ele>
        <time>2023-09-15T14:17:32Z</time>
      </trkpt>
      <trkpt lat="43.51706" lon="6.31901">
        <ele>320.8</ele>
        <time>2023-09-15T14:17:33Z</time>
      </trkpt>
      <trkpt lat="43.51706" lon="6.31901">
        <ele>320.8</ele>
        <time>2023-09-15T14:17:34Z</time>
      </trkpt>
      <trkpt lat="43.51706" lon="6.31901">
        <ele>320.8</ele>
        <time>2023-09-15T14:17:35Z</time>
      </trkpt>
      <trkpt lat="43.51706" lon="6.31901">
        <ele>320.7</ele>
        <time>2023-09-15T14:17:36Z</time>
      </trkpt>
      <trkpt lat="43.51706" lon="6.31901">
        <ele>320.8</ele>
        <time>2023-09-15T14:17:37Z</time>
      </trkpt>
      <trkpt lat="43.51705" lon="6.31901">
        <ele>320.8</ele>
        <time>2023-09-15T14:17:38Z</time>
      </trkpt>
      <trkpt lat="43.51705" lon="6.31901">
        <ele>320.9</ele>
        <time>2023-09-15T14:17:39Z</time>
      </trkpt>
      <trkpt lat="43.51704" lon="6.31901">
        <ele>320.8</ele>
        <time>2023-09-15T14:17:40Z</time>
      </trkpt>
      <trkpt lat="43.51704" lon="6.31901">
        <ele>320.8</ele>
        <time>2023-09-15T14:17:41Z</time>
      </trkpt>
      <trkpt lat="43.51704" lon="6.31901">
        <ele>320.9</ele>
        <time>2023-09-15T14:17:42Z</time>
      </trkpt>
      <trkpt lat="43.51704" lon="6.31901">
        <ele>320.8</ele>
        <time>2023-09-15T14:17:43Z</time>
      </trkpt>
      <trkpt lat="43.51703" lon="6.31901">
        <ele>320.8</ele>
        <time>2023-09-15T14:17:44Z</time>
      </trkpt>
      <trkpt lat="43.51703" lon="6.31901">
        <ele>320.8</ele>
        <time>2023-09-15T14:17:45Z</time>
      </trkpt>
      <trkpt lat="43.51703" lon="6.31901">
        <ele>320.8</ele>
        <time>2023-09-15T14:17:46Z</time>
      </trkpt>
      <trkpt lat="43.51703" lon="6.31901">
        <ele>320.9</ele>
        <time>2023-09-15T14:17:47Z</time>
      </trkpt>
      <trkpt lat="43.51702" lon="6.31901">
        <ele>320.8</ele>
        <time>2023-09-15T14:17:48Z</time>
      </trkpt>
      <trkpt lat="43.51702" lon="6.31901">
        <ele>320.9</ele>
        <time>2023-09-15T14:17:49Z</time>
      </trkpt>
      <trkpt lat="43.51702" lon="6.31901">
        <ele>321</ele>
        <time>2023-09-15T14:17:50Z</time>
      </trkpt>
      <trkpt lat="43.51702" lon="6.31901">
        <ele>321</ele>
        <time>2023-09-15T14:17:51Z</time>
      </trkpt>
      <trkpt lat="43.51701" lon="6.31901">
        <ele>320.9</ele>
        <time>2023-09-15T14:17:52Z</time>
      </trkpt>
      <trkpt lat="43.51701" lon="6.31902">
        <ele>320.9</ele>
        <time>2023-09-15T14:17:53Z</time>
      </trkpt>
      <trkpt lat="43.51701" lon="6.31902">
        <ele>320.9</ele>
        <time>2023-09-15T14:17:54Z</time>
      </trkpt>
      <trkpt lat="43.51701" lon="6.31902">
        <ele>320.9</ele>
        <time>2023-09-15T14:17:55Z</time>
      </trkpt>
      <trkpt lat="43.517" lon="6.31903">
        <ele>320.8</ele>
        <time>2023-09-15T14:17:56Z</time>
      </trkpt>
      <trkpt lat="43.517" lon="6.31903">
        <ele>320.7</ele>
        <time>2023-09-15T14:17:57Z</time>
      </trkpt>
      <trkpt lat="43.517" lon="6.31903">
        <ele>320.7</ele>
        <time>2023-09-15T14:17:58Z</time>
      </trkpt>
      <trkpt lat="43.517" lon="6.31903">
        <ele>320.6</ele>
        <time>2023-09-15T14:17:59Z</time>
      </trkpt>
      <trkpt lat="43.51699" lon="6.31902">
        <ele>320.7</ele>
        <time>2023-09-15T14:18:00Z</time>
      </trkpt>
      <trkpt lat="43.51699" lon="6.31902">
        <ele>320.6</ele>
        <time>2023-09-15T14:18:01Z</time>
      </trkpt>
      <trkpt lat="43.517" lon="6.31902">
        <ele>320.6</ele>
        <time>2023-09-15T14:18:02Z</time>
      </trkpt>
      <trkpt lat="43.517" lon="6.31902">
        <ele>320.6</ele>
        <time>2023-09-15T14:18:03Z</time>
      </trkpt>
      <trkpt lat="43.517" lon="6.31902">
        <ele>320.7</ele>
        <time>2023-09-15T14:18:04Z</time>
      </trkpt>
      <trkpt lat="43.517" lon="6.31902">
        <ele>320.6</ele>
        <time>2023-09-15T14:18:05Z</time>
      </trkpt>
      <trkpt lat="43.517" lon="6.31902">
        <ele>320.6</ele>
        <time>2023-09-15T14:18:06Z</time>
      </trkpt>
      <trkpt lat="43.517" lon="6.31902">
        <ele>320.6</ele>
        <time>2023-09-15T14:18:07Z</time>
      </trkpt>
      <trkpt lat="43.517" lon="6.31902">
        <ele>320.6</ele>
        <time>2023-09-15T14:18:08Z</time>
      </trkpt>
      <trkpt lat="43.517" lon="6.31901">
        <ele>320.5</ele>
        <time>2023-09-15T14:18:09Z</time>
      </trkpt>
      <trkpt lat="43.517" lon="6.31901">
        <ele>320.5</ele>
        <time>2023-09-15T14:18:10Z</time>
      </trkpt>
      <trkpt lat="43.517" lon="6.31901">
        <ele>320.7</ele>
        <time>2023-09-15T14:18:11Z</time>
      </trkpt>
      <trkpt lat="43.517" lon="6.31901">
        <ele>320.7</ele>
        <time>2023-09-15T14:18:12Z</time>
      </trkpt>
      <trkpt lat="43.517" lon="6.31902">
        <ele>320.7</ele>
        <time>2023-09-15T14:18:13Z</time>
      </trkpt>
      <trkpt lat="43.51701" lon="6.31901">
        <ele>320.8</ele>
        <time>2023-09-15T14:18:14Z</time>
      </trkpt>
      <trkpt lat="43.51701" lon="6.31901">
        <ele>320.8</ele>
        <time>2023-09-15T14:18:15Z</time>
      </trkpt>
      <trkpt lat="43.51702" lon="6.31902">
        <ele>320.8</ele>
        <time>2023-09-15T14:18:16Z</time>
      </trkpt>
      <trkpt lat="43.51702" lon="6.31902">
        <ele>320.9</ele>
        <time>2023-09-15T14:18:17Z</time>
      </trkpt>
      <trkpt lat="43.51702" lon="6.31902">
        <ele>320.9</ele>
        <time>2023-09-15T14:18:18Z</time>
      </trkpt>
      <trkpt lat="43.51703" lon="6.31902">
        <ele>320.9</ele>
        <time>2023-09-15T14:18:19Z</time>
      </trkpt>
      <trkpt lat="43.51704" lon="6.31901">
        <ele>321</ele>
        <time>2023-09-15T14:18:20Z</time>
      </trkpt>
      <trkpt lat="43.51703" lon="6.31901">
        <ele>321.1</ele>
        <time>2023-09-15T14:18:21Z</time>
      </trkpt>
      <trkpt lat="43.51704" lon="6.31901">
        <ele>321.1</ele>
        <time>2023-09-15T14:18:22Z</time>
      </trkpt>
      <trkpt lat="43.51703" lon="6.31901">
        <ele>321.1</ele>
        <time>2023-09-15T14:18:23Z</time>
      </trkpt>
      <trkpt lat="43.51703" lon="6.31901">
        <ele>321.1</ele>
        <time>2023-09-15T14:18:24Z</time>
      </trkpt>
      <trkpt lat="43.51702" lon="6.31901">
        <ele>321.1</ele>
        <time>2023-09-15T14:18:25Z</time>
      </trkpt>
      <trkpt lat="43.51702" lon="6.31902">
        <ele>321.1</ele>
        <time>2023-09-15T14:18:26Z</time>
      </trkpt>
      <trkpt lat="43.51701" lon="6.31902">
        <ele>321.2</ele>
        <time>2023-09-15T14:18:27Z</time>
      </trkpt>
      <trkpt lat="43.517" lon="6.31903">
        <ele>321.1</ele>
        <time>2023-09-15T14:18:28Z</time>
      </trkpt>
      <trkpt lat="43.517" lon="6.31903">
        <ele>321.1</ele>
        <time>2023-09-15T14:18:29Z</time>
      </trkpt>
      <trkpt lat="43.51699" lon="6.31905">
        <ele>321</ele>
        <time>2023-09-15T14:18:30Z</time>
      </trkpt>
      <trkpt lat="43.51698" lon="6.31905">
        <ele>321</ele>
        <time>2023-09-15T14:18:31Z</time>
      </trkpt>
      <trkpt lat="43.51698" lon="6.31906">
        <ele>321.1</ele>
        <time>2023-09-15T14:18:32Z</time>
      </trkpt>
      <trkpt lat="43.51697" lon="6.31907">
        <ele>321.2</ele>
        <time>2023-09-15T14:18:33Z</time>
      </trkpt>
      <trkpt lat="43.51697" lon="6.31908">
        <ele>321.3</ele>
        <time>2023-09-15T14:18:34Z</time>
      </trkpt>
      <trkpt lat="43.51696" lon="6.31909">
        <ele>321.5</ele>
        <time>2023-09-15T14:18:35Z</time>
      </trkpt>
      <trkpt lat="43.51696" lon="6.31909">
        <ele>321.6</ele>
        <time>2023-09-15T14:18:36Z</time>
      </trkpt>
      <trkpt lat="43.51696" lon="6.3191">
        <ele>321.6</ele>
        <time>2023-09-15T14:18:37Z</time>
      </trkpt>
      <trkpt lat="43.51696" lon="6.31911">
        <ele>321.7</ele>
        <time>2023-09-15T14:18:38Z</time>
      </trkpt>
      <trkpt lat="43.51696" lon="6.31912">
        <ele>321.8</ele>
        <time>2023-09-15T14:18:39Z</time>
      </trkpt>
      <trkpt lat="43.51695" lon="6.31912">
        <ele>322</ele>
        <time>2023-09-15T14:18:40Z</time>
      </trkpt>
      <trkpt lat="43.51695" lon="6.31913">
        <ele>322.1</ele>
        <time>2023-09-15T14:18:41Z</time>
      </trkpt>
      <trkpt lat="43.51695" lon="6.31914">
        <ele>322.1</ele>
        <time>2023-09-15T14:18:42Z</time>
      </trkpt>
      <trkpt lat="43.51694" lon="6.31914">
        <ele>322.2</ele>
        <time>2023-09-15T14:18:43Z</time>
      </trkpt>
      <trkpt lat="43.51694" lon="6.31915">
        <ele>322.3</ele>
        <time>2023-09-15T14:18:44Z</time>
      </trkpt>
      <trkpt lat="43.51694" lon="6.31916">
        <ele>322.3</ele>
        <time>2023-09-15T14:18:45Z</time>
      </trkpt>
      <trkpt lat="43.51694" lon="6.31917">
        <ele>322.3</ele>
        <time>2023-09-15T14:18:46Z</time>
      </trkpt>
      <trkpt lat="43.51694" lon="6.31918">
        <ele>322.4</ele>
        <time>2023-09-15T14:18:47Z</time>
      </trkpt>
      <trkpt lat="43.51694" lon="6.31919">
        <ele>322.4</ele>
        <time>2023-09-15T14:18:48Z</time>
      </trkpt>
      <trkpt lat="43.51693" lon="6.3192">
        <ele>322.5</ele>
        <time>2023-09-15T14:18:49Z</time>
      </trkpt>
      <trkpt lat="43.51694" lon="6.31922">
        <ele>322.6</ele>
        <time>2023-09-15T14:18:50Z</time>
      </trkpt>
      <trkpt lat="43.51693" lon="6.31923">
        <ele>322.8</ele>
        <time>2023-09-15T14:18:51Z</time>
      </trkpt>
      <trkpt lat="43.51693" lon="6.31924">
        <ele>322.8</ele>
        <time>2023-09-15T14:18:52Z</time>
      </trkpt>
      <trkpt lat="43.51693" lon="6.31925">
        <ele>322.9</ele>
        <time>2023-09-15T14:18:53Z</time>
      </trkpt>
      <trkpt lat="43.51693" lon="6.31926">
        <ele>322.9</ele>
        <time>2023-09-15T14:18:54Z</time>
      </trkpt>
      <trkpt lat="43.51693" lon="6.31927">
        <ele>323</ele>
        <time>2023-09-15T14:18:55Z</time>
      </trkpt>
      <trkpt lat="43.51692" lon="6.31928">
        <ele>323</ele>
        <time>2023-09-15T14:18:56Z</time>
      </trkpt>
      <trkpt lat="43.51692" lon="6.31929">
        <ele>323</ele>
        <time>2023-09-15T14:18:57Z</time>
      </trkpt>
      <trkpt lat="43.51692" lon="6.31929">
        <ele>323</ele>
        <time>2023-09-15T14:18:58Z</time>
      </trkpt>
      <trkpt lat="43.51692" lon="6.31929">
        <ele>323.1</ele>
        <time>2023-09-15T14:18:59Z</time>
      </trkpt>
      <trkpt lat="43.51692" lon="6.3193">
        <ele>323.2</ele>
        <time>2023-09-15T14:19:00Z</time>
      </trkpt>
      <trkpt lat="43.51692" lon="6.31931">
        <ele>323.2</ele>
        <time>2023-09-15T14:19:01Z</time>
      </trkpt>
      <trkpt lat="43.51692" lon="6.31932">
        <ele>323.3</ele>
        <time>2023-09-15T14:19:02Z</time>
      </trkpt>
      <trkpt lat="43.51692" lon="6.31933">
        <ele>323.3</ele>
        <time>2023-09-15T14:19:03Z</time>
      </trkpt>
      <trkpt lat="43.51692" lon="6.31934">
        <ele>323.5</ele>
        <time>2023-09-15T14:19:04Z</time>
      </trkpt>
      <trkpt lat="43.51692" lon="6.31935">
        <ele>323.6</ele>
        <time>2023-09-15T14:19:05Z</time>
      </trkpt>
      <trkpt lat="43.51691" lon="6.31936">
        <ele>323.8</ele>
        <time>2023-09-15T14:19:06Z</time>
      </trkpt>
      <trkpt lat="43.51691" lon="6.31937">
        <ele>323.9</ele>
        <time>2023-09-15T14:19:07Z</time>
      </trkpt>
      <trkpt lat="43.51691" lon="6.31938">
        <ele>324.1</ele>
        <time>2023-09-15T14:19:08Z</time>
      </trkpt>
      <trkpt lat="43.5169" lon="6.31938">
        <ele>324.2</ele>
        <time>2023-09-15T14:19:09Z</time>
      </trkpt>
      <trkpt lat="43.51691" lon="6.3194">
        <ele>324.3</ele>
        <time>2023-09-15T14:19:10Z</time>
      </trkpt>
      <trkpt lat="43.51691" lon="6.31941">
        <ele>324.4</ele>
        <time>2023-09-15T14:19:11Z</time>
      </trkpt>
      <trkpt lat="43.51691" lon="6.31942">
        <ele>324.7</ele>
        <time>2023-09-15T14:19:12Z</time>
      </trkpt>
      <trkpt lat="43.5169" lon="6.31942">
        <ele>324.7</ele>
        <time>2023-09-15T14:19:13Z</time>
      </trkpt>
      <trkpt lat="43.5169" lon="6.31943">
        <ele>324.9</ele>
        <time>2023-09-15T14:19:14Z</time>
      </trkpt>
      <trkpt lat="43.51689" lon="6.31945">
        <ele>324.9</ele>
        <time>2023-09-15T14:19:15Z</time>
      </trkpt>
      <trkpt lat="43.51689" lon="6.31946">
        <ele>324.9</ele>
        <time>2023-09-15T14:19:16Z</time>
      </trkpt>
      <trkpt lat="43.51689" lon="6.31948">
        <ele>324.9</ele>
        <time>2023-09-15T14:19:17Z</time>
      </trkpt>
      <trkpt lat="43.51689" lon="6.3195">
        <ele>325</ele>
        <time>2023-09-15T14:19:18Z</time>
      </trkpt>
      <trkpt lat="43.51689" lon="6.31951">
        <ele>325</ele>
        <time>2023-09-15T14:19:19Z</time>
      </trkpt>
      <trkpt lat="43.51689" lon="6.31952">
        <ele>325</ele>
        <time>2023-09-15T14:19:20Z</time>
      </trkpt>
      <trkpt lat="43.51688" lon="6.31953">
        <ele>325.2</ele>
        <time>2023-09-15T14:19:21Z</time>
      </trkpt>
      <trkpt lat="43.51688" lon="6.31953">
        <ele>325.3</ele>
        <time>2023-09-15T14:19:22Z</time>
      </trkpt>
      <trkpt lat="43.51688" lon="6.31955">
        <ele>325.5</ele>
        <time>2023-09-15T14:19:23Z</time>
      </trkpt>
      <trkpt lat="43.51688" lon="6.31956">
        <ele>325.6</ele>
        <time>2023-09-15T14:19:24Z</time>
      </trkpt>
      <trkpt lat="43.51688" lon="6.31958">
        <ele>325.8</ele>
        <time>2023-09-15T14:19:25Z</time>
      </trkpt>
      <trkpt lat="43.51687" lon="6.3196">
        <ele>326</ele>
        <time>2023-09-15T14:19:26Z</time>
      </trkpt>
      <trkpt lat="43.51687" lon="6.31961">
        <ele>325.9</ele>
        <time>2023-09-15T14:19:27Z</time>
      </trkpt>
      <trkpt lat="43.51687" lon="6.31962">
        <ele>326.1</ele>
        <time>2023-09-15T14:19:28Z</time>
      </trkpt>
      <trkpt lat="43.51687" lon="6.31964">
        <ele>326.2</ele>
        <time>2023-09-15T14:19:29Z</time>
      </trkpt>
      <trkpt lat="43.51687" lon="6.31965">
        <ele>326.3</ele>
        <time>2023-09-15T14:19:30Z</time>
      </trkpt>
      <trkpt lat="43.51687" lon="6.31966">
        <ele>326.4</ele>
        <time>2023-09-15T14:19:31Z</time>
      </trkpt>
      <trkpt lat="43.51687" lon="6.31967">
        <ele>326.4</ele>
        <time>2023-09-15T14:19:32Z</time>
      </trkpt>
      <trkpt lat="43.51687" lon="6.31968">
        <ele>326.5</ele>
        <time>2023-09-15T14:19:33Z</time>
      </trkpt>
      <trkpt lat="43.51686" lon="6.31969">
        <ele>326.6</ele>
        <time>2023-09-15T14:19:34Z</time>
      </trkpt>
      <trkpt lat="43.51686" lon="6.31971">
        <ele>326.8</ele>
        <time>2023-09-15T14:19:35Z</time>
      </trkpt>
      <trkpt lat="43.51685" lon="6.31971">
        <ele>326.8</ele>
        <time>2023-09-15T14:19:36Z</time>
      </trkpt>
      <trkpt lat="43.51685" lon="6.31972">
        <ele>327.1</ele>
        <time>2023-09-15T14:19:37Z</time>
      </trkpt>
      <trkpt lat="43.51684" lon="6.31974">
        <ele>327.3</ele>
        <time>2023-09-15T14:19:38Z</time>
      </trkpt>
      <trkpt lat="43.51684" lon="6.31975">
        <ele>327.5</ele>
        <time>2023-09-15T14:19:39Z</time>
      </trkpt>
      <trkpt lat="43.51684" lon="6.31976">
        <ele>327.6</ele>
        <time>2023-09-15T14:19:40Z</time>
      </trkpt>
      <trkpt lat="43.51684" lon="6.31979">
        <ele>327.7</ele>
        <time>2023-09-15T14:19:41Z</time>
      </trkpt>
      <trkpt lat="43.51684" lon="6.31981">
        <ele>327.8</ele>
        <time>2023-09-15T14:19:42Z</time>
      </trkpt>
      <trkpt lat="43.51684" lon="6.31982">
        <ele>327.9</ele>
        <time>2023-09-15T14:19:43Z</time>
      </trkpt>
      <trkpt lat="43.51684" lon="6.31984">
        <ele>328</ele>
        <time>2023-09-15T14:19:44Z</time>
      </trkpt>
      <trkpt lat="43.51684" lon="6.31985">
        <ele>328.1</ele>
        <time>2023-09-15T14:19:45Z</time>
      </trkpt>
      <trkpt lat="43.51684" lon="6.31987">
        <ele>328.2</ele>
        <time>2023-09-15T14:19:46Z</time>
      </trkpt>
      <trkpt lat="43.51684" lon="6.31988">
        <ele>328.3</ele>
        <time>2023-09-15T14:19:47Z</time>
      </trkpt>
      <trkpt lat="43.51684" lon="6.31989">
        <ele>328.3</ele>
        <time>2023-09-15T14:19:48Z</time>
      </trkpt>
      <trkpt lat="43.51684" lon="6.3199">
        <ele>328.5</ele>
        <time>2023-09-15T14:19:49Z</time>
      </trkpt>
      <trkpt lat="43.51684" lon="6.31991">
        <ele>328.5</ele>
        <time>2023-09-15T14:19:50Z</time>
      </trkpt>
      <trkpt lat="43.51684" lon="6.31993">
        <ele>328.5</ele>
        <time>2023-09-15T14:19:51Z</time>
      </trkpt>
      <trkpt lat="43.51684" lon="6.31994">
        <ele>328.5</ele>
        <time>2023-09-15T14:19:52Z</time>
      </trkpt>
      <trkpt lat="43.51684" lon="6.31995">
        <ele>328.6</ele>
        <time>2023-09-15T14:19:53Z</time>
      </trkpt>
      <trkpt lat="43.51684" lon="6.31996">
        <ele>328.7</ele>
        <time>2023-09-15T14:19:54Z</time>
      </trkpt>
      <trkpt lat="43.51684" lon="6.31998">
        <ele>328.8</ele>
        <time>2023-09-15T14:19:55Z</time>
      </trkpt>
      <trkpt lat="43.51684" lon="6.31999">
        <ele>328.8</ele>
        <time>2023-09-15T14:19:56Z</time>
      </trkpt>
      <trkpt lat="43.51683" lon="6.32">
        <ele>328.9</ele>
        <time>2023-09-15T14:19:57Z</time>
      </trkpt>
      <trkpt lat="43.51684" lon="6.32001">
        <ele>328.9</ele>
        <time>2023-09-15T14:19:58Z</time>
      </trkpt>
      <trkpt lat="43.51683" lon="6.32002">
        <ele>328.9</ele>
        <time>2023-09-15T14:19:59Z</time>
      </trkpt>
      <trkpt lat="43.51683" lon="6.32003">
        <ele>329</ele>
        <time>2023-09-15T14:20:00Z</time>
      </trkpt>
      <trkpt lat="43.51683" lon="6.32003">
        <ele>329.2</ele>
        <time>2023-09-15T14:20:01Z</time>
      </trkpt>
      <trkpt lat="43.51683" lon="6.32004">
        <ele>329.2</ele>
        <time>2023-09-15T14:20:02Z</time>
      </trkpt>
      <trkpt lat="43.51683" lon="6.32006">
        <ele>329.4</ele>
        <time>2023-09-15T14:20:03Z</time>
      </trkpt>
      <trkpt lat="43.51683" lon="6.32007">
        <ele>329.4</ele>
        <time>2023-09-15T14:20:04Z</time>
      </trkpt>
      <trkpt lat="43.51683" lon="6.32008">
        <ele>329.5</ele>
        <time>2023-09-15T14:20:05Z</time>
      </trkpt>
      <trkpt lat="43.51683" lon="6.32009">
        <ele>329.6</ele>
        <time>2023-09-15T14:20:06Z</time>
      </trkpt>
      <trkpt lat="43.51683" lon="6.3201">
        <ele>329.7</ele>
        <time>2023-09-15T14:20:07Z</time>
      </trkpt>
      <trkpt lat="43.51683" lon="6.32011">
        <ele>329.8</ele>
        <time>2023-09-15T14:20:08Z</time>
      </trkpt>
      <trkpt lat="43.51684" lon="6.32013">
        <ele>329.8</ele>
        <time>2023-09-15T14:20:09Z</time>
      </trkpt>
      <trkpt lat="43.51683" lon="6.32014">
        <ele>329.9</ele>
        <time>2023-09-15T14:20:10Z</time>
      </trkpt>
      <trkpt lat="43.51683" lon="6.32015">
        <ele>329.9</ele>
        <time>2023-09-15T14:20:11Z</time>
      </trkpt>
      <trkpt lat="43.51683" lon="6.32016">
        <ele>329.9</ele>
        <time>2023-09-15T14:20:12Z</time>
      </trkpt>
      <trkpt lat="43.51683" lon="6.32017">
        <ele>330.1</ele>
        <time>2023-09-15T14:20:13Z</time>
      </trkpt>
      <trkpt lat="43.51683" lon="6.32019">
        <ele>330.1</ele>
        <time>2023-09-15T14:20:14Z</time>
      </trkpt>
      <trkpt lat="43.51683" lon="6.32019">
        <ele>330.2</ele>
        <time>2023-09-15T14:20:15Z</time>
      </trkpt>
      <trkpt lat="43.51683" lon="6.32019">
        <ele>330.4</ele>
        <time>2023-09-15T14:20:16Z</time>
      </trkpt>
      <trkpt lat="43.51683" lon="6.3202">
        <ele>330.5</ele>
        <time>2023-09-15T14:20:17Z</time>
      </trkpt>
      <trkpt lat="43.51683" lon="6.32021">
        <ele>330.5</ele>
        <time>2023-09-15T14:20:18Z</time>
      </trkpt>
      <trkpt lat="43.51683" lon="6.32022">
        <ele>330.6</ele>
        <time>2023-09-15T14:20:19Z</time>
      </trkpt>
      <trkpt lat="43.51683" lon="6.32022">
        <ele>330.7</ele>
        <time>2023-09-15T14:20:20Z</time>
      </trkpt>
      <trkpt lat="43.51683" lon="6.32023">
        <ele>330.7</ele>
        <time>2023-09-15T14:20:21Z</time>
      </trkpt>
      <trkpt lat="43.51683" lon="6.32025">
        <ele>330.7</ele>
        <time>2023-09-15T14:20:22Z</time>
      </trkpt>
      <trkpt lat="43.51683" lon="6.32026">
        <ele>330.7</ele>
        <time>2023-09-15T14:20:23Z</time>
      </trkpt>
      <trkpt lat="43.51683" lon="6.32027">
        <ele>330.8</ele>
        <time>2023-09-15T14:20:24Z</time>
      </trkpt>
      <trkpt lat="43.51683" lon="6.32028">
        <ele>330.8</ele>
        <time>2023-09-15T14:20:25Z</time>
      </trkpt>
      <trkpt lat="43.51683" lon="6.3203">
        <ele>330.8</ele>
        <time>2023-09-15T14:20:26Z</time>
      </trkpt>
      <trkpt lat="43.51683" lon="6.32031">
        <ele>330.9</ele>
        <time>2023-09-15T14:20:27Z</time>
      </trkpt>
      <trkpt lat="43.51683" lon="6.32032">
        <ele>330.9</ele>
        <time>2023-09-15T14:20:28Z</time>
      </trkpt>
      <trkpt lat="43.51683" lon="6.32033">
        <ele>331</ele>
        <time>2023-09-15T14:20:29Z</time>
      </trkpt>
      <trkpt lat="43.51683" lon="6.32034">
        <ele>331.1</ele>
        <time>2023-09-15T14:20:30Z</time>
      </trkpt>
      <trkpt lat="43.51683" lon="6.32035">
        <ele>331.2</ele>
        <time>2023-09-15T14:20:31Z</time>
      </trkpt>
      <trkpt lat="43.51683" lon="6.32036">
        <ele>331.1</ele>
        <time>2023-09-15T14:20:32Z</time>
      </trkpt>
      <trkpt lat="43.51684" lon="6.32038">
        <ele>331.1</ele>
        <time>2023-09-15T14:20:33Z</time>
      </trkpt>
      <trkpt lat="43.51683" lon="6.32039">
        <ele>331.1</ele>
        <time>2023-09-15T14:20:34Z</time>
      </trkpt>
      <trkpt lat="43.51683" lon="6.3204">
        <ele>331.2</ele>
        <time>2023-09-15T14:20:35Z</time>
      </trkpt>
      <trkpt lat="43.51682" lon="6.32041">
        <ele>331.3</ele>
        <time>2023-09-15T14:20:36Z</time>
      </trkpt>
      <trkpt lat="43.51682" lon="6.32042">
        <ele>331.3</ele>
        <time>2023-09-15T14:20:37Z</time>
      </trkpt>
      <trkpt lat="43.51682" lon="6.32044">
        <ele>331.4</ele>
        <time>2023-09-15T14:20:38Z</time>
      </trkpt>
      <trkpt lat="43.51682" lon="6.32045">
        <ele>331.4</ele>
        <time>2023-09-15T14:20:39Z</time>
      </trkpt>
      <trkpt lat="43.51682" lon="6.32046">
        <ele>331.4</ele>
        <time>2023-09-15T14:20:40Z</time>
      </trkpt>
      <trkpt lat="43.51682" lon="6.32047">
        <ele>331.5</ele>
        <time>2023-09-15T14:20:41Z</time>
      </trkpt>
      <trkpt lat="43.51682" lon="6.32047">
        <ele>331.6</ele>
        <time>2023-09-15T14:20:42Z</time>
      </trkpt>
      <trkpt lat="43.51682" lon="6.32048">
        <ele>331.6</ele>
        <time>2023-09-15T14:20:43Z</time>
      </trkpt>
      <trkpt lat="43.51681" lon="6.3205">
        <ele>331.7</ele>
        <time>2023-09-15T14:20:44Z</time>
      </trkpt>
      <trkpt lat="43.51681" lon="6.32051">
        <ele>331.8</ele>
        <time>2023-09-15T14:20:45Z</time>
      </trkpt>
      <trkpt lat="43.51681" lon="6.32052">
        <ele>331.7</ele>
        <time>2023-09-15T14:20:46Z</time>
      </trkpt>
      <trkpt lat="43.5168" lon="6.32053">
        <ele>331.7</ele>
        <time>2023-09-15T14:20:47Z</time>
      </trkpt>
      <trkpt lat="43.5168" lon="6.32054">
        <ele>331.7</ele>
        <time>2023-09-15T14:20:48Z</time>
      </trkpt>
      <trkpt lat="43.5168" lon="6.32055">
        <ele>331.7</ele>
        <time>2023-09-15T14:20:49Z</time>
      </trkpt>
      <trkpt lat="43.5168" lon="6.32057">
        <ele>331.8</ele>
        <time>2023-09-15T14:20:50Z</time>
      </trkpt>
      <trkpt lat="43.5168" lon="6.32058">
        <ele>331.8</ele>
        <time>2023-09-15T14:20:51Z</time>
      </trkpt>
      <trkpt lat="43.5168" lon="6.32059">
        <ele>331.8</ele>
        <time>2023-09-15T14:20:52Z</time>
      </trkpt>
      <trkpt lat="43.51679" lon="6.32061">
        <ele>331.9</ele>
        <time>2023-09-15T14:20:53Z</time>
      </trkpt>
      <trkpt lat="43.51679" lon="6.32063">
        <ele>331.9</ele>
        <time>2023-09-15T14:20:54Z</time>
      </trkpt>
      <trkpt lat="43.51679" lon="6.32065">
        <ele>331.9</ele>
        <time>2023-09-15T14:20:55Z</time>
      </trkpt>
      <trkpt lat="43.51678" lon="6.32066">
        <ele>332</ele>
        <time>2023-09-15T14:20:56Z</time>
      </trkpt>
      <trkpt lat="43.51678" lon="6.32068">
        <ele>332</ele>
        <time>2023-09-15T14:20:57Z</time>
      </trkpt>
      <trkpt lat="43.51678" lon="6.32068">
        <ele>332.1</ele>
        <time>2023-09-15T14:20:58Z</time>
      </trkpt>
      <trkpt lat="43.51677" lon="6.32069">
        <ele>332.1</ele>
        <time>2023-09-15T14:20:59Z</time>
      </trkpt>
      <trkpt lat="43.51677" lon="6.3207">
        <ele>332.1</ele>
        <time>2023-09-15T14:21:00Z</time>
      </trkpt>
      <trkpt lat="43.51677" lon="6.32071">
        <ele>332.1</ele>
        <time>2023-09-15T14:21:01Z</time>
      </trkpt>
      <trkpt lat="43.51677" lon="6.32072">
        <ele>332.1</ele>
        <time>2023-09-15T14:21:02Z</time>
      </trkpt>
      <trkpt lat="43.51677" lon="6.32073">
        <ele>332.1</ele>
        <time>2023-09-15T14:21:03Z</time>
      </trkpt>
      <trkpt lat="43.51676" lon="6.32073">
        <ele>332.2</ele>
        <time>2023-09-15T14:21:04Z</time>
      </trkpt>
      <trkpt lat="43.51676" lon="6.32074">
        <ele>332.2</ele>
        <time>2023-09-15T14:21:05Z</time>
      </trkpt>
      <trkpt lat="43.51676" lon="6.32076">
        <ele>332.2</ele>
        <time>2023-09-15T14:21:06Z</time>
      </trkpt>
      <trkpt lat="43.51676" lon="6.32077">
        <ele>332.2</ele>
        <time>2023-09-15T14:21:07Z</time>
      </trkpt>
      <trkpt lat="43.51676" lon="6.32078">
        <ele>332.2</ele>
        <time>2023-09-15T14:21:08Z</time>
      </trkpt>
      <trkpt lat="43.51676" lon="6.32079">
        <ele>332.3</ele>
        <time>2023-09-15T14:21:09Z</time>
      </trkpt>
      <trkpt lat="43.51676" lon="6.32081">
        <ele>332.3</ele>
        <time>2023-09-15T14:21:10Z</time>
      </trkpt>
      <trkpt lat="43.51675" lon="6.32082">
        <ele>332.3</ele>
        <time>2023-09-15T14:21:11Z</time>
      </trkpt>
      <trkpt lat="43.51675" lon="6.32083">
        <ele>332.3</ele>
        <time>2023-09-15T14:21:12Z</time>
      </trkpt>
      <trkpt lat="43.51675" lon="6.32085">
        <ele>332.4</ele>
        <time>2023-09-15T14:21:13Z</time>
      </trkpt>
      <trkpt lat="43.51675" lon="6.32086">
        <ele>332.4</ele>
        <time>2023-09-15T14:21:14Z</time>
      </trkpt>
      <trkpt lat="43.51675" lon="6.32087">
        <ele>332.4</ele>
        <time>2023-09-15T14:21:15Z</time>
      </trkpt>
      <trkpt lat="43.51674" lon="6.32088">
        <ele>332.4</ele>
        <time>2023-09-15T14:21:16Z</time>
      </trkpt>
      <trkpt lat="43.51674" lon="6.3209">
        <ele>332.4</ele>
        <time>2023-09-15T14:21:17Z</time>
      </trkpt>
      <trkpt lat="43.51674" lon="6.3209">
        <ele>332.4</ele>
        <time>2023-09-15T14:21:18Z</time>
      </trkpt>
      <trkpt lat="43.51673" lon="6.32092">
        <ele>332.4</ele>
        <time>2023-09-15T14:21:19Z</time>
      </trkpt>
      <trkpt lat="43.51673" lon="6.32093">
        <ele>332.4</ele>
        <time>2023-09-15T14:21:20Z</time>
      </trkpt>
      <trkpt lat="43.51673" lon="6.32095">
        <ele>332.4</ele>
        <time>2023-09-15T14:21:21Z</time>
      </trkpt>
      <trkpt lat="43.51673" lon="6.32097">
        <ele>332.5</ele>
        <time>2023-09-15T14:21:22Z</time>
      </trkpt>
      <trkpt lat="43.51673" lon="6.32098">
        <ele>332.5</ele>
        <time>2023-09-15T14:21:23Z</time>
      </trkpt>
      <trkpt lat="43.51673" lon="6.32099">
        <ele>332.6</ele>
        <time>2023-09-15T14:21:24Z</time>
      </trkpt>
      <trkpt lat="43.51673" lon="6.321">
        <ele>332.6</ele>
        <time>2023-09-15T14:21:25Z</time>
      </trkpt>
      <trkpt lat="43.51673" lon="6.32102">
        <ele>332.7</ele>
        <time>2023-09-15T14:21:26Z</time>
      </trkpt>
      <trkpt lat="43.51674" lon="6.32103">
        <ele>332.9</ele>
        <time>2023-09-15T14:21:27Z</time>
      </trkpt>
      <trkpt lat="43.51675" lon="6.32105">
        <ele>333</ele>
        <time>2023-09-15T14:21:28Z</time>
      </trkpt>
      <trkpt lat="43.51675" lon="6.32105">
        <ele>333.1</ele>
        <time>2023-09-15T14:21:29Z</time>
      </trkpt>
      <trkpt lat="43.51676" lon="6.32105">
        <ele>333.2</ele>
        <time>2023-09-15T14:21:30Z</time>
      </trkpt>
      <trkpt lat="43.51676" lon="6.32105">
        <ele>333.3</ele>
        <time>2023-09-15T14:21:31Z</time>
      </trkpt>
      <trkpt lat="43.51677" lon="6.32107">
        <ele>333.4</ele>
        <time>2023-09-15T14:21:32Z</time>
      </trkpt>
      <trkpt lat="43.51678" lon="6.32109">
        <ele>333.5</ele>
        <time>2023-09-15T14:21:33Z</time>
      </trkpt>
      <trkpt lat="43.51679" lon="6.3211">
        <ele>333.6</ele>
        <time>2023-09-15T14:21:34Z</time>
      </trkpt>
      <trkpt lat="43.51679" lon="6.32111">
        <ele>333.6</ele>
        <time>2023-09-15T14:21:35Z</time>
      </trkpt>
      <trkpt lat="43.5168" lon="6.32111">
        <ele>333.6</ele>
        <time>2023-09-15T14:21:36Z</time>
      </trkpt>
      <trkpt lat="43.5168" lon="6.32113">
        <ele>333.6</ele>
        <time>2023-09-15T14:21:37Z</time>
      </trkpt>
      <trkpt lat="43.51681" lon="6.32114">
        <ele>333.8</ele>
        <time>2023-09-15T14:21:38Z</time>
      </trkpt>
      <trkpt lat="43.51682" lon="6.32114">
        <ele>333.9</ele>
        <time>2023-09-15T14:21:39Z</time>
      </trkpt>
      <trkpt lat="43.51682" lon="6.32114">
        <ele>334</ele>
        <time>2023-09-15T14:21:40Z</time>
      </trkpt>
      <trkpt lat="43.51683" lon="6.32114">
        <ele>334.1</ele>
        <time>2023-09-15T14:21:41Z</time>
      </trkpt>
      <trkpt lat="43.51683" lon="6.32114">
        <ele>334.2</ele>
        <time>2023-09-15T14:21:42Z</time>
      </trkpt>
      <trkpt lat="43.51684" lon="6.32115">
        <ele>334.3</ele>
        <time>2023-09-15T14:21:43Z</time>
      </trkpt>
      <trkpt lat="43.51684" lon="6.32115">
        <ele>334.4</ele>
        <time>2023-09-15T14:21:44Z</time>
      </trkpt>
      <trkpt lat="43.51684" lon="6.32116">
        <ele>334.6</ele>
        <time>2023-09-15T14:21:45Z</time>
      </trkpt>
      <trkpt lat="43.51684" lon="6.32116">
        <ele>334.7</ele>
        <time>2023-09-15T14:21:46Z</time>
      </trkpt>
      <trkpt lat="43.51685" lon="6.32116">
        <ele>334.8</ele>
        <time>2023-09-15T14:21:47Z</time>
      </trkpt>
      <trkpt lat="43.51685" lon="6.32115">
        <ele>334.8</ele>
        <time>2023-09-15T14:21:48Z</time>
      </trkpt>
      <trkpt lat="43.51685" lon="6.32114">
        <ele>334.8</ele>
        <time>2023-09-15T14:21:49Z</time>
      </trkpt>
      <trkpt lat="43.51685" lon="6.32114">
        <ele>334.8</ele>
        <time>2023-09-15T14:21:50Z</time>
      </trkpt>
      <trkpt lat="43.51684" lon="6.32114">
        <ele>334.8</ele>
        <time>2023-09-15T14:21:51Z</time>
      </trkpt>
      <trkpt lat="43.51683" lon="6.32114">
        <ele>334.9</ele>
        <time>2023-09-15T14:21:52Z</time>
      </trkpt>
      <trkpt lat="43.51683" lon="6.32114">
        <ele>334.9</ele>
        <time>2023-09-15T14:21:53Z</time>
      </trkpt>
      <trkpt lat="43.51682" lon="6.32114">
        <ele>334.7</ele>
        <time>2023-09-15T14:21:54Z</time>
      </trkpt>
      <trkpt lat="43.51681" lon="6.32113">
        <ele>334.6</ele>
        <time>2023-09-15T14:21:55Z</time>
      </trkpt>
      <trkpt lat="43.5168" lon="6.32114">
        <ele>334.6</ele>
        <time>2023-09-15T14:21:56Z</time>
      </trkpt>
      <trkpt lat="43.5168" lon="6.32114">
        <ele>334.5</ele>
        <time>2023-09-15T14:21:57Z</time>
      </trkpt>
      <trkpt lat="43.51679" lon="6.32114">
        <ele>334.3</ele>
        <time>2023-09-15T14:21:58Z</time>
      </trkpt>
      <trkpt lat="43.51679" lon="6.32113">
        <ele>334.3</ele>
        <time>2023-09-15T14:21:59Z</time>
      </trkpt>
      <trkpt lat="43.51678" lon="6.32113">
        <ele>334.2</ele>
        <time>2023-09-15T14:22:00Z</time>
      </trkpt>
      <trkpt lat="43.51677" lon="6.32113">
        <ele>334</ele>
        <time>2023-09-15T14:22:01Z</time>
      </trkpt>
      <trkpt lat="43.51677" lon="6.32113">
        <ele>333.9</ele>
        <time>2023-09-15T14:22:02Z</time>
      </trkpt>
      <trkpt lat="43.51676" lon="6.32114">
        <ele>333.8</ele>
        <time>2023-09-15T14:22:03Z</time>
      </trkpt>
      <trkpt lat="43.51675" lon="6.32114">
        <ele>333.7</ele>
        <time>2023-09-15T14:22:04Z</time>
      </trkpt>
      <trkpt lat="43.51675" lon="6.32115">
        <ele>333.6</ele>
        <time>2023-09-15T14:22:05Z</time>
      </trkpt>
      <trkpt lat="43.51674" lon="6.32116">
        <ele>333.5</ele>
        <time>2023-09-15T14:22:06Z</time>
      </trkpt>
      <trkpt lat="43.51674" lon="6.32118">
        <ele>333.4</ele>
        <time>2023-09-15T14:22:07Z</time>
      </trkpt>
      <trkpt lat="43.51674" lon="6.32119">
        <ele>333.3</ele>
        <time>2023-09-15T14:22:08Z</time>
      </trkpt>
      <trkpt lat="43.51674" lon="6.3212">
        <ele>333.3</ele>
        <time>2023-09-15T14:22:09Z</time>
      </trkpt>
      <trkpt lat="43.51674" lon="6.32121">
        <ele>333.2</ele>
        <time>2023-09-15T14:22:10Z</time>
      </trkpt>
      <trkpt lat="43.51675" lon="6.32122">
        <ele>333.2</ele>
        <time>2023-09-15T14:22:11Z</time>
      </trkpt>
      <trkpt lat="43.51675" lon="6.32125">
        <ele>333.2</ele>
        <time>2023-09-15T14:22:12Z</time>
      </trkpt>
      <trkpt lat="43.51675" lon="6.32127">
        <ele>333.2</ele>
        <time>2023-09-15T14:22:13Z</time>
      </trkpt>
      <trkpt lat="43.51676" lon="6.32128">
        <ele>333.3</ele>
        <time>2023-09-15T14:22:14Z</time>
      </trkpt>
      <trkpt lat="43.51675" lon="6.3213">
        <ele>333.4</ele>
        <time>2023-09-15T14:22:15Z</time>
      </trkpt>
      <trkpt lat="43.51676" lon="6.32133">
        <ele>333.5</ele>
        <time>2023-09-15T14:22:16Z</time>
      </trkpt>
      <trkpt lat="43.51676" lon="6.32134">
        <ele>333.5</ele>
        <time>2023-09-15T14:22:17Z</time>
      </trkpt>
      <trkpt lat="43.51675" lon="6.32136">
        <ele>333.6</ele>
        <time>2023-09-15T14:22:18Z</time>
      </trkpt>
      <trkpt lat="43.51676" lon="6.32137">
        <ele>333.6</ele>
        <time>2023-09-15T14:22:19Z</time>
      </trkpt>
      <trkpt lat="43.51676" lon="6.32138">
        <ele>333.6</ele>
        <time>2023-09-15T14:22:20Z</time>
      </trkpt>
      <trkpt lat="43.51676" lon="6.3214">
        <ele>333.6</ele>
        <time>2023-09-15T14:22:21Z</time>
      </trkpt>
      <trkpt lat="43.51676" lon="6.32141">
        <ele>333.6</ele>
        <time>2023-09-15T14:22:22Z</time>
      </trkpt>
      <trkpt lat="43.51676" lon="6.32141">
        <ele>333.5</ele>
        <time>2023-09-15T14:22:23Z</time>
      </trkpt>
      <trkpt lat="43.51677" lon="6.32142">
        <ele>333.5</ele>
        <time>2023-09-15T14:22:24Z</time>
      </trkpt>
      <trkpt lat="43.51677" lon="6.32143">
        <ele>333.5</ele>
        <time>2023-09-15T14:22:25Z</time>
      </trkpt>
      <trkpt lat="43.51677" lon="6.32144">
        <ele>333.5</ele>
        <time>2023-09-15T14:22:26Z</time>
      </trkpt>
      <trkpt lat="43.51677" lon="6.32145">
        <ele>333.5</ele>
        <time>2023-09-15T14:22:27Z</time>
      </trkpt>
      <trkpt lat="43.51676" lon="6.32146">
        <ele>333.6</ele>
        <time>2023-09-15T14:22:28Z</time>
      </trkpt>
      <trkpt lat="43.51676" lon="6.32146">
        <ele>333.6</ele>
        <time>2023-09-15T14:22:29Z</time>
      </trkpt>
      <trkpt lat="43.51676" lon="6.32147">
        <ele>333.7</ele>
        <time>2023-09-15T14:22:30Z</time>
      </trkpt>
      <trkpt lat="43.51676" lon="6.32147">
        <ele>333.7</ele>
        <time>2023-09-15T14:22:31Z</time>
      </trkpt>
      <trkpt lat="43.51676" lon="6.32148">
        <ele>333.7</ele>
        <time>2023-09-15T14:22:32Z</time>
      </trkpt>
      <trkpt lat="43.51676" lon="6.32149">
        <ele>333.7</ele>
        <time>2023-09-15T14:22:33Z</time>
      </trkpt>
      <trkpt lat="43.51677" lon="6.3215">
        <ele>333.8</ele>
        <time>2023-09-15T14:22:34Z</time>
      </trkpt>
      <trkpt lat="43.51677" lon="6.3215">
        <ele>333.8</ele>
        <time>2023-09-15T14:22:35Z</time>
      </trkpt>
      <trkpt lat="43.51677" lon="6.32151">
        <ele>333.8</ele>
        <time>2023-09-15T14:22:36Z</time>
      </trkpt>
      <trkpt lat="43.51677" lon="6.32152">
        <ele>333.8</ele>
        <time>2023-09-15T14:22:37Z</time>
      </trkpt>
      <trkpt lat="43.51677" lon="6.32152">
        <ele>333.8</ele>
        <time>2023-09-15T14:22:38Z</time>
      </trkpt>
      <trkpt lat="43.51676" lon="6.32153">
        <ele>333.9</ele>
        <time>2023-09-15T14:22:39Z</time>
      </trkpt>
      <trkpt lat="43.51677" lon="6.32153">
        <ele>333.9</ele>
        <time>2023-09-15T14:22:40Z</time>
      </trkpt>
      <trkpt lat="43.51677" lon="6.32155">
        <ele>333.9</ele>
        <time>2023-09-15T14:22:41Z</time>
      </trkpt>
      <trkpt lat="43.51677" lon="6.32157">
        <ele>334</ele>
        <time>2023-09-15T14:22:42Z</time>
      </trkpt>
      <trkpt lat="43.51677" lon="6.32158">
        <ele>334.2</ele>
        <time>2023-09-15T14:22:43Z</time>
      </trkpt>
      <trkpt lat="43.51677" lon="6.32159">
        <ele>334.3</ele>
        <time>2023-09-15T14:22:44Z</time>
      </trkpt>
      <trkpt lat="43.51677" lon="6.3216">
        <ele>334.4</ele>
        <time>2023-09-15T14:22:45Z</time>
      </trkpt>
      <trkpt lat="43.51677" lon="6.32161">
        <ele>334.4</ele>
        <time>2023-09-15T14:22:46Z</time>
      </trkpt>
      <trkpt lat="43.51676" lon="6.32163">
        <ele>334.5</ele>
        <time>2023-09-15T14:22:47Z</time>
      </trkpt>
      <trkpt lat="43.51677" lon="6.32164">
        <ele>334.6</ele>
        <time>2023-09-15T14:22:48Z</time>
      </trkpt>
      <trkpt lat="43.51677" lon="6.32165">
        <ele>334.7</ele>
        <time>2023-09-15T14:22:49Z</time>
      </trkpt>
      <trkpt lat="43.51677" lon="6.32166">
        <ele>334.7</ele>
        <time>2023-09-15T14:22:50Z</time>
      </trkpt>
      <trkpt lat="43.51678" lon="6.32167">
        <ele>334.7</ele>
        <time>2023-09-15T14:22:51Z</time>
      </trkpt>
      <trkpt lat="43.51679" lon="6.32168">
        <ele>334.8</ele>
        <time>2023-09-15T14:22:52Z</time>
      </trkpt>
      <trkpt lat="43.51679" lon="6.32169">
        <ele>334.9</ele>
        <time>2023-09-15T14:22:53Z</time>
      </trkpt>
      <trkpt lat="43.51679" lon="6.32173">
        <ele>334.9</ele>
        <time>2023-09-15T14:22:54Z</time>
      </trkpt>
      <trkpt lat="43.5168" lon="6.32174">
        <ele>334.9</ele>
        <time>2023-09-15T14:22:55Z</time>
      </trkpt>
      <trkpt lat="43.5168" lon="6.32175">
        <ele>335</ele>
        <time>2023-09-15T14:22:56Z</time>
      </trkpt>
      <trkpt lat="43.51681" lon="6.32176">
        <ele>335.1</ele>
        <time>2023-09-15T14:22:57Z</time>
      </trkpt>
      <trkpt lat="43.51681" lon="6.32177">
        <ele>335.1</ele>
        <time>2023-09-15T14:22:58Z</time>
      </trkpt>
      <trkpt lat="43.51682" lon="6.32179">
        <ele>335.1</ele>
        <time>2023-09-15T14:22:59Z</time>
      </trkpt>
      <trkpt lat="43.51681" lon="6.32181">
        <ele>335.2</ele>
        <time>2023-09-15T14:23:00Z</time>
      </trkpt>
      <trkpt lat="43.51682" lon="6.32182">
        <ele>335.2</ele>
        <time>2023-09-15T14:23:01Z</time>
      </trkpt>
      <trkpt lat="43.51682" lon="6.32183">
        <ele>335.2</ele>
        <time>2023-09-15T14:23:02Z</time>
      </trkpt>
      <trkpt lat="43.51683" lon="6.32183">
        <ele>335.1</ele>
        <time>2023-09-15T14:23:03Z</time>
      </trkpt>
      <trkpt lat="43.51683" lon="6.32184">
        <ele>335.2</ele>
        <time>2023-09-15T14:23:04Z</time>
      </trkpt>
      <trkpt lat="43.51683" lon="6.32186">
        <ele>335.3</ele>
        <time>2023-09-15T14:23:05Z</time>
      </trkpt>
      <trkpt lat="43.51683" lon="6.32187">
        <ele>335.3</ele>
        <time>2023-09-15T14:23:06Z</time>
      </trkpt>
      <trkpt lat="43.51684" lon="6.32188">
        <ele>335.4</ele>
        <time>2023-09-15T14:23:07Z</time>
      </trkpt>
      <trkpt lat="43.51684" lon="6.3219">
        <ele>335.4</ele>
        <time>2023-09-15T14:23:08Z</time>
      </trkpt>
      <trkpt lat="43.51685" lon="6.32192">
        <ele>335.5</ele>
        <time>2023-09-15T14:23:09Z</time>
      </trkpt>
      <trkpt lat="43.51685" lon="6.32194">
        <ele>335.6</ele>
        <time>2023-09-15T14:23:10Z</time>
      </trkpt>
      <trkpt lat="43.51685" lon="6.32196">
        <ele>335.6</ele>
        <time>2023-09-15T14:23:11Z</time>
      </trkpt>
      <trkpt lat="43.51684" lon="6.32197">
        <ele>335.7</ele>
        <time>2023-09-15T14:23:12Z</time>
      </trkpt>
      <trkpt lat="43.51684" lon="6.32198">
        <ele>335.9</ele>
        <time>2023-09-15T14:23:13Z</time>
      </trkpt>
      <trkpt lat="43.51684" lon="6.32199">
        <ele>336</ele>
        <time>2023-09-15T14:23:14Z</time>
      </trkpt>
      <trkpt lat="43.51685" lon="6.322">
        <ele>336</ele>
        <time>2023-09-15T14:23:15Z</time>
      </trkpt>
      <trkpt lat="43.51686" lon="6.32201">
        <ele>336</ele>
        <time>2023-09-15T14:23:16Z</time>
      </trkpt>
      <trkpt lat="43.51686" lon="6.32202">
        <ele>336</ele>
        <time>2023-09-15T14:23:17Z</time>
      </trkpt>
      <trkpt lat="43.51687" lon="6.32203">
        <ele>336</ele>
        <time>2023-09-15T14:23:18Z</time>
      </trkpt>
      <trkpt lat="43.51687" lon="6.32204">
        <ele>336</ele>
        <time>2023-09-15T14:23:19Z</time>
      </trkpt>
      <trkpt lat="43.51688" lon="6.32206">
        <ele>336</ele>
        <time>2023-09-15T14:23:20Z</time>
      </trkpt>
      <trkpt lat="43.51688" lon="6.32207">
        <ele>336</ele>
        <time>2023-09-15T14:23:21Z</time>
      </trkpt>
      <trkpt lat="43.51688" lon="6.32208">
        <ele>336.1</ele>
        <time>2023-09-15T14:23:22Z</time>
      </trkpt>
      <trkpt lat="43.51689" lon="6.3221">
        <ele>336.1</ele>
        <time>2023-09-15T14:23:23Z</time>
      </trkpt>
      <trkpt lat="43.5169" lon="6.32211">
        <ele>336.2</ele>
        <time>2023-09-15T14:23:24Z</time>
      </trkpt>
      <trkpt lat="43.5169" lon="6.32213">
        <ele>336.3</ele>
        <time>2023-09-15T14:23:25Z</time>
      </trkpt>
      <trkpt lat="43.5169" lon="6.32215">
        <ele>336.4</ele>
        <time>2023-09-15T14:23:26Z</time>
      </trkpt>
      <trkpt lat="43.5169" lon="6.32216">
        <ele>336.5</ele>
        <time>2023-09-15T14:23:27Z</time>
      </trkpt>
      <trkpt lat="43.51691" lon="6.32218">
        <ele>336.7</ele>
        <time>2023-09-15T14:23:28Z</time>
      </trkpt>
      <trkpt lat="43.51691" lon="6.32218">
        <ele>336.8</ele>
        <time>2023-09-15T14:23:29Z</time>
      </trkpt>
      <trkpt lat="43.51691" lon="6.3222">
        <ele>336.8</ele>
        <time>2023-09-15T14:23:30Z</time>
      </trkpt>
      <trkpt lat="43.51692" lon="6.32222">
        <ele>336.7</ele>
        <time>2023-09-15T14:23:31Z</time>
      </trkpt>
      <trkpt lat="43.51692" lon="6.32223">
        <ele>336.8</ele>
        <time>2023-09-15T14:23:32Z</time>
      </trkpt>
      <trkpt lat="43.51693" lon="6.32224">
        <ele>336.8</ele>
        <time>2023-09-15T14:23:33Z</time>
      </trkpt>
      <trkpt lat="43.51693" lon="6.32225">
        <ele>336.2</ele>
        <time>2023-09-15T14:23:34Z</time>
      </trkpt>
      <trkpt lat="43.51696" lon="6.32225">
        <ele>335.9</ele>
        <time>2023-09-15T14:23:35Z</time>
      </trkpt>
      <trkpt lat="43.51697" lon="6.32226">
        <ele>336.2</ele>
        <time>2023-09-15T14:23:36Z</time>
      </trkpt>
      <trkpt lat="43.51698" lon="6.32227">
        <ele>336.4</ele>
        <time>2023-09-15T14:23:37Z</time>
      </trkpt>
      <trkpt lat="43.51697" lon="6.32229">
        <ele>336.7</ele>
        <time>2023-09-15T14:23:38Z</time>
      </trkpt>
      <trkpt lat="43.51697" lon="6.3223">
        <ele>336.7</ele>
        <time>2023-09-15T14:23:39Z</time>
      </trkpt>
      <trkpt lat="43.51697" lon="6.32231">
        <ele>336.1</ele>
        <time>2023-09-15T14:23:40Z</time>
      </trkpt>
      <trkpt lat="43.51698" lon="6.32232">
        <ele>336.3</ele>
        <time>2023-09-15T14:23:41Z</time>
      </trkpt>
      <trkpt lat="43.51698" lon="6.32233">
        <ele>336.5</ele>
        <time>2023-09-15T14:23:42Z</time>
      </trkpt>
      <trkpt lat="43.51698" lon="6.32235">
        <ele>336.7</ele>
        <time>2023-09-15T14:23:43Z</time>
      </trkpt>
      <trkpt lat="43.51698" lon="6.32235">
        <ele>337</ele>
        <time>2023-09-15T14:23:44Z</time>
      </trkpt>
      <trkpt lat="43.51698" lon="6.32236">
        <ele>337.1</ele>
        <time>2023-09-15T14:23:45Z</time>
      </trkpt>
      <trkpt lat="43.51698" lon="6.32237">
        <ele>337.2</ele>
        <time>2023-09-15T14:23:46Z</time>
      </trkpt>
      <trkpt lat="43.51698" lon="6.32238">
        <ele>337.2</ele>
        <time>2023-09-15T14:23:47Z</time>
      </trkpt>
      <trkpt lat="43.51698" lon="6.32241">
        <ele>337.3</ele>
        <time>2023-09-15T14:23:48Z</time>
      </trkpt>
      <trkpt lat="43.51697" lon="6.32242">
        <ele>337.3</ele>
        <time>2023-09-15T14:23:49Z</time>
      </trkpt>
      <trkpt lat="43.51698" lon="6.32243">
        <ele>337.3</ele>
        <time>2023-09-15T14:23:50Z</time>
      </trkpt>
      <trkpt lat="43.51699" lon="6.32244">
        <ele>337.5</ele>
        <time>2023-09-15T14:23:51Z</time>
      </trkpt>
      <trkpt lat="43.51699" lon="6.32245">
        <ele>337.5</ele>
        <time>2023-09-15T14:23:52Z</time>
      </trkpt>
      <trkpt lat="43.51701" lon="6.32247">
        <ele>337.6</ele>
        <time>2023-09-15T14:23:53Z</time>
      </trkpt>
      <trkpt lat="43.51701" lon="6.32248">
        <ele>337.6</ele>
        <time>2023-09-15T14:23:54Z</time>
      </trkpt>
      <trkpt lat="43.51701" lon="6.3225">
        <ele>337.6</ele>
        <time>2023-09-15T14:23:55Z</time>
      </trkpt>
      <trkpt lat="43.51701" lon="6.32252">
        <ele>337.6</ele>
        <time>2023-09-15T14:23:56Z</time>
      </trkpt>
      <trkpt lat="43.51702" lon="6.32253">
        <ele>337.7</ele>
        <time>2023-09-15T14:23:57Z</time>
      </trkpt>
      <trkpt lat="43.51702" lon="6.32255">
        <ele>337.8</ele>
        <time>2023-09-15T14:23:58Z</time>
      </trkpt>
      <trkpt lat="43.51702" lon="6.32256">
        <ele>337.9</ele>
        <time>2023-09-15T14:23:59Z</time>
      </trkpt>
      <trkpt lat="43.51702" lon="6.32257">
        <ele>338</ele>
        <time>2023-09-15T14:24:00Z</time>
      </trkpt>
      <trkpt lat="43.51703" lon="6.32258">
        <ele>338.2</ele>
        <time>2023-09-15T14:24:01Z</time>
      </trkpt>
      <trkpt lat="43.51703" lon="6.32259">
        <ele>338.3</ele>
        <time>2023-09-15T14:24:02Z</time>
      </trkpt>
      <trkpt lat="43.51702" lon="6.32261">
        <ele>338.5</ele>
        <time>2023-09-15T14:24:03Z</time>
      </trkpt>
      <trkpt lat="43.51703" lon="6.32262">
        <ele>338.7</ele>
        <time>2023-09-15T14:24:04Z</time>
      </trkpt>
      <trkpt lat="43.51704" lon="6.32264">
        <ele>338.8</ele>
        <time>2023-09-15T14:24:05Z</time>
      </trkpt>
      <trkpt lat="43.51704" lon="6.32265">
        <ele>338.9</ele>
        <time>2023-09-15T14:24:06Z</time>
      </trkpt>
      <trkpt lat="43.51705" lon="6.32266">
        <ele>338.9</ele>
        <time>2023-09-15T14:24:07Z</time>
      </trkpt>
      <trkpt lat="43.51705" lon="6.32268">
        <ele>339</ele>
        <time>2023-09-15T14:24:08Z</time>
      </trkpt>
      <trkpt lat="43.51706" lon="6.32268">
        <ele>339</ele>
        <time>2023-09-15T14:24:09Z</time>
      </trkpt>
      <trkpt lat="43.51706" lon="6.32269">
        <ele>339</ele>
        <time>2023-09-15T14:24:10Z</time>
      </trkpt>
      <trkpt lat="43.51706" lon="6.3227">
        <ele>339.1</ele>
        <time>2023-09-15T14:24:11Z</time>
      </trkpt>
      <trkpt lat="43.51706" lon="6.32271">
        <ele>339.1</ele>
        <time>2023-09-15T14:24:12Z</time>
      </trkpt>
      <trkpt lat="43.51707" lon="6.32271">
        <ele>339</ele>
        <time>2023-09-15T14:24:13Z</time>
      </trkpt>
      <trkpt lat="43.51707" lon="6.32272">
        <ele>339</ele>
        <time>2023-09-15T14:24:14Z</time>
      </trkpt>
      <trkpt lat="43.51707" lon="6.32272">
        <ele>339</ele>
        <time>2023-09-15T14:24:15Z</time>
      </trkpt>
      <trkpt lat="43.51708" lon="6.32274">
        <ele>339</ele>
        <time>2023-09-15T14:24:16Z</time>
      </trkpt>
      <trkpt lat="43.51708" lon="6.32274">
        <ele>339.1</ele>
        <time>2023-09-15T14:24:17Z</time>
      </trkpt>
      <trkpt lat="43.51709" lon="6.32275">
        <ele>339.1</ele>
        <time>2023-09-15T14:24:18Z</time>
      </trkpt>
      <trkpt lat="43.5171" lon="6.32276">
        <ele>339.2</ele>
        <time>2023-09-15T14:24:19Z</time>
      </trkpt>
      <trkpt lat="43.51711" lon="6.32277">
        <ele>339.3</ele>
        <time>2023-09-15T14:24:20Z</time>
      </trkpt>
      <trkpt lat="43.51712" lon="6.32278">
        <ele>339.4</ele>
        <time>2023-09-15T14:24:21Z</time>
      </trkpt>
      <trkpt lat="43.51713" lon="6.32278">
        <ele>339.5</ele>
        <time>2023-09-15T14:24:22Z</time>
      </trkpt>
      <trkpt lat="43.51714" lon="6.32279">
        <ele>339.6</ele>
        <time>2023-09-15T14:24:23Z</time>
      </trkpt>
      <trkpt lat="43.51715" lon="6.3228">
        <ele>339.7</ele>
        <time>2023-09-15T14:24:24Z</time>
      </trkpt>
      <trkpt lat="43.51716" lon="6.32281">
        <ele>339.8</ele>
        <time>2023-09-15T14:24:25Z</time>
      </trkpt>
      <trkpt lat="43.51716" lon="6.32281">
        <ele>339.9</ele>
        <time>2023-09-15T14:24:26Z</time>
      </trkpt>
      <trkpt lat="43.51717" lon="6.32283">
        <ele>340</ele>
        <time>2023-09-15T14:24:27Z</time>
      </trkpt>
      <trkpt lat="43.51717" lon="6.32284">
        <ele>340.1</ele>
        <time>2023-09-15T14:24:28Z</time>
      </trkpt>
      <trkpt lat="43.51717" lon="6.32286">
        <ele>340.1</ele>
        <time>2023-09-15T14:24:29Z</time>
      </trkpt>
      <trkpt lat="43.51718" lon="6.32287">
        <ele>340.2</ele>
        <time>2023-09-15T14:24:30Z</time>
      </trkpt>
      <trkpt lat="43.51719" lon="6.32289">
        <ele>340.2</ele>
        <time>2023-09-15T14:24:31Z</time>
      </trkpt>
      <trkpt lat="43.51719" lon="6.3229">
        <ele>340.2</ele>
        <time>2023-09-15T14:24:32Z</time>
      </trkpt>
      <trkpt lat="43.5172" lon="6.32291">
        <ele>340.2</ele>
        <time>2023-09-15T14:24:33Z</time>
      </trkpt>
      <trkpt lat="43.5172" lon="6.32291">
        <ele>340.2</ele>
        <time>2023-09-15T14:24:34Z</time>
      </trkpt>
      <trkpt lat="43.5172" lon="6.32292">
        <ele>340.2</ele>
        <time>2023-09-15T14:24:35Z</time>
      </trkpt>
      <trkpt lat="43.5172" lon="6.32292">
        <ele>340.2</ele>
        <time>2023-09-15T14:24:36Z</time>
      </trkpt>
      <trkpt lat="43.5172" lon="6.32292">
        <ele>340.1</ele>
        <time>2023-09-15T14:24:37Z</time>
      </trkpt>
      <trkpt lat="43.5172" lon="6.32292">
        <ele>340.1</ele>
        <time>2023-09-15T14:24:38Z</time>
      </trkpt>
      <trkpt lat="43.51719" lon="6.32292">
        <ele>340.2</ele>
        <time>2023-09-15T14:24:39Z</time>
      </trkpt>
      <trkpt lat="43.5172" lon="6.32293">
        <ele>340.1</ele>
        <time>2023-09-15T14:24:40Z</time>
      </trkpt>
      <trkpt lat="43.5172" lon="6.32293">
        <ele>340.1</ele>
        <time>2023-09-15T14:24:41Z</time>
      </trkpt>
      <trkpt lat="43.5172" lon="6.32294">
        <ele>340.1</ele>
        <time>2023-09-15T14:24:42Z</time>
      </trkpt>
      <trkpt lat="43.51721" lon="6.32295">
        <ele>340.1</ele>
        <time>2023-09-15T14:24:43Z</time>
      </trkpt>
      <trkpt lat="43.51721" lon="6.32296">
        <ele>340.2</ele>
        <time>2023-09-15T14:24:44Z</time>
      </trkpt>
      <trkpt lat="43.51722" lon="6.32297">
        <ele>340.3</ele>
        <time>2023-09-15T14:24:45Z</time>
      </trkpt>
      <trkpt lat="43.51723" lon="6.32298">
        <ele>340.2</ele>
        <time>2023-09-15T14:24:46Z</time>
      </trkpt>
      <trkpt lat="43.51723" lon="6.32298">
        <ele>340.2</ele>
        <time>2023-09-15T14:24:47Z</time>
      </trkpt>
      <trkpt lat="43.51723" lon="6.32299">
        <ele>340.2</ele>
        <time>2023-09-15T14:24:48Z</time>
      </trkpt>
      <trkpt lat="43.51724" lon="6.323">
        <ele>340.3</ele>
        <time>2023-09-15T14:24:49Z</time>
      </trkpt>
      <trkpt lat="43.51725" lon="6.32301">
        <ele>340.4</ele>
        <time>2023-09-15T14:24:50Z</time>
      </trkpt>
      <trkpt lat="43.51726" lon="6.32301">
        <ele>340.4</ele>
        <time>2023-09-15T14:24:51Z</time>
      </trkpt>
      <trkpt lat="43.51727" lon="6.32302">
        <ele>340.5</ele>
        <time>2023-09-15T14:24:52Z</time>
      </trkpt>
      <trkpt lat="43.51728" lon="6.32303">
        <ele>340.5</ele>
        <time>2023-09-15T14:24:53Z</time>
      </trkpt>
      <trkpt lat="43.51729" lon="6.32304">
        <ele>340.5</ele>
        <time>2023-09-15T14:24:54Z</time>
      </trkpt>
      <trkpt lat="43.5173" lon="6.32305">
        <ele>340.5</ele>
        <time>2023-09-15T14:24:55Z</time>
      </trkpt>
      <trkpt lat="43.51731" lon="6.32305">
        <ele>340.4</ele>
        <time>2023-09-15T14:24:56Z</time>
      </trkpt>
      <trkpt lat="43.51732" lon="6.32306">
        <ele>340.4</ele>
        <time>2023-09-15T14:24:57Z</time>
      </trkpt>
      <trkpt lat="43.51732" lon="6.32307">
        <ele>340.5</ele>
        <time>2023-09-15T14:24:58Z</time>
      </trkpt>
      <trkpt lat="43.51733" lon="6.32308">
        <ele>340.6</ele>
        <time>2023-09-15T14:24:59Z</time>
      </trkpt>
      <trkpt lat="43.51734" lon="6.32308">
        <ele>340.7</ele>
        <time>2023-09-15T14:25:00Z</time>
      </trkpt>
      <trkpt lat="43.51735" lon="6.32309">
        <ele>340.8</ele>
        <time>2023-09-15T14:25:01Z</time>
      </trkpt>
      <trkpt lat="43.51736" lon="6.32309">
        <ele>340.8</ele>
        <time>2023-09-15T14:25:02Z</time>
      </trkpt>
      <trkpt lat="43.51737" lon="6.3231">
        <ele>341</ele>
        <time>2023-09-15T14:25:03Z</time>
      </trkpt>
      <trkpt lat="43.51738" lon="6.32311">
        <ele>341</ele>
        <time>2023-09-15T14:25:04Z</time>
      </trkpt>
      <trkpt lat="43.51739" lon="6.32312">
        <ele>341</ele>
        <time>2023-09-15T14:25:05Z</time>
      </trkpt>
      <trkpt lat="43.5174" lon="6.32313">
        <ele>341</ele>
        <time>2023-09-15T14:25:06Z</time>
      </trkpt>
      <trkpt lat="43.51741" lon="6.32313">
        <ele>341</ele>
        <time>2023-09-15T14:25:07Z</time>
      </trkpt>
      <trkpt lat="43.51741" lon="6.32314">
        <ele>341</ele>
        <time>2023-09-15T14:25:08Z</time>
      </trkpt>
      <trkpt lat="43.51741" lon="6.32314">
        <ele>341</ele>
        <time>2023-09-15T14:25:09Z</time>
      </trkpt>
      <trkpt lat="43.51743" lon="6.32315">
        <ele>341</ele>
        <time>2023-09-15T14:25:10Z</time>
      </trkpt>
      <trkpt lat="43.51744" lon="6.32315">
        <ele>341</ele>
        <time>2023-09-15T14:25:11Z</time>
      </trkpt>
      <trkpt lat="43.51745" lon="6.32316">
        <ele>341.1</ele>
        <time>2023-09-15T14:25:12Z</time>
      </trkpt>
      <trkpt lat="43.51746" lon="6.32317">
        <ele>341.1</ele>
        <time>2023-09-15T14:25:13Z</time>
      </trkpt>
      <trkpt lat="43.51747" lon="6.32318">
        <ele>341.2</ele>
        <time>2023-09-15T14:25:14Z</time>
      </trkpt>
      <trkpt lat="43.51748" lon="6.32318">
        <ele>341.3</ele>
        <time>2023-09-15T14:25:15Z</time>
      </trkpt>
      <trkpt lat="43.51749" lon="6.32319">
        <ele>341.3</ele>
        <time>2023-09-15T14:25:16Z</time>
      </trkpt>
      <trkpt lat="43.51749" lon="6.32319">
        <ele>341.3</ele>
        <time>2023-09-15T14:25:17Z</time>
      </trkpt>
      <trkpt lat="43.51751" lon="6.3232">
        <ele>341.4</ele>
        <time>2023-09-15T14:25:18Z</time>
      </trkpt>
      <trkpt lat="43.51752" lon="6.3232">
        <ele>341.5</ele>
        <time>2023-09-15T14:25:19Z</time>
      </trkpt>
      <trkpt lat="43.51752" lon="6.3232">
        <ele>341.5</ele>
        <time>2023-09-15T14:25:20Z</time>
      </trkpt>
      <trkpt lat="43.51752" lon="6.3232">
        <ele>341.6</ele>
        <time>2023-09-15T14:25:21Z</time>
      </trkpt>
      <trkpt lat="43.51753" lon="6.3232">
        <ele>341.6</ele>
        <time>2023-09-15T14:25:22Z</time>
      </trkpt>
      <trkpt lat="43.51753" lon="6.32321">
        <ele>341.7</ele>
        <time>2023-09-15T14:25:23Z</time>
      </trkpt>
      <trkpt lat="43.51754" lon="6.32321">
        <ele>341.7</ele>
        <time>2023-09-15T14:25:24Z</time>
      </trkpt>
      <trkpt lat="43.51755" lon="6.32322">
        <ele>341.8</ele>
        <time>2023-09-15T14:25:25Z</time>
      </trkpt>
      <trkpt lat="43.51756" lon="6.32323">
        <ele>341.8</ele>
        <time>2023-09-15T14:25:26Z</time>
      </trkpt>
      <trkpt lat="43.51758" lon="6.32323">
        <ele>341.8</ele>
        <time>2023-09-15T14:25:27Z</time>
      </trkpt>
      <trkpt lat="43.51758" lon="6.32323">
        <ele>341.8</ele>
        <time>2023-09-15T14:25:28Z</time>
      </trkpt>
      <trkpt lat="43.51759" lon="6.32324">
        <ele>341.8</ele>
        <time>2023-09-15T14:25:29Z</time>
      </trkpt>
      <trkpt lat="43.5176" lon="6.32324">
        <ele>342</ele>
        <time>2023-09-15T14:25:30Z</time>
      </trkpt>
      <trkpt lat="43.51761" lon="6.32325">
        <ele>342.1</ele>
        <time>2023-09-15T14:25:31Z</time>
      </trkpt>
      <trkpt lat="43.51762" lon="6.32326">
        <ele>342.2</ele>
        <time>2023-09-15T14:25:32Z</time>
      </trkpt>
      <trkpt lat="43.51763" lon="6.32327">
        <ele>342.3</ele>
        <time>2023-09-15T14:25:33Z</time>
      </trkpt>
      <trkpt lat="43.51763" lon="6.32328">
        <ele>342.4</ele>
        <time>2023-09-15T14:25:34Z</time>
      </trkpt>
      <trkpt lat="43.51764" lon="6.32329">
        <ele>342.5</ele>
        <time>2023-09-15T14:25:35Z</time>
      </trkpt>
      <trkpt lat="43.51765" lon="6.3233">
        <ele>342.6</ele>
        <time>2023-09-15T14:25:36Z</time>
      </trkpt>
      <trkpt lat="43.51765" lon="6.3233">
        <ele>342.7</ele>
        <time>2023-09-15T14:25:37Z</time>
      </trkpt>
      <trkpt lat="43.51766" lon="6.32331">
        <ele>342.7</ele>
        <time>2023-09-15T14:25:38Z</time>
      </trkpt>
      <trkpt lat="43.51767" lon="6.32333">
        <ele>342.7</ele>
        <time>2023-09-15T14:25:39Z</time>
      </trkpt>
      <trkpt lat="43.51767" lon="6.32334">
        <ele>342.7</ele>
        <time>2023-09-15T14:25:40Z</time>
      </trkpt>
      <trkpt lat="43.51767" lon="6.32335">
        <ele>342.6</ele>
        <time>2023-09-15T14:25:41Z</time>
      </trkpt>
      <trkpt lat="43.51767" lon="6.32336">
        <ele>342.6</ele>
        <time>2023-09-15T14:25:42Z</time>
      </trkpt>
      <trkpt lat="43.51767" lon="6.32337">
        <ele>342.6</ele>
        <time>2023-09-15T14:25:43Z</time>
      </trkpt>
      <trkpt lat="43.51767" lon="6.32338">
        <ele>342.6</ele>
        <time>2023-09-15T14:25:44Z</time>
      </trkpt>
      <trkpt lat="43.51767" lon="6.32339">
        <ele>342.6</ele>
        <time>2023-09-15T14:25:45Z</time>
      </trkpt>
      <trkpt lat="43.51766" lon="6.32341">
        <ele>342.5</ele>
        <time>2023-09-15T14:25:46Z</time>
      </trkpt>
      <trkpt lat="43.51766" lon="6.32342">
        <ele>342.5</ele>
        <time>2023-09-15T14:25:47Z</time>
      </trkpt>
      <trkpt lat="43.51766" lon="6.32344">
        <ele>342.5</ele>
        <time>2023-09-15T14:25:48Z</time>
      </trkpt>
      <trkpt lat="43.51766" lon="6.32345">
        <ele>342.5</ele>
        <time>2023-09-15T14:25:49Z</time>
      </trkpt>
      <trkpt lat="43.51766" lon="6.32346">
        <ele>342.4</ele>
        <time>2023-09-15T14:25:50Z</time>
      </trkpt>
      <trkpt lat="43.51766" lon="6.32348">
        <ele>342.3</ele>
        <time>2023-09-15T14:25:51Z</time>
      </trkpt>
      <trkpt lat="43.51766" lon="6.32349">
        <ele>342.3</ele>
        <time>2023-09-15T14:25:52Z</time>
      </trkpt>
      <trkpt lat="43.51766" lon="6.32351">
        <ele>342.3</ele>
        <time>2023-09-15T14:25:53Z</time>
      </trkpt>
      <trkpt lat="43.51766" lon="6.32352">
        <ele>342.3</ele>
        <time>2023-09-15T14:25:54Z</time>
      </trkpt>
      <trkpt lat="43.51765" lon="6.32354">
        <ele>342.3</ele>
        <time>2023-09-15T14:25:55Z</time>
      </trkpt>
      <trkpt lat="43.51765" lon="6.32355">
        <ele>342.3</ele>
        <time>2023-09-15T14:25:56Z</time>
      </trkpt>
      <trkpt lat="43.51765" lon="6.32357">
        <ele>342.4</ele>
        <time>2023-09-15T14:25:57Z</time>
      </trkpt>
      <trkpt lat="43.51765" lon="6.32358">
        <ele>342.3</ele>
        <time>2023-09-15T14:25:58Z</time>
      </trkpt>
      <trkpt lat="43.51765" lon="6.3236">
        <ele>342.2</ele>
        <time>2023-09-15T14:25:59Z</time>
      </trkpt>
      <trkpt lat="43.51764" lon="6.32361">
        <ele>342.1</ele>
        <time>2023-09-15T14:26:00Z</time>
      </trkpt>
      <trkpt lat="43.51764" lon="6.32362">
        <ele>342.1</ele>
        <time>2023-09-15T14:26:01Z</time>
      </trkpt>
      <trkpt lat="43.51763" lon="6.32364">
        <ele>342.1</ele>
        <time>2023-09-15T14:26:02Z</time>
      </trkpt>
      <trkpt lat="43.51763" lon="6.32365">
        <ele>342.1</ele>
        <time>2023-09-15T14:26:03Z</time>
      </trkpt>
      <trkpt lat="43.51762" lon="6.32366">
        <ele>342.1</ele>
        <time>2023-09-15T14:26:04Z</time>
      </trkpt>
      <trkpt lat="43.51762" lon="6.32367">
        <ele>342.1</ele>
        <time>2023-09-15T14:26:05Z</time>
      </trkpt>
      <trkpt lat="43.51761" lon="6.32368">
        <ele>342.1</ele>
        <time>2023-09-15T14:26:06Z</time>
      </trkpt>
      <trkpt lat="43.5176" lon="6.32369">
        <ele>342.1</ele>
        <time>2023-09-15T14:26:07Z</time>
      </trkpt>
      <trkpt lat="43.5176" lon="6.3237">
        <ele>342.1</ele>
        <time>2023-09-15T14:26:08Z</time>
      </trkpt>
      <trkpt lat="43.51759" lon="6.32371">
        <ele>342</ele>
        <time>2023-09-15T14:26:09Z</time>
      </trkpt>
      <trkpt lat="43.51759" lon="6.32373">
        <ele>342</ele>
        <time>2023-09-15T14:26:10Z</time>
      </trkpt>
      <trkpt lat="43.51758" lon="6.32373">
        <ele>342.1</ele>
        <time>2023-09-15T14:26:11Z</time>
      </trkpt>
      <trkpt lat="43.51757" lon="6.32373">
        <ele>342.1</ele>
        <time>2023-09-15T14:26:12Z</time>
      </trkpt>
      <trkpt lat="43.51757" lon="6.32375">
        <ele>342.2</ele>
        <time>2023-09-15T14:26:13Z</time>
      </trkpt>
      <trkpt lat="43.51756" lon="6.32376">
        <ele>342.3</ele>
        <time>2023-09-15T14:26:14Z</time>
      </trkpt>
      <trkpt lat="43.51755" lon="6.32377">
        <ele>342.2</ele>
        <time>2023-09-15T14:26:15Z</time>
      </trkpt>
      <trkpt lat="43.51755" lon="6.32378">
        <ele>342.2</ele>
        <time>2023-09-15T14:26:16Z</time>
      </trkpt>
      <trkpt lat="43.51754" lon="6.32378">
        <ele>342.2</ele>
        <time>2023-09-15T14:26:17Z</time>
      </trkpt>
      <trkpt lat="43.51754" lon="6.32379">
        <ele>342.4</ele>
        <time>2023-09-15T14:26:18Z</time>
      </trkpt>
      <trkpt lat="43.51753" lon="6.32379">
        <ele>342.6</ele>
        <time>2023-09-15T14:26:19Z</time>
      </trkpt>
      <trkpt lat="43.51753" lon="6.3238">
        <ele>342.8</ele>
        <time>2023-09-15T14:26:20Z</time>
      </trkpt>
      <trkpt lat="43.51753" lon="6.32382">
        <ele>342.9</ele>
        <time>2023-09-15T14:26:21Z</time>
      </trkpt>
      <trkpt lat="43.51752" lon="6.32383">
        <ele>343</ele>
        <time>2023-09-15T14:26:22Z</time>
      </trkpt>
      <trkpt lat="43.51751" lon="6.32384">
        <ele>343.2</ele>
        <time>2023-09-15T14:26:23Z</time>
      </trkpt>
      <trkpt lat="43.51751" lon="6.32385">
        <ele>343.2</ele>
        <time>2023-09-15T14:26:24Z</time>
      </trkpt>
      <trkpt lat="43.51751" lon="6.32386">
        <ele>343.3</ele>
        <time>2023-09-15T14:26:25Z</time>
      </trkpt>
      <trkpt lat="43.5175" lon="6.32387">
        <ele>343.3</ele>
        <time>2023-09-15T14:26:26Z</time>
      </trkpt>
      <trkpt lat="43.5175" lon="6.32388">
        <ele>343.3</ele>
        <time>2023-09-15T14:26:27Z</time>
      </trkpt>
      <trkpt lat="43.51749" lon="6.32389">
        <ele>343.3</ele>
        <time>2023-09-15T14:26:28Z</time>
      </trkpt>
      <trkpt lat="43.51749" lon="6.3239">
        <ele>343.3</ele>
        <time>2023-09-15T14:26:29Z</time>
      </trkpt>
      <trkpt lat="43.51748" lon="6.32391">
        <ele>343.4</ele>
        <time>2023-09-15T14:26:30Z</time>
      </trkpt>
      <trkpt lat="43.51748" lon="6.32392">
        <ele>343.5</ele>
        <time>2023-09-15T14:26:31Z</time>
      </trkpt>
      <trkpt lat="43.51748" lon="6.32393">
        <ele>343.6</ele>
        <time>2023-09-15T14:26:32Z</time>
      </trkpt>
      <trkpt lat="43.51747" lon="6.32394">
        <ele>343.6</ele>
        <time>2023-09-15T14:26:33Z</time>
      </trkpt>
      <trkpt lat="43.51747" lon="6.32397">
        <ele>343.7</ele>
        <time>2023-09-15T14:26:34Z</time>
      </trkpt>
      <trkpt lat="43.51746" lon="6.32399">
        <ele>343.7</ele>
        <time>2023-09-15T14:26:35Z</time>
      </trkpt>
      <trkpt lat="43.51746" lon="6.324">
        <ele>343.7</ele>
        <time>2023-09-15T14:26:36Z</time>
      </trkpt>
      <trkpt lat="43.51746" lon="6.32401">
        <ele>343.7</ele>
        <time>2023-09-15T14:26:37Z</time>
      </trkpt>
      <trkpt lat="43.51745" lon="6.32402">
        <ele>343.8</ele>
        <time>2023-09-15T14:26:38Z</time>
      </trkpt>
      <trkpt lat="43.51745" lon="6.32404">
        <ele>343.8</ele>
        <time>2023-09-15T14:26:39Z</time>
      </trkpt>
      <trkpt lat="43.51745" lon="6.32406">
        <ele>343.9</ele>
        <time>2023-09-15T14:26:40Z</time>
      </trkpt>
      <trkpt lat="43.51745" lon="6.32407">
        <ele>344</ele>
        <time>2023-09-15T14:26:41Z</time>
      </trkpt>
      <trkpt lat="43.51745" lon="6.32408">
        <ele>344</ele>
        <time>2023-09-15T14:26:42Z</time>
      </trkpt>
      <trkpt lat="43.51744" lon="6.3241">
        <ele>344</ele>
        <time>2023-09-15T14:26:43Z</time>
      </trkpt>
      <trkpt lat="43.51744" lon="6.32412">
        <ele>344.1</ele>
        <time>2023-09-15T14:26:44Z</time>
      </trkpt>
      <trkpt lat="43.51744" lon="6.32413">
        <ele>344</ele>
        <time>2023-09-15T14:26:45Z</time>
      </trkpt>
      <trkpt lat="43.51743" lon="6.32414">
        <ele>344</ele>
        <time>2023-09-15T14:26:46Z</time>
      </trkpt>
      <trkpt lat="43.51743" lon="6.32416">
        <ele>344.1</ele>
        <time>2023-09-15T14:26:47Z</time>
      </trkpt>
      <trkpt lat="43.51744" lon="6.32418">
        <ele>344.1</ele>
        <time>2023-09-15T14:26:48Z</time>
      </trkpt>
      <trkpt lat="43.51743" lon="6.3242">
        <ele>344.2</ele>
        <time>2023-09-15T14:26:49Z</time>
      </trkpt>
      <trkpt lat="43.51743" lon="6.32422">
        <ele>344.3</ele>
        <time>2023-09-15T14:26:50Z</time>
      </trkpt>
      <trkpt lat="43.51743" lon="6.32423">
        <ele>344.4</ele>
        <time>2023-09-15T14:26:51Z</time>
      </trkpt>
      <trkpt lat="43.51742" lon="6.32424">
        <ele>344.5</ele>
        <time>2023-09-15T14:26:52Z</time>
      </trkpt>
      <trkpt lat="43.51742" lon="6.32426">
        <ele>344.6</ele>
        <time>2023-09-15T14:26:53Z</time>
      </trkpt>
      <trkpt lat="43.51741" lon="6.32426">
        <ele>344.6</ele>
        <time>2023-09-15T14:26:54Z</time>
      </trkpt>
      <trkpt lat="43.51741" lon="6.32427">
        <ele>344.6</ele>
        <time>2023-09-15T14:26:55Z</time>
      </trkpt>
      <trkpt lat="43.51741" lon="6.32429">
        <ele>344.6</ele>
        <time>2023-09-15T14:26:56Z</time>
      </trkpt>
      <trkpt lat="43.5174" lon="6.3243">
        <ele>344.6</ele>
        <time>2023-09-15T14:26:57Z</time>
      </trkpt>
      <trkpt lat="43.5174" lon="6.32431">
        <ele>344.7</ele>
        <time>2023-09-15T14:26:58Z</time>
      </trkpt>
      <trkpt lat="43.51739" lon="6.32432">
        <ele>344.6</ele>
        <time>2023-09-15T14:26:59Z</time>
      </trkpt>
      <trkpt lat="43.51739" lon="6.32433">
        <ele>344.7</ele>
        <time>2023-09-15T14:27:00Z</time>
      </trkpt>
      <trkpt lat="43.51738" lon="6.32435">
        <ele>344.7</ele>
        <time>2023-09-15T14:27:01Z</time>
      </trkpt>
      <trkpt lat="43.51738" lon="6.32436">
        <ele>344.8</ele>
        <time>2023-09-15T14:27:02Z</time>
      </trkpt>
      <trkpt lat="43.51737" lon="6.32437">
        <ele>344.8</ele>
        <time>2023-09-15T14:27:03Z</time>
      </trkpt>
      <trkpt lat="43.51737" lon="6.32438">
        <ele>344.9</ele>
        <time>2023-09-15T14:27:04Z</time>
      </trkpt>
      <trkpt lat="43.51736" lon="6.32439">
        <ele>344.9</ele>
        <time>2023-09-15T14:27:05Z</time>
      </trkpt>
      <trkpt lat="43.51736" lon="6.32441">
        <ele>344.9</ele>
        <time>2023-09-15T14:27:06Z</time>
      </trkpt>
      <trkpt lat="43.51735" lon="6.32442">
        <ele>344.9</ele>
        <time>2023-09-15T14:27:07Z</time>
      </trkpt>
      <trkpt lat="43.51735" lon="6.32443">
        <ele>345</ele>
        <time>2023-09-15T14:27:08Z</time>
      </trkpt>
      <trkpt lat="43.51734" lon="6.32444">
        <ele>345.1</ele>
        <time>2023-09-15T14:27:09Z</time>
      </trkpt>
      <trkpt lat="43.51734" lon="6.32445">
        <ele>345.2</ele>
        <time>2023-09-15T14:27:10Z</time>
      </trkpt>
      <trkpt lat="43.51734" lon="6.32446">
        <ele>345.2</ele>
        <time>2023-09-15T14:27:11Z</time>
      </trkpt>
      <trkpt lat="43.51734" lon="6.32448">
        <ele>345.2</ele>
        <time>2023-09-15T14:27:12Z</time>
      </trkpt>
      <trkpt lat="43.51734" lon="6.32449">
        <ele>345.2</ele>
        <time>2023-09-15T14:27:13Z</time>
      </trkpt>
      <trkpt lat="43.51734" lon="6.3245">
        <ele>345.2</ele>
        <time>2023-09-15T14:27:14Z</time>
      </trkpt>
      <trkpt lat="43.51734" lon="6.32451">
        <ele>345.1</ele>
        <time>2023-09-15T14:27:15Z</time>
      </trkpt>
      <trkpt lat="43.51734" lon="6.32452">
        <ele>345.1</ele>
        <time>2023-09-15T14:27:16Z</time>
      </trkpt>
      <trkpt lat="43.51734" lon="6.32452">
        <ele>345.2</ele>
        <time>2023-09-15T14:27:17Z</time>
      </trkpt>
      <trkpt lat="43.51734" lon="6.32452">
        <ele>345.2</ele>
        <time>2023-09-15T14:27:18Z</time>
      </trkpt>
      <trkpt lat="43.51734" lon="6.32453">
        <ele>345.2</ele>
        <time>2023-09-15T14:27:19Z</time>
      </trkpt>
      <trkpt lat="43.51734" lon="6.32454">
        <ele>345.2</ele>
        <time>2023-09-15T14:27:20Z</time>
      </trkpt>
      <trkpt lat="43.51734" lon="6.32455">
        <ele>345.2</ele>
        <time>2023-09-15T14:27:21Z</time>
      </trkpt>
      <trkpt lat="43.51734" lon="6.32456">
        <ele>345.3</ele>
        <time>2023-09-15T14:27:22Z</time>
      </trkpt>
      <trkpt lat="43.51734" lon="6.32458">
        <ele>345.3</ele>
        <time>2023-09-15T14:27:23Z</time>
      </trkpt>
      <trkpt lat="43.51735" lon="6.32459">
        <ele>345.3</ele>
        <time>2023-09-15T14:27:24Z</time>
      </trkpt>
      <trkpt lat="43.51735" lon="6.32461">
        <ele>345.3</ele>
        <time>2023-09-15T14:27:25Z</time>
      </trkpt>
      <trkpt lat="43.51736" lon="6.32462">
        <ele>345.3</ele>
        <time>2023-09-15T14:27:26Z</time>
      </trkpt>
      <trkpt lat="43.51736" lon="6.32463">
        <ele>345.2</ele>
        <time>2023-09-15T14:27:27Z</time>
      </trkpt>
      <trkpt lat="43.51737" lon="6.32465">
        <ele>345.2</ele>
        <time>2023-09-15T14:27:28Z</time>
      </trkpt>
      <trkpt lat="43.51737" lon="6.32466">
        <ele>345.2</ele>
        <time>2023-09-15T14:27:29Z</time>
      </trkpt>
      <trkpt lat="43.51738" lon="6.32468">
        <ele>345.2</ele>
        <time>2023-09-15T14:27:30Z</time>
      </trkpt>
      <trkpt lat="43.51738" lon="6.32469">
        <ele>345.3</ele>
        <time>2023-09-15T14:27:31Z</time>
      </trkpt>
      <trkpt lat="43.51739" lon="6.3247">
        <ele>345.4</ele>
        <time>2023-09-15T14:27:32Z</time>
      </trkpt>
      <trkpt lat="43.51739" lon="6.32472">
        <ele>345.4</ele>
        <time>2023-09-15T14:27:33Z</time>
      </trkpt>
      <trkpt lat="43.51739" lon="6.32474">
        <ele>345.5</ele>
        <time>2023-09-15T14:27:34Z</time>
      </trkpt>
      <trkpt lat="43.51739" lon="6.32475">
        <ele>345.5</ele>
        <time>2023-09-15T14:27:35Z</time>
      </trkpt>
      <trkpt lat="43.5174" lon="6.32476">
        <ele>345.5</ele>
        <time>2023-09-15T14:27:36Z</time>
      </trkpt>
      <trkpt lat="43.5174" lon="6.32478">
        <ele>345.6</ele>
        <time>2023-09-15T14:27:37Z</time>
      </trkpt>
      <trkpt lat="43.5174" lon="6.32479">
        <ele>345.7</ele>
        <time>2023-09-15T14:27:38Z</time>
      </trkpt>
      <trkpt lat="43.51741" lon="6.32481">
        <ele>345.7</ele>
        <time>2023-09-15T14:27:39Z</time>
      </trkpt>
      <trkpt lat="43.51741" lon="6.32482">
        <ele>345.7</ele>
        <time>2023-09-15T14:27:40Z</time>
      </trkpt>
      <trkpt lat="43.51741" lon="6.32483">
        <ele>345.7</ele>
        <time>2023-09-15T14:27:41Z</time>
      </trkpt>
      <trkpt lat="43.51742" lon="6.32484">
        <ele>345.7</ele>
        <time>2023-09-15T14:27:42Z</time>
      </trkpt>
      <trkpt lat="43.51742" lon="6.32486">
        <ele>345.8</ele>
        <time>2023-09-15T14:27:43Z</time>
      </trkpt>
      <trkpt lat="43.51743" lon="6.32487">
        <ele>345.8</ele>
        <time>2023-09-15T14:27:44Z</time>
      </trkpt>
      <trkpt lat="43.51743" lon="6.32489">
        <ele>345.8</ele>
        <time>2023-09-15T14:27:45Z</time>
      </trkpt>
      <trkpt lat="43.51743" lon="6.3249">
        <ele>345.8</ele>
        <time>2023-09-15T14:27:46Z</time>
      </trkpt>
      <trkpt lat="43.51744" lon="6.32492">
        <ele>345.9</ele>
        <time>2023-09-15T14:27:47Z</time>
      </trkpt>
      <trkpt lat="43.51744" lon="6.32494">
        <ele>345.8</ele>
        <time>2023-09-15T14:27:48Z</time>
      </trkpt>
      <trkpt lat="43.51745" lon="6.32496">
        <ele>345.8</ele>
        <time>2023-09-15T14:27:49Z</time>
      </trkpt>
      <trkpt lat="43.51745" lon="6.32497">
        <ele>345.7</ele>
        <time>2023-09-15T14:27:50Z</time>
      </trkpt>
      <trkpt lat="43.51745" lon="6.32498">
        <ele>345.8</ele>
        <time>2023-09-15T14:27:51Z</time>
      </trkpt>
      <trkpt lat="43.51746" lon="6.325">
        <ele>345.8</ele>
        <time>2023-09-15T14:27:52Z</time>
      </trkpt>
      <trkpt lat="43.51746" lon="6.32501">
        <ele>345.8</ele>
        <time>2023-09-15T14:27:53Z</time>
      </trkpt>
      <trkpt lat="43.51746" lon="6.32503">
        <ele>345.8</ele>
        <time>2023-09-15T14:27:54Z</time>
      </trkpt>
      <trkpt lat="43.51747" lon="6.32504">
        <ele>345.7</ele>
        <time>2023-09-15T14:27:55Z</time>
      </trkpt>
      <trkpt lat="43.51747" lon="6.32506">
        <ele>345.6</ele>
        <time>2023-09-15T14:27:56Z</time>
      </trkpt>
      <trkpt lat="43.51747" lon="6.32507">
        <ele>345.6</ele>
        <time>2023-09-15T14:27:57Z</time>
      </trkpt>
      <trkpt lat="43.51748" lon="6.32509">
        <ele>345.5</ele>
        <time>2023-09-15T14:27:58Z</time>
      </trkpt>
      <trkpt lat="43.51748" lon="6.3251">
        <ele>345.5</ele>
        <time>2023-09-15T14:27:59Z</time>
      </trkpt>
      <trkpt lat="43.51748" lon="6.32512">
        <ele>345.4</ele>
        <time>2023-09-15T14:28:00Z</time>
      </trkpt>
      <trkpt lat="43.51748" lon="6.32514">
        <ele>345.3</ele>
        <time>2023-09-15T14:28:01Z</time>
      </trkpt>
      <trkpt lat="43.51748" lon="6.32515">
        <ele>345.3</ele>
        <time>2023-09-15T14:28:02Z</time>
      </trkpt>
      <trkpt lat="43.51748" lon="6.32517">
        <ele>345.3</ele>
        <time>2023-09-15T14:28:03Z</time>
      </trkpt>
      <trkpt lat="43.51748" lon="6.32518">
        <ele>345.3</ele>
        <time>2023-09-15T14:28:04Z</time>
      </trkpt>
      <trkpt lat="43.51749" lon="6.3252">
        <ele>345.3</ele>
        <time>2023-09-15T14:28:05Z</time>
      </trkpt>
      <trkpt lat="43.51749" lon="6.32521">
        <ele>345.3</ele>
        <time>2023-09-15T14:28:06Z</time>
      </trkpt>
      <trkpt lat="43.51749" lon="6.32523">
        <ele>345.2</ele>
        <time>2023-09-15T14:28:07Z</time>
      </trkpt>
      <trkpt lat="43.51749" lon="6.32524">
        <ele>345.3</ele>
        <time>2023-09-15T14:28:08Z</time>
      </trkpt>
      <trkpt lat="43.5175" lon="6.32525">
        <ele>345.2</ele>
        <time>2023-09-15T14:28:09Z</time>
      </trkpt>
      <trkpt lat="43.5175" lon="6.32527">
        <ele>345.2</ele>
        <time>2023-09-15T14:28:10Z</time>
      </trkpt>
      <trkpt lat="43.5175" lon="6.32528">
        <ele>345.1</ele>
        <time>2023-09-15T14:28:11Z</time>
      </trkpt>
      <trkpt lat="43.51749" lon="6.3253">
        <ele>345.1</ele>
        <time>2023-09-15T14:28:12Z</time>
      </trkpt>
      <trkpt lat="43.5175" lon="6.32531">
        <ele>345</ele>
        <time>2023-09-15T14:28:13Z</time>
      </trkpt>
      <trkpt lat="43.5175" lon="6.32531">
        <ele>345</ele>
        <time>2023-09-15T14:28:14Z</time>
      </trkpt>
      <trkpt lat="43.5175" lon="6.32532">
        <ele>344.9</ele>
        <time>2023-09-15T14:28:15Z</time>
      </trkpt>
      <trkpt lat="43.5175" lon="6.32533">
        <ele>344.9</ele>
        <time>2023-09-15T14:28:16Z</time>
      </trkpt>
      <trkpt lat="43.5175" lon="6.32535">
        <ele>344.8</ele>
        <time>2023-09-15T14:28:17Z</time>
      </trkpt>
      <trkpt lat="43.5175" lon="6.32536">
        <ele>344.7</ele>
        <time>2023-09-15T14:28:18Z</time>
      </trkpt>
      <trkpt lat="43.5175" lon="6.32537">
        <ele>344.7</ele>
        <time>2023-09-15T14:28:19Z</time>
      </trkpt>
      <trkpt lat="43.5175" lon="6.32537">
        <ele>344.6</ele>
        <time>2023-09-15T14:28:20Z</time>
      </trkpt>
      <trkpt lat="43.5175" lon="6.32539">
        <ele>344.5</ele>
        <time>2023-09-15T14:28:21Z</time>
      </trkpt>
      <trkpt lat="43.5175" lon="6.32541">
        <ele>344.3</ele>
        <time>2023-09-15T14:28:22Z</time>
      </trkpt>
      <trkpt lat="43.51749" lon="6.32542">
        <ele>344.2</ele>
        <time>2023-09-15T14:28:23Z</time>
      </trkpt>
      <trkpt lat="43.51749" lon="6.32543">
        <ele>344.1</ele>
        <time>2023-09-15T14:28:24Z</time>
      </trkpt>
      <trkpt lat="43.51749" lon="6.32545">
        <ele>344</ele>
        <time>2023-09-15T14:28:25Z</time>
      </trkpt>
      <trkpt lat="43.51749" lon="6.32546">
        <ele>343.9</ele>
        <time>2023-09-15T14:28:26Z</time>
      </trkpt>
      <trkpt lat="43.51749" lon="6.32547">
        <ele>343.9</ele>
        <time>2023-09-15T14:28:27Z</time>
      </trkpt>
      <trkpt lat="43.51748" lon="6.32549">
        <ele>343.8</ele>
        <time>2023-09-15T14:28:28Z</time>
      </trkpt>
      <trkpt lat="43.51748" lon="6.3255">
        <ele>343.9</ele>
        <time>2023-09-15T14:28:29Z</time>
      </trkpt>
      <trkpt lat="43.51748" lon="6.32551">
        <ele>343.9</ele>
        <time>2023-09-15T14:28:30Z</time>
      </trkpt>
      <trkpt lat="43.51748" lon="6.32552">
        <ele>343.9</ele>
        <time>2023-09-15T14:28:31Z</time>
      </trkpt>
      <trkpt lat="43.51748" lon="6.32553">
        <ele>344</ele>
        <time>2023-09-15T14:28:32Z</time>
      </trkpt>
      <trkpt lat="43.51748" lon="6.32554">
        <ele>344</ele>
        <time>2023-09-15T14:28:33Z</time>
      </trkpt>
      <trkpt lat="43.51747" lon="6.32556">
        <ele>343.9</ele>
        <time>2023-09-15T14:28:34Z</time>
      </trkpt>
      <trkpt lat="43.51747" lon="6.32557">
        <ele>343.8</ele>
        <time>2023-09-15T14:28:35Z</time>
      </trkpt>
      <trkpt lat="43.51747" lon="6.32558">
        <ele>343.8</ele>
        <time>2023-09-15T14:28:36Z</time>
      </trkpt>
      <trkpt lat="43.51747" lon="6.32559">
        <ele>343.8</ele>
        <time>2023-09-15T14:28:37Z</time>
      </trkpt>
      <trkpt lat="43.51747" lon="6.32561">
        <ele>343.8</ele>
        <time>2023-09-15T14:28:38Z</time>
      </trkpt>
      <trkpt lat="43.51746" lon="6.32562">
        <ele>343.7</ele>
        <time>2023-09-15T14:28:39Z</time>
      </trkpt>
      <trkpt lat="43.51746" lon="6.32563">
        <ele>343.6</ele>
        <time>2023-09-15T14:28:40Z</time>
      </trkpt>
      <trkpt lat="43.51746" lon="6.32565">
        <ele>343.7</ele>
        <time>2023-09-15T14:28:41Z</time>
      </trkpt>
      <trkpt lat="43.51745" lon="6.32566">
        <ele>343.7</ele>
        <time>2023-09-15T14:28:42Z</time>
      </trkpt>
      <trkpt lat="43.51745" lon="6.32568">
        <ele>343.7</ele>
        <time>2023-09-15T14:28:43Z</time>
      </trkpt>
      <trkpt lat="43.51745" lon="6.32569">
        <ele>343.6</ele>
        <time>2023-09-15T14:28:44Z</time>
      </trkpt>
      <trkpt lat="43.51744" lon="6.3257">
        <ele>343.6</ele>
        <time>2023-09-15T14:28:45Z</time>
      </trkpt>
      <trkpt lat="43.51744" lon="6.32571">
        <ele>343.6</ele>
        <time>2023-09-15T14:28:46Z</time>
      </trkpt>
      <trkpt lat="43.51744" lon="6.32572">
        <ele>343.6</ele>
        <time>2023-09-15T14:28:47Z</time>
      </trkpt>
      <trkpt lat="43.51744" lon="6.32574">
        <ele>343.5</ele>
        <time>2023-09-15T14:28:48Z</time>
      </trkpt>
      <trkpt lat="43.51743" lon="6.32575">
        <ele>343.5</ele>
        <time>2023-09-15T14:28:49Z</time>
      </trkpt>
      <trkpt lat="43.51743" lon="6.32576">
        <ele>343.4</ele>
        <time>2023-09-15T14:28:50Z</time>
      </trkpt>
      <trkpt lat="43.51743" lon="6.32578">
        <ele>343.3</ele>
        <time>2023-09-15T14:28:51Z</time>
      </trkpt>
      <trkpt lat="43.51743" lon="6.32579">
        <ele>343.3</ele>
        <time>2023-09-15T14:28:52Z</time>
      </trkpt>
      <trkpt lat="43.51742" lon="6.3258">
        <ele>343.2</ele>
        <time>2023-09-15T14:28:53Z</time>
      </trkpt>
      <trkpt lat="43.51742" lon="6.32582">
        <ele>343.2</ele>
        <time>2023-09-15T14:28:54Z</time>
      </trkpt>
      <trkpt lat="43.51742" lon="6.32583">
        <ele>343.2</ele>
        <time>2023-09-15T14:28:55Z</time>
      </trkpt>
      <trkpt lat="43.51741" lon="6.32584">
        <ele>343.2</ele>
        <time>2023-09-15T14:28:56Z</time>
      </trkpt>
      <trkpt lat="43.51741" lon="6.32585">
        <ele>343.2</ele>
        <time>2023-09-15T14:28:57Z</time>
      </trkpt>
      <trkpt lat="43.5174" lon="6.32587">
        <ele>343.1</ele>
        <time>2023-09-15T14:28:58Z</time>
      </trkpt>
      <trkpt lat="43.5174" lon="6.32588">
        <ele>343</ele>
        <time>2023-09-15T14:28:59Z</time>
      </trkpt>
      <trkpt lat="43.51739" lon="6.32589">
        <ele>342.9</ele>
        <time>2023-09-15T14:29:00Z</time>
      </trkpt>
      <trkpt lat="43.51739" lon="6.3259">
        <ele>342.8</ele>
        <time>2023-09-15T14:29:01Z</time>
      </trkpt>
      <trkpt lat="43.51738" lon="6.32592">
        <ele>342.8</ele>
        <time>2023-09-15T14:29:02Z</time>
      </trkpt>
      <trkpt lat="43.51738" lon="6.32593">
        <ele>342.7</ele>
        <time>2023-09-15T14:29:03Z</time>
      </trkpt>
      <trkpt lat="43.51737" lon="6.32595">
        <ele>342.6</ele>
        <time>2023-09-15T14:29:04Z</time>
      </trkpt>
      <trkpt lat="43.51737" lon="6.32596">
        <ele>342.5</ele>
        <time>2023-09-15T14:29:05Z</time>
      </trkpt>
      <trkpt lat="43.51736" lon="6.32597">
        <ele>342.4</ele>
        <time>2023-09-15T14:29:06Z</time>
      </trkpt>
      <trkpt lat="43.51736" lon="6.32599">
        <ele>342.4</ele>
        <time>2023-09-15T14:29:07Z</time>
      </trkpt>
      <trkpt lat="43.51736" lon="6.326">
        <ele>342.4</ele>
        <time>2023-09-15T14:29:08Z</time>
      </trkpt>
      <trkpt lat="43.51735" lon="6.32601">
        <ele>342.5</ele>
        <time>2023-09-15T14:29:09Z</time>
      </trkpt>
      <trkpt lat="43.51735" lon="6.32603">
        <ele>342.5</ele>
        <time>2023-09-15T14:29:10Z</time>
      </trkpt>
      <trkpt lat="43.51734" lon="6.32604">
        <ele>342.6</ele>
        <time>2023-09-15T14:29:11Z</time>
      </trkpt>
      <trkpt lat="43.51734" lon="6.32605">
        <ele>342.5</ele>
        <time>2023-09-15T14:29:12Z</time>
      </trkpt>
      <trkpt lat="43.51734" lon="6.32606">
        <ele>342.6</ele>
        <time>2023-09-15T14:29:13Z</time>
      </trkpt>
      <trkpt lat="43.51733" lon="6.32607">
        <ele>342.5</ele>
        <time>2023-09-15T14:29:14Z</time>
      </trkpt>
      <trkpt lat="43.51733" lon="6.32608">
        <ele>342.5</ele>
        <time>2023-09-15T14:29:15Z</time>
      </trkpt>
      <trkpt lat="43.51732" lon="6.3261">
        <ele>342.6</ele>
        <time>2023-09-15T14:29:16Z</time>
      </trkpt>
      <trkpt lat="43.51732" lon="6.32611">
        <ele>342.5</ele>
        <time>2023-09-15T14:29:17Z</time>
      </trkpt>
      <trkpt lat="43.51731" lon="6.32612">
        <ele>342.5</ele>
        <time>2023-09-15T14:29:18Z</time>
      </trkpt>
      <trkpt lat="43.51731" lon="6.32613">
        <ele>342.4</ele>
        <time>2023-09-15T14:29:19Z</time>
      </trkpt>
      <trkpt lat="43.51731" lon="6.32615">
        <ele>342.4</ele>
        <time>2023-09-15T14:29:20Z</time>
      </trkpt>
      <trkpt lat="43.5173" lon="6.32616">
        <ele>342.4</ele>
        <time>2023-09-15T14:29:21Z</time>
      </trkpt>
      <trkpt lat="43.5173" lon="6.32617">
        <ele>342.4</ele>
        <time>2023-09-15T14:29:22Z</time>
      </trkpt>
      <trkpt lat="43.5173" lon="6.32619">
        <ele>342.3</ele>
        <time>2023-09-15T14:29:23Z</time>
      </trkpt>
      <trkpt lat="43.51729" lon="6.3262">
        <ele>342.3</ele>
        <time>2023-09-15T14:29:24Z</time>
      </trkpt>
      <trkpt lat="43.51729" lon="6.32621">
        <ele>342.3</ele>
        <time>2023-09-15T14:29:25Z</time>
      </trkpt>
      <trkpt lat="43.51729" lon="6.32622">
        <ele>342.3</ele>
        <time>2023-09-15T14:29:26Z</time>
      </trkpt>
      <trkpt lat="43.51728" lon="6.32624">
        <ele>342.3</ele>
        <time>2023-09-15T14:29:27Z</time>
      </trkpt>
      <trkpt lat="43.51728" lon="6.32625">
        <ele>342.4</ele>
        <time>2023-09-15T14:29:28Z</time>
      </trkpt>
      <trkpt lat="43.51728" lon="6.32626">
        <ele>342.5</ele>
        <time>2023-09-15T14:29:29Z</time>
      </trkpt>
      <trkpt lat="43.51727" lon="6.32628">
        <ele>342.5</ele>
        <time>2023-09-15T14:29:30Z</time>
      </trkpt>
      <trkpt lat="43.51727" lon="6.32629">
        <ele>342.5</ele>
        <time>2023-09-15T14:29:31Z</time>
      </trkpt>
      <trkpt lat="43.51726" lon="6.3263">
        <ele>342.6</ele>
        <time>2023-09-15T14:29:32Z</time>
      </trkpt>
      <trkpt lat="43.51726" lon="6.32631">
        <ele>342.7</ele>
        <time>2023-09-15T14:29:33Z</time>
      </trkpt>
      <trkpt lat="43.51726" lon="6.32633">
        <ele>342.8</ele>
        <time>2023-09-15T14:29:34Z</time>
      </trkpt>
      <trkpt lat="43.51726" lon="6.32634">
        <ele>343</ele>
        <time>2023-09-15T14:29:35Z</time>
      </trkpt>
      <trkpt lat="43.51725" lon="6.32635">
        <ele>343.1</ele>
        <time>2023-09-15T14:29:36Z</time>
      </trkpt>
      <trkpt lat="43.51725" lon="6.32636">
        <ele>343.1</ele>
        <time>2023-09-15T14:29:37Z</time>
      </trkpt>
      <trkpt lat="43.51724" lon="6.32638">
        <ele>343.1</ele>
        <time>2023-09-15T14:29:38Z</time>
      </trkpt>
      <trkpt lat="43.51724" lon="6.32639">
        <ele>343.1</ele>
        <time>2023-09-15T14:29:39Z</time>
      </trkpt>
      <trkpt lat="43.51724" lon="6.3264">
        <ele>343.2</ele>
        <time>2023-09-15T14:29:40Z</time>
      </trkpt>
      <trkpt lat="43.51723" lon="6.32641">
        <ele>343.2</ele>
        <time>2023-09-15T14:29:41Z</time>
      </trkpt>
      <trkpt lat="43.51723" lon="6.32642">
        <ele>343.2</ele>
        <time>2023-09-15T14:29:42Z</time>
      </trkpt>
      <trkpt lat="43.51722" lon="6.32643">
        <ele>343.2</ele>
        <time>2023-09-15T14:29:43Z</time>
      </trkpt>
      <trkpt lat="43.51722" lon="6.32644">
        <ele>343.2</ele>
        <time>2023-09-15T14:29:44Z</time>
      </trkpt>
      <trkpt lat="43.51721" lon="6.32645">
        <ele>343.1</ele>
        <time>2023-09-15T14:29:45Z</time>
      </trkpt>
      <trkpt lat="43.51721" lon="6.32646">
        <ele>343.1</ele>
        <time>2023-09-15T14:29:46Z</time>
      </trkpt>
      <trkpt lat="43.51721" lon="6.32646">
        <ele>343</ele>
        <time>2023-09-15T14:29:47Z</time>
      </trkpt>
      <trkpt lat="43.5172" lon="6.32647">
        <ele>343</ele>
        <time>2023-09-15T14:29:48Z</time>
      </trkpt>
      <trkpt lat="43.5172" lon="6.32648">
        <ele>343</ele>
        <time>2023-09-15T14:29:49Z</time>
      </trkpt>
      <trkpt lat="43.5172" lon="6.32649">
        <ele>343</ele>
        <time>2023-09-15T14:29:50Z</time>
      </trkpt>
      <trkpt lat="43.5172" lon="6.3265">
        <ele>342.9</ele>
        <time>2023-09-15T14:29:51Z</time>
      </trkpt>
      <trkpt lat="43.5172" lon="6.3265">
        <ele>342.9</ele>
        <time>2023-09-15T14:29:52Z</time>
      </trkpt>
      <trkpt lat="43.51719" lon="6.3265">
        <ele>343</ele>
        <time>2023-09-15T14:29:53Z</time>
      </trkpt>
      <trkpt lat="43.51719" lon="6.32651">
        <ele>342.8</ele>
        <time>2023-09-15T14:29:54Z</time>
      </trkpt>
      <trkpt lat="43.51719" lon="6.32651">
        <ele>342.8</ele>
        <time>2023-09-15T14:29:55Z</time>
      </trkpt>
      <trkpt lat="43.51719" lon="6.32651">
        <ele>342.8</ele>
        <time>2023-09-15T14:29:56Z</time>
      </trkpt>
      <trkpt lat="43.51719" lon="6.32651">
        <ele>342.8</ele>
        <time>2023-09-15T14:29:57Z</time>
      </trkpt>
      <trkpt lat="43.51719" lon="6.32651">
        <ele>342.8</ele>
        <time>2023-09-15T14:29:58Z</time>
      </trkpt>
      <trkpt lat="43.51719" lon="6.32651">
        <ele>342.9</ele>
        <time>2023-09-15T14:29:59Z</time>
      </trkpt>
      <trkpt lat="43.51719" lon="6.32651">
        <ele>342.9</ele>
        <time>2023-09-15T14:30:00Z</time>
      </trkpt>
      <trkpt lat="43.51719" lon="6.32651">
        <ele>342.9</ele>
        <time>2023-09-15T14:30:01Z</time>
      </trkpt>
      <trkpt lat="43.51719" lon="6.32652">
        <ele>342.9</ele>
        <time>2023-09-15T14:30:02Z</time>
      </trkpt>
      <trkpt lat="43.51719" lon="6.32653">
        <ele>342.9</ele>
        <time>2023-09-15T14:30:03Z</time>
      </trkpt>
      <trkpt lat="43.51719" lon="6.32653">
        <ele>342.9</ele>
        <time>2023-09-15T14:30:04Z</time>
      </trkpt>
      <trkpt lat="43.51719" lon="6.32654">
        <ele>342.9</ele>
        <time>2023-09-15T14:30:05Z</time>
      </trkpt>
      <trkpt lat="43.51719" lon="6.32654">
        <ele>342.8</ele>
        <time>2023-09-15T14:30:06Z</time>
      </trkpt>
      <trkpt lat="43.51719" lon="6.32654">
        <ele>342.8</ele>
        <time>2023-09-15T14:30:07Z</time>
      </trkpt>
      <trkpt lat="43.51719" lon="6.32654">
        <ele>342.8</ele>
        <time>2023-09-15T14:30:08Z</time>
      </trkpt>
      <trkpt lat="43.51719" lon="6.32654">
        <ele>342.7</ele>
        <time>2023-09-15T14:30:09Z</time>
      </trkpt>
      <trkpt lat="43.51719" lon="6.32654">
        <ele>342.7</ele>
        <time>2023-09-15T14:30:10Z</time>
      </trkpt>
      <trkpt lat="43.51719" lon="6.32654">
        <ele>342.8</ele>
        <time>2023-09-15T14:30:11Z</time>
      </trkpt>
      <trkpt lat="43.51719" lon="6.32654">
        <ele>342.8</ele>
        <time>2023-09-15T14:30:12Z</time>
      </trkpt>
      <trkpt lat="43.51719" lon="6.32654">
        <ele>342.8</ele>
        <time>2023-09-15T14:30:13Z</time>
      </trkpt>
      <trkpt lat="43.51718" lon="6.32654">
        <ele>342.7</ele>
        <time>2023-09-15T14:30:14Z</time>
      </trkpt>
      <trkpt lat="43.51718" lon="6.32654">
        <ele>342.7</ele>
        <time>2023-09-15T14:30:15Z</time>
      </trkpt>
      <trkpt lat="43.51718" lon="6.32654">
        <ele>342.7</ele>
        <time>2023-09-15T14:30:16Z</time>
      </trkpt>
      <trkpt lat="43.51718" lon="6.32654">
        <ele>342.6</ele>
        <time>2023-09-15T14:30:17Z</time>
      </trkpt>
      <trkpt lat="43.51718" lon="6.32654">
        <ele>342.6</ele>
        <time>2023-09-15T14:30:18Z</time>
      </trkpt>
      <trkpt lat="43.51718" lon="6.32654">
        <ele>342.6</ele>
        <time>2023-09-15T14:30:19Z</time>
      </trkpt>
      <trkpt lat="43.51718" lon="6.32654">
        <ele>342.5</ele>
        <time>2023-09-15T14:30:20Z</time>
      </trkpt>
      <trkpt lat="43.51718" lon="6.32654">
        <ele>342.4</ele>
        <time>2023-09-15T14:30:21Z</time>
      </trkpt>
      <trkpt lat="43.51718" lon="6.32654">
        <ele>342.4</ele>
        <time>2023-09-15T14:30:22Z</time>
      </trkpt>
      <trkpt lat="43.51718" lon="6.32654">
        <ele>342.4</ele>
        <time>2023-09-15T14:30:23Z</time>
      </trkpt>
      <trkpt lat="43.51718" lon="6.32654">
        <ele>342.3</ele>
        <time>2023-09-15T14:30:24Z</time>
      </trkpt>
      <trkpt lat="43.51718" lon="6.32654">
        <ele>342.4</ele>
        <time>2023-09-15T14:30:25Z</time>
      </trkpt>
      <trkpt lat="43.51718" lon="6.32655">
        <ele>342.4</ele>
        <time>2023-09-15T14:30:26Z</time>
      </trkpt>
      <trkpt lat="43.51718" lon="6.32655">
        <ele>342.4</ele>
        <time>2023-09-15T14:30:27Z</time>
      </trkpt>
      <trkpt lat="43.51718" lon="6.32655">
        <ele>342.5</ele>
        <time>2023-09-15T14:30:28Z</time>
      </trkpt>
      <trkpt lat="43.51718" lon="6.32655">
        <ele>342.5</ele>
        <time>2023-09-15T14:30:29Z</time>
      </trkpt>
      <trkpt lat="43.51719" lon="6.32655">
        <ele>342.4</ele>
        <time>2023-09-15T14:30:30Z</time>
      </trkpt>
      <trkpt lat="43.51719" lon="6.32655">
        <ele>342.5</ele>
        <time>2023-09-15T14:30:31Z</time>
      </trkpt>
      <trkpt lat="43.51719" lon="6.32655">
        <ele>342.5</ele>
        <time>2023-09-15T14:30:32Z</time>
      </trkpt>
      <trkpt lat="43.51719" lon="6.32655">
        <ele>342.4</ele>
        <time>2023-09-15T14:30:33Z</time>
      </trkpt>
      <trkpt lat="43.51719" lon="6.32655">
        <ele>342.5</ele>
        <time>2023-09-15T14:30:34Z</time>
      </trkpt>
      <trkpt lat="43.51719" lon="6.32655">
        <ele>342.5</ele>
        <time>2023-09-15T14:30:35Z</time>
      </trkpt>
      <trkpt lat="43.51719" lon="6.32655">
        <ele>342.5</ele>
        <time>2023-09-15T14:30:36Z</time>
      </trkpt>
      <trkpt lat="43.51719" lon="6.32655">
        <ele>342.5</ele>
        <time>2023-09-15T14:30:37Z</time>
      </trkpt>
      <trkpt lat="43.51719" lon="6.32654">
        <ele>342.6</ele>
        <time>2023-09-15T14:30:38Z</time>
      </trkpt>
      <trkpt lat="43.51719" lon="6.32654">
        <ele>342.7</ele>
        <time>2023-09-15T14:30:39Z</time>
      </trkpt>
      <trkpt lat="43.51719" lon="6.32654">
        <ele>342.7</ele>
        <time>2023-09-15T14:30:40Z</time>
      </trkpt>
      <trkpt lat="43.51719" lon="6.32654">
        <ele>342.7</ele>
        <time>2023-09-15T14:30:41Z</time>
      </trkpt>
      <trkpt lat="43.51719" lon="6.32654">
        <ele>342.8</ele>
        <time>2023-09-15T14:30:42Z</time>
      </trkpt>
      <trkpt lat="43.51719" lon="6.32654">
        <ele>342.8</ele>
        <time>2023-09-15T14:30:43Z</time>
      </trkpt>
      <trkpt lat="43.51719" lon="6.32654">
        <ele>342.8</ele>
        <time>2023-09-15T14:30:44Z</time>
      </trkpt>
      <trkpt lat="43.51719" lon="6.32654">
        <ele>342.8</ele>
        <time>2023-09-15T14:30:45Z</time>
      </trkpt>
      <trkpt lat="43.51719" lon="6.32654">
        <ele>342.9</ele>
        <time>2023-09-15T14:30:46Z</time>
      </trkpt>
      <trkpt lat="43.51719" lon="6.32654">
        <ele>342.8</ele>
        <time>2023-09-15T14:30:47Z</time>
      </trkpt>
      <trkpt lat="43.51719" lon="6.32654">
        <ele>342.8</ele>
        <time>2023-09-15T14:30:48Z</time>
      </trkpt>
      <trkpt lat="43.51719" lon="6.32654">
        <ele>342.8</ele>
        <time>2023-09-15T14:30:49Z</time>
      </trkpt>
      <trkpt lat="43.51719" lon="6.32654">
        <ele>342.7</ele>
        <time>2023-09-15T14:30:50Z</time>
      </trkpt>
      <trkpt lat="43.51719" lon="6.32654">
        <ele>342.8</ele>
        <time>2023-09-15T14:30:51Z</time>
      </trkpt>
      <trkpt lat="43.51719" lon="6.32655">
        <ele>342.8</ele>
        <time>2023-09-15T14:30:52Z</time>
      </trkpt>
      <trkpt lat="43.51719" lon="6.32655">
        <ele>342.7</ele>
        <time>2023-09-15T14:30:53Z</time>
      </trkpt>
      <trkpt lat="43.51718" lon="6.32656">
        <ele>342.6</ele>
        <time>2023-09-15T14:30:54Z</time>
      </trkpt>
      <trkpt lat="43.51718" lon="6.32657">
        <ele>342.6</ele>
        <time>2023-09-15T14:30:55Z</time>
      </trkpt>
      <trkpt lat="43.51718" lon="6.32658">
        <ele>342.6</ele>
        <time>2023-09-15T14:30:56Z</time>
      </trkpt>
      <trkpt lat="43.51718" lon="6.32659">
        <ele>342.5</ele>
        <time>2023-09-15T14:30:57Z</time>
      </trkpt>
      <trkpt lat="43.51718" lon="6.32659">
        <ele>342.5</ele>
        <time>2023-09-15T14:30:58Z</time>
      </trkpt>
      <trkpt lat="43.51718" lon="6.3266">
        <ele>342.6</ele>
        <time>2023-09-15T14:30:59Z</time>
      </trkpt>
      <trkpt lat="43.51717" lon="6.3266">
        <ele>342.8</ele>
        <time>2023-09-15T14:31:00Z</time>
      </trkpt>
      <trkpt lat="43.51717" lon="6.32661">
        <ele>342.7</ele>
        <time>2023-09-15T14:31:01Z</time>
      </trkpt>
      <trkpt lat="43.51716" lon="6.32661">
        <ele>342.7</ele>
        <time>2023-09-15T14:31:02Z</time>
      </trkpt>
      <trkpt lat="43.51716" lon="6.32662">
        <ele>342.7</ele>
        <time>2023-09-15T14:31:03Z</time>
      </trkpt>
      <trkpt lat="43.51716" lon="6.32662">
        <ele>342.8</ele>
        <time>2023-09-15T14:31:04Z</time>
      </trkpt>
      <trkpt lat="43.51716" lon="6.32662">
        <ele>342.7</ele>
        <time>2023-09-15T14:31:05Z</time>
      </trkpt>
      <trkpt lat="43.51715" lon="6.32663">
        <ele>342.6</ele>
        <time>2023-09-15T14:31:06Z</time>
      </trkpt>
      <trkpt lat="43.51715" lon="6.32662">
        <ele>342.7</ele>
        <time>2023-09-15T14:31:07Z</time>
      </trkpt>
      <trkpt lat="43.51715" lon="6.32662">
        <ele>342.7</ele>
        <time>2023-09-15T14:31:08Z</time>
      </trkpt>
      <trkpt lat="43.51715" lon="6.32662">
        <ele>342.7</ele>
        <time>2023-09-15T14:31:09Z</time>
      </trkpt>
      <trkpt lat="43.51716" lon="6.32662">
        <ele>342.7</ele>
        <time>2023-09-15T14:31:10Z</time>
      </trkpt>
      <trkpt lat="43.51716" lon="6.32662">
        <ele>342.7</ele>
        <time>2023-09-15T14:31:11Z</time>
      </trkpt>
      <trkpt lat="43.51716" lon="6.32662">
        <ele>342.7</ele>
        <time>2023-09-15T14:31:12Z</time>
      </trkpt>
      <trkpt lat="43.51716" lon="6.32662">
        <ele>342.6</ele>
        <time>2023-09-15T14:31:13Z</time>
      </trkpt>
      <trkpt lat="43.51716" lon="6.32662">
        <ele>342.6</ele>
        <time>2023-09-15T14:31:14Z</time>
      </trkpt>
      <trkpt lat="43.51716" lon="6.32662">
        <ele>342.7</ele>
        <time>2023-09-15T14:31:15Z</time>
      </trkpt>
      <trkpt lat="43.51716" lon="6.32662">
        <ele>342.6</ele>
        <time>2023-09-15T14:31:16Z</time>
      </trkpt>
      <trkpt lat="43.51716" lon="6.32662">
        <ele>342.7</ele>
        <time>2023-09-15T14:31:17Z</time>
      </trkpt>
      <trkpt lat="43.51716" lon="6.32662">
        <ele>342.6</ele>
        <time>2023-09-15T14:31:18Z</time>
      </trkpt>
      <trkpt lat="43.51716" lon="6.32662">
        <ele>342.6</ele>
        <time>2023-09-15T14:31:19Z</time>
      </trkpt>
      <trkpt lat="43.51716" lon="6.32662">
        <ele>342.6</ele>
        <time>2023-09-15T14:31:20Z</time>
      </trkpt>
      <trkpt lat="43.51717" lon="6.32662">
        <ele>342.6</ele>
        <time>2023-09-15T14:31:21Z</time>
      </trkpt>
      <trkpt lat="43.51717" lon="6.32661">
        <ele>342.6</ele>
        <time>2023-09-15T14:31:22Z</time>
      </trkpt>
      <trkpt lat="43.51717" lon="6.32661">
        <ele>342.6</ele>
        <time>2023-09-15T14:31:23Z</time>
      </trkpt>
      <trkpt lat="43.51717" lon="6.32662">
        <ele>342.6</ele>
        <time>2023-09-15T14:31:24Z</time>
      </trkpt>
      <trkpt lat="43.51717" lon="6.32662">
        <ele>342.5</ele>
        <time>2023-09-15T14:31:25Z</time>
      </trkpt>
      <trkpt lat="43.51717" lon="6.32662">
        <ele>342.5</ele>
        <time>2023-09-15T14:31:26Z</time>
      </trkpt>
      <trkpt lat="43.51717" lon="6.32662">
        <ele>342.4</ele>
        <time>2023-09-15T14:31:27Z</time>
      </trkpt>
      <trkpt lat="43.51717" lon="6.32662">
        <ele>342.4</ele>
        <time>2023-09-15T14:31:28Z</time>
      </trkpt>
      <trkpt lat="43.51717" lon="6.32662">
        <ele>342.4</ele>
        <time>2023-09-15T14:31:29Z</time>
      </trkpt>
      <trkpt lat="43.51717" lon="6.32662">
        <ele>342.4</ele>
        <time>2023-09-15T14:31:30Z</time>
      </trkpt>
      <trkpt lat="43.51717" lon="6.32662">
        <ele>342.4</ele>
        <time>2023-09-15T14:31:31Z</time>
      </trkpt>
      <trkpt lat="43.51717" lon="6.32662">
        <ele>342.4</ele>
        <time>2023-09-15T14:31:32Z</time>
      </trkpt>
      <trkpt lat="43.51718" lon="6.32662">
        <ele>342.4</ele>
        <time>2023-09-15T14:31:33Z</time>
      </trkpt>
      <trkpt lat="43.51718" lon="6.32662">
        <ele>342.4</ele>
        <time>2023-09-15T14:31:34Z</time>
      </trkpt>
      <trkpt lat="43.51718" lon="6.32662">
        <ele>342.4</ele>
        <time>2023-09-15T14:31:35Z</time>
      </trkpt>
      <trkpt lat="43.51718" lon="6.32662">
        <ele>342.4</ele>
        <time>2023-09-15T14:31:36Z</time>
      </trkpt>
      <trkpt lat="43.51718" lon="6.32662">
        <ele>342.4</ele>
        <time>2023-09-15T14:31:37Z</time>
      </trkpt>
      <trkpt lat="43.51718" lon="6.32662">
        <ele>342.4</ele>
        <time>2023-09-15T14:31:38Z</time>
      </trkpt>
      <trkpt lat="43.51718" lon="6.32662">
        <ele>342.4</ele>
        <time>2023-09-15T14:31:39Z</time>
      </trkpt>
      <trkpt lat="43.51718" lon="6.32662">
        <ele>342.4</ele>
        <time>2023-09-15T14:31:40Z</time>
      </trkpt>
      <trkpt lat="43.51718" lon="6.32662">
        <ele>342.4</ele>
        <time>2023-09-15T14:31:41Z</time>
      </trkpt>
      <trkpt lat="43.51718" lon="6.32662">
        <ele>342.4</ele>
        <time>2023-09-15T14:31:42Z</time>
      </trkpt>
      <trkpt lat="43.51718" lon="6.32663">
        <ele>342.4</ele>
        <time>2023-09-15T14:31:43Z</time>
      </trkpt>
      <trkpt lat="43.51718" lon="6.32663">
        <ele>342.4</ele>
        <time>2023-09-15T14:31:44Z</time>
      </trkpt>
      <trkpt lat="43.51718" lon="6.32663">
        <ele>342.4</ele>
        <time>2023-09-15T14:31:45Z</time>
      </trkpt>
      <trkpt lat="43.51717" lon="6.32663">
        <ele>342.4</ele>
        <time>2023-09-15T14:31:46Z</time>
      </trkpt>
      <trkpt lat="43.51717" lon="6.32663">
        <ele>342.4</ele>
        <time>2023-09-15T14:31:47Z</time>
      </trkpt>
      <trkpt lat="43.51717" lon="6.32663">
        <ele>342.4</ele>
        <time>2023-09-15T14:31:48Z</time>
      </trkpt>
      <trkpt lat="43.51717" lon="6.32663">
        <ele>342.4</ele>
        <time>2023-09-15T14:31:49Z</time>
      </trkpt>
      <trkpt lat="43.51717" lon="6.32663">
        <ele>342.4</ele>
        <time>2023-09-15T14:31:50Z</time>
      </trkpt>
      <trkpt lat="43.51717" lon="6.32663">
        <ele>342.4</ele>
        <time>2023-09-15T14:31:51Z</time>
      </trkpt>
      <trkpt lat="43.51716" lon="6.32663">
        <ele>342.4</ele>
        <time>2023-09-15T14:31:52Z</time>
      </trkpt>
      <trkpt lat="43.51716" lon="6.32663">
        <ele>342.4</ele>
        <time>2023-09-15T14:31:53Z</time>
      </trkpt>
      <trkpt lat="43.51716" lon="6.32663">
        <ele>342.3</ele>
        <time>2023-09-15T14:31:54Z</time>
      </trkpt>
      <trkpt lat="43.51716" lon="6.32663">
        <ele>342.4</ele>
        <time>2023-09-15T14:31:55Z</time>
      </trkpt>
      <trkpt lat="43.51716" lon="6.32663">
        <ele>342.4</ele>
        <time>2023-09-15T14:31:56Z</time>
      </trkpt>
      <trkpt lat="43.51716" lon="6.32663">
        <ele>342.4</ele>
        <time>2023-09-15T14:31:57Z</time>
      </trkpt>
      <trkpt lat="43.51715" lon="6.32664">
        <ele>342.3</ele>
        <time>2023-09-15T14:31:58Z</time>
      </trkpt>
      <trkpt lat="43.51714" lon="6.32664">
        <ele>342.2</ele>
        <time>2023-09-15T14:31:59Z</time>
      </trkpt>
      <trkpt lat="43.51714" lon="6.32664">
        <ele>342.2</ele>
        <time>2023-09-15T14:32:00Z</time>
      </trkpt>
      <trkpt lat="43.51714" lon="6.32664">
        <ele>342.1</ele>
        <time>2023-09-15T14:32:01Z</time>
      </trkpt>
      <trkpt lat="43.51714" lon="6.32664">
        <ele>342.1</ele>
        <time>2023-09-15T14:32:02Z</time>
      </trkpt>
      <trkpt lat="43.51714" lon="6.32664">
        <ele>342.1</ele>
        <time>2023-09-15T14:32:03Z</time>
      </trkpt>
      <trkpt lat="43.51714" lon="6.32664">
        <ele>342.1</ele>
        <time>2023-09-15T14:32:04Z</time>
      </trkpt>
      <trkpt lat="43.51714" lon="6.32664">
        <ele>342</ele>
        <time>2023-09-15T14:32:05Z</time>
      </trkpt>
      <trkpt lat="43.51715" lon="6.32664">
        <ele>342</ele>
        <time>2023-09-15T14:32:06Z</time>
      </trkpt>
      <trkpt lat="43.51715" lon="6.32664">
        <ele>342</ele>
        <time>2023-09-15T14:32:07Z</time>
      </trkpt>
      <trkpt lat="43.51715" lon="6.32664">
        <ele>342</ele>
        <time>2023-09-15T14:32:08Z</time>
      </trkpt>
      <trkpt lat="43.51715" lon="6.32664">
        <ele>342</ele>
        <time>2023-09-15T14:32:09Z</time>
      </trkpt>
      <trkpt lat="43.51715" lon="6.32664">
        <ele>341.9</ele>
        <time>2023-09-15T14:32:10Z</time>
      </trkpt>
      <trkpt lat="43.51715" lon="6.32664">
        <ele>341.9</ele>
        <time>2023-09-15T14:32:11Z</time>
      </trkpt>
      <trkpt lat="43.51715" lon="6.32664">
        <ele>341.8</ele>
        <time>2023-09-15T14:32:12Z</time>
      </trkpt>
      <trkpt lat="43.51714" lon="6.32664">
        <ele>341.8</ele>
        <time>2023-09-15T14:32:13Z</time>
      </trkpt>
      <trkpt lat="43.51714" lon="6.32664">
        <ele>341.7</ele>
        <time>2023-09-15T14:32:14Z</time>
      </trkpt>
      <trkpt lat="43.51714" lon="6.32664">
        <ele>341.7</ele>
        <time>2023-09-15T14:32:15Z</time>
      </trkpt>
      <trkpt lat="43.51714" lon="6.32665">
        <ele>341.7</ele>
        <time>2023-09-15T14:32:16Z</time>
      </trkpt>
      <trkpt lat="43.51714" lon="6.32665">
        <ele>341.4</ele>
        <time>2023-09-15T14:32:17Z</time>
      </trkpt>
      <trkpt lat="43.51714" lon="6.32665">
        <ele>341.4</ele>
        <time>2023-09-15T14:32:18Z</time>
      </trkpt>
      <trkpt lat="43.51715" lon="6.32666">
        <ele>341.5</ele>
        <time>2023-09-15T14:32:19Z</time>
      </trkpt>
      <trkpt lat="43.51715" lon="6.32666">
        <ele>341.6</ele>
        <time>2023-09-15T14:32:20Z</time>
      </trkpt>
      <trkpt lat="43.51715" lon="6.32666">
        <ele>341.7</ele>
        <time>2023-09-15T14:32:21Z</time>
      </trkpt>
      <trkpt lat="43.51715" lon="6.32666">
        <ele>341.8</ele>
        <time>2023-09-15T14:32:22Z</time>
      </trkpt>
      <trkpt lat="43.51715" lon="6.32667">
        <ele>341.9</ele>
        <time>2023-09-15T14:32:23Z</time>
      </trkpt>
      <trkpt lat="43.51715" lon="6.32667">
        <ele>342</ele>
        <time>2023-09-15T14:32:24Z</time>
      </trkpt>
      <trkpt lat="43.51716" lon="6.32667">
        <ele>342.1</ele>
        <time>2023-09-15T14:32:25Z</time>
      </trkpt>
      <trkpt lat="43.51716" lon="6.32667">
        <ele>342</ele>
        <time>2023-09-15T14:32:26Z</time>
      </trkpt>
      <trkpt lat="43.51716" lon="6.32667">
        <ele>342</ele>
        <time>2023-09-15T14:32:27Z</time>
      </trkpt>
      <trkpt lat="43.51716" lon="6.32667">
        <ele>342</ele>
        <time>2023-09-15T14:32:28Z</time>
      </trkpt>
      <trkpt lat="43.51716" lon="6.32667">
        <ele>342</ele>
        <time>2023-09-15T14:32:28Z</time>
      </trkpt>
      <trkpt lat="43.51716" lon="6.32667">
        <ele>342</ele>
        <time>2023-09-15T14:32:28Z</time>
      </trkpt>
    </trkseg>
  </trk>
</gpx>